<?xml version='1.0' encoding='UTF-8'?><gpx version="1.1" creator="JPX - https://github.com/jenetics/jpx" xmlns="http://www.topografix.com/GPX/1/1"><trk><trkseg><trkpt lat="41.835658991794745" lon="1.7648082361787878"><ele>298.0</ele><time>2026-04-25T08:55:15.922Z</time></trkpt><trkpt lat="41.83566364673919" lon="1.7648038704525797"><ele>298.0</ele><time>2026-04-25T08:59:17Z</time></trkpt><trkpt lat="41.835604944789715" lon="1.7647609081582902"><ele>298.0</ele><time>2026-04-25T08:59:36Z</time></trkpt><trkpt lat="41.83554453078844" lon="1.7647144722093817"><ele>298.0</ele><time>2026-04-25T08:59:38Z</time></trkpt><trkpt lat="41.83548495602824" lon="1.7646493701516237"><ele>298.0</ele><time>2026-04-25T08:59:40Z</time></trkpt><trkpt lat="41.83543548538703" lon="1.7645454169336383"><ele>298.0</ele><time>2026-04-25T08:59:42Z</time></trkpt><trkpt lat="41.835386721194695" lon="1.7644388676633505"><ele>298.0</ele><time>2026-04-25T08:59:44Z</time></trkpt><trkpt lat="41.835338937219724" lon="1.7643465392891509"><ele>298.3333333333333</ele><time>2026-04-25T08:59:46Z</time></trkpt><trkpt lat="41.835286446085924" lon="1.7642300381171412"><ele>298.66666666666663</ele><time>2026-04-25T08:59:48Z</time></trkpt><trkpt lat="41.835248923401494" lon="1.7641599300092186"><ele>299.0</ele><time>2026-04-25T08:59:49Z</time></trkpt><trkpt lat="41.835214636872415" lon="1.7640863127099764"><ele>299.3333333333333</ele><time>2026-04-25T08:59:50Z</time></trkpt><trkpt lat="41.8351805228507" lon="1.7640089698335202"><ele>299.6666666666667</ele><time>2026-04-25T08:59:51Z</time></trkpt><trkpt lat="41.83514214262568" lon="1.7639213775467553"><ele>300.0</ele><time>2026-04-25T08:59:52Z</time></trkpt><trkpt lat="41.83509995370254" lon="1.7638346133227143"><ele>298.8333333333333</ele><time>2026-04-25T08:59:53Z</time></trkpt><trkpt lat="41.83505629207219" lon="1.7637417974494307"><ele>297.6666666666667</ele><time>2026-04-25T08:59:54Z</time></trkpt><trkpt lat="41.835012112482296" lon="1.763647809394227"><ele>296.5</ele><time>2026-04-25T08:59:55Z</time></trkpt><trkpt lat="41.83496607752972" lon="1.763555273577748"><ele>295.33333333333337</ele><time>2026-04-25T08:59:56Z</time></trkpt><trkpt lat="41.834917043591766" lon="1.7634535578409876"><ele>294.1666666666667</ele><time>2026-04-25T08:59:57Z</time></trkpt><trkpt lat="41.83485947989962" lon="1.763341016886866"><ele>293.0</ele><time>2026-04-25T08:59:58Z</time></trkpt><trkpt lat="41.83479268366757" lon="1.7632144514743715"><ele>293.0</ele><time>2026-04-25T08:59:59Z</time></trkpt><trkpt lat="41.83472098779394" lon="1.763072972342754"><ele>293.0</ele><time>2026-04-25T09:00:00Z</time></trkpt><trkpt lat="41.834638977106586" lon="1.762906769370342"><ele>293.0</ele><time>2026-04-25T09:00:01Z</time></trkpt><trkpt lat="41.834542797585485" lon="1.7627160407473101"><ele>293.0</ele><time>2026-04-25T09:00:02Z</time></trkpt><trkpt lat="41.83445979831217" lon="1.7625489986494864"><ele>293.0</ele><time>2026-04-25T09:00:03Z</time></trkpt><trkpt lat="41.834391342709594" lon="1.7624011539508624"><ele>293.0</ele><time>2026-04-25T09:00:04Z</time></trkpt><trkpt lat="41.834327216613914" lon="1.7622573429317092"><ele>293.0</ele><time>2026-04-25T09:00:05Z</time></trkpt><trkpt lat="41.83426412239278" lon="1.7620966846719917"><ele>293.0</ele><time>2026-04-25T09:00:06Z</time></trkpt><trkpt lat="41.83420453542882" lon="1.7619618023381556"><ele>293.0</ele><time>2026-04-25T09:00:07Z</time></trkpt><trkpt lat="41.834151438982204" lon="1.7618097633703573"><ele>293.0</ele><time>2026-04-25T09:00:08Z</time></trkpt><trkpt lat="41.83410297446441" lon="1.7616559416575759"><ele>293.0</ele><time>2026-04-25T09:00:09Z</time></trkpt><trkpt lat="41.83405128897525" lon="1.7614954180099327"><ele>293.0</ele><time>2026-04-25T09:00:10Z</time></trkpt><trkpt lat="41.83400228015714" lon="1.7613279755259001"><ele>293.0</ele><time>2026-04-25T09:00:11Z</time></trkpt><trkpt lat="41.83395121006712" lon="1.7611256705167475"><ele>293.0</ele><time>2026-04-25T09:00:12Z</time></trkpt><trkpt lat="41.83389085574147" lon="1.7608949033365617"><ele>293.0</ele><time>2026-04-25T09:00:13Z</time></trkpt><trkpt lat="41.833833729192285" lon="1.7607462669008027"><ele>293.5</ele><time>2026-04-25T09:00:15Z</time></trkpt><trkpt lat="41.833790600496386" lon="1.760586343127743"><ele>294.0</ele><time>2026-04-25T09:00:16Z</time></trkpt><trkpt lat="41.833752524450304" lon="1.7604421669393686"><ele>294.5</ele><time>2026-04-25T09:00:17Z</time></trkpt><trkpt lat="41.83371532354186" lon="1.7603069679759653"><ele>295.0</ele><time>2026-04-25T09:00:18Z</time></trkpt><trkpt lat="41.833682767337436" lon="1.7601614622280743"><ele>295.2</ele><time>2026-04-25T09:00:19Z</time></trkpt><trkpt lat="41.83364615017247" lon="1.7600245125406866"><ele>295.4</ele><time>2026-04-25T09:00:20Z</time></trkpt><trkpt lat="41.833632479821524" lon="1.7599364456867848"><ele>295.6</ele><time>2026-04-25T09:00:21Z</time></trkpt><trkpt lat="41.83359046396956" lon="1.7598513467318972"><ele>295.8</ele><time>2026-04-25T09:00:22Z</time></trkpt><trkpt lat="41.8335288056038" lon="1.7596764437761148"><ele>296.0</ele><time>2026-04-25T09:00:23Z</time></trkpt><trkpt lat="41.83348347604956" lon="1.7595414125948603"><ele>294.0</ele><time>2026-04-25T09:00:24Z</time></trkpt><trkpt lat="41.83344225398386" lon="1.7593938697788931"><ele>292.0</ele><time>2026-04-25T09:00:25Z</time></trkpt><trkpt lat="41.8333927034666" lon="1.7592476017744114"><ele>290.0</ele><time>2026-04-25T09:00:26Z</time></trkpt><trkpt lat="41.833347812792844" lon="1.7590985401726955"><ele>288.0</ele><time>2026-04-25T09:00:27Z</time></trkpt><trkpt lat="41.83330635907615" lon="1.7589568351461387"><ele>288.0</ele><time>2026-04-25T09:00:28Z</time></trkpt><trkpt lat="41.83324473947118" lon="1.7587913791839611"><ele>288.0</ele><time>2026-04-25T09:00:29Z</time></trkpt><trkpt lat="41.83321209728605" lon="1.758700648414145"><ele>288.0</ele><time>2026-04-25T09:00:30Z</time></trkpt><trkpt lat="41.83316117565175" lon="1.7585662176492733"><ele>288.0</ele><time>2026-04-25T09:00:31Z</time></trkpt><trkpt lat="41.83310816997399" lon="1.7584320117431498"><ele>288.0</ele><time>2026-04-25T09:00:32Z</time></trkpt><trkpt lat="41.83305256110858" lon="1.7582965542629265"><ele>290.5</ele><time>2026-04-25T09:00:33Z</time></trkpt><trkpt lat="41.832989334723685" lon="1.7581674644518046"><ele>293.0</ele><time>2026-04-25T09:00:34Z</time></trkpt><trkpt lat="41.832924169711504" lon="1.7580364262318415"><ele>295.5</ele><time>2026-04-25T09:00:35Z</time></trkpt><trkpt lat="41.83286432149822" lon="1.7579086836697693"><ele>298.0</ele><time>2026-04-25T09:00:36Z</time></trkpt><trkpt lat="41.83280409723038" lon="1.7577830573686746"><ele>300.5</ele><time>2026-04-25T09:00:37Z</time></trkpt><trkpt lat="41.83274333938681" lon="1.7576498264069593"><ele>303.0</ele><time>2026-04-25T09:00:38Z</time></trkpt><trkpt lat="41.832688505890985" lon="1.7575076648272177"><ele>305.5</ele><time>2026-04-25T09:00:39Z</time></trkpt><trkpt lat="41.832635423281964" lon="1.7573584073002124"><ele>308.0</ele><time>2026-04-25T09:00:40Z</time></trkpt><trkpt lat="41.83258403777657" lon="1.7572013630528247"><ele>304.75</ele><time>2026-04-25T09:00:41Z</time></trkpt><trkpt lat="41.83252877206653" lon="1.7570370708091008"><ele>301.5</ele><time>2026-04-25T09:00:42Z</time></trkpt><trkpt lat="41.83248055544852" lon="1.7568819203155717"><ele>298.25</ele><time>2026-04-25T09:00:43Z</time></trkpt><trkpt lat="41.83242229636161" lon="1.756730841661877"><ele>295.0</ele><time>2026-04-25T09:00:44Z</time></trkpt><trkpt lat="41.832364319642345" lon="1.7565911807881511"><ele>295.0</ele><time>2026-04-25T09:00:45Z</time></trkpt><trkpt lat="41.83229901652576" lon="1.756462610775998"><ele>295.0</ele><time>2026-04-25T09:00:46Z</time></trkpt><trkpt lat="41.83224138247402" lon="1.756321135821167"><ele>295.0</ele><time>2026-04-25T09:00:47Z</time></trkpt><trkpt lat="41.8321580510691" lon="1.7562002675814892"><ele>295.0</ele><time>2026-04-25T09:00:48Z</time></trkpt><trkpt lat="41.832048309251064" lon="1.7561124162800872"><ele>293.75</ele><time>2026-04-25T09:00:49Z</time></trkpt><trkpt lat="41.83194567905118" lon="1.7560247644170623"><ele>292.5</ele><time>2026-04-25T09:00:50Z</time></trkpt><trkpt lat="41.83186657004897" lon="1.7559358961846763"><ele>291.25</ele><time>2026-04-25T09:00:51Z</time></trkpt><trkpt lat="41.83179248588116" lon="1.7558668809139706"><ele>290.0</ele><time>2026-04-25T09:00:52Z</time></trkpt><trkpt lat="41.831666578079485" lon="1.7557356461683316"><ele>290.0</ele><time>2026-04-25T09:00:53Z</time></trkpt><trkpt lat="41.83161012941401" lon="1.7556529410633368"><ele>290.0</ele><time>2026-04-25T09:00:54Z</time></trkpt><trkpt lat="41.83156958533482" lon="1.7555718464718275"><ele>290.0</ele><time>2026-04-25T09:00:55Z</time></trkpt><trkpt lat="41.83151867975224" lon="1.7554915669707436"><ele>290.0</ele><time>2026-04-25T09:00:56Z</time></trkpt><trkpt lat="41.83146957354999" lon="1.7554177289122521"><ele>290.0</ele><time>2026-04-25T09:00:57Z</time></trkpt><trkpt lat="41.831415709356506" lon="1.7553467286467759"><ele>290.0</ele><time>2026-04-25T09:00:58Z</time></trkpt><trkpt lat="41.83134614773263" lon="1.7553029890289757"><ele>290.0</ele><time>2026-04-25T09:00:59Z</time></trkpt><trkpt lat="41.83126115306494" lon="1.755212854692882"><ele>290.0</ele><time>2026-04-25T09:01:01Z</time></trkpt><trkpt lat="41.831188224523935" lon="1.755153814501362"><ele>290.0</ele><time>2026-04-25T09:01:27Z</time></trkpt><trkpt lat="41.831086679543276" lon="1.755085127633483"><ele>290.0</ele><time>2026-04-25T09:01:29Z</time></trkpt><trkpt lat="41.83103177930072" lon="1.7550261639705371"><ele>290.0</ele><time>2026-04-25T09:01:30Z</time></trkpt><trkpt lat="41.83097194743879" lon="1.7549525623686741"><ele>289.6</ele><time>2026-04-25T09:01:31Z</time></trkpt><trkpt lat="41.83090151602544" lon="1.7548717506207177"><ele>289.2</ele><time>2026-04-25T09:01:32Z</time></trkpt><trkpt lat="41.830820775271455" lon="1.7547770343508773"><ele>288.8</ele><time>2026-04-25T09:01:33Z</time></trkpt><trkpt lat="41.830740285555024" lon="1.7546899159830343"><ele>288.4</ele><time>2026-04-25T09:01:34Z</time></trkpt><trkpt lat="41.830674463308576" lon="1.7546085688001962"><ele>288.0</ele><time>2026-04-25T09:01:35Z</time></trkpt><trkpt lat="41.830613124124355" lon="1.7545308489076588"><ele>288.0</ele><time>2026-04-25T09:01:36Z</time></trkpt><trkpt lat="41.83054959579968" lon="1.754454148402259"><ele>288.0</ele><time>2026-04-25T09:01:37Z</time></trkpt><trkpt lat="41.83049295809688" lon="1.7543874236893116"><ele>288.0</ele><time>2026-04-25T09:01:37.999Z</time></trkpt><trkpt lat="41.83043880244059" lon="1.7543273268308874"><ele>288.0</ele><time>2026-04-25T09:01:38.999Z</time></trkpt><trkpt lat="41.83035243982268" lon="1.7542252337092872"><ele>288.0</ele><time>2026-04-25T09:01:40.999Z</time></trkpt><trkpt lat="41.83026492348771" lon="1.7541277279661227"><ele>287.8333333333333</ele><time>2026-04-25T09:01:42.999Z</time></trkpt><trkpt lat="41.830170136012214" lon="1.754017013793518"><ele>287.6666666666667</ele><time>2026-04-25T09:01:44.999Z</time></trkpt><trkpt lat="41.83012168895978" lon="1.753952992181514"><ele>287.5</ele><time>2026-04-25T09:01:45.999Z</time></trkpt><trkpt lat="41.83007001634001" lon="1.7538903718297456"><ele>287.33333333333337</ele><time>2026-04-25T09:01:46.999Z</time></trkpt><trkpt lat="41.83001931298725" lon="1.7538346219869303"><ele>287.1666666666667</ele><time>2026-04-25T09:01:47.999Z</time></trkpt><trkpt lat="41.829951774252166" lon="1.753745761731322"><ele>287.0</ele><time>2026-04-25T09:01:49.999Z</time></trkpt><trkpt lat="41.82988804193532" lon="1.7536793163640658"><ele>287.0</ele><time>2026-04-25T09:01:52.999Z</time></trkpt><trkpt lat="41.829822706186555" lon="1.7536029640111495"><ele>287.0</ele><time>2026-04-25T09:02:03Z</time></trkpt><trkpt lat="41.829738363208584" lon="1.753517697670024"><ele>287.0</ele><time>2026-04-25T09:02:05Z</time></trkpt><trkpt lat="41.82966942117893" lon="1.7534502343322498"><ele>287.0</ele><time>2026-04-25T09:02:07Z</time></trkpt><trkpt lat="41.82953375473828" lon="1.753562678725422"><ele>287.0</ele><time>2026-04-25T09:02:10Z</time></trkpt><trkpt lat="41.82948700051595" lon="1.7536562937823859"><ele>287.0</ele><time>2026-04-25T09:02:11Z</time></trkpt><trkpt lat="41.82943355812018" lon="1.7537485843285816"><ele>287.0</ele><time>2026-04-25T09:02:12Z</time></trkpt><trkpt lat="41.82936801425183" lon="1.753850514651541"><ele>287.0</ele><time>2026-04-25T09:02:13Z</time></trkpt><trkpt lat="41.82929377289777" lon="1.7539560904746156"><ele>287.0</ele><time>2026-04-25T09:02:14Z</time></trkpt><trkpt lat="41.82921482232427" lon="1.7540664596544189"><ele>287.0</ele><time>2026-04-25T09:02:15Z</time></trkpt><trkpt lat="41.82912333052943" lon="1.7541745412659169"><ele>286.0</ele><time>2026-04-25T09:02:16Z</time></trkpt><trkpt lat="41.829022800656034" lon="1.754278648901596"><ele>285.0</ele><time>2026-04-25T09:02:17Z</time></trkpt><trkpt lat="41.828919818031714" lon="1.754376274845257"><ele>284.0</ele><time>2026-04-25T09:02:18Z</time></trkpt><trkpt lat="41.82882195694141" lon="1.754468199556652"><ele>283.0</ele><time>2026-04-25T09:02:19Z</time></trkpt><trkpt lat="41.82872964163353" lon="1.7545585223635154"><ele>282.8333333333333</ele><time>2026-04-25T09:02:20Z</time></trkpt><trkpt lat="41.82864379946286" lon="1.7546428115707684"><ele>282.66666666666663</ele><time>2026-04-25T09:02:21Z</time></trkpt><trkpt lat="41.82857437647689" lon="1.7547109094866704"><ele>282.5</ele><time>2026-04-25T09:02:22Z</time></trkpt><trkpt lat="41.82851280788692" lon="1.754771700849681"><ele>282.3333333333333</ele><time>2026-04-25T09:02:23Z</time></trkpt><trkpt lat="41.828448065578634" lon="1.7548289866105276"><ele>282.1666666666667</ele><time>2026-04-25T09:02:24Z</time></trkpt><trkpt lat="41.82837987997932" lon="1.7548934455780636"><ele>282.0</ele><time>2026-04-25T09:02:25Z</time></trkpt><trkpt lat="41.82830970607986" lon="1.7549590106892963"><ele>281.6</ele><time>2026-04-25T09:02:26Z</time></trkpt><trkpt lat="41.82823723153656" lon="1.755027265433023"><ele>281.2</ele><time>2026-04-25T09:02:27Z</time></trkpt><trkpt lat="41.8281685138289" lon="1.755103858016794"><ele>280.8</ele><time>2026-04-25T09:02:28Z</time></trkpt><trkpt lat="41.82810084423584" lon="1.7551814801897518"><ele>280.4</ele><time>2026-04-25T09:02:29Z</time></trkpt><trkpt lat="41.82802812464462" lon="1.7552674109317707"><ele>280.0</ele><time>2026-04-25T09:02:30Z</time></trkpt><trkpt lat="41.82795522741995" lon="1.7553638526936992"><ele>279.8</ele><time>2026-04-25T09:02:31Z</time></trkpt><trkpt lat="41.82787971179747" lon="1.7554699324457614"><ele>279.6</ele><time>2026-04-25T09:02:32Z</time></trkpt><trkpt lat="41.82780305276946" lon="1.7555760666278606"><ele>279.4</ele><time>2026-04-25T09:02:33Z</time></trkpt><trkpt lat="41.827725173230384" lon="1.755685896953502"><ele>279.2</ele><time>2026-04-25T09:02:34Z</time></trkpt><trkpt lat="41.82765079056301" lon="1.7557976425343245"><ele>279.0</ele><time>2026-04-25T09:02:35Z</time></trkpt><trkpt lat="41.827576282926344" lon="1.7559022255039083"><ele>279.0</ele><time>2026-04-25T09:02:36Z</time></trkpt><trkpt lat="41.82750465177125" lon="1.7560015182203284"><ele>279.0</ele><time>2026-04-25T09:02:37Z</time></trkpt><trkpt lat="41.82743316788131" lon="1.756102142854552"><ele>279.0</ele><time>2026-04-25T09:02:38Z</time></trkpt><trkpt lat="41.82735837627898" lon="1.7562084867498318"><ele>279.0</ele><time>2026-04-25T09:02:39Z</time></trkpt><trkpt lat="41.82728094711025" lon="1.756319900729375"><ele>279.0</ele><time>2026-04-25T09:02:40Z</time></trkpt><trkpt lat="41.82720315858776" lon="1.7564378477387643"><ele>279.2</ele><time>2026-04-25T09:02:41Z</time></trkpt><trkpt lat="41.82712612708371" lon="1.756558607941626"><ele>279.4</ele><time>2026-04-25T09:02:42Z</time></trkpt><trkpt lat="41.827045970009856" lon="1.7566770551449722"><ele>279.6</ele><time>2026-04-25T09:02:43Z</time></trkpt><trkpt lat="41.82696698947248" lon="1.7567836447847662"><ele>279.8</ele><time>2026-04-25T09:02:44Z</time></trkpt><trkpt lat="41.82690126508422" lon="1.7568766230243158"><ele>280.0</ele><time>2026-04-25T09:02:45Z</time></trkpt><trkpt lat="41.82684264431994" lon="1.756960976886338"><ele>280.42857142857144</ele><time>2026-04-25T09:02:46Z</time></trkpt><trkpt lat="41.82679191957409" lon="1.757040653221258"><ele>280.8571428571429</ele><time>2026-04-25T09:02:47Z</time></trkpt><trkpt lat="41.82673984555356" lon="1.757120952029124"><ele>281.2857142857143</ele><time>2026-04-25T09:02:48Z</time></trkpt><trkpt lat="41.82668096397512" lon="1.7571853085831204"><ele>281.7142857142857</ele><time>2026-04-25T09:02:49Z</time></trkpt><trkpt lat="41.82660842248968" lon="1.7572206161992165"><ele>282.14285714285717</ele><time>2026-04-25T09:02:50Z</time></trkpt><trkpt lat="41.82655738408929" lon="1.7572755170660705"><ele>282.57142857142856</ele><time>2026-04-25T09:02:51Z</time></trkpt><trkpt lat="41.82651151825287" lon="1.7573421675995244"><ele>283.0</ele><time>2026-04-25T09:02:52Z</time></trkpt><trkpt lat="41.82645589381514" lon="1.7574228204967774"><ele>283.0</ele><time>2026-04-25T09:02:53Z</time></trkpt><trkpt lat="41.82639355313577" lon="1.7575127342394834"><ele>283.0</ele><time>2026-04-25T09:02:54Z</time></trkpt><trkpt lat="41.826330971603866" lon="1.7576003690503308"><ele>283.0</ele><time>2026-04-25T09:02:55Z</time></trkpt><trkpt lat="41.82629129576035" lon="1.7577461713558795"><ele>283.0</ele><time>2026-04-25T09:02:56Z</time></trkpt><trkpt lat="41.82621587247727" lon="1.757875346351738"><ele>283.0</ele><time>2026-04-25T09:02:57Z</time></trkpt><trkpt lat="41.82611568325473" lon="1.7579946500645616"><ele>283.0</ele><time>2026-04-25T09:02:58Z</time></trkpt><trkpt lat="41.82601253021756" lon="1.758130287404064"><ele>283.0</ele><time>2026-04-25T09:02:59Z</time></trkpt><trkpt lat="41.8259045682852" lon="1.7582856301153564"><ele>283.0</ele><time>2026-04-25T09:03:00Z</time></trkpt><trkpt lat="41.82579331181022" lon="1.7584509201010388"><ele>285.3333333333333</ele><time>2026-04-25T09:03:01Z</time></trkpt><trkpt lat="41.825671228224294" lon="1.7586237678163905"><ele>287.6666666666667</ele><time>2026-04-25T09:03:02Z</time></trkpt><trkpt lat="41.82554044294436" lon="1.758809137603872"><ele>290.0</ele><time>2026-04-25T09:03:03Z</time></trkpt><trkpt lat="41.825417547854194" lon="1.7589884595500367"><ele>290.0</ele><time>2026-04-25T09:03:04Z</time></trkpt><trkpt lat="41.8253160281054" lon="1.7591742828373338"><ele>290.0</ele><time>2026-04-25T09:03:05Z</time></trkpt><trkpt lat="41.8252402524557" lon="1.7593806182343048"><ele>290.0</ele><time>2026-04-25T09:03:06Z</time></trkpt><trkpt lat="41.82517773945406" lon="1.7596107131300731"><ele>288.0</ele><time>2026-04-25T09:03:07Z</time></trkpt><trkpt lat="41.82511212159139" lon="1.759831066097822"><ele>286.0</ele><time>2026-04-25T09:03:08Z</time></trkpt><trkpt lat="41.82503630550554" lon="1.7600139519183284"><ele>284.0</ele><time>2026-04-25T09:03:09Z</time></trkpt><trkpt lat="41.824951184170146" lon="1.7601732474447598"><ele>286.0</ele><time>2026-04-25T09:03:10Z</time></trkpt><trkpt lat="41.8248494799714" lon="1.7603273263053862"><ele>288.0</ele><time>2026-04-25T09:03:11Z</time></trkpt><trkpt lat="41.824743110015085" lon="1.7604814635091466"><ele>290.0</ele><time>2026-04-25T09:03:12Z</time></trkpt><trkpt lat="41.82463722946152" lon="1.76062529047766"><ele>290.0</ele><time>2026-04-25T09:03:13Z</time></trkpt><trkpt lat="41.8245310896982" lon="1.7607565679461543"><ele>290.0</ele><time>2026-04-25T09:03:14Z</time></trkpt><trkpt lat="41.82442232731659" lon="1.7608844591000254"><ele>290.0</ele><time>2026-04-25T09:03:15Z</time></trkpt><trkpt lat="41.82431581733338" lon="1.7610048344944131"><ele>290.0</ele><time>2026-04-25T09:03:16Z</time></trkpt><trkpt lat="41.824199380145274" lon="1.7611115665081725"><ele>291.0</ele><time>2026-04-25T09:03:17Z</time></trkpt><trkpt lat="41.824052402996685" lon="1.7611627674915522"><ele>292.0</ele><time>2026-04-25T09:03:18Z</time></trkpt><trkpt lat="41.82390352145652" lon="1.7612275146503384"><ele>293.0</ele><time>2026-04-25T09:03:19Z</time></trkpt><trkpt lat="41.82374974452116" lon="1.7612959973941842"><ele>293.0</ele><time>2026-04-25T09:03:20Z</time></trkpt><trkpt lat="41.82358890537187" lon="1.761367625222908"><ele>293.0</ele><time>2026-04-25T09:03:21Z</time></trkpt><trkpt lat="41.8234261867299" lon="1.7614406602586725"><ele>293.0</ele><time>2026-04-25T09:03:22Z</time></trkpt><trkpt lat="41.823265843631155" lon="1.7615149567689499"><ele>291.0</ele><time>2026-04-25T09:03:23Z</time></trkpt><trkpt lat="41.8231221483435" lon="1.7616040799774626"><ele>289.0</ele><time>2026-04-25T09:03:24Z</time></trkpt><trkpt lat="41.82299736931531" lon="1.7616648791024714"><ele>287.0</ele><time>2026-04-25T09:03:25Z</time></trkpt><trkpt lat="41.82287390733347" lon="1.7617124104679942"><ele>285.0</ele><time>2026-04-25T09:03:26Z</time></trkpt><trkpt lat="41.82273658174121" lon="1.7617445482285168"><ele>284.6666666666667</ele><time>2026-04-25T09:03:27Z</time></trkpt><trkpt lat="41.822594069554754" lon="1.7617329254206002"><ele>284.33333333333337</ele><time>2026-04-25T09:03:28Z</time></trkpt><trkpt lat="41.82243288293325" lon="1.761709857976592"><ele>284.0</ele><time>2026-04-25T09:03:29Z</time></trkpt><trkpt lat="41.82227078566332" lon="1.7616682854258454"><ele>284.0</ele><time>2026-04-25T09:03:30Z</time></trkpt><trkpt lat="41.822099102305415" lon="1.76162836181111"><ele>284.0</ele><time>2026-04-25T09:03:31Z</time></trkpt><trkpt lat="41.82190884397951" lon="1.7615870198759473"><ele>284.0</ele><time>2026-04-25T09:03:32Z</time></trkpt><trkpt lat="41.821680171746195" lon="1.7615412715031256"><ele>285.0</ele><time>2026-04-25T09:03:33Z</time></trkpt><trkpt lat="41.82142416379041" lon="1.7615151404261518"><ele>286.0</ele><time>2026-04-25T09:03:34Z</time></trkpt><trkpt lat="41.82116026058654" lon="1.7614791301525299"><ele>286.0</ele><time>2026-04-25T09:03:35Z</time></trkpt><trkpt lat="41.82121476081864" lon="1.761433011511966"><ele>286.0</ele><time>2026-04-25T09:03:36Z</time></trkpt><trkpt lat="41.82105782485704" lon="1.7613952115647116"><ele>286.0</ele><time>2026-04-25T09:03:37Z</time></trkpt><trkpt lat="41.82090410542446" lon="1.7613550884942484"><ele>286.0</ele><time>2026-04-25T09:03:38Z</time></trkpt><trkpt lat="41.820740593041805" lon="1.7613238813464438"><ele>287.3333333333333</ele><time>2026-04-25T09:03:39Z</time></trkpt><trkpt lat="41.820576777986915" lon="1.7612830317949937"><ele>288.6666666666667</ele><time>2026-04-25T09:03:40Z</time></trkpt><trkpt lat="41.82041178582863" lon="1.761242211994521"><ele>290.0</ele><time>2026-04-25T09:03:41Z</time></trkpt><trkpt lat="41.82024287118056" lon="1.7612036305270198"><ele>292.33333333333337</ele><time>2026-04-25T09:03:42Z</time></trkpt><trkpt lat="41.820074763545136" lon="1.761167766462195"><ele>294.6666666666667</ele><time>2026-04-25T09:03:43Z</time></trkpt><trkpt lat="41.81990376694702" lon="1.761125474831973"><ele>297.0</ele><time>2026-04-25T09:03:44Z</time></trkpt><trkpt lat="41.819745812226984" lon="1.7610879437526403"><ele>297.0</ele><time>2026-04-25T09:03:45Z</time></trkpt><trkpt lat="41.81958664941457" lon="1.7610490805202272"><ele>297.0</ele><time>2026-04-25T09:03:46Z</time></trkpt><trkpt lat="41.81943454845778" lon="1.7610136813452466"><ele>297.0</ele><time>2026-04-25T09:03:47Z</time></trkpt><trkpt lat="41.81929346464119" lon="1.7609773756186444"><ele>294.4</ele><time>2026-04-25T09:03:48Z</time></trkpt><trkpt lat="41.81916093929246" lon="1.7609443291620634"><ele>291.79999999999995</ele><time>2026-04-25T09:03:49Z</time></trkpt><trkpt lat="41.81904891711802" lon="1.760916596080968"><ele>289.2</ele><time>2026-04-25T09:03:50Z</time></trkpt><trkpt lat="41.818950027250935" lon="1.7608891067663655"><ele>286.59999999999997</ele><time>2026-04-25T09:03:51Z</time></trkpt><trkpt lat="41.81886204403703" lon="1.760870815950695"><ele>284.0</ele><time>2026-04-25T09:03:52Z</time></trkpt><trkpt lat="41.81877952980731" lon="1.7608508994105625"><ele>284.0</ele><time>2026-04-25T09:03:53Z</time></trkpt><trkpt lat="41.81870762308019" lon="1.760837414865311"><ele>284.0</ele><time>2026-04-25T09:03:54Z</time></trkpt><trkpt lat="41.8186364777089" lon="1.7608214367909354"><ele>284.0</ele><time>2026-04-25T09:03:55Z</time></trkpt><trkpt lat="41.81856007589786" lon="1.7608016111898883"><ele>284.0</ele><time>2026-04-25T09:03:56Z</time></trkpt><trkpt lat="41.818479551402426" lon="1.7607843093488404"><ele>284.0</ele><time>2026-04-25T09:03:57Z</time></trkpt><trkpt lat="41.81838716057973" lon="1.7607625069824424"><ele>284.0</ele><time>2026-04-25T09:03:58Z</time></trkpt><trkpt lat="41.81828381947581" lon="1.7607404660827424"><ele>282.8</ele><time>2026-04-25T09:03:59Z</time></trkpt><trkpt lat="41.81819364343453" lon="1.7607222356023597"><ele>281.59999999999997</ele><time>2026-04-25T09:04:00Z</time></trkpt><trkpt lat="41.81809362132985" lon="1.760721204295258"><ele>280.4</ele><time>2026-04-25T09:04:01Z</time></trkpt><trkpt lat="41.817988687810114" lon="1.7607337737106408"><ele>279.2</ele><time>2026-04-25T09:04:02Z</time></trkpt><trkpt lat="41.81788185832359" lon="1.7607711183042845"><ele>278.0</ele><time>2026-04-25T09:04:03Z</time></trkpt><trkpt lat="41.81778582261563" lon="1.7608297186123265"><ele>278.0</ele><time>2026-04-25T09:04:04Z</time></trkpt><trkpt lat="41.81770753408261" lon="1.7609007632923837"><ele>278.0</ele><time>2026-04-25T09:04:05Z</time></trkpt><trkpt lat="41.81761135127705" lon="1.760944832926185"><ele>278.0</ele><time>2026-04-25T09:04:06Z</time></trkpt><trkpt lat="41.817526159201655" lon="1.761026801348984"><ele>278.0</ele><time>2026-04-25T09:04:07Z</time></trkpt><trkpt lat="41.81742899915753" lon="1.761090772708357"><ele>278.0</ele><time>2026-04-25T09:04:08Z</time></trkpt><trkpt lat="41.81733449976444" lon="1.761153246574655"><ele>278.0</ele><time>2026-04-25T09:04:09Z</time></trkpt><trkpt lat="41.81723877533385" lon="1.761218523517386"><ele>278.0</ele><time>2026-04-25T09:04:10Z</time></trkpt><trkpt lat="41.81714088543176" lon="1.7612843386021402"><ele>278.0</ele><time>2026-04-25T09:04:11Z</time></trkpt><trkpt lat="41.81704069744262" lon="1.7613525232530478"><ele>278.0</ele><time>2026-04-25T09:04:12Z</time></trkpt><trkpt lat="41.81694049180592" lon="1.761423092771274"><ele>278.0</ele><time>2026-04-25T09:04:13Z</time></trkpt><trkpt lat="41.816839115571355" lon="1.761490889845759"><ele>276.5</ele><time>2026-04-25T09:04:14Z</time></trkpt><trkpt lat="41.816731895377" lon="1.761555690222025"><ele>275.0</ele><time>2026-04-25T09:04:15Z</time></trkpt><trkpt lat="41.81661703760223" lon="1.7616321293272308"><ele>273.5</ele><time>2026-04-25T09:04:16Z</time></trkpt><trkpt lat="41.81649826729698" lon="1.7617120261820551"><ele>272.0</ele><time>2026-04-25T09:04:17Z</time></trkpt><trkpt lat="41.81637194293423" lon="1.7617959986573666"><ele>272.75</ele><time>2026-04-25T09:04:18Z</time></trkpt><trkpt lat="41.81625776109683" lon="1.7618766617681665"><ele>273.5</ele><time>2026-04-25T09:04:19Z</time></trkpt><trkpt lat="41.816136680511086" lon="1.7619544024580382"><ele>274.25</ele><time>2026-04-25T09:04:20Z</time></trkpt><trkpt lat="41.81601354330383" lon="1.7620407904512565"><ele>275.0</ele><time>2026-04-25T09:04:21Z</time></trkpt><trkpt lat="41.815889671569145" lon="1.7621290377057657"><ele>275.0</ele><time>2026-04-25T09:04:22Z</time></trkpt><trkpt lat="41.81575543126272" lon="1.7622200270795303"><ele>275.0</ele><time>2026-04-25T09:04:23Z</time></trkpt><trkpt lat="41.815616631970386" lon="1.762309810711579"><ele>275.0</ele><time>2026-04-25T09:04:24Z</time></trkpt><trkpt lat="41.81546894947781" lon="1.7624158047897098"><ele>275.0</ele><time>2026-04-25T09:04:25Z</time></trkpt><trkpt lat="41.81531013659223" lon="1.7625217413347218"><ele>275.0</ele><time>2026-04-25T09:04:26Z</time></trkpt><trkpt lat="41.81515013558147" lon="1.762628241563741"><ele>275.0</ele><time>2026-04-25T09:04:27Z</time></trkpt><trkpt lat="41.814982398022394" lon="1.762740093966297"><ele>279.0</ele><time>2026-04-25T09:04:28Z</time></trkpt><trkpt lat="41.814828693494356" lon="1.762840697484509"><ele>283.0</ele><time>2026-04-25T09:04:29Z</time></trkpt><trkpt lat="41.814679642034925" lon="1.7629026158397543"><ele>287.0</ele><time>2026-04-25T09:04:30Z</time></trkpt><trkpt lat="41.81453579538397" lon="1.7629938097429574"><ele>287.0</ele><time>2026-04-25T09:04:31Z</time></trkpt><trkpt lat="41.814373909385665" lon="1.7630187509442599"><ele>287.0</ele><time>2026-04-25T09:04:32Z</time></trkpt><trkpt lat="41.814213975441135" lon="1.763051468766888"><ele>287.0</ele><time>2026-04-25T09:04:33Z</time></trkpt><trkpt lat="41.814057194641556" lon="1.7630696867823703"><ele>287.0</ele><time>2026-04-25T09:04:34.001Z</time></trkpt><trkpt lat="41.81389496919812" lon="1.7630903433508158"><ele>287.0</ele><time>2026-04-25T09:04:35.001Z</time></trkpt><trkpt lat="41.81373340600139" lon="1.763069725147656"><ele>287.0</ele><time>2026-04-25T09:04:36.001Z</time></trkpt><trkpt lat="41.81357373353878" lon="1.7630265352908074"><ele>290.6666666666667</ele><time>2026-04-25T09:04:37.001Z</time></trkpt><trkpt lat="41.81343117286531" lon="1.7629338938489711"><ele>294.3333333333333</ele><time>2026-04-25T09:04:38.001Z</time></trkpt><trkpt lat="41.81327050324458" lon="1.7628364174909834"><ele>298.0</ele><time>2026-04-25T09:04:39.001Z</time></trkpt><trkpt lat="41.81312588382991" lon="1.7627190449579004"><ele>288.66666666666663</ele><time>2026-04-25T09:04:40.001Z</time></trkpt><trkpt lat="41.81298068066369" lon="1.762581471719497"><ele>279.3333333333333</ele><time>2026-04-25T09:04:41.001Z</time></trkpt><trkpt lat="41.812828983331514" lon="1.7624495381859977"><ele>270.0</ele><time>2026-04-25T09:04:42.001Z</time></trkpt><trkpt lat="41.81269378694056" lon="1.762290052905981"><ele>270.3333333333333</ele><time>2026-04-25T09:04:43.001Z</time></trkpt><trkpt lat="41.81256243077658" lon="1.762124465928699"><ele>270.66666666666663</ele><time>2026-04-25T09:04:44.001Z</time></trkpt><trkpt lat="41.812448512363964" lon="1.7619361608552668"><ele>271.0</ele><time>2026-04-25T09:04:45.001Z</time></trkpt><trkpt lat="41.81231820863534" lon="1.7617571174770763"><ele>271.0</ele><time>2026-04-25T09:04:46.001Z</time></trkpt><trkpt lat="41.81220596651189" lon="1.7615626428021585"><ele>271.0</ele><time>2026-04-25T09:04:47.001Z</time></trkpt><trkpt lat="41.8120992228586" lon="1.761386308436835"><ele>271.0</ele><time>2026-04-25T09:04:48.001Z</time></trkpt><trkpt lat="41.81198109364774" lon="1.7612305558168635"><ele>271.0</ele><time>2026-04-25T09:04:49.001Z</time></trkpt><trkpt lat="41.811850195105364" lon="1.7610991286766795"><ele>271.0</ele><time>2026-04-25T09:04:50.001Z</time></trkpt><trkpt lat="41.811706643674334" lon="1.7609668792326572"><ele>271.0</ele><time>2026-04-25T09:04:51.001Z</time></trkpt><trkpt lat="41.811556728533134" lon="1.7608489250851553"><ele>269.3333333333333</ele><time>2026-04-25T09:04:52.001Z</time></trkpt><trkpt lat="41.81142169096132" lon="1.7607529188064024"><ele>267.6666666666667</ele><time>2026-04-25T09:04:53.001Z</time></trkpt><trkpt lat="41.811280434587104" lon="1.7606718144316766"><ele>266.0</ele><time>2026-04-25T09:04:54.001Z</time></trkpt><trkpt lat="41.810991242563176" lon="1.7605818618322242"><ele>266.6666666666667</ele><time>2026-04-25T09:04:56.001Z</time></trkpt><trkpt lat="41.81083663086149" lon="1.7605969895637366"><ele>267.3333333333333</ele><time>2026-04-25T09:04:57.001Z</time></trkpt><trkpt lat="41.810675553750684" lon="1.7606088041519745"><ele>268.0</ele><time>2026-04-25T09:04:58.001Z</time></trkpt><trkpt lat="41.810515702607816" lon="1.7606657665445928"><ele>268.0</ele><time>2026-04-25T09:04:59.001Z</time></trkpt><trkpt lat="41.810350844287846" lon="1.7607404335733374"><ele>268.0</ele><time>2026-04-25T09:05:00.001Z</time></trkpt><trkpt lat="41.81018498023118" lon="1.760834876104366"><ele>268.0</ele><time>2026-04-25T09:05:01.001Z</time></trkpt><trkpt lat="41.810014780015706" lon="1.7609301211097799"><ele>267.3333333333333</ele><time>2026-04-25T09:05:02.001Z</time></trkpt><trkpt lat="41.809839119136306" lon="1.761016102192545"><ele>266.6666666666667</ele><time>2026-04-25T09:05:03.001Z</time></trkpt><trkpt lat="41.809667137338046" lon="1.7610849191680817"><ele>266.0</ele><time>2026-04-25T09:05:04.001Z</time></trkpt><trkpt lat="41.80948772624612" lon="1.7611413461676717"><ele>270.6666666666667</ele><time>2026-04-25T09:05:05.001Z</time></trkpt><trkpt lat="41.80929785699139" lon="1.7611928294573123"><ele>275.3333333333333</ele><time>2026-04-25T09:05:06.001Z</time></trkpt><trkpt lat="41.80910309566072" lon="1.7612353028812497"><ele>280.0</ele><time>2026-04-25T09:05:07.001Z</time></trkpt><trkpt lat="41.808906391272465" lon="1.7612758453068578"><ele>280.0</ele><time>2026-04-25T09:05:08.001Z</time></trkpt><trkpt lat="41.808704932698305" lon="1.761320817137313"><ele>280.0</ele><time>2026-04-25T09:05:09.001Z</time></trkpt><trkpt lat="41.80850529298827" lon="1.7613603002892468"><ele>280.0</ele><time>2026-04-25T09:05:10.001Z</time></trkpt><trkpt lat="41.8083076290299" lon="1.7614110395708933"><ele>278.66666666666663</ele><time>2026-04-25T09:05:11.001Z</time></trkpt><trkpt lat="41.80808654673467" lon="1.7614932745600378"><ele>277.3333333333333</ele><time>2026-04-25T09:05:12.001Z</time></trkpt><trkpt lat="41.80787872938224" lon="1.7615876793055882"><ele>276.0</ele><time>2026-04-25T09:05:13.001Z</time></trkpt><trkpt lat="41.80767398592382" lon="1.7616900807582176"><ele>273.3333333333333</ele><time>2026-04-25T09:05:14.001Z</time></trkpt><trkpt lat="41.8074708739587" lon="1.7617933830831374"><ele>270.66666666666663</ele><time>2026-04-25T09:05:15.001Z</time></trkpt><trkpt lat="41.807258980628994" lon="1.761863373037048"><ele>268.0</ele><time>2026-04-25T09:05:16.001Z</time></trkpt><trkpt lat="41.80705219004096" lon="1.7619559441357486"><ele>271.66666666666663</ele><time>2026-04-25T09:05:17.001Z</time></trkpt><trkpt lat="41.80685104004616" lon="1.7620683561930504"><ele>275.3333333333333</ele><time>2026-04-25T09:05:18.001Z</time></trkpt><trkpt lat="41.80664459431404" lon="1.762157923990838"><ele>279.0</ele><time>2026-04-25T09:05:19.001Z</time></trkpt><trkpt lat="41.80644167190911" lon="1.7622483883648947"><ele>279.0</ele><time>2026-04-25T09:05:20.001Z</time></trkpt><trkpt lat="41.806236124239355" lon="1.762341559453283"><ele>279.0</ele><time>2026-04-25T09:05:21.001Z</time></trkpt><trkpt lat="41.80604004618244" lon="1.762430389444531"><ele>279.0</ele><time>2026-04-25T09:05:22.001Z</time></trkpt><trkpt lat="41.80585370327311" lon="1.7625163755457063"><ele>276.3333333333333</ele><time>2026-04-25T09:05:23.001Z</time></trkpt><trkpt lat="41.805667107153354" lon="1.7626011722926214"><ele>273.66666666666663</ele><time>2026-04-25T09:05:24.001Z</time></trkpt><trkpt lat="41.805487656631996" lon="1.7626981785293068"><ele>271.0</ele><time>2026-04-25T09:05:25.001Z</time></trkpt><trkpt lat="41.8053206252669" lon="1.7628152954490302"><ele>271.66666666666663</ele><time>2026-04-25T09:05:26.001Z</time></trkpt><trkpt lat="41.805163610853164" lon="1.7629600809245976"><ele>272.3333333333333</ele><time>2026-04-25T09:05:27.001Z</time></trkpt><trkpt lat="41.80501371901584" lon="1.7631312039328229"><ele>273.0</ele><time>2026-04-25T09:05:28.001Z</time></trkpt><trkpt lat="41.80486708666823" lon="1.7633213218946626"><ele>273.0</ele><time>2026-04-25T09:05:29.001Z</time></trkpt><trkpt lat="41.80471896594336" lon="1.7635149759113695"><ele>273.0</ele><time>2026-04-25T09:05:30.001Z</time></trkpt><trkpt lat="41.80457033803965" lon="1.7637156474448186"><ele>273.0</ele><time>2026-04-25T09:05:31.001Z</time></trkpt><trkpt lat="41.8044210888698" lon="1.763916396637376"><ele>273.6666666666667</ele><time>2026-04-25T09:05:32.001Z</time></trkpt><trkpt lat="41.804274479249095" lon="1.7641128607046759"><ele>274.33333333333337</ele><time>2026-04-25T09:05:33.001Z</time></trkpt><trkpt lat="41.804134212820614" lon="1.7643001394237532"><ele>275.0</ele><time>2026-04-25T09:05:34.001Z</time></trkpt><trkpt lat="41.803993094122426" lon="1.7644905964347222"><ele>275.0</ele><time>2026-04-25T09:05:35.001Z</time></trkpt><trkpt lat="41.803848888084396" lon="1.7646850768342948"><ele>275.0</ele><time>2026-04-25T09:05:36.001Z</time></trkpt><trkpt lat="41.80369937337512" lon="1.7648839779048275"><ele>275.0</ele><time>2026-04-25T09:05:37.001Z</time></trkpt><trkpt lat="41.80354343386035" lon="1.7650864541758307"><ele>276.6666666666667</ele><time>2026-04-25T09:05:38.001Z</time></trkpt><trkpt lat="41.80338822687303" lon="1.7652874808437453"><ele>278.3333333333333</ele><time>2026-04-25T09:05:39.001Z</time></trkpt><trkpt lat="41.80322828690493" lon="1.765482242954491"><ele>280.0</ele><time>2026-04-25T09:05:40.001Z</time></trkpt><trkpt lat="41.80305359974552" lon="1.7656462022572468"><ele>280.0</ele><time>2026-04-25T09:05:41.001Z</time></trkpt><trkpt lat="41.80288196594918" lon="1.7658002535591344"><ele>280.0</ele><time>2026-04-25T09:05:42.001Z</time></trkpt><trkpt lat="41.80270518565781" lon="1.7659408679375022"><ele>280.0</ele><time>2026-04-25T09:05:43.001Z</time></trkpt><trkpt lat="41.802538124485935" lon="1.766088337082464"><ele>280.66666666666663</ele><time>2026-04-25T09:05:44.001Z</time></trkpt><trkpt lat="41.8023566806163" lon="1.7662059772267922"><ele>281.3333333333333</ele><time>2026-04-25T09:05:45.001Z</time></trkpt><trkpt lat="41.80218120784033" lon="1.7663259630905601"><ele>282.0</ele><time>2026-04-25T09:05:46.001Z</time></trkpt><trkpt lat="41.802007924546785" lon="1.7664591074479208"><ele>282.0</ele><time>2026-04-25T09:05:47.001Z</time></trkpt><trkpt lat="41.80184013988646" lon="1.7666063590333405"><ele>282.0</ele><time>2026-04-25T09:05:48.001Z</time></trkpt><trkpt lat="41.801679648971366" lon="1.766767100292844"><ele>282.0</ele><time>2026-04-25T09:05:49.001Z</time></trkpt><trkpt lat="41.80152595818597" lon="1.766939347067078"><ele>281.6666666666667</ele><time>2026-04-25T09:05:50.001Z</time></trkpt><trkpt lat="41.8013783256941" lon="1.7671257285619082"><ele>281.33333333333337</ele><time>2026-04-25T09:05:51.001Z</time></trkpt><trkpt lat="41.80123587250176" lon="1.767320040616702"><ele>281.0</ele><time>2026-04-25T09:05:52.001Z</time></trkpt><trkpt lat="41.80109646142068" lon="1.7675246699225446"><ele>281.0</ele><time>2026-04-25T09:05:53.001Z</time></trkpt><trkpt lat="41.80096131389628" lon="1.767734040862407"><ele>281.0</ele><time>2026-04-25T09:05:54.001Z</time></trkpt><trkpt lat="41.80082489430685" lon="1.7679481065640221"><ele>281.0</ele><time>2026-04-25T09:05:55.001Z</time></trkpt><trkpt lat="41.80068765605233" lon="1.7681630224464775"><ele>281.0</ele><time>2026-04-25T09:05:56.001Z</time></trkpt><trkpt lat="41.800553870286045" lon="1.7683756997750728"><ele>281.0</ele><time>2026-04-25T09:05:57.001Z</time></trkpt><trkpt lat="41.80042427959546" lon="1.768586238344214"><ele>281.0</ele><time>2026-04-25T09:05:58.001Z</time></trkpt><trkpt lat="41.80029792041279" lon="1.7687921015385482"><ele>281.0</ele><time>2026-04-25T09:05:59.001Z</time></trkpt><trkpt lat="41.800174361057294" lon="1.7689908157181253"><ele>281.0</ele><time>2026-04-25T09:06:00.001Z</time></trkpt><trkpt lat="41.800054710381524" lon="1.769177953899753"><ele>281.0</ele><time>2026-04-25T09:06:01.001Z</time></trkpt><trkpt lat="41.799939543155226" lon="1.7693576835647455"><ele>281.0</ele><time>2026-04-25T09:06:02.001Z</time></trkpt><trkpt lat="41.79982298793613" lon="1.7695316241035675"><ele>281.0</ele><time>2026-04-25T09:06:03.001Z</time></trkpt><trkpt lat="41.79970921113028" lon="1.7697081400556343"><ele>281.0</ele><time>2026-04-25T09:06:04.001Z</time></trkpt><trkpt lat="41.799596939196434" lon="1.7698918361749922"><ele>281.0</ele><time>2026-04-25T09:06:05.001Z</time></trkpt><trkpt lat="41.79947862840211" lon="1.7700744724280948"><ele>281.0</ele><time>2026-04-25T09:06:06.001Z</time></trkpt><trkpt lat="41.79936248137941" lon="1.7702601901382795"><ele>281.0</ele><time>2026-04-25T09:06:07.001Z</time></trkpt><trkpt lat="41.79925339159162" lon="1.7704469930020559"><ele>280.0</ele><time>2026-04-25T09:06:08.001Z</time></trkpt><trkpt lat="41.799152657983576" lon="1.7706423647161316"><ele>279.0</ele><time>2026-04-25T09:06:09.001Z</time></trkpt><trkpt lat="41.799048542176784" lon="1.7708483111920885"><ele>278.0</ele><time>2026-04-25T09:06:10.001Z</time></trkpt><trkpt lat="41.79894892089915" lon="1.7710572139291636"><ele>277.0</ele><time>2026-04-25T09:06:11.001Z</time></trkpt><trkpt lat="41.79885995614703" lon="1.771282739474224"><ele>276.0</ele><time>2026-04-25T09:06:12.001Z</time></trkpt><trkpt lat="41.79878362179577" lon="1.7715170482812157"><ele>275.0</ele><time>2026-04-25T09:06:13.001Z</time></trkpt><trkpt lat="41.79871855765347" lon="1.7717708832811494"><ele>274.6666666666667</ele><time>2026-04-25T09:06:14.001Z</time></trkpt><trkpt lat="41.79866430913946" lon="1.7720284259160737"><ele>274.3333333333333</ele><time>2026-04-25T09:06:15.001Z</time></trkpt><trkpt lat="41.79861646210775" lon="1.7722915176105078"><ele>274.0</ele><time>2026-04-25T09:06:16.001Z</time></trkpt><trkpt lat="41.79856689838407" lon="1.7725626500517868"><ele>274.66666666666663</ele><time>2026-04-25T09:06:17.001Z</time></trkpt><trkpt lat="41.79851678554645" lon="1.7728299627183202"><ele>275.3333333333333</ele><time>2026-04-25T09:06:18.001Z</time></trkpt><trkpt lat="41.79846490883519" lon="1.7730981091243005"><ele>276.0</ele><time>2026-04-25T09:06:19.001Z</time></trkpt><trkpt lat="41.79841094412543" lon="1.7733644149430234"><ele>274.0</ele><time>2026-04-25T09:06:20.001Z</time></trkpt><trkpt lat="41.79835593230213" lon="1.7736286623708353"><ele>272.0</ele><time>2026-04-25T09:06:21.001Z</time></trkpt><trkpt lat="41.798299134322285" lon="1.7738884693240857"><ele>270.0</ele><time>2026-04-25T09:06:22.001Z</time></trkpt><trkpt lat="41.798245920831185" lon="1.774134950071395"><ele>269.0</ele><time>2026-04-25T09:06:23.001Z</time></trkpt><trkpt lat="41.79818972210224" lon="1.7743842314945895"><ele>268.0</ele><time>2026-04-25T09:06:24.001Z</time></trkpt><trkpt lat="41.79810670163376" lon="1.7746067641142744"><ele>267.0</ele><time>2026-04-25T09:06:25.001Z</time></trkpt><trkpt lat="41.79800916621678" lon="1.7748162951480388"><ele>267.0</ele><time>2026-04-25T09:06:26.001Z</time></trkpt><trkpt lat="41.7978894070164" lon="1.7750133932440337"><ele>267.0</ele><time>2026-04-25T09:06:27.001Z</time></trkpt><trkpt lat="41.79774462139073" lon="1.7751954466908577"><ele>267.0</ele><time>2026-04-25T09:06:28.001Z</time></trkpt><trkpt lat="41.79758365222794" lon="1.7753780069856377"><ele>266.0</ele><time>2026-04-25T09:06:29.001Z</time></trkpt><trkpt lat="41.79740654639197" lon="1.7755743068917413"><ele>265.0</ele><time>2026-04-25T09:06:30.001Z</time></trkpt><trkpt lat="41.79722462290521" lon="1.77580227164291"><ele>265.0</ele><time>2026-04-25T09:06:31.001Z</time></trkpt><trkpt lat="41.79703122126382" lon="1.7759904503783932"><ele>265.0</ele><time>2026-04-25T09:06:32.001Z</time></trkpt><trkpt lat="41.79686275992803" lon="1.7761799660229738"><ele>265.0</ele><time>2026-04-25T09:06:33.001Z</time></trkpt><trkpt lat="41.796706934044956" lon="1.7763580957820284"><ele>265.0</ele><time>2026-04-25T09:06:34.001Z</time></trkpt><trkpt lat="41.79655352960137" lon="1.7765296772919106"><ele>265.0</ele><time>2026-04-25T09:06:35.001Z</time></trkpt><trkpt lat="41.79639271077184" lon="1.7767084988800417"><ele>265.3333333333333</ele><time>2026-04-25T09:06:36.001Z</time></trkpt><trkpt lat="41.79622779859221" lon="1.776891995783154"><ele>265.6666666666667</ele><time>2026-04-25T09:06:37.001Z</time></trkpt><trkpt lat="41.7960499853168" lon="1.777070019318138"><ele>266.0</ele><time>2026-04-25T09:06:38.001Z</time></trkpt><trkpt lat="41.79587497843029" lon="1.7772255769483667"><ele>266.0</ele><time>2026-04-25T09:06:39.001Z</time></trkpt><trkpt lat="41.79567995134496" lon="1.7773592509917804"><ele>266.0</ele><time>2026-04-25T09:06:40.001Z</time></trkpt><trkpt lat="41.7954735296106" lon="1.7774755770281159"><ele>266.0</ele><time>2026-04-25T09:06:41.001Z</time></trkpt><trkpt lat="41.795269489865134" lon="1.7775637547630831"><ele>262.6666666666667</ele><time>2026-04-25T09:06:42.001Z</time></trkpt><trkpt lat="41.795053597576356" lon="1.777624327839675"><ele>259.3333333333333</ele><time>2026-04-25T09:06:43.001Z</time></trkpt><trkpt lat="41.794838791686324" lon="1.7776576362660301"><ele>256.0</ele><time>2026-04-25T09:06:44.001Z</time></trkpt><trkpt lat="41.794621303787885" lon="1.7776772206738214"><ele>265.0</ele><time>2026-04-25T09:06:45.001Z</time></trkpt><trkpt lat="41.7944041070521" lon="1.7776873165465183"><ele>274.0</ele><time>2026-04-25T09:06:46.001Z</time></trkpt><trkpt lat="41.794193620196864" lon="1.7777111067362674"><ele>283.0</ele><time>2026-04-25T09:06:47.001Z</time></trkpt><trkpt lat="41.79399978759444" lon="1.7777185274139307"><ele>283.0</ele><time>2026-04-25T09:06:48.001Z</time></trkpt><trkpt lat="41.79381642399935" lon="1.7777347635358574"><ele>283.0</ele><time>2026-04-25T09:06:49.001Z</time></trkpt><trkpt lat="41.79363578291885" lon="1.7777624258263431"><ele>283.0</ele><time>2026-04-25T09:06:50.001Z</time></trkpt><trkpt lat="41.793453219362654" lon="1.7778149885570036"><ele>278.0</ele><time>2026-04-25T09:06:51.001Z</time></trkpt><trkpt lat="41.79327583019328" lon="1.7778867338334976"><ele>273.0</ele><time>2026-04-25T09:06:52.001Z</time></trkpt><trkpt lat="41.79310423734922" lon="1.7779549399670196"><ele>268.0</ele><time>2026-04-25T09:06:53.001Z</time></trkpt><trkpt lat="41.79294353650586" lon="1.7780382645018864"><ele>268.0</ele><time>2026-04-25T09:06:54.001Z</time></trkpt><trkpt lat="41.79278578147406" lon="1.7781004244227971"><ele>268.0</ele><time>2026-04-25T09:06:55.001Z</time></trkpt><trkpt lat="41.7926305780931" lon="1.778165196634297"><ele>268.0</ele><time>2026-04-25T09:06:56.001Z</time></trkpt><trkpt lat="41.79247983010926" lon="1.7782307730795959"><ele>263.3333333333333</ele><time>2026-04-25T09:06:57.001Z</time></trkpt><trkpt lat="41.79232829023298" lon="1.7783025154317433"><ele>258.6666666666667</ele><time>2026-04-25T09:06:58.001Z</time></trkpt><trkpt lat="41.79217376646903" lon="1.7783780926088097"><ele>254.0</ele><time>2026-04-25T09:06:59.001Z</time></trkpt><trkpt lat="41.79201301386666" lon="1.778456151977819"><ele>255.33333333333334</ele><time>2026-04-25T09:07:00.001Z</time></trkpt><trkpt lat="41.79185660000903" lon="1.7785337157949435"><ele>256.6666666666667</ele><time>2026-04-25T09:07:01.001Z</time></trkpt><trkpt lat="41.791709610942775" lon="1.7786166606136389"><ele>258.0</ele><time>2026-04-25T09:07:02.001Z</time></trkpt><trkpt lat="41.79156818611612" lon="1.7787047726629504"><ele>258.0</ele><time>2026-04-25T09:07:03.001Z</time></trkpt><trkpt lat="41.791437137989526" lon="1.7787952840724623"><ele>258.0</ele><time>2026-04-25T09:07:04.001Z</time></trkpt><trkpt lat="41.791320428039775" lon="1.7788772786929972"><ele>258.0</ele><time>2026-04-25T09:07:05.001Z</time></trkpt><trkpt lat="41.79121844071971" lon="1.7789492088117886"><ele>258.0</ele><time>2026-04-25T09:07:06.001Z</time></trkpt><trkpt lat="41.79112223630486" lon="1.7790073822415144"><ele>258.0</ele><time>2026-04-25T09:07:07.001Z</time></trkpt><trkpt lat="41.79103657468898" lon="1.7790582635462058"><ele>258.0</ele><time>2026-04-25T09:07:08.001Z</time></trkpt><trkpt lat="41.79094963579255" lon="1.7791052311864683"><ele>258.0</ele><time>2026-04-25T09:07:09.001Z</time></trkpt><trkpt lat="41.790856661187746" lon="1.779144859605175"><ele>258.0</ele><time>2026-04-25T09:07:10.001Z</time></trkpt><trkpt lat="41.790756280240004" lon="1.7791825936857366"><ele>258.0</ele><time>2026-04-25T09:07:11.001Z</time></trkpt><trkpt lat="41.79065314711064" lon="1.7792478815681856"><ele>258.0</ele><time>2026-04-25T09:07:12.001Z</time></trkpt><trkpt lat="41.79055368698559" lon="1.7793485473959052"><ele>258.0</ele><time>2026-04-25T09:07:13.001Z</time></trkpt><trkpt lat="41.790445960553754" lon="1.779469500251884"><ele>258.0</ele><time>2026-04-25T09:07:14.001Z</time></trkpt><trkpt lat="41.790305978401626" lon="1.7795502187676706"><ele>258.0</ele><time>2026-04-25T09:07:15.001Z</time></trkpt><trkpt lat="41.790175863043835" lon="1.7796728135638635"><ele>256.0</ele><time>2026-04-25T09:07:16.001Z</time></trkpt><trkpt lat="41.79005690949745" lon="1.7798211079705202"><ele>254.0</ele><time>2026-04-25T09:07:17.001Z</time></trkpt><trkpt lat="41.78992234362537" lon="1.7799478415322996"><ele>252.0</ele><time>2026-04-25T09:07:18.001Z</time></trkpt><trkpt lat="41.7898193760542" lon="1.7801333933058356"><ele>256.0</ele><time>2026-04-25T09:07:19.001Z</time></trkpt><trkpt lat="41.78971194463998" lon="1.780312506944979"><ele>260.0</ele><time>2026-04-25T09:07:20.001Z</time></trkpt><trkpt lat="41.78957471368804" lon="1.7804734111860692"><ele>264.0</ele><time>2026-04-25T09:07:21.001Z</time></trkpt><trkpt lat="41.78944046277087" lon="1.7806153189334282"><ele>258.5</ele><time>2026-04-25T09:07:22.001Z</time></trkpt><trkpt lat="41.789177986545745" lon="1.7808957667609413"><ele>253.0</ele><time>2026-04-25T09:07:24.001Z</time></trkpt><trkpt lat="41.789014851709325" lon="1.7809960887532796"><ele>254.33333333333331</ele><time>2026-04-25T09:07:25.001Z</time></trkpt><trkpt lat="41.78885478340572" lon="1.7810855455402925"><ele>255.66666666666669</ele><time>2026-04-25T09:07:26.001Z</time></trkpt><trkpt lat="41.78867972143163" lon="1.7811351855735589"><ele>257.0</ele><time>2026-04-25T09:07:27.001Z</time></trkpt><trkpt lat="41.78849931502606" lon="1.7812032353246814"><ele>257.0</ele><time>2026-04-25T09:07:28.001Z</time></trkpt><trkpt lat="41.78831189425701" lon="1.781243428478489"><ele>257.0</ele><time>2026-04-25T09:07:29.001Z</time></trkpt><trkpt lat="41.78811457193138" lon="1.7812907608802777"><ele>257.0</ele><time>2026-04-25T09:07:30.001Z</time></trkpt><trkpt lat="41.78791256983825" lon="1.7813394473906918"><ele>255.5</ele><time>2026-04-25T09:07:31.001Z</time></trkpt><trkpt lat="41.78750529363356" lon="1.7814387923107484"><ele>254.0</ele><time>2026-04-25T09:07:33.001Z</time></trkpt><trkpt lat="41.787324649010394" lon="1.7814909381126005"><ele>254.0</ele><time>2026-04-25T09:07:34.001Z</time></trkpt><trkpt lat="41.7871589493066" lon="1.7815397950149854"><ele>254.0</ele><time>2026-04-25T09:07:35.001Z</time></trkpt><trkpt lat="41.78698992699268" lon="1.7816026526103974"><ele>254.0</ele><time>2026-04-25T09:07:36.001Z</time></trkpt><trkpt lat="41.786816860508814" lon="1.7816822045139158"><ele>251.33333333333334</ele><time>2026-04-25T09:07:37.001Z</time></trkpt><trkpt lat="41.78663903037447" lon="1.7817481925262588"><ele>248.66666666666669</ele><time>2026-04-25T09:07:38.001Z</time></trkpt><trkpt lat="41.78645695365651" lon="1.7817661813325032"><ele>246.0</ele><time>2026-04-25T09:07:39.001Z</time></trkpt><trkpt lat="41.7862894956233" lon="1.781782702661571"><ele>246.0</ele><time>2026-04-25T09:07:40.001Z</time></trkpt><trkpt lat="41.78613584035449" lon="1.7817926929168366"><ele>246.0</ele><time>2026-04-25T09:07:41.001Z</time></trkpt><trkpt lat="41.7859984392249" lon="1.7818212842594516"><ele>246.0</ele><time>2026-04-25T09:07:42.001Z</time></trkpt><trkpt lat="41.785870060045085" lon="1.7818366971423658"><ele>246.0</ele><time>2026-04-25T09:07:43.001Z</time></trkpt><trkpt lat="41.785748387886514" lon="1.7818582090798565"><ele>249.0</ele><time>2026-04-25T09:07:44.001Z</time></trkpt><trkpt lat="41.78563481691404" lon="1.7818813733476995"><ele>252.00000000000003</ele><time>2026-04-25T09:07:45.001Z</time></trkpt><trkpt lat="41.78552586538739" lon="1.7819148094120443"><ele>255.00000000000003</ele><time>2026-04-25T09:07:46.001Z</time></trkpt><trkpt lat="41.78543114350464" lon="1.7819538900173155"><ele>258.0</ele><time>2026-04-25T09:07:47.001Z</time></trkpt><trkpt lat="41.785354114333295" lon="1.7819893453465512"><ele>261.0</ele><time>2026-04-25T09:07:48.001Z</time></trkpt><trkpt lat="41.785289381526624" lon="1.7820236747275282"><ele>259.0</ele><time>2026-04-25T09:07:49.001Z</time></trkpt><trkpt lat="41.78517664123051" lon="1.7820717476586685"><ele>257.0</ele><time>2026-04-25T09:07:51.001Z</time></trkpt><trkpt lat="41.785078059142215" lon="1.7818789250512297"><ele>255.0</ele><time>2026-04-25T09:07:54.001Z</time></trkpt><trkpt lat="41.785080836461006" lon="1.7817696769958704"><ele>253.0</ele><time>2026-04-25T09:07:55.001Z</time></trkpt><trkpt lat="41.785080131658425" lon="1.781651606138005"><ele>250.0</ele><time>2026-04-25T09:07:56.001Z</time></trkpt><trkpt lat="41.78507908587619" lon="1.7815211819046706"><ele>247.0</ele><time>2026-04-25T09:07:57.001Z</time></trkpt><trkpt lat="41.78507886336683" lon="1.781372924557066"><ele>244.0</ele><time>2026-04-25T09:07:58.001Z</time></trkpt><trkpt lat="41.78507815186693" lon="1.781209334893022"><ele>241.0</ele><time>2026-04-25T09:07:59.001Z</time></trkpt><trkpt lat="41.78507510811868" lon="1.7810318197447461"><ele>241.25</ele><time>2026-04-25T09:08:00.001Z</time></trkpt><trkpt lat="41.785073702801235" lon="1.7808381873433932"><ele>241.5</ele><time>2026-04-25T09:08:01.001Z</time></trkpt><trkpt lat="41.78507425670472" lon="1.7806556229562964"><ele>241.75</ele><time>2026-04-25T09:08:02.001Z</time></trkpt><trkpt lat="41.78508101684942" lon="1.7804898581284934"><ele>242.0</ele><time>2026-04-25T09:08:03.001Z</time></trkpt><trkpt lat="41.785109796769625" lon="1.7803214920233557"><ele>243.5</ele><time>2026-04-25T09:08:04.001Z</time></trkpt><trkpt lat="41.78517070757648" lon="1.7801649544860931"><ele>245.0</ele><time>2026-04-25T09:08:05.001Z</time></trkpt><trkpt lat="41.78526161563007" lon="1.7800291153653494"><ele>246.5</ele><time>2026-04-25T09:08:06.001Z</time></trkpt><trkpt lat="41.785374112870514" lon="1.779916190027567"><ele>248.0</ele><time>2026-04-25T09:08:07.001Z</time></trkpt><trkpt lat="41.7854869027972" lon="1.7798293401128127"><ele>248.0</ele><time>2026-04-25T09:08:08.001Z</time></trkpt><trkpt lat="41.785577194823716" lon="1.7797560322345367"><ele>248.0</ele><time>2026-04-25T09:08:09.001Z</time></trkpt><trkpt lat="41.785649543868814" lon="1.779683780420521"><ele>248.0</ele><time>2026-04-25T09:08:10.001Z</time></trkpt><trkpt lat="41.785732127846664" lon="1.7796066177406764"><ele>248.0</ele><time>2026-04-25T09:08:11.001Z</time></trkpt><trkpt lat="41.78583495576368" lon="1.7795094833308018"><ele>248.0</ele><time>2026-04-25T09:08:12.001Z</time></trkpt><trkpt lat="41.78594727751795" lon="1.7794050719528602"><ele>248.75</ele><time>2026-04-25T09:08:13.001Z</time></trkpt><trkpt lat="41.78606893661054" lon="1.7792966790038238"><ele>249.5</ele><time>2026-04-25T09:08:14.001Z</time></trkpt><trkpt lat="41.78618619441189" lon="1.77919330457826"><ele>250.25</ele><time>2026-04-25T09:08:15.001Z</time></trkpt><trkpt lat="41.78629268012811" lon="1.7790959894878082"><ele>251.0</ele><time>2026-04-25T09:08:16.001Z</time></trkpt><trkpt lat="41.78639110121489" lon="1.779009739599129"><ele>251.0</ele><time>2026-04-25T09:08:17.001Z</time></trkpt><trkpt lat="41.78647466274115" lon="1.7789313450236115"><ele>251.0</ele><time>2026-04-25T09:08:18.001Z</time></trkpt><trkpt lat="41.78655780625558" lon="1.7788513483131134"><ele>251.0</ele><time>2026-04-25T09:08:19.001Z</time></trkpt><trkpt lat="41.786659155481736" lon="1.7787508753387746"><ele>251.0</ele><time>2026-04-25T09:08:20.001Z</time></trkpt><trkpt lat="41.786772714347265" lon="1.7786384658863945"><ele>250.33333333333334</ele><time>2026-04-25T09:08:21.001Z</time></trkpt><trkpt lat="41.78689207128406" lon="1.7785238668344598"><ele>249.66666666666669</ele><time>2026-04-25T09:08:22.001Z</time></trkpt><trkpt lat="41.787019671231306" lon="1.7784116241827703"><ele>249.0</ele><time>2026-04-25T09:08:23.001Z</time></trkpt><trkpt lat="41.78715596667838" lon="1.778291097208334"><ele>250.5</ele><time>2026-04-25T09:08:24.001Z</time></trkpt><trkpt lat="41.787281245417084" lon="1.7781780594525298"><ele>252.0</ele><time>2026-04-25T09:08:25.001Z</time></trkpt><trkpt lat="41.78739415365098" lon="1.7780660288202994"><ele>253.5</ele><time>2026-04-25T09:08:26.001Z</time></trkpt><trkpt lat="41.78750654345287" lon="1.7779575799543252"><ele>255.0</ele><time>2026-04-25T09:08:27.001Z</time></trkpt><trkpt lat="41.78761994320528" lon="1.7778439054483486"><ele>254.33333333333331</ele><time>2026-04-25T09:08:28.001Z</time></trkpt><trkpt lat="41.787719426426314" lon="1.7777028673916844"><ele>253.66666666666666</ele><time>2026-04-25T09:08:29.001Z</time></trkpt><trkpt lat="41.787800180451555" lon="1.7775234846555146"><ele>253.0</ele><time>2026-04-25T09:08:30.001Z</time></trkpt><trkpt lat="41.78786066863771" lon="1.777324273895985"><ele>254.66666666666666</ele><time>2026-04-25T09:08:31.001Z</time></trkpt><trkpt lat="41.787936004124106" lon="1.777134684267983"><ele>256.3333333333333</ele><time>2026-04-25T09:08:32.001Z</time></trkpt><trkpt lat="41.78805180104096" lon="1.7769722665763532"><ele>258.0</ele><time>2026-04-25T09:08:33.001Z</time></trkpt><trkpt lat="41.788198430112395" lon="1.7768358687762396"><ele>257.0</ele><time>2026-04-25T09:08:34.001Z</time></trkpt><trkpt lat="41.78835554111659" lon="1.7767147349311678"><ele>256.0</ele><time>2026-04-25T09:08:35.001Z</time></trkpt><trkpt lat="41.78852180517756" lon="1.776577153281039"><ele>255.0</ele><time>2026-04-25T09:08:36.001Z</time></trkpt><trkpt lat="41.78868720631039" lon="1.7764207592343768"><ele>255.0</ele><time>2026-04-25T09:08:37.001Z</time></trkpt><trkpt lat="41.78884455893701" lon="1.7762721592238007"><ele>255.0</ele><time>2026-04-25T09:08:38.001Z</time></trkpt><trkpt lat="41.78898862267261" lon="1.7761463948409861"><ele>255.0</ele><time>2026-04-25T09:08:39.001Z</time></trkpt><trkpt lat="41.78911291743783" lon="1.7760250895597338"><ele>256.3333333333333</ele><time>2026-04-25T09:08:40.001Z</time></trkpt><trkpt lat="41.78921849277704" lon="1.775869189240171"><ele>257.66666666666663</ele><time>2026-04-25T09:08:41.001Z</time></trkpt><trkpt lat="41.78929476981192" lon="1.7756531969693898"><ele>259.0</ele><time>2026-04-25T09:08:42.001Z</time></trkpt><trkpt lat="41.78934502515594" lon="1.7753992784335522"><ele>260.66666666666663</ele><time>2026-04-25T09:08:43.001Z</time></trkpt><trkpt lat="41.789386727968925" lon="1.7751552161907878"><ele>262.3333333333333</ele><time>2026-04-25T09:08:44.001Z</time></trkpt><trkpt lat="41.789430344931624" lon="1.774942653524367"><ele>264.0</ele><time>2026-04-25T09:08:45.001Z</time></trkpt><trkpt lat="41.78947721578618" lon="1.7747843215249306"><ele>264.0</ele><time>2026-04-25T09:08:46.001Z</time></trkpt><trkpt lat="41.78954996011047" lon="1.774666611073704"><ele>264.0</ele><time>2026-04-25T09:08:47.001Z</time></trkpt><trkpt lat="41.789665619602296" lon="1.7746034829209525"><ele>264.0</ele><time>2026-04-25T09:08:48.001Z</time></trkpt><trkpt lat="41.78981631246554" lon="1.774593709942885"><ele>264.0</ele><time>2026-04-25T09:08:49.001Z</time></trkpt><trkpt lat="41.790001728254666" lon="1.7746062268744418"><ele>263.6666666666667</ele><time>2026-04-25T09:08:50.001Z</time></trkpt><trkpt lat="41.79021264782608" lon="1.7745854788889024"><ele>263.33333333333337</ele><time>2026-04-25T09:08:51.001Z</time></trkpt><trkpt lat="41.79043845132445" lon="1.7745265128608279"><ele>263.0</ele><time>2026-04-25T09:08:52.001Z</time></trkpt><trkpt lat="41.79067379553889" lon="1.7744435902136901"><ele>273.5</ele><time>2026-04-25T09:08:53.001Z</time></trkpt><trkpt lat="41.79091650163693" lon="1.7743466855133152"><ele>284.0</ele><time>2026-04-25T09:08:54.001Z</time></trkpt><trkpt lat="41.791160632514774" lon="1.7742531030315039"><ele>284.0</ele><time>2026-04-25T09:08:55.001Z</time></trkpt><trkpt lat="41.79140358720275" lon="1.7741618660779035"><ele>284.0</ele><time>2026-04-25T09:08:56.001Z</time></trkpt><trkpt lat="41.79164609143382" lon="1.774078268078434"><ele>282.0</ele><time>2026-04-25T09:08:57.001Z</time></trkpt><trkpt lat="41.79188735891942" lon="1.7740312528523032"><ele>280.0</ele><time>2026-04-25T09:08:58.001Z</time></trkpt><trkpt lat="41.79212295167706" lon="1.774015099080187"><ele>280.0</ele><time>2026-04-25T09:08:59.001Z</time></trkpt><trkpt lat="41.79235435358088" lon="1.7739964127473828"><ele>280.0</ele><time>2026-04-25T09:09:00.001Z</time></trkpt><trkpt lat="41.792555649957826" lon="1.7739565261441124"><ele>280.0</ele><time>2026-04-25T09:09:01Z</time></trkpt><trkpt lat="41.792736399716155" lon="1.773885055829833"><ele>279.25</ele><time>2026-04-25T09:09:02Z</time></trkpt><trkpt lat="41.792898635696424" lon="1.7738097364402894"><ele>278.5</ele><time>2026-04-25T09:09:03Z</time></trkpt><trkpt lat="41.793025280556115" lon="1.773732547405811"><ele>277.75</ele><time>2026-04-25T09:09:04Z</time></trkpt><trkpt lat="41.793121708098255" lon="1.7736480626331026"><ele>277.0</ele><time>2026-04-25T09:09:05Z</time></trkpt><trkpt lat="41.793179999564394" lon="1.7735387827747857"><ele>280.5</ele><time>2026-04-25T09:09:06Z</time></trkpt><trkpt lat="41.79322815526995" lon="1.773402194404921"><ele>284.0</ele><time>2026-04-25T09:09:07Z</time></trkpt><trkpt lat="41.793202152410664" lon="1.773219323409396"><ele>287.5</ele><time>2026-04-25T09:09:08Z</time></trkpt><trkpt lat="41.79317353215426" lon="1.7730285584357435"><ele>291.0</ele><time>2026-04-25T09:09:09Z</time></trkpt><trkpt lat="41.79312695909198" lon="1.7728047209280116"><ele>292.25</ele><time>2026-04-25T09:09:10Z</time></trkpt><trkpt lat="41.79310017428717" lon="1.7725935230599634"><ele>293.5</ele><time>2026-04-25T09:09:11Z</time></trkpt><trkpt lat="41.79300388524433" lon="1.7724374798325009"><ele>294.75</ele><time>2026-04-25T09:09:12Z</time></trkpt><trkpt lat="41.79290279465141" lon="1.7723302127261575"><ele>296.0</ele><time>2026-04-25T09:09:13Z</time></trkpt><trkpt lat="41.79277708335223" lon="1.772271150876883"><ele>299.6666666666667</ele><time>2026-04-25T09:09:14Z</time></trkpt><trkpt lat="41.792625189120265" lon="1.7722449014356934"><ele>303.3333333333333</ele><time>2026-04-25T09:09:15Z</time></trkpt><trkpt lat="41.79248489418928" lon="1.7722250335749845"><ele>307.0</ele><time>2026-04-25T09:09:16Z</time></trkpt><trkpt lat="41.79231705187591" lon="1.7721829745825048"><ele>307.0</ele><time>2026-04-25T09:09:17Z</time></trkpt><trkpt lat="41.79220772793327" lon="1.772126103834518"><ele>307.0</ele><time>2026-04-25T09:09:18Z</time></trkpt><trkpt lat="41.79214352443105" lon="1.7719920087576917"><ele>307.0</ele><time>2026-04-25T09:09:19Z</time></trkpt><trkpt lat="41.79211254797144" lon="1.7718084582866125"><ele>307.0</ele><time>2026-04-25T09:09:20Z</time></trkpt><trkpt lat="41.792047100345904" lon="1.7715719381078134"><ele>306.3333333333333</ele><time>2026-04-25T09:09:21Z</time></trkpt><trkpt lat="41.79195875550681" lon="1.7713215719381459"><ele>305.6666666666667</ele><time>2026-04-25T09:09:22Z</time></trkpt><trkpt lat="41.79187745324623" lon="1.7710359227574382"><ele>305.0</ele><time>2026-04-25T09:09:23Z</time></trkpt><trkpt lat="41.79180641081318" lon="1.770783433059218"><ele>309.33333333333337</ele><time>2026-04-25T09:09:24Z</time></trkpt><trkpt lat="41.791782098023106" lon="1.7705582460253566"><ele>313.6666666666667</ele><time>2026-04-25T09:09:25Z</time></trkpt><trkpt lat="41.79178138393333" lon="1.770348702972421"><ele>318.0</ele><time>2026-04-25T09:09:26Z</time></trkpt><trkpt lat="41.79181446377579" lon="1.7701355191827137"><ele>318.5</ele><time>2026-04-25T09:09:27Z</time></trkpt><trkpt lat="41.791863406569334" lon="1.7699545992626657"><ele>319.0</ele><time>2026-04-25T09:09:28Z</time></trkpt><trkpt lat="41.791880732057614" lon="1.7698037277985472"><ele>319.5</ele><time>2026-04-25T09:09:29Z</time></trkpt><trkpt lat="41.79184658587851" lon="1.7696737440691739"><ele>320.0</ele><time>2026-04-25T09:09:30Z</time></trkpt><trkpt lat="41.79174865854304" lon="1.7695506105977565"><ele>320.0</ele><time>2026-04-25T09:09:31Z</time></trkpt><trkpt lat="41.791612625032016" lon="1.7694483210505945"><ele>320.0</ele><time>2026-04-25T09:09:32Z</time></trkpt><trkpt lat="41.791460907913276" lon="1.7693456122480973"><ele>320.0</ele><time>2026-04-25T09:09:33Z</time></trkpt><trkpt lat="41.791367285541" lon="1.7692032376950164"><ele>320.25</ele><time>2026-04-25T09:09:34Z</time></trkpt><trkpt lat="41.791297359561604" lon="1.7690583107525986"><ele>320.5</ele><time>2026-04-25T09:09:35Z</time></trkpt><trkpt lat="41.79128191189715" lon="1.7688650330795765"><ele>320.75</ele><time>2026-04-25T09:09:36Z</time></trkpt><trkpt lat="41.79129880233413" lon="1.7686768499386794"><ele>321.0</ele><time>2026-04-25T09:09:37Z</time></trkpt><trkpt lat="41.791243907973964" lon="1.7685532372120767"><ele>322.3333333333333</ele><time>2026-04-25T09:09:38Z</time></trkpt><trkpt lat="41.79112468428447" lon="1.7684593382677096"><ele>323.66666666666663</ele><time>2026-04-25T09:09:39Z</time></trkpt><trkpt lat="41.79096658986621" lon="1.7683808029386947"><ele>325.0</ele><time>2026-04-25T09:09:40Z</time></trkpt><trkpt lat="41.79085188339229" lon="1.7682072445620998"><ele>326.66666666666663</ele><time>2026-04-25T09:09:41Z</time></trkpt><trkpt lat="41.790727886220466" lon="1.7680248932623268"><ele>328.3333333333333</ele><time>2026-04-25T09:09:42Z</time></trkpt><trkpt lat="41.79059249012193" lon="1.767852001494863"><ele>330.0</ele><time>2026-04-25T09:09:43Z</time></trkpt><trkpt lat="41.79040659814321" lon="1.7677125597654653"><ele>331.3333333333333</ele><time>2026-04-25T09:09:44Z</time></trkpt><trkpt lat="41.79021398211026" lon="1.7675988155566187"><ele>332.66666666666663</ele><time>2026-04-25T09:09:45Z</time></trkpt><trkpt lat="41.79006990028212" lon="1.7674640278830427"><ele>334.0</ele><time>2026-04-25T09:09:46Z</time></trkpt><trkpt lat="41.7899685028132" lon="1.7673337817129302"><ele>335.66666666666663</ele><time>2026-04-25T09:09:47Z</time></trkpt><trkpt lat="41.78984742548295" lon="1.7672023420054404"><ele>337.3333333333333</ele><time>2026-04-25T09:09:48Z</time></trkpt><trkpt lat="41.78976390089474" lon="1.7669968817135289"><ele>339.0</ele><time>2026-04-25T09:09:49Z</time></trkpt><trkpt lat="41.78970690926434" lon="1.7667433172759779"><ele>339.6666666666667</ele><time>2026-04-25T09:09:50Z</time></trkpt><trkpt lat="41.78963309965105" lon="1.766480595375904"><ele>340.33333333333337</ele><time>2026-04-25T09:09:51Z</time></trkpt><trkpt lat="41.789574192274344" lon="1.7662268608355909"><ele>341.0</ele><time>2026-04-25T09:09:52Z</time></trkpt><trkpt lat="41.78954688494799" lon="1.7660124464517772"><ele>342.75</ele><time>2026-04-25T09:09:53Z</time></trkpt><trkpt lat="41.78957675536548" lon="1.7658172848801834"><ele>344.5</ele><time>2026-04-25T09:09:54Z</time></trkpt><trkpt lat="41.78960568097355" lon="1.7656372444150843"><ele>346.25</ele><time>2026-04-25T09:09:55Z</time></trkpt><trkpt lat="41.78966569476118" lon="1.7654937145027139"><ele>348.0</ele><time>2026-04-25T09:09:56Z</time></trkpt><trkpt lat="41.78975609399465" lon="1.7653467603518536"><ele>347.75</ele><time>2026-04-25T09:09:57Z</time></trkpt><trkpt lat="41.78985829069517" lon="1.7651949821448736"><ele>347.5</ele><time>2026-04-25T09:09:58Z</time></trkpt><trkpt lat="41.78996778704775" lon="1.765054956747643"><ele>347.25</ele><time>2026-04-25T09:09:59Z</time></trkpt><trkpt lat="41.79005470392209" lon="1.7649812893076848"><ele>347.0</ele><time>2026-04-25T09:10:00Z</time></trkpt><trkpt lat="41.79013479382504" lon="1.7649704775347268"><ele>348.25</ele><time>2026-04-25T09:10:01Z</time></trkpt><trkpt lat="41.7902040341408" lon="1.7649943778166783"><ele>349.5</ele><time>2026-04-25T09:10:02Z</time></trkpt><trkpt lat="41.790175288638665" lon="1.7652230785764602"><ele>350.75</ele><time>2026-04-25T09:10:03Z</time></trkpt><trkpt lat="41.79020684935748" lon="1.7654405851148278"><ele>352.0</ele><time>2026-04-25T09:10:04Z</time></trkpt><trkpt lat="41.790232797624306" lon="1.765639879686224"><ele>352.0</ele><time>2026-04-25T09:10:05Z</time></trkpt><trkpt lat="41.79026467522607" lon="1.7658311972304743"><ele>352.0</ele><time>2026-04-25T09:10:06Z</time></trkpt><trkpt lat="41.790304335012195" lon="1.7659719994916687"><ele>352.0</ele><time>2026-04-25T09:10:07Z</time></trkpt><trkpt lat="41.79038516142603" lon="1.766065736201695"><ele>352.0</ele><time>2026-04-25T09:10:08Z</time></trkpt><trkpt lat="41.79049347741483" lon="1.7660969134704805"><ele>352.0</ele><time>2026-04-25T09:10:09Z</time></trkpt><trkpt lat="41.79060659221444" lon="1.766059231372679"><ele>352.0</ele><time>2026-04-25T09:10:10Z</time></trkpt><trkpt lat="41.79070479029611" lon="1.765959037855873"><ele>352.0</ele><time>2026-04-25T09:10:11Z</time></trkpt><trkpt lat="41.79079396714209" lon="1.7658314906909005"><ele>352.0</ele><time>2026-04-25T09:10:12Z</time></trkpt><trkpt lat="41.790870362671185" lon="1.7656756949697776"><ele>352.0</ele><time>2026-04-25T09:10:13Z</time></trkpt><trkpt lat="41.79092293754866" lon="1.7654895488058588"><ele>352.0</ele><time>2026-04-25T09:10:14Z</time></trkpt><trkpt lat="41.790965173653326" lon="1.7652681637270096"><ele>352.0</ele><time>2026-04-25T09:10:15Z</time></trkpt><trkpt lat="41.79101773649309" lon="1.7650483367053151"><ele>354.75</ele><time>2026-04-25T09:10:16Z</time></trkpt><trkpt lat="41.79103752211886" lon="1.7648652216595662"><ele>357.5</ele><time>2026-04-25T09:10:17Z</time></trkpt><trkpt lat="41.79101504535657" lon="1.7646796643232239"><ele>360.25</ele><time>2026-04-25T09:10:18Z</time></trkpt><trkpt lat="41.79098660490588" lon="1.7645124428614518"><ele>363.0</ele><time>2026-04-25T09:10:19Z</time></trkpt><trkpt lat="41.79100704077318" lon="1.7643746923752468"><ele>368.75</ele><time>2026-04-25T09:10:20Z</time></trkpt><trkpt lat="41.79105171614751" lon="1.7642406146505967"><ele>374.5</ele><time>2026-04-25T09:10:21Z</time></trkpt><trkpt lat="41.79116494521954" lon="1.7641897622568183"><ele>380.25</ele><time>2026-04-25T09:10:22Z</time></trkpt><trkpt lat="41.79128892997167" lon="1.76416506930415"><ele>386.0</ele><time>2026-04-25T09:10:23Z</time></trkpt><trkpt lat="41.79140249024063" lon="1.7640955699458827"><ele>386.0</ele><time>2026-04-25T09:10:24Z</time></trkpt><trkpt lat="41.79149696085439" lon="1.7639750734360604"><ele>386.0</ele><time>2026-04-25T09:10:25Z</time></trkpt><trkpt lat="41.791571501274085" lon="1.7637826008186923"><ele>386.0</ele><time>2026-04-25T09:10:26Z</time></trkpt><trkpt lat="41.79164463297275" lon="1.763579706785709"><ele>383.0</ele><time>2026-04-25T09:10:27Z</time></trkpt><trkpt lat="41.79172378972218" lon="1.7633938338724553"><ele>380.0</ele><time>2026-04-25T09:10:28Z</time></trkpt><trkpt lat="41.79182742309843" lon="1.7632837037260343"><ele>377.0</ele><time>2026-04-25T09:10:29Z</time></trkpt><trkpt lat="41.79195469278659" lon="1.7631760876943705"><ele>374.0</ele><time>2026-04-25T09:10:30Z</time></trkpt><trkpt lat="41.79211149480602" lon="1.7630663330847252"><ele>380.25</ele><time>2026-04-25T09:10:31Z</time></trkpt><trkpt lat="41.79226129938919" lon="1.762997417748611"><ele>386.5</ele><time>2026-04-25T09:10:32Z</time></trkpt><trkpt lat="41.79235649148389" lon="1.7629320948969731"><ele>392.75</ele><time>2026-04-25T09:10:33Z</time></trkpt><trkpt lat="41.79240854488171" lon="1.7628283277424495"><ele>399.0</ele><time>2026-04-25T09:10:34Z</time></trkpt><trkpt lat="41.79241541940472" lon="1.7626864129219828"><ele>399.0</ele><time>2026-04-25T09:10:35Z</time></trkpt><trkpt lat="41.79237367707198" lon="1.7625348886831966"><ele>399.0</ele><time>2026-04-25T09:10:36Z</time></trkpt><trkpt lat="41.792294075107165" lon="1.7623717125847784"><ele>399.0</ele><time>2026-04-25T09:10:37Z</time></trkpt><trkpt lat="41.79221517940068" lon="1.7621787353152445"><ele>399.0</ele><time>2026-04-25T09:10:38Z</time></trkpt><trkpt lat="41.792131023207155" lon="1.7619987783951494"><ele>400.0</ele><time>2026-04-25T09:10:39Z</time></trkpt><trkpt lat="41.79207310664761" lon="1.7618121994930607"><ele>401.0</ele><time>2026-04-25T09:10:40Z</time></trkpt><trkpt lat="41.79204668387766" lon="1.7616195371159138"><ele>402.0</ele><time>2026-04-25T09:10:41Z</time></trkpt><trkpt lat="41.79208582123983" lon="1.761434598991232"><ele>403.0</ele><time>2026-04-25T09:10:42Z</time></trkpt><trkpt lat="41.79214700306032" lon="1.7612651308287575"><ele>403.0</ele><time>2026-04-25T09:10:43Z</time></trkpt><trkpt lat="41.792220739874075" lon="1.7610936665035901"><ele>403.0</ele><time>2026-04-25T09:10:44Z</time></trkpt><trkpt lat="41.79235316298248" lon="1.7609860929452625"><ele>403.0</ele><time>2026-04-25T09:10:45Z</time></trkpt><trkpt lat="41.792496207663255" lon="1.7609044655769008"><ele>400.5</ele><time>2026-04-25T09:10:46Z</time></trkpt><trkpt lat="41.792646781804265" lon="1.7608868028617624"><ele>398.0</ele><time>2026-04-25T09:10:47Z</time></trkpt><trkpt lat="41.79277708080735" lon="1.7609364780467796"><ele>395.5</ele><time>2026-04-25T09:10:48Z</time></trkpt><trkpt lat="41.79291385834021" lon="1.76100476344174"><ele>393.0</ele><time>2026-04-25T09:10:49Z</time></trkpt><trkpt lat="41.79306173218476" lon="1.7611069943081112"><ele>398.0</ele><time>2026-04-25T09:10:50Z</time></trkpt><trkpt lat="41.79321107746084" lon="1.7611566765813709"><ele>403.0</ele><time>2026-04-25T09:10:51Z</time></trkpt><trkpt lat="41.79334030776496" lon="1.7611632427289703"><ele>408.0</ele><time>2026-04-25T09:10:52Z</time></trkpt><trkpt lat="41.79343879309418" lon="1.761156781961462"><ele>413.0</ele><time>2026-04-25T09:10:53Z</time></trkpt><trkpt lat="41.793518139185935" lon="1.7611172189022466"><ele>414.75</ele><time>2026-04-25T09:10:54Z</time></trkpt><trkpt lat="41.793575844186904" lon="1.7610137143762834"><ele>416.5</ele><time>2026-04-25T09:10:55Z</time></trkpt><trkpt lat="41.79360152741261" lon="1.76086445373462"><ele>418.25</ele><time>2026-04-25T09:10:56Z</time></trkpt><trkpt lat="41.79356033238728" lon="1.7606903630409"><ele>420.0</ele><time>2026-04-25T09:10:57Z</time></trkpt><trkpt lat="41.793510227316986" lon="1.7605207354849024"><ele>416.0</ele><time>2026-04-25T09:10:58Z</time></trkpt><trkpt lat="41.79348355581142" lon="1.7603243375775648"><ele>412.0</ele><time>2026-04-25T09:10:59Z</time></trkpt><trkpt lat="41.79349454980708" lon="1.7601280914544284"><ele>408.0</ele><time>2026-04-25T09:11:00Z</time></trkpt><trkpt lat="41.793544251919606" lon="1.759952475380982"><ele>404.0</ele><time>2026-04-25T09:11:01Z</time></trkpt><trkpt lat="41.79364034797446" lon="1.7598177192096216"><ele>404.0</ele><time>2026-04-25T09:11:02Z</time></trkpt><trkpt lat="41.7937669329567" lon="1.7597772832771656"><ele>404.0</ele><time>2026-04-25T09:11:03Z</time></trkpt><trkpt lat="41.793910938333035" lon="1.7597645237902309"><ele>404.0</ele><time>2026-04-25T09:11:04Z</time></trkpt><trkpt lat="41.7940851634869" lon="1.759749356710623"><ele>404.0</ele><time>2026-04-25T09:11:05Z</time></trkpt><trkpt lat="41.794264493852616" lon="1.759759455791387"><ele>406.25</ele><time>2026-04-25T09:11:06Z</time></trkpt><trkpt lat="41.794403319019864" lon="1.759744964946098"><ele>408.5</ele><time>2026-04-25T09:11:07Z</time></trkpt><trkpt lat="41.7945100888542" lon="1.7596831817818246"><ele>410.75</ele><time>2026-04-25T09:11:08Z</time></trkpt><trkpt lat="41.794587093166534" lon="1.759523662676929"><ele>413.0</ele><time>2026-04-25T09:11:09Z</time></trkpt><trkpt lat="41.794689163780504" lon="1.7593109164658176"><ele>413.0</ele><time>2026-04-25T09:11:10Z</time></trkpt><trkpt lat="41.79478975750255" lon="1.759114118234405"><ele>413.0</ele><time>2026-04-25T09:11:11Z</time></trkpt><trkpt lat="41.79490301224938" lon="1.7589328657616055"><ele>413.0</ele><time>2026-04-25T09:11:12Z</time></trkpt><trkpt lat="41.7950329172429" lon="1.7588103203772996"><ele>419.0</ele><time>2026-04-25T09:11:13Z</time></trkpt><trkpt lat="41.795181830073204" lon="1.758731242150566"><ele>425.0</ele><time>2026-04-25T09:11:14Z</time></trkpt><trkpt lat="41.795355691330855" lon="1.758682928607442"><ele>431.0</ele><time>2026-04-25T09:11:15Z</time></trkpt><trkpt lat="41.79552782889155" lon="1.758684319271497"><ele>431.0</ele><time>2026-04-25T09:11:16Z</time></trkpt><trkpt lat="41.79570531353696" lon="1.7587153153664021"><ele>431.0</ele><time>2026-04-25T09:11:17Z</time></trkpt><trkpt lat="41.79586906767602" lon="1.7587451402220369"><ele>431.0</ele><time>2026-04-25T09:11:18Z</time></trkpt><trkpt lat="41.79602891090865" lon="1.7587386598139565"><ele>431.25</ele><time>2026-04-25T09:11:19Z</time></trkpt><trkpt lat="41.79614508622363" lon="1.7586878118558602"><ele>431.5</ele><time>2026-04-25T09:11:20Z</time></trkpt><trkpt lat="41.79623726568389" lon="1.7585711731336813"><ele>431.75</ele><time>2026-04-25T09:11:21Z</time></trkpt><trkpt lat="41.796290409849945" lon="1.7583985923885912"><ele>432.0</ele><time>2026-04-25T09:11:22Z</time></trkpt><trkpt lat="41.79633614405254" lon="1.7582131570308583"><ele>432.0</ele><time>2026-04-25T09:11:23Z</time></trkpt><trkpt lat="41.796396903138486" lon="1.7580621695024983"><ele>432.0</ele><time>2026-04-25T09:11:24Z</time></trkpt><trkpt lat="41.7965138804088" lon="1.7579713176268992"><ele>432.0</ele><time>2026-04-25T09:11:25Z</time></trkpt><trkpt lat="41.79667973051772" lon="1.7579057706742587"><ele>432.0</ele><time>2026-04-25T09:11:26Z</time></trkpt><trkpt lat="41.79686041499119" lon="1.7578052117366179"><ele>432.0</ele><time>2026-04-25T09:11:27Z</time></trkpt><trkpt lat="41.79702278819731" lon="1.757665489688758"><ele>432.0</ele><time>2026-04-25T09:11:28Z</time></trkpt><trkpt lat="41.797148992196874" lon="1.7575012044685994"><ele>432.0</ele><time>2026-04-25T09:11:29Z</time></trkpt><trkpt lat="41.797256757827476" lon="1.7573666104881622"><ele>432.0</ele><time>2026-04-25T09:11:30Z</time></trkpt><trkpt lat="41.79739436165237" lon="1.7572854669228384"><ele>432.0</ele><time>2026-04-25T09:11:31Z</time></trkpt><trkpt lat="41.797567553368545" lon="1.757254470643247"><ele>432.0</ele><time>2026-04-25T09:11:32Z</time></trkpt><trkpt lat="41.79772968671698" lon="1.7572023482639778"><ele>432.0</ele><time>2026-04-25T09:11:33Z</time></trkpt><trkpt lat="41.79787096115893" lon="1.7570649334407167"><ele>432.0</ele><time>2026-04-25T09:11:34Z</time></trkpt><trkpt lat="41.79800050695764" lon="1.756878867554297"><ele>432.0</ele><time>2026-04-25T09:11:35Z</time></trkpt><trkpt lat="41.79812544872227" lon="1.7567359990218248"><ele>432.0</ele><time>2026-04-25T09:11:36Z</time></trkpt><trkpt lat="41.79827298925467" lon="1.7566501530352625"><ele>432.0</ele><time>2026-04-25T09:11:37Z</time></trkpt><trkpt lat="41.7984440662014" lon="1.7565918213975236"><ele>432.0</ele><time>2026-04-25T09:11:38Z</time></trkpt><trkpt lat="41.79863449230674" lon="1.756571420742392"><ele>436.0</ele><time>2026-04-25T09:11:39Z</time></trkpt><trkpt lat="41.798832360820384" lon="1.756579139413279"><ele>440.0</ele><time>2026-04-25T09:11:40Z</time></trkpt><trkpt lat="41.79901094504326" lon="1.7565811779550193"><ele>444.0</ele><time>2026-04-25T09:11:41Z</time></trkpt><trkpt lat="41.799156361434086" lon="1.7565515108172027"><ele>444.0</ele><time>2026-04-25T09:11:42Z</time></trkpt><trkpt lat="41.799262546821275" lon="1.7565056858364174"><ele>444.0</ele><time>2026-04-25T09:11:43Z</time></trkpt><trkpt lat="41.79934568265401" lon="1.7564343935034477"><ele>444.0</ele><time>2026-04-25T09:11:44Z</time></trkpt><trkpt lat="41.79938760791062" lon="1.7563172608350663"><ele>444.0</ele><time>2026-04-25T09:11:45Z</time></trkpt><trkpt lat="41.79937347591591" lon="1.7561733943421902"><ele>444.0</ele><time>2026-04-25T09:11:46Z</time></trkpt><trkpt lat="41.79928544677744" lon="1.7560577100224712"><ele>443.75</ele><time>2026-04-25T09:11:47Z</time></trkpt><trkpt lat="41.79916447057818" lon="1.7559643370545257"><ele>443.5</ele><time>2026-04-25T09:11:48Z</time></trkpt><trkpt lat="41.79907103902774" lon="1.7558360043662888"><ele>443.25</ele><time>2026-04-25T09:11:49Z</time></trkpt><trkpt lat="41.799012697287104" lon="1.7557246648009157"><ele>443.0</ele><time>2026-04-25T09:11:50Z</time></trkpt><trkpt lat="41.799022800244636" lon="1.7555684800017766"><ele>443.0</ele><time>2026-04-25T09:11:51Z</time></trkpt><trkpt lat="41.799103019134975" lon="1.7554369927144584"><ele>443.0</ele><time>2026-04-25T09:11:52Z</time></trkpt><trkpt lat="41.79918322069178" lon="1.7552963308331124"><ele>443.0</ele><time>2026-04-25T09:11:53Z</time></trkpt><trkpt lat="41.799289807061285" lon="1.755149926023343"><ele>443.0</ele><time>2026-04-25T09:11:54Z</time></trkpt><trkpt lat="41.799396203446975" lon="1.7549823238535434"><ele>448.0</ele><time>2026-04-25T09:11:55Z</time></trkpt><trkpt lat="41.79951875997427" lon="1.7548335040391376"><ele>453.0</ele><time>2026-04-25T09:11:56Z</time></trkpt><trkpt lat="41.79967988991863" lon="1.7547235098099085"><ele>458.0</ele><time>2026-04-25T09:11:57Z</time></trkpt><trkpt lat="41.79984153893097" lon="1.7546292432975379"><ele>458.0</ele><time>2026-04-25T09:11:58Z</time></trkpt><trkpt lat="41.799994695684845" lon="1.7545301242558073"><ele>458.0</ele><time>2026-04-25T09:11:59Z</time></trkpt><trkpt lat="41.80010214051302" lon="1.754373668244498"><ele>458.0</ele><time>2026-04-25T09:12:00Z</time></trkpt><trkpt lat="41.80020251500178" lon="1.7541890202252846"><ele>460.66666666666663</ele><time>2026-04-25T09:12:01Z</time></trkpt><trkpt lat="41.80026308892185" lon="1.75397757120198"><ele>463.33333333333337</ele><time>2026-04-25T09:12:02Z</time></trkpt><trkpt lat="41.800363782075955" lon="1.7537820330564653"><ele>466.0</ele><time>2026-04-25T09:12:03Z</time></trkpt><trkpt lat="41.80047964076954" lon="1.7536332222412057"><ele>464.0</ele><time>2026-04-25T09:12:04Z</time></trkpt><trkpt lat="41.800623294835695" lon="1.7535265001982088"><ele>462.0</ele><time>2026-04-25T09:12:05Z</time></trkpt><trkpt lat="41.80079292767518" lon="1.7534239484767538"><ele>460.0</ele><time>2026-04-25T09:12:06Z</time></trkpt><trkpt lat="41.80098057830098" lon="1.753281852803193"><ele>463.33333333333337</ele><time>2026-04-25T09:12:07Z</time></trkpt><trkpt lat="41.80116054991951" lon="1.7531285163912285"><ele>466.66666666666663</ele><time>2026-04-25T09:12:08Z</time></trkpt><trkpt lat="41.80133020359184" lon="1.7529571850826784"><ele>470.0</ele><time>2026-04-25T09:12:09Z</time></trkpt><trkpt lat="41.80147646847903" lon="1.7527552599370737"><ele>469.0</ele><time>2026-04-25T09:12:10Z</time></trkpt><trkpt lat="41.80159955607037" lon="1.7525314433618904"><ele>468.0</ele><time>2026-04-25T09:12:11Z</time></trkpt><trkpt lat="41.80171458760846" lon="1.752303517279421"><ele>467.0</ele><time>2026-04-25T09:12:12Z</time></trkpt><trkpt lat="41.8018096595944" lon="1.7520826703261743"><ele>465.3333333333333</ele><time>2026-04-25T09:12:13Z</time></trkpt><trkpt lat="41.80187349312031" lon="1.7518346812996441"><ele>463.66666666666663</ele><time>2026-04-25T09:12:14Z</time></trkpt><trkpt lat="41.8019089325125" lon="1.7515520993446558"><ele>462.0</ele><time>2026-04-25T09:12:15Z</time></trkpt><trkpt lat="41.80194481383233" lon="1.751262220913822"><ele>461.0</ele><time>2026-04-25T09:12:16Z</time></trkpt><trkpt lat="41.801981443192545" lon="1.7510167855774832"><ele>460.0</ele><time>2026-04-25T09:12:17Z</time></trkpt><trkpt lat="41.80201483118539" lon="1.7508204609608595"><ele>459.0</ele><time>2026-04-25T09:12:18Z</time></trkpt><trkpt lat="41.80202910994158" lon="1.75066488676578"><ele>459.0</ele><time>2026-04-25T09:12:19Z</time></trkpt><trkpt lat="41.802009175290664" lon="1.7505148450392607"><ele>459.0</ele><time>2026-04-25T09:12:20Z</time></trkpt><trkpt lat="41.80194507588319" lon="1.7503681312221389"><ele>459.0</ele><time>2026-04-25T09:12:21Z</time></trkpt><trkpt lat="41.801845569526265" lon="1.7502839095417293"><ele>459.0</ele><time>2026-04-25T09:12:22Z</time></trkpt><trkpt lat="41.801743957321406" lon="1.7502286214804683"><ele>462.25</ele><time>2026-04-25T09:12:23Z</time></trkpt><trkpt lat="41.80161517193067" lon="1.7502626594824764"><ele>465.5</ele><time>2026-04-25T09:12:24Z</time></trkpt><trkpt lat="41.80152717474931" lon="1.7504220645293083"><ele>468.75</ele><time>2026-04-25T09:12:25Z</time></trkpt><trkpt lat="41.80144860619952" lon="1.7506024479884337"><ele>472.0</ele><time>2026-04-25T09:12:26Z</time></trkpt><trkpt lat="41.80132901180436" lon="1.750771790999331"><ele>472.0</ele><time>2026-04-25T09:12:27Z</time></trkpt><trkpt lat="41.80119683411796" lon="1.7509480929322934"><ele>472.0</ele><time>2026-04-25T09:12:28Z</time></trkpt><trkpt lat="41.80107648691634" lon="1.7511006696138802"><ele>472.0</ele><time>2026-04-25T09:12:29Z</time></trkpt><trkpt lat="41.80098157665763" lon="1.7512010883954865"><ele>472.0</ele><time>2026-04-25T09:12:30Z</time></trkpt><trkpt lat="41.800910978537374" lon="1.7512472719336885"><ele>472.00000000000006</ele><time>2026-04-25T09:12:31Z</time></trkpt><trkpt lat="41.80081376713157" lon="1.751183325147234"><ele>472.00000000000006</ele><time>2026-04-25T09:12:33Z</time></trkpt><trkpt lat="41.80083176643202" lon="1.7510618782689877"><ele>472.0</ele><time>2026-04-25T09:12:34Z</time></trkpt><trkpt lat="41.80088616817936" lon="1.7509554702042402"><ele>472.0</ele><time>2026-04-25T09:12:35Z</time></trkpt><trkpt lat="41.8009854702536" lon="1.7508315145019366"><ele>472.0</ele><time>2026-04-25T09:12:36Z</time></trkpt><trkpt lat="41.80108483613168" lon="1.75068629915853"><ele>472.0</ele><time>2026-04-25T09:12:37Z</time></trkpt><trkpt lat="41.801185185407476" lon="1.7505046838410792"><ele>472.0</ele><time>2026-04-25T09:12:38Z</time></trkpt><trkpt lat="41.80125664392632" lon="1.7503079026205286"><ele>475.33333333333337</ele><time>2026-04-25T09:12:39Z</time></trkpt><trkpt lat="41.80128261226065" lon="1.7500852835010445"><ele>478.66666666666663</ele><time>2026-04-25T09:12:40Z</time></trkpt><trkpt lat="41.801284353700396" lon="1.7498197546211134"><ele>482.0</ele><time>2026-04-25T09:12:41Z</time></trkpt><trkpt lat="41.801287189586745" lon="1.7495335515208883"><ele>484.0</ele><time>2026-04-25T09:12:42Z</time></trkpt><trkpt lat="41.80129718627363" lon="1.7492336002603535"><ele>486.0</ele><time>2026-04-25T09:12:43Z</time></trkpt><trkpt lat="41.80132899050841" lon="1.7489375366097515"><ele>488.0</ele><time>2026-04-25T09:12:44Z</time></trkpt><trkpt lat="41.80137290693632" lon="1.7486844677927171"><ele>490.25</ele><time>2026-04-25T09:12:45Z</time></trkpt><trkpt lat="41.80140861801727" lon="1.7484748822692227"><ele>492.5</ele><time>2026-04-25T09:12:46Z</time></trkpt><trkpt lat="41.80143558333243" lon="1.7482973439940712"><ele>494.75</ele><time>2026-04-25T09:12:47Z</time></trkpt><trkpt lat="41.801467435418765" lon="1.7481496260623484"><ele>497.0</ele><time>2026-04-25T09:12:48Z</time></trkpt><trkpt lat="41.8015389136066" lon="1.7480303723808872"><ele>497.0</ele><time>2026-04-25T09:12:49Z</time></trkpt><trkpt lat="41.801661823606096" lon="1.7479507878107055"><ele>497.0</ele><time>2026-04-25T09:12:50Z</time></trkpt><trkpt lat="41.80182012140219" lon="1.7479278346010843"><ele>497.0</ele><time>2026-04-25T09:12:51Z</time></trkpt><trkpt lat="41.801965927502444" lon="1.7479022768478625"><ele>497.0</ele><time>2026-04-25T09:12:52Z</time></trkpt><trkpt lat="41.8020623882201" lon="1.7478293288502076"><ele>492.25</ele><time>2026-04-25T09:12:53Z</time></trkpt><trkpt lat="41.802129464375895" lon="1.7477048692641697"><ele>487.5</ele><time>2026-04-25T09:12:54Z</time></trkpt><trkpt lat="41.80214596707168" lon="1.747542245257437"><ele>482.75</ele><time>2026-04-25T09:12:55Z</time></trkpt><trkpt lat="41.80211491535959" lon="1.7473946684712613"><ele>478.0</ele><time>2026-04-25T09:12:56Z</time></trkpt><trkpt lat="41.80201825789721" lon="1.7472951906281073"><ele>478.0</ele><time>2026-04-25T09:12:57Z</time></trkpt><trkpt lat="41.80187693685275" lon="1.7472366973168314"><ele>478.0</ele><time>2026-04-25T09:12:58Z</time></trkpt><trkpt lat="41.80170957408729" lon="1.7471481055011315"><ele>478.0</ele><time>2026-04-25T09:12:59Z</time></trkpt><trkpt lat="41.801541922834076" lon="1.7470403188957946"><ele>481.0</ele><time>2026-04-25T09:13:00Z</time></trkpt><trkpt lat="41.80138269287308" lon="1.7468949570104977"><ele>484.0</ele><time>2026-04-25T09:13:01Z</time></trkpt><trkpt lat="41.80123188842632" lon="1.7467300101443706"><ele>487.0</ele><time>2026-04-25T09:13:02Z</time></trkpt><trkpt lat="41.80110311358149" lon="1.7466045085387603"><ele>487.0</ele><time>2026-04-25T09:13:03Z</time></trkpt><trkpt lat="41.80103375112994" lon="1.7464455703756772"><ele>487.0</ele><time>2026-04-25T09:13:04Z</time></trkpt><trkpt lat="41.801002967471774" lon="1.7462848941761695"><ele>487.0</ele><time>2026-04-25T09:13:05Z</time></trkpt><trkpt lat="41.801024466492194" lon="1.7461033294148223"><ele>487.0</ele><time>2026-04-25T09:13:06Z</time></trkpt><trkpt lat="41.80105044430639" lon="1.7458899191400596"><ele>484.6666666666667</ele><time>2026-04-25T09:13:07Z</time></trkpt><trkpt lat="41.801100581426645" lon="1.7456668937036708"><ele>482.33333333333337</ele><time>2026-04-25T09:13:08Z</time></trkpt><trkpt lat="41.80114740253364" lon="1.745415779482448"><ele>480.0</ele><time>2026-04-25T09:13:09Z</time></trkpt><trkpt lat="41.80120056801245" lon="1.745173085047806"><ele>485.66666666666663</ele><time>2026-04-25T09:13:10Z</time></trkpt><trkpt lat="41.80128574654327" lon="1.7449759925084365"><ele>491.3333333333333</ele><time>2026-04-25T09:13:11Z</time></trkpt><trkpt lat="41.801380392899" lon="1.74480869414471"><ele>497.0</ele><time>2026-04-25T09:13:12Z</time></trkpt><trkpt lat="41.80144729780658" lon="1.7446315327925492"><ele>497.0</ele><time>2026-04-25T09:13:13Z</time></trkpt><trkpt lat="41.80147871509348" lon="1.744408175402081"><ele>497.0</ele><time>2026-04-25T09:13:14Z</time></trkpt><trkpt lat="41.80147690799546" lon="1.7441450015318567"><ele>497.0</ele><time>2026-04-25T09:13:15Z</time></trkpt><trkpt lat="41.80146053620908" lon="1.743855287741723"><ele>500.5</ele><time>2026-04-25T09:13:16Z</time></trkpt><trkpt lat="41.801453579114636" lon="1.7435498108397274"><ele>504.0</ele><time>2026-04-25T09:13:17Z</time></trkpt><trkpt lat="41.801455257582305" lon="1.7432358234662213"><ele>504.0</ele><time>2026-04-25T09:13:18Z</time></trkpt><trkpt lat="41.8014531951589" lon="1.742913992989739"><ele>504.0</ele><time>2026-04-25T09:13:19Z</time></trkpt><trkpt lat="41.80145744998932" lon="1.7426018818222442"><ele>504.0</ele><time>2026-04-25T09:13:20Z</time></trkpt><trkpt lat="41.801455995203504" lon="1.7423041670627109"><ele>504.0</ele><time>2026-04-25T09:13:21Z</time></trkpt><trkpt lat="41.801457006954514" lon="1.7420447070041791"><ele>504.0</ele><time>2026-04-25T09:13:22Z</time></trkpt><trkpt lat="41.80145413859062" lon="1.7418068684589432"><ele>502.66666666666663</ele><time>2026-04-25T09:13:23Z</time></trkpt><trkpt lat="41.80141558598806" lon="1.741558893448414"><ele>501.3333333333333</ele><time>2026-04-25T09:13:24Z</time></trkpt><trkpt lat="41.801337892358795" lon="1.7412924412457869"><ele>500.0</ele><time>2026-04-25T09:13:25Z</time></trkpt><trkpt lat="41.801239833002455" lon="1.7410165432922171"><ele>498.0</ele><time>2026-04-25T09:13:26Z</time></trkpt><trkpt lat="41.801147759616406" lon="1.7407698364598614"><ele>496.0</ele><time>2026-04-25T09:13:27Z</time></trkpt><trkpt lat="41.80105480191739" lon="1.7405618542808656"><ele>494.0</ele><time>2026-04-25T09:13:28Z</time></trkpt><trkpt lat="41.80093358322626" lon="1.7404034894519673"><ele>500.66666666666663</ele><time>2026-04-25T09:13:29Z</time></trkpt><trkpt lat="41.80081177045934" lon="1.7402871909829423"><ele>507.33333333333337</ele><time>2026-04-25T09:13:30Z</time></trkpt><trkpt lat="41.800750633347626" lon="1.7401181351667512"><ele>514.0</ele><time>2026-04-25T09:13:31Z</time></trkpt><trkpt lat="41.800708691596284" lon="1.7399078478416294"><ele>516.0</ele><time>2026-04-25T09:13:32Z</time></trkpt><trkpt lat="41.80069239854743" lon="1.7396579448755731"><ele>518.0</ele><time>2026-04-25T09:13:33Z</time></trkpt><trkpt lat="41.80068922880668" lon="1.7393721327695966"><ele>520.0</ele><time>2026-04-25T09:13:34Z</time></trkpt><trkpt lat="41.80067956140396" lon="1.7390937594830225"><ele>520.0</ele><time>2026-04-25T09:13:35Z</time></trkpt><trkpt lat="41.80068618184009" lon="1.7388610289858089"><ele>520.0</ele><time>2026-04-25T09:13:36Z</time></trkpt><trkpt lat="41.800709179124624" lon="1.7386307582443754"><ele>520.0</ele><time>2026-04-25T09:13:37Z</time></trkpt><trkpt lat="41.8007841246296" lon="1.738407742211427"><ele>521.0</ele><time>2026-04-25T09:13:38Z</time></trkpt><trkpt lat="41.80084980536952" lon="1.7381483418938324"><ele>522.0</ele><time>2026-04-25T09:13:39Z</time></trkpt><trkpt lat="41.80093215788215" lon="1.737885822893583"><ele>523.0</ele><time>2026-04-25T09:13:40Z</time></trkpt><trkpt lat="41.80100553107985" lon="1.7376307101430575"><ele>521.0</ele><time>2026-04-25T09:13:41Z</time></trkpt><trkpt lat="41.80107854419331" lon="1.7373642658923962"><ele>519.0</ele><time>2026-04-25T09:13:42Z</time></trkpt><trkpt lat="41.80113672225479" lon="1.7370866970625576"><ele>517.0</ele><time>2026-04-25T09:13:43Z</time></trkpt><trkpt lat="41.80117744561564" lon="1.7368034618277581"><ele>517.0</ele><time>2026-04-25T09:13:44Z</time></trkpt><trkpt lat="41.80121968900926" lon="1.7365452644194341"><ele>517.0</ele><time>2026-04-25T09:13:45Z</time></trkpt><trkpt lat="41.801290271775784" lon="1.736314042995238"><ele>517.0</ele><time>2026-04-25T09:13:46Z</time></trkpt><trkpt lat="41.801368721746265" lon="1.7361102422192038"><ele>520.6666666666667</ele><time>2026-04-25T09:13:47Z</time></trkpt><trkpt lat="41.801427297273435" lon="1.7359259711357384"><ele>524.3333333333334</ele><time>2026-04-25T09:13:48Z</time></trkpt><trkpt lat="41.80143852041023" lon="1.7357313046685914"><ele>528.0</ele><time>2026-04-25T09:13:49Z</time></trkpt><trkpt lat="41.80139849428611" lon="1.7355062915786097"><ele>528.0</ele><time>2026-04-25T09:13:50Z</time></trkpt><trkpt lat="41.80135456050652" lon="1.7352448623974028"><ele>528.0</ele><time>2026-04-25T09:13:51Z</time></trkpt><trkpt lat="41.80136325482563" lon="1.7349613579648033"><ele>528.0</ele><time>2026-04-25T09:13:52Z</time></trkpt><trkpt lat="41.801330027958976" lon="1.734676033508557"><ele>527.3333333333334</ele><time>2026-04-25T09:13:53Z</time></trkpt><trkpt lat="41.80126722722963" lon="1.7343874121003986"><ele>526.6666666666667</ele><time>2026-04-25T09:13:54Z</time></trkpt><trkpt lat="41.80119124650459" lon="1.7341205078557431"><ele>526.0</ele><time>2026-04-25T09:13:55Z</time></trkpt><trkpt lat="41.80116601643572" lon="1.7338799647981529"><ele>526.0</ele><time>2026-04-25T09:13:56Z</time></trkpt><trkpt lat="41.80116253635946" lon="1.733653552850731"><ele>526.0</ele><time>2026-04-25T09:13:57Z</time></trkpt><trkpt lat="41.801137801482305" lon="1.733423257601762"><ele>526.0</ele><time>2026-04-25T09:13:58Z</time></trkpt><trkpt lat="41.80109109621099" lon="1.7332026808533867"><ele>533.0</ele><time>2026-04-25T09:13:59Z</time></trkpt><trkpt lat="41.80098944230578" lon="1.7329807331529274"><ele>540.0</ele><time>2026-04-25T09:14:00Z</time></trkpt><trkpt lat="41.80087723932276" lon="1.732740583882021"><ele>547.0</ele><time>2026-04-25T09:14:01Z</time></trkpt><trkpt lat="41.800818931058096" lon="1.7324955907260315"><ele>547.0</ele><time>2026-04-25T09:14:02Z</time></trkpt><trkpt lat="41.80077552341091" lon="1.732225169031456"><ele>547.0</ele><time>2026-04-25T09:14:03Z</time></trkpt><trkpt lat="41.8007563938676" lon="1.7319862452655543"><ele>547.0</ele><time>2026-04-25T09:14:04Z</time></trkpt><trkpt lat="41.8007768448514" lon="1.7317362293032765"><ele>547.3333333333334</ele><time>2026-04-25T09:14:05Z</time></trkpt><trkpt lat="41.80080754185213" lon="1.7314626156991342"><ele>547.6666666666666</ele><time>2026-04-25T09:14:06Z</time></trkpt><trkpt lat="41.80085274041482" lon="1.7311807244416428"><ele>548.0</ele><time>2026-04-25T09:14:07Z</time></trkpt><trkpt lat="41.80086785572255" lon="1.7309125119892583"><ele>549.0</ele><time>2026-04-25T09:14:08Z</time></trkpt><trkpt lat="41.80084369345555" lon="1.7306506240010866"><ele>550.0</ele><time>2026-04-25T09:14:09Z</time></trkpt><trkpt lat="41.800800028423716" lon="1.7304127640719695"><ele>551.0</ele><time>2026-04-25T09:14:10Z</time></trkpt><trkpt lat="41.800786092581184" lon="1.7301954924737095"><ele>551.6666666666666</ele><time>2026-04-25T09:14:11Z</time></trkpt><trkpt lat="41.8008435476057" lon="1.7299836661796524"><ele>552.3333333333334</ele><time>2026-04-25T09:14:12Z</time></trkpt><trkpt lat="41.800899195734694" lon="1.7297369381238759"><ele>553.0</ele><time>2026-04-25T09:14:13Z</time></trkpt><trkpt lat="41.800962546891185" lon="1.729479453589043"><ele>554.0</ele><time>2026-04-25T09:14:14Z</time></trkpt><trkpt lat="41.8009790134692" lon="1.7292131610560026"><ele>555.0</ele><time>2026-04-25T09:14:15Z</time></trkpt><trkpt lat="41.80096595786673" lon="1.7289433690228346"><ele>556.0</ele><time>2026-04-25T09:14:16Z</time></trkpt><trkpt lat="41.800997516685605" lon="1.7287119999721017"><ele>555.5</ele><time>2026-04-25T09:14:17Z</time></trkpt><trkpt lat="41.80101573433735" lon="1.72850937763055"><ele>555.0</ele><time>2026-04-25T09:14:18Z</time></trkpt><trkpt lat="41.801015318578116" lon="1.7283202165480525"><ele>554.5</ele><time>2026-04-25T09:14:19Z</time></trkpt><trkpt lat="41.80096978739339" lon="1.7281230271594226"><ele>554.0</ele><time>2026-04-25T09:14:20Z</time></trkpt><trkpt lat="41.80090771967598" lon="1.7279245456847125"><ele>554.0</ele><time>2026-04-25T09:14:21Z</time></trkpt><trkpt lat="41.80089059199695" lon="1.727739906520357"><ele>554.0</ele><time>2026-04-25T09:14:22Z</time></trkpt><trkpt lat="41.800954546586496" lon="1.7275816485701203"><ele>554.0</ele><time>2026-04-25T09:14:23Z</time></trkpt><trkpt lat="41.801015425026556" lon="1.7273833984260127"><ele>554.0</ele><time>2026-04-25T09:14:24Z</time></trkpt><trkpt lat="41.80110642675055" lon="1.7271748687521935"><ele>548.0</ele><time>2026-04-25T09:14:25Z</time></trkpt><trkpt lat="41.80118652576144" lon="1.7269423545526454"><ele>542.0</ele><time>2026-04-25T09:14:26Z</time></trkpt><trkpt lat="41.801238618515626" lon="1.7266823299383074"><ele>536.0</ele><time>2026-04-25T09:14:27Z</time></trkpt><trkpt lat="41.801238290260315" lon="1.726428999273726"><ele>536.0</ele><time>2026-04-25T09:14:28Z</time></trkpt><trkpt lat="41.8011999649816" lon="1.726145716167573"><ele>536.0</ele><time>2026-04-25T09:14:29Z</time></trkpt><trkpt lat="41.80115254843843" lon="1.7258326283518057"><ele>543.0</ele><time>2026-04-25T09:14:30Z</time></trkpt><trkpt lat="41.80111776776305" lon="1.7255061845052038"><ele>550.0</ele><time>2026-04-25T09:14:31Z</time></trkpt><trkpt lat="41.80108776542275" lon="1.725194228947032"><ele>552.3333333333334</ele><time>2026-04-25T09:14:32Z</time></trkpt><trkpt lat="41.80106595260425" lon="1.724918812914643"><ele>554.6666666666666</ele><time>2026-04-25T09:14:33Z</time></trkpt><trkpt lat="41.8010586147865" lon="1.7246652869645624"><ele>557.0</ele><time>2026-04-25T09:14:34Z</time></trkpt><trkpt lat="41.80109367624208" lon="1.7243919835920252"><ele>559.6666666666666</ele><time>2026-04-25T09:14:35Z</time></trkpt><trkpt lat="41.80112676253846" lon="1.7241167976674234"><ele>562.3333333333334</ele><time>2026-04-25T09:14:36Z</time></trkpt><trkpt lat="41.80119079432249" lon="1.7238486719099326"><ele>565.0</ele><time>2026-04-25T09:14:37Z</time></trkpt><trkpt lat="41.801268028715626" lon="1.7236196261405126"><ele>565.25</ele><time>2026-04-25T09:14:38Z</time></trkpt><trkpt lat="41.80136006219205" lon="1.7234324618326904"><ele>565.5</ele><time>2026-04-25T09:14:39Z</time></trkpt><trkpt lat="41.8014405663491" lon="1.7232664870873347"><ele>565.75</ele><time>2026-04-25T09:14:40Z</time></trkpt><trkpt lat="41.80148069022084" lon="1.7231067256172716"><ele>566.0</ele><time>2026-04-25T09:14:41Z</time></trkpt><trkpt lat="41.801471011225075" lon="1.722968201586102"><ele>566.0</ele><time>2026-04-25T09:14:42Z</time></trkpt><trkpt lat="41.80142869855632" lon="1.7227820956684026"><ele>566.0</ele><time>2026-04-25T09:14:43Z</time></trkpt><trkpt lat="41.80135994052772" lon="1.7225400627432896"><ele>566.0</ele><time>2026-04-25T09:14:44Z</time></trkpt><trkpt lat="41.80129450982085" lon="1.7222667074897728"><ele>566.0</ele><time>2026-04-25T09:14:45Z</time></trkpt><trkpt lat="41.801252354261514" lon="1.7219884981339353"><ele>566.0</ele><time>2026-04-25T09:14:46Z</time></trkpt><trkpt lat="41.80119151248593" lon="1.7217476261485853"><ele>566.0</ele><time>2026-04-25T09:14:47Z</time></trkpt><trkpt lat="41.80114911373185" lon="1.7215412818589373"><ele>566.25</ele><time>2026-04-25T09:14:48Z</time></trkpt><trkpt lat="41.80113520767154" lon="1.7213941771809578"><ele>566.5</ele><time>2026-04-25T09:14:49Z</time></trkpt><trkpt lat="41.801168003355365" lon="1.7212804229100513"><ele>566.75</ele><time>2026-04-25T09:14:50Z</time></trkpt><trkpt lat="41.80125926160528" lon="1.7211853007753386"><ele>567.0</ele><time>2026-04-25T09:14:51Z</time></trkpt><trkpt lat="41.80140390808636" lon="1.7211301717382117"><ele>567.0</ele><time>2026-04-25T09:14:52Z</time></trkpt><trkpt lat="41.801564057918824" lon="1.7211000881815508"><ele>567.0</ele><time>2026-04-25T09:14:53Z</time></trkpt><trkpt lat="41.80173101505449" lon="1.7210812557903112"><ele>567.0</ele><time>2026-04-25T09:14:54Z</time></trkpt><trkpt lat="41.80188996761067" lon="1.7210867071344562"><ele>566.25</ele><time>2026-04-25T09:14:55Z</time></trkpt><trkpt lat="41.80202128700261" lon="1.7210338814138246"><ele>565.5</ele><time>2026-04-25T09:14:56Z</time></trkpt><trkpt lat="41.802098963195725" lon="1.7209245979868466"><ele>564.75</ele><time>2026-04-25T09:14:57Z</time></trkpt><trkpt lat="41.80212569899194" lon="1.7207825675816446"><ele>564.0</ele><time>2026-04-25T09:14:58Z</time></trkpt><trkpt lat="41.80215394117406" lon="1.7206518046967718"><ele>564.0</ele><time>2026-04-25T09:14:59Z</time></trkpt><trkpt lat="41.80223083230461" lon="1.7205690724448715"><ele>564.0</ele><time>2026-04-25T09:15:00Z</time></trkpt><trkpt lat="41.80234448348725" lon="1.720560572930127"><ele>564.0</ele><time>2026-04-25T09:15:01Z</time></trkpt><trkpt lat="41.802445846497335" lon="1.7206590904435117"><ele>564.0</ele><time>2026-04-25T09:15:02Z</time></trkpt><trkpt lat="41.80257184225687" lon="1.720726302532368"><ele>566.5</ele><time>2026-04-25T09:15:03Z</time></trkpt><trkpt lat="41.80271007588287" lon="1.7207682842177099"><ele>569.0</ele><time>2026-04-25T09:15:04Z</time></trkpt><trkpt lat="41.80284311580644" lon="1.7207424135597023"><ele>571.5</ele><time>2026-04-25T09:15:05Z</time></trkpt><trkpt lat="41.80295151039783" lon="1.720643992968621"><ele>574.0</ele><time>2026-04-25T09:15:06Z</time></trkpt><trkpt lat="41.803029724014586" lon="1.720483276370354"><ele>574.0</ele><time>2026-04-25T09:15:07Z</time></trkpt><trkpt lat="41.80310109469278" lon="1.7202922421938078"><ele>574.0</ele><time>2026-04-25T09:15:08Z</time></trkpt><trkpt lat="41.80320042794891" lon="1.7201495414336134"><ele>574.0</ele><time>2026-04-25T09:15:09Z</time></trkpt><trkpt lat="41.80333344693285" lon="1.7200634661180407"><ele>574.25</ele><time>2026-04-25T09:15:10Z</time></trkpt><trkpt lat="41.803451123638496" lon="1.719972446589386"><ele>574.5</ele><time>2026-04-25T09:15:11Z</time></trkpt><trkpt lat="41.80351708883219" lon="1.719826472562293"><ele>574.75</ele><time>2026-04-25T09:15:12Z</time></trkpt><trkpt lat="41.80352252973527" lon="1.7196517935969942"><ele>575.0</ele><time>2026-04-25T09:15:13Z</time></trkpt><trkpt lat="41.80354848263312" lon="1.7195072644345941"><ele>575.0</ele><time>2026-04-25T09:15:14Z</time></trkpt><trkpt lat="41.80361956495955" lon="1.719459727745802"><ele>575.0</ele><time>2026-04-25T09:15:15Z</time></trkpt><trkpt lat="41.803737940697545" lon="1.7194760790109072"><ele>575.0</ele><time>2026-04-25T09:15:16Z</time></trkpt><trkpt lat="41.80386359021233" lon="1.7195305972124209"><ele>575.0</ele><time>2026-04-25T09:15:17Z</time></trkpt><trkpt lat="41.80396726636004" lon="1.719552668523311"><ele>575.0</ele><time>2026-04-25T09:15:18Z</time></trkpt><trkpt lat="41.804047231962976" lon="1.7194823837819744"><ele>574.75</ele><time>2026-04-25T09:15:19Z</time></trkpt><trkpt lat="41.80410426382575" lon="1.7193390768418864"><ele>574.5</ele><time>2026-04-25T09:15:20Z</time></trkpt><trkpt lat="41.804084842555184" lon="1.7191520566312004"><ele>574.25</ele><time>2026-04-25T09:15:21Z</time></trkpt><trkpt lat="41.804007831523236" lon="1.7189774239543272"><ele>574.0</ele><time>2026-04-25T09:15:22Z</time></trkpt><trkpt lat="41.80390141934856" lon="1.7187827892035983"><ele>576.3333333333334</ele><time>2026-04-25T09:15:23Z</time></trkpt><trkpt lat="41.80379856612721" lon="1.718564447316419"><ele>578.6666666666666</ele><time>2026-04-25T09:15:24Z</time></trkpt><trkpt lat="41.803668177717505" lon="1.7184164046244355"><ele>581.0</ele><time>2026-04-25T09:15:25Z</time></trkpt><trkpt lat="41.803589368838395" lon="1.718276867125233"><ele>581.0</ele><time>2026-04-25T09:15:26Z</time></trkpt><trkpt lat="41.803533508238495" lon="1.7181569480967318"><ele>581.0</ele><time>2026-04-25T09:15:27Z</time></trkpt><trkpt lat="41.80353712605262" lon="1.718001011666324"><ele>581.0</ele><time>2026-04-25T09:15:28Z</time></trkpt><trkpt lat="41.80360467453237" lon="1.7178368765020948"><ele>581.0</ele><time>2026-04-25T09:15:29Z</time></trkpt><trkpt lat="41.8036674360602" lon="1.7176447668557169"><ele>580.6666666666666</ele><time>2026-04-25T09:15:30Z</time></trkpt><trkpt lat="41.803750050275255" lon="1.7174904048917325"><ele>580.3333333333334</ele><time>2026-04-25T09:15:31Z</time></trkpt><trkpt lat="41.80386824114489" lon="1.7173820687339476"><ele>580.0</ele><time>2026-04-25T09:15:32Z</time></trkpt><trkpt lat="41.8040249388529" lon="1.7172772137755186"><ele>580.0</ele><time>2026-04-25T09:15:33Z</time></trkpt><trkpt lat="41.80417819330009" lon="1.7171331282634699"><ele>580.0</ele><time>2026-04-25T09:15:34Z</time></trkpt><trkpt lat="41.80430431404555" lon="1.716942510447087"><ele>580.0</ele><time>2026-04-25T09:15:35Z</time></trkpt><trkpt lat="41.80439713232797" lon="1.7167112895320829"><ele>582.75</ele><time>2026-04-25T09:15:36Z</time></trkpt><trkpt lat="41.8044636621116" lon="1.7165143248397448"><ele>585.5</ele><time>2026-04-25T09:15:37Z</time></trkpt><trkpt lat="41.80452550017642" lon="1.7163597385427725"><ele>588.25</ele><time>2026-04-25T09:15:38Z</time></trkpt><trkpt lat="41.80462435866741" lon="1.7162310245999026"><ele>591.0</ele><time>2026-04-25T09:15:39Z</time></trkpt><trkpt lat="41.80475534502175" lon="1.716135166489639"><ele>591.0</ele><time>2026-04-25T09:15:40Z</time></trkpt><trkpt lat="41.80491154375264" lon="1.7161013114884613"><ele>591.0</ele><time>2026-04-25T09:15:41Z</time></trkpt><trkpt lat="41.80508003278421" lon="1.7160472259098478"><ele>591.0</ele><time>2026-04-25T09:15:42Z</time></trkpt><trkpt lat="41.805276081001495" lon="1.716017978942512"><ele>586.0</ele><time>2026-04-25T09:15:43Z</time></trkpt><trkpt lat="41.805483379250596" lon="1.7159659960163427"><ele>581.0</ele><time>2026-04-25T09:15:44Z</time></trkpt><trkpt lat="41.80568136727114" lon="1.715908502501517"><ele>576.0</ele><time>2026-04-25T09:15:45Z</time></trkpt><trkpt lat="41.80586186582399" lon="1.7158659579139228"><ele>577.3333333333334</ele><time>2026-04-25T09:15:46Z</time></trkpt><trkpt lat="41.80603619104159" lon="1.7158514756336627"><ele>578.6666666666667</ele><time>2026-04-25T09:15:47Z</time></trkpt><trkpt lat="41.806194304338966" lon="1.7158722762639178"><ele>580.0</ele><time>2026-04-25T09:15:48Z</time></trkpt><trkpt lat="41.806332422190756" lon="1.7159162164778083"><ele>580.0</ele><time>2026-04-25T09:15:49Z</time></trkpt><trkpt lat="41.80646520779326" lon="1.715935492461855"><ele>580.0</ele><time>2026-04-25T09:15:50Z</time></trkpt><trkpt lat="41.80659975668394" lon="1.7158840940934768"><ele>580.0</ele><time>2026-04-25T09:15:51Z</time></trkpt><trkpt lat="41.80673522663042" lon="1.7157534814412083"><ele>580.0</ele><time>2026-04-25T09:15:52Z</time></trkpt><trkpt lat="41.806863445574955" lon="1.7155631329099275"><ele>581.6666666666667</ele><time>2026-04-25T09:15:53Z</time></trkpt><trkpt lat="41.806988294159055" lon="1.715340354652651"><ele>583.3333333333334</ele><time>2026-04-25T09:15:54Z</time></trkpt><trkpt lat="41.807087109112594" lon="1.7151159959171465"><ele>585.0</ele><time>2026-04-25T09:15:55Z</time></trkpt><trkpt lat="41.807182263979385" lon="1.7149312195764803"><ele>585.0</ele><time>2026-04-25T09:15:56Z</time></trkpt><trkpt lat="41.80730728984559" lon="1.7147824731841153"><ele>585.0</ele><time>2026-04-25T09:15:57Z</time></trkpt><trkpt lat="41.807445229044404" lon="1.714658166869939"><ele>585.0</ele><time>2026-04-25T09:15:58Z</time></trkpt><trkpt lat="41.8075943653609" lon="1.7145836012560565"><ele>588.6666666666666</ele><time>2026-04-25T09:15:59Z</time></trkpt><trkpt lat="41.80776898094123" lon="1.714586022838262"><ele>592.3333333333333</ele><time>2026-04-25T09:16:00Z</time></trkpt><trkpt lat="41.807956563535974" lon="1.7145909278904992"><ele>596.0</ele><time>2026-04-25T09:16:01Z</time></trkpt><trkpt lat="41.80815117027362" lon="1.7145933451343356"><ele>596.0</ele><time>2026-04-25T09:16:02Z</time></trkpt><trkpt lat="41.80832281698235" lon="1.7146260480241586"><ele>596.0</ele><time>2026-04-25T09:16:03Z</time></trkpt><trkpt lat="41.80846548420269" lon="1.714719748566487"><ele>596.0</ele><time>2026-04-25T09:16:04Z</time></trkpt><trkpt lat="41.80859985528063" lon="1.714783046155511"><ele>596.0</ele><time>2026-04-25T09:16:05Z</time></trkpt><trkpt lat="41.80870614021814" lon="1.7148184070170367"><ele>596.0</ele><time>2026-04-25T09:16:06Z</time></trkpt><trkpt lat="41.80880140547265" lon="1.7147683066721995"><ele>596.0</ele><time>2026-04-25T09:16:07Z</time></trkpt><trkpt lat="41.808878404343005" lon="1.7146390359371813"><ele>596.0</ele><time>2026-04-25T09:16:08Z</time></trkpt><trkpt lat="41.80896824108904" lon="1.7145011433841797"><ele>596.3333333333333</ele><time>2026-04-25T09:16:09Z</time></trkpt><trkpt lat="41.80893755826971" lon="1.7142346847388135"><ele>596.6666666666666</ele><time>2026-04-25T09:16:10Z</time></trkpt><trkpt lat="41.80894893405428" lon="1.714021046023622"><ele>597.0</ele><time>2026-04-25T09:16:11Z</time></trkpt><trkpt lat="41.80899026474359" lon="1.7138557132118744"><ele>597.0</ele><time>2026-04-25T09:16:12Z</time></trkpt><trkpt lat="41.80907050259687" lon="1.7137335641185296"><ele>597.0</ele><time>2026-04-25T09:16:13Z</time></trkpt><trkpt lat="41.8091963937265" lon="1.7136682155183263"><ele>597.0</ele><time>2026-04-25T09:16:14Z</time></trkpt><trkpt lat="41.80933990710701" lon="1.7136145124349809"><ele>597.0</ele><time>2026-04-25T09:16:15Z</time></trkpt><trkpt lat="41.80945971134248" lon="1.7134992510138283"><ele>600.0</ele><time>2026-04-25T09:16:16Z</time></trkpt><trkpt lat="41.809532886928004" lon="1.713338552618339"><ele>603.0</ele><time>2026-04-25T09:16:17Z</time></trkpt><trkpt lat="41.809549081364345" lon="1.7131556230613454"><ele>606.0</ele><time>2026-04-25T09:16:18Z</time></trkpt><trkpt lat="41.809520478228976" lon="1.7129836420630282"><ele>609.0</ele><time>2026-04-25T09:16:19Z</time></trkpt><trkpt lat="41.80951983073819" lon="1.7128525310480032"><ele>609.0</ele><time>2026-04-25T09:16:20Z</time></trkpt><trkpt lat="41.80959350975169" lon="1.7127508422937838"><ele>609.0</ele><time>2026-04-25T09:16:21Z</time></trkpt><trkpt lat="41.80971757124769" lon="1.7127072933846048"><ele>609.0</ele><time>2026-04-25T09:16:22Z</time></trkpt><trkpt lat="41.8098590665086" lon="1.7126457453318649"><ele>609.0</ele><time>2026-04-25T09:16:23Z</time></trkpt><trkpt lat="41.81001070189558" lon="1.7126127825968724"><ele>608.6666666666666</ele><time>2026-04-25T09:16:24Z</time></trkpt><trkpt lat="41.81018604563639" lon="1.712509797972455"><ele>608.3333333333333</ele><time>2026-04-25T09:16:25Z</time></trkpt><trkpt lat="41.810309441247455" lon="1.7123640538486053"><ele>608.0</ele><time>2026-04-25T09:16:26Z</time></trkpt><trkpt lat="41.81040478810752" lon="1.7121676115312894"><ele>608.0</ele><time>2026-04-25T09:16:27Z</time></trkpt><trkpt lat="41.81050889833045" lon="1.7119753140580498"><ele>608.0</ele><time>2026-04-25T09:16:28Z</time></trkpt><trkpt lat="41.81063778906235" lon="1.7118332531819975"><ele>608.0</ele><time>2026-04-25T09:16:29Z</time></trkpt><trkpt lat="41.81079852987089" lon="1.71178695867927"><ele>607.6666666666666</ele><time>2026-04-25T09:16:30Z</time></trkpt><trkpt lat="41.81097536650582" lon="1.7117189261211747"><ele>607.3333333333334</ele><time>2026-04-25T09:16:31Z</time></trkpt><trkpt lat="41.81116035257908" lon="1.711625808977166"><ele>607.0</ele><time>2026-04-25T09:16:32Z</time></trkpt><trkpt lat="41.81132058266685" lon="1.7115654722955993"><ele>609.5</ele><time>2026-04-25T09:16:33Z</time></trkpt><trkpt lat="41.81144076127855" lon="1.7115087670320974"><ele>612.0</ele><time>2026-04-25T09:16:34Z</time></trkpt><trkpt lat="41.811535210010526" lon="1.7114314226855054"><ele>614.5</ele><time>2026-04-25T09:16:35Z</time></trkpt><trkpt lat="41.81159964254032" lon="1.7113068452017173"><ele>617.0</ele><time>2026-04-25T09:16:36Z</time></trkpt><trkpt lat="41.8116265759168" lon="1.7111448018596978"><ele>615.5</ele><time>2026-04-25T09:16:37Z</time></trkpt><trkpt lat="41.811626481671645" lon="1.7109731979728864"><ele>614.0</ele><time>2026-04-25T09:16:38Z</time></trkpt><trkpt lat="41.81153901530744" lon="1.7108386104294842"><ele>612.5</ele><time>2026-04-25T09:16:39Z</time></trkpt><trkpt lat="41.81142429894902" lon="1.710750021540512"><ele>611.0</ele><time>2026-04-25T09:16:40Z</time></trkpt><trkpt lat="41.81128819111703" lon="1.7107242758960828"><ele>611.0</ele><time>2026-04-25T09:16:41Z</time></trkpt><trkpt lat="41.811124142520804" lon="1.7107656760710042"><ele>611.0</ele><time>2026-04-25T09:16:42Z</time></trkpt><trkpt lat="41.81094886250772" lon="1.7108120337008703"><ele>611.0</ele><time>2026-04-25T09:16:43Z</time></trkpt><trkpt lat="41.81075031970821" lon="1.7108279465982863"><ele>612.0</ele><time>2026-04-25T09:16:44Z</time></trkpt><trkpt lat="41.81055403004327" lon="1.7108771286532802"><ele>613.0</ele><time>2026-04-25T09:16:45Z</time></trkpt><trkpt lat="41.81038380105508" lon="1.7109154899507018"><ele>614.0</ele><time>2026-04-25T09:16:46Z</time></trkpt><trkpt lat="41.81022324948646" lon="1.7110048371408662"><ele>611.6666666666666</ele><time>2026-04-25T09:16:47Z</time></trkpt><trkpt lat="41.81006143244411" lon="1.7111268235176849"><ele>609.3333333333334</ele><time>2026-04-25T09:16:48Z</time></trkpt><trkpt lat="41.80990637495434" lon="1.7112328693581151"><ele>607.0</ele><time>2026-04-25T09:16:49Z</time></trkpt><trkpt lat="41.80977097823274" lon="1.7112927825240323"><ele>607.0</ele><time>2026-04-25T09:16:50Z</time></trkpt><trkpt lat="41.809661495847266" lon="1.7113455946120593"><ele>607.0</ele><time>2026-04-25T09:16:51Z</time></trkpt><trkpt lat="41.809564872556194" lon="1.7113802604666237"><ele>607.0</ele><time>2026-04-25T09:16:52Z</time></trkpt><trkpt lat="41.809487274012824" lon="1.7112785728984001"><ele>607.0</ele><time>2026-04-25T09:16:53Z</time></trkpt><trkpt lat="41.809438333931716" lon="1.711157965817552"><ele>607.0</ele><time>2026-04-25T09:16:54Z</time></trkpt><trkpt lat="41.809461387927115" lon="1.7110173724336"><ele>613.0</ele><time>2026-04-25T09:16:55Z</time></trkpt><trkpt lat="41.809517691690075" lon="1.7108685228855516"><ele>619.0</ele><time>2026-04-25T09:16:56Z</time></trkpt><trkpt lat="41.80958305506611" lon="1.710667564999294"><ele>625.0</ele><time>2026-04-25T09:16:57Z</time></trkpt><trkpt lat="41.809673619136944" lon="1.710451689806975"><ele>626.0</ele><time>2026-04-25T09:16:58Z</time></trkpt><trkpt lat="41.80976464343361" lon="1.7102109739399862"><ele>627.0</ele><time>2026-04-25T09:16:59Z</time></trkpt><trkpt lat="41.80986630446578" lon="1.7099404776185723"><ele>628.0</ele><time>2026-04-25T09:17:00Z</time></trkpt><trkpt lat="41.80996100435144" lon="1.70969144281229"><ele>628.0</ele><time>2026-04-25T09:17:01Z</time></trkpt><trkpt lat="41.81004266450124" lon="1.7094327049104248"><ele>628.0</ele><time>2026-04-25T09:17:02Z</time></trkpt><trkpt lat="41.81009469549967" lon="1.7091531623261875"><ele>628.0</ele><time>2026-04-25T09:17:03Z</time></trkpt><trkpt lat="41.810113176460995" lon="1.7088613107086614"><ele>630.5</ele><time>2026-04-25T09:17:04Z</time></trkpt><trkpt lat="41.81010446332475" lon="1.7085587660533752"><ele>633.0</ele><time>2026-04-25T09:17:05Z</time></trkpt><trkpt lat="41.81008410416882" lon="1.7082461636502266"><ele>633.0</ele><time>2026-04-25T09:17:06Z</time></trkpt><trkpt lat="41.81008525812567" lon="1.7079248880156175"><ele>633.0</ele><time>2026-04-25T09:17:07Z</time></trkpt><trkpt lat="41.810082511291505" lon="1.7076131813103017"><ele>634.3333333333334</ele><time>2026-04-25T09:17:08Z</time></trkpt><trkpt lat="41.8100799950321" lon="1.707328421906148"><ele>635.6666666666667</ele><time>2026-04-25T09:17:09Z</time></trkpt><trkpt lat="41.8100607801863" lon="1.7070754047270504"><ele>637.0</ele><time>2026-04-25T09:17:10Z</time></trkpt><trkpt lat="41.81006602520533" lon="1.7068393937907542"><ele>638.3333333333334</ele><time>2026-04-25T09:17:11Z</time></trkpt><trkpt lat="41.810049020915066" lon="1.706604707329496"><ele>639.6666666666666</ele><time>2026-04-25T09:17:12Z</time></trkpt><trkpt lat="41.809995352429596" lon="1.7063552337450978"><ele>641.0</ele><time>2026-04-25T09:17:13Z</time></trkpt><trkpt lat="41.80989891645351" lon="1.7061117809497848"><ele>643.0</ele><time>2026-04-25T09:17:14Z</time></trkpt><trkpt lat="41.80979934891654" lon="1.7058742581215744"><ele>645.0</ele><time>2026-04-25T09:17:15Z</time></trkpt><trkpt lat="41.809730878380215" lon="1.7056326506868908"><ele>647.0</ele><time>2026-04-25T09:17:16Z</time></trkpt><trkpt lat="41.809651274250434" lon="1.7053921128755247"><ele>649.0</ele><time>2026-04-25T09:17:17Z</time></trkpt><trkpt lat="41.80963396543929" lon="1.7051273652756462"><ele>651.0</ele><time>2026-04-25T09:17:18Z</time></trkpt><trkpt lat="41.809598350394204" lon="1.7048703658853728"><ele>653.0</ele><time>2026-04-25T09:17:19Z</time></trkpt><trkpt lat="41.80958589979967" lon="1.704648915048969"><ele>653.0</ele><time>2026-04-25T09:17:20Z</time></trkpt><trkpt lat="41.80961388847271" lon="1.7044529184270407"><ele>653.0</ele><time>2026-04-25T09:17:21Z</time></trkpt><trkpt lat="41.80965142667925" lon="1.704275523831535"><ele>653.0</ele><time>2026-04-25T09:17:22Z</time></trkpt><trkpt lat="41.80976850035477" lon="1.704140400793163"><ele>653.0</ele><time>2026-04-25T09:17:23Z</time></trkpt><trkpt lat="41.80988288291248" lon="1.7039594432300313"><ele>653.0</ele><time>2026-04-25T09:17:24Z</time></trkpt><trkpt lat="41.81002819755993" lon="1.7037881941240844"><ele>653.0</ele><time>2026-04-25T09:17:25Z</time></trkpt><trkpt lat="41.81018004098092" lon="1.7035878259542916"><ele>653.0</ele><time>2026-04-25T09:17:26Z</time></trkpt><trkpt lat="41.810328199093405" lon="1.7033842674731694"><ele>655.6666666666666</ele><time>2026-04-25T09:17:27Z</time></trkpt><trkpt lat="41.810479847931084" lon="1.7031861727178497"><ele>658.3333333333334</ele><time>2026-04-25T09:17:28Z</time></trkpt><trkpt lat="41.81062830208178" lon="1.7029908694497489"><ele>661.0</ele><time>2026-04-25T09:17:29Z</time></trkpt><trkpt lat="41.81077556533947" lon="1.7027887850613443"><ele>660.3333333333334</ele><time>2026-04-25T09:17:30Z</time></trkpt><trkpt lat="41.810911168653284" lon="1.702600115921293"><ele>659.6666666666666</ele><time>2026-04-25T09:17:31Z</time></trkpt><trkpt lat="41.81103717315531" lon="1.7024289157081278"><ele>659.0</ele><time>2026-04-25T09:17:32Z</time></trkpt><trkpt lat="41.81116547562128" lon="1.7022747869957504"><ele>659.0</ele><time>2026-04-25T09:17:33Z</time></trkpt><trkpt lat="41.81130969640927" lon="1.7021418867629845"><ele>659.0</ele><time>2026-04-25T09:17:34Z</time></trkpt><trkpt lat="41.811451073231154" lon="1.7020445112592522"><ele>659.0</ele><time>2026-04-25T09:17:35Z</time></trkpt><trkpt lat="41.811574222696116" lon="1.7019884477197604"><ele>659.0</ele><time>2026-04-25T09:17:36Z</time></trkpt><trkpt lat="41.81170721714275" lon="1.7019881390404439"><ele>659.0</ele><time>2026-04-25T09:17:37Z</time></trkpt><trkpt lat="41.811875339996796" lon="1.7020763152660379"><ele>659.0</ele><time>2026-04-25T09:17:38Z</time></trkpt><trkpt lat="41.81200731833271" lon="1.7021967143648504"><ele>659.6666666666666</ele><time>2026-04-25T09:17:39Z</time></trkpt><trkpt lat="41.812120985011376" lon="1.7023583267353941"><ele>660.3333333333334</ele><time>2026-04-25T09:17:40Z</time></trkpt><trkpt lat="41.81222933365213" lon="1.7025584367429833"><ele>661.0</ele><time>2026-04-25T09:17:41Z</time></trkpt><trkpt lat="41.812311517727935" lon="1.7027489032949774"><ele>661.0</ele><time>2026-04-25T09:17:42Z</time></trkpt><trkpt lat="41.812376195264875" lon="1.702901652185282"><ele>661.0</ele><time>2026-04-25T09:17:43Z</time></trkpt><trkpt lat="41.81243309136811" lon="1.7030058860944424"><ele>661.0</ele><time>2026-04-25T09:17:44Z</time></trkpt><trkpt lat="41.812522649397025" lon="1.7030577584018465"><ele>661.0</ele><time>2026-04-25T09:17:45Z</time></trkpt><trkpt lat="41.812630916878156" lon="1.7030306521735732"><ele>661.0</ele><time>2026-04-25T09:17:46Z</time></trkpt><trkpt lat="41.81271693931338" lon="1.7029258941808938"><ele>660.25</ele><time>2026-04-25T09:17:47Z</time></trkpt><trkpt lat="41.81277294749619" lon="1.7027444394332023"><ele>659.5</ele><time>2026-04-25T09:17:48Z</time></trkpt><trkpt lat="41.8128240287594" lon="1.7025214366805554"><ele>658.75</ele><time>2026-04-25T09:17:49Z</time></trkpt><trkpt lat="41.8128582422635" lon="1.7023810453644177"><ele>658.0</ele><time>2026-04-25T09:17:50Z</time></trkpt><trkpt lat="41.812931020522235" lon="1.7022534773985032"><ele>658.0</ele><time>2026-04-25T09:17:51Z</time></trkpt><trkpt lat="41.81303141281512" lon="1.702155567316438"><ele>658.0</ele><time>2026-04-25T09:17:52Z</time></trkpt><trkpt lat="41.8131746238554" lon="1.7020985717529307"><ele>658.0</ele><time>2026-04-25T09:17:53Z</time></trkpt><trkpt lat="41.81333812951744" lon="1.702073189018555"><ele>658.0</ele><time>2026-04-25T09:17:54Z</time></trkpt><trkpt lat="41.81349911086843" lon="1.701987366172872"><ele>658.5</ele><time>2026-04-25T09:17:55Z</time></trkpt><trkpt lat="41.81363171511551" lon="1.701839066068364"><ele>659.0</ele><time>2026-04-25T09:17:56Z</time></trkpt><trkpt lat="41.81372825319872" lon="1.7017043765522664"><ele>659.5</ele><time>2026-04-25T09:17:57Z</time></trkpt><trkpt lat="41.8138275828956" lon="1.7016252730502728"><ele>660.0</ele><time>2026-04-25T09:17:58Z</time></trkpt><trkpt lat="41.81395458222398" lon="1.7016089659946907"><ele>660.0</ele><time>2026-04-25T09:17:59Z</time></trkpt><trkpt lat="41.814103194923" lon="1.7016680403324171"><ele>660.0</ele><time>2026-04-25T09:18:00Z</time></trkpt><trkpt lat="41.81427871674571" lon="1.7017488496598208"><ele>660.0</ele><time>2026-04-25T09:18:01Z</time></trkpt><trkpt lat="41.814476551455904" lon="1.7018351823863425"><ele>661.0</ele><time>2026-04-25T09:18:02Z</time></trkpt><trkpt lat="41.81469314356915" lon="1.7019032378556913"><ele>662.0</ele><time>2026-04-25T09:18:03Z</time></trkpt><trkpt lat="41.814898132879925" lon="1.7019661132186688"><ele>663.0</ele><time>2026-04-25T09:18:04Z</time></trkpt><trkpt lat="41.81506122921024" lon="1.7020205522538248"><ele>668.0</ele><time>2026-04-25T09:18:05Z</time></trkpt><trkpt lat="41.81520670259851" lon="1.7020964826732583"><ele>673.0</ele><time>2026-04-25T09:18:06Z</time></trkpt><trkpt lat="41.81535120396504" lon="1.702219207233002"><ele>678.0</ele><time>2026-04-25T09:18:07Z</time></trkpt><trkpt lat="41.8154980422168" lon="1.7023568804908238"><ele>678.0</ele><time>2026-04-25T09:18:08Z</time></trkpt><trkpt lat="41.81566298112186" lon="1.702457601610996"><ele>678.0</ele><time>2026-04-25T09:18:09Z</time></trkpt><trkpt lat="41.815854031762385" lon="1.7025176147290688"><ele>678.0</ele><time>2026-04-25T09:18:10Z</time></trkpt><trkpt lat="41.81602518619858" lon="1.7025239872959612"><ele>679.75</ele><time>2026-04-25T09:18:11Z</time></trkpt><trkpt lat="41.81616969607621" lon="1.7025179401313968"><ele>681.5</ele><time>2026-04-25T09:18:12Z</time></trkpt><trkpt lat="41.816294800953905" lon="1.702472069050965"><ele>683.25</ele><time>2026-04-25T09:18:13Z</time></trkpt><trkpt lat="41.81641439139659" lon="1.7023745065382978"><ele>685.0</ele><time>2026-04-25T09:18:14Z</time></trkpt><trkpt lat="41.81651123953403" lon="1.7022340685270136"><ele>685.0</ele><time>2026-04-25T09:18:15Z</time></trkpt><trkpt lat="41.81655598294616" lon="1.7020608439728986"><ele>685.0</ele><time>2026-04-25T09:18:16Z</time></trkpt><trkpt lat="41.81654113467111" lon="1.701867283219751"><ele>685.0</ele><time>2026-04-25T09:18:17Z</time></trkpt><trkpt lat="41.81647882202115" lon="1.7016668659971195"><ele>685.0</ele><time>2026-04-25T09:18:18Z</time></trkpt><trkpt lat="41.816406821947254" lon="1.7014736351971664"><ele>686.0</ele><time>2026-04-25T09:18:19Z</time></trkpt><trkpt lat="41.81637092094271" lon="1.701331927296618"><ele>687.0</ele><time>2026-04-25T09:18:20Z</time></trkpt><trkpt lat="41.81639303007179" lon="1.701202095184298"><ele>688.0</ele><time>2026-04-25T09:18:21Z</time></trkpt><trkpt lat="41.81648380567741" lon="1.701075469371849"><ele>689.0</ele><time>2026-04-25T09:18:22Z</time></trkpt><trkpt lat="41.81659033111402" lon="1.7009249301600553"><ele>689.5</ele><time>2026-04-25T09:18:23Z</time></trkpt><trkpt lat="41.81670646758201" lon="1.7008431152470997"><ele>690.0</ele><time>2026-04-25T09:18:24Z</time></trkpt><trkpt lat="41.816766187369936" lon="1.7006751639656934"><ele>690.5</ele><time>2026-04-25T09:18:25Z</time></trkpt><trkpt lat="41.81676651705339" lon="1.700521771597979"><ele>691.0</ele><time>2026-04-25T09:18:26Z</time></trkpt><trkpt lat="41.81670694372158" lon="1.7003896549888171"><ele>691.0</ele><time>2026-04-25T09:18:27Z</time></trkpt><trkpt lat="41.81659269818911" lon="1.7003040062201906"><ele>691.0</ele><time>2026-04-25T09:18:28Z</time></trkpt><trkpt lat="41.81643841960875" lon="1.7002652226516086"><ele>691.0</ele><time>2026-04-25T09:18:29Z</time></trkpt><trkpt lat="41.816281286956134" lon="1.7002227785361743"><ele>691.0</ele><time>2026-04-25T09:18:30Z</time></trkpt><trkpt lat="41.81613926891929" lon="1.7001545975506134"><ele>694.6666666666667</ele><time>2026-04-25T09:18:31Z</time></trkpt><trkpt lat="41.81600199871117" lon="1.7000913567232376"><ele>698.3333333333334</ele><time>2026-04-25T09:18:32Z</time></trkpt><trkpt lat="41.81609027072845" lon="1.699705666731934"><ele>702.0</ele><time>2026-04-25T09:18:33Z</time></trkpt><trkpt lat="41.816079016172566" lon="1.699488357862378"><ele>705.0</ele><time>2026-04-25T09:18:34Z</time></trkpt><trkpt lat="41.816118283771544" lon="1.6992732683354912"><ele>708.0</ele><time>2026-04-25T09:18:35Z</time></trkpt><trkpt lat="41.816201748789624" lon="1.6990820742710107"><ele>711.0</ele><time>2026-04-25T09:18:36Z</time></trkpt><trkpt lat="41.81625197887249" lon="1.698870981644466"><ele>711.0</ele><time>2026-04-25T09:18:37Z</time></trkpt><trkpt lat="41.816247476365575" lon="1.6986076718060985"><ele>711.0</ele><time>2026-04-25T09:18:38Z</time></trkpt><trkpt lat="41.81622345562508" lon="1.6983301956661412"><ele>711.0</ele><time>2026-04-25T09:18:39Z</time></trkpt><trkpt lat="41.816242022364335" lon="1.6980604169611555"><ele>713.0</ele><time>2026-04-25T09:18:40Z</time></trkpt><trkpt lat="41.81629373682227" lon="1.6978088357123897"><ele>715.0</ele><time>2026-04-25T09:18:41Z</time></trkpt><trkpt lat="41.816297768410706" lon="1.6976042570940058"><ele>717.0</ele><time>2026-04-25T09:18:42Z</time></trkpt><trkpt lat="41.81625962691008" lon="1.6974560087670307"><ele>719.3333333333334</ele><time>2026-04-25T09:18:43Z</time></trkpt><trkpt lat="41.816174493361416" lon="1.6972816892161153"><ele>721.6666666666667</ele><time>2026-04-25T09:18:44Z</time></trkpt><trkpt lat="41.81604305223854" lon="1.697150194740011"><ele>724.0</ele><time>2026-04-25T09:18:45Z</time></trkpt><trkpt lat="41.8158885822306" lon="1.6970648188929522"><ele>722.3333333333334</ele><time>2026-04-25T09:18:46Z</time></trkpt><trkpt lat="41.815743837805535" lon="1.6969668124700767"><ele>720.6666666666666</ele><time>2026-04-25T09:18:47Z</time></trkpt><trkpt lat="41.815684162588546" lon="1.696785974327659"><ele>719.0</ele><time>2026-04-25T09:18:48Z</time></trkpt><trkpt lat="41.815619045117906" lon="1.6965291927238881"><ele>719.0</ele><time>2026-04-25T09:18:49Z</time></trkpt><trkpt lat="41.81554817245938" lon="1.69628884077314"><ele>719.0</ele><time>2026-04-25T09:18:50Z</time></trkpt><trkpt lat="41.815458393384" lon="1.6960084319002426"><ele>719.0</ele><time>2026-04-25T09:18:51Z</time></trkpt><trkpt lat="41.815359714476934" lon="1.6957068986793744"><ele>722.0</ele><time>2026-04-25T09:18:52Z</time></trkpt><trkpt lat="41.81526814998285" lon="1.6954282985047004"><ele>725.0</ele><time>2026-04-25T09:18:53Z</time></trkpt><trkpt lat="41.81517540750935" lon="1.6951635253968143"><ele>728.0</ele><time>2026-04-25T09:18:54Z</time></trkpt><trkpt lat="41.815094537464645" lon="1.6948742924283224"><ele>728.0</ele><time>2026-04-25T09:18:55Z</time></trkpt><trkpt lat="41.81503320089939" lon="1.694553705958989"><ele>728.0</ele><time>2026-04-25T09:18:56Z</time></trkpt><trkpt lat="41.81496502254989" lon="1.6942320765737708"><ele>731.0</ele><time>2026-04-25T09:18:57Z</time></trkpt><trkpt lat="41.814890243926165" lon="1.6938948557540987"><ele>734.0</ele><time>2026-04-25T09:18:58Z</time></trkpt><trkpt lat="41.81481258060475" lon="1.6935533194669097"><ele>738.5</ele><time>2026-04-25T09:18:59Z</time></trkpt><trkpt lat="41.814742369784454" lon="1.6932323605418436"><ele>743.0</ele><time>2026-04-25T09:19:00Z</time></trkpt><trkpt lat="41.814678918266495" lon="1.6929306551139334"><ele>746.5</ele><time>2026-04-25T09:19:01Z</time></trkpt><trkpt lat="41.814622637874905" lon="1.6926299301942656"><ele>750.0</ele><time>2026-04-25T09:19:02Z</time></trkpt><trkpt lat="41.81458230483751" lon="1.6923305707212557"><ele>750.0</ele><time>2026-04-25T09:19:03Z</time></trkpt><trkpt lat="41.81455733194324" lon="1.6920309447705333"><ele>750.0</ele><time>2026-04-25T09:19:04Z</time></trkpt><trkpt lat="41.81453765698922" lon="1.691725524904954"><ele>752.3333333333334</ele><time>2026-04-25T09:19:05Z</time></trkpt><trkpt lat="41.814521482509114" lon="1.6914377232738211"><ele>754.6666666666667</ele><time>2026-04-25T09:19:06Z</time></trkpt><trkpt lat="41.81452684222884" lon="1.6911764416819128"><ele>757.0</ele><time>2026-04-25T09:19:07Z</time></trkpt><trkpt lat="41.814554024871654" lon="1.6909280399725357"><ele>758.3333333333334</ele><time>2026-04-25T09:19:08Z</time></trkpt><trkpt lat="41.81459672669787" lon="1.6906766675115992"><ele>759.6666666666666</ele><time>2026-04-25T09:19:09Z</time></trkpt><trkpt lat="41.814619099009114" lon="1.6904260845699277"><ele>761.0</ele><time>2026-04-25T09:19:10Z</time></trkpt><trkpt lat="41.814593597480645" lon="1.6901496768550242"><ele>761.0</ele><time>2026-04-25T09:19:11Z</time></trkpt><trkpt lat="41.814543398213424" lon="1.6898510324824738"><ele>761.0</ele><time>2026-04-25T09:19:12Z</time></trkpt><trkpt lat="41.81450887140429" lon="1.6895412077089926"><ele>761.5</ele><time>2026-04-25T09:19:13Z</time></trkpt><trkpt lat="41.81448669136571" lon="1.6892322399052528"><ele>762.0</ele><time>2026-04-25T09:19:14Z</time></trkpt><trkpt lat="41.81445693176855" lon="1.6889369200646902"><ele>762.0</ele><time>2026-04-25T09:19:15Z</time></trkpt><trkpt lat="41.81442250657667" lon="1.6886617953615803"><ele>762.0</ele><time>2026-04-25T09:19:16Z</time></trkpt><trkpt lat="41.81434894126465" lon="1.6884093805227314"><ele>762.0</ele><time>2026-04-25T09:19:17Z</time></trkpt><trkpt lat="41.814245683340005" lon="1.6881715415560767"><ele>763.0</ele><time>2026-04-25T09:19:18Z</time></trkpt><trkpt lat="41.81415366115767" lon="1.6879184998665209"><ele>764.0</ele><time>2026-04-25T09:19:19Z</time></trkpt><trkpt lat="41.814088592992384" lon="1.6876381751369411"><ele>765.0</ele><time>2026-04-25T09:19:20Z</time></trkpt><trkpt lat="41.814032065582175" lon="1.6873355954978726"><ele>765.0</ele><time>2026-04-25T09:19:21Z</time></trkpt><trkpt lat="41.81398089195351" lon="1.6870216244437237"><ele>765.0</ele><time>2026-04-25T09:19:22Z</time></trkpt><trkpt lat="41.81392161916256" lon="1.6867006650506333"><ele>767.5</ele><time>2026-04-25T09:19:23Z</time></trkpt><trkpt lat="41.81385843761514" lon="1.6863683644554877"><ele>770.0</ele><time>2026-04-25T09:19:24Z</time></trkpt><trkpt lat="41.81379318792816" lon="1.6860469040267474"><ele>770.0</ele><time>2026-04-25T09:19:25Z</time></trkpt><trkpt lat="41.81373087642123" lon="1.6857305461506686"><ele>770.0</ele><time>2026-04-25T09:19:26Z</time></trkpt><trkpt lat="41.81364917734202" lon="1.6854223598926437"><ele>771.0</ele><time>2026-04-25T09:19:27Z</time></trkpt><trkpt lat="41.8135438584813" lon="1.6851134216857568"><ele>772.0</ele><time>2026-04-25T09:19:28Z</time></trkpt><trkpt lat="41.813424435414255" lon="1.6848082132290554"><ele>772.0</ele><time>2026-04-25T09:19:29Z</time></trkpt><trkpt lat="41.8133026705388" lon="1.6845034136453627"><ele>772.0</ele><time>2026-04-25T09:19:30Z</time></trkpt><trkpt lat="41.81318244625661" lon="1.6841902317067896"><ele>774.5</ele><time>2026-04-25T09:19:31Z</time></trkpt><trkpt lat="41.81306214446155" lon="1.683874509723365"><ele>777.0</ele><time>2026-04-25T09:19:32Z</time></trkpt><trkpt lat="41.81294101091343" lon="1.6835637101771146"><ele>777.0</ele><time>2026-04-25T09:19:33Z</time></trkpt><trkpt lat="41.81281563899588" lon="1.683254574533686"><ele>777.0</ele><time>2026-04-25T09:19:34Z</time></trkpt><trkpt lat="41.81269462417601" lon="1.6829558340520867"><ele>780.5</ele><time>2026-04-25T09:19:35Z</time></trkpt><trkpt lat="41.81257499631665" lon="1.6826690771213775"><ele>784.0</ele><time>2026-04-25T09:19:36Z</time></trkpt><trkpt lat="41.81245866562297" lon="1.6824043058432339"><ele>784.0</ele><time>2026-04-25T09:19:37Z</time></trkpt><trkpt lat="41.8123535550596" lon="1.6821607012646551"><ele>784.0</ele><time>2026-04-25T09:19:38Z</time></trkpt><trkpt lat="41.81225438043202" lon="1.6819383936517658"><ele>784.0</ele><time>2026-04-25T09:19:39Z</time></trkpt><trkpt lat="41.81216087442065" lon="1.6817125044288934"><ele>787.3333333333333</ele><time>2026-04-25T09:19:40Z</time></trkpt><trkpt lat="41.81208988571765" lon="1.6815040001468844"><ele>790.6666666666667</ele><time>2026-04-25T09:19:41Z</time></trkpt><trkpt lat="41.81204791750179" lon="1.6813097087552094"><ele>794.0</ele><time>2026-04-25T09:19:42Z</time></trkpt><trkpt lat="41.81201730759658" lon="1.6811304469294723"><ele>791.0</ele><time>2026-04-25T09:19:43Z</time></trkpt><trkpt lat="41.8119650706175" lon="1.6809180649154303"><ele>788.0</ele><time>2026-04-25T09:19:44Z</time></trkpt><trkpt lat="41.81190062391411" lon="1.6806765900694118"><ele>785.0</ele><time>2026-04-25T09:19:45Z</time></trkpt><trkpt lat="41.811792428128356" lon="1.6804384606514093"><ele>791.0</ele><time>2026-04-25T09:19:46Z</time></trkpt><trkpt lat="41.81165504590931" lon="1.6802158598073598"><ele>797.0</ele><time>2026-04-25T09:19:47Z</time></trkpt><trkpt lat="41.811533458193765" lon="1.6800202188125013"><ele>803.0</ele><time>2026-04-25T09:19:48Z</time></trkpt><trkpt lat="41.81143164009445" lon="1.6798253907393979"><ele>803.0</ele><time>2026-04-25T09:19:49Z</time></trkpt><trkpt lat="41.81135660153534" lon="1.6795959741819564"><ele>803.0</ele><time>2026-04-25T09:19:50Z</time></trkpt><trkpt lat="41.81130787169948" lon="1.679324458707406"><ele>803.0</ele><time>2026-04-25T09:19:51Z</time></trkpt><trkpt lat="41.81126270155408" lon="1.6790357371090205"><ele>806.6666666666667</ele><time>2026-04-25T09:19:52Z</time></trkpt><trkpt lat="41.81120857714064" lon="1.6787629250843488"><ele>810.3333333333333</ele><time>2026-04-25T09:19:53Z</time></trkpt><trkpt lat="41.81114433020579" lon="1.6784979797163884"><ele>814.0</ele><time>2026-04-25T09:19:54Z</time></trkpt><trkpt lat="41.81106053411623" lon="1.6782429416918982"><ele>815.6666666666666</ele><time>2026-04-25T09:19:55Z</time></trkpt><trkpt lat="41.81095755691282" lon="1.6780141760329668"><ele>817.3333333333333</ele><time>2026-04-25T09:19:56Z</time></trkpt><trkpt lat="41.81082845569877" lon="1.677825360953319"><ele>819.0</ele><time>2026-04-25T09:19:57Z</time></trkpt><trkpt lat="41.810667378235095" lon="1.6776457685443091"><ele>819.0</ele><time>2026-04-25T09:19:58Z</time></trkpt><trkpt lat="41.8104775698641" lon="1.6774816153359322"><ele>819.0</ele><time>2026-04-25T09:19:59Z</time></trkpt><trkpt lat="41.81028641020234" lon="1.6773382603148035"><ele>819.0</ele><time>2026-04-25T09:20:00Z</time></trkpt><trkpt lat="41.81011359519744" lon="1.6772187630307918"><ele>819.3333333333333</ele><time>2026-04-25T09:20:01Z</time></trkpt><trkpt lat="41.80995833489971" lon="1.6770976638542152"><ele>819.6666666666666</ele><time>2026-04-25T09:20:02Z</time></trkpt><trkpt lat="41.809815027256306" lon="1.6769357138436394"><ele>820.0</ele><time>2026-04-25T09:20:03Z</time></trkpt><trkpt lat="41.809678901425094" lon="1.6767297171421742"><ele>820.0</ele><time>2026-04-25T09:20:04Z</time></trkpt><trkpt lat="41.809554213308594" lon="1.6765318617673286"><ele>820.0</ele><time>2026-04-25T09:20:05Z</time></trkpt><trkpt lat="41.809458453939214" lon="1.6763726030731148"><ele>820.0</ele><time>2026-04-25T09:20:06Z</time></trkpt><trkpt lat="41.809386825060336" lon="1.6762298962133044"><ele>818.75</ele><time>2026-04-25T09:20:07Z</time></trkpt><trkpt lat="41.809337723414174" lon="1.6760967028281082"><ele>817.5</ele><time>2026-04-25T09:20:08Z</time></trkpt><trkpt lat="41.80928374471526" lon="1.6759587310492392"><ele>816.25</ele><time>2026-04-25T09:20:09Z</time></trkpt><trkpt lat="41.80922851770812" lon="1.6758160834497413"><ele>815.0</ele><time>2026-04-25T09:20:10Z</time></trkpt><trkpt lat="41.809184303728685" lon="1.6756836866511506"><ele>815.0000000000001</ele><time>2026-04-25T09:20:11Z</time></trkpt><trkpt lat="41.80915698737851" lon="1.6755601573534595"><ele>815.0</ele><time>2026-04-25T09:20:12Z</time></trkpt><trkpt lat="41.8091304477902" lon="1.675463129162237"><ele>815.0</ele><time>2026-04-25T09:20:13Z</time></trkpt><trkpt lat="41.80911025984812" lon="1.675381749979493"><ele>815.0</ele><time>2026-04-25T09:20:14Z</time></trkpt><trkpt lat="41.80908258339562" lon="1.675259325224233"><ele>815.0000000000001</ele><time>2026-04-25T09:20:16Z</time></trkpt><trkpt lat="41.809074775064566" lon="1.6751669568631113"><ele>815.0</ele><time>2026-04-25T09:20:18Z</time></trkpt><trkpt lat="41.809056013353015" lon="1.6750460502073354"><ele>815.4</ele><time>2026-04-25T09:21:40Z</time></trkpt><trkpt lat="41.80899777072155" lon="1.6749163531482534"><ele>815.8</ele><time>2026-04-25T09:21:42Z</time></trkpt><trkpt lat="41.80897118316699" lon="1.6748164898680562"><ele>816.2</ele><time>2026-04-25T09:21:43Z</time></trkpt><trkpt lat="41.80894544838501" lon="1.674702847126972"><ele>816.6</ele><time>2026-04-25T09:21:44Z</time></trkpt><trkpt lat="41.808915708970844" lon="1.6745699456465775"><ele>817.0</ele><time>2026-04-25T09:21:45Z</time></trkpt><trkpt lat="41.80888276538647" lon="1.6744328973470393"><ele>819.75</ele><time>2026-04-25T09:21:46Z</time></trkpt><trkpt lat="41.80883963718127" lon="1.6742786298724217"><ele>822.5</ele><time>2026-04-25T09:21:47Z</time></trkpt><trkpt lat="41.808794163411505" lon="1.6741212210638388"><ele>825.25</ele><time>2026-04-25T09:21:48Z</time></trkpt><trkpt lat="41.80874094649935" lon="1.6739584432861125"><ele>828.0</ele><time>2026-04-25T09:21:49Z</time></trkpt><trkpt lat="41.80868531553346" lon="1.673795338750348"><ele>828.0</ele><time>2026-04-25T09:21:50Z</time></trkpt><trkpt lat="41.80862965970641" lon="1.6736354013181924"><ele>828.0</ele><time>2026-04-25T09:21:51Z</time></trkpt><trkpt lat="41.80857498365753" lon="1.6734767418685021"><ele>828.0</ele><time>2026-04-25T09:21:52Z</time></trkpt><trkpt lat="41.80851864790148" lon="1.6733264916164845"><ele>828.0</ele><time>2026-04-25T09:21:53Z</time></trkpt><trkpt lat="41.808465091484386" lon="1.6731890144095847"><ele>827.5999999999999</ele><time>2026-04-25T09:21:54Z</time></trkpt><trkpt lat="41.80842382136072" lon="1.6730643194383505"><ele>827.1999999999999</ele><time>2026-04-25T09:21:55Z</time></trkpt><trkpt lat="41.80838857911689" lon="1.6729478046964454"><ele>826.8</ele><time>2026-04-25T09:21:56Z</time></trkpt><trkpt lat="41.808351952642795" lon="1.6728273519960226"><ele>826.4</ele><time>2026-04-25T09:21:57Z</time></trkpt><trkpt lat="41.80832165826728" lon="1.6727032447485277"><ele>826.0</ele><time>2026-04-25T09:21:58Z</time></trkpt><trkpt lat="41.80829679504018" lon="1.672572614647971"><ele>826.0</ele><time>2026-04-25T09:21:59Z</time></trkpt><trkpt lat="41.80828015044231" lon="1.6724369043789644"><ele>826.0</ele><time>2026-04-25T09:22:00Z</time></trkpt><trkpt lat="41.80827489721718" lon="1.6722884106063343"><ele>826.0</ele><time>2026-04-25T09:22:01Z</time></trkpt><trkpt lat="41.808280870277535" lon="1.6721309875949084"><ele>826.0</ele><time>2026-04-25T09:22:02Z</time></trkpt><trkpt lat="41.80828409767881" lon="1.671969359591236"><ele>827.25</ele><time>2026-04-25T09:22:03Z</time></trkpt><trkpt lat="41.80828139234108" lon="1.671796029082771"><ele>828.5</ele><time>2026-04-25T09:22:04Z</time></trkpt><trkpt lat="41.80827847419642" lon="1.6716200004596113"><ele>829.75</ele><time>2026-04-25T09:22:05Z</time></trkpt><trkpt lat="41.8082779858585" lon="1.6714395241300368"><ele>831.0</ele><time>2026-04-25T09:22:06Z</time></trkpt><trkpt lat="41.808286713095434" lon="1.6712561225166278"><ele>831.75</ele><time>2026-04-25T09:22:07Z</time></trkpt><trkpt lat="41.808302096578196" lon="1.671076317812262"><ele>832.5</ele><time>2026-04-25T09:22:08Z</time></trkpt><trkpt lat="41.80831906519158" lon="1.6709011425953784"><ele>833.25</ele><time>2026-04-25T09:22:09Z</time></trkpt><trkpt lat="41.80832892246887" lon="1.6707276180818704"><ele>834.0</ele><time>2026-04-25T09:22:10Z</time></trkpt><trkpt lat="41.80832698035632" lon="1.6705583776133257"><ele>834.0</ele><time>2026-04-25T09:22:11Z</time></trkpt><trkpt lat="41.80831770904321" lon="1.6703876042084618"><ele>834.0</ele><time>2026-04-25T09:22:12Z</time></trkpt><trkpt lat="41.808298455581856" lon="1.67019429152131"><ele>834.0</ele><time>2026-04-25T09:22:13Z</time></trkpt><trkpt lat="41.80827289333534" lon="1.6699971594929932"><ele>834.0</ele><time>2026-04-25T09:22:14Z</time></trkpt><trkpt lat="41.80824586510052" lon="1.6698111190107832"><ele>836.0</ele><time>2026-04-25T09:22:15Z</time></trkpt><trkpt lat="41.808207225037776" lon="1.6695247060798237"><ele>838.0</ele><time>2026-04-25T09:22:16Z</time></trkpt><trkpt lat="41.80814303580087" lon="1.669254597086829"><ele>840.0</ele><time>2026-04-25T09:22:17Z</time></trkpt><trkpt lat="41.808056332806785" lon="1.668979025605647"><ele>839.6666666666667</ele><time>2026-04-25T09:22:18Z</time></trkpt><trkpt lat="41.807971983167164" lon="1.6687314991586133"><ele>839.3333333333334</ele><time>2026-04-25T09:22:19Z</time></trkpt><trkpt lat="41.807898664005315" lon="1.6685149573628097"><ele>839.0</ele><time>2026-04-25T09:22:20Z</time></trkpt><trkpt lat="41.80783745198134" lon="1.6683054701521056"><ele>839.0</ele><time>2026-04-25T09:22:21Z</time></trkpt><trkpt lat="41.80780892025475" lon="1.6680831547336537"><ele>839.0</ele><time>2026-04-25T09:22:22Z</time></trkpt><trkpt lat="41.80777954341424" lon="1.6678708542140386"><ele>839.0</ele><time>2026-04-25T09:22:23Z</time></trkpt><trkpt lat="41.80775383190034" lon="1.667661116428405"><ele>836.75</ele><time>2026-04-25T09:22:24Z</time></trkpt><trkpt lat="41.8077288138811" lon="1.6674565836728947"><ele>834.5</ele><time>2026-04-25T09:22:25Z</time></trkpt><trkpt lat="41.807687537217824" lon="1.6672726626742151"><ele>832.25</ele><time>2026-04-25T09:22:26Z</time></trkpt><trkpt lat="41.80766010845854" lon="1.6670886872607547"><ele>830.0</ele><time>2026-04-25T09:22:27Z</time></trkpt><trkpt lat="41.807614571276375" lon="1.6668997159469108"><ele>834.75</ele><time>2026-04-25T09:22:28Z</time></trkpt><trkpt lat="41.807553342434844" lon="1.6667405936756603"><ele>839.5</ele><time>2026-04-25T09:22:29Z</time></trkpt><trkpt lat="41.80746044185455" lon="1.6665913632627969"><ele>844.25</ele><time>2026-04-25T09:22:30Z</time></trkpt><trkpt lat="41.80734183157814" lon="1.666441597334838"><ele>849.0</ele><time>2026-04-25T09:22:31Z</time></trkpt><trkpt lat="41.807225683186935" lon="1.666282522719072"><ele>847.0</ele><time>2026-04-25T09:22:32Z</time></trkpt><trkpt lat="41.807122386678095" lon="1.6660917503615753"><ele>845.0</ele><time>2026-04-25T09:22:33Z</time></trkpt><trkpt lat="41.80700857485041" lon="1.6659085541001553"><ele>843.0</ele><time>2026-04-25T09:22:34Z</time></trkpt><trkpt lat="41.80689498162722" lon="1.6657239459122966"><ele>847.0</ele><time>2026-04-25T09:22:35Z</time></trkpt><trkpt lat="41.80678739818872" lon="1.6655449775561273"><ele>851.0</ele><time>2026-04-25T09:22:36Z</time></trkpt><trkpt lat="41.806682216584804" lon="1.665368083817185"><ele>855.0</ele><time>2026-04-25T09:22:37Z</time></trkpt><trkpt lat="41.80658309811226" lon="1.6651916811345413"><ele>855.75</ele><time>2026-04-25T09:22:38Z</time></trkpt><trkpt lat="41.806489423521235" lon="1.6650138382540607"><ele>856.5</ele><time>2026-04-25T09:22:39Z</time></trkpt><trkpt lat="41.80641571932874" lon="1.6648463447867439"><ele>857.25</ele><time>2026-04-25T09:22:40Z</time></trkpt><trkpt lat="41.806376607810805" lon="1.6646901726228067"><ele>858.0</ele><time>2026-04-25T09:22:41Z</time></trkpt><trkpt lat="41.80636756887986" lon="1.6645267343923258"><ele>857.25</ele><time>2026-04-25T09:22:42Z</time></trkpt><trkpt lat="41.80636606008761" lon="1.6643405647157499"><ele>856.5</ele><time>2026-04-25T09:22:43Z</time></trkpt><trkpt lat="41.80635415982096" lon="1.664142181426077"><ele>855.75</ele><time>2026-04-25T09:22:44Z</time></trkpt><trkpt lat="41.806358696243" lon="1.6639381037757537"><ele>855.0</ele><time>2026-04-25T09:22:45Z</time></trkpt><trkpt lat="41.806359884551796" lon="1.6637366793254953"><ele>854.3333333333333</ele><time>2026-04-25T09:22:46Z</time></trkpt><trkpt lat="41.806358245257066" lon="1.6635309928428959"><ele>853.6666666666666</ele><time>2026-04-25T09:22:47Z</time></trkpt><trkpt lat="41.806382107513805" lon="1.663326791862485"><ele>853.0</ele><time>2026-04-25T09:22:48Z</time></trkpt><trkpt lat="41.80637166994618" lon="1.6631201900523622"><ele>853.0</ele><time>2026-04-25T09:22:49Z</time></trkpt><trkpt lat="41.806382489844886" lon="1.662910874841261"><ele>853.0</ele><time>2026-04-25T09:22:50Z</time></trkpt><trkpt lat="41.80641948470963" lon="1.6627051231458565"><ele>853.0</ele><time>2026-04-25T09:22:51Z</time></trkpt><trkpt lat="41.80646350988947" lon="1.6624984260712674"><ele>855.0</ele><time>2026-04-25T09:22:52Z</time></trkpt><trkpt lat="41.806500088640036" lon="1.6622769583424788"><ele>857.0</ele><time>2026-04-25T09:22:53Z</time></trkpt><trkpt lat="41.8065545236148" lon="1.6620572793027786"><ele>859.0</ele><time>2026-04-25T09:22:54Z</time></trkpt><trkpt lat="41.806592579909946" lon="1.6618309901485664"><ele>860.6666666666666</ele><time>2026-04-25T09:22:55Z</time></trkpt><trkpt lat="41.806607558776896" lon="1.6616132552691838"><ele>862.3333333333333</ele><time>2026-04-25T09:22:56Z</time></trkpt><trkpt lat="41.806599750782205" lon="1.6613953231933092"><ele>864.0</ele><time>2026-04-25T09:22:57Z</time></trkpt><trkpt lat="41.806566953658255" lon="1.6611811523842177"><ele>866.3333333333333</ele><time>2026-04-25T09:22:58Z</time></trkpt><trkpt lat="41.806512429393386" lon="1.6609660618813524"><ele>868.6666666666666</ele><time>2026-04-25T09:22:59Z</time></trkpt><trkpt lat="41.80644905620945" lon="1.6607603471517163"><ele>871.0</ele><time>2026-04-25T09:23:00Z</time></trkpt><trkpt lat="41.80640102664715" lon="1.660538186530777"><ele>871.0</ele><time>2026-04-25T09:23:01Z</time></trkpt><trkpt lat="41.8063260255767" lon="1.6603343583907748"><ele>871.0</ele><time>2026-04-25T09:23:02Z</time></trkpt><trkpt lat="41.80626104619178" lon="1.66014232689868"><ele>871.0</ele><time>2026-04-25T09:23:03Z</time></trkpt><trkpt lat="41.806179306170556" lon="1.6599608798237675"><ele>870.6666666666666</ele><time>2026-04-25T09:23:04Z</time></trkpt><trkpt lat="41.80610363675553" lon="1.6597680171281413"><ele>870.3333333333333</ele><time>2026-04-25T09:23:05Z</time></trkpt><trkpt lat="41.80599970430206" lon="1.6595889241884139"><ele>870.0</ele><time>2026-04-25T09:23:06Z</time></trkpt><trkpt lat="41.80588252428671" lon="1.6594113612881078"><ele>875.0</ele><time>2026-04-25T09:23:07Z</time></trkpt><trkpt lat="41.80579302052834" lon="1.6592053659815091"><ele>880.0</ele><time>2026-04-25T09:23:08Z</time></trkpt><trkpt lat="41.80569798514247" lon="1.6590129218801581"><ele>885.0</ele><time>2026-04-25T09:23:09Z</time></trkpt><trkpt lat="41.805610213308306" lon="1.6588480195799755"><ele>885.0</ele><time>2026-04-25T09:23:10Z</time></trkpt><trkpt lat="41.80551490673678" lon="1.658692329004989"><ele>885.0</ele><time>2026-04-25T09:23:11Z</time></trkpt><trkpt lat="41.80540202160369" lon="1.6585626982519064"><ele>885.0</ele><time>2026-04-25T09:23:12Z</time></trkpt><trkpt lat="41.8053081541961" lon="1.658416556920049"><ele>885.0</ele><time>2026-04-25T09:23:13Z</time></trkpt><trkpt lat="41.80519538263947" lon="1.6582830821859873"><ele>885.0</ele><time>2026-04-25T09:23:14Z</time></trkpt><trkpt lat="41.805067645568045" lon="1.6581446010159218"><ele>885.0</ele><time>2026-04-25T09:23:15Z</time></trkpt><trkpt lat="41.80494850770465" lon="1.6579732596444392"><ele>885.0</ele><time>2026-04-25T09:23:16Z</time></trkpt><trkpt lat="41.80482708714367" lon="1.6578162645622212"><ele>882.6666666666667</ele><time>2026-04-25T09:23:17Z</time></trkpt><trkpt lat="41.80470913940014" lon="1.6576616816197647"><ele>880.3333333333334</ele><time>2026-04-25T09:23:18Z</time></trkpt><trkpt lat="41.80458863486784" lon="1.6575058445665887"><ele>878.0</ele><time>2026-04-25T09:23:19Z</time></trkpt><trkpt lat="41.80446273364319" lon="1.6573575917433905"><ele>878.0</ele><time>2026-04-25T09:23:20Z</time></trkpt><trkpt lat="41.80433220865766" lon="1.6572140094325793"><ele>878.0</ele><time>2026-04-25T09:23:21Z</time></trkpt><trkpt lat="41.80419700280286" lon="1.6570703349301712"><ele>878.0</ele><time>2026-04-25T09:23:22Z</time></trkpt><trkpt lat="41.80405431051779" lon="1.6569220246235807"><ele>878.0</ele><time>2026-04-25T09:23:23Z</time></trkpt><trkpt lat="41.803907832961414" lon="1.6567749652725514"><ele>878.0</ele><time>2026-04-25T09:23:24Z</time></trkpt><trkpt lat="41.80375639495623" lon="1.6566520394879072"><ele>878.0</ele><time>2026-04-25T09:23:25Z</time></trkpt><trkpt lat="41.80361720579778" lon="1.6564964377455584"><ele>881.0</ele><time>2026-04-25T09:23:26Z</time></trkpt><trkpt lat="41.803482802225055" lon="1.6563369011545062"><ele>884.0</ele><time>2026-04-25T09:23:27Z</time></trkpt><trkpt lat="41.803355408054045" lon="1.6561696194998088"><ele>887.0</ele><time>2026-04-25T09:23:28Z</time></trkpt><trkpt lat="41.80326274844297" lon="1.6559825093109475"><ele>887.0</ele><time>2026-04-25T09:23:29Z</time></trkpt><trkpt lat="41.803190360568756" lon="1.6557942309258198"><ele>887.0</ele><time>2026-04-25T09:23:30Z</time></trkpt><trkpt lat="41.80312157290639" lon="1.6556015468984515"><ele>887.0</ele><time>2026-04-25T09:23:31Z</time></trkpt><trkpt lat="41.80305269160069" lon="1.6554083140529414"><ele>882.6666666666667</ele><time>2026-04-25T09:23:32Z</time></trkpt><trkpt lat="41.803003392963404" lon="1.6552057056960583"><ele>878.3333333333333</ele><time>2026-04-25T09:23:33Z</time></trkpt><trkpt lat="41.80292658532771" lon="1.6550129124862292"><ele>874.0</ele><time>2026-04-25T09:23:34Z</time></trkpt><trkpt lat="41.80282714047093" lon="1.65481859238971"><ele>874.0</ele><time>2026-04-25T09:23:35Z</time></trkpt><trkpt lat="41.802724684001305" lon="1.6546122561599874"><ele>874.0</ele><time>2026-04-25T09:23:36Z</time></trkpt><trkpt lat="41.80267122807743" lon="1.6543767382247214"><ele>874.0</ele><time>2026-04-25T09:23:37Z</time></trkpt><trkpt lat="41.80258925467526" lon="1.6541457008894414"><ele>879.0</ele><time>2026-04-25T09:23:38Z</time></trkpt><trkpt lat="41.8025286676043" lon="1.6538946686038898"><ele>884.0</ele><time>2026-04-25T09:23:39Z</time></trkpt><trkpt lat="41.80245357016856" lon="1.6536580840189545"><ele>889.0</ele><time>2026-04-25T09:23:40Z</time></trkpt><trkpt lat="41.802391848618946" lon="1.653413755389685"><ele>889.0</ele><time>2026-04-25T09:23:41Z</time></trkpt><trkpt lat="41.80234444227102" lon="1.6531932613518117"><ele>889.0</ele><time>2026-04-25T09:23:42Z</time></trkpt><trkpt lat="41.802307731981315" lon="1.6529819312866165"><ele>889.0</ele><time>2026-04-25T09:23:43Z</time></trkpt><trkpt lat="41.80231582848856" lon="1.6527558192644214"><ele>888.0</ele><time>2026-04-25T09:23:44Z</time></trkpt><trkpt lat="41.80231608209582" lon="1.6525076437605688"><ele>887.0</ele><time>2026-04-25T09:23:45Z</time></trkpt><trkpt lat="41.802314211860924" lon="1.652228657465323"><ele>886.0</ele><time>2026-04-25T09:23:46Z</time></trkpt><trkpt lat="41.8023065606695" lon="1.6520145810232356"><ele>886.0</ele><time>2026-04-25T09:23:47Z</time></trkpt><trkpt lat="41.802284574977854" lon="1.6517871651026579"><ele>886.0</ele><time>2026-04-25T09:23:48Z</time></trkpt><trkpt lat="41.80226157132397" lon="1.6515610131266114"><ele>886.0</ele><time>2026-04-25T09:23:49Z</time></trkpt><trkpt lat="41.802293028068235" lon="1.6513333894045723"><ele>886.6666666666666</ele><time>2026-04-25T09:23:50Z</time></trkpt><trkpt lat="41.8023024329642" lon="1.6510828670661237"><ele>887.3333333333333</ele><time>2026-04-25T09:23:51Z</time></trkpt><trkpt lat="41.80233114954601" lon="1.6508286643889523"><ele>888.0</ele><time>2026-04-25T09:23:52Z</time></trkpt><trkpt lat="41.80236783314798" lon="1.6506089678738947"><ele>888.0</ele><time>2026-04-25T09:23:53Z</time></trkpt><trkpt lat="41.80239945486861" lon="1.6503944157254469"><ele>888.0</ele><time>2026-04-25T09:23:54Z</time></trkpt><trkpt lat="41.802423729084225" lon="1.650209847080208"><ele>888.0</ele><time>2026-04-25T09:23:55Z</time></trkpt><trkpt lat="41.80239537919665" lon="1.6499273105648466"><ele>888.3333333333333</ele><time>2026-04-25T09:23:56Z</time></trkpt><trkpt lat="41.80235395677168" lon="1.6496977196841962"><ele>888.6666666666666</ele><time>2026-04-25T09:23:57Z</time></trkpt><trkpt lat="41.802285565098785" lon="1.649467685965243"><ele>889.0</ele><time>2026-04-25T09:23:58Z</time></trkpt><trkpt lat="41.802197160548744" lon="1.6492462519852131"><ele>889.6666666666666</ele><time>2026-04-25T09:23:59Z</time></trkpt><trkpt lat="41.80208791018313" lon="1.649063906580472"><ele>890.3333333333333</ele><time>2026-04-25T09:24:00Z</time></trkpt><trkpt lat="41.80195725749894" lon="1.6489294680763296"><ele>891.0</ele><time>2026-04-25T09:24:01Z</time></trkpt><trkpt lat="41.801816515842056" lon="1.6488181904109749"><ele>891.0</ele><time>2026-04-25T09:24:02Z</time></trkpt><trkpt lat="41.80167788472308" lon="1.6487282556687004"><ele>891.0</ele><time>2026-04-25T09:24:03Z</time></trkpt><trkpt lat="41.801548644681304" lon="1.6485974044557408"><ele>891.0</ele><time>2026-04-25T09:24:04Z</time></trkpt><trkpt lat="41.80143894698688" lon="1.6484641588852904"><ele>888.25</ele><time>2026-04-25T09:24:05Z</time></trkpt><trkpt lat="41.80133398329219" lon="1.6483311580214601"><ele>885.5</ele><time>2026-04-25T09:24:06Z</time></trkpt><trkpt lat="41.8012250135968" lon="1.6482107342472812"><ele>882.75</ele><time>2026-04-25T09:24:07Z</time></trkpt><trkpt lat="41.80112694041272" lon="1.6480749686923475"><ele>880.0</ele><time>2026-04-25T09:24:08Z</time></trkpt><trkpt lat="41.80101963591221" lon="1.6479493176255227"><ele>877.0</ele><time>2026-04-25T09:24:09Z</time></trkpt><trkpt lat="41.80089446593086" lon="1.6478452961818413"><ele>874.0</ele><time>2026-04-25T09:24:10Z</time></trkpt><trkpt lat="41.80076587156488" lon="1.647741147634658"><ele>871.0</ele><time>2026-04-25T09:24:11Z</time></trkpt><trkpt lat="41.80063968916934" lon="1.6476457928929609"><ele>868.0</ele><time>2026-04-25T09:24:12Z</time></trkpt><trkpt lat="41.80052459916279" lon="1.6475462713976663"><ele>868.0</ele><time>2026-04-25T09:24:13Z</time></trkpt><trkpt lat="41.800444094781646" lon="1.6474213329486143"><ele>868.0</ele><time>2026-04-25T09:24:14Z</time></trkpt><trkpt lat="41.800385950923" lon="1.6472447774042192"><ele>868.0</ele><time>2026-04-25T09:24:15Z</time></trkpt><trkpt lat="41.80032119566683" lon="1.647037740515238"><ele>868.0</ele><time>2026-04-25T09:24:16Z</time></trkpt><trkpt lat="41.800234059724694" lon="1.646837866707919"><ele>873.6666666666666</ele><time>2026-04-25T09:24:17Z</time></trkpt><trkpt lat="41.80015406543807" lon="1.6466296603058037"><ele>879.3333333333333</ele><time>2026-04-25T09:24:18Z</time></trkpt><trkpt lat="41.80007040050691" lon="1.6464379461308587"><ele>885.0</ele><time>2026-04-25T09:24:19Z</time></trkpt><trkpt lat="41.800024911566666" lon="1.6462298372426907"><ele>878.6666666666667</ele><time>2026-04-25T09:24:20Z</time></trkpt><trkpt lat="41.79996888349963" lon="1.6460033600553323"><ele>872.3333333333334</ele><time>2026-04-25T09:24:21Z</time></trkpt><trkpt lat="41.79990381703682" lon="1.6457750454021025"><ele>866.0</ele><time>2026-04-25T09:24:22Z</time></trkpt><trkpt lat="41.799860584820756" lon="1.645536122486199"><ele>860.6666666666667</ele><time>2026-04-25T09:24:23Z</time></trkpt><trkpt lat="41.79981437287017" lon="1.6452920022804938"><ele>855.3333333333333</ele><time>2026-04-25T09:24:24Z</time></trkpt><trkpt lat="41.79977479575465" lon="1.645048050504134"><ele>850.0</ele><time>2026-04-25T09:24:25Z</time></trkpt><trkpt lat="41.79973602786309" lon="1.6447977701679575"><ele>850.0</ele><time>2026-04-25T09:24:26Z</time></trkpt><trkpt lat="41.799692155838876" lon="1.6445453888417296"><ele>850.0</ele><time>2026-04-25T09:24:27Z</time></trkpt><trkpt lat="41.79965355138885" lon="1.6443030966389656"><ele>850.0</ele><time>2026-04-25T09:24:28Z</time></trkpt><trkpt lat="41.79962122855935" lon="1.644079066135928"><ele>849.3333333333333</ele><time>2026-04-25T09:24:29Z</time></trkpt><trkpt lat="41.79960031264212" lon="1.6438434877862231"><ele>848.6666666666667</ele><time>2026-04-25T09:24:30Z</time></trkpt><trkpt lat="41.79963681520626" lon="1.6435921536692604"><ele>848.0</ele><time>2026-04-25T09:24:31Z</time></trkpt><trkpt lat="41.799635173838695" lon="1.6433237560371212"><ele>848.0</ele><time>2026-04-25T09:24:32Z</time></trkpt><trkpt lat="41.79964396391923" lon="1.64305016203514"><ele>848.0</ele><time>2026-04-25T09:24:33Z</time></trkpt><trkpt lat="41.79964500078343" lon="1.6428143504513024"><ele>848.0</ele><time>2026-04-25T09:24:34Z</time></trkpt><trkpt lat="41.79965958031046" lon="1.6425925685856326"><ele>851.0</ele><time>2026-04-25T09:24:35Z</time></trkpt><trkpt lat="41.799699703323746" lon="1.6423779240658203"><ele>854.0</ele><time>2026-04-25T09:24:36Z</time></trkpt><trkpt lat="41.799774476341014" lon="1.642167696112692"><ele>857.0</ele><time>2026-04-25T09:24:37Z</time></trkpt><trkpt lat="41.79985420875485" lon="1.641950152671434"><ele>859.6666666666667</ele><time>2026-04-25T09:24:38Z</time></trkpt><trkpt lat="41.7999155348843" lon="1.6417380342171577"><ele>862.3333333333333</ele><time>2026-04-25T09:24:39Z</time></trkpt><trkpt lat="41.79996050692219" lon="1.6415548541500518"><ele>865.0</ele><time>2026-04-25T09:24:40Z</time></trkpt><trkpt lat="41.80000736090981" lon="1.6413735319166234"><ele>865.0</ele><time>2026-04-25T09:24:41Z</time></trkpt><trkpt lat="41.80006724045916" lon="1.6411715880711357"><ele>865.0</ele><time>2026-04-25T09:24:42Z</time></trkpt><trkpt lat="41.80010875453202" lon="1.6409756319011597"><ele>865.0</ele><time>2026-04-25T09:24:43Z</time></trkpt><trkpt lat="41.80009630664645" lon="1.6407910154025176"><ele>865.0</ele><time>2026-04-25T09:24:44Z</time></trkpt><trkpt lat="41.800033535754" lon="1.6406242439956908"><ele>865.0</ele><time>2026-04-25T09:24:45Z</time></trkpt><trkpt lat="41.799957775873835" lon="1.6404377963674874"><ele>865.0</ele><time>2026-04-25T09:24:46Z</time></trkpt><trkpt lat="41.79990708474743" lon="1.6402201969567207"><ele>864.5</ele><time>2026-04-25T09:24:47Z</time></trkpt><trkpt lat="41.79987852184315" lon="1.6400154473409336"><ele>864.0</ele><time>2026-04-25T09:24:48Z</time></trkpt><trkpt lat="41.79986239729687" lon="1.639837828926246"><ele>863.5</ele><time>2026-04-25T09:24:49Z</time></trkpt><trkpt lat="41.799833502947166" lon="1.6396779228054832"><ele>863.0</ele><time>2026-04-25T09:24:50Z</time></trkpt><trkpt lat="41.799772752363815" lon="1.6395019272637519"><ele>859.6666666666667</ele><time>2026-04-25T09:24:51Z</time></trkpt><trkpt lat="41.79968423509671" lon="1.6393065281743056"><ele>856.3333333333333</ele><time>2026-04-25T09:24:52Z</time></trkpt><trkpt lat="41.7995718927148" lon="1.6390865650618758"><ele>853.0</ele><time>2026-04-25T09:24:53Z</time></trkpt><trkpt lat="41.79948496765333" lon="1.6388520271328006"><ele>848.6666666666666</ele><time>2026-04-25T09:24:54Z</time></trkpt><trkpt lat="41.799376805241856" lon="1.6386294818959666"><ele>844.3333333333333</ele><time>2026-04-25T09:24:55Z</time></trkpt><trkpt lat="41.79928653777956" lon="1.6384087698105696"><ele>840.0</ele><time>2026-04-25T09:24:56Z</time></trkpt><trkpt lat="41.79919700796059" lon="1.6381876362646672"><ele>849.3333333333333</ele><time>2026-04-25T09:24:57Z</time></trkpt><trkpt lat="41.7991081111136" lon="1.6379696052206532"><ele>858.6666666666666</ele><time>2026-04-25T09:24:58Z</time></trkpt><trkpt lat="41.79901895618521" lon="1.6377644680338685"><ele>868.0</ele><time>2026-04-25T09:24:59Z</time></trkpt><trkpt lat="41.79893056990416" lon="1.6375669777629749"><ele>868.0</ele><time>2026-04-25T09:25:00Z</time></trkpt><trkpt lat="41.79883655608404" lon="1.637376477574427"><ele>868.0</ele><time>2026-04-25T09:25:01Z</time></trkpt><trkpt lat="41.798741204566106" lon="1.6371876445976068"><ele>868.0</ele><time>2026-04-25T09:25:02Z</time></trkpt><trkpt lat="41.79864293204818" lon="1.6369973840719134"><ele>872.0</ele><time>2026-04-25T09:25:03Z</time></trkpt><trkpt lat="41.798547363143136" lon="1.6368012722582"><ele>876.0</ele><time>2026-04-25T09:25:04Z</time></trkpt><trkpt lat="41.798460933909695" lon="1.6366026410244974"><ele>880.0</ele><time>2026-04-25T09:25:05Z</time></trkpt><trkpt lat="41.79840516576923" lon="1.6364418671114644"><ele>880.0</ele><time>2026-04-25T09:25:06Z</time></trkpt><trkpt lat="41.798371865374854" lon="1.636314384863034"><ele>880.0</ele><time>2026-04-25T09:25:07Z</time></trkpt><trkpt lat="41.7983041409941" lon="1.6359467185562857"><ele>880.0</ele><time>2026-04-25T09:25:08Z</time></trkpt><trkpt lat="41.798286471932066" lon="1.6357029401666203"><ele>877.3333333333333</ele><time>2026-04-25T09:25:09Z</time></trkpt><trkpt lat="41.79828691891683" lon="1.6354530232002664"><ele>874.6666666666667</ele><time>2026-04-25T09:25:10Z</time></trkpt><trkpt lat="41.79829697375681" lon="1.6352202459575556"><ele>872.0</ele><time>2026-04-25T09:25:11Z</time></trkpt><trkpt lat="41.798329281316256" lon="1.6350104580887224"><ele>871.5</ele><time>2026-04-25T09:25:12Z</time></trkpt><trkpt lat="41.79839292133535" lon="1.6348575892277857"><ele>871.0</ele><time>2026-04-25T09:25:13Z</time></trkpt><trkpt lat="41.79845786261835" lon="1.6347289891513184"><ele>870.5</ele><time>2026-04-25T09:25:14Z</time></trkpt><trkpt lat="41.79856039093314" lon="1.6346466349379085"><ele>870.0</ele><time>2026-04-25T09:25:15Z</time></trkpt><trkpt lat="41.79867685227027" lon="1.634502070277065"><ele>866.6666666666667</ele><time>2026-04-25T09:25:16Z</time></trkpt><trkpt lat="41.798779075332824" lon="1.6343115464810445"><ele>863.3333333333334</ele><time>2026-04-25T09:25:17Z</time></trkpt><trkpt lat="41.79887332787363" lon="1.634114015635844"><ele>860.0</ele><time>2026-04-25T09:25:18Z</time></trkpt><trkpt lat="41.7989642100044" lon="1.6339279590720064"><ele>860.0</ele><time>2026-04-25T09:25:19Z</time></trkpt><trkpt lat="41.79907983744553" lon="1.6338078532740952"><ele>860.0</ele><time>2026-04-25T09:25:20Z</time></trkpt><trkpt lat="41.799184540234194" lon="1.6337145939318765"><ele>860.0</ele><time>2026-04-25T09:25:21Z</time></trkpt><trkpt lat="41.79927268381189" lon="1.6336102503001315"><ele>860.0</ele><time>2026-04-25T09:25:22Z</time></trkpt><trkpt lat="41.79935067928327" lon="1.6335019987405488"><ele>862.0</ele><time>2026-04-25T09:25:23Z</time></trkpt><trkpt lat="41.79938851894112" lon="1.6333689875288544"><ele>864.0</ele><time>2026-04-25T09:25:24Z</time></trkpt><trkpt lat="41.79937080493843" lon="1.633208933186989"><ele>866.0</ele><time>2026-04-25T09:25:25Z</time></trkpt><trkpt lat="41.79931587427215" lon="1.6330432864867128"><ele>868.0</ele><time>2026-04-25T09:25:26Z</time></trkpt><trkpt lat="41.7992380955138" lon="1.6328690987218974"><ele>869.0</ele><time>2026-04-25T09:25:27Z</time></trkpt><trkpt lat="41.79914747955851" lon="1.6326889676544045"><ele>870.0</ele><time>2026-04-25T09:25:28Z</time></trkpt><trkpt lat="41.799058295901816" lon="1.6324982256552385"><ele>871.0</ele><time>2026-04-25T09:25:29Z</time></trkpt><trkpt lat="41.798987748286" lon="1.6323290296821995"><ele>871.0</ele><time>2026-04-25T09:25:30Z</time></trkpt><trkpt lat="41.798954796114614" lon="1.6321895060850273"><ele>871.0</ele><time>2026-04-25T09:25:31Z</time></trkpt><trkpt lat="41.79895476432712" lon="1.632034439766885"><ele>871.0</ele><time>2026-04-25T09:25:32Z</time></trkpt><trkpt lat="41.79898643391971" lon="1.6318602038804406"><ele>871.0</ele><time>2026-04-25T09:25:33Z</time></trkpt><trkpt lat="41.79904562317021" lon="1.6316856359692926"><ele>871.0</ele><time>2026-04-25T09:25:34Z</time></trkpt><trkpt lat="41.79907966280788" lon="1.6315237132219027"><ele>871.0</ele><time>2026-04-25T09:25:35Z</time></trkpt><trkpt lat="41.79906073794412" lon="1.631366901178956"><ele>871.0</ele><time>2026-04-25T09:25:36Z</time></trkpt><trkpt lat="41.7989933954124" lon="1.6312019637775652"><ele>871.0</ele><time>2026-04-25T09:25:37Z</time></trkpt><trkpt lat="41.798896356824606" lon="1.6310454545727044"><ele>872.25</ele><time>2026-04-25T09:25:38Z</time></trkpt><trkpt lat="41.79878988587173" lon="1.6309178759788867"><ele>873.5</ele><time>2026-04-25T09:25:39Z</time></trkpt><trkpt lat="41.7986958096056" lon="1.6308174898356576"><ele>874.75</ele><time>2026-04-25T09:25:40Z</time></trkpt><trkpt lat="41.79863506683704" lon="1.6307105144634182"><ele>876.0</ele><time>2026-04-25T09:25:41Z</time></trkpt><trkpt lat="41.79861271770359" lon="1.6305805624714873"><ele>876.0</ele><time>2026-04-25T09:25:42Z</time></trkpt><trkpt lat="41.79863170107003" lon="1.6304511409522813"><ele>876.0</ele><time>2026-04-25T09:25:43Z</time></trkpt><trkpt lat="41.79866409119906" lon="1.6303087213092065"><ele>876.0</ele><time>2026-04-25T09:25:44Z</time></trkpt><trkpt lat="41.798675901296235" lon="1.6301302554577886"><ele>876.0</ele><time>2026-04-25T09:25:45Z</time></trkpt><trkpt lat="41.7986666851392" lon="1.6299396646556161"><ele>875.75</ele><time>2026-04-25T09:25:46Z</time></trkpt><trkpt lat="41.798642340856645" lon="1.629756309309579"><ele>875.5</ele><time>2026-04-25T09:25:47Z</time></trkpt><trkpt lat="41.798601727947755" lon="1.6296184518164822"><ele>875.25</ele><time>2026-04-25T09:25:48Z</time></trkpt><trkpt lat="41.79853088204847" lon="1.6295144364341143"><ele>875.0</ele><time>2026-04-25T09:25:49Z</time></trkpt><trkpt lat="41.79842734565132" lon="1.6294404686218287"><ele>875.0</ele><time>2026-04-25T09:25:50Z</time></trkpt><trkpt lat="41.798298048170416" lon="1.6293861904975608"><ele>875.0</ele><time>2026-04-25T09:25:51Z</time></trkpt><trkpt lat="41.79817355278355" lon="1.6293609165981762"><ele>875.0</ele><time>2026-04-25T09:25:52Z</time></trkpt><trkpt lat="41.79805737511805" lon="1.629368386882202"><ele>875.0</ele><time>2026-04-25T09:25:53Z</time></trkpt><trkpt lat="41.79794098010275" lon="1.6294713565551353"><ele>875.0</ele><time>2026-04-25T09:25:54Z</time></trkpt><trkpt lat="41.79783006762094" lon="1.629472092579081"><ele>875.0</ele><time>2026-04-25T09:25:55Z</time></trkpt><trkpt lat="41.797721545403824" lon="1.629454835747168"><ele>875.0</ele><time>2026-04-25T09:25:56Z</time></trkpt><trkpt lat="41.797586952792436" lon="1.629435851211945"><ele>875.0</ele><time>2026-04-25T09:25:57Z</time></trkpt><trkpt lat="41.79747115504412" lon="1.62937364196082"><ele>874.5</ele><time>2026-04-25T09:25:58Z</time></trkpt><trkpt lat="41.79734595971649" lon="1.6292785367838656"><ele>874.0</ele><time>2026-04-25T09:25:59Z</time></trkpt><trkpt lat="41.79722351343326" lon="1.6291905449270543"><ele>873.5</ele><time>2026-04-25T09:26:00Z</time></trkpt><trkpt lat="41.79712863130528" lon="1.6291091544605056"><ele>873.0</ele><time>2026-04-25T09:26:01Z</time></trkpt><trkpt lat="41.79705991741985" lon="1.6291003239377564"><ele>873.0</ele><time>2026-04-25T09:26:02Z</time></trkpt><trkpt lat="41.797107266144586" lon="1.6288495087543686"><ele>873.0</ele><time>2026-04-25T09:26:03Z</time></trkpt><trkpt lat="41.797113231801596" lon="1.6287443958498307"><ele>873.0</ele><time>2026-04-25T09:26:04Z</time></trkpt><trkpt lat="41.79714311330872" lon="1.6286398432450095"><ele>873.0</ele><time>2026-04-25T09:26:05Z</time></trkpt><trkpt lat="41.79721303076607" lon="1.6285339323730335"><ele>873.75</ele><time>2026-04-25T09:26:06Z</time></trkpt><trkpt lat="41.79730339160063" lon="1.628433133089961"><ele>874.5</ele><time>2026-04-25T09:26:07Z</time></trkpt><trkpt lat="41.7973678708514" lon="1.6283233142120372"><ele>875.25</ele><time>2026-04-25T09:26:08Z</time></trkpt><trkpt lat="41.79739245485593" lon="1.6281668255391517"><ele>876.0</ele><time>2026-04-25T09:26:09Z</time></trkpt><trkpt lat="41.7973753201144" lon="1.6279785113869842"><ele>876.75</ele><time>2026-04-25T09:26:10Z</time></trkpt><trkpt lat="41.797325800455305" lon="1.6277908151966671"><ele>877.5</ele><time>2026-04-25T09:26:11Z</time></trkpt><trkpt lat="41.79724251893739" lon="1.6276219042444455"><ele>878.25</ele><time>2026-04-25T09:26:12Z</time></trkpt><trkpt lat="41.797142594262446" lon="1.6275051534806109"><ele>879.0</ele><time>2026-04-25T09:26:13Z</time></trkpt><trkpt lat="41.79706541304193" lon="1.6273804633827462"><ele>879.0</ele><time>2026-04-25T09:26:14Z</time></trkpt><trkpt lat="41.79702169198149" lon="1.627255523416504"><ele>879.0</ele><time>2026-04-25T09:26:15Z</time></trkpt><trkpt lat="41.7969982157605" lon="1.6270975044656497"><ele>879.0</ele><time>2026-04-25T09:26:16Z</time></trkpt><trkpt lat="41.796972149006834" lon="1.626908504329895"><ele>879.0</ele><time>2026-04-25T09:26:17Z</time></trkpt><trkpt lat="41.79694355205099" lon="1.626725055587582"><ele>881.0</ele><time>2026-04-25T09:26:18Z</time></trkpt><trkpt lat="41.79686228731868" lon="1.6265589336839033"><ele>883.0</ele><time>2026-04-25T09:26:19Z</time></trkpt><trkpt lat="41.79674882573146" lon="1.6263940832254902"><ele>885.0</ele><time>2026-04-25T09:26:20Z</time></trkpt><trkpt lat="41.79666097449909" lon="1.626203508507685"><ele>881.6666666666667</ele><time>2026-04-25T09:26:21Z</time></trkpt><trkpt lat="41.79658205506591" lon="1.6260053806083696"><ele>878.3333333333334</ele><time>2026-04-25T09:26:22Z</time></trkpt><trkpt lat="41.79648048739944" lon="1.6258609348901143"><ele>875.0</ele><time>2026-04-25T09:26:23Z</time></trkpt><trkpt lat="41.796369631401724" lon="1.6257433180196337"><ele>875.0</ele><time>2026-04-25T09:26:24Z</time></trkpt><trkpt lat="41.7962452189133" lon="1.6256464454675545"><ele>875.0</ele><time>2026-04-25T09:26:25Z</time></trkpt><trkpt lat="41.79613029546253" lon="1.625521661663192"><ele>875.0</ele><time>2026-04-25T09:26:26Z</time></trkpt><trkpt lat="41.79600945871055" lon="1.6254081870305592"><ele>875.0</ele><time>2026-04-25T09:26:27Z</time></trkpt><trkpt lat="41.79589717840507" lon="1.6252993050349869"><ele>875.8</ele><time>2026-04-25T09:26:28Z</time></trkpt><trkpt lat="41.79580962639872" lon="1.6252098180934424"><ele>876.6</ele><time>2026-04-25T09:26:29Z</time></trkpt><trkpt lat="41.79573744496197" lon="1.625134069030851"><ele>877.4000000000001</ele><time>2026-04-25T09:26:30Z</time></trkpt><trkpt lat="41.79569974556541" lon="1.6250291747582588"><ele>878.2</ele><time>2026-04-25T09:26:31Z</time></trkpt><trkpt lat="41.79570296093264" lon="1.6249141128752473"><ele>879.0</ele><time>2026-04-25T09:26:32Z</time></trkpt><trkpt lat="41.79574431878636" lon="1.6248097757477316"><ele>879.0</ele><time>2026-04-25T09:26:33Z</time></trkpt><trkpt lat="41.79581050261407" lon="1.6247047935523824"><ele>879.0</ele><time>2026-04-25T09:26:34Z</time></trkpt><trkpt lat="41.79590432687758" lon="1.6246148306092436"><ele>879.0</ele><time>2026-04-25T09:26:35Z</time></trkpt><trkpt lat="41.795998483210354" lon="1.6245230188774382"><ele>879.0</ele><time>2026-04-25T09:26:36Z</time></trkpt><trkpt lat="41.79607757697063" lon="1.6243947646042725"><ele>882.75</ele><time>2026-04-25T09:26:37Z</time></trkpt><trkpt lat="41.79613189970615" lon="1.6242419997135373"><ele>886.5</ele><time>2026-04-25T09:26:38Z</time></trkpt><trkpt lat="41.79614430531692" lon="1.6240929698943034"><ele>890.25</ele><time>2026-04-25T09:26:39Z</time></trkpt><trkpt lat="41.796113986068576" lon="1.6239440914984502"><ele>894.0</ele><time>2026-04-25T09:26:40Z</time></trkpt><trkpt lat="41.796052822240554" lon="1.6237891154587978"><ele>889.75</ele><time>2026-04-25T09:26:41Z</time></trkpt><trkpt lat="41.79599447971534" lon="1.6236178849733123"><ele>885.5</ele><time>2026-04-25T09:26:42Z</time></trkpt><trkpt lat="41.795971658522866" lon="1.6234231011377123"><ele>881.25</ele><time>2026-04-25T09:26:43Z</time></trkpt><trkpt lat="41.79595422648829" lon="1.6232284174428884"><ele>877.0</ele><time>2026-04-25T09:26:44Z</time></trkpt><trkpt lat="41.79594205849071" lon="1.6230370421028277"><ele>877.0</ele><time>2026-04-25T09:26:45Z</time></trkpt><trkpt lat="41.79599229115554" lon="1.6228748823917518"><ele>877.0</ele><time>2026-04-25T09:26:46Z</time></trkpt><trkpt lat="41.796052868438196" lon="1.6227059175509524"><ele>877.0</ele><time>2026-04-25T09:26:47Z</time></trkpt><trkpt lat="41.79611740054262" lon="1.622518856567713"><ele>877.0</ele><time>2026-04-25T09:26:48Z</time></trkpt><trkpt lat="41.79620277151019" lon="1.6223522769840926"><ele>880.25</ele><time>2026-04-25T09:26:49Z</time></trkpt><trkpt lat="41.79627956296007" lon="1.6221969071305926"><ele>883.5</ele><time>2026-04-25T09:26:50Z</time></trkpt><trkpt lat="41.79635258863928" lon="1.622055976667904"><ele>886.75</ele><time>2026-04-25T09:26:51Z</time></trkpt><trkpt lat="41.7964171698606" lon="1.621920838945974"><ele>890.0</ele><time>2026-04-25T09:26:52Z</time></trkpt><trkpt lat="41.79645989645183" lon="1.6218115875400105"><ele>890.0000000000001</ele><time>2026-04-25T09:26:53Z</time></trkpt><trkpt lat="41.79649439478253" lon="1.621717925626456"><ele>890.0</ele><time>2026-04-25T09:26:54Z</time></trkpt><trkpt lat="41.79651467929595" lon="1.6216360518438075"><ele>890.0</ele><time>2026-04-25T09:26:55Z</time></trkpt><trkpt lat="41.79655003994523" lon="1.6215169792303947"><ele>890.0</ele><time>2026-04-25T09:26:57Z</time></trkpt><trkpt lat="41.7966172480853" lon="1.6214724561549725"><ele>890.0000000000001</ele><time>2026-04-25T09:27:15Z</time></trkpt><trkpt lat="41.79664894649944" lon="1.6213662061560952"><ele>890.0</ele><time>2026-04-25T09:27:17Z</time></trkpt><trkpt lat="41.7966460311242" lon="1.6212766110441894"><ele>890.0</ele><time>2026-04-25T09:27:18Z</time></trkpt><trkpt lat="41.79662967817475" lon="1.6211673705410459"><ele>890.0</ele><time>2026-04-25T09:27:19Z</time></trkpt><trkpt lat="41.796614354718066" lon="1.6210522527063487"><ele>890.0</ele><time>2026-04-25T09:27:20Z</time></trkpt><trkpt lat="41.796606506848896" lon="1.620930594232107"><ele>890.0</ele><time>2026-04-25T09:27:21Z</time></trkpt><trkpt lat="41.796611100406466" lon="1.620799714304412"><ele>890.0</ele><time>2026-04-25T09:27:22Z</time></trkpt><trkpt lat="41.79662035655955" lon="1.620660559274274"><ele>888.75</ele><time>2026-04-25T09:27:23Z</time></trkpt><trkpt lat="41.79662909962244" lon="1.6205141917865502"><ele>887.5</ele><time>2026-04-25T09:27:24Z</time></trkpt><trkpt lat="41.7966331615767" lon="1.6203612017198596"><ele>886.25</ele><time>2026-04-25T09:27:25Z</time></trkpt><trkpt lat="41.79664073109263" lon="1.620199602660174"><ele>885.0</ele><time>2026-04-25T09:27:26Z</time></trkpt><trkpt lat="41.79665551633985" lon="1.6200341095478628"><ele>885.2</ele><time>2026-04-25T09:27:27Z</time></trkpt><trkpt lat="41.79667748158035" lon="1.6198738615767077"><ele>885.4</ele><time>2026-04-25T09:27:28Z</time></trkpt><trkpt lat="41.79672937753206" lon="1.6197347098638366"><ele>885.5999999999999</ele><time>2026-04-25T09:27:29Z</time></trkpt><trkpt lat="41.796742039240236" lon="1.6195933393060638"><ele>885.8</ele><time>2026-04-25T09:27:30Z</time></trkpt><trkpt lat="41.79676828259567" lon="1.6194692994559128"><ele>886.0</ele><time>2026-04-25T09:27:31Z</time></trkpt><trkpt lat="41.79681630423109" lon="1.6193780049195219"><ele>882.4</ele><time>2026-04-25T09:27:32Z</time></trkpt><trkpt lat="41.7969158642076" lon="1.6193463485151196"><ele>878.8</ele><time>2026-04-25T09:27:33Z</time></trkpt><trkpt lat="41.79702380849381" lon="1.6192806546279601"><ele>875.1999999999999</ele><time>2026-04-25T09:27:34Z</time></trkpt><trkpt lat="41.7971197358184" lon="1.6192293141297922"><ele>871.5999999999999</ele><time>2026-04-25T09:27:35Z</time></trkpt><trkpt lat="41.797192662346404" lon="1.6191415090805201"><ele>868.0</ele><time>2026-04-25T09:27:36Z</time></trkpt><trkpt lat="41.79725567660556" lon="1.6190010779625372"><ele>868.0</ele><time>2026-04-25T09:27:37Z</time></trkpt><trkpt lat="41.797306806231674" lon="1.6188288006572804"><ele>868.0</ele><time>2026-04-25T09:27:38Z</time></trkpt><trkpt lat="41.797347814192946" lon="1.6186329560381194"><ele>868.0</ele><time>2026-04-25T09:27:39Z</time></trkpt><trkpt lat="41.797387943959784" lon="1.6184352463593012"><ele>868.0</ele><time>2026-04-25T09:27:40Z</time></trkpt><trkpt lat="41.797436667768025" lon="1.6182499880121577"><ele>868.3333333333333</ele><time>2026-04-25T09:27:41Z</time></trkpt><trkpt lat="41.797505068960675" lon="1.6180628459889337"><ele>868.6666666666667</ele><time>2026-04-25T09:27:42Z</time></trkpt><trkpt lat="41.79758240771068" lon="1.6178822878989099"><ele>869.0</ele><time>2026-04-25T09:27:43Z</time></trkpt><trkpt lat="41.79767460477964" lon="1.6177071299694337"><ele>865.25</ele><time>2026-04-25T09:27:44Z</time></trkpt><trkpt lat="41.7977638802958" lon="1.6175438968431008"><ele>861.5</ele><time>2026-04-25T09:27:45Z</time></trkpt><trkpt lat="41.79784613046389" lon="1.6173903168789534"><ele>857.75</ele><time>2026-04-25T09:27:46Z</time></trkpt><trkpt lat="41.797920765807355" lon="1.617227584727861"><ele>854.0</ele><time>2026-04-25T09:27:47Z</time></trkpt><trkpt lat="41.797986690380604" lon="1.617064969535584"><ele>852.8000000000001</ele><time>2026-04-25T09:27:48Z</time></trkpt><trkpt lat="41.79804390224455" lon="1.6169089403594021"><ele>851.6000000000001</ele><time>2026-04-25T09:27:49Z</time></trkpt><trkpt lat="41.79808411833135" lon="1.6167875249997157"><ele>850.4</ele><time>2026-04-25T09:27:50Z</time></trkpt><trkpt lat="41.79810111425621" lon="1.6166813193217948"><ele>849.2</ele><time>2026-04-25T09:27:51Z</time></trkpt><trkpt lat="41.79807782068872" lon="1.616578363483263"><ele>848.0</ele><time>2026-04-25T09:27:52Z</time></trkpt><trkpt lat="41.798005603971255" lon="1.6164894640970835"><ele>848.0</ele><time>2026-04-25T09:27:53Z</time></trkpt><trkpt lat="41.7979008120571" lon="1.616435199788422"><ele>848.0</ele><time>2026-04-25T09:27:54Z</time></trkpt><trkpt lat="41.797787378859354" lon="1.6164067172318177"><ele>848.0</ele><time>2026-04-25T09:27:55Z</time></trkpt><trkpt lat="41.79767501274174" lon="1.616334952602024"><ele>848.0</ele><time>2026-04-25T09:27:56Z</time></trkpt><trkpt lat="41.79757109594973" lon="1.6162798135203675"><ele>848.5999999999999</ele><time>2026-04-25T09:27:57Z</time></trkpt><trkpt lat="41.797493423905756" lon="1.616192138762414"><ele>849.1999999999999</ele><time>2026-04-25T09:27:58Z</time></trkpt><trkpt lat="41.79743064329321" lon="1.6160617262242996"><ele>849.8</ele><time>2026-04-25T09:27:59Z</time></trkpt><trkpt lat="41.79738596993701" lon="1.6159240488783433"><ele>850.4</ele><time>2026-04-25T09:28:00Z</time></trkpt><trkpt lat="41.79737385702918" lon="1.615802647133791"><ele>851.0</ele><time>2026-04-25T09:28:01Z</time></trkpt><trkpt lat="41.79738200172431" lon="1.6156898846026602"><ele>850.4</ele><time>2026-04-25T09:28:02Z</time></trkpt><trkpt lat="41.79740137312025" lon="1.6155662352045377"><ele>849.8</ele><time>2026-04-25T09:28:03Z</time></trkpt><trkpt lat="41.79745300626593" lon="1.615432849589438"><ele>849.1999999999999</ele><time>2026-04-25T09:28:04Z</time></trkpt><trkpt lat="41.7975156124583" lon="1.6153039273977068"><ele>848.5999999999999</ele><time>2026-04-25T09:28:05Z</time></trkpt><trkpt lat="41.79758322886701" lon="1.615182265049878"><ele>848.0</ele><time>2026-04-25T09:28:06Z</time></trkpt><trkpt lat="41.79765578865533" lon="1.6150626955594902"><ele>842.5</ele><time>2026-04-25T09:28:07Z</time></trkpt><trkpt lat="41.79774280121784" lon="1.6149408286789235"><ele>837.0</ele><time>2026-04-25T09:28:08Z</time></trkpt><trkpt lat="41.79783786663586" lon="1.6148208374498152"><ele>831.5</ele><time>2026-04-25T09:28:09Z</time></trkpt><trkpt lat="41.797937323351604" lon="1.61469421836059"><ele>826.0</ele><time>2026-04-25T09:28:10Z</time></trkpt><trkpt lat="41.79803145136189" lon="1.6145516600519196"><ele>827.25</ele><time>2026-04-25T09:28:11Z</time></trkpt><trkpt lat="41.798124894982315" lon="1.6144048810427514"><ele>828.5</ele><time>2026-04-25T09:28:12Z</time></trkpt><trkpt lat="41.79822099636418" lon="1.6142749804310577"><ele>829.75</ele><time>2026-04-25T09:28:13Z</time></trkpt><trkpt lat="41.79833960430659" lon="1.614153018820144"><ele>831.0</ele><time>2026-04-25T09:28:14Z</time></trkpt><trkpt lat="41.79846615467652" lon="1.614030428112087"><ele>828.3333333333333</ele><time>2026-04-25T09:28:15Z</time></trkpt><trkpt lat="41.79858517015889" lon="1.6138897934481464"><ele>825.6666666666666</ele><time>2026-04-25T09:28:16Z</time></trkpt><trkpt lat="41.798690359579886" lon="1.6137414129308405"><ele>823.0</ele><time>2026-04-25T09:28:17Z</time></trkpt><trkpt lat="41.79878834784739" lon="1.6135892586732123"><ele>823.0</ele><time>2026-04-25T09:28:18Z</time></trkpt><trkpt lat="41.79888350535092" lon="1.6134329301723587"><ele>823.0</ele><time>2026-04-25T09:28:19Z</time></trkpt><trkpt lat="41.79898633569537" lon="1.613298249803022"><ele>823.0</ele><time>2026-04-25T09:28:20Z</time></trkpt><trkpt lat="41.799037399646785" lon="1.6132082347966537"><ele>823.0</ele><time>2026-04-25T09:28:21Z</time></trkpt><trkpt lat="41.79909002905757" lon="1.613080892671695"><ele>823.0</ele><time>2026-04-25T09:28:22Z</time></trkpt><trkpt lat="41.799114099384546" lon="1.612952160628221"><ele>823.0</ele><time>2026-04-25T09:28:23Z</time></trkpt><trkpt lat="41.79910030244544" lon="1.6128122859083327"><ele>823.0</ele><time>2026-04-25T09:28:24Z</time></trkpt><trkpt lat="41.799058539534634" lon="1.6126533742173614"><ele>823.0</ele><time>2026-04-25T09:28:25Z</time></trkpt><trkpt lat="41.799025367242876" lon="1.6125151330678542"><ele>823.0</ele><time>2026-04-25T09:28:26Z</time></trkpt><trkpt lat="41.798979148330766" lon="1.6124099682397053"><ele>821.5</ele><time>2026-04-25T09:28:27Z</time></trkpt><trkpt lat="41.79888894861238" lon="1.612248153573625"><ele>820.0</ele><time>2026-04-25T09:28:28Z</time></trkpt><trkpt lat="41.79877888357612" lon="1.612170444442091"><ele>818.5</ele><time>2026-04-25T09:28:29Z</time></trkpt><trkpt lat="41.798651038040575" lon="1.6121211904759543"><ele>817.0</ele><time>2026-04-25T09:28:30Z</time></trkpt><trkpt lat="41.79852521337497" lon="1.612069776659333"><ele>816.8</ele><time>2026-04-25T09:28:31Z</time></trkpt><trkpt lat="41.79843778813323" lon="1.6119860076212162"><ele>816.6</ele><time>2026-04-25T09:28:32Z</time></trkpt><trkpt lat="41.798394584958785" lon="1.611867529332767"><ele>816.4</ele><time>2026-04-25T09:28:33Z</time></trkpt><trkpt lat="41.798366186135944" lon="1.6117512808431822"><ele>816.1999999999999</ele><time>2026-04-25T09:28:34Z</time></trkpt><trkpt lat="41.798370554146864" lon="1.6116352317307976"><ele>816.0</ele><time>2026-04-25T09:28:35Z</time></trkpt><trkpt lat="41.798418890974915" lon="1.6115268125770994"><ele>814.0</ele><time>2026-04-25T09:28:36Z</time></trkpt><trkpt lat="41.7985013609332" lon="1.6114329016134246"><ele>812.0</ele><time>2026-04-25T09:28:37Z</time></trkpt><trkpt lat="41.7985949489254" lon="1.6113515096722681"><ele>810.0</ele><time>2026-04-25T09:28:38Z</time></trkpt><trkpt lat="41.79868679363565" lon="1.6112350986784922"><ele>808.0</ele><time>2026-04-25T09:28:39Z</time></trkpt><trkpt lat="41.79879693493616" lon="1.6111499190160392"><ele>808.0</ele><time>2026-04-25T09:28:40Z</time></trkpt><trkpt lat="41.7988748658398" lon="1.6110525820842978"><ele>808.0</ele><time>2026-04-25T09:28:41Z</time></trkpt><trkpt lat="41.798914037244145" lon="1.6109346965420173"><ele>808.0</ele><time>2026-04-25T09:28:42Z</time></trkpt><trkpt lat="41.798917816968746" lon="1.6108022497054995"><ele>808.0</ele><time>2026-04-25T09:28:43Z</time></trkpt><trkpt lat="41.79887787995656" lon="1.6106689715264169"><ele>808.0</ele><time>2026-04-25T09:28:44Z</time></trkpt><trkpt lat="41.7988040573477" lon="1.6105546177832974"><ele>808.0</ele><time>2026-04-25T09:28:45Z</time></trkpt><trkpt lat="41.79869233464866" lon="1.6104773630551"><ele>808.0</ele><time>2026-04-25T09:28:46Z</time></trkpt><trkpt lat="41.79856527594077" lon="1.6104448819122577"><ele>808.0</ele><time>2026-04-25T09:28:47Z</time></trkpt><trkpt lat="41.79843160127536" lon="1.610426461915768"><ele>808.0</ele><time>2026-04-25T09:28:48Z</time></trkpt><trkpt lat="41.798289933215266" lon="1.610387867921773"><ele>807.8</ele><time>2026-04-25T09:28:49Z</time></trkpt><trkpt lat="41.79817879437949" lon="1.6103224959488407"><ele>807.5999999999999</ele><time>2026-04-25T09:28:50Z</time></trkpt><trkpt lat="41.7980992123979" lon="1.6102684263497111"><ele>807.4000000000001</ele><time>2026-04-25T09:28:51Z</time></trkpt><trkpt lat="41.79804177078067" lon="1.610186818639035"><ele>807.2</ele><time>2026-04-25T09:28:52Z</time></trkpt><trkpt lat="41.79801353258331" lon="1.6100842963044746"><ele>807.0</ele><time>2026-04-25T09:28:53Z</time></trkpt><trkpt lat="41.79802260117346" lon="1.6099827999344434"><ele>807.0</ele><time>2026-04-25T09:28:54Z</time></trkpt><trkpt lat="41.79805878115857" lon="1.609887818303868"><ele>807.0</ele><time>2026-04-25T09:28:55Z</time></trkpt><trkpt lat="41.798137931574836" lon="1.6098289800641556"><ele>807.0</ele><time>2026-04-25T09:28:56Z</time></trkpt><trkpt lat="41.798226952548866" lon="1.6097765868798908"><ele>807.0</ele><time>2026-04-25T09:28:57Z</time></trkpt><trkpt lat="41.79834011990828" lon="1.6096957969229324"><ele>807.0</ele><time>2026-04-25T09:28:58Z</time></trkpt><trkpt lat="41.798446379007025" lon="1.6096361926267964"><ele>805.25</ele><time>2026-04-25T09:28:59Z</time></trkpt><trkpt lat="41.79856297705587" lon="1.6095711532271029"><ele>803.5</ele><time>2026-04-25T09:29:00Z</time></trkpt><trkpt lat="41.79868946992867" lon="1.6095073307077101"><ele>801.75</ele><time>2026-04-25T09:29:01Z</time></trkpt><trkpt lat="41.79880848816391" lon="1.6094525642735587"><ele>800.0</ele><time>2026-04-25T09:29:02Z</time></trkpt><trkpt lat="41.79892733170185" lon="1.609392340960089"><ele>800.0</ele><time>2026-04-25T09:29:03Z</time></trkpt><trkpt lat="41.799037587918164" lon="1.609322847181415"><ele>800.0</ele><time>2026-04-25T09:29:04Z</time></trkpt><trkpt lat="41.799140287496" lon="1.6092374907557152"><ele>800.0</ele><time>2026-04-25T09:29:05Z</time></trkpt><trkpt lat="41.799225825228405" lon="1.6091617335457309"><ele>800.0</ele><time>2026-04-25T09:29:06Z</time></trkpt><trkpt lat="41.799301815100556" lon="1.609099175436362"><ele>800.0</ele><time>2026-04-25T09:29:07Z</time></trkpt><trkpt lat="41.7994791756861" lon="1.608883917066207"><ele>797.3333333333334</ele><time>2026-04-25T09:29:08Z</time></trkpt><trkpt lat="41.79960692837605" lon="1.6087453971968408"><ele>794.6666666666667</ele><time>2026-04-25T09:29:09Z</time></trkpt><trkpt lat="41.799726349243194" lon="1.6086244452922842"><ele>792.0</ele><time>2026-04-25T09:29:10Z</time></trkpt><trkpt lat="41.79984337304823" lon="1.6085215726920676"><ele>792.0</ele><time>2026-04-25T09:29:11Z</time></trkpt><trkpt lat="41.79995831384591" lon="1.6084125850043736"><ele>792.0</ele><time>2026-04-25T09:29:12Z</time></trkpt><trkpt lat="41.80005664418707" lon="1.6083201286065234"><ele>792.0</ele><time>2026-04-25T09:29:13Z</time></trkpt><trkpt lat="41.80014440947077" lon="1.6082386281147367"><ele>792.0</ele><time>2026-04-25T09:29:14Z</time></trkpt><trkpt lat="41.800202210635796" lon="1.6081412146346425"><ele>790.6</ele><time>2026-04-25T09:29:15Z</time></trkpt><trkpt lat="41.80023135897568" lon="1.6080267680859823"><ele>789.2</ele><time>2026-04-25T09:29:16Z</time></trkpt><trkpt lat="41.80021504241201" lon="1.6078882270948422"><ele>787.8</ele><time>2026-04-25T09:29:17Z</time></trkpt><trkpt lat="41.80016763759632" lon="1.6077562268926175"><ele>786.4</ele><time>2026-04-25T09:29:18Z</time></trkpt><trkpt lat="41.80007988057283" lon="1.607641043853172"><ele>785.0</ele><time>2026-04-25T09:29:19Z</time></trkpt><trkpt lat="41.79995802239226" lon="1.6075462651268537"><ele>785.0</ele><time>2026-04-25T09:29:20Z</time></trkpt><trkpt lat="41.7998224657268" lon="1.6074652594222536"><ele>785.0</ele><time>2026-04-25T09:29:21Z</time></trkpt><trkpt lat="41.799681625050376" lon="1.6073819187602547"><ele>785.0</ele><time>2026-04-25T09:29:22Z</time></trkpt><trkpt lat="41.79954023932225" lon="1.6072925107638767"><ele>785.0</ele><time>2026-04-25T09:29:23Z</time></trkpt><trkpt lat="41.7994225239966" lon="1.6072196714521283"><ele>785.0</ele><time>2026-04-25T09:29:24Z</time></trkpt><trkpt lat="41.79932176695847" lon="1.6071674113264318"><ele>785.0</ele><time>2026-04-25T09:29:25Z</time></trkpt><trkpt lat="41.7992629961067" lon="1.6070826904829727"><ele>785.0</ele><time>2026-04-25T09:29:26Z</time></trkpt><trkpt lat="41.79922913744262" lon="1.6069937871080882"><ele>785.0</ele><time>2026-04-25T09:29:27Z</time></trkpt><trkpt lat="41.79921730628761" lon="1.606872816120681"><ele>785.8</ele><time>2026-04-25T09:29:28Z</time></trkpt><trkpt lat="41.79925772183485" lon="1.6067475120633528"><ele>786.6</ele><time>2026-04-25T09:29:29Z</time></trkpt><trkpt lat="41.7993319709429" lon="1.6066654903736755"><ele>787.4000000000001</ele><time>2026-04-25T09:29:30Z</time></trkpt><trkpt lat="41.799424451214726" lon="1.6065969757144867"><ele>788.2</ele><time>2026-04-25T09:29:31Z</time></trkpt><trkpt lat="41.79954038692625" lon="1.606525192056403"><ele>789.0</ele><time>2026-04-25T09:29:32Z</time></trkpt><trkpt lat="41.79966550896469" lon="1.6064424262147399"><ele>786.25</ele><time>2026-04-25T09:29:33Z</time></trkpt><trkpt lat="41.79979234307957" lon="1.606340228482121"><ele>783.5</ele><time>2026-04-25T09:29:34Z</time></trkpt><trkpt lat="41.799921778375506" lon="1.6062470071548665"><ele>780.75</ele><time>2026-04-25T09:29:35Z</time></trkpt><trkpt lat="41.80003848454329" lon="1.6061594921488433"><ele>778.0</ele><time>2026-04-25T09:29:36Z</time></trkpt><trkpt lat="41.80014161927786" lon="1.606065717700753"><ele>773.5</ele><time>2026-04-25T09:29:37Z</time></trkpt><trkpt lat="41.80022713309679" lon="1.6059779742378635"><ele>769.0</ele><time>2026-04-25T09:29:38Z</time></trkpt><trkpt lat="41.80028875108122" lon="1.6058641406914234"><ele>764.5</ele><time>2026-04-25T09:29:39Z</time></trkpt><trkpt lat="41.800306059420784" lon="1.6057072051926369"><ele>760.0</ele><time>2026-04-25T09:29:40Z</time></trkpt><trkpt lat="41.80027405766614" lon="1.605544710996644"><ele>760.0</ele><time>2026-04-25T09:29:41Z</time></trkpt><trkpt lat="41.800213077332096" lon="1.6053813385324691"><ele>760.0</ele><time>2026-04-25T09:29:42Z</time></trkpt><trkpt lat="41.80014023133589" lon="1.6052235512190087"><ele>760.0</ele><time>2026-04-25T09:29:43Z</time></trkpt><trkpt lat="41.80005495419714" lon="1.6050967164232954"><ele>760.0</ele><time>2026-04-25T09:29:44Z</time></trkpt><trkpt lat="41.79994986034546" lon="1.6050115222401302"><ele>762.25</ele><time>2026-04-25T09:29:45Z</time></trkpt><trkpt lat="41.79982107331207" lon="1.6049618464837205"><ele>764.5</ele><time>2026-04-25T09:29:46Z</time></trkpt><trkpt lat="41.79968783677034" lon="1.6049204442900145"><ele>766.75</ele><time>2026-04-25T09:29:47Z</time></trkpt><trkpt lat="41.79958856080603" lon="1.6048225645337293"><ele>769.0</ele><time>2026-04-25T09:29:48Z</time></trkpt><trkpt lat="41.79951158787343" lon="1.6047318389724776"><ele>769.0</ele><time>2026-04-25T09:29:49Z</time></trkpt><trkpt lat="41.79951438814103" lon="1.6046158245952213"><ele>769.0</ele><time>2026-04-25T09:29:50Z</time></trkpt><trkpt lat="41.7995145899682" lon="1.6045214214585026"><ele>769.0</ele><time>2026-04-25T09:29:51Z</time></trkpt><trkpt lat="41.79956858835258" lon="1.6044394568259368"><ele>769.0</ele><time>2026-04-25T09:29:52Z</time></trkpt><trkpt lat="41.79966177055297" lon="1.6043777229629688"><ele>769.0</ele><time>2026-04-25T09:29:53Z</time></trkpt><trkpt lat="41.79975289285892" lon="1.6042557079339734"><ele>768.25</ele><time>2026-04-25T09:29:54Z</time></trkpt><trkpt lat="41.79983108980833" lon="1.604095663918639"><ele>767.5</ele><time>2026-04-25T09:29:55Z</time></trkpt><trkpt lat="41.79990405175927" lon="1.6039499329880358"><ele>766.75</ele><time>2026-04-25T09:29:56Z</time></trkpt><trkpt lat="41.79997639908015" lon="1.6038397593777287"><ele>766.0</ele><time>2026-04-25T09:29:57Z</time></trkpt><trkpt lat="41.80007369423707" lon="1.6037744617451544"><ele>765.5</ele><time>2026-04-25T09:29:58Z</time></trkpt><trkpt lat="41.80018482656109" lon="1.6037767785555903"><ele>765.0</ele><time>2026-04-25T09:29:59Z</time></trkpt><trkpt lat="41.80028454073443" lon="1.6038443344168516"><ele>764.5</ele><time>2026-04-25T09:30:00Z</time></trkpt><trkpt lat="41.800411770070426" lon="1.6039033420043762"><ele>764.0</ele><time>2026-04-25T09:30:01Z</time></trkpt><trkpt lat="41.80054416303559" lon="1.6039525063717206"><ele>764.0</ele><time>2026-04-25T09:30:02Z</time></trkpt><trkpt lat="41.800651942059076" lon="1.6039818509212531"><ele>764.0</ele><time>2026-04-25T09:30:03Z</time></trkpt><trkpt lat="41.80076629483551" lon="1.6039497582750202"><ele>764.0</ele><time>2026-04-25T09:30:04Z</time></trkpt><trkpt lat="41.80087669595727" lon="1.6038593721465997"><ele>764.0</ele><time>2026-04-25T09:30:05Z</time></trkpt><trkpt lat="41.800978276197434" lon="1.6037174247445516"><ele>763.5</ele><time>2026-04-25T09:30:06Z</time></trkpt><trkpt lat="41.80110068909508" lon="1.6036136352185952"><ele>763.0</ele><time>2026-04-25T09:30:07Z</time></trkpt><trkpt lat="41.80123261957236" lon="1.6035517028615287"><ele>762.5</ele><time>2026-04-25T09:30:08Z</time></trkpt><trkpt lat="41.80136997587388" lon="1.6035291124666484"><ele>762.0</ele><time>2026-04-25T09:30:09Z</time></trkpt><trkpt lat="41.8014870562151" lon="1.6034833548642502"><ele>762.0</ele><time>2026-04-25T09:30:10Z</time></trkpt><trkpt lat="41.80157777357919" lon="1.6034131572366788"><ele>762.0</ele><time>2026-04-25T09:30:11Z</time></trkpt><trkpt lat="41.80162448792683" lon="1.6033054664797468"><ele>762.0</ele><time>2026-04-25T09:30:12Z</time></trkpt><trkpt lat="41.801623457096575" lon="1.6031832849574523"><ele>762.0</ele><time>2026-04-25T09:30:13Z</time></trkpt><trkpt lat="41.8015713100268" lon="1.6030469866020471"><ele>762.0</ele><time>2026-04-25T09:30:14Z</time></trkpt><trkpt lat="41.80151784515126" lon="1.6029018538377064"><ele>760.25</ele><time>2026-04-25T09:30:15Z</time></trkpt><trkpt lat="41.801435691002716" lon="1.6027772066622357"><ele>758.5</ele><time>2026-04-25T09:30:16Z</time></trkpt><trkpt lat="41.801369428036296" lon="1.6026519398359869"><ele>756.75</ele><time>2026-04-25T09:30:17Z</time></trkpt><trkpt lat="41.80132431050958" lon="1.6025171355727055"><ele>755.0</ele><time>2026-04-25T09:30:18Z</time></trkpt><trkpt lat="41.80128454984919" lon="1.6023708648372372"><ele>755.0</ele><time>2026-04-25T09:30:19Z</time></trkpt><trkpt lat="41.801230881490696" lon="1.6022290814075562"><ele>755.0</ele><time>2026-04-25T09:30:20Z</time></trkpt><trkpt lat="41.801165295674146" lon="1.60209800046818"><ele>755.0</ele><time>2026-04-25T09:30:21Z</time></trkpt><trkpt lat="41.80106223197064" lon="1.6019882906527994"><ele>755.0</ele><time>2026-04-25T09:30:22Z</time></trkpt><trkpt lat="41.8009617485577" lon="1.601876083387497"><ele>754.5</ele><time>2026-04-25T09:30:23Z</time></trkpt><trkpt lat="41.8008881807768" lon="1.6017364975182162"><ele>754.0</ele><time>2026-04-25T09:30:24Z</time></trkpt><trkpt lat="41.80084182756086" lon="1.6015843163636725"><ele>753.5</ele><time>2026-04-25T09:30:25Z</time></trkpt><trkpt lat="41.80081465527972" lon="1.6014173572982753"><ele>753.0</ele><time>2026-04-25T09:30:26Z</time></trkpt><trkpt lat="41.80079100403785" lon="1.601247526188439"><ele>751.5</ele><time>2026-04-25T09:30:27Z</time></trkpt><trkpt lat="41.80083301870869" lon="1.6010857452744809"><ele>750.0</ele><time>2026-04-25T09:30:28Z</time></trkpt><trkpt lat="41.80089437414397" lon="1.6009610321465866"><ele>748.5</ele><time>2026-04-25T09:30:29Z</time></trkpt><trkpt lat="41.80097648025539" lon="1.600821522776004"><ele>747.0</ele><time>2026-04-25T09:30:30Z</time></trkpt><trkpt lat="41.80107062684677" lon="1.6006652288654837"><ele>743.25</ele><time>2026-04-25T09:30:31Z</time></trkpt><trkpt lat="41.80120039283491" lon="1.600555758175333"><ele>739.5</ele><time>2026-04-25T09:30:32Z</time></trkpt><trkpt lat="41.801312110584256" lon="1.600433407059348"><ele>735.75</ele><time>2026-04-25T09:30:33Z</time></trkpt><trkpt lat="41.80142433010906" lon="1.6003483899972095"><ele>732.0</ele><time>2026-04-25T09:30:34Z</time></trkpt><trkpt lat="41.80151087414761" lon="1.600240258173162"><ele>732.0</ele><time>2026-04-25T09:30:35Z</time></trkpt><trkpt lat="41.801566034093945" lon="1.6001073525343128"><ele>732.0</ele><time>2026-04-25T09:30:36Z</time></trkpt><trkpt lat="41.80157857075696" lon="1.5999566941237"><ele>732.0</ele><time>2026-04-25T09:30:37Z</time></trkpt><trkpt lat="41.80156597212053" lon="1.5997859481975"><ele>732.0</ele><time>2026-04-25T09:30:38Z</time></trkpt><trkpt lat="41.80155653521485" lon="1.599600630250948"><ele>731.25</ele><time>2026-04-25T09:30:39Z</time></trkpt><trkpt lat="41.80159348698115" lon="1.5994278455028146"><ele>730.5</ele><time>2026-04-25T09:30:40Z</time></trkpt><trkpt lat="41.80163738824642" lon="1.5992577430912667"><ele>729.75</ele><time>2026-04-25T09:30:41Z</time></trkpt><trkpt lat="41.80167831956456" lon="1.5990941702030201"><ele>729.0</ele><time>2026-04-25T09:30:42Z</time></trkpt><trkpt lat="41.80173539900283" lon="1.5989567696719176"><ele>729.0</ele><time>2026-04-25T09:30:43Z</time></trkpt><trkpt lat="41.80179961180313" lon="1.5988373553437223"><ele>729.0</ele><time>2026-04-25T09:30:44Z</time></trkpt><trkpt lat="41.80190918121746" lon="1.5987942183738015"><ele>729.0</ele><time>2026-04-25T09:30:45Z</time></trkpt><trkpt lat="41.80202480286768" lon="1.5988018594683235"><ele>729.0</ele><time>2026-04-25T09:30:46Z</time></trkpt><trkpt lat="41.80215974178588" lon="1.5988318210938735"><ele>725.6666666666666</ele><time>2026-04-25T09:30:47Z</time></trkpt><trkpt lat="41.802308723643954" lon="1.5988502031340592"><ele>722.3333333333333</ele><time>2026-04-25T09:30:48Z</time></trkpt><trkpt lat="41.80247005744383" lon="1.5988643159701463"><ele>719.0</ele><time>2026-04-25T09:30:49Z</time></trkpt><trkpt lat="41.80262016689283" lon="1.5988483294541807"><ele>717.25</ele><time>2026-04-25T09:30:50Z</time></trkpt><trkpt lat="41.802744748323455" lon="1.598815806794801"><ele>715.5</ele><time>2026-04-25T09:30:51Z</time></trkpt><trkpt lat="41.802854363867915" lon="1.5987592285057832"><ele>713.75</ele><time>2026-04-25T09:30:52Z</time></trkpt><trkpt lat="41.80293976575317" lon="1.5986662187868894"><ele>712.0</ele><time>2026-04-25T09:30:53Z</time></trkpt><trkpt lat="41.803002969563586" lon="1.5985386207152403"><ele>712.0</ele><time>2026-04-25T09:30:54Z</time></trkpt><trkpt lat="41.80304477044912" lon="1.5983739665333454"><ele>712.0</ele><time>2026-04-25T09:30:55Z</time></trkpt><trkpt lat="41.803087591922186" lon="1.5981921591053152"><ele>712.0</ele><time>2026-04-25T09:30:56Z</time></trkpt><trkpt lat="41.80314330362922" lon="1.5980010800493356"><ele>712.0</ele><time>2026-04-25T09:30:57Z</time></trkpt><trkpt lat="41.80321592863406" lon="1.5978065615563215"><ele>712.3333333333334</ele><time>2026-04-25T09:30:58Z</time></trkpt><trkpt lat="41.803286884292895" lon="1.5976220238833543"><ele>712.6666666666666</ele><time>2026-04-25T09:30:59Z</time></trkpt><trkpt lat="41.80335915234009" lon="1.5974363134227623"><ele>713.0</ele><time>2026-04-25T09:31:00Z</time></trkpt><trkpt lat="41.803434088402845" lon="1.59724277995442"><ele>710.0</ele><time>2026-04-25T09:31:01Z</time></trkpt><trkpt lat="41.80350664198736" lon="1.5970558519332685"><ele>707.0</ele><time>2026-04-25T09:31:02Z</time></trkpt><trkpt lat="41.80358344915093" lon="1.5968716961686045"><ele>704.0</ele><time>2026-04-25T09:31:03Z</time></trkpt><trkpt lat="41.80365782281732" lon="1.5967018034251375"><ele>704.0</ele><time>2026-04-25T09:31:04Z</time></trkpt><trkpt lat="41.803734041282326" lon="1.5965345151101076"><ele>704.0</ele><time>2026-04-25T09:31:05Z</time></trkpt><trkpt lat="41.80382124737064" lon="1.5963756944822158"><ele>704.0</ele><time>2026-04-25T09:31:06Z</time></trkpt><trkpt lat="41.80392191540108" lon="1.5962397714977776"><ele>704.0</ele><time>2026-04-25T09:31:07Z</time></trkpt><trkpt lat="41.804027572325374" lon="1.5961161708328466"><ele>704.75</ele><time>2026-04-25T09:31:08Z</time></trkpt><trkpt lat="41.80412900716964" lon="1.5960011642977934"><ele>705.5</ele><time>2026-04-25T09:31:09Z</time></trkpt><trkpt lat="41.80421306624541" lon="1.595881140263582"><ele>706.25</ele><time>2026-04-25T09:31:10Z</time></trkpt><trkpt lat="41.80428928485625" lon="1.595742672113243"><ele>707.0</ele><time>2026-04-25T09:31:11Z</time></trkpt><trkpt lat="41.80436722483386" lon="1.5956016669010848"><ele>707.0</ele><time>2026-04-25T09:31:12Z</time></trkpt><trkpt lat="41.80445138204363" lon="1.5954698104641385"><ele>707.0</ele><time>2026-04-25T09:31:13Z</time></trkpt><trkpt lat="41.80453569041209" lon="1.5953383960144958"><ele>707.0</ele><time>2026-04-25T09:31:14Z</time></trkpt><trkpt lat="41.804604302502476" lon="1.5952024095152966"><ele>707.0</ele><time>2026-04-25T09:31:15Z</time></trkpt><trkpt lat="41.8046488322636" lon="1.595067133303619"><ele>708.2</ele><time>2026-04-25T09:31:16Z</time></trkpt><trkpt lat="41.804691024334986" lon="1.594949472018472"><ele>709.4000000000001</ele><time>2026-04-25T09:31:17Z</time></trkpt><trkpt lat="41.80476334581423" lon="1.5948792358673145"><ele>710.5999999999999</ele><time>2026-04-25T09:31:18Z</time></trkpt><trkpt lat="41.80486425821124" lon="1.5948990879713698"><ele>711.8</ele><time>2026-04-25T09:31:19Z</time></trkpt><trkpt lat="41.804966339755" lon="1.5949043122758415"><ele>713.0</ele><time>2026-04-25T09:31:20Z</time></trkpt><trkpt lat="41.805053416331496" lon="1.5949979816746862"><ele>713.0</ele><time>2026-04-25T09:31:21Z</time></trkpt><trkpt lat="41.80512503856237" lon="1.5950926526101035"><ele>713.0</ele><time>2026-04-25T09:31:22Z</time></trkpt><trkpt lat="41.80518975463615" lon="1.5952027686405925"><ele>713.0</ele><time>2026-04-25T09:31:23Z</time></trkpt><trkpt lat="41.80526284449163" lon="1.5953178698218846"><ele>713.0</ele><time>2026-04-25T09:31:24Z</time></trkpt><trkpt lat="41.80531796136012" lon="1.5954595863424557"><ele>713.0</ele><time>2026-04-25T09:31:25Z</time></trkpt><trkpt lat="41.80537308598265" lon="1.5956088930861183"><ele>712.75</ele><time>2026-04-25T09:31:26Z</time></trkpt><trkpt lat="41.80543026207687" lon="1.595763981309989"><ele>712.5</ele><time>2026-04-25T09:31:27Z</time></trkpt><trkpt lat="41.805509202054786" lon="1.5959141180306171"><ele>712.25</ele><time>2026-04-25T09:31:28Z</time></trkpt><trkpt lat="41.80558460773181" lon="1.596077972978255"><ele>712.0</ele><time>2026-04-25T09:31:29Z</time></trkpt><trkpt lat="41.805667441752185" lon="1.5962428559014357"><ele>712.0</ele><time>2026-04-25T09:31:30Z</time></trkpt><trkpt lat="41.80576765377215" lon="1.5964113721017543"><ele>712.0</ele><time>2026-04-25T09:31:31Z</time></trkpt><trkpt lat="41.80587246613676" lon="1.5965742172820916"><ele>712.0</ele><time>2026-04-25T09:31:32Z</time></trkpt><trkpt lat="41.80598721167461" lon="1.5967419448731606"><ele>713.5</ele><time>2026-04-25T09:31:33Z</time></trkpt><trkpt lat="41.806101079261346" lon="1.5968929053285559"><ele>715.0</ele><time>2026-04-25T09:31:34Z</time></trkpt><trkpt lat="41.80617946793668" lon="1.5970528236557142"><ele>716.5</ele><time>2026-04-25T09:31:35Z</time></trkpt><trkpt lat="41.806254040890074" lon="1.597207273100239"><ele>718.0</ele><time>2026-04-25T09:31:36Z</time></trkpt><trkpt lat="41.806339131623126" lon="1.597358691375331"><ele>718.0</ele><time>2026-04-25T09:31:37Z</time></trkpt><trkpt lat="41.80640010370359" lon="1.5974992682442988"><ele>718.0</ele><time>2026-04-25T09:31:38Z</time></trkpt><trkpt lat="41.80646078615333" lon="1.5976060988610727"><ele>718.0</ele><time>2026-04-25T09:31:39Z</time></trkpt><trkpt lat="41.80652558463728" lon="1.597672219664313"><ele>718.0</ele><time>2026-04-25T09:31:40Z</time></trkpt><trkpt lat="41.80659288990867" lon="1.5976982803143807"><ele>718.0</ele><time>2026-04-25T09:31:41Z</time></trkpt><trkpt lat="41.80665926680801" lon="1.597732978485903"><ele>718.0</ele><time>2026-04-25T09:31:42Z</time></trkpt><trkpt lat="41.806734169172366" lon="1.597729806660053"><ele>718.0</ele><time>2026-04-25T09:31:43Z</time></trkpt><trkpt lat="41.80680406912635" lon="1.5976407563410187"><ele>718.0</ele><time>2026-04-25T09:31:44Z</time></trkpt><trkpt lat="41.80684014157485" lon="1.5975410541004886"><ele>718.0</ele><time>2026-04-25T09:31:45Z</time></trkpt><trkpt lat="41.80688007671631" lon="1.5974389919917522"><ele>718.0</ele><time>2026-04-25T09:31:46Z</time></trkpt><trkpt lat="41.80693347492454" lon="1.5973124208884837"><ele>718.0</ele><time>2026-04-25T09:31:47Z</time></trkpt><trkpt lat="41.80699797244135" lon="1.5971643696775166"><ele>716.3333333333334</ele><time>2026-04-25T09:31:48Z</time></trkpt><trkpt lat="41.807077283505706" lon="1.597010109286479"><ele>714.6666666666666</ele><time>2026-04-25T09:31:49Z</time></trkpt><trkpt lat="41.80717416856006" lon="1.596853273407026"><ele>713.0</ele><time>2026-04-25T09:31:50Z</time></trkpt><trkpt lat="41.80728793631824" lon="1.5966883704286485"><ele>713.0</ele><time>2026-04-25T09:31:51Z</time></trkpt><trkpt lat="41.80739908592309" lon="1.5965355029777168"><ele>713.0</ele><time>2026-04-25T09:31:52Z</time></trkpt><trkpt lat="41.807509021371175" lon="1.5963896033797256"><ele>713.0</ele><time>2026-04-25T09:31:53Z</time></trkpt><trkpt lat="41.8076203428412" lon="1.5962534995100346"><ele>709.25</ele><time>2026-04-25T09:31:54Z</time></trkpt><trkpt lat="41.80772926509759" lon="1.5961154954258858"><ele>705.5</ele><time>2026-04-25T09:31:55Z</time></trkpt><trkpt lat="41.80781284677018" lon="1.5959701785945086"><ele>701.75</ele><time>2026-04-25T09:31:56Z</time></trkpt><trkpt lat="41.807880769205596" lon="1.5958048273535728"><ele>698.0</ele><time>2026-04-25T09:31:57Z</time></trkpt><trkpt lat="41.807939223722116" lon="1.5956211646696832"><ele>698.0</ele><time>2026-04-25T09:31:58Z</time></trkpt><trkpt lat="41.80799876168677" lon="1.595433366925229"><ele>698.0</ele><time>2026-04-25T09:31:59Z</time></trkpt><trkpt lat="41.80808066849287" lon="1.5952599023701195"><ele>698.0</ele><time>2026-04-25T09:32:00Z</time></trkpt><trkpt lat="41.808175196261125" lon="1.59511118049844"><ele>698.75</ele><time>2026-04-25T09:32:01Z</time></trkpt><trkpt lat="41.80825826875767" lon="1.5949538864697808"><ele>699.5</ele><time>2026-04-25T09:32:02Z</time></trkpt><trkpt lat="41.80832686416065" lon="1.5947776747533313"><ele>700.25</ele><time>2026-04-25T09:32:03Z</time></trkpt><trkpt lat="41.808379883286456" lon="1.5945797873856655"><ele>701.0</ele><time>2026-04-25T09:32:04Z</time></trkpt><trkpt lat="41.808413341986366" lon="1.5943728196970062"><ele>701.0</ele><time>2026-04-25T09:32:05Z</time></trkpt><trkpt lat="41.8084275914782" lon="1.594160152225102"><ele>701.0</ele><time>2026-04-25T09:32:06Z</time></trkpt><trkpt lat="41.80842553153529" lon="1.5939418450059921"><ele>701.0</ele><time>2026-04-25T09:32:07Z</time></trkpt><trkpt lat="41.80841305841098" lon="1.5937219545906616"><ele>700.0</ele><time>2026-04-25T09:32:08Z</time></trkpt><trkpt lat="41.80841990594106" lon="1.5935004787660354"><ele>699.0</ele><time>2026-04-25T09:32:09Z</time></trkpt><trkpt lat="41.80841785442118" lon="1.5932991881249912"><ele>698.0</ele><time>2026-04-25T09:32:10Z</time></trkpt><trkpt lat="41.80842711176605" lon="1.5931253364028752"><ele>697.0</ele><time>2026-04-25T09:32:11Z</time></trkpt><trkpt lat="41.80845209193884" lon="1.5929637504348992"><ele>697.0</ele><time>2026-04-25T09:32:12Z</time></trkpt><trkpt lat="41.80848984786149" lon="1.5928197611681523"><ele>697.0</ele><time>2026-04-25T09:32:13Z</time></trkpt><trkpt lat="41.80855927591648" lon="1.592731171802543"><ele>697.0</ele><time>2026-04-25T09:32:14Z</time></trkpt><trkpt lat="41.808642084838056" lon="1.5926957569573987"><ele>697.0</ele><time>2026-04-25T09:32:15Z</time></trkpt><trkpt lat="41.80873858569999" lon="1.5927065369649078"><ele>697.0</ele><time>2026-04-25T09:32:16Z</time></trkpt><trkpt lat="41.808811719757564" lon="1.5927829163736285"><ele>696.4000000000001</ele><time>2026-04-25T09:32:17Z</time></trkpt><trkpt lat="41.80887254464632" lon="1.5928890315067334"><ele>695.8000000000001</ele><time>2026-04-25T09:32:18Z</time></trkpt><trkpt lat="41.80891082363146" lon="1.5930336128465379"><ele>695.2</ele><time>2026-04-25T09:32:19Z</time></trkpt><trkpt lat="41.80895613340967" lon="1.5931801804856494"><ele>694.6</ele><time>2026-04-25T09:32:20Z</time></trkpt><trkpt lat="41.809018128487786" lon="1.593308099817164"><ele>694.0</ele><time>2026-04-25T09:32:21Z</time></trkpt><trkpt lat="41.80908441633751" lon="1.5934398280171929"><ele>694.0</ele><time>2026-04-25T09:32:22Z</time></trkpt><trkpt lat="41.80916133303316" lon="1.5935650752635644"><ele>694.0</ele><time>2026-04-25T09:32:23Z</time></trkpt><trkpt lat="41.80923756142088" lon="1.5936707431145387"><ele>694.0</ele><time>2026-04-25T09:32:24Z</time></trkpt><trkpt lat="41.809354398847304" lon="1.5938320535124473"><ele>694.0</ele><time>2026-04-25T09:32:25Z</time></trkpt><trkpt lat="41.80946307034467" lon="1.593966588701032"><ele>697.6666666666667</ele><time>2026-04-25T09:32:26Z</time></trkpt><trkpt lat="41.809573910346465" lon="1.5941037330950454"><ele>701.3333333333334</ele><time>2026-04-25T09:32:27Z</time></trkpt><trkpt lat="41.80969204019379" lon="1.5942199834478188"><ele>705.0</ele><time>2026-04-25T09:32:28Z</time></trkpt><trkpt lat="41.8098253565574" lon="1.5943241238068233"><ele>705.0</ele><time>2026-04-25T09:32:29Z</time></trkpt><trkpt lat="41.80995356063385" lon="1.5944247485411362"><ele>705.0</ele><time>2026-04-25T09:32:30Z</time></trkpt><trkpt lat="41.810060345416744" lon="1.5945220577905332"><ele>705.0</ele><time>2026-04-25T09:32:31Z</time></trkpt><trkpt lat="41.81014508126886" lon="1.5946154949557372"><ele>705.0</ele><time>2026-04-25T09:32:32Z</time></trkpt><trkpt lat="41.810228690094156" lon="1.5947043345719238"><ele>705.0</ele><time>2026-04-25T09:32:33Z</time></trkpt><trkpt lat="41.81032514458607" lon="1.5947558340541035"><ele>705.0</ele><time>2026-04-25T09:32:34Z</time></trkpt><trkpt lat="41.81043173232375" lon="1.5947654016019692"><ele>705.0</ele><time>2026-04-25T09:32:35Z</time></trkpt><trkpt lat="41.810544022415165" lon="1.594729123136632"><ele>705.0</ele><time>2026-04-25T09:32:36Z</time></trkpt><trkpt lat="41.81065867656853" lon="1.5947085628667286"><ele>705.0</ele><time>2026-04-25T09:32:37Z</time></trkpt><trkpt lat="41.810793872943705" lon="1.5947080971253327"><ele>705.0</ele><time>2026-04-25T09:32:38Z</time></trkpt><trkpt lat="41.810938435411714" lon="1.59473217990633"><ele>705.0</ele><time>2026-04-25T09:32:39Z</time></trkpt><trkpt lat="41.81109417319214" lon="1.5947042296160416"><ele>705.0</ele><time>2026-04-25T09:32:40Z</time></trkpt><trkpt lat="41.81125870107469" lon="1.5946749773505662"><ele>707.6666666666666</ele><time>2026-04-25T09:32:41Z</time></trkpt><trkpt lat="41.81142519145237" lon="1.5946440041388201"><ele>710.3333333333333</ele><time>2026-04-25T09:32:42Z</time></trkpt><trkpt lat="41.81158921934562" lon="1.5946111087322148"><ele>713.0</ele><time>2026-04-25T09:32:43Z</time></trkpt><trkpt lat="41.8117333191004" lon="1.5945792043040037"><ele>714.0</ele><time>2026-04-25T09:32:44Z</time></trkpt><trkpt lat="41.81186205527258" lon="1.594596308435735"><ele>715.0</ele><time>2026-04-25T09:32:45Z</time></trkpt><trkpt lat="41.81199458099004" lon="1.5946261666000785"><ele>716.0</ele><time>2026-04-25T09:32:46Z</time></trkpt><trkpt lat="41.81213683073388" lon="1.5946586457047458"><ele>717.0</ele><time>2026-04-25T09:32:47Z</time></trkpt><trkpt lat="41.81227805395556" lon="1.5946556174681816"><ele>717.0</ele><time>2026-04-25T09:32:48Z</time></trkpt><trkpt lat="41.81240816604172" lon="1.594660798135129"><ele>717.0</ele><time>2026-04-25T09:32:49Z</time></trkpt><trkpt lat="41.81250780567824" lon="1.5947237977822841"><ele>717.0</ele><time>2026-04-25T09:32:50Z</time></trkpt><trkpt lat="41.81259569266564" lon="1.594788696984942"><ele>717.0</ele><time>2026-04-25T09:32:51Z</time></trkpt><trkpt lat="41.81262895464562" lon="1.594901008791199"><ele>717.0</ele><time>2026-04-25T09:32:52Z</time></trkpt><trkpt lat="41.81261873948611" lon="1.5950303538340969"><ele>717.0</ele><time>2026-04-25T09:32:53Z</time></trkpt><trkpt lat="41.812628688841414" lon="1.5951962800949693"><ele>717.0</ele><time>2026-04-25T09:32:54Z</time></trkpt><trkpt lat="41.81264596181706" lon="1.5953859063498281"><ele>717.0</ele><time>2026-04-25T09:32:55Z</time></trkpt><trkpt lat="41.8126712338429" lon="1.5955811176723125"><ele>717.0</ele><time>2026-04-25T09:32:56Z</time></trkpt><trkpt lat="41.81269840272266" lon="1.595793761232511"><ele>720.3333333333334</ele><time>2026-04-25T09:32:57Z</time></trkpt><trkpt lat="41.812717463056345" lon="1.5960046811327602"><ele>723.6666666666667</ele><time>2026-04-25T09:32:58Z</time></trkpt><trkpt lat="41.81273427146732" lon="1.5962160466276871"><ele>727.0</ele><time>2026-04-25T09:32:59Z</time></trkpt><trkpt lat="41.81275270619835" lon="1.5964304135538296"><ele>729.3333333333334</ele><time>2026-04-25T09:33:00Z</time></trkpt><trkpt lat="41.812773849196724" lon="1.596637169703027"><ele>731.6666666666666</ele><time>2026-04-25T09:33:01Z</time></trkpt><trkpt lat="41.812809244643" lon="1.5968282872093575"><ele>734.0</ele><time>2026-04-25T09:33:02Z</time></trkpt><trkpt lat="41.81282361513314" lon="1.597028622119093"><ele>736.25</ele><time>2026-04-25T09:33:03Z</time></trkpt><trkpt lat="41.81283738524484" lon="1.5972304877596963"><ele>738.5</ele><time>2026-04-25T09:33:04Z</time></trkpt><trkpt lat="41.81283098594395" lon="1.597432269787064"><ele>740.75</ele><time>2026-04-25T09:33:05Z</time></trkpt><trkpt lat="41.812820756292815" lon="1.5976258468826767"><ele>743.0</ele><time>2026-04-25T09:33:06Z</time></trkpt><trkpt lat="41.812816446956845" lon="1.5978234724501867"><ele>743.5</ele><time>2026-04-25T09:33:07Z</time></trkpt><trkpt lat="41.81282818440321" lon="1.598017340019132"><ele>744.0</ele><time>2026-04-25T09:33:08Z</time></trkpt><trkpt lat="41.81284429887053" lon="1.5981891355410807"><ele>744.5</ele><time>2026-04-25T09:33:09Z</time></trkpt><trkpt lat="41.812881107120646" lon="1.5983533856533019"><ele>745.0</ele><time>2026-04-25T09:33:10Z</time></trkpt><trkpt lat="41.81295239055725" lon="1.5985176969830206"><ele>742.3333333333334</ele><time>2026-04-25T09:33:11Z</time></trkpt><trkpt lat="41.81305460324903" lon="1.5986701720424787"><ele>739.6666666666666</ele><time>2026-04-25T09:33:12Z</time></trkpt><trkpt lat="41.813191292427405" lon="1.5987985926971724"><ele>737.0</ele><time>2026-04-25T09:33:13Z</time></trkpt><trkpt lat="41.813340534446844" lon="1.5989377443198707"><ele>741.3333333333333</ele><time>2026-04-25T09:33:14Z</time></trkpt><trkpt lat="41.81349416361358" lon="1.5990794821478675"><ele>745.6666666666666</ele><time>2026-04-25T09:33:15Z</time></trkpt><trkpt lat="41.81363422467598" lon="1.5992130116431835"><ele>750.0</ele><time>2026-04-25T09:33:16Z</time></trkpt><trkpt lat="41.813752450309636" lon="1.599346367954273"><ele>749.0</ele><time>2026-04-25T09:33:17Z</time></trkpt><trkpt lat="41.81384110324855" lon="1.5995236815746852"><ele>748.0</ele><time>2026-04-25T09:33:18Z</time></trkpt><trkpt lat="41.81392050364179" lon="1.599698414377286"><ele>747.0</ele><time>2026-04-25T09:33:19Z</time></trkpt><trkpt lat="41.813994237728494" lon="1.5998907417851405"><ele>747.0</ele><time>2026-04-25T09:33:20Z</time></trkpt><trkpt lat="41.81405822290318" lon="1.600075617693759"><ele>747.0</ele><time>2026-04-25T09:33:21Z</time></trkpt><trkpt lat="41.81410111884779" lon="1.6002685504153262"><ele>747.0</ele><time>2026-04-25T09:33:22Z</time></trkpt><trkpt lat="41.81412117419299" lon="1.6004657387002554"><ele>747.25</ele><time>2026-04-25T09:33:23Z</time></trkpt><trkpt lat="41.81413419526061" lon="1.600670950754203"><ele>747.5</ele><time>2026-04-25T09:33:24Z</time></trkpt><trkpt lat="41.81416338183541" lon="1.6008660297504713"><ele>747.75</ele><time>2026-04-25T09:33:25Z</time></trkpt><trkpt lat="41.81419738798265" lon="1.6010534635027587"><ele>748.0</ele><time>2026-04-25T09:33:26Z</time></trkpt><trkpt lat="41.814276958382536" lon="1.6012182590673099"><ele>751.3333333333334</ele><time>2026-04-25T09:33:27Z</time></trkpt><trkpt lat="41.814385656533204" lon="1.6013865080037586"><ele>754.6666666666666</ele><time>2026-04-25T09:33:28Z</time></trkpt><trkpt lat="41.814508958628835" lon="1.6015418377229467"><ele>758.0</ele><time>2026-04-25T09:33:29Z</time></trkpt><trkpt lat="41.814636474041386" lon="1.6017044058832097"><ele>758.0</ele><time>2026-04-25T09:33:30Z</time></trkpt><trkpt lat="41.81475239952269" lon="1.601875420506194"><ele>758.0</ele><time>2026-04-25T09:33:31Z</time></trkpt><trkpt lat="41.81486757826508" lon="1.6020416877025856"><ele>758.0</ele><time>2026-04-25T09:33:32Z</time></trkpt><trkpt lat="41.814998229903196" lon="1.6021773767785834"><ele>759.0</ele><time>2026-04-25T09:33:33Z</time></trkpt><trkpt lat="41.815138156407144" lon="1.602300830866154"><ele>760.0</ele><time>2026-04-25T09:33:34Z</time></trkpt><trkpt lat="41.81524823632987" lon="1.6024728893226894"><ele>761.0</ele><time>2026-04-25T09:33:35Z</time></trkpt><trkpt lat="41.81535823512878" lon="1.6026338207238107"><ele>761.0</ele><time>2026-04-25T09:33:36Z</time></trkpt><trkpt lat="41.81545845480896" lon="1.6028005516335875"><ele>761.0</ele><time>2026-04-25T09:33:37Z</time></trkpt><trkpt lat="41.81554539989185" lon="1.602989616822282"><ele>761.0</ele><time>2026-04-25T09:33:38Z</time></trkpt><trkpt lat="41.81561463178261" lon="1.6031965165734505"><ele>760.3333333333333</ele><time>2026-04-25T09:33:39Z</time></trkpt><trkpt lat="41.81567028601714" lon="1.603419794291633"><ele>759.6666666666666</ele><time>2026-04-25T09:33:40Z</time></trkpt><trkpt lat="41.81571544975041" lon="1.6036297556289"><ele>759.0</ele><time>2026-04-25T09:33:41Z</time></trkpt><trkpt lat="41.8157518826825" lon="1.6038257981025132"><ele>759.0</ele><time>2026-04-25T09:33:42Z</time></trkpt><trkpt lat="41.815766557935625" lon="1.604014168239666"><ele>759.0</ele><time>2026-04-25T09:33:43Z</time></trkpt><trkpt lat="41.81577244194384" lon="1.6042139257120476"><ele>759.0</ele><time>2026-04-25T09:33:44Z</time></trkpt><trkpt lat="41.815811003888776" lon="1.6044248127354732"><ele>758.3333333333334</ele><time>2026-04-25T09:33:45Z</time></trkpt><trkpt lat="41.815876334336245" lon="1.6046337896299983"><ele>757.6666666666667</ele><time>2026-04-25T09:33:46Z</time></trkpt><trkpt lat="41.81596896308763" lon="1.6048434559125606"><ele>757.0</ele><time>2026-04-25T09:33:47Z</time></trkpt><trkpt lat="41.816041942737066" lon="1.6050813301213371"><ele>756.0</ele><time>2026-04-25T09:33:48Z</time></trkpt><trkpt lat="41.81613040419699" lon="1.6053147568121335"><ele>755.0</ele><time>2026-04-25T09:33:49Z</time></trkpt><trkpt lat="41.816213782696614" lon="1.6055476921435432"><ele>754.0</ele><time>2026-04-25T09:33:50Z</time></trkpt><trkpt lat="41.81627113823433" lon="1.6057609539179372"><ele>754.0</ele><time>2026-04-25T09:33:51Z</time></trkpt><trkpt lat="41.81628610307718" lon="1.6059683062095926"><ele>754.0</ele><time>2026-04-25T09:33:52Z</time></trkpt><trkpt lat="41.81628266022686" lon="1.6061677018368237"><ele>754.0</ele><time>2026-04-25T09:33:53Z</time></trkpt><trkpt lat="41.81627651574134" lon="1.6063825244539818"><ele>753.6666666666667</ele><time>2026-04-25T09:33:54Z</time></trkpt><trkpt lat="41.8162813700696" lon="1.6066087591186593"><ele>753.3333333333334</ele><time>2026-04-25T09:33:55Z</time></trkpt><trkpt lat="41.81628400331348" lon="1.6068385290697103"><ele>753.0</ele><time>2026-04-25T09:33:56Z</time></trkpt><trkpt lat="41.816292387375285" lon="1.6070648397983145"><ele>753.0</ele><time>2026-04-25T09:33:57Z</time></trkpt><trkpt lat="41.81632228346138" lon="1.607292525297039"><ele>753.0</ele><time>2026-04-25T09:33:58Z</time></trkpt><trkpt lat="41.81638199972396" lon="1.6075332895982397"><ele>753.0</ele><time>2026-04-25T09:33:59Z</time></trkpt><trkpt lat="41.81645380560552" lon="1.607794562659505"><ele>751.6666666666666</ele><time>2026-04-25T09:34:00Z</time></trkpt><trkpt lat="41.816523475586386" lon="1.60806046217384"><ele>750.3333333333333</ele><time>2026-04-25T09:34:01Z</time></trkpt><trkpt lat="41.816595516606604" lon="1.6083274871210969"><ele>749.0</ele><time>2026-04-25T09:34:02Z</time></trkpt><trkpt lat="41.816667507259005" lon="1.6085878130345144"><ele>748.6666666666666</ele><time>2026-04-25T09:34:03Z</time></trkpt><trkpt lat="41.816743517397434" lon="1.6088347228412976"><ele>748.3333333333334</ele><time>2026-04-25T09:34:04Z</time></trkpt><trkpt lat="41.81683637823335" lon="1.609067278687425"><ele>748.0</ele><time>2026-04-25T09:34:05Z</time></trkpt><trkpt lat="41.816945642604864" lon="1.6092858261405554"><ele>747.3333333333334</ele><time>2026-04-25T09:34:06Z</time></trkpt><trkpt lat="41.81704305894578" lon="1.6094922671583618"><ele>746.6666666666666</ele><time>2026-04-25T09:34:07Z</time></trkpt><trkpt lat="41.81709398898117" lon="1.6097076884576322"><ele>746.0</ele><time>2026-04-25T09:34:08Z</time></trkpt><trkpt lat="41.817196085013606" lon="1.6098891637526835"><ele>746.0</ele><time>2026-04-25T09:34:09Z</time></trkpt><trkpt lat="41.81719389172177" lon="1.610156348317854"><ele>746.0</ele><time>2026-04-25T09:34:10Z</time></trkpt><trkpt lat="41.81726169414189" lon="1.6103597410366595"><ele>746.0</ele><time>2026-04-25T09:34:11Z</time></trkpt><trkpt lat="41.817368652543976" lon="1.6105574438300418"><ele>745.3333333333333</ele><time>2026-04-25T09:34:12Z</time></trkpt><trkpt lat="41.817501307315034" lon="1.610749217850088"><ele>744.6666666666666</ele><time>2026-04-25T09:34:13Z</time></trkpt><trkpt lat="41.81763799230852" lon="1.6109340057172963"><ele>744.0</ele><time>2026-04-25T09:34:14Z</time></trkpt><trkpt lat="41.81772965968017" lon="1.6111371854943521"><ele>744.3333333333334</ele><time>2026-04-25T09:34:15Z</time></trkpt><trkpt lat="41.81781124048002" lon="1.611330903948702"><ele>744.6666666666667</ele><time>2026-04-25T09:34:16Z</time></trkpt><trkpt lat="41.81791863315857" lon="1.611518127569106"><ele>745.0</ele><time>2026-04-25T09:34:17Z</time></trkpt><trkpt lat="41.818032450261015" lon="1.61171494198278"><ele>745.0</ele><time>2026-04-25T09:34:18Z</time></trkpt><trkpt lat="41.81814682401267" lon="1.611891784643119"><ele>745.0</ele><time>2026-04-25T09:34:19Z</time></trkpt><trkpt lat="41.818255568894806" lon="1.6120343643936197"><ele>745.0</ele><time>2026-04-25T09:34:20Z</time></trkpt><trkpt lat="41.81836252123519" lon="1.612138006094717"><ele>744.0</ele><time>2026-04-25T09:34:21Z</time></trkpt><trkpt lat="41.818468121861315" lon="1.612197423030375"><ele>743.0</ele><time>2026-04-25T09:34:22Z</time></trkpt><trkpt lat="41.81856240286163" lon="1.6122081880688393"><ele>742.0</ele><time>2026-04-25T09:34:23Z</time></trkpt><trkpt lat="41.81865961378585" lon="1.612172592733059"><ele>741.0</ele><time>2026-04-25T09:34:24Z</time></trkpt><trkpt lat="41.81877653994652" lon="1.6121151641580547"><ele>740.0</ele><time>2026-04-25T09:34:25Z</time></trkpt><trkpt lat="41.8189124975679" lon="1.6120458555151798"><ele>739.5</ele><time>2026-04-25T09:34:26Z</time></trkpt><trkpt lat="41.81904868684505" lon="1.6119761925727008"><ele>739.0</ele><time>2026-04-25T09:34:27Z</time></trkpt><trkpt lat="41.81916855830506" lon="1.6119177663198452"><ele>738.5</ele><time>2026-04-25T09:34:28Z</time></trkpt><trkpt lat="41.8192736309132" lon="1.611892170456197"><ele>738.0</ele><time>2026-04-25T09:34:29Z</time></trkpt><trkpt lat="41.81936855499884" lon="1.6119207935178526"><ele>736.3333333333334</ele><time>2026-04-25T09:34:30Z</time></trkpt><trkpt lat="41.81948037607749" lon="1.6120311070281872"><ele>734.6666666666667</ele><time>2026-04-25T09:34:31Z</time></trkpt><trkpt lat="41.819617381230046" lon="1.6121281508711847"><ele>733.0</ele><time>2026-04-25T09:34:32Z</time></trkpt><trkpt lat="41.819753209075344" lon="1.6122525511657033"><ele>733.0</ele><time>2026-04-25T09:34:33Z</time></trkpt><trkpt lat="41.81989221534376" lon="1.6123759947762175"><ele>733.0</ele><time>2026-04-25T09:34:34Z</time></trkpt><trkpt lat="41.820031981743114" lon="1.6125040097551164"><ele>733.0</ele><time>2026-04-25T09:34:35Z</time></trkpt><trkpt lat="41.82016876437924" lon="1.6126314724806388"><ele>732.3333333333334</ele><time>2026-04-25T09:34:36Z</time></trkpt><trkpt lat="41.82030831912023" lon="1.6127603959000145"><ele>731.6666666666666</ele><time>2026-04-25T09:34:37Z</time></trkpt><trkpt lat="41.820447136294035" lon="1.6128958105045488"><ele>731.0</ele><time>2026-04-25T09:34:38Z</time></trkpt><trkpt lat="41.820579823584595" lon="1.6130252461160137"><ele>729.3333333333333</ele><time>2026-04-25T09:34:39Z</time></trkpt><trkpt lat="41.82070824529976" lon="1.6131536150995207"><ele>727.6666666666666</ele><time>2026-04-25T09:34:40Z</time></trkpt><trkpt lat="41.82084068098932" lon="1.6132671629439834"><ele>726.0</ele><time>2026-04-25T09:34:41Z</time></trkpt><trkpt lat="41.82098841663917" lon="1.613361869902889"><ele>723.3333333333334</ele><time>2026-04-25T09:34:42Z</time></trkpt><trkpt lat="41.8211415110625" lon="1.6134255277649436"><ele>720.6666666666667</ele><time>2026-04-25T09:34:43Z</time></trkpt><trkpt lat="41.82128965476763" lon="1.6134673377080821"><ele>718.0</ele><time>2026-04-25T09:34:44Z</time></trkpt><trkpt lat="41.82143956019786" lon="1.6134731187829319"><ele>718.0</ele><time>2026-04-25T09:34:45Z</time></trkpt><trkpt lat="41.82159505277557" lon="1.613435946427499"><ele>718.0</ele><time>2026-04-25T09:34:46Z</time></trkpt><trkpt lat="41.821761297453946" lon="1.6133880516610428"><ele>718.0</ele><time>2026-04-25T09:34:47Z</time></trkpt><trkpt lat="41.821930453426944" lon="1.6133457057645793"><ele>716.0</ele><time>2026-04-25T09:34:48Z</time></trkpt><trkpt lat="41.822085850329984" lon="1.6133073380487695"><ele>714.0</ele><time>2026-04-25T09:34:49Z</time></trkpt><trkpt lat="41.82222359219398" lon="1.6132793727355792"><ele>712.0</ele><time>2026-04-25T09:34:50Z</time></trkpt><trkpt lat="41.82237068201073" lon="1.6132779415603848"><ele>710.0</ele><time>2026-04-25T09:34:51Z</time></trkpt><trkpt lat="41.82251726134597" lon="1.6133497305700215"><ele>708.3333333333333</ele><time>2026-04-25T09:34:52Z</time></trkpt><trkpt lat="41.822700438599554" lon="1.6133886911835142"><ele>706.6666666666666</ele><time>2026-04-25T09:34:53Z</time></trkpt><trkpt lat="41.82288281100484" lon="1.6134413661560383"><ele>705.0</ele><time>2026-04-25T09:34:54Z</time></trkpt><trkpt lat="41.82308213903451" lon="1.613487124875431"><ele>705.0</ele><time>2026-04-25T09:34:55Z</time></trkpt><trkpt lat="41.82327828876924" lon="1.6135397262739812"><ele>705.0</ele><time>2026-04-25T09:34:56Z</time></trkpt><trkpt lat="41.823457485265386" lon="1.6135961030034534"><ele>705.0</ele><time>2026-04-25T09:34:57Z</time></trkpt><trkpt lat="41.823634273212974" lon="1.6136467152877012"><ele>705.0</ele><time>2026-04-25T09:34:58Z</time></trkpt><trkpt lat="41.823810548246406" lon="1.6136793401979102"><ele>705.0</ele><time>2026-04-25T09:34:59Z</time></trkpt><trkpt lat="41.82397373364083" lon="1.6137058198965464"><ele>705.0</ele><time>2026-04-25T09:35:00Z</time></trkpt><trkpt lat="41.824126469614335" lon="1.613736732471056"><ele>705.0</ele><time>2026-04-25T09:35:01Z</time></trkpt><trkpt lat="41.824261735595904" lon="1.6137702761697132"><ele>705.0</ele><time>2026-04-25T09:35:02Z</time></trkpt><trkpt lat="41.82436637240583" lon="1.6138026556446439"><ele>705.0</ele><time>2026-04-25T09:35:03Z</time></trkpt><trkpt lat="41.8244449700336" lon="1.613872829343444"><ele>705.0</ele><time>2026-04-25T09:35:04Z</time></trkpt><trkpt lat="41.824524028028044" lon="1.6139579871720124"><ele>705.0</ele><time>2026-04-25T09:35:05Z</time></trkpt><trkpt lat="41.824610619194864" lon="1.6140826362544127"><ele>703.6666666666666</ele><time>2026-04-25T09:35:06Z</time></trkpt><trkpt lat="41.82471610630492" lon="1.6142248243530806"><ele>702.3333333333333</ele><time>2026-04-25T09:35:07Z</time></trkpt><trkpt lat="41.824821895126014" lon="1.6143958688936608"><ele>701.0</ele><time>2026-04-25T09:35:08Z</time></trkpt><trkpt lat="41.82492218272829" lon="1.614603003010256"><ele>701.0</ele><time>2026-04-25T09:35:09Z</time></trkpt><trkpt lat="41.82503901783278" lon="1.6148150792516178"><ele>701.0</ele><time>2026-04-25T09:35:10Z</time></trkpt><trkpt lat="41.825143071169926" lon="1.6150316046346764"><ele>701.0</ele><time>2026-04-25T09:35:11Z</time></trkpt><trkpt lat="41.825237369486594" lon="1.615249836110188"><ele>698.6666666666666</ele><time>2026-04-25T09:35:12Z</time></trkpt><trkpt lat="41.82531998353258" lon="1.6154620873287813"><ele>696.3333333333334</ele><time>2026-04-25T09:35:13Z</time></trkpt><trkpt lat="41.82540409718489" lon="1.6156533004156965"><ele>694.0</ele><time>2026-04-25T09:35:14Z</time></trkpt><trkpt lat="41.82546799145039" lon="1.6158433984709948"><ele>694.0</ele><time>2026-04-25T09:35:15Z</time></trkpt><trkpt lat="41.825533963247985" lon="1.616015768422397"><ele>694.0</ele><time>2026-04-25T09:35:16Z</time></trkpt><trkpt lat="41.825613028094324" lon="1.6161734618231824"><ele>694.0</ele><time>2026-04-25T09:35:17Z</time></trkpt><trkpt lat="41.82572083019569" lon="1.6163100998907924"><ele>694.0</ele><time>2026-04-25T09:35:18Z</time></trkpt><trkpt lat="41.82586054599096" lon="1.616412104335977"><ele>693.75</ele><time>2026-04-25T09:35:19Z</time></trkpt><trkpt lat="41.8259994465704" lon="1.6164975916217263"><ele>693.5</ele><time>2026-04-25T09:35:20Z</time></trkpt><trkpt lat="41.826121567284616" lon="1.6165467270745297"><ele>693.25</ele><time>2026-04-25T09:35:21Z</time></trkpt><trkpt lat="41.826251646282564" lon="1.6165464623965256"><ele>693.0</ele><time>2026-04-25T09:35:22Z</time></trkpt><trkpt lat="41.82638422967073" lon="1.6165013037667118"><ele>693.0</ele><time>2026-04-25T09:35:23Z</time></trkpt><trkpt lat="41.82651433231078" lon="1.616463631013646"><ele>693.0</ele><time>2026-04-25T09:35:24Z</time></trkpt><trkpt lat="41.82662998536465" lon="1.6164288517563794"><ele>693.0</ele><time>2026-04-25T09:35:25Z</time></trkpt><trkpt lat="41.82672232643488" lon="1.6163496243242492"><ele>693.0</ele><time>2026-04-25T09:35:26Z</time></trkpt><trkpt lat="41.82679245550528" lon="1.6162149827604073"><ele>687.25</ele><time>2026-04-25T09:35:27Z</time></trkpt><trkpt lat="41.826867548978065" lon="1.6160793547999883"><ele>681.5</ele><time>2026-04-25T09:35:28Z</time></trkpt><trkpt lat="41.826959231775355" lon="1.6159711346897223"><ele>675.75</ele><time>2026-04-25T09:35:29Z</time></trkpt><trkpt lat="41.827077355177714" lon="1.6159366715004144"><ele>670.0</ele><time>2026-04-25T09:35:30Z</time></trkpt><trkpt lat="41.82720925023309" lon="1.6159459338739806"><ele>670.0</ele><time>2026-04-25T09:35:31Z</time></trkpt><trkpt lat="41.827338518151294" lon="1.615991895485861"><ele>670.0</ele><time>2026-04-25T09:35:32Z</time></trkpt><trkpt lat="41.82744432224974" lon="1.616078769169022"><ele>670.0</ele><time>2026-04-25T09:35:33Z</time></trkpt><trkpt lat="41.82753312907065" lon="1.6162001625668154"><ele>670.0</ele><time>2026-04-25T09:35:34Z</time></trkpt><trkpt lat="41.827623058648555" lon="1.616297006578139"><ele>669.75</ele><time>2026-04-25T09:35:35Z</time></trkpt><trkpt lat="41.827735715717715" lon="1.6163450379760993"><ele>669.5</ele><time>2026-04-25T09:35:36Z</time></trkpt><trkpt lat="41.82786583442886" lon="1.6163359770867782"><ele>669.25</ele><time>2026-04-25T09:35:37Z</time></trkpt><trkpt lat="41.828007400216855" lon="1.6163533623395308"><ele>669.0</ele><time>2026-04-25T09:35:38Z</time></trkpt><trkpt lat="41.82812753052865" lon="1.6164127162942499"><ele>669.0</ele><time>2026-04-25T09:35:39Z</time></trkpt><trkpt lat="41.828236150856085" lon="1.6165248586671352"><ele>669.0</ele><time>2026-04-25T09:35:40Z</time></trkpt><trkpt lat="41.82835451486802" lon="1.6166265918929974"><ele>669.0</ele><time>2026-04-25T09:35:41Z</time></trkpt><trkpt lat="41.82848886493148" lon="1.6167083382762142"><ele>669.0</ele><time>2026-04-25T09:35:42Z</time></trkpt><trkpt lat="41.82862139549661" lon="1.6167565274753462"><ele>665.75</ele><time>2026-04-25T09:35:43Z</time></trkpt><trkpt lat="41.82874245620177" lon="1.6167863717816764"><ele>662.5</ele><time>2026-04-25T09:35:44Z</time></trkpt><trkpt lat="41.82884336632192" lon="1.6168220780778695"><ele>659.25</ele><time>2026-04-25T09:35:45Z</time></trkpt><trkpt lat="41.82895104402016" lon="1.616697572198463"><ele>656.0</ele><time>2026-04-25T09:35:46Z</time></trkpt><trkpt lat="41.829041891281385" lon="1.6165362708079167"><ele>656.0</ele><time>2026-04-25T09:35:47Z</time></trkpt><trkpt lat="41.829133414911816" lon="1.6163503547399387"><ele>656.0</ele><time>2026-04-25T09:35:48Z</time></trkpt><trkpt lat="41.8292334675052" lon="1.6161843590812697"><ele>656.0</ele><time>2026-04-25T09:35:49Z</time></trkpt><trkpt lat="41.82933453155742" lon="1.6160324869159424"><ele>651.5</ele><time>2026-04-25T09:35:50Z</time></trkpt><trkpt lat="41.82942517974472" lon="1.6158856520213127"><ele>647.0</ele><time>2026-04-25T09:35:51Z</time></trkpt><trkpt lat="41.829493547503155" lon="1.6157418523856288"><ele>642.5</ele><time>2026-04-25T09:35:52Z</time></trkpt><trkpt lat="41.82956374015372" lon="1.6156224984471825"><ele>638.0</ele><time>2026-04-25T09:35:53Z</time></trkpt><trkpt lat="41.82967484099361" lon="1.6155591244038863"><ele>638.0</ele><time>2026-04-25T09:35:54Z</time></trkpt><trkpt lat="41.82979701954826" lon="1.6155531226469715"><ele>638.0</ele><time>2026-04-25T09:35:55Z</time></trkpt><trkpt lat="41.82994051101045" lon="1.6155646045391325"><ele>638.0</ele><time>2026-04-25T09:35:56Z</time></trkpt><trkpt lat="41.830076990011435" lon="1.615601426705893"><ele>638.0</ele><time>2026-04-25T09:35:57Z</time></trkpt><trkpt lat="41.83018777169196" lon="1.6156906294935676"><ele>633.25</ele><time>2026-04-25T09:35:58Z</time></trkpt><trkpt lat="41.8302806405561" lon="1.615821026079984"><ele>628.5</ele><time>2026-04-25T09:35:59Z</time></trkpt><trkpt lat="41.830375510381536" lon="1.6159717034365852"><ele>623.75</ele><time>2026-04-25T09:36:00Z</time></trkpt><trkpt lat="41.830454514654114" lon="1.6161276267798963"><ele>619.0</ele><time>2026-04-25T09:36:01Z</time></trkpt><trkpt lat="41.83053989376233" lon="1.616266405795269"><ele>619.0</ele><time>2026-04-25T09:36:02Z</time></trkpt><trkpt lat="41.830605304805644" lon="1.6163874851243683"><ele>619.0</ele><time>2026-04-25T09:36:03Z</time></trkpt><trkpt lat="41.83069208917122" lon="1.616473164730988"><ele>619.0</ele><time>2026-04-25T09:36:04Z</time></trkpt><trkpt lat="41.83082002765119" lon="1.6165321883908021"><ele>619.0</ele><time>2026-04-25T09:36:05Z</time></trkpt><trkpt lat="41.83096553969021" lon="1.6165735966843564"><ele>615.6666666666667</ele><time>2026-04-25T09:36:06Z</time></trkpt><trkpt lat="41.83111256665866" lon="1.6166321610004961"><ele>612.3333333333334</ele><time>2026-04-25T09:36:07Z</time></trkpt><trkpt lat="41.8312428838832" lon="1.6167643691430844"><ele>609.0</ele><time>2026-04-25T09:36:08Z</time></trkpt><trkpt lat="41.8313888914904" lon="1.6168960171862183"><ele>608.3333333333334</ele><time>2026-04-25T09:36:09Z</time></trkpt><trkpt lat="41.831539697582144" lon="1.6170168277122754"><ele>607.6666666666667</ele><time>2026-04-25T09:36:10Z</time></trkpt><trkpt lat="41.83166277026759" lon="1.6171465064629076"><ele>607.0</ele><time>2026-04-25T09:36:11Z</time></trkpt><trkpt lat="41.831785657921664" lon="1.6172679953442026"><ele>607.0</ele><time>2026-04-25T09:36:12Z</time></trkpt><trkpt lat="41.831894344351504" lon="1.617376481052377"><ele>607.0</ele><time>2026-04-25T09:36:13Z</time></trkpt><trkpt lat="41.83200843662986" lon="1.6174595960073"><ele>607.0</ele><time>2026-04-25T09:36:14Z</time></trkpt><trkpt lat="41.832146970460876" lon="1.617499601967268"><ele>607.0</ele><time>2026-04-25T09:36:15Z</time></trkpt><trkpt lat="41.83230345839862" lon="1.6175041564726873"><ele>607.0</ele><time>2026-04-25T09:36:16Z</time></trkpt><trkpt lat="41.832462058822415" lon="1.6175125201465643"><ele>607.0</ele><time>2026-04-25T09:36:17Z</time></trkpt><trkpt lat="41.832628228936215" lon="1.6174941275172434"><ele>607.0</ele><time>2026-04-25T09:36:18Z</time></trkpt><trkpt lat="41.83279762035727" lon="1.6174673241301702"><ele>605.75</ele><time>2026-04-25T09:36:19Z</time></trkpt><trkpt lat="41.83296195892305" lon="1.6174496423174285"><ele>604.5</ele><time>2026-04-25T09:36:20Z</time></trkpt><trkpt lat="41.83310809795834" lon="1.6174536411449485"><ele>603.25</ele><time>2026-04-25T09:36:21Z</time></trkpt><trkpt lat="41.83324234825434" lon="1.6174661568076572"><ele>602.0</ele><time>2026-04-25T09:36:22Z</time></trkpt><trkpt lat="41.83335016526269" lon="1.617540830552459"><ele>602.0</ele><time>2026-04-25T09:36:23Z</time></trkpt><trkpt lat="41.8334573695394" lon="1.6176472648574933"><ele>602.0</ele><time>2026-04-25T09:36:24Z</time></trkpt><trkpt lat="41.83358456320165" lon="1.617744829364201"><ele>602.0</ele><time>2026-04-25T09:36:25Z</time></trkpt><trkpt lat="41.83371876634205" lon="1.6178681378597275"><ele>602.0</ele><time>2026-04-25T09:36:26Z</time></trkpt><trkpt lat="41.83388231235119" lon="1.6179935650080508"><ele>600.0</ele><time>2026-04-25T09:36:27Z</time></trkpt><trkpt lat="41.83405523981262" lon="1.6181184290922441"><ele>598.0</ele><time>2026-04-25T09:36:28Z</time></trkpt><trkpt lat="41.834219220055985" lon="1.618237867155262"><ele>596.0</ele><time>2026-04-25T09:36:29Z</time></trkpt><trkpt lat="41.83437148874876" lon="1.618354002384888"><ele>594.6666666666666</ele><time>2026-04-25T09:36:30Z</time></trkpt><trkpt lat="41.834526646474075" lon="1.6184697585886338"><ele>593.3333333333334</ele><time>2026-04-25T09:36:31Z</time></trkpt><trkpt lat="41.83468818469349" lon="1.6185767231323542"><ele>592.0</ele><time>2026-04-25T09:36:32Z</time></trkpt><trkpt lat="41.83485909055776" lon="1.6186625720805385"><ele>591.6666666666667</ele><time>2026-04-25T09:36:33Z</time></trkpt><trkpt lat="41.83503956357415" lon="1.6187374043408438"><ele>591.3333333333334</ele><time>2026-04-25T09:36:34Z</time></trkpt><trkpt lat="41.83521803044721" lon="1.6188090601163547"><ele>591.0</ele><time>2026-04-25T09:36:35Z</time></trkpt><trkpt lat="41.835379381824154" lon="1.6188790752501114"><ele>591.0</ele><time>2026-04-25T09:36:36Z</time></trkpt><trkpt lat="41.83553639876583" lon="1.6189613557293934"><ele>591.0</ele><time>2026-04-25T09:36:37Z</time></trkpt><trkpt lat="41.83567226140887" lon="1.6190908529951547"><ele>591.0</ele><time>2026-04-25T09:36:38Z</time></trkpt><trkpt lat="41.835801473359034" lon="1.6192450480986902"><ele>591.0</ele><time>2026-04-25T09:36:39Z</time></trkpt><trkpt lat="41.835943981484895" lon="1.6194030358679188"><ele>591.0</ele><time>2026-04-25T09:36:40Z</time></trkpt><trkpt lat="41.8360731248337" lon="1.6195801085895358"><ele>591.0</ele><time>2026-04-25T09:36:41Z</time></trkpt><trkpt lat="41.83621837117368" lon="1.619741746211177"><ele>591.3333333333334</ele><time>2026-04-25T09:36:42Z</time></trkpt><trkpt lat="41.83636864430644" lon="1.619891877632809"><ele>591.6666666666667</ele><time>2026-04-25T09:36:43Z</time></trkpt><trkpt lat="41.836510854146795" lon="1.6200260618641211"><ele>592.0</ele><time>2026-04-25T09:36:44Z</time></trkpt><trkpt lat="41.836632885256186" lon="1.6201601491404052"><ele>592.0</ele><time>2026-04-25T09:36:45Z</time></trkpt><trkpt lat="41.836731334337266" lon="1.6202936274562951"><ele>592.0</ele><time>2026-04-25T09:36:46Z</time></trkpt><trkpt lat="41.83676127311991" lon="1.6204581533992266"><ele>592.0</ele><time>2026-04-25T09:36:47Z</time></trkpt><trkpt lat="41.836802668438835" lon="1.6206432757462972"><ele>592.0</ele><time>2026-04-25T09:36:48Z</time></trkpt><trkpt lat="41.836846778086986" lon="1.6208528479711946"><ele>593.0</ele><time>2026-04-25T09:36:49Z</time></trkpt><trkpt lat="41.83687970505785" lon="1.6210708553151827"><ele>594.0</ele><time>2026-04-25T09:36:50Z</time></trkpt><trkpt lat="41.83690050661408" lon="1.6212737033687628"><ele>595.0</ele><time>2026-04-25T09:36:51Z</time></trkpt><trkpt lat="41.83693215767875" lon="1.62145333889435"><ele>593.5</ele><time>2026-04-25T09:36:52Z</time></trkpt><trkpt lat="41.836960472010816" lon="1.6216133260551677"><ele>592.0</ele><time>2026-04-25T09:36:53Z</time></trkpt><trkpt lat="41.83701741766624" lon="1.6217635897495204"><ele>590.5</ele><time>2026-04-25T09:36:54Z</time></trkpt><trkpt lat="41.837102750051855" lon="1.6219126427895671"><ele>589.0</ele><time>2026-04-25T09:36:55Z</time></trkpt><trkpt lat="41.83721231355486" lon="1.6220615718769549"><ele>586.0</ele><time>2026-04-25T09:36:56Z</time></trkpt><trkpt lat="41.837337563024725" lon="1.6222223979416146"><ele>583.0</ele><time>2026-04-25T09:36:57Z</time></trkpt><trkpt lat="41.83746600784317" lon="1.6223986117642561"><ele>580.0</ele><time>2026-04-25T09:36:58Z</time></trkpt><trkpt lat="41.837594518768256" lon="1.622589420545754"><ele>576.0</ele><time>2026-04-25T09:36:59Z</time></trkpt><trkpt lat="41.837722711346586" lon="1.622781525516293"><ele>572.0</ele><time>2026-04-25T09:37:00Z</time></trkpt><trkpt lat="41.83785905984991" lon="1.6229792282499012"><ele>568.0</ele><time>2026-04-25T09:37:01Z</time></trkpt><trkpt lat="41.837993445925335" lon="1.6231754395623295"><ele>568.0</ele><time>2026-04-25T09:37:02Z</time></trkpt><trkpt lat="41.8381261588376" lon="1.6233657413757605"><ele>568.0</ele><time>2026-04-25T09:37:03Z</time></trkpt><trkpt lat="41.83826049052938" lon="1.6235495107585927"><ele>568.0</ele><time>2026-04-25T09:37:04Z</time></trkpt><trkpt lat="41.83838891850636" lon="1.6237241782037504"><ele>564.3333333333334</ele><time>2026-04-25T09:37:05Z</time></trkpt><trkpt lat="41.83850904481487" lon="1.623898716352154"><ele>560.6666666666666</ele><time>2026-04-25T09:37:06Z</time></trkpt><trkpt lat="41.83863656042957" lon="1.6240780145427731"><ele>557.0</ele><time>2026-04-25T09:37:07Z</time></trkpt><trkpt lat="41.83876529319097" lon="1.6242523088334018"><ele>557.0</ele><time>2026-04-25T09:37:08Z</time></trkpt><trkpt lat="41.83888380924366" lon="1.6244229383306699"><ele>557.0</ele><time>2026-04-25T09:37:09Z</time></trkpt><trkpt lat="41.838957432755045" lon="1.6246188992989863"><ele>557.0</ele><time>2026-04-25T09:37:10Z</time></trkpt><trkpt lat="41.83902749632311" lon="1.6248254221647807"><ele>557.3333333333333</ele><time>2026-04-25T09:37:11Z</time></trkpt><trkpt lat="41.83908034339505" lon="1.6250508705915114"><ele>557.6666666666666</ele><time>2026-04-25T09:37:12Z</time></trkpt><trkpt lat="41.83912385231794" lon="1.6252526332024544"><ele>558.0</ele><time>2026-04-25T09:37:13Z</time></trkpt><trkpt lat="41.83918684208623" lon="1.6254422987930977"><ele>556.5</ele><time>2026-04-25T09:37:14Z</time></trkpt><trkpt lat="41.83926826898027" lon="1.6256276897881723"><ele>555.0</ele><time>2026-04-25T09:37:15Z</time></trkpt><trkpt lat="41.83934542550249" lon="1.6258008333873883"><ele>553.5</ele><time>2026-04-25T09:37:16Z</time></trkpt><trkpt lat="41.839405200583606" lon="1.625941409152033"><ele>552.0</ele><time>2026-04-25T09:37:17Z</time></trkpt><trkpt lat="41.839434146203786" lon="1.6260754580705898"><ele>552.0</ele><time>2026-04-25T09:37:18Z</time></trkpt><trkpt lat="41.839438883856054" lon="1.626202205436435"><ele>552.0</ele><time>2026-04-25T09:37:19Z</time></trkpt><trkpt lat="41.839463327122985" lon="1.6262894788124802"><ele>552.0</ele><time>2026-04-25T09:37:20Z</time></trkpt><trkpt lat="41.83916511876247" lon="1.6265258395466844"><ele>551.0</ele><time>2026-04-25T09:37:22Z</time></trkpt><trkpt lat="41.83909279911031" lon="1.626635527555508"><ele>550.0</ele><time>2026-04-25T09:37:23Z</time></trkpt><trkpt lat="41.839056458071404" lon="1.6267815175392284"><ele>549.0</ele><time>2026-04-25T09:37:24Z</time></trkpt><trkpt lat="41.83905358757551" lon="1.6269601481976523"><ele>548.0</ele><time>2026-04-25T09:37:25Z</time></trkpt><trkpt lat="41.83908568697211" lon="1.6271378877978222"><ele>548.75</ele><time>2026-04-25T09:37:26Z</time></trkpt><trkpt lat="41.83914516992597" lon="1.62729390081804"><ele>549.5</ele><time>2026-04-25T09:37:27Z</time></trkpt><trkpt lat="41.83923276077225" lon="1.6274096458883862"><ele>550.25</ele><time>2026-04-25T09:37:28Z</time></trkpt><trkpt lat="41.83934535712656" lon="1.6274768958937282"><ele>551.0</ele><time>2026-04-25T09:37:29Z</time></trkpt><trkpt lat="41.839449032157276" lon="1.6275659675128853"><ele>551.0</ele><time>2026-04-25T09:37:30Z</time></trkpt><trkpt lat="41.83952501014428" lon="1.6277231963036385"><ele>551.0</ele><time>2026-04-25T09:37:31Z</time></trkpt><trkpt lat="41.83960007988995" lon="1.6279120606716069"><ele>551.0</ele><time>2026-04-25T09:37:32Z</time></trkpt><trkpt lat="41.839685332613236" lon="1.62809591992119"><ele>547.5</ele><time>2026-04-25T09:37:33Z</time></trkpt><trkpt lat="41.83976375118132" lon="1.6282474790628478"><ele>544.0</ele><time>2026-04-25T09:37:34Z</time></trkpt><trkpt lat="41.83984552193968" lon="1.6283858985478683"><ele>540.5</ele><time>2026-04-25T09:37:35Z</time></trkpt><trkpt lat="41.83994684634774" lon="1.62850306320663"><ele>537.0</ele><time>2026-04-25T09:37:36Z</time></trkpt><trkpt lat="41.84005923324707" lon="1.6286030069263793"><ele>535.25</ele><time>2026-04-25T09:37:37Z</time></trkpt><trkpt lat="41.8401583933214" lon="1.6287219660929828"><ele>533.5</ele><time>2026-04-25T09:37:38Z</time></trkpt><trkpt lat="41.84023155724805" lon="1.6288753076418896"><ele>531.75</ele><time>2026-04-25T09:37:39Z</time></trkpt><trkpt lat="41.840321184612925" lon="1.6290147736128253"><ele>530.0</ele><time>2026-04-25T09:37:40Z</time></trkpt><trkpt lat="41.84044037633507" lon="1.629122811847649"><ele>530.0</ele><time>2026-04-25T09:37:41Z</time></trkpt><trkpt lat="41.840564921980146" lon="1.629221074067748"><ele>530.0</ele><time>2026-04-25T09:37:42Z</time></trkpt><trkpt lat="41.84069539214592" lon="1.6293035459423746"><ele>530.0</ele><time>2026-04-25T09:37:43Z</time></trkpt><trkpt lat="41.84083154077935" lon="1.6293654397547226"><ele>530.0</ele><time>2026-04-25T09:37:44Z</time></trkpt><trkpt lat="41.84096558542917" lon="1.629412808483218"><ele>528.25</ele><time>2026-04-25T09:37:45Z</time></trkpt><trkpt lat="41.84110261483052" lon="1.6294365963674884"><ele>526.5</ele><time>2026-04-25T09:37:46Z</time></trkpt><trkpt lat="41.84124812839479" lon="1.6294241264077747"><ele>524.75</ele><time>2026-04-25T09:37:47Z</time></trkpt><trkpt lat="41.84139506925952" lon="1.629411534738578"><ele>523.0</ele><time>2026-04-25T09:37:48Z</time></trkpt><trkpt lat="41.84154564822304" lon="1.6294383323671329"><ele>516.3333333333334</ele><time>2026-04-25T09:37:49Z</time></trkpt><trkpt lat="41.841693691089475" lon="1.629501255018117"><ele>509.66666666666663</ele><time>2026-04-25T09:37:50Z</time></trkpt><trkpt lat="41.84184492260385" lon="1.6295665367084433"><ele>503.0</ele><time>2026-04-25T09:37:51Z</time></trkpt><trkpt lat="41.84199366571635" lon="1.6296166216078105"><ele>502.75</ele><time>2026-04-25T09:37:52Z</time></trkpt><trkpt lat="41.842130331413784" lon="1.6296455807663484"><ele>502.5</ele><time>2026-04-25T09:37:53Z</time></trkpt><trkpt lat="41.84226674389987" lon="1.6296491879070791"><ele>502.25</ele><time>2026-04-25T09:37:54Z</time></trkpt><trkpt lat="41.84239695421906" lon="1.6296400243908318"><ele>502.0</ele><time>2026-04-25T09:37:55Z</time></trkpt><trkpt lat="41.84251442646048" lon="1.6296515298452052"><ele>502.0</ele><time>2026-04-25T09:37:56Z</time></trkpt><trkpt lat="41.84262685235388" lon="1.6297021735981514"><ele>502.0</ele><time>2026-04-25T09:37:57Z</time></trkpt><trkpt lat="41.842727070802546" lon="1.629822363542198"><ele>502.0</ele><time>2026-04-25T09:37:58Z</time></trkpt><trkpt lat="41.842855203080504" lon="1.6299352397965616"><ele>502.0</ele><time>2026-04-25T09:37:59Z</time></trkpt><trkpt lat="41.8429829845686" lon="1.630074390204523"><ele>499.75</ele><time>2026-04-25T09:38:00Z</time></trkpt><trkpt lat="41.84310119301961" lon="1.6301868405956141"><ele>497.5</ele><time>2026-04-25T09:38:01Z</time></trkpt><trkpt lat="41.84322075309826" lon="1.6302883336778016"><ele>495.25</ele><time>2026-04-25T09:38:02Z</time></trkpt><trkpt lat="41.843327712746344" lon="1.6303997487738144"><ele>493.0</ele><time>2026-04-25T09:38:03Z</time></trkpt><trkpt lat="41.84339106393554" lon="1.6305544062103532"><ele>493.00000000000006</ele><time>2026-04-25T09:38:04Z</time></trkpt><trkpt lat="41.8434547705925" lon="1.6306887436306905"><ele>493.0</ele><time>2026-04-25T09:38:05Z</time></trkpt><trkpt lat="41.84351373718794" lon="1.630791102445146"><ele>493.0</ele><time>2026-04-25T09:38:06Z</time></trkpt><trkpt lat="41.84353805019732" lon="1.6308759499500136"><ele>493.0</ele><time>2026-04-25T09:38:07Z</time></trkpt><trkpt lat="41.843577983690864" lon="1.6309415055656873"><ele>493.00000000000006</ele><time>2026-04-25T09:38:09Z</time></trkpt><trkpt lat="41.84366065653854" lon="1.6308972492766232"><ele>493.0</ele><time>2026-04-25T09:38:12Z</time></trkpt><trkpt lat="41.8437244455942" lon="1.6308284675906115"><ele>492.0</ele><time>2026-04-25T09:38:14Z</time></trkpt><trkpt lat="41.84383608758015" lon="1.6307915495077416"><ele>490.99999999999994</ele><time>2026-04-25T09:38:16Z</time></trkpt><trkpt lat="41.84393811064972" lon="1.6307532812388223"><ele>489.99999999999994</ele><time>2026-04-25T09:38:18Z</time></trkpt><trkpt lat="41.8440174450361" lon="1.6307171838790537"><ele>489.0</ele><time>2026-04-25T09:38:20Z</time></trkpt><trkpt lat="41.84408042940458" lon="1.6306715031997892"><ele>488.0</ele><time>2026-04-25T09:38:29Z</time></trkpt><trkpt lat="41.844084378728716" lon="1.6305052092948429"><ele>488.0</ele><time>2026-04-25T09:38:32Z</time></trkpt><trkpt lat="41.84404570549232" lon="1.6304133903163358"><ele>487.99999999999994</ele><time>2026-04-25T09:38:33Z</time></trkpt><trkpt lat="41.844003018553515" lon="1.6303035428296382"><ele>487.99999999999994</ele><time>2026-04-25T09:38:34Z</time></trkpt><trkpt lat="41.843957867800135" lon="1.6301808204924266"><ele>488.0</ele><time>2026-04-25T09:38:35Z</time></trkpt><trkpt lat="41.84392484261664" lon="1.6300242355113632"><ele>488.0</ele><time>2026-04-25T09:38:36Z</time></trkpt><trkpt lat="41.843870796644296" lon="1.6298625419953006"><ele>490.66666666666663</ele><time>2026-04-25T09:38:37Z</time></trkpt><trkpt lat="41.843806787628665" lon="1.629688472589904"><ele>493.33333333333337</ele><time>2026-04-25T09:38:38Z</time></trkpt><trkpt lat="41.84372281230948" lon="1.6295087634616443"><ele>496.0</ele><time>2026-04-25T09:38:39Z</time></trkpt><trkpt lat="41.84363897464627" lon="1.629307945737949"><ele>494.33333333333337</ele><time>2026-04-25T09:38:40Z</time></trkpt><trkpt lat="41.84355250338466" lon="1.6290888453535757"><ele>492.66666666666663</ele><time>2026-04-25T09:38:41Z</time></trkpt><trkpt lat="41.84341582283512" lon="1.6289187512918477"><ele>491.0</ele><time>2026-04-25T09:38:42Z</time></trkpt><trkpt lat="41.84329388185803" lon="1.628716436425433"><ele>492.66666666666663</ele><time>2026-04-25T09:38:43Z</time></trkpt><trkpt lat="41.84318584896485" lon="1.6284920662187952"><ele>494.33333333333337</ele><time>2026-04-25T09:38:44Z</time></trkpt><trkpt lat="41.84308923169652" lon="1.6282451098691817"><ele>496.0</ele><time>2026-04-25T09:38:45Z</time></trkpt><trkpt lat="41.84298470209466" lon="1.6279604799304956"><ele>499.0</ele><time>2026-04-25T09:38:46Z</time></trkpt><trkpt lat="41.84285497094924" lon="1.627665055161585"><ele>502.0</ele><time>2026-04-25T09:38:47Z</time></trkpt><trkpt lat="41.84270265010072" lon="1.6273580403921541"><ele>501.5</ele><time>2026-04-25T09:38:48Z</time></trkpt><trkpt lat="41.84254009347403" lon="1.627028529343496"><ele>501.0</ele><time>2026-04-25T09:38:49Z</time></trkpt><trkpt lat="41.84237846948919" lon="1.6266852730458132"><ele>501.0</ele><time>2026-04-25T09:38:50Z</time></trkpt><trkpt lat="41.842273116558644" lon="1.6263080560778331"><ele>501.0</ele><time>2026-04-25T09:38:51Z</time></trkpt><trkpt lat="41.84218559321755" lon="1.6261081026909112"><ele>506.5</ele><time>2026-04-25T09:38:52Z</time></trkpt><trkpt lat="41.84208716598777" lon="1.625805177524085"><ele>512.0</ele><time>2026-04-25T09:38:53Z</time></trkpt><trkpt lat="41.8420042171795" lon="1.6255245446398972"><ele>514.6666666666666</ele><time>2026-04-25T09:38:54Z</time></trkpt><trkpt lat="41.8419284432261" lon="1.6252534241353622"><ele>517.3333333333334</ele><time>2026-04-25T09:38:55Z</time></trkpt><trkpt lat="41.841838909851106" lon="1.6249945503129992"><ele>520.0</ele><time>2026-04-25T09:38:56Z</time></trkpt><trkpt lat="41.84171965340357" lon="1.6247420699787"><ele>513.0</ele><time>2026-04-25T09:38:57Z</time></trkpt><trkpt lat="41.84157637920547" lon="1.6244897052228546"><ele>506.0</ele><time>2026-04-25T09:38:58Z</time></trkpt><trkpt lat="41.84144048103654" lon="1.6242559806513008"><ele>506.0</ele><time>2026-04-25T09:38:59Z</time></trkpt><trkpt lat="41.841313470086234" lon="1.624049027621279"><ele>506.0</ele><time>2026-04-25T09:39:00Z</time></trkpt><trkpt lat="41.841187315134725" lon="1.6238654274550957"><ele>506.0</ele><time>2026-04-25T09:39:01Z</time></trkpt><trkpt lat="41.84107328704682" lon="1.6236672138411943"><ele>508.0</ele><time>2026-04-25T09:39:02Z</time></trkpt><trkpt lat="41.840991292555685" lon="1.6234331806567452"><ele>510.0</ele><time>2026-04-25T09:39:03Z</time></trkpt><trkpt lat="41.840959293650215" lon="1.6231438557763296"><ele>512.0</ele><time>2026-04-25T09:39:04Z</time></trkpt><trkpt lat="41.840913363045146" lon="1.6228424934630612"><ele>508.3333333333333</ele><time>2026-04-25T09:39:05Z</time></trkpt><trkpt lat="41.84088620645309" lon="1.6225915557464288"><ele>504.66666666666663</ele><time>2026-04-25T09:39:06Z</time></trkpt><trkpt lat="41.84086499471011" lon="1.6223637258772483"><ele>501.0</ele><time>2026-04-25T09:39:07Z</time></trkpt><trkpt lat="41.840881931035824" lon="1.622116995659173"><ele>505.33333333333337</ele><time>2026-04-25T09:39:08Z</time></trkpt><trkpt lat="41.84097528231453" lon="1.6218854415052195"><ele>509.6666666666667</ele><time>2026-04-25T09:39:09Z</time></trkpt><trkpt lat="41.84107663101073" lon="1.6216556156756863"><ele>514.0</ele><time>2026-04-25T09:39:10Z</time></trkpt><trkpt lat="41.84119050246904" lon="1.6214129711732155"><ele>514.0</ele><time>2026-04-25T09:39:11Z</time></trkpt><trkpt lat="41.84133819534125" lon="1.6211898227465122"><ele>514.0</ele><time>2026-04-25T09:39:12Z</time></trkpt><trkpt lat="41.84146828333114" lon="1.6209836983775703"><ele>514.0</ele><time>2026-04-25T09:39:13Z</time></trkpt><trkpt lat="41.84157354555513" lon="1.620771177311338"><ele>512.6666666666667</ele><time>2026-04-25T09:39:14Z</time></trkpt><trkpt lat="41.84164350439046" lon="1.6205289692510736"><ele>511.33333333333337</ele><time>2026-04-25T09:39:15Z</time></trkpt><trkpt lat="41.84166708938006" lon="1.620258101009232"><ele>510.0</ele><time>2026-04-25T09:39:16Z</time></trkpt><trkpt lat="41.84165289701856" lon="1.6199764568107937"><ele>510.0</ele><time>2026-04-25T09:39:17Z</time></trkpt><trkpt lat="41.841632341212396" lon="1.619703531008197"><ele>510.0</ele><time>2026-04-25T09:39:18Z</time></trkpt><trkpt lat="41.84162244223468" lon="1.6194221895748993"><ele>510.0</ele><time>2026-04-25T09:39:19Z</time></trkpt><trkpt lat="41.84160581152799" lon="1.6191216696221007"><ele>510.66666666666663</ele><time>2026-04-25T09:39:20Z</time></trkpt><trkpt lat="41.84157952159815" lon="1.618832812768839"><ele>511.3333333333333</ele><time>2026-04-25T09:39:21Z</time></trkpt><trkpt lat="41.84154928520459" lon="1.6185855131593772"><ele>512.0</ele><time>2026-04-25T09:39:22Z</time></trkpt><trkpt lat="41.84150488214393" lon="1.6183614914715405"><ele>512.6666666666666</ele><time>2026-04-25T09:39:23Z</time></trkpt><trkpt lat="41.84141768547381" lon="1.6181330914940597"><ele>513.3333333333334</ele><time>2026-04-25T09:39:24Z</time></trkpt><trkpt lat="41.84127195211289" lon="1.6179028799258597"><ele>514.0</ele><time>2026-04-25T09:39:25Z</time></trkpt><trkpt lat="41.8411006691129" lon="1.6176627607948224"><ele>510.0</ele><time>2026-04-25T09:39:26Z</time></trkpt><trkpt lat="41.840939115399756" lon="1.6174006582399343"><ele>506.0</ele><time>2026-04-25T09:39:27Z</time></trkpt><trkpt lat="41.840790701031594" lon="1.6171248501501365"><ele>507.3333333333333</ele><time>2026-04-25T09:39:28Z</time></trkpt><trkpt lat="41.84064952679371" lon="1.6168801360088907"><ele>508.66666666666663</ele><time>2026-04-25T09:39:29Z</time></trkpt><trkpt lat="41.84050766860754" lon="1.6166750410469999"><ele>510.0</ele><time>2026-04-25T09:39:30Z</time></trkpt><trkpt lat="41.84038499085335" lon="1.6164758901761989"><ele>510.0</ele><time>2026-04-25T09:39:31Z</time></trkpt><trkpt lat="41.840293552385226" lon="1.6162539885089493"><ele>510.0</ele><time>2026-04-25T09:39:32Z</time></trkpt><trkpt lat="41.84023913237969" lon="1.616015149136277"><ele>510.0</ele><time>2026-04-25T09:39:33Z</time></trkpt><trkpt lat="41.84023047292607" lon="1.6157505947709736"><ele>512.0</ele><time>2026-04-25T09:39:34Z</time></trkpt><trkpt lat="41.84024567277294" lon="1.6154710576369964"><ele>514.0</ele><time>2026-04-25T09:39:35Z</time></trkpt><trkpt lat="41.84024658726765" lon="1.6152126074028235"><ele>516.0</ele><time>2026-04-25T09:39:36Z</time></trkpt><trkpt lat="41.840195409550326" lon="1.614989515551081"><ele>514.6666666666666</ele><time>2026-04-25T09:39:37Z</time></trkpt><trkpt lat="41.84010209519432" lon="1.614734880931577"><ele>513.3333333333333</ele><time>2026-04-25T09:39:38Z</time></trkpt><trkpt lat="41.83992553668858" lon="1.6145216932654438"><ele>512.0</ele><time>2026-04-25T09:39:39Z</time></trkpt><trkpt lat="41.83976400273329" lon="1.614325623012922"><ele>512.0</ele><time>2026-04-25T09:39:40Z</time></trkpt><trkpt lat="41.839600512173924" lon="1.6141338658254363"><ele>512.0</ele><time>2026-04-25T09:39:41Z</time></trkpt><trkpt lat="41.8394594708891" lon="1.6139374743988262"><ele>512.0</ele><time>2026-04-25T09:39:42Z</time></trkpt><trkpt lat="41.83932090746435" lon="1.613752927273417"><ele>512.3333333333333</ele><time>2026-04-25T09:39:43Z</time></trkpt><trkpt lat="41.83923850770662" lon="1.6135166186040744"><ele>512.6666666666666</ele><time>2026-04-25T09:39:44Z</time></trkpt><trkpt lat="41.83919732550642" lon="1.6132365641836321"><ele>513.0</ele><time>2026-04-25T09:39:45Z</time></trkpt><trkpt lat="41.83917688314124" lon="1.612942482412343"><ele>515.0</ele><time>2026-04-25T09:39:46Z</time></trkpt><trkpt lat="41.839140715028535" lon="1.612655365706932"><ele>517.0</ele><time>2026-04-25T09:39:47Z</time></trkpt><trkpt lat="41.839097622524854" lon="1.6123769467772722"><ele>519.0</ele><time>2026-04-25T09:39:48Z</time></trkpt><trkpt lat="41.83901418930992" lon="1.612088563503327"><ele>522.0</ele><time>2026-04-25T09:39:49Z</time></trkpt><trkpt lat="41.838911908296524" lon="1.6118300244663168"><ele>525.0</ele><time>2026-04-25T09:39:50Z</time></trkpt><trkpt lat="41.83880239931087" lon="1.611580716021011"><ele>528.0</ele><time>2026-04-25T09:39:51Z</time></trkpt><trkpt lat="41.83870231883828" lon="1.6113608585225443"><ele>531.6666666666666</ele><time>2026-04-25T09:39:52Z</time></trkpt><trkpt lat="41.83862556354364" lon="1.611130378103367"><ele>535.3333333333333</ele><time>2026-04-25T09:39:53Z</time></trkpt><trkpt lat="41.838565362241" lon="1.6108637359761477"><ele>539.0</ele><time>2026-04-25T09:39:54Z</time></trkpt><trkpt lat="41.83850520321806" lon="1.6105654236526044"><ele>536.0</ele><time>2026-04-25T09:39:55Z</time></trkpt><trkpt lat="41.838430441206015" lon="1.6102642653422206"><ele>533.0</ele><time>2026-04-25T09:39:56Z</time></trkpt><trkpt lat="41.83834172019518" lon="1.609960601859185"><ele>533.0</ele><time>2026-04-25T09:39:57Z</time></trkpt><trkpt lat="41.838261284529196" lon="1.6096530045088902"><ele>533.0</ele><time>2026-04-25T09:39:58Z</time></trkpt><trkpt lat="41.83817533567965" lon="1.6093818117738012"><ele>534.6666666666666</ele><time>2026-04-25T09:39:59Z</time></trkpt><trkpt lat="41.8381140238966" lon="1.6091361223363139"><ele>536.3333333333334</ele><time>2026-04-25T09:40:00Z</time></trkpt><trkpt lat="41.83805935468428" lon="1.608897444480536"><ele>538.0</ele><time>2026-04-25T09:40:01Z</time></trkpt><trkpt lat="41.83800315311781" lon="1.6086349728249416"><ele>539.3333333333334</ele><time>2026-04-25T09:40:02Z</time></trkpt><trkpt lat="41.837952035687785" lon="1.6083555323003098"><ele>540.6666666666666</ele><time>2026-04-25T09:40:03Z</time></trkpt><trkpt lat="41.837901742990056" lon="1.6080786789672088"><ele>542.0</ele><time>2026-04-25T09:40:04Z</time></trkpt><trkpt lat="41.8378470944468" lon="1.6078115827745056"><ele>542.6666666666666</ele><time>2026-04-25T09:40:05Z</time></trkpt><trkpt lat="41.837780512044056" lon="1.6075487346932362"><ele>543.3333333333334</ele><time>2026-04-25T09:40:06Z</time></trkpt><trkpt lat="41.83768142784327" lon="1.6072976633612372"><ele>544.0</ele><time>2026-04-25T09:40:07Z</time></trkpt><trkpt lat="41.83754387355755" lon="1.6070689279686627"><ele>543.0</ele><time>2026-04-25T09:40:08Z</time></trkpt><trkpt lat="41.83737972113952" lon="1.6068856700418312"><ele>542.0</ele><time>2026-04-25T09:40:09Z</time></trkpt><trkpt lat="41.837200240388235" lon="1.6067586380376453"><ele>541.0</ele><time>2026-04-25T09:40:10Z</time></trkpt><trkpt lat="41.837012257322726" lon="1.6066371671298778"><ele>541.0</ele><time>2026-04-25T09:40:11Z</time></trkpt><trkpt lat="41.83686235990622" lon="1.6064517450040794"><ele>541.0</ele><time>2026-04-25T09:40:12Z</time></trkpt><trkpt lat="41.83670013624257" lon="1.6063286565871835"><ele>541.0</ele><time>2026-04-25T09:40:13Z</time></trkpt><trkpt lat="41.83655845495674" lon="1.6062375201095864"><ele>539.6666666666667</ele><time>2026-04-25T09:40:14Z</time></trkpt><trkpt lat="41.83638449938014" lon="1.6061651343106293"><ele>538.3333333333334</ele><time>2026-04-25T09:40:15Z</time></trkpt><trkpt lat="41.8361981922716" lon="1.606114250373941"><ele>537.0</ele><time>2026-04-25T09:40:16Z</time></trkpt><trkpt lat="41.83603199261872" lon="1.6061070876631516"><ele>535.0</ele><time>2026-04-25T09:40:17Z</time></trkpt><trkpt lat="41.8358717772098" lon="1.6060715225179962"><ele>533.0</ele><time>2026-04-25T09:40:18Z</time></trkpt><trkpt lat="41.835720877658936" lon="1.6059939103908676"><ele>531.0</ele><time>2026-04-25T09:40:19Z</time></trkpt><trkpt lat="41.83560233213097" lon="1.605723260014509"><ele>531.0</ele><time>2026-04-25T09:40:20Z</time></trkpt><trkpt lat="41.835474173027485" lon="1.6054838703851404"><ele>531.0</ele><time>2026-04-25T09:40:21Z</time></trkpt><trkpt lat="41.835335558009966" lon="1.6052486274557298"><ele>531.0</ele><time>2026-04-25T09:40:22Z</time></trkpt><trkpt lat="41.83518647308482" lon="1.605023180228216"><ele>530.6666666666666</ele><time>2026-04-25T09:40:23Z</time></trkpt><trkpt lat="41.83504872336544" lon="1.604822886521731"><ele>530.3333333333333</ele><time>2026-04-25T09:40:24Z</time></trkpt><trkpt lat="41.83492574121867" lon="1.6046395305247225"><ele>530.0</ele><time>2026-04-25T09:40:25Z</time></trkpt><trkpt lat="41.834818423935616" lon="1.6044853555393317"><ele>530.0</ele><time>2026-04-25T09:40:26Z</time></trkpt><trkpt lat="41.83473805064638" lon="1.6043535249743224"><ele>530.0</ele><time>2026-04-25T09:40:27Z</time></trkpt><trkpt lat="41.834702798893666" lon="1.6041967950288192"><ele>530.0</ele><time>2026-04-25T09:40:28Z</time></trkpt><trkpt lat="41.83472171046693" lon="1.6040092442808462"><ele>530.0</ele><time>2026-04-25T09:40:29Z</time></trkpt><trkpt lat="41.834777361686534" lon="1.6037969167444142"><ele>531.0</ele><time>2026-04-25T09:40:30Z</time></trkpt><trkpt lat="41.83481747397685" lon="1.6035539708260447"><ele>532.0</ele><time>2026-04-25T09:40:31Z</time></trkpt><trkpt lat="41.83482161259964" lon="1.6033089501491327"><ele>533.0</ele><time>2026-04-25T09:40:32Z</time></trkpt><trkpt lat="41.834802327351326" lon="1.6030435125628475"><ele>535.3333333333333</ele><time>2026-04-25T09:40:33Z</time></trkpt><trkpt lat="41.83475524784656" lon="1.6027936430016203"><ele>537.6666666666666</ele><time>2026-04-25T09:40:34Z</time></trkpt><trkpt lat="41.83468469953735" lon="1.6025410373073035"><ele>540.0</ele><time>2026-04-25T09:40:35Z</time></trkpt><trkpt lat="41.83459121254096" lon="1.6022853024293584"><ele>540.0</ele><time>2026-04-25T09:40:36Z</time></trkpt><trkpt lat="41.83449794363449" lon="1.6020140529606206"><ele>540.0</ele><time>2026-04-25T09:40:37Z</time></trkpt><trkpt lat="41.834415856956355" lon="1.601764981634302"><ele>540.0</ele><time>2026-04-25T09:40:38Z</time></trkpt><trkpt lat="41.83434374172335" lon="1.6015330783952275"><ele>540.3333333333334</ele><time>2026-04-25T09:40:39Z</time></trkpt><trkpt lat="41.834269008905935" lon="1.6012968182707614"><ele>540.6666666666667</ele><time>2026-04-25T09:40:40Z</time></trkpt><trkpt lat="41.83418728255858" lon="1.6010573628166662"><ele>541.0</ele><time>2026-04-25T09:40:41Z</time></trkpt><trkpt lat="41.83408500050621" lon="1.600814924560063"><ele>544.0</ele><time>2026-04-25T09:40:42Z</time></trkpt><trkpt lat="41.833955895829305" lon="1.6005702570364961"><ele>547.0</ele><time>2026-04-25T09:40:43Z</time></trkpt><trkpt lat="41.833806152515955" lon="1.6003334612871962"><ele>552.0</ele><time>2026-04-25T09:40:44Z</time></trkpt><trkpt lat="41.83364673935088" lon="1.6000926886293403"><ele>557.0</ele><time>2026-04-25T09:40:45Z</time></trkpt><trkpt lat="41.83350482139717" lon="1.5998694146708112"><ele>555.0</ele><time>2026-04-25T09:40:46Z</time></trkpt><trkpt lat="41.83336065244349" lon="1.599660720414962"><ele>553.0</ele><time>2026-04-25T09:40:47Z</time></trkpt><trkpt lat="41.833204698931965" lon="1.5994780097322352"><ele>551.0</ele><time>2026-04-25T09:40:48Z</time></trkpt><trkpt lat="41.83303730470922" lon="1.5992990355572743"><ele>551.0</ele><time>2026-04-25T09:40:49Z</time></trkpt><trkpt lat="41.8328642733576" lon="1.5990976175264946"><ele>551.0</ele><time>2026-04-25T09:40:50Z</time></trkpt><trkpt lat="41.832685711990216" lon="1.5988924887320572"><ele>549.6666666666666</ele><time>2026-04-25T09:40:51Z</time></trkpt><trkpt lat="41.83250566125508" lon="1.5987105268073123"><ele>548.3333333333334</ele><time>2026-04-25T09:40:52Z</time></trkpt><trkpt lat="41.83232255608407" lon="1.598550403874427"><ele>547.0</ele><time>2026-04-25T09:40:53Z</time></trkpt><trkpt lat="41.83214127552695" lon="1.5983790141716245"><ele>547.0</ele><time>2026-04-25T09:40:54Z</time></trkpt><trkpt lat="41.83197309986904" lon="1.5981804996849436"><ele>547.0</ele><time>2026-04-25T09:40:55Z</time></trkpt><trkpt lat="41.83181233863575" lon="1.5979731751225963"><ele>547.0</ele><time>2026-04-25T09:40:56Z</time></trkpt><trkpt lat="41.83164617506522" lon="1.5977626602937938"><ele>546.3333333333334</ele><time>2026-04-25T09:40:57Z</time></trkpt><trkpt lat="41.831476772489616" lon="1.5975619828011793"><ele>545.6666666666666</ele><time>2026-04-25T09:40:58Z</time></trkpt><trkpt lat="41.83132396591838" lon="1.597372343522343"><ele>545.0</ele><time>2026-04-25T09:40:59Z</time></trkpt><trkpt lat="41.83119459810414" lon="1.5971913161531814"><ele>546.6666666666666</ele><time>2026-04-25T09:41:00Z</time></trkpt><trkpt lat="41.83109238125448" lon="1.597002454659893"><ele>548.3333333333334</ele><time>2026-04-25T09:41:01Z</time></trkpt><trkpt lat="41.830993119686745" lon="1.5968009720512564"><ele>550.0</ele><time>2026-04-25T09:41:02Z</time></trkpt><trkpt lat="41.83086818288445" lon="1.5966221030361631"><ele>550.0</ele><time>2026-04-25T09:41:03Z</time></trkpt><trkpt lat="41.83070551076531" lon="1.596502018296592"><ele>550.0</ele><time>2026-04-25T09:41:04Z</time></trkpt><trkpt lat="41.83051325786939" lon="1.5964192361485217"><ele>550.0</ele><time>2026-04-25T09:41:05Z</time></trkpt><trkpt lat="41.830339681428356" lon="1.5963284678094616"><ele>550.0</ele><time>2026-04-25T09:41:06Z</time></trkpt><trkpt lat="41.83018476223406" lon="1.596172446639703"><ele>550.0</ele><time>2026-04-25T09:41:07Z</time></trkpt><trkpt lat="41.830064514178304" lon="1.5959782973088619"><ele>550.0</ele><time>2026-04-25T09:41:08Z</time></trkpt><trkpt lat="41.829941739838866" lon="1.5957475998084323"><ele>550.3333333333334</ele><time>2026-04-25T09:41:09Z</time></trkpt><trkpt lat="41.82982327616081" lon="1.5955047692146982"><ele>550.6666666666666</ele><time>2026-04-25T09:41:10Z</time></trkpt><trkpt lat="41.82971773605862" lon="1.5952488515969785"><ele>551.0</ele><time>2026-04-25T09:41:11Z</time></trkpt><trkpt lat="41.829617329534734" lon="1.5949895288446334"><ele>551.6666666666666</ele><time>2026-04-25T09:41:12Z</time></trkpt><trkpt lat="41.82951436931562" lon="1.5947296108274573"><ele>552.3333333333334</ele><time>2026-04-25T09:41:13Z</time></trkpt><trkpt lat="41.829408320501294" lon="1.594469219879619"><ele>553.0</ele><time>2026-04-25T09:41:14Z</time></trkpt><trkpt lat="41.82930179939473" lon="1.5942063075080315"><ele>553.0</ele><time>2026-04-25T09:41:15Z</time></trkpt><trkpt lat="41.829189262503355" lon="1.5939421399025706"><ele>553.0</ele><time>2026-04-25T09:41:16Z</time></trkpt><trkpt lat="41.829057411374684" lon="1.5936865888400353"><ele>553.0</ele><time>2026-04-25T09:41:17Z</time></trkpt><trkpt lat="41.82890374434001" lon="1.5934459604604643"><ele>553.0</ele><time>2026-04-25T09:41:18Z</time></trkpt><trkpt lat="41.828741400171566" lon="1.5932321088280976"><ele>553.0</ele><time>2026-04-25T09:41:19Z</time></trkpt><trkpt lat="41.82858850121429" lon="1.5930461811212226"><ele>553.0</ele><time>2026-04-25T09:41:20Z</time></trkpt><trkpt lat="41.82846514061166" lon="1.5928767886605337"><ele>553.0</ele><time>2026-04-25T09:41:21Z</time></trkpt><trkpt lat="41.82836800539565" lon="1.592679313028943"><ele>553.0</ele><time>2026-04-25T09:41:22Z</time></trkpt><trkpt lat="41.8283095896187" lon="1.5924436383657254"><ele>553.0</ele><time>2026-04-25T09:41:23Z</time></trkpt><trkpt lat="41.82826353107743" lon="1.592175993868081"><ele>553.0</ele><time>2026-04-25T09:41:24Z</time></trkpt><trkpt lat="41.82821220102371" lon="1.5919164589385306"><ele>554.6666666666667</ele><time>2026-04-25T09:41:25Z</time></trkpt><trkpt lat="41.82814263962334" lon="1.5916514122577778"><ele>556.3333333333334</ele><time>2026-04-25T09:41:26Z</time></trkpt><trkpt lat="41.82806459561079" lon="1.5914365496789395"><ele>558.0</ele><time>2026-04-25T09:41:27Z</time></trkpt><trkpt lat="41.827975060906276" lon="1.5911996720163823"><ele>557.3333333333334</ele><time>2026-04-25T09:41:28Z</time></trkpt><trkpt lat="41.82783412849377" lon="1.5909907161706243"><ele>556.6666666666667</ele><time>2026-04-25T09:41:29Z</time></trkpt><trkpt lat="41.82769785240889" lon="1.5908083259281889"><ele>556.0</ele><time>2026-04-25T09:41:30Z</time></trkpt><trkpt lat="41.8275952057049" lon="1.5905659996033432"><ele>561.5</ele><time>2026-04-25T09:41:31Z</time></trkpt><trkpt lat="41.8275010382655" lon="1.5903360194432172"><ele>567.0</ele><time>2026-04-25T09:41:32Z</time></trkpt><trkpt lat="41.82731082331548" lon="1.5898913416513023"><ele>567.0</ele><time>2026-04-25T09:41:33Z</time></trkpt><trkpt lat="41.82717710701368" lon="1.589627867955814"><ele>567.0</ele><time>2026-04-25T09:41:34Z</time></trkpt><trkpt lat="41.827067943878134" lon="1.5893723640252142"><ele>567.3333333333334</ele><time>2026-04-25T09:41:35Z</time></trkpt><trkpt lat="41.82695727789318" lon="1.589138309658228"><ele>567.6666666666667</ele><time>2026-04-25T09:41:36Z</time></trkpt><trkpt lat="41.8267997723771" lon="1.5889614116944697"><ele>568.0</ele><time>2026-04-25T09:41:37Z</time></trkpt><trkpt lat="41.82662588974219" lon="1.5887989742953654"><ele>573.3333333333334</ele><time>2026-04-25T09:41:38Z</time></trkpt><trkpt lat="41.82645684273494" lon="1.5886286035985955"><ele>578.6666666666666</ele><time>2026-04-25T09:41:39Z</time></trkpt><trkpt lat="41.82628528273177" lon="1.5884343192106456"><ele>584.0</ele><time>2026-04-25T09:41:40Z</time></trkpt><trkpt lat="41.826117942934836" lon="1.5882044759987528"><ele>579.0</ele><time>2026-04-25T09:41:41Z</time></trkpt><trkpt lat="41.82591911967572" lon="1.5880124065477559"><ele>574.0</ele><time>2026-04-25T09:41:42Z</time></trkpt><trkpt lat="41.82571175569072" lon="1.5878269272972652"><ele>574.0</ele><time>2026-04-25T09:41:43Z</time></trkpt><trkpt lat="41.8254981720709" lon="1.5876392461892967"><ele>574.0</ele><time>2026-04-25T09:41:44Z</time></trkpt><trkpt lat="41.82531291633152" lon="1.5874003830289767"><ele>573.5</ele><time>2026-04-25T09:41:45Z</time></trkpt><trkpt lat="41.82512215648032" lon="1.587158249962903"><ele>573.0</ele><time>2026-04-25T09:41:46Z</time></trkpt><trkpt lat="41.824930292863954" lon="1.586918989682064"><ele>573.0</ele><time>2026-04-25T09:41:47Z</time></trkpt><trkpt lat="41.82475317981189" lon="1.5866652253244795"><ele>573.0</ele><time>2026-04-25T09:41:48Z</time></trkpt><trkpt lat="41.824573610078524" lon="1.586428557635387"><ele>573.0</ele><time>2026-04-25T09:41:49Z</time></trkpt><trkpt lat="41.82440348847001" lon="1.5861997341773628"><ele>573.0</ele><time>2026-04-25T09:41:50Z</time></trkpt><trkpt lat="41.82424521818392" lon="1.5859743862642544"><ele>571.5</ele><time>2026-04-25T09:41:51Z</time></trkpt><trkpt lat="41.824099990769746" lon="1.585734165962686"><ele>570.0</ele><time>2026-04-25T09:41:52Z</time></trkpt><trkpt lat="41.8239638368788" lon="1.5854854629128672"><ele>571.6666666666666</ele><time>2026-04-25T09:41:53Z</time></trkpt><trkpt lat="41.823835179057575" lon="1.5852398320524879"><ele>573.3333333333333</ele><time>2026-04-25T09:41:54Z</time></trkpt><trkpt lat="41.82370364269145" lon="1.5850082510006125"><ele>575.0</ele><time>2026-04-25T09:41:55Z</time></trkpt><trkpt lat="41.82357624874319" lon="1.5847578938532452"><ele>575.0</ele><time>2026-04-25T09:41:56Z</time></trkpt><trkpt lat="41.82347263724927" lon="1.584492892692761"><ele>575.0</ele><time>2026-04-25T09:41:57Z</time></trkpt><trkpt lat="41.82338775944754" lon="1.5842340208711028"><ele>575.0</ele><time>2026-04-25T09:41:58Z</time></trkpt><trkpt lat="41.82330633835958" lon="1.5839942302194097"><ele>575.0</ele><time>2026-04-25T09:41:59Z</time></trkpt><trkpt lat="41.82321839956297" lon="1.5837851632675155"><ele>575.0</ele><time>2026-04-25T09:42:00Z</time></trkpt><trkpt lat="41.823065995003994" lon="1.5836529882051462"><ele>575.0</ele><time>2026-04-25T09:42:01Z</time></trkpt><trkpt lat="41.822902791317645" lon="1.5835651567910864"><ele>580.0</ele><time>2026-04-25T09:42:02Z</time></trkpt><trkpt lat="41.822718661023764" lon="1.5835310387802375"><ele>585.0</ele><time>2026-04-25T09:42:03Z</time></trkpt><trkpt lat="41.822531942446695" lon="1.58348692709688"><ele>590.0</ele><time>2026-04-25T09:42:04Z</time></trkpt><trkpt lat="41.822370682507476" lon="1.583418165719928"><ele>590.0</ele><time>2026-04-25T09:42:05Z</time></trkpt><trkpt lat="41.822231407372854" lon="1.5833094944753474"><ele>590.0</ele><time>2026-04-25T09:42:06Z</time></trkpt><trkpt lat="41.82212152373271" lon="1.5831485616370586"><ele>590.0</ele><time>2026-04-25T09:42:07Z</time></trkpt><trkpt lat="41.822010872025565" lon="1.5829350013464643"><ele>591.0</ele><time>2026-04-25T09:42:08Z</time></trkpt><trkpt lat="41.82189808452482" lon="1.582689115853306"><ele>592.0</ele><time>2026-04-25T09:42:09Z</time></trkpt><trkpt lat="41.821766320110555" lon="1.582423918106593"><ele>592.0</ele><time>2026-04-25T09:42:10Z</time></trkpt><trkpt lat="41.82166374770851" lon="1.5821366415794411"><ele>592.0</ele><time>2026-04-25T09:42:11Z</time></trkpt><trkpt lat="41.821552846914145" lon="1.5818832666204323"><ele>595.6666666666667</ele><time>2026-04-25T09:42:12Z</time></trkpt><trkpt lat="41.82146996432647" lon="1.5816134919762463"><ele>599.3333333333334</ele><time>2026-04-25T09:42:13Z</time></trkpt><trkpt lat="41.82137371331908" lon="1.581365722550675"><ele>603.0</ele><time>2026-04-25T09:42:14Z</time></trkpt><trkpt lat="41.82133602561291" lon="1.581075618292557"><ele>606.6666666666666</ele><time>2026-04-25T09:42:15Z</time></trkpt><trkpt lat="41.82127834884661" lon="1.5808163300123392"><ele>610.3333333333333</ele><time>2026-04-25T09:42:16Z</time></trkpt><trkpt lat="41.8212255323702" lon="1.5805600594539335"><ele>614.0</ele><time>2026-04-25T09:42:17Z</time></trkpt><trkpt lat="41.8211940317881" lon="1.5802593154432139"><ele>615.5</ele><time>2026-04-25T09:42:18Z</time></trkpt><trkpt lat="41.821189576681356" lon="1.5799296242639216"><ele>617.0</ele><time>2026-04-25T09:42:19Z</time></trkpt><trkpt lat="41.821188073654476" lon="1.5795798601760218"><ele>616.5</ele><time>2026-04-25T09:42:20Z</time></trkpt><trkpt lat="41.8211652434135" lon="1.5792325753516674"><ele>616.0</ele><time>2026-04-25T09:42:21Z</time></trkpt><trkpt lat="41.82112638229163" lon="1.5788939480166233"><ele>617.0</ele><time>2026-04-25T09:42:22Z</time></trkpt><trkpt lat="41.82108261556572" lon="1.5785570311794193"><ele>618.0</ele><time>2026-04-25T09:42:23Z</time></trkpt><trkpt lat="41.821034927282774" lon="1.5782210313001377"><ele>608.0</ele><time>2026-04-25T09:42:24Z</time></trkpt><trkpt lat="41.82097906298303" lon="1.5778781422843344"><ele>598.0</ele><time>2026-04-25T09:42:25Z</time></trkpt><trkpt lat="41.82091484735301" lon="1.577537505394675"><ele>598.0</ele><time>2026-04-25T09:42:26Z</time></trkpt><trkpt lat="41.82085308008524" lon="1.577216310935248"><ele>598.0</ele><time>2026-04-25T09:42:27Z</time></trkpt><trkpt lat="41.82080710087998" lon="1.5769133237287185"><ele>599.5</ele><time>2026-04-25T09:42:28Z</time></trkpt><trkpt lat="41.82078728031087" lon="1.5765968963780688"><ele>601.0</ele><time>2026-04-25T09:42:29Z</time></trkpt><trkpt lat="41.820792512125955" lon="1.5762748065479593"><ele>601.6666666666667</ele><time>2026-04-25T09:42:30Z</time></trkpt><trkpt lat="41.82079974470206" lon="1.575960653849139"><ele>602.3333333333334</ele><time>2026-04-25T09:42:31Z</time></trkpt><trkpt lat="41.8208038902066" lon="1.5756913859553576"><ele>603.0</ele><time>2026-04-25T09:42:32Z</time></trkpt><trkpt lat="41.82080294679711" lon="1.575446976735617"><ele>605.3333333333334</ele><time>2026-04-25T09:42:33Z</time></trkpt><trkpt lat="41.82077568207656" lon="1.5752263193398803"><ele>607.6666666666667</ele><time>2026-04-25T09:42:34Z</time></trkpt><trkpt lat="41.8207054439224" lon="1.5750200576322075"><ele>610.0</ele><time>2026-04-25T09:42:35Z</time></trkpt><trkpt lat="41.820585115735575" lon="1.5748291103487502"><ele>610.0</ele><time>2026-04-25T09:42:36Z</time></trkpt><trkpt lat="41.820457139067635" lon="1.574621577417714"><ele>610.0</ele><time>2026-04-25T09:42:37Z</time></trkpt><trkpt lat="41.820362549623326" lon="1.5743753246714904"><ele>610.0</ele><time>2026-04-25T09:42:38Z</time></trkpt><trkpt lat="41.82028398034074" lon="1.5741077444754097"><ele>611.0</ele><time>2026-04-25T09:42:39Z</time></trkpt><trkpt lat="41.82020433221013" lon="1.5738594430279789"><ele>612.0</ele><time>2026-04-25T09:42:40Z</time></trkpt><trkpt lat="41.820091951798155" lon="1.5736232123955702"><ele>613.0</ele><time>2026-04-25T09:42:41Z</time></trkpt><trkpt lat="41.81993734658165" lon="1.5734040537894374"><ele>613.0</ele><time>2026-04-25T09:42:42Z</time></trkpt><trkpt lat="41.819753608706996" lon="1.5732000346574593"><ele>613.0</ele><time>2026-04-25T09:42:43Z</time></trkpt><trkpt lat="41.81955216995261" lon="1.5730189905905605"><ele>614.0</ele><time>2026-04-25T09:42:44Z</time></trkpt><trkpt lat="41.81936798184724" lon="1.5728469001882541"><ele>615.0</ele><time>2026-04-25T09:42:45Z</time></trkpt><trkpt lat="41.81921855474531" lon="1.5726822310370365"><ele>616.0</ele><time>2026-04-25T09:42:46Z</time></trkpt><trkpt lat="41.819094023192584" lon="1.5724954426430593"><ele>616.0</ele><time>2026-04-25T09:42:47Z</time></trkpt><trkpt lat="41.81899510273607" lon="1.5722754374671668"><ele>616.0</ele><time>2026-04-25T09:42:48Z</time></trkpt><trkpt lat="41.81892084339431" lon="1.57201896380556"><ele>616.0</ele><time>2026-04-25T09:42:49Z</time></trkpt><trkpt lat="41.81884549569052" lon="1.5717352230523398"><ele>618.5</ele><time>2026-04-25T09:42:50Z</time></trkpt><trkpt lat="41.818757475789226" lon="1.5714386592460183"><ele>621.0</ele><time>2026-04-25T09:42:51Z</time></trkpt><trkpt lat="41.81866124935761" lon="1.5711413180363512"><ele>622.6666666666666</ele><time>2026-04-25T09:42:52Z</time></trkpt><trkpt lat="41.8185708938585" lon="1.570870333473606"><ele>624.3333333333333</ele><time>2026-04-25T09:42:53Z</time></trkpt><trkpt lat="41.81849067245534" lon="1.5706361378376914"><ele>626.0</ele><time>2026-04-25T09:42:54Z</time></trkpt><trkpt lat="41.818418496304396" lon="1.5704206320686362"><ele>624.0</ele><time>2026-04-25T09:42:55Z</time></trkpt><trkpt lat="41.818353490643105" lon="1.57020612510846"><ele>622.0</ele><time>2026-04-25T09:42:56Z</time></trkpt><trkpt lat="41.81831672181635" lon="1.5699650407954173"><ele>620.0</ele><time>2026-04-25T09:42:57Z</time></trkpt><trkpt lat="41.81831266257243" lon="1.5696922283636425"><ele>620.6666666666666</ele><time>2026-04-25T09:42:58Z</time></trkpt><trkpt lat="41.818320071405644" lon="1.5694119933901942"><ele>621.3333333333334</ele><time>2026-04-25T09:42:59Z</time></trkpt><trkpt lat="41.81831361127185" lon="1.5691288566650576"><ele>622.0</ele><time>2026-04-25T09:43:00Z</time></trkpt><trkpt lat="41.81828041402022" lon="1.568859792888086"><ele>622.6666666666667</ele><time>2026-04-25T09:43:01Z</time></trkpt><trkpt lat="41.81824494702196" lon="1.5686104868535904"><ele>623.3333333333334</ele><time>2026-04-25T09:43:02Z</time></trkpt><trkpt lat="41.818235109261536" lon="1.5683561698440036"><ele>624.0</ele><time>2026-04-25T09:43:03Z</time></trkpt><trkpt lat="41.81826044028037" lon="1.5680907097487211"><ele>624.3333333333334</ele><time>2026-04-25T09:43:04Z</time></trkpt><trkpt lat="41.81831168924508" lon="1.5678262319542065"><ele>624.6666666666667</ele><time>2026-04-25T09:43:05Z</time></trkpt><trkpt lat="41.818390342721074" lon="1.5675620086824482"><ele>625.0</ele><time>2026-04-25T09:43:06Z</time></trkpt><trkpt lat="41.818499353945754" lon="1.5673077771863615"><ele>629.0</ele><time>2026-04-25T09:43:07Z</time></trkpt><trkpt lat="41.81864027140193" lon="1.5670624754282496"><ele>633.0</ele><time>2026-04-25T09:43:08Z</time></trkpt><trkpt lat="41.81879506838507" lon="1.5668112311136717"><ele>633.0</ele><time>2026-04-25T09:43:09Z</time></trkpt><trkpt lat="41.81895841678603" lon="1.566544101233609"><ele>633.0</ele><time>2026-04-25T09:43:10Z</time></trkpt><trkpt lat="41.819117429854565" lon="1.5662722698092684"><ele>633.5</ele><time>2026-04-25T09:43:11Z</time></trkpt><trkpt lat="41.81927173465231" lon="1.566000672530856"><ele>634.0</ele><time>2026-04-25T09:43:12Z</time></trkpt><trkpt lat="41.81941580155659" lon="1.5657276058152456"><ele>635.0</ele><time>2026-04-25T09:43:13Z</time></trkpt><trkpt lat="41.81954198621762" lon="1.5654400289885577"><ele>636.0</ele><time>2026-04-25T09:43:14Z</time></trkpt><trkpt lat="41.81965417584847" lon="1.5651474734529218"><ele>636.0</ele><time>2026-04-25T09:43:15Z</time></trkpt><trkpt lat="41.8197757885458" lon="1.5648698805171999"><ele>636.0</ele><time>2026-04-25T09:43:16Z</time></trkpt><trkpt lat="41.81991337837535" lon="1.5646177445170308"><ele>636.0</ele><time>2026-04-25T09:43:17Z</time></trkpt><trkpt lat="41.820043265764006" lon="1.5643647285985196"><ele>636.0</ele><time>2026-04-25T09:43:18Z</time></trkpt><trkpt lat="41.820151011819284" lon="1.5641243594307621"><ele>636.0</ele><time>2026-04-25T09:43:19Z</time></trkpt><trkpt lat="41.82024757959034" lon="1.5639071121072305"><ele>638.25</ele><time>2026-04-25T09:43:20Z</time></trkpt><trkpt lat="41.82032899965695" lon="1.5637130800327643"><ele>640.5</ele><time>2026-04-25T09:43:21Z</time></trkpt><trkpt lat="41.82037337169973" lon="1.5635374489458433"><ele>642.75</ele><time>2026-04-25T09:43:22.001Z</time></trkpt><trkpt lat="41.82036687521971" lon="1.5633549257815589"><ele>645.0</ele><time>2026-04-25T09:43:23.001Z</time></trkpt><trkpt lat="41.82031261943058" lon="1.5631775919186792"><ele>645.0</ele><time>2026-04-25T09:43:24.001Z</time></trkpt><trkpt lat="41.82020937028624" lon="1.5630385168401868"><ele>645.0</ele><time>2026-04-25T09:43:25.001Z</time></trkpt><trkpt lat="41.820069588781166" lon="1.5629231461756175"><ele>645.0</ele><time>2026-04-25T09:43:26.001Z</time></trkpt><trkpt lat="41.81990442373622" lon="1.5627928733236744"><ele>644.6666666666666</ele><time>2026-04-25T09:43:27.001Z</time></trkpt><trkpt lat="41.819726940290664" lon="1.562623723149114"><ele>644.3333333333333</ele><time>2026-04-25T09:43:28.001Z</time></trkpt><trkpt lat="41.81954508279498" lon="1.5624399163280736"><ele>644.0</ele><time>2026-04-25T09:43:29.001Z</time></trkpt><trkpt lat="41.819356385874116" lon="1.5622614742548007"><ele>646.6666666666666</ele><time>2026-04-25T09:43:30.001Z</time></trkpt><trkpt lat="41.81916573617938" lon="1.5620900170263734"><ele>649.3333333333334</ele><time>2026-04-25T09:43:31.001Z</time></trkpt><trkpt lat="41.819004602008086" lon="1.5619718150453759"><ele>652.0</ele><time>2026-04-25T09:43:32.001Z</time></trkpt><trkpt lat="41.81886210288297" lon="1.561870690209522"><ele>653.0</ele><time>2026-04-25T09:43:33.001Z</time></trkpt><trkpt lat="41.818575014392025" lon="1.5616243440781323"><ele>654.0</ele><time>2026-04-25T09:43:34.001Z</time></trkpt><trkpt lat="41.818384999006284" lon="1.5614759939855571"><ele>657.0</ele><time>2026-04-25T09:43:35Z</time></trkpt><trkpt lat="41.81820595918938" lon="1.5613450855880806"><ele>660.0</ele><time>2026-04-25T09:43:36Z</time></trkpt><trkpt lat="41.818054741755304" lon="1.5612390525920044"><ele>663.0</ele><time>2026-04-25T09:43:37Z</time></trkpt><trkpt lat="41.81791807274358" lon="1.5611348294191691"><ele>665.6666666666666</ele><time>2026-04-25T09:43:38Z</time></trkpt><trkpt lat="41.81778627763183" lon="1.5609984941724777"><ele>668.3333333333333</ele><time>2026-04-25T09:43:39Z</time></trkpt><trkpt lat="41.8176652760931" lon="1.5608179501103532"><ele>671.0</ele><time>2026-04-25T09:43:40Z</time></trkpt><trkpt lat="41.81759034980422" lon="1.560589563531458"><ele>672.3333333333333</ele><time>2026-04-25T09:43:41Z</time></trkpt><trkpt lat="41.81752707043622" lon="1.5603729871442793"><ele>673.6666666666666</ele><time>2026-04-25T09:43:42Z</time></trkpt><trkpt lat="41.817476627799" lon="1.5601393749276418"><ele>675.0</ele><time>2026-04-25T09:43:43Z</time></trkpt><trkpt lat="41.81740661328287" lon="1.5598747824751686"><ele>675.0</ele><time>2026-04-25T09:43:44Z</time></trkpt><trkpt lat="41.817341152806605" lon="1.5595811721097717"><ele>675.0</ele><time>2026-04-25T09:43:45Z</time></trkpt><trkpt lat="41.81723099531209" lon="1.5592888228167014"><ele>676.5</ele><time>2026-04-25T09:43:46Z</time></trkpt><trkpt lat="41.817132578102616" lon="1.5589675347828535"><ele>678.0</ele><time>2026-04-25T09:43:47Z</time></trkpt><trkpt lat="41.81700518498815" lon="1.5586672734376505"><ele>678.0</ele><time>2026-04-25T09:43:48Z</time></trkpt><trkpt lat="41.81687941811382" lon="1.558374511686349"><ele>678.0</ele><time>2026-04-25T09:43:49Z</time></trkpt><trkpt lat="41.81676520867657" lon="1.5581044323980038"><ele>674.3333333333334</ele><time>2026-04-25T09:43:50Z</time></trkpt><trkpt lat="41.816660437148364" lon="1.5578444497066521"><ele>670.6666666666667</ele><time>2026-04-25T09:43:51Z</time></trkpt><trkpt lat="41.81655285212374" lon="1.5575994885537088"><ele>667.0</ele><time>2026-04-25T09:43:52Z</time></trkpt><trkpt lat="41.8164296202164" lon="1.557382249833807"><ele>667.0</ele><time>2026-04-25T09:43:53Z</time></trkpt><trkpt lat="41.816294643318614" lon="1.5571770507473417"><ele>667.0</ele><time>2026-04-25T09:43:54Z</time></trkpt><trkpt lat="41.81615279309254" lon="1.556967055213598"><ele>667.0</ele><time>2026-04-25T09:43:55Z</time></trkpt><trkpt lat="41.8160154470147" lon="1.5567381203592698"><ele>666.5</ele><time>2026-04-25T09:43:56Z</time></trkpt><trkpt lat="41.81588478365841" lon="1.556472991187425"><ele>666.0</ele><time>2026-04-25T09:43:57Z</time></trkpt><trkpt lat="41.81575545385511" lon="1.5561987021037935"><ele>666.0</ele><time>2026-04-25T09:43:58Z</time></trkpt><trkpt lat="41.81561640183416" lon="1.5559168582468774"><ele>666.0</ele><time>2026-04-25T09:43:59Z</time></trkpt><trkpt lat="41.81547034911764" lon="1.555652486824043"><ele>666.0</ele><time>2026-04-25T09:44:00Z</time></trkpt><trkpt lat="41.815317258632696" lon="1.5554085305765966"><ele>666.0</ele><time>2026-04-25T09:44:01Z</time></trkpt><trkpt lat="41.815151368336906" lon="1.5551966997413813"><ele>669.0</ele><time>2026-04-25T09:44:02Z</time></trkpt><trkpt lat="41.81496561874013" lon="1.5549973417799383"><ele>672.0</ele><time>2026-04-25T09:44:03Z</time></trkpt><trkpt lat="41.814773709195116" lon="1.5547883029736584"><ele>672.0</ele><time>2026-04-25T09:44:04Z</time></trkpt><trkpt lat="41.81462979554449" lon="1.5546480866880472"><ele>672.0</ele><time>2026-04-25T09:44:05Z</time></trkpt><trkpt lat="41.81450438977002" lon="1.5544745472122863"><ele>672.0</ele><time>2026-04-25T09:44:06Z</time></trkpt><trkpt lat="41.814386949875384" lon="1.5542633161657577"><ele>673.0</ele><time>2026-04-25T09:44:07Z</time></trkpt><trkpt lat="41.81427449481673" lon="1.554016757486766"><ele>674.0</ele><time>2026-04-25T09:44:08Z</time></trkpt><trkpt lat="41.81416460354906" lon="1.5537512592183937"><ele>675.0</ele><time>2026-04-25T09:44:09Z</time></trkpt><trkpt lat="41.814060243557805" lon="1.553513805799235"><ele>677.6666666666666</ele><time>2026-04-25T09:44:10Z</time></trkpt><trkpt lat="41.8139625536402" lon="1.5533046979373013"><ele>680.3333333333333</ele><time>2026-04-25T09:44:11Z</time></trkpt><trkpt lat="41.8138803760391" lon="1.5530841198497316"><ele>683.0</ele><time>2026-04-25T09:44:12.001Z</time></trkpt><trkpt lat="41.813816310237186" lon="1.5528369664182442"><ele>688.0</ele><time>2026-04-25T09:44:13.001Z</time></trkpt><trkpt lat="41.81376116747175" lon="1.5525493828342745"><ele>693.0</ele><time>2026-04-25T09:44:14.001Z</time></trkpt><trkpt lat="41.81370650973733" lon="1.5522495931605205"><ele>695.3333333333334</ele><time>2026-04-25T09:44:15.001Z</time></trkpt><trkpt lat="41.813646345040624" lon="1.5519611979371442"><ele>697.6666666666667</ele><time>2026-04-25T09:44:16.001Z</time></trkpt><trkpt lat="41.813597698571634" lon="1.5517096594921405"><ele>700.0</ele><time>2026-04-25T09:44:17.001Z</time></trkpt><trkpt lat="41.813568966816796" lon="1.5514706967667522"><ele>700.0</ele><time>2026-04-25T09:44:18.001Z</time></trkpt><trkpt lat="41.81355130369877" lon="1.5512490796200735"><ele>700.0</ele><time>2026-04-25T09:44:19.001Z</time></trkpt><trkpt lat="41.81351965583286" lon="1.5510385080151157"><ele>700.0</ele><time>2026-04-25T09:44:20.001Z</time></trkpt><trkpt lat="41.81346499027612" lon="1.550844287023693"><ele>696.6</ele><time>2026-04-25T09:44:21.001Z</time></trkpt><trkpt lat="41.81340948181674" lon="1.5506743904723632"><ele>693.2</ele><time>2026-04-25T09:44:22.001Z</time></trkpt><trkpt lat="41.81336820181235" lon="1.550532219834603"><ele>689.8</ele><time>2026-04-25T09:44:23.001Z</time></trkpt><trkpt lat="41.81334119843534" lon="1.5504137304206702"><ele>686.4</ele><time>2026-04-25T09:44:24.001Z</time></trkpt><trkpt lat="41.81333311297247" lon="1.5503226687750462"><ele>683.0</ele><time>2026-04-25T09:44:25.001Z</time></trkpt><trkpt lat="41.813420026304" lon="1.5502240618293424"><ele>683.6666666666666</ele><time>2026-04-25T09:44:28.001Z</time></trkpt><trkpt lat="41.81349677275645" lon="1.5502044843433294"><ele>684.3333333333333</ele><time>2026-04-25T09:47:01Z</time></trkpt><trkpt lat="41.81357809337954" lon="1.550135177755609"><ele>685.0</ele><time>2026-04-25T09:47:03Z</time></trkpt><trkpt lat="41.813633489061324" lon="1.5500853543524173"><ele>685.6666666666666</ele><time>2026-04-25T09:47:04Z</time></trkpt><trkpt lat="41.813696756736206" lon="1.5500184037401"><ele>686.3333333333334</ele><time>2026-04-25T09:47:05Z</time></trkpt><trkpt lat="41.813763481900374" lon="1.5499399853741342"><ele>687.0</ele><time>2026-04-25T09:47:06Z</time></trkpt><trkpt lat="41.81383654834603" lon="1.549851142844376"><ele>687.0</ele><time>2026-04-25T09:47:07Z</time></trkpt><trkpt lat="41.81391472643773" lon="1.549743613563779"><ele>687.0</ele><time>2026-04-25T09:47:08Z</time></trkpt><trkpt lat="41.8139891095432" lon="1.5496292918713233"><ele>687.0</ele><time>2026-04-25T09:47:09Z</time></trkpt><trkpt lat="41.814060446379514" lon="1.5495074104279707"><ele>687.0</ele><time>2026-04-25T09:47:10Z</time></trkpt><trkpt lat="41.81413037968225" lon="1.5493802736495796"><ele>689.0</ele><time>2026-04-25T09:47:11Z</time></trkpt><trkpt lat="41.81419562001229" lon="1.5492507207952038"><ele>691.0</ele><time>2026-04-25T09:47:12Z</time></trkpt><trkpt lat="41.81426074775511" lon="1.5491146436584562"><ele>693.0</ele><time>2026-04-25T09:47:13Z</time></trkpt><trkpt lat="41.814320101167965" lon="1.5489946102566223"><ele>695.0</ele><time>2026-04-25T09:47:14Z</time></trkpt><trkpt lat="41.81438109463239" lon="1.548882639395493"><ele>697.0</ele><time>2026-04-25T09:47:15Z</time></trkpt><trkpt lat="41.81444925550369" lon="1.5487661078246717"><ele>700.0</ele><time>2026-04-25T09:47:16Z</time></trkpt><trkpt lat="41.81467273859492" lon="1.5484800002495758"><ele>703.0</ele><time>2026-04-25T09:47:18Z</time></trkpt><trkpt lat="41.81478179789745" lon="1.548345161395978"><ele>703.0</ele><time>2026-04-25T09:47:19Z</time></trkpt><trkpt lat="41.81489793643334" lon="1.5481961396646489"><ele>703.0</ele><time>2026-04-25T09:47:20Z</time></trkpt><trkpt lat="41.815014045616294" lon="1.5480492144566003"><ele>703.0</ele><time>2026-04-25T09:47:21Z</time></trkpt><trkpt lat="41.815136041149465" lon="1.5479005695097736"><ele>706.3333333333334</ele><time>2026-04-25T09:47:22Z</time></trkpt><trkpt lat="41.81527001848815" lon="1.5477373681885882"><ele>709.6666666666666</ele><time>2026-04-25T09:47:23Z</time></trkpt><trkpt lat="41.81541020655837" lon="1.547585133743226"><ele>713.0</ele><time>2026-04-25T09:47:24Z</time></trkpt><trkpt lat="41.81557422061007" lon="1.5474575366937011"><ele>713.0</ele><time>2026-04-25T09:47:25Z</time></trkpt><trkpt lat="41.81573953558589" lon="1.547322628947067"><ele>713.0</ele><time>2026-04-25T09:47:26Z</time></trkpt><trkpt lat="41.815919518974354" lon="1.5471793414059303"><ele>713.0</ele><time>2026-04-25T09:47:27Z</time></trkpt><trkpt lat="41.81609603891138" lon="1.5470690783323053"><ele>716.6666666666666</ele><time>2026-04-25T09:47:28Z</time></trkpt><trkpt lat="41.81624599986248" lon="1.5469525225925311"><ele>720.3333333333334</ele><time>2026-04-25T09:47:29Z</time></trkpt><trkpt lat="41.81638702357158" lon="1.5468435702144228"><ele>724.0</ele><time>2026-04-25T09:47:30Z</time></trkpt><trkpt lat="41.81652736262813" lon="1.5467501043817389"><ele>724.0</ele><time>2026-04-25T09:47:31Z</time></trkpt><trkpt lat="41.81665641884447" lon="1.546688289558984"><ele>724.0</ele><time>2026-04-25T09:47:32Z</time></trkpt><trkpt lat="41.81678223692114" lon="1.546656733084919"><ele>724.0</ele><time>2026-04-25T09:47:33Z</time></trkpt><trkpt lat="41.81688220636319" lon="1.5466944921185029"><ele>724.0</ele><time>2026-04-25T09:47:34Z</time></trkpt><trkpt lat="41.81697304317283" lon="1.54674657371089"><ele>728.25</ele><time>2026-04-25T09:47:35Z</time></trkpt><trkpt lat="41.81707355898408" lon="1.5468128672477528"><ele>732.5</ele><time>2026-04-25T09:47:36Z</time></trkpt><trkpt lat="41.817200539086755" lon="1.5468855478711885"><ele>736.75</ele><time>2026-04-25T09:47:37Z</time></trkpt><trkpt lat="41.81733036631932" lon="1.5469597521238336"><ele>741.0</ele><time>2026-04-25T09:47:38Z</time></trkpt><trkpt lat="41.817463220291735" lon="1.5469996243996142"><ele>741.0</ele><time>2026-04-25T09:47:39Z</time></trkpt><trkpt lat="41.81759664577442" lon="1.5469980199853273"><ele>741.0</ele><time>2026-04-25T09:47:40Z</time></trkpt><trkpt lat="41.81772975387634" lon="1.5469437925504608"><ele>741.0</ele><time>2026-04-25T09:47:41Z</time></trkpt><trkpt lat="41.81786946360353" lon="1.546837399471581"><ele>741.0</ele><time>2026-04-25T09:47:42Z</time></trkpt><trkpt lat="41.81802193439353" lon="1.5466883819516697"><ele>738.0</ele><time>2026-04-25T09:47:43Z</time></trkpt><trkpt lat="41.818181423308744" lon="1.5465298365962155"><ele>735.0</ele><time>2026-04-25T09:47:44Z</time></trkpt><trkpt lat="41.818337776126334" lon="1.546390430462488"><ele>732.0</ele><time>2026-04-25T09:47:44.999Z</time></trkpt><trkpt lat="41.818489061159774" lon="1.5463030237634057"><ele>732.6666666666666</ele><time>2026-04-25T09:47:45.999Z</time></trkpt><trkpt lat="41.8186523306599" lon="1.5462431467214368"><ele>733.3333333333333</ele><time>2026-04-25T09:47:46.999Z</time></trkpt><trkpt lat="41.81879741498053" lon="1.5461978947847475"><ele>734.0</ele><time>2026-04-25T09:47:47.999Z</time></trkpt><trkpt lat="41.8189284870634" lon="1.5461295903210261"><ele>734.0</ele><time>2026-04-25T09:47:48.999Z</time></trkpt><trkpt lat="41.81902128554491" lon="1.5459915426962734"><ele>734.0</ele><time>2026-04-25T09:47:49.999Z</time></trkpt><trkpt lat="41.81908656775932" lon="1.5458166227294028"><ele>734.0</ele><time>2026-04-25T09:47:50.999Z</time></trkpt><trkpt lat="41.81916616629207" lon="1.5455990638024175"><ele>734.0</ele><time>2026-04-25T09:47:51.999Z</time></trkpt><trkpt lat="41.819225737607226" lon="1.5453833780307813"><ele>734.0</ele><time>2026-04-25T09:47:52.999Z</time></trkpt><trkpt lat="41.81928583343032" lon="1.545224361230177"><ele>734.0</ele><time>2026-04-25T09:47:53.999Z</time></trkpt><trkpt lat="41.81940643386282" lon="1.5451307176061782"><ele>734.0</ele><time>2026-04-25T09:47:54.999Z</time></trkpt><trkpt lat="41.81953824673688" lon="1.5450729486826245"><ele>735.6666666666666</ele><time>2026-04-25T09:47:55.999Z</time></trkpt><trkpt lat="41.819686894196884" lon="1.5450382071852828"><ele>737.3333333333334</ele><time>2026-04-25T09:47:56.999Z</time></trkpt><trkpt lat="41.81984626264551" lon="1.5449811201354517"><ele>739.0</ele><time>2026-04-25T09:47:57.999Z</time></trkpt><trkpt lat="41.820017740151556" lon="1.544890590054679"><ele>738.3333333333334</ele><time>2026-04-25T09:47:58.999Z</time></trkpt><trkpt lat="41.82016391434582" lon="1.544760725179486"><ele>737.6666666666666</ele><time>2026-04-25T09:47:59.999Z</time></trkpt><trkpt lat="41.820320460048556" lon="1.5445792571293928"><ele>737.0</ele><time>2026-04-25T09:48:00.999Z</time></trkpt><trkpt lat="41.82049758964312" lon="1.544370776141503"><ele>739.5</ele><time>2026-04-25T09:48:01.999Z</time></trkpt><trkpt lat="41.82068272241263" lon="1.5441537637681881"><ele>742.0</ele><time>2026-04-25T09:48:02.999Z</time></trkpt><trkpt lat="41.820859659603016" lon="1.5439371562127064"><ele>744.5</ele><time>2026-04-25T09:48:03.999Z</time></trkpt><trkpt lat="41.82103024440945" lon="1.5437214569716893"><ele>747.0</ele><time>2026-04-25T09:48:04.999Z</time></trkpt><trkpt lat="41.821190733383965" lon="1.5435096617165662"><ele>747.3333333333334</ele><time>2026-04-25T09:48:05.999Z</time></trkpt><trkpt lat="41.821349882926754" lon="1.5433081325386995"><ele>747.6666666666667</ele><time>2026-04-25T09:48:06.999Z</time></trkpt><trkpt lat="41.82150630526714" lon="1.543115136774627"><ele>748.0</ele><time>2026-04-25T09:48:07.999Z</time></trkpt><trkpt lat="41.821663131779765" lon="1.5429253742527558"><ele>748.3333333333334</ele><time>2026-04-25T09:48:08.999Z</time></trkpt><trkpt lat="41.821812127573125" lon="1.5427315224311624"><ele>748.6666666666666</ele><time>2026-04-25T09:48:09.999Z</time></trkpt><trkpt lat="41.82194759014859" lon="1.5425565391290768"><ele>749.0</ele><time>2026-04-25T09:48:10.999Z</time></trkpt><trkpt lat="41.82208445379619" lon="1.542397316422403"><ele>750.6666666666666</ele><time>2026-04-25T09:48:11.999Z</time></trkpt><trkpt lat="41.82223335884292" lon="1.542244762946115"><ele>752.3333333333334</ele><time>2026-04-25T09:48:12.999Z</time></trkpt><trkpt lat="41.82240305868576" lon="1.542141698083274"><ele>754.0</ele><time>2026-04-25T09:48:13.999Z</time></trkpt><trkpt lat="41.822576324369635" lon="1.5420688465685368"><ele>754.6666666666667</ele><time>2026-04-25T09:48:14.999Z</time></trkpt><trkpt lat="41.82276192400465" lon="1.5420343505085725"><ele>755.3333333333334</ele><time>2026-04-25T09:48:15.999Z</time></trkpt><trkpt lat="41.822973111205" lon="1.5419844609400457"><ele>756.0</ele><time>2026-04-25T09:48:16.999Z</time></trkpt><trkpt lat="41.82321056077086" lon="1.5419447229677707"><ele>756.0</ele><time>2026-04-25T09:48:17.999Z</time></trkpt><trkpt lat="41.82343675910339" lon="1.5418606725121253"><ele>756.0</ele><time>2026-04-25T09:48:18.999Z</time></trkpt><trkpt lat="41.823675817211154" lon="1.5417626298262708"><ele>755.5</ele><time>2026-04-25T09:48:19.999Z</time></trkpt><trkpt lat="41.823922805479974" lon="1.541667287627681"><ele>755.0</ele><time>2026-04-25T09:48:20.999Z</time></trkpt><trkpt lat="41.824172799339365" lon="1.541575991244442"><ele>758.5</ele><time>2026-04-25T09:48:21.999Z</time></trkpt><trkpt lat="41.824418355052245" lon="1.541486209232723"><ele>762.0</ele><time>2026-04-25T09:48:22.999Z</time></trkpt><trkpt lat="41.824648143021115" lon="1.5413928455013761"><ele>762.0</ele><time>2026-04-25T09:48:23.999Z</time></trkpt><trkpt lat="41.824862984706954" lon="1.541282848247886"><ele>762.0</ele><time>2026-04-25T09:48:24.999Z</time></trkpt><trkpt lat="41.82506411485653" lon="1.5411545014701948"><ele>767.5</ele><time>2026-04-25T09:48:25.999Z</time></trkpt><trkpt lat="41.825259884297274" lon="1.5409975293039184"><ele>773.0</ele><time>2026-04-25T09:48:26.999Z</time></trkpt><trkpt lat="41.82545283247259" lon="1.5407986153262845"><ele>773.0</ele><time>2026-04-25T09:48:27.999Z</time></trkpt><trkpt lat="41.82564405446558" lon="1.5405652754188914"><ele>773.0</ele><time>2026-04-25T09:48:28.999Z</time></trkpt><trkpt lat="41.82584659604337" lon="1.5403461578128628"><ele>778.5</ele><time>2026-04-25T09:48:29.999Z</time></trkpt><trkpt lat="41.82604534367889" lon="1.5401478954047987"><ele>784.0</ele><time>2026-04-25T09:48:30.999Z</time></trkpt><trkpt lat="41.82622848112692" lon="1.5399434007830684"><ele>784.0</ele><time>2026-04-25T09:48:31.999Z</time></trkpt><trkpt lat="41.82638755395927" lon="1.539718180928199"><ele>784.0</ele><time>2026-04-25T09:48:32.999Z</time></trkpt><trkpt lat="41.82652777514042" lon="1.5394940681384308"><ele>784.0</ele><time>2026-04-25T09:48:33.999Z</time></trkpt><trkpt lat="41.826668305701226" lon="1.539292807873775"><ele>782.6666666666666</ele><time>2026-04-25T09:48:34.999Z</time></trkpt><trkpt lat="41.826812116776615" lon="1.539132118237265"><ele>781.3333333333333</ele><time>2026-04-25T09:48:35.999Z</time></trkpt><trkpt lat="41.82696398511239" lon="1.539045229092669"><ele>780.0</ele><time>2026-04-25T09:48:36.999Z</time></trkpt><trkpt lat="41.827120198522515" lon="1.5389959485991833"><ele>780.0</ele><time>2026-04-25T09:48:37.999Z</time></trkpt><trkpt lat="41.827305724646905" lon="1.538960775524211"><ele>780.0</ele><time>2026-04-25T09:48:38.999Z</time></trkpt><trkpt lat="41.827527195591806" lon="1.538954247208511"><ele>780.0</ele><time>2026-04-25T09:48:39.999Z</time></trkpt><trkpt lat="41.82775815893706" lon="1.5389554545898403"><ele>779.0</ele><time>2026-04-25T09:48:40.999Z</time></trkpt><trkpt lat="41.827994024306314" lon="1.5389616909689394"><ele>778.0</ele><time>2026-04-25T09:48:41.999Z</time></trkpt><trkpt lat="41.828225610726015" lon="1.538948696521129"><ele>778.0</ele><time>2026-04-25T09:48:42.999Z</time></trkpt><trkpt lat="41.828457861057956" lon="1.5388958535366113"><ele>778.0</ele><time>2026-04-25T09:48:43.999Z</time></trkpt><trkpt lat="41.82869415325136" lon="1.5388145640841708"><ele>783.0</ele><time>2026-04-25T09:48:44.999Z</time></trkpt><trkpt lat="41.828927795943265" lon="1.5387165017654376"><ele>788.0</ele><time>2026-04-25T09:48:45.999Z</time></trkpt><trkpt lat="41.829166374069345" lon="1.5386643855877382"><ele>786.5</ele><time>2026-04-25T09:48:46.999Z</time></trkpt><trkpt lat="41.829387423226414" lon="1.5385081970284267"><ele>785.0</ele><time>2026-04-25T09:48:47.999Z</time></trkpt><trkpt lat="41.829608466255536" lon="1.5384066458459735"><ele>785.0</ele><time>2026-04-25T09:48:48.999Z</time></trkpt><trkpt lat="41.829805712718" lon="1.5383216591597189"><ele>785.0</ele><time>2026-04-25T09:48:49.999Z</time></trkpt><trkpt lat="41.82996663683574" lon="1.5382460290430768"><ele>785.0</ele><time>2026-04-25T09:48:50.999Z</time></trkpt><trkpt lat="41.83008115770665" lon="1.538148431015116"><ele>784.6666666666667</ele><time>2026-04-25T09:48:51.999Z</time></trkpt><trkpt lat="41.830163857624285" lon="1.5379990780021968"><ele>784.3333333333333</ele><time>2026-04-25T09:48:52.999Z</time></trkpt><trkpt lat="41.83021860419373" lon="1.5377906365488034"><ele>784.0</ele><time>2026-04-25T09:48:53.999Z</time></trkpt><trkpt lat="41.830253724688625" lon="1.5375384050960075"><ele>787.3333333333333</ele><time>2026-04-25T09:48:55Z</time></trkpt><trkpt lat="41.830324730317045" lon="1.5373215843842998"><ele>790.6666666666667</ele><time>2026-04-25T09:48:56Z</time></trkpt><trkpt lat="41.83043766361668" lon="1.5371536885321715"><ele>794.0</ele><time>2026-04-25T09:48:57Z</time></trkpt><trkpt lat="41.83056636286102" lon="1.5370211186458478"><ele>799.0</ele><time>2026-04-25T09:48:58Z</time></trkpt><trkpt lat="41.83071783474144" lon="1.5369437074263805"><ele>804.0</ele><time>2026-04-25T09:48:59Z</time></trkpt><trkpt lat="41.830890370529275" lon="1.5368952704317875"><ele>809.0</ele><time>2026-04-25T09:49:00Z</time></trkpt><trkpt lat="41.83108800165497" lon="1.5368491439730836"><ele>812.0</ele><time>2026-04-25T09:49:01Z</time></trkpt><trkpt lat="41.8312862323159" lon="1.53677136334831"><ele>815.0</ele><time>2026-04-25T09:49:02Z</time></trkpt><trkpt lat="41.83145435155227" lon="1.5366927739595921"><ele>818.0</ele><time>2026-04-25T09:49:03Z</time></trkpt><trkpt lat="41.83160170451434" lon="1.5366543051118997"><ele>818.0</ele><time>2026-04-25T09:49:04Z</time></trkpt><trkpt lat="41.83173336666856" lon="1.536651831014549"><ele>818.0</ele><time>2026-04-25T09:49:05Z</time></trkpt><trkpt lat="41.831842168153" lon="1.5366985112092717"><ele>818.0</ele><time>2026-04-25T09:49:06Z</time></trkpt><trkpt lat="41.83191777833323" lon="1.5368059064540793"><ele>818.0</ele><time>2026-04-25T09:49:07Z</time></trkpt><trkpt lat="41.831949021080575" lon="1.5369584475099665"><ele>828.0</ele><time>2026-04-25T09:49:08Z</time></trkpt><trkpt lat="41.83193711539784" lon="1.5371451435870522"><ele>838.0</ele><time>2026-04-25T09:49:09Z</time></trkpt><trkpt lat="41.83189268848063" lon="1.5373422142421256"><ele>848.0</ele><time>2026-04-25T09:49:10Z</time></trkpt><trkpt lat="41.83182674944175" lon="1.537545828735471"><ele>838.3333333333334</ele><time>2026-04-25T09:49:11Z</time></trkpt><trkpt lat="41.83177755984439" lon="1.5377524678689045"><ele>828.6666666666667</ele><time>2026-04-25T09:49:12Z</time></trkpt><trkpt lat="41.83175995010884" lon="1.5379630146493943"><ele>819.0</ele><time>2026-04-25T09:49:13Z</time></trkpt><trkpt lat="41.831791435491155" lon="1.5381654139671197"><ele>824.3333333333333</ele><time>2026-04-25T09:49:14Z</time></trkpt><trkpt lat="41.83185990132041" lon="1.5383862187422956"><ele>829.6666666666666</ele><time>2026-04-25T09:49:15Z</time></trkpt><trkpt lat="41.831935137581816" lon="1.5385913813178405"><ele>835.0</ele><time>2026-04-25T09:49:16Z</time></trkpt><trkpt lat="41.832016065497136" lon="1.5387528604980543"><ele>835.0</ele><time>2026-04-25T09:49:17Z</time></trkpt><trkpt lat="41.83212074293338" lon="1.538854711524691"><ele>835.0</ele><time>2026-04-25T09:49:18Z</time></trkpt><trkpt lat="41.83226406210054" lon="1.5388943467816845"><ele>835.0</ele><time>2026-04-25T09:49:19Z</time></trkpt><trkpt lat="41.83243608696286" lon="1.5388830680930887"><ele>835.0</ele><time>2026-04-25T09:49:20Z</time></trkpt><trkpt lat="41.832628504861916" lon="1.538847741140855"><ele>843.6666666666666</ele><time>2026-04-25T09:49:21Z</time></trkpt><trkpt lat="41.83281807890541" lon="1.5388235538474555"><ele>852.3333333333333</ele><time>2026-04-25T09:49:22Z</time></trkpt><trkpt lat="41.83299746287432" lon="1.5388658871444567"><ele>861.0</ele><time>2026-04-25T09:49:23Z</time></trkpt><trkpt lat="41.833164695575775" lon="1.5389548192732727"><ele>861.0</ele><time>2026-04-25T09:49:24Z</time></trkpt><trkpt lat="41.8333014303892" lon="1.5390615037494686"><ele>861.0</ele><time>2026-04-25T09:49:25Z</time></trkpt><trkpt lat="41.83341446685752" lon="1.5392018601886295"><ele>861.0</ele><time>2026-04-25T09:49:26Z</time></trkpt><trkpt lat="41.833521925264364" lon="1.5393836219889951"><ele>858.0</ele><time>2026-04-25T09:49:27Z</time></trkpt><trkpt lat="41.833622651539784" lon="1.5395658157092686"><ele>855.0</ele><time>2026-04-25T09:49:28Z</time></trkpt><trkpt lat="41.83370121948654" lon="1.5396966260366045"><ele>852.0</ele><time>2026-04-25T09:49:29Z</time></trkpt><trkpt lat="41.83378350159472" lon="1.5397503538216686"><ele>849.0</ele><time>2026-04-25T09:49:30Z</time></trkpt><trkpt lat="41.83387822460316" lon="1.5397252860507304"><ele>849.0</ele><time>2026-04-25T09:49:31Z</time></trkpt><trkpt lat="41.83397344364258" lon="1.5396346720010363"><ele>849.0</ele><time>2026-04-25T09:49:32Z</time></trkpt><trkpt lat="41.834079183853056" lon="1.5395112726492979"><ele>849.0</ele><time>2026-04-25T09:49:33Z</time></trkpt><trkpt lat="41.83421334903499" lon="1.5393912288068703"><ele>849.0</ele><time>2026-04-25T09:49:34Z</time></trkpt><trkpt lat="41.83437604297633" lon="1.5392812925268458"><ele>854.6666666666667</ele><time>2026-04-25T09:49:35Z</time></trkpt><trkpt lat="41.83455770201247" lon="1.5391774714932194"><ele>860.3333333333334</ele><time>2026-04-25T09:49:36Z</time></trkpt><trkpt lat="41.834746480370136" lon="1.5390700655871"><ele>866.0</ele><time>2026-04-25T09:49:37Z</time></trkpt><trkpt lat="41.834919910626056" lon="1.538936067287509"><ele>866.0</ele><time>2026-04-25T09:49:38Z</time></trkpt><trkpt lat="41.83507536832856" lon="1.5387740503607494"><ele>866.0</ele><time>2026-04-25T09:49:39Z</time></trkpt><trkpt lat="41.835224930788165" lon="1.5386454034371972"><ele>866.0</ele><time>2026-04-25T09:49:40Z</time></trkpt><trkpt lat="41.83536903108539" lon="1.5385728364679219"><ele>874.6666666666667</ele><time>2026-04-25T09:49:41Z</time></trkpt><trkpt lat="41.835528081607364" lon="1.538571960356439"><ele>883.3333333333333</ele><time>2026-04-25T09:49:42Z</time></trkpt><trkpt lat="41.83570071240613" lon="1.5386218547392736"><ele>892.0</ele><time>2026-04-25T09:49:43Z</time></trkpt><trkpt lat="41.83589034059853" lon="1.5386970876467547"><ele>891.6666666666666</ele><time>2026-04-25T09:49:44Z</time></trkpt><trkpt lat="41.83608561262041" lon="1.538769072512791"><ele>891.3333333333333</ele><time>2026-04-25T09:49:45Z</time></trkpt><trkpt lat="41.83626656568651" lon="1.5388279933512188"><ele>891.0</ele><time>2026-04-25T09:49:46Z</time></trkpt><trkpt lat="41.83642872421222" lon="1.5388909490576597"><ele>891.0</ele><time>2026-04-25T09:49:47Z</time></trkpt><trkpt lat="41.836579640828134" lon="1.5389906519555232"><ele>891.0</ele><time>2026-04-25T09:49:48Z</time></trkpt><trkpt lat="41.83671879311304" lon="1.5391159276623316"><ele>891.0</ele><time>2026-04-25T09:49:49Z</time></trkpt><trkpt lat="41.83683765109841" lon="1.5392263912656878"><ele>892.25</ele><time>2026-04-25T09:49:50Z</time></trkpt><trkpt lat="41.83694487854106" lon="1.539309613374338"><ele>893.5</ele><time>2026-04-25T09:49:50.999Z</time></trkpt><trkpt lat="41.8370574454068" lon="1.5393841601239018"><ele>894.75</ele><time>2026-04-25T09:49:51.999Z</time></trkpt><trkpt lat="41.837166238682514" lon="1.5394674714981798"><ele>896.0</ele><time>2026-04-25T09:49:52.999Z</time></trkpt><trkpt lat="41.8372589666738" lon="1.5395603751310112"><ele>896.0</ele><time>2026-04-25T09:49:53.999Z</time></trkpt><trkpt lat="41.837359506287704" lon="1.539631898627719"><ele>895.9999999999999</ele><time>2026-04-25T09:49:54.999Z</time></trkpt><trkpt lat="41.837464142701684" lon="1.5396796384621971"><ele>895.9999999999999</ele><time>2026-04-25T09:49:55.999Z</time></trkpt><trkpt lat="41.837569694583976" lon="1.539703160873515"><ele>896.0</ele><time>2026-04-25T09:49:56.999Z</time></trkpt><trkpt lat="41.83766578185278" lon="1.5396959834960828"><ele>896.0</ele><time>2026-04-25T09:49:57.999Z</time></trkpt><trkpt lat="41.837748067328086" lon="1.5396779751546177"><ele>901.0</ele><time>2026-04-25T09:49:58.999Z</time></trkpt><trkpt lat="41.83785317238749" lon="1.5396845157139383"><ele>901.0</ele><time>2026-04-25T09:50:00.999Z</time></trkpt><trkpt lat="41.83791299852819" lon="1.5397581705837422"><ele>901.0</ele><time>2026-04-25T09:50:02.999Z</time></trkpt><trkpt lat="41.83797778425961" lon="1.5397911276272094"><ele>901.0</ele><time>2026-04-25T09:50:04.999Z</time></trkpt><trkpt lat="41.8379415807274" lon="1.539935351979543"><ele>901.0</ele><time>2026-04-25T09:50:18Z</time></trkpt></trkseg><trkseg><trkpt lat="41.838020884062225" lon="1.5399433082182126"><ele>900.9999999999999</ele><time>2026-04-25T10:16:13Z</time></trkpt><trkpt lat="41.83807741473647" lon="1.5398956328472797"><ele>901.0</ele><time>2026-04-25T10:16:34Z</time></trkpt><trkpt lat="41.83814023725412" lon="1.5398827745280517"><ele>901.0</ele><time>2026-04-25T10:16:36Z</time></trkpt><trkpt lat="41.838243162913884" lon="1.539975192387455"><ele>901.0</ele><time>2026-04-25T10:16:38Z</time></trkpt><trkpt lat="41.838306224790955" lon="1.540055522741858"><ele>900.9999999999999</ele><time>2026-04-25T10:16:39Z</time></trkpt><trkpt lat="41.838367955855816" lon="1.540151662302532"><ele>901.0</ele><time>2026-04-25T10:16:40Z</time></trkpt><trkpt lat="41.83844078226773" lon="1.540270625578804"><ele>898.0</ele><time>2026-04-25T10:16:41Z</time></trkpt><trkpt lat="41.83850857532416" lon="1.5404110435719192"><ele>895.0</ele><time>2026-04-25T10:16:42Z</time></trkpt><trkpt lat="41.83858095577179" lon="1.5405630105226928"><ele>892.0</ele><time>2026-04-25T10:16:43Z</time></trkpt><trkpt lat="41.83865169029527" lon="1.540687736649149"><ele>889.0</ele><time>2026-04-25T10:16:44Z</time></trkpt><trkpt lat="41.838739550142996" lon="1.5407934436679134"><ele>889.0</ele><time>2026-04-25T10:16:45Z</time></trkpt><trkpt lat="41.838839895424" lon="1.5408611882943077"><ele>889.0000000000001</ele><time>2026-04-25T10:16:46Z</time></trkpt><trkpt lat="41.83894305719601" lon="1.540901965691784"><ele>889.0000000000001</ele><time>2026-04-25T10:16:47Z</time></trkpt><trkpt lat="41.83904272167136" lon="1.5409452929848795"><ele>889.0</ele><time>2026-04-25T10:16:48Z</time></trkpt><trkpt lat="41.83912909978124" lon="1.5410017617714813"><ele>889.0</ele><time>2026-04-25T10:16:49Z</time></trkpt><trkpt lat="41.839198657352895" lon="1.5410877268227574"><ele>889.0</ele><time>2026-04-25T10:16:50Z</time></trkpt><trkpt lat="41.83924678787116" lon="1.5412071805101106"><ele>889.0000000000001</ele><time>2026-04-25T10:16:51Z</time></trkpt><trkpt lat="41.83927435844659" lon="1.5413413774259774"><ele>889.0000000000001</ele><time>2026-04-25T10:16:52Z</time></trkpt><trkpt lat="41.83930489684924" lon="1.5414836371924932"><ele>889.0</ele><time>2026-04-25T10:16:53Z</time></trkpt><trkpt lat="41.83935403750319" lon="1.5416332420656116"><ele>889.0</ele><time>2026-04-25T10:16:54Z</time></trkpt><trkpt lat="41.83943921572307" lon="1.5417873741780175"><ele>890.0</ele><time>2026-04-25T10:16:55Z</time></trkpt><trkpt lat="41.83953324081529" lon="1.5419296111060397"><ele>891.0</ele><time>2026-04-25T10:16:56Z</time></trkpt><trkpt lat="41.839633876913155" lon="1.5420718067144277"><ele>892.0</ele><time>2026-04-25T10:16:57Z</time></trkpt><trkpt lat="41.83974201556648" lon="1.5422089505864978"><ele>893.0</ele><time>2026-04-25T10:16:58Z</time></trkpt><trkpt lat="41.83984055194278" lon="1.542318980695062"><ele>893.0</ele><time>2026-04-25T10:16:59Z</time></trkpt><trkpt lat="41.839929259557366" lon="1.5424030953564059"><ele>893.0</ele><time>2026-04-25T10:17:00Z</time></trkpt><trkpt lat="41.84003209573607" lon="1.5424711341440325"><ele>893.0</ele><time>2026-04-25T10:17:01Z</time></trkpt><trkpt lat="41.840156617795365" lon="1.5425013858129148"><ele>893.0</ele><time>2026-04-25T10:17:02Z</time></trkpt><trkpt lat="41.84029260083996" lon="1.542495819268841"><ele>892.5</ele><time>2026-04-25T10:17:03Z</time></trkpt><trkpt lat="41.84043049576918" lon="1.5424738293045557"><ele>892.0</ele><time>2026-04-25T10:17:04Z</time></trkpt><trkpt lat="41.84057218058551" lon="1.5424804933334808"><ele>891.5</ele><time>2026-04-25T10:17:05Z</time></trkpt><trkpt lat="41.840713609679234" lon="1.542528868124982"><ele>891.0</ele><time>2026-04-25T10:17:06Z</time></trkpt><trkpt lat="41.84085516037198" lon="1.542597688710431"><ele>888.0</ele><time>2026-04-25T10:17:07Z</time></trkpt><trkpt lat="41.84100093204165" lon="1.54267477296851"><ele>885.0</ele><time>2026-04-25T10:17:08Z</time></trkpt><trkpt lat="41.841148138282975" lon="1.542756730024645"><ele>882.0</ele><time>2026-04-25T10:17:09Z</time></trkpt><trkpt lat="41.84129465779444" lon="1.542833112223804"><ele>884.0</ele><time>2026-04-25T10:17:10Z</time></trkpt><trkpt lat="41.841438724001364" lon="1.5429178513541955"><ele>886.0</ele><time>2026-04-25T10:17:11Z</time></trkpt><trkpt lat="41.841561359310916" lon="1.5430088504885477"><ele>888.0</ele><time>2026-04-25T10:17:12Z</time></trkpt><trkpt lat="41.84167404568111" lon="1.5430740943953518"><ele>890.0</ele><time>2026-04-25T10:17:13Z</time></trkpt><trkpt lat="41.84181700765229" lon="1.5431075579161067"><ele>890.0</ele><time>2026-04-25T10:17:14Z</time></trkpt><trkpt lat="41.841984326756396" lon="1.5430941942791105"><ele>890.0</ele><time>2026-04-25T10:17:15Z</time></trkpt><trkpt lat="41.84216091220305" lon="1.5430576709231794"><ele>890.0</ele><time>2026-04-25T10:17:16Z</time></trkpt><trkpt lat="41.84230744975822" lon="1.5430357018307128"><ele>890.0</ele><time>2026-04-25T10:17:17Z</time></trkpt><trkpt lat="41.84243961144501" lon="1.5430475799314765"><ele>890.0</ele><time>2026-04-25T10:17:18Z</time></trkpt><trkpt lat="41.842570326718274" lon="1.5431181481603844"><ele>890.0</ele><time>2026-04-25T10:17:19Z</time></trkpt><trkpt lat="41.84268826485677" lon="1.543253960325752"><ele>890.0</ele><time>2026-04-25T10:17:20Z</time></trkpt><trkpt lat="41.84281764441068" lon="1.5433911571944379"><ele>888.0</ele><time>2026-04-25T10:17:21Z</time></trkpt><trkpt lat="41.84293342884251" lon="1.5435773257342003"><ele>886.0</ele><time>2026-04-25T10:17:22Z</time></trkpt><trkpt lat="41.84305708877458" lon="1.5437681509069985"><ele>884.0</ele><time>2026-04-25T10:17:23Z</time></trkpt><trkpt lat="41.84317574882376" lon="1.5439359675001758"><ele>884.0</ele><time>2026-04-25T10:17:24Z</time></trkpt><trkpt lat="41.84328326589719" lon="1.5440996830441038"><ele>884.0</ele><time>2026-04-25T10:17:25Z</time></trkpt><trkpt lat="41.84338329783812" lon="1.544290216614435"><ele>884.0</ele><time>2026-04-25T10:17:26Z</time></trkpt><trkpt lat="41.84346580156078" lon="1.5445096055129"><ele>879.0</ele><time>2026-04-25T10:17:27Z</time></trkpt><trkpt lat="41.843546793567846" lon="1.544747099816794"><ele>874.0</ele><time>2026-04-25T10:17:28Z</time></trkpt><trkpt lat="41.84362380143832" lon="1.544961759886314"><ele>869.0</ele><time>2026-04-25T10:17:29Z</time></trkpt><trkpt lat="41.84370025056999" lon="1.545145420759555"><ele>869.0</ele><time>2026-04-25T10:17:30Z</time></trkpt><trkpt lat="41.8437960277715" lon="1.5452902746725623"><ele>869.0</ele><time>2026-04-25T10:17:31Z</time></trkpt><trkpt lat="41.84392708204609" lon="1.54540622799118"><ele>869.0</ele><time>2026-04-25T10:17:32Z</time></trkpt><trkpt lat="41.844089987977895" lon="1.545512709655131"><ele>868.3333333333334</ele><time>2026-04-25T10:17:33Z</time></trkpt><trkpt lat="41.844274323458094" lon="1.5456182773643623"><ele>867.6666666666667</ele><time>2026-04-25T10:17:34Z</time></trkpt><trkpt lat="41.8444668577249" lon="1.5457391900274957"><ele>867.0</ele><time>2026-04-25T10:17:35Z</time></trkpt><trkpt lat="41.84465125710034" lon="1.545920952943658"><ele>864.0</ele><time>2026-04-25T10:17:36Z</time></trkpt><trkpt lat="41.844850535846554" lon="1.5460942706733607"><ele>861.0</ele><time>2026-04-25T10:17:37Z</time></trkpt><trkpt lat="41.84506639741282" lon="1.5462582157647604"><ele>852.5</ele><time>2026-04-25T10:17:38Z</time></trkpt><trkpt lat="41.8452787784667" lon="1.5464366282408586"><ele>844.0</ele><time>2026-04-25T10:17:39Z</time></trkpt><trkpt lat="41.84548422925313" lon="1.5466023047997373"><ele>844.0</ele><time>2026-04-25T10:17:40Z</time></trkpt><trkpt lat="41.84567292701029" lon="1.5467533019192263"><ele>844.0</ele><time>2026-04-25T10:17:41Z</time></trkpt><trkpt lat="41.845823560859394" lon="1.5469424407561727"><ele>844.0</ele><time>2026-04-25T10:17:42Z</time></trkpt><trkpt lat="41.84597885638031" lon="1.547148255665886"><ele>844.3333333333333</ele><time>2026-04-25T10:17:43Z</time></trkpt><trkpt lat="41.84615452269138" lon="1.5473162574155248"><ele>844.6666666666667</ele><time>2026-04-25T10:17:44Z</time></trkpt><trkpt lat="41.846332093160136" lon="1.5474371020826125"><ele>845.0</ele><time>2026-04-25T10:17:45Z</time></trkpt><trkpt lat="41.84652694004679" lon="1.5475269590240395"><ele>845.0</ele><time>2026-04-25T10:17:46Z</time></trkpt><trkpt lat="41.846719995056766" lon="1.5476016755308364"><ele>845.0</ele><time>2026-04-25T10:17:47Z</time></trkpt><trkpt lat="41.84689566979484" lon="1.5476938064616006"><ele>845.0</ele><time>2026-04-25T10:17:48Z</time></trkpt><trkpt lat="41.8470523158777" lon="1.5478261946569045"><ele>846.3333333333334</ele><time>2026-04-25T10:17:49Z</time></trkpt><trkpt lat="41.84720311461598" lon="1.548002395351415"><ele>847.6666666666667</ele><time>2026-04-25T10:17:50Z</time></trkpt><trkpt lat="41.84736448971557" lon="1.5481857449651892"><ele>849.0</ele><time>2026-04-25T10:17:51Z</time></trkpt><trkpt lat="41.84752601527391" lon="1.5483676645404902"><ele>848.0</ele><time>2026-04-25T10:17:52Z</time></trkpt><trkpt lat="41.84767891835298" lon="1.5485463281424383"><ele>847.0</ele><time>2026-04-25T10:17:53Z</time></trkpt><trkpt lat="41.847832296858414" lon="1.5487057473432093"><ele>846.0</ele><time>2026-04-25T10:17:54Z</time></trkpt><trkpt lat="41.848003578485084" lon="1.5488475081343973"><ele>846.0</ele><time>2026-04-25T10:17:55Z</time></trkpt><trkpt lat="41.848183813945475" lon="1.5489754883413092"><ele>846.0</ele><time>2026-04-25T10:17:56Z</time></trkpt><trkpt lat="41.84835579647676" lon="1.5490953241755516"><ele>846.0</ele><time>2026-04-25T10:17:57Z</time></trkpt><trkpt lat="41.84851584361037" lon="1.5492067574359587"><ele>843.3333333333333</ele><time>2026-04-25T10:17:58Z</time></trkpt><trkpt lat="41.84870103341577" lon="1.5493085929005233"><ele>840.6666666666666</ele><time>2026-04-25T10:17:59Z</time></trkpt><trkpt lat="41.848887564175264" lon="1.5493616381883395"><ele>838.0</ele><time>2026-04-25T10:18:00Z</time></trkpt><trkpt lat="41.84907866263785" lon="1.5493693979333305"><ele>838.0</ele><time>2026-04-25T10:18:01Z</time></trkpt><trkpt lat="41.849279601892896" lon="1.5493385160518787"><ele>838.0</ele><time>2026-04-25T10:18:02Z</time></trkpt><trkpt lat="41.84948342537164" lon="1.5492633397270692"><ele>838.0</ele><time>2026-04-25T10:18:03Z</time></trkpt><trkpt lat="41.849691917104686" lon="1.549186168047329"><ele>837.3333333333333</ele><time>2026-04-25T10:18:04Z</time></trkpt><trkpt lat="41.84989835269648" lon="1.5491917874511842"><ele>836.6666666666667</ele><time>2026-04-25T10:18:05Z</time></trkpt><trkpt lat="41.85009651279957" lon="1.5492396758775742"><ele>836.0</ele><time>2026-04-25T10:18:06Z</time></trkpt><trkpt lat="41.85029542210296" lon="1.5493067006559031"><ele>836.0</ele><time>2026-04-25T10:18:07Z</time></trkpt><trkpt lat="41.85048544510053" lon="1.54934171433277"><ele>836.0</ele><time>2026-04-25T10:18:08Z</time></trkpt><trkpt lat="41.8506636262594" lon="1.5493606067977899"><ele>836.0</ele><time>2026-04-25T10:18:09Z</time></trkpt><trkpt lat="41.85085262836083" lon="1.5493265350041598"><ele>836.0</ele><time>2026-04-25T10:18:10Z</time></trkpt><trkpt lat="41.85105161030363" lon="1.5492678725854954"><ele>836.0</ele><time>2026-04-25T10:18:11Z</time></trkpt><trkpt lat="41.85126543258332" lon="1.5492069740053889"><ele>836.0</ele><time>2026-04-25T10:18:12Z</time></trkpt><trkpt lat="41.85147775577323" lon="1.549162363971651"><ele>836.0</ele><time>2026-04-25T10:18:13Z</time></trkpt><trkpt lat="41.85170315644949" lon="1.5491766482223233"><ele>836.0</ele><time>2026-04-25T10:18:14Z</time></trkpt><trkpt lat="41.85193208293788" lon="1.5491655638127346"><ele>832.0</ele><time>2026-04-25T10:18:15Z</time></trkpt><trkpt lat="41.85215962059608" lon="1.5491651479487083"><ele>828.0</ele><time>2026-04-25T10:18:16Z</time></trkpt><trkpt lat="41.8523815071492" lon="1.5491446769532626"><ele>828.0</ele><time>2026-04-25T10:18:17Z</time></trkpt><trkpt lat="41.85260365019558" lon="1.5491052443390854"><ele>828.0</ele><time>2026-04-25T10:18:18Z</time></trkpt><trkpt lat="41.8528317738051" lon="1.5490414589835302"><ele>827.5</ele><time>2026-04-25T10:18:19Z</time></trkpt><trkpt lat="41.853057985765794" lon="1.5489461333186794"><ele>827.0</ele><time>2026-04-25T10:18:20Z</time></trkpt><trkpt lat="41.85326672410248" lon="1.5488420487446124"><ele>827.0</ele><time>2026-04-25T10:18:21Z</time></trkpt><trkpt lat="41.85345416597769" lon="1.5487676288162213"><ele>827.0</ele><time>2026-04-25T10:18:22Z</time></trkpt><trkpt lat="41.85364565046094" lon="1.5487685747373727"><ele>827.0</ele><time>2026-04-25T10:18:23Z</time></trkpt><trkpt lat="41.853819189029025" lon="1.54881095737207"><ele>826.6666666666667</ele><time>2026-04-25T10:18:24Z</time></trkpt><trkpt lat="41.854000928507155" lon="1.5488687105047707"><ele>826.3333333333333</ele><time>2026-04-25T10:18:25Z</time></trkpt><trkpt lat="41.85418739099715" lon="1.5489327789752878"><ele>826.0</ele><time>2026-04-25T10:18:26Z</time></trkpt><trkpt lat="41.85438024309552" lon="1.5490053430730395"><ele>826.0</ele><time>2026-04-25T10:18:27Z</time></trkpt><trkpt lat="41.85458064479686" lon="1.5490693483270164"><ele>826.0</ele><time>2026-04-25T10:18:28Z</time></trkpt><trkpt lat="41.85478856759643" lon="1.5491457089702647"><ele>826.0</ele><time>2026-04-25T10:18:29Z</time></trkpt><trkpt lat="41.85499676147879" lon="1.549246647657063"><ele>820.5</ele><time>2026-04-25T10:18:30Z</time></trkpt><trkpt lat="41.85522219156019" lon="1.5493765689144758"><ele>815.0</ele><time>2026-04-25T10:18:31Z</time></trkpt><trkpt lat="41.85545549711689" lon="1.549515749162079"><ele>815.5</ele><time>2026-04-25T10:18:32Z</time></trkpt><trkpt lat="41.85570378867037" lon="1.5496618133973583"><ele>816.0</ele><time>2026-04-25T10:18:33Z</time></trkpt><trkpt lat="41.855951224834065" lon="1.5498021246590536"><ele>812.5</ele><time>2026-04-25T10:18:34Z</time></trkpt><trkpt lat="41.85618893724566" lon="1.5499429549825023"><ele>809.0</ele><time>2026-04-25T10:18:35Z</time></trkpt><trkpt lat="41.85643195003886" lon="1.5500955566481054"><ele>809.0</ele><time>2026-04-25T10:18:36Z</time></trkpt><trkpt lat="41.856668928405384" lon="1.550259527658643"><ele>809.0</ele><time>2026-04-25T10:18:37Z</time></trkpt><trkpt lat="41.85688465673502" lon="1.5504378491229565"><ele>809.3333333333334</ele><time>2026-04-25T10:18:38Z</time></trkpt><trkpt lat="41.857073323736046" lon="1.5506106321890234"><ele>809.6666666666667</ele><time>2026-04-25T10:18:39Z</time></trkpt><trkpt lat="41.857250473360814" lon="1.5507756261579377"><ele>810.0</ele><time>2026-04-25T10:18:40Z</time></trkpt><trkpt lat="41.857416766029786" lon="1.5509280293348815"><ele>810.0</ele><time>2026-04-25T10:18:41Z</time></trkpt><trkpt lat="41.85757602677097" lon="1.5510729228137503"><ele>810.0</ele><time>2026-04-25T10:18:42Z</time></trkpt><trkpt lat="41.85771772736835" lon="1.5512017093376516"><ele>810.0</ele><time>2026-04-25T10:18:43Z</time></trkpt><trkpt lat="41.85784819789749" lon="1.551321761450501"><ele>809.5</ele><time>2026-04-25T10:18:44Z</time></trkpt><trkpt lat="41.857958613588416" lon="1.5514189415453987"><ele>809.0</ele><time>2026-04-25T10:18:45Z</time></trkpt><trkpt lat="41.85806539445175" lon="1.5515014205507358"><ele>808.5</ele><time>2026-04-25T10:18:46Z</time></trkpt><trkpt lat="41.85818087757262" lon="1.5515935544018393"><ele>808.0</ele><time>2026-04-25T10:18:47Z</time></trkpt><trkpt lat="41.85829596700199" lon="1.5517451119210808"><ele>807.0</ele><time>2026-04-25T10:18:48Z</time></trkpt><trkpt lat="41.85845319271365" lon="1.55189763017642"><ele>806.0</ele><time>2026-04-25T10:18:49Z</time></trkpt><trkpt lat="41.858611782524314" lon="1.5520764888801835"><ele>805.0</ele><time>2026-04-25T10:18:50Z</time></trkpt><trkpt lat="41.85878994397853" lon="1.5522650169045065"><ele>805.0</ele><time>2026-04-25T10:18:51Z</time></trkpt><trkpt lat="41.85899334282309" lon="1.5524761669732974"><ele>805.0</ele><time>2026-04-25T10:18:52Z</time></trkpt><trkpt lat="41.85920154992375" lon="1.5527010989181036"><ele>805.5</ele><time>2026-04-25T10:18:53Z</time></trkpt><trkpt lat="41.85940314697292" lon="1.552933741698022"><ele>806.0</ele><time>2026-04-25T10:18:54Z</time></trkpt><trkpt lat="41.85960242231838" lon="1.5531562706887028"><ele>806.0</ele><time>2026-04-25T10:18:55Z</time></trkpt><trkpt lat="41.85978630062368" lon="1.5533567650302353"><ele>806.0</ele><time>2026-04-25T10:18:56Z</time></trkpt><trkpt lat="41.85995468904317" lon="1.55354581051907"><ele>806.6666666666667</ele><time>2026-04-25T10:18:57Z</time></trkpt><trkpt lat="41.860110025505676" lon="1.5537263757548325"><ele>807.3333333333333</ele><time>2026-04-25T10:18:58Z</time></trkpt><trkpt lat="41.86026911267" lon="1.5539076575948194"><ele>808.0</ele><time>2026-04-25T10:18:59Z</time></trkpt><trkpt lat="41.860445502823886" lon="1.5540864919766395"><ele>802.0</ele><time>2026-04-25T10:19:00Z</time></trkpt><trkpt lat="41.86087753683192" lon="1.5538724699970432"><ele>802.0</ele><time>2026-04-25T10:19:01Z</time></trkpt><trkpt lat="41.861036137296935" lon="1.5542210603801732"><ele>802.0</ele><time>2026-04-25T10:19:02Z</time></trkpt><trkpt lat="41.861180133519355" lon="1.5544728980962035"><ele>801.3333333333333</ele><time>2026-04-25T10:19:03Z</time></trkpt><trkpt lat="41.861319971580635" lon="1.5547026240421014"><ele>800.6666666666667</ele><time>2026-04-25T10:19:04Z</time></trkpt><trkpt lat="41.86146830755292" lon="1.5549011008244376"><ele>800.0</ele><time>2026-04-25T10:19:05Z</time></trkpt><trkpt lat="41.861676674514534" lon="1.5550301454362545"><ele>803.3333333333334</ele><time>2026-04-25T10:19:06Z</time></trkpt><trkpt lat="41.86189150333816" lon="1.5551268769760307"><ele>806.6666666666667</ele><time>2026-04-25T10:19:07Z</time></trkpt><trkpt lat="41.86209407274701" lon="1.5552189641230212"><ele>810.0</ele><time>2026-04-25T10:19:08Z</time></trkpt><trkpt lat="41.862298588579" lon="1.55534627771259"><ele>809.0</ele><time>2026-04-25T10:19:09Z</time></trkpt><trkpt lat="41.8624876612286" lon="1.5555190864392199"><ele>808.0</ele><time>2026-04-25T10:19:10Z</time></trkpt><trkpt lat="41.862663003021154" lon="1.555715038334382"><ele>808.0</ele><time>2026-04-25T10:19:11Z</time></trkpt><trkpt lat="41.862828758242976" lon="1.555889752227451"><ele>808.0</ele><time>2026-04-25T10:19:12Z</time></trkpt><trkpt lat="41.86298830075334" lon="1.5560405115491036"><ele>808.0</ele><time>2026-04-25T10:19:13Z</time></trkpt><trkpt lat="41.863146745538465" lon="1.5561631977501864"><ele>808.0</ele><time>2026-04-25T10:19:14Z</time></trkpt><trkpt lat="41.86331927507768" lon="1.5562364499023795"><ele>808.0</ele><time>2026-04-25T10:19:15Z</time></trkpt><trkpt lat="41.86351139494546" lon="1.5562626175837133"><ele>808.0</ele><time>2026-04-25T10:19:16Z</time></trkpt><trkpt lat="41.86373300072089" lon="1.5562961809369444"><ele>805.0</ele><time>2026-04-25T10:19:17Z</time></trkpt><trkpt lat="41.86397614449725" lon="1.5563569013688527"><ele>802.0</ele><time>2026-04-25T10:19:18Z</time></trkpt><trkpt lat="41.86420920500771" lon="1.5564298356659156"><ele>800.3333333333333</ele><time>2026-04-25T10:19:19Z</time></trkpt><trkpt lat="41.86442587125534" lon="1.5564950219752374"><ele>798.6666666666667</ele><time>2026-04-25T10:19:20Z</time></trkpt><trkpt lat="41.86462996091835" lon="1.5565187643130698"><ele>797.0</ele><time>2026-04-25T10:19:21Z</time></trkpt><trkpt lat="41.86482113108459" lon="1.5564953554662146"><ele>797.0</ele><time>2026-04-25T10:19:22Z</time></trkpt><trkpt lat="41.8649915788896" lon="1.5564208457257962"><ele>797.0</ele><time>2026-04-25T10:19:23Z</time></trkpt><trkpt lat="41.865136997715595" lon="1.556297704374767"><ele>797.0</ele><time>2026-04-25T10:19:24Z</time></trkpt><trkpt lat="41.86526593621521" lon="1.5561274672869672"><ele>799.6666666666667</ele><time>2026-04-25T10:19:25Z</time></trkpt><trkpt lat="41.86540718291941" lon="1.5559640098430698"><ele>802.3333333333333</ele><time>2026-04-25T10:19:26Z</time></trkpt><trkpt lat="41.865564157565444" lon="1.5558547293729237"><ele>805.0</ele><time>2026-04-25T10:19:27Z</time></trkpt><trkpt lat="41.865781818813296" lon="1.555798212646606"><ele>804.0</ele><time>2026-04-25T10:19:28Z</time></trkpt><trkpt lat="41.8660091292102" lon="1.5557472050672507"><ele>803.0</ele><time>2026-04-25T10:19:29Z</time></trkpt><trkpt lat="41.86622622229716" lon="1.5556871479051604"><ele>803.0</ele><time>2026-04-25T10:19:30Z</time></trkpt><trkpt lat="41.86641618550915" lon="1.555625868001627"><ele>803.0</ele><time>2026-04-25T10:19:31Z</time></trkpt><trkpt lat="41.86658831454265" lon="1.5555535283381858"><ele>803.0</ele><time>2026-04-25T10:19:32Z</time></trkpt><trkpt lat="41.86676112042109" lon="1.5554741752832937"><ele>801.3333333333334</ele><time>2026-04-25T10:19:33Z</time></trkpt><trkpt lat="41.86695136598202" lon="1.5553941346618978"><ele>799.6666666666667</ele><time>2026-04-25T10:19:34Z</time></trkpt><trkpt lat="41.867159466577576" lon="1.5552932608217351"><ele>798.0</ele><time>2026-04-25T10:19:35Z</time></trkpt><trkpt lat="41.86736873165039" lon="1.5551618225320578"><ele>798.0</ele><time>2026-04-25T10:19:36Z</time></trkpt><trkpt lat="41.86756898418795" lon="1.5550153552088384"><ele>798.0</ele><time>2026-04-25T10:19:37Z</time></trkpt><trkpt lat="41.8677606885093" lon="1.5548986220276602"><ele>798.0</ele><time>2026-04-25T10:19:38Z</time></trkpt><trkpt lat="41.86794094221281" lon="1.5548253846925164"><ele>796.6666666666667</ele><time>2026-04-25T10:19:39Z</time></trkpt><trkpt lat="41.86809402838226" lon="1.554802688839441"><ele>795.3333333333334</ele><time>2026-04-25T10:19:40Z</time></trkpt><trkpt lat="41.86825075831861" lon="1.5548423508422704"><ele>794.0</ele><time>2026-04-25T10:19:41Z</time></trkpt><trkpt lat="41.86841663463268" lon="1.5549285593247333"><ele>793.0</ele><time>2026-04-25T10:19:42Z</time></trkpt><trkpt lat="41.86859552316918" lon="1.555017800043159"><ele>792.0</ele><time>2026-04-25T10:19:43Z</time></trkpt><trkpt lat="41.86880041100355" lon="1.555093211581587"><ele>791.0</ele><time>2026-04-25T10:19:44Z</time></trkpt><trkpt lat="41.86901633058502" lon="1.5551594506759336"><ele>791.0</ele><time>2026-04-25T10:19:45Z</time></trkpt><trkpt lat="41.86923221078208" lon="1.5552224489263766"><ele>791.0</ele><time>2026-04-25T10:19:46Z</time></trkpt><trkpt lat="41.869451780109195" lon="1.5552574563915966"><ele>791.0</ele><time>2026-04-25T10:19:47Z</time></trkpt><trkpt lat="41.86967818038846" lon="1.5552710406065677"><ele>789.3333333333334</ele><time>2026-04-25T10:19:48Z</time></trkpt><trkpt lat="41.86990570162925" lon="1.5552714367891503"><ele>787.6666666666667</ele><time>2026-04-25T10:19:49Z</time></trkpt><trkpt lat="41.87012160668023" lon="1.555291879845445"><ele>786.0</ele><time>2026-04-25T10:19:50Z</time></trkpt><trkpt lat="41.870343488434834" lon="1.555343129308519"><ele>783.6666666666667</ele><time>2026-04-25T10:19:51Z</time></trkpt><trkpt lat="41.87056273126134" lon="1.5554265420639717"><ele>781.3333333333334</ele><time>2026-04-25T10:19:52Z</time></trkpt><trkpt lat="41.870771641330506" lon="1.5555030538748695"><ele>779.0</ele><time>2026-04-25T10:19:53Z</time></trkpt><trkpt lat="41.87098508115195" lon="1.5555461438907943"><ele>778.3333333333334</ele><time>2026-04-25T10:19:54Z</time></trkpt><trkpt lat="41.8711858795903" lon="1.5555592785962886"><ele>777.6666666666667</ele><time>2026-04-25T10:19:55Z</time></trkpt><trkpt lat="41.87136584299097" lon="1.555554065246262"><ele>777.0</ele><time>2026-04-25T10:19:56Z</time></trkpt><trkpt lat="41.87153054245798" lon="1.555506844476569"><ele>777.0</ele><time>2026-04-25T10:19:57Z</time></trkpt><trkpt lat="41.87169432509047" lon="1.5554395726053447"><ele>777.0</ele><time>2026-04-25T10:19:58Z</time></trkpt><trkpt lat="41.871866075544055" lon="1.555412705187068"><ele>777.0</ele><time>2026-04-25T10:19:59Z</time></trkpt><trkpt lat="41.87202083714715" lon="1.5554572980579724"><ele>776.0</ele><time>2026-04-25T10:20:00Z</time></trkpt><trkpt lat="41.87218213159581" lon="1.5556036466997198"><ele>775.0</ele><time>2026-04-25T10:20:01Z</time></trkpt><trkpt lat="41.87234852890932" lon="1.5557807480944288"><ele>774.0</ele><time>2026-04-25T10:20:02Z</time></trkpt><trkpt lat="41.87254255095366" lon="1.5559624359294584"><ele>775.5</ele><time>2026-04-25T10:20:03Z</time></trkpt><trkpt lat="41.872759303591984" lon="1.5561290432663966"><ele>777.0</ele><time>2026-04-25T10:20:04Z</time></trkpt><trkpt lat="41.87295612996443" lon="1.5562721424502501"><ele>774.6666666666667</ele><time>2026-04-25T10:20:05Z</time></trkpt><trkpt lat="41.87313165688095" lon="1.5564032064719724"><ele>772.3333333333334</ele><time>2026-04-25T10:20:06Z</time></trkpt><trkpt lat="41.873299217340104" lon="1.5565498130417925"><ele>770.0</ele><time>2026-04-25T10:20:07Z</time></trkpt><trkpt lat="41.87344845881936" lon="1.5567352536354013"><ele>769.0</ele><time>2026-04-25T10:20:08Z</time></trkpt><trkpt lat="41.873565110016116" lon="1.5569380461360833"><ele>768.0</ele><time>2026-04-25T10:20:09Z</time></trkpt><trkpt lat="41.87365037974027" lon="1.55714950468748"><ele>767.0</ele><time>2026-04-25T10:20:10Z</time></trkpt><trkpt lat="41.873734962926896" lon="1.5573333826761988"><ele>764.0</ele><time>2026-04-25T10:20:11Z</time></trkpt><trkpt lat="41.87385431031152" lon="1.5574616819817917"><ele>761.0</ele><time>2026-04-25T10:20:12Z</time></trkpt><trkpt lat="41.87401774953817" lon="1.5575410623093555"><ele>758.0</ele><time>2026-04-25T10:20:13Z</time></trkpt><trkpt lat="41.874226462450736" lon="1.5575903267676556"><ele>757.5</ele><time>2026-04-25T10:20:14Z</time></trkpt><trkpt lat="41.87446301204095" lon="1.557601995120595"><ele>757.0</ele><time>2026-04-25T10:20:15Z</time></trkpt><trkpt lat="41.87470376837452" lon="1.5575878256102171"><ele>757.0</ele><time>2026-04-25T10:20:16Z</time></trkpt><trkpt lat="41.874923529849745" lon="1.5575855836469619"><ele>757.0</ele><time>2026-04-25T10:20:17Z</time></trkpt><trkpt lat="41.8751352992315" lon="1.557602980299038"><ele>757.0</ele><time>2026-04-25T10:20:18Z</time></trkpt><trkpt lat="41.87534532167054" lon="1.557651539024411"><ele>756.3333333333334</ele><time>2026-04-25T10:20:19Z</time></trkpt><trkpt lat="41.87554366993259" lon="1.557726781490202"><ele>755.6666666666666</ele><time>2026-04-25T10:20:20Z</time></trkpt><trkpt lat="41.8757223235276" lon="1.5578378222100366"><ele>755.0</ele><time>2026-04-25T10:20:21Z</time></trkpt><trkpt lat="41.87589225924681" lon="1.5579892161446114"><ele>754.0</ele><time>2026-04-25T10:20:22Z</time></trkpt><trkpt lat="41.8760580324436" lon="1.5581565385783358"><ele>753.0</ele><time>2026-04-25T10:20:23Z</time></trkpt><trkpt lat="41.87621934738609" lon="1.5583353319129658"><ele>752.0</ele><time>2026-04-25T10:20:24Z</time></trkpt><trkpt lat="41.87636666816095" lon="1.5585071823809697"><ele>752.0</ele><time>2026-04-25T10:20:25Z</time></trkpt><trkpt lat="41.87649230864597" lon="1.5586746754626644"><ele>752.0</ele><time>2026-04-25T10:20:26Z</time></trkpt><trkpt lat="41.87656933897017" lon="1.5588792961422029"><ele>752.0</ele><time>2026-04-25T10:20:27Z</time></trkpt><trkpt lat="41.876623373627844" lon="1.5591011378446311"><ele>752.0</ele><time>2026-04-25T10:20:28Z</time></trkpt><trkpt lat="41.876649923472804" lon="1.5593548861499023"><ele>752.0</ele><time>2026-04-25T10:20:29Z</time></trkpt><trkpt lat="41.876682258936455" lon="1.5596173297429976"><ele>752.0</ele><time>2026-04-25T10:20:30Z</time></trkpt><trkpt lat="41.87670696496662" lon="1.559891224795896"><ele>752.0</ele><time>2026-04-25T10:20:31Z</time></trkpt><trkpt lat="41.87675122167409" lon="1.5601661013064994"><ele>752.0</ele><time>2026-04-25T10:20:32Z</time></trkpt><trkpt lat="41.876804285503205" lon="1.5604523564437038"><ele>752.0</ele><time>2026-04-25T10:20:33Z</time></trkpt><trkpt lat="41.876857455929475" lon="1.5607418188275264"><ele>755.6666666666666</ele><time>2026-04-25T10:20:34Z</time></trkpt><trkpt lat="41.87691135270861" lon="1.5610151115239428"><ele>759.3333333333334</ele><time>2026-04-25T10:20:35Z</time></trkpt><trkpt lat="41.87696939086408" lon="1.5612691021797493"><ele>763.0</ele><time>2026-04-25T10:20:36Z</time></trkpt><trkpt lat="41.877031881607714" lon="1.561494522808857"><ele>763.25</ele><time>2026-04-25T10:20:37Z</time></trkpt><trkpt lat="41.87708927105781" lon="1.561676594156054"><ele>763.5</ele><time>2026-04-25T10:20:38Z</time></trkpt><trkpt lat="41.87715511251184" lon="1.5618385182484786"><ele>763.75</ele><time>2026-04-25T10:20:39Z</time></trkpt><trkpt lat="41.87725139469209" lon="1.5619780868176378"><ele>764.0</ele><time>2026-04-25T10:20:40Z</time></trkpt><trkpt lat="41.87737533159224" lon="1.5620891055229427"><ele>758.6666666666666</ele><time>2026-04-25T10:20:41Z</time></trkpt><trkpt lat="41.87751566728649" lon="1.5621408216309567"><ele>753.3333333333334</ele><time>2026-04-25T10:20:42Z</time></trkpt><trkpt lat="41.87767035607711" lon="1.562136382422137"><ele>748.0</ele><time>2026-04-25T10:20:43Z</time></trkpt><trkpt lat="41.87785878243336" lon="1.5621130627704385"><ele>747.6666666666667</ele><time>2026-04-25T10:20:44Z</time></trkpt><trkpt lat="41.87807479696359" lon="1.562117146605806"><ele>747.3333333333334</ele><time>2026-04-25T10:20:45Z</time></trkpt><trkpt lat="41.87830348420371" lon="1.5621600477764614"><ele>747.0</ele><time>2026-04-25T10:20:46Z</time></trkpt><trkpt lat="41.878534420689824" lon="1.5622301768718676"><ele>748.0</ele><time>2026-04-25T10:20:47Z</time></trkpt><trkpt lat="41.87874941857511" lon="1.5623040797701364"><ele>749.0</ele><time>2026-04-25T10:20:48Z</time></trkpt><trkpt lat="41.87895629619538" lon="1.5623772494277979"><ele>750.0</ele><time>2026-04-25T10:20:49Z</time></trkpt><trkpt lat="41.879169409260086" lon="1.5624528074120765"><ele>750.0</ele><time>2026-04-25T10:20:50Z</time></trkpt><trkpt lat="41.87939506611858" lon="1.5625046357257417"><ele>750.0</ele><time>2026-04-25T10:20:51Z</time></trkpt><trkpt lat="41.87962931416269" lon="1.5625210116513404"><ele>750.0</ele><time>2026-04-25T10:20:52Z</time></trkpt><trkpt lat="41.87985634684594" lon="1.5625259362258745"><ele>750.0</ele><time>2026-04-25T10:20:53Z</time></trkpt><trkpt lat="41.88007844211932" lon="1.5625454575603188"><ele>749.0</ele><time>2026-04-25T10:20:54Z</time></trkpt><trkpt lat="41.88029491537182" lon="1.5625743690750669"><ele>748.0</ele><time>2026-04-25T10:20:55Z</time></trkpt><trkpt lat="41.880498199784874" lon="1.5626037970113307"><ele>747.0</ele><time>2026-04-25T10:20:56Z</time></trkpt><trkpt lat="41.880688618520324" lon="1.5626381237420233"><ele>747.0</ele><time>2026-04-25T10:20:57Z</time></trkpt><trkpt lat="41.88086012727414" lon="1.5626773315953373"><ele>747.0</ele><time>2026-04-25T10:20:58Z</time></trkpt><trkpt lat="41.88101923689841" lon="1.5626877760140154"><ele>747.0</ele><time>2026-04-25T10:20:59Z</time></trkpt><trkpt lat="41.881181675485976" lon="1.562650937014097"><ele>744.0</ele><time>2026-04-25T10:21:00Z</time></trkpt><trkpt lat="41.881346353520975" lon="1.562560453137694"><ele>741.0</ele><time>2026-04-25T10:21:01Z</time></trkpt><trkpt lat="41.88149910732449" lon="1.5624327645268625"><ele>738.0</ele><time>2026-04-25T10:21:02Z</time></trkpt><trkpt lat="41.8816410502475" lon="1.5622872548023734"><ele>737.3333333333334</ele><time>2026-04-25T10:21:03Z</time></trkpt><trkpt lat="41.88178768735938" lon="1.5621219606462748"><ele>736.6666666666667</ele><time>2026-04-25T10:21:04Z</time></trkpt><trkpt lat="41.88194614043762" lon="1.5619518380138477"><ele>736.0</ele><time>2026-04-25T10:21:05Z</time></trkpt><trkpt lat="41.882119095744514" lon="1.561789554432861"><ele>736.0</ele><time>2026-04-25T10:21:06Z</time></trkpt><trkpt lat="41.88227784777149" lon="1.5616464352043853"><ele>736.0</ele><time>2026-04-25T10:21:07Z</time></trkpt><trkpt lat="41.88242303099805" lon="1.5615161380759595"><ele>736.0</ele><time>2026-04-25T10:21:08Z</time></trkpt><trkpt lat="41.88256495975286" lon="1.5614167269837282"><ele>733.6666666666667</ele><time>2026-04-25T10:21:09Z</time></trkpt><trkpt lat="41.882712671574325" lon="1.5613558025431278"><ele>731.3333333333334</ele><time>2026-04-25T10:21:10Z</time></trkpt><trkpt lat="41.88287200304996" lon="1.5613507179005006"><ele>729.0</ele><time>2026-04-25T10:21:11Z</time></trkpt><trkpt lat="41.883048891232534" lon="1.5613392209147157"><ele>729.0</ele><time>2026-04-25T10:21:12Z</time></trkpt><trkpt lat="41.8832323028711" lon="1.5614163758901347"><ele>729.0</ele><time>2026-04-25T10:21:13Z</time></trkpt><trkpt lat="41.8834102080438" lon="1.5614968132049174"><ele>729.0</ele><time>2026-04-25T10:21:14Z</time></trkpt><trkpt lat="41.88358317254374" lon="1.5615822201131826"><ele>730.0</ele><time>2026-04-25T10:21:15Z</time></trkpt><trkpt lat="41.88372364178196" lon="1.561746784120307"><ele>731.0</ele><time>2026-04-25T10:21:16Z</time></trkpt><trkpt lat="41.883859706716834" lon="1.5618864129869168"><ele>732.0</ele><time>2026-04-25T10:21:17Z</time></trkpt><trkpt lat="41.88397901893126" lon="1.5620150954328058"><ele>729.6666666666666</ele><time>2026-04-25T10:21:18Z</time></trkpt><trkpt lat="41.884129064323844" lon="1.562097858557646"><ele>727.3333333333333</ele><time>2026-04-25T10:21:19Z</time></trkpt><trkpt lat="41.88430460977105" lon="1.5621368172915162"><ele>725.0</ele><time>2026-04-25T10:21:20Z</time></trkpt><trkpt lat="41.88449540328673" lon="1.5621333631318401"><ele>725.0</ele><time>2026-04-25T10:21:21Z</time></trkpt><trkpt lat="41.88470205941098" lon="1.5620966107642615"><ele>725.0</ele><time>2026-04-25T10:21:22Z</time></trkpt><trkpt lat="41.88492601156321" lon="1.5620569773343609"><ele>725.0</ele><time>2026-04-25T10:21:23Z</time></trkpt><trkpt lat="41.88514326034861" lon="1.5620721296922335"><ele>725.0</ele><time>2026-04-25T10:21:24Z</time></trkpt><trkpt lat="41.885339493325915" lon="1.5621126389075743"><ele>725.0</ele><time>2026-04-25T10:21:25Z</time></trkpt><trkpt lat="41.885521332871996" lon="1.5621856436991566"><ele>725.0</ele><time>2026-04-25T10:21:26Z</time></trkpt><trkpt lat="41.88570828513744" lon="1.5622533670548036"><ele>725.0</ele><time>2026-04-25T10:21:27Z</time></trkpt><trkpt lat="41.885897160203214" lon="1.5623269766319203"><ele>725.0</ele><time>2026-04-25T10:21:28Z</time></trkpt><trkpt lat="41.886102776481685" lon="1.5623650244600915"><ele>725.0</ele><time>2026-04-25T10:21:29Z</time></trkpt><trkpt lat="41.886313391083405" lon="1.5624025528420031"><ele>724.3333333333333</ele><time>2026-04-25T10:21:30Z</time></trkpt><trkpt lat="41.886500508531" lon="1.5624407539881238"><ele>723.6666666666666</ele><time>2026-04-25T10:21:31Z</time></trkpt><trkpt lat="41.88670629280966" lon="1.5623181136720805"><ele>723.0</ele><time>2026-04-25T10:21:32Z</time></trkpt><trkpt lat="41.88691050981653" lon="1.5622308136753826"><ele>724.3333333333334</ele><time>2026-04-25T10:21:33Z</time></trkpt><trkpt lat="41.88711713418669" lon="1.5621372672713416"><ele>725.6666666666667</ele><time>2026-04-25T10:21:34Z</time></trkpt><trkpt lat="41.887318125606896" lon="1.5620731681257682"><ele>727.0</ele><time>2026-04-25T10:21:35Z</time></trkpt><trkpt lat="41.88750280639844" lon="1.56202377541838"><ele>726.0</ele><time>2026-04-25T10:21:36Z</time></trkpt><trkpt lat="41.88766679911256" lon="1.5619830631487552"><ele>725.0</ele><time>2026-04-25T10:21:37Z</time></trkpt><trkpt lat="41.88781566815891" lon="1.561963532660096"><ele>724.0</ele><time>2026-04-25T10:21:38Z</time></trkpt><trkpt lat="41.887966693332686" lon="1.5619821174944104"><ele>724.0</ele><time>2026-04-25T10:21:39Z</time></trkpt><trkpt lat="41.8881340185772" lon="1.5620527239043311"><ele>724.0</ele><time>2026-04-25T10:21:40Z</time></trkpt><trkpt lat="41.888298240985606" lon="1.5621561636681782"><ele>724.0</ele><time>2026-04-25T10:21:41Z</time></trkpt><trkpt lat="41.88845452935917" lon="1.5622836286990953"><ele>724.0</ele><time>2026-04-25T10:21:42Z</time></trkpt><trkpt lat="41.88862579405746" lon="1.5624180232464013"><ele>724.0</ele><time>2026-04-25T10:21:43Z</time></trkpt><trkpt lat="41.88880629244415" lon="1.5625500423843475"><ele>724.0</ele><time>2026-04-25T10:21:44Z</time></trkpt><trkpt lat="41.88898951795712" lon="1.562671854776034"><ele>724.0</ele><time>2026-04-25T10:21:45Z</time></trkpt><trkpt lat="41.889169170665056" lon="1.5627694127094107"><ele>724.0</ele><time>2026-04-25T10:21:46Z</time></trkpt><trkpt lat="41.88933805701739" lon="1.562838840152252"><ele>724.0</ele><time>2026-04-25T10:21:47Z</time></trkpt><trkpt lat="41.88949165718437" lon="1.5628835039995381"><ele>725.25</ele><time>2026-04-25T10:21:48Z</time></trkpt><trkpt lat="41.88961975866833" lon="1.562953426397906"><ele>726.5</ele><time>2026-04-25T10:21:49Z</time></trkpt><trkpt lat="41.88970441194861" lon="1.5630787103423565"><ele>727.75</ele><time>2026-04-25T10:21:50Z</time></trkpt><trkpt lat="41.889765025371574" lon="1.5632500151507545"><ele>729.0</ele><time>2026-04-25T10:21:51Z</time></trkpt><trkpt lat="41.889839145673335" lon="1.563438905084269"><ele>729.0</ele><time>2026-04-25T10:21:52Z</time></trkpt><trkpt lat="41.889939873372164" lon="1.563618932751269"><ele>729.0</ele><time>2026-04-25T10:21:53Z</time></trkpt><trkpt lat="41.89005950024869" lon="1.5637906412981968"><ele>729.0</ele><time>2026-04-25T10:21:54Z</time></trkpt><trkpt lat="41.89019178558081" lon="1.5639614576276994"><ele>731.0</ele><time>2026-04-25T10:21:55Z</time></trkpt><trkpt lat="41.89031411490415" lon="1.5641424407565443"><ele>733.0</ele><time>2026-04-25T10:21:56Z</time></trkpt><trkpt lat="41.890410336237096" lon="1.564305579177413"><ele>735.0</ele><time>2026-04-25T10:21:57Z</time></trkpt><trkpt lat="41.89048636497865" lon="1.5644440630040346"><ele>735.2</ele><time>2026-04-25T10:21:58Z</time></trkpt><trkpt lat="41.89054386217075" lon="1.5645561623842068"><ele>735.4</ele><time>2026-04-25T10:21:59Z</time></trkpt><trkpt lat="41.89059010177225" lon="1.5646621362625233"><ele>735.5999999999999</ele><time>2026-04-25T10:22:00Z</time></trkpt><trkpt lat="41.89063176858667" lon="1.564778914520214"><ele>735.8</ele><time>2026-04-25T10:22:01Z</time></trkpt><trkpt lat="41.89064310790751" lon="1.5648947730124023"><ele>736.0</ele><time>2026-04-25T10:22:02Z</time></trkpt><trkpt lat="41.89060602144943" lon="1.565019473760509"><ele>736.0</ele><time>2026-04-25T10:22:03Z</time></trkpt><trkpt lat="41.890554354870766" lon="1.56515543423702"><ele>736.0</ele><time>2026-04-25T10:22:04Z</time></trkpt><trkpt lat="41.89047955920652" lon="1.565311317780186"><ele>736.0</ele><time>2026-04-25T10:22:05Z</time></trkpt><trkpt lat="41.890385062285446" lon="1.5655126501666476"><ele>736.0</ele><time>2026-04-25T10:22:06Z</time></trkpt><trkpt lat="41.890277394199146" lon="1.5657644860011226"><ele>737.6666666666667</ele><time>2026-04-25T10:22:07Z</time></trkpt><trkpt lat="41.89017652848261" lon="1.566035614114016"><ele>739.3333333333334</ele><time>2026-04-25T10:22:08Z</time></trkpt><trkpt lat="41.89009029768856" lon="1.56630414221444"><ele>741.0</ele><time>2026-04-25T10:22:09Z</time></trkpt><trkpt lat="41.88999920757997" lon="1.5665893033913063"><ele>738.0</ele><time>2026-04-25T10:22:10Z</time></trkpt><trkpt lat="41.889917764387214" lon="1.5668650450109285"><ele>735.0</ele><time>2026-04-25T10:22:11Z</time></trkpt><trkpt lat="41.889862151901774" lon="1.5671479498450698"><ele>732.0</ele><time>2026-04-25T10:22:12Z</time></trkpt><trkpt lat="41.88979952142088" lon="1.5674044120745607"><ele>733.5</ele><time>2026-04-25T10:22:13Z</time></trkpt><trkpt lat="41.889865924293844" lon="1.5679595501382226"><ele>735.0</ele><time>2026-04-25T10:22:14Z</time></trkpt><trkpt lat="41.88988851465883" lon="1.5682991365861607"><ele>735.0</ele><time>2026-04-25T10:22:15Z</time></trkpt><trkpt lat="41.88992638090853" lon="1.568639975865273"><ele>735.0</ele><time>2026-04-25T10:22:16.001Z</time></trkpt><trkpt lat="41.88997953276668" lon="1.5689760981431407"><ele>733.0</ele><time>2026-04-25T10:22:17.001Z</time></trkpt><trkpt lat="41.89005682422708" lon="1.5693043334114947"><ele>731.0</ele><time>2026-04-25T10:22:18.001Z</time></trkpt><trkpt lat="41.89015637313318" lon="1.5696288420842486"><ele>735.0</ele><time>2026-04-25T10:22:19.001Z</time></trkpt><trkpt lat="41.89027742183134" lon="1.5699425534787954"><ele>739.0</ele><time>2026-04-25T10:22:20.001Z</time></trkpt><trkpt lat="41.890419559574966" lon="1.5702465439214515"><ele>736.0</ele><time>2026-04-25T10:22:21.001Z</time></trkpt><trkpt lat="41.89058109523938" lon="1.5705436396540293"><ele>733.0</ele><time>2026-04-25T10:22:22.001Z</time></trkpt><trkpt lat="41.89075285376233" lon="1.570835844106632"><ele>733.0</ele><time>2026-04-25T10:22:23.001Z</time></trkpt><trkpt lat="41.89092024565812" lon="1.571122680738541"><ele>733.0</ele><time>2026-04-25T10:22:24.001Z</time></trkpt><trkpt lat="41.89106819248938" lon="1.5713886252151978"><ele>736.0</ele><time>2026-04-25T10:22:25.001Z</time></trkpt><trkpt lat="41.89120303791439" lon="1.5716446184600168"><ele>739.0</ele><time>2026-04-25T10:22:26.001Z</time></trkpt><trkpt lat="41.891323618481195" lon="1.5719279369216137"><ele>736.0</ele><time>2026-04-25T10:22:27.001Z</time></trkpt><trkpt lat="41.89142030108189" lon="1.5722245322874968"><ele>733.0</ele><time>2026-04-25T10:22:28.001Z</time></trkpt><trkpt lat="41.89149607728256" lon="1.5725421376926212"><ele>732.0</ele><time>2026-04-25T10:22:29.001Z</time></trkpt><trkpt lat="41.891547311568544" lon="1.5728662924244323"><ele>731.0</ele><time>2026-04-25T10:22:30.001Z</time></trkpt><trkpt lat="41.89157064818487" lon="1.57320009252461"><ele>731.0</ele><time>2026-04-25T10:22:31.001Z</time></trkpt><trkpt lat="41.89157475253765" lon="1.5735406196399309"><ele>731.0</ele><time>2026-04-25T10:22:32.001Z</time></trkpt><trkpt lat="41.8915414850212" lon="1.573881779572083"><ele>730.0</ele><time>2026-04-25T10:22:33.001Z</time></trkpt><trkpt lat="41.891557488147285" lon="1.5742300184305895"><ele>729.0</ele><time>2026-04-25T10:22:34.001Z</time></trkpt><trkpt lat="41.891557097680156" lon="1.5745654069994064"><ele>728.3333333333334</ele><time>2026-04-25T10:22:35.001Z</time></trkpt><trkpt lat="41.89155377662534" lon="1.5748629309865243"><ele>727.6666666666667</ele><time>2026-04-25T10:22:36.001Z</time></trkpt><trkpt lat="41.89155552074783" lon="1.5751502435929339"><ele>727.0</ele><time>2026-04-25T10:22:37.001Z</time></trkpt><trkpt lat="41.891537108315035" lon="1.5754364882108018"><ele>726.0</ele><time>2026-04-25T10:22:38.001Z</time></trkpt><trkpt lat="41.89153502020406" lon="1.5757133242520531"><ele>725.0</ele><time>2026-04-25T10:22:39.001Z</time></trkpt><trkpt lat="41.89153749930033" lon="1.5759593744092193"><ele>724.0</ele><time>2026-04-25T10:22:40.001Z</time></trkpt><trkpt lat="41.891525666861504" lon="1.5761664242112177"><ele>724.3333333333334</ele><time>2026-04-25T10:22:41.001Z</time></trkpt><trkpt lat="41.89148168603389" lon="1.576349144889487"><ele>724.6666666666666</ele><time>2026-04-25T10:22:42.001Z</time></trkpt><trkpt lat="41.8913993859309" lon="1.5765165842187465"><ele>725.0</ele><time>2026-04-25T10:22:43.001Z</time></trkpt><trkpt lat="41.89127143234115" lon="1.5766580199180955"><ele>725.0</ele><time>2026-04-25T10:22:44.001Z</time></trkpt><trkpt lat="41.89111575860437" lon="1.576776037508792"><ele>725.0</ele><time>2026-04-25T10:22:45.001Z</time></trkpt><trkpt lat="41.890949818820204" lon="1.5768849029981484"><ele>725.0</ele><time>2026-04-25T10:22:46.001Z</time></trkpt><trkpt lat="41.890788878448674" lon="1.5769735332225456"><ele>723.6666666666666</ele><time>2026-04-25T10:22:47.001Z</time></trkpt><trkpt lat="41.8906328504131" lon="1.5770097627136634"><ele>722.3333333333334</ele><time>2026-04-25T10:22:48.001Z</time></trkpt><trkpt lat="41.89045978979866" lon="1.5769974458106681"><ele>721.0</ele><time>2026-04-25T10:22:49.001Z</time></trkpt><trkpt lat="41.89026962933595" lon="1.576969840278436"><ele>721.0</ele><time>2026-04-25T10:22:50.001Z</time></trkpt><trkpt lat="41.89009093383452" lon="1.5769723846777062"><ele>721.0</ele><time>2026-04-25T10:22:51.001Z</time></trkpt><trkpt lat="41.889916276001536" lon="1.576985073601331"><ele>721.0</ele><time>2026-04-25T10:22:52.001Z</time></trkpt><trkpt lat="41.889738581243854" lon="1.5770561101711198"><ele>722.0</ele><time>2026-04-25T10:22:53.001Z</time></trkpt><trkpt lat="41.88958141297208" lon="1.577164115589677"><ele>723.0</ele><time>2026-04-25T10:22:54.001Z</time></trkpt><trkpt lat="41.889462516972316" lon="1.5773096106742162"><ele>724.0</ele><time>2026-04-25T10:22:55.001Z</time></trkpt><trkpt lat="41.88937488537054" lon="1.5775136765744784"><ele>724.0</ele><time>2026-04-25T10:22:56.001Z</time></trkpt><trkpt lat="41.88931247756729" lon="1.5777758381052083"><ele>724.0</ele><time>2026-04-25T10:22:57.001Z</time></trkpt><trkpt lat="41.88924281722594" lon="1.5780967406833262"><ele>721.5</ele><time>2026-04-25T10:22:58.001Z</time></trkpt><trkpt lat="41.889135824783004" lon="1.5784331069788289"><ele>719.0</ele><time>2026-04-25T10:22:59.001Z</time></trkpt><trkpt lat="41.88903637965442" lon="1.5787976052883161"><ele>719.0</ele><time>2026-04-25T10:23:00.001Z</time></trkpt><trkpt lat="41.888947087287406" lon="1.579121450040803"><ele>719.0</ele><time>2026-04-25T10:23:01Z</time></trkpt><trkpt lat="41.88886884377433" lon="1.5794036876153943"><ele>719.6666666666666</ele><time>2026-04-25T10:23:02Z</time></trkpt><trkpt lat="41.888817791372446" lon="1.579661936432345"><ele>720.3333333333334</ele><time>2026-04-25T10:23:03Z</time></trkpt><trkpt lat="41.88875820792726" lon="1.5798785149160408"><ele>721.0</ele><time>2026-04-25T10:23:04Z</time></trkpt><trkpt lat="41.88871974259329" lon="1.5800757022480634"><ele>721.0</ele><time>2026-04-25T10:23:05Z</time></trkpt><trkpt lat="41.888724168409" lon="1.5802675689812848"><ele>721.0</ele><time>2026-04-25T10:23:06Z</time></trkpt><trkpt lat="41.888770017207634" lon="1.58046405969563"><ele>721.0</ele><time>2026-04-25T10:23:07Z</time></trkpt><trkpt lat="41.88887312881417" lon="1.5806842177155613"><ele>720.6666666666667</ele><time>2026-04-25T10:23:08Z</time></trkpt><trkpt lat="41.88900120587121" lon="1.5809116387837603"><ele>720.3333333333334</ele><time>2026-04-25T10:23:09Z</time></trkpt><trkpt lat="41.88911487753514" lon="1.5811465223150396"><ele>720.0</ele><time>2026-04-25T10:23:10Z</time></trkpt><trkpt lat="41.88921106307905" lon="1.5813445459875366"><ele>719.6666666666666</ele><time>2026-04-25T10:23:11Z</time></trkpt><trkpt lat="41.88926545471989" lon="1.5815527692788205"><ele>719.3333333333333</ele><time>2026-04-25T10:23:12Z</time></trkpt><trkpt lat="41.889281468512536" lon="1.5817824061857753"><ele>719.0</ele><time>2026-04-25T10:23:13Z</time></trkpt><trkpt lat="41.889249284701734" lon="1.5820124544934437"><ele>717.3333333333333</ele><time>2026-04-25T10:23:14Z</time></trkpt><trkpt lat="41.889187338667476" lon="1.5822440351547005"><ele>715.6666666666666</ele><time>2026-04-25T10:23:15Z</time></trkpt><trkpt lat="41.8891154626865" lon="1.5824940327217276"><ele>714.0</ele><time>2026-04-25T10:23:16Z</time></trkpt><trkpt lat="41.88905786888458" lon="1.5827562091290388"><ele>714.3333333333334</ele><time>2026-04-25T10:23:17Z</time></trkpt><trkpt lat="41.88898881059972" lon="1.582993871552755"><ele>714.6666666666667</ele><time>2026-04-25T10:23:18Z</time></trkpt><trkpt lat="41.88894402452135" lon="1.5832141150369958"><ele>715.0</ele><time>2026-04-25T10:23:19Z</time></trkpt><trkpt lat="41.88893124928006" lon="1.5834579276519989"><ele>715.0</ele><time>2026-04-25T10:23:20Z</time></trkpt><trkpt lat="41.88895513419473" lon="1.583749599419887"><ele>715.0</ele><time>2026-04-25T10:23:21Z</time></trkpt><trkpt lat="41.88900855195223" lon="1.5840642126235045"><ele>715.0</ele><time>2026-04-25T10:23:22Z</time></trkpt><trkpt lat="41.889077112468236" lon="1.5843950998728586"><ele>715.0</ele><time>2026-04-25T10:23:23Z</time></trkpt><trkpt lat="41.88914886508887" lon="1.584715402543356"><ele>714.3333333333334</ele><time>2026-04-25T10:23:24.001Z</time></trkpt><trkpt lat="41.889212512316284" lon="1.5850026907985073"><ele>713.6666666666666</ele><time>2026-04-25T10:23:25.001Z</time></trkpt><trkpt lat="41.889247049762" lon="1.5852706422613518"><ele>713.0</ele><time>2026-04-25T10:23:26.001Z</time></trkpt><trkpt lat="41.88927540316421" lon="1.5855487111179614"><ele>719.5</ele><time>2026-04-25T10:23:27.001Z</time></trkpt><trkpt lat="41.88927330084141" lon="1.5858489748392346"><ele>726.0</ele><time>2026-04-25T10:23:28.001Z</time></trkpt><trkpt lat="41.88926720288637" lon="1.5861677847090436"><ele>726.0</ele><time>2026-04-25T10:23:29.001Z</time></trkpt><trkpt lat="41.8892770657743" lon="1.586460349384824"><ele>726.0</ele><time>2026-04-25T10:23:30.001Z</time></trkpt><trkpt lat="41.889252908031615" lon="1.5867004452120024"><ele>726.0</ele><time>2026-04-25T10:23:31.001Z</time></trkpt><trkpt lat="41.88922698002095" lon="1.5869004303995913"><ele>721.3333333333334</ele><time>2026-04-25T10:23:32.001Z</time></trkpt><trkpt lat="41.88915701587259" lon="1.5870642870353113"><ele>716.6666666666667</ele><time>2026-04-25T10:23:33.001Z</time></trkpt><trkpt lat="41.889054820141325" lon="1.5872330365805345"><ele>712.0</ele><time>2026-04-25T10:23:34.001Z</time></trkpt><trkpt lat="41.888924270538546" lon="1.5873936028665865"><ele>712.0</ele><time>2026-04-25T10:23:35.001Z</time></trkpt><trkpt lat="41.888832573195046" lon="1.587556438173465"><ele>712.0</ele><time>2026-04-25T10:23:36.001Z</time></trkpt><trkpt lat="41.88875218436892" lon="1.5877238044442046"><ele>712.0</ele><time>2026-04-25T10:23:37.001Z</time></trkpt><trkpt lat="41.888704101538586" lon="1.5879450742996577"><ele>713.6666666666667</ele><time>2026-04-25T10:23:38.001Z</time></trkpt><trkpt lat="41.8886764996909" lon="1.5882208027377342"><ele>715.3333333333334</ele><time>2026-04-25T10:23:39.001Z</time></trkpt><trkpt lat="41.888646211288545" lon="1.5885283165377388"><ele>717.0</ele><time>2026-04-25T10:23:40.001Z</time></trkpt><trkpt lat="41.88860554607554" lon="1.5888317200834607"><ele>717.3333333333334</ele><time>2026-04-25T10:23:41.001Z</time></trkpt><trkpt lat="41.88856863792234" lon="1.5890933320941802"><ele>717.6666666666667</ele><time>2026-04-25T10:23:42.001Z</time></trkpt><trkpt lat="41.8885404695817" lon="1.589318057943325"><ele>718.0</ele><time>2026-04-25T10:23:43.001Z</time></trkpt><trkpt lat="41.88853669577949" lon="1.5895233490907714"><ele>715.6666666666667</ele><time>2026-04-25T10:23:44.001Z</time></trkpt><trkpt lat="41.88858741186964" lon="1.589729627774448"><ele>713.3333333333334</ele><time>2026-04-25T10:23:45.001Z</time></trkpt><trkpt lat="41.88868919774354" lon="1.5899502013194555"><ele>711.0</ele><time>2026-04-25T10:23:46.001Z</time></trkpt><trkpt lat="41.888821135076036" lon="1.590201845121511"><ele>709.0</ele><time>2026-04-25T10:23:47.001Z</time></trkpt><trkpt lat="41.88893783624643" lon="1.5904882391538564"><ele>707.0</ele><time>2026-04-25T10:23:48.001Z</time></trkpt><trkpt lat="41.889052657988984" lon="1.5907413059875681"><ele>707.0</ele><time>2026-04-25T10:23:49.001Z</time></trkpt><trkpt lat="41.88914907566774" lon="1.5909579401404863"><ele>707.0</ele><time>2026-04-25T10:23:50.001Z</time></trkpt><trkpt lat="41.88922436252223" lon="1.5911456191863855"><ele>707.0</ele><time>2026-04-25T10:23:51.001Z</time></trkpt><trkpt lat="41.88926728591175" lon="1.5913266957068088"><ele>706.75</ele><time>2026-04-25T10:23:52.001Z</time></trkpt><trkpt lat="41.88929552536115" lon="1.591519390117755"><ele>706.5</ele><time>2026-04-25T10:23:53.001Z</time></trkpt><trkpt lat="41.88925733795553" lon="1.5917081215412987"><ele>706.25</ele><time>2026-04-25T10:23:54.001Z</time></trkpt><trkpt lat="41.889197183931735" lon="1.5918909121798912"><ele>706.0</ele><time>2026-04-25T10:23:55.001Z</time></trkpt><trkpt lat="41.88911425064332" lon="1.5920557943320508"><ele>706.0</ele><time>2026-04-25T10:23:56.001Z</time></trkpt><trkpt lat="41.88899638998021" lon="1.5922027498003435"><ele>706.0</ele><time>2026-04-25T10:23:57.001Z</time></trkpt><trkpt lat="41.88883896344948" lon="1.5923389900438276"><ele>706.0</ele><time>2026-04-25T10:23:58.001Z</time></trkpt><trkpt lat="41.88868051937427" lon="1.5924961436273366"><ele>706.0</ele><time>2026-04-25T10:23:59.001Z</time></trkpt><trkpt lat="41.8885404306962" lon="1.5926838126125602"><ele>706.0</ele><time>2026-04-25T10:24:00.001Z</time></trkpt><trkpt lat="41.888416738410704" lon="1.5928605900083512"><ele>706.0</ele><time>2026-04-25T10:24:01.001Z</time></trkpt><trkpt lat="41.888316505040564" lon="1.593020184435362"><ele>705.75</ele><time>2026-04-25T10:24:02.001Z</time></trkpt><trkpt lat="41.88824430120407" lon="1.5931677014050398"><ele>705.5</ele><time>2026-04-25T10:24:03.001Z</time></trkpt><trkpt lat="41.88820156217622" lon="1.5933326783482773"><ele>705.25</ele><time>2026-04-25T10:24:04.001Z</time></trkpt><trkpt lat="41.88819598802527" lon="1.5935184043492863"><ele>705.0</ele><time>2026-04-25T10:24:05.001Z</time></trkpt><trkpt lat="41.888241736205025" lon="1.5937028875921087"><ele>704.0</ele><time>2026-04-25T10:24:06.001Z</time></trkpt><trkpt lat="41.88833442327489" lon="1.5938929233725985"><ele>703.0</ele><time>2026-04-25T10:24:07.001Z</time></trkpt><trkpt lat="41.88846128591078" lon="1.5941201306652424"><ele>702.0</ele><time>2026-04-25T10:24:08.001Z</time></trkpt><trkpt lat="41.88856949278574" lon="1.5943914942999662"><ele>702.3333333333334</ele><time>2026-04-25T10:24:09.001Z</time></trkpt><trkpt lat="41.888691527703855" lon="1.5946491823663969"><ele>702.6666666666667</ele><time>2026-04-25T10:24:10.001Z</time></trkpt><trkpt lat="41.88881008315578" lon="1.5948701027797856"><ele>703.0</ele><time>2026-04-25T10:24:11.001Z</time></trkpt><trkpt lat="41.88891355415393" lon="1.5950650390698355"><ele>703.0</ele><time>2026-04-25T10:24:12.001Z</time></trkpt><trkpt lat="41.88904830179539" lon="1.5952266765216898"><ele>703.0</ele><time>2026-04-25T10:24:13.001Z</time></trkpt><trkpt lat="41.889217837908866" lon="1.595360174700954"><ele>703.0</ele><time>2026-04-25T10:24:14.001Z</time></trkpt><trkpt lat="41.88939230363697" lon="1.595513132638425"><ele>702.6666666666667</ele><time>2026-04-25T10:24:15.001Z</time></trkpt><trkpt lat="41.88956907517788" lon="1.5956707893957776"><ele>702.3333333333334</ele><time>2026-04-25T10:24:16.001Z</time></trkpt><trkpt lat="41.889710728148565" lon="1.5958582910854568"><ele>702.0</ele><time>2026-04-25T10:24:17.001Z</time></trkpt><trkpt lat="41.88983320908622" lon="1.5960669024546765"><ele>700.6666666666666</ele><time>2026-04-25T10:24:18.001Z</time></trkpt><trkpt lat="41.88995326622727" lon="1.5962743908444734"><ele>699.3333333333333</ele><time>2026-04-25T10:24:19.001Z</time></trkpt><trkpt lat="41.890076444419584" lon="1.596451530582922"><ele>698.0</ele><time>2026-04-25T10:24:20.001Z</time></trkpt><trkpt lat="41.890157009908435" lon="1.5966348234715118"><ele>698.0</ele><time>2026-04-25T10:24:21.001Z</time></trkpt><trkpt lat="41.89022658428115" lon="1.5967882400090905"><ele>698.0</ele><time>2026-04-25T10:24:22.001Z</time></trkpt><trkpt lat="41.89026597522015" lon="1.596944943745315"><ele>698.0</ele><time>2026-04-25T10:24:23.001Z</time></trkpt><trkpt lat="41.890274726287785" lon="1.5971227970368493"><ele>698.0</ele><time>2026-04-25T10:24:24.001Z</time></trkpt><trkpt lat="41.890242343108945" lon="1.597289987073399"><ele>695.5</ele><time>2026-04-25T10:24:25.001Z</time></trkpt><trkpt lat="41.890167484492" lon="1.5974321377540677"><ele>693.0</ele><time>2026-04-25T10:24:26.001Z</time></trkpt><trkpt lat="41.89006242375468" lon="1.5975572546556933"><ele>690.5</ele><time>2026-04-25T10:24:27.001Z</time></trkpt><trkpt lat="41.88992628592677" lon="1.5976363581489128"><ele>688.0</ele><time>2026-04-25T10:24:28.001Z</time></trkpt><trkpt lat="41.889769670904336" lon="1.5976523560461484"><ele>686.6666666666667</ele><time>2026-04-25T10:24:29.001Z</time></trkpt><trkpt lat="41.88959019396948" lon="1.597664189060189"><ele>685.3333333333334</ele><time>2026-04-25T10:24:30.001Z</time></trkpt><trkpt lat="41.88939052182391" lon="1.5976870764106963"><ele>684.0</ele><time>2026-04-25T10:24:31.001Z</time></trkpt><trkpt lat="41.8891853871068" lon="1.597701973638817"><ele>683.6666666666666</ele><time>2026-04-25T10:24:32.001Z</time></trkpt><trkpt lat="41.88897880231794" lon="1.5977181934887743"><ele>683.3333333333333</ele><time>2026-04-25T10:24:33.001Z</time></trkpt><trkpt lat="41.88878039695782" lon="1.5977286201936343"><ele>683.0</ele><time>2026-04-25T10:24:34.001Z</time></trkpt><trkpt lat="41.88859699166648" lon="1.5977223059847894"><ele>683.0</ele><time>2026-04-25T10:24:35.001Z</time></trkpt><trkpt lat="41.88842711962102" lon="1.5976923106487053"><ele>683.0</ele><time>2026-04-25T10:24:36.001Z</time></trkpt><trkpt lat="41.888265395196484" lon="1.5975881507220122"><ele>683.0</ele><time>2026-04-25T10:24:37.001Z</time></trkpt><trkpt lat="41.888092640187125" lon="1.5974841929284058"><ele>682.3333333333333</ele><time>2026-04-25T10:24:38.001Z</time></trkpt><trkpt lat="41.887932375132465" lon="1.5973606823334778"><ele>681.6666666666666</ele><time>2026-04-25T10:24:39.001Z</time></trkpt><trkpt lat="41.88777389318909" lon="1.5972955398989668"><ele>681.0</ele><time>2026-04-25T10:24:40.001Z</time></trkpt><trkpt lat="41.88759546656234" lon="1.5972717777756815"><ele>679.0</ele><time>2026-04-25T10:24:41.001Z</time></trkpt><trkpt lat="41.8874141812187" lon="1.59728841551535"><ele>677.0</ele><time>2026-04-25T10:24:42.001Z</time></trkpt><trkpt lat="41.88723984149842" lon="1.5973478294325312"><ele>675.0</ele><time>2026-04-25T10:24:43.001Z</time></trkpt><trkpt lat="41.88708069930966" lon="1.5974479864467308"><ele>675.0</ele><time>2026-04-25T10:24:44.001Z</time></trkpt><trkpt lat="41.88694417925715" lon="1.5975830599107916"><ele>675.0</ele><time>2026-04-25T10:24:45.001Z</time></trkpt><trkpt lat="41.88685384785457" lon="1.5977310110535061"><ele>675.0</ele><time>2026-04-25T10:24:46.001Z</time></trkpt><trkpt lat="41.88678170420066" lon="1.597911800842875"><ele>671.6666666666666</ele><time>2026-04-25T10:24:47.001Z</time></trkpt><trkpt lat="41.886742832617784" lon="1.5981242704780905"><ele>668.3333333333333</ele><time>2026-04-25T10:24:48.001Z</time></trkpt><trkpt lat="41.88674395147292" lon="1.5983591743510837"><ele>665.0</ele><time>2026-04-25T10:24:49.001Z</time></trkpt><trkpt lat="41.88672324306853" lon="1.5986397001314852"><ele>662.0</ele><time>2026-04-25T10:24:50.001Z</time></trkpt><trkpt lat="41.88670624369699" lon="1.5989493460456254"><ele>659.0</ele><time>2026-04-25T10:24:51.001Z</time></trkpt><trkpt lat="41.88668816275371" lon="1.5992712405234595"><ele>655.0</ele><time>2026-04-25T10:24:52.001Z</time></trkpt><trkpt lat="41.88666640001881" lon="1.5995995318969247"><ele>651.0</ele><time>2026-04-25T10:24:53.001Z</time></trkpt><trkpt lat="41.886644475469915" lon="1.5999306401529811"><ele>651.0</ele><time>2026-04-25T10:24:54.001Z</time></trkpt><trkpt lat="41.88662725990215" lon="1.600243799906148"><ele>651.0</ele><time>2026-04-25T10:24:55.001Z</time></trkpt><trkpt lat="41.88662935221187" lon="1.6005503020698686"><ele>649.5</ele><time>2026-04-25T10:24:56.001Z</time></trkpt><trkpt lat="41.886674204445846" lon="1.600868276960961"><ele>648.0</ele><time>2026-04-25T10:24:57.001Z</time></trkpt><trkpt lat="41.88672724738118" lon="1.6012089837366428"><ele>648.5</ele><time>2026-04-25T10:24:58.001Z</time></trkpt><trkpt lat="41.88679344225972" lon="1.6015706573660904"><ele>649.0</ele><time>2026-04-25T10:24:59.001Z</time></trkpt><trkpt lat="41.88685716201562" lon="1.6019457706049085"><ele>648.0</ele><time>2026-04-25T10:25:00.001Z</time></trkpt><trkpt lat="41.88691864586733" lon="1.6023310823154264"><ele>647.0</ele><time>2026-04-25T10:25:01.001Z</time></trkpt><trkpt lat="41.88698191476087" lon="1.6027189434585167"><ele>645.0</ele><time>2026-04-25T10:25:02.001Z</time></trkpt><trkpt lat="41.887047971692574" lon="1.6030999989842345"><ele>643.0</ele><time>2026-04-25T10:25:03.001Z</time></trkpt><trkpt lat="41.88711233573574" lon="1.6034789799989821"><ele>641.5</ele><time>2026-04-25T10:25:04.001Z</time></trkpt><trkpt lat="41.88717345516019" lon="1.6038523986638302"><ele>640.0</ele><time>2026-04-25T10:25:05.001Z</time></trkpt><trkpt lat="41.88723193118598" lon="1.6042204299975362"><ele>639.0</ele><time>2026-04-25T10:25:06.001Z</time></trkpt><trkpt lat="41.8872904085765" lon="1.6045849715750005"><ele>638.0</ele><time>2026-04-25T10:25:07.001Z</time></trkpt><trkpt lat="41.88734815844091" lon="1.6049465577461415"><ele>638.0</ele><time>2026-04-25T10:25:08.001Z</time></trkpt><trkpt lat="41.887407198483245" lon="1.6053057825085426"><ele>638.0</ele><time>2026-04-25T10:25:09.001Z</time></trkpt><trkpt lat="41.88746818575357" lon="1.6056716182628945"><ele>638.5</ele><time>2026-04-25T10:25:10.001Z</time></trkpt><trkpt lat="41.88752852351477" lon="1.6060409177874313"><ele>639.0</ele><time>2026-04-25T10:25:11.001Z</time></trkpt><trkpt lat="41.887587762249" lon="1.6064085882957362"><ele>639.0</ele><time>2026-04-25T10:25:12.001Z</time></trkpt><trkpt lat="41.88765067210297" lon="1.606781487076157"><ele>639.0</ele><time>2026-04-25T10:25:13.001Z</time></trkpt><trkpt lat="41.88771452583611" lon="1.6071527784590351"><ele>639.0</ele><time>2026-04-25T10:25:14.001Z</time></trkpt><trkpt lat="41.88776122486612" lon="1.6075385826640565"><ele>639.0</ele><time>2026-04-25T10:25:15.001Z</time></trkpt><trkpt lat="41.887840784685885" lon="1.6079256204731787"><ele>638.5</ele><time>2026-04-25T10:25:16.001Z</time></trkpt><trkpt lat="41.88790437581953" lon="1.6083212446621034"><ele>638.0</ele><time>2026-04-25T10:25:17.001Z</time></trkpt><trkpt lat="41.887969398937564" lon="1.608708098687487"><ele>638.0</ele><time>2026-04-25T10:25:18.001Z</time></trkpt><trkpt lat="41.88801873207658" lon="1.6090943717787511"><ele>638.0</ele><time>2026-04-25T10:25:19.001Z</time></trkpt><trkpt lat="41.888082505037545" lon="1.6094771001296808"><ele>638.0</ele><time>2026-04-25T10:25:20.001Z</time></trkpt><trkpt lat="41.88814383724663" lon="1.6098530064568477"><ele>638.0</ele><time>2026-04-25T10:25:21.001Z</time></trkpt><trkpt lat="41.888203748166134" lon="1.6102213534300933"><ele>638.0</ele><time>2026-04-25T10:25:22.001Z</time></trkpt><trkpt lat="41.88826302781735" lon="1.6105872661675416"><ele>638.0</ele><time>2026-04-25T10:25:23.001Z</time></trkpt><trkpt lat="41.88831912475407" lon="1.6109365031574803"><ele>639.5</ele><time>2026-04-25T10:25:24.001Z</time></trkpt><trkpt lat="41.88837209788892" lon="1.6112662925787433"><ele>641.0</ele><time>2026-04-25T10:25:25.001Z</time></trkpt><trkpt lat="41.88842147155276" lon="1.611568506206891"><ele>641.0</ele><time>2026-04-25T10:25:26.001Z</time></trkpt><trkpt lat="41.888468864328416" lon="1.6118526421687691"><ele>641.0</ele><time>2026-04-25T10:25:27.001Z</time></trkpt><trkpt lat="41.88851338748403" lon="1.6121304435889345"><ele>641.0</ele><time>2026-04-25T10:25:28.001Z</time></trkpt><trkpt lat="41.88855503017434" lon="1.6123960079661666"><ele>641.0</ele><time>2026-04-25T10:25:29.001Z</time></trkpt><trkpt lat="41.88857114567285" lon="1.6126215524352208"><ele>641.0</ele><time>2026-04-25T10:25:30.001Z</time></trkpt><trkpt lat="41.888560941617996" lon="1.6128032906792014"><ele>641.0</ele><time>2026-04-25T10:25:31.001Z</time></trkpt><trkpt lat="41.88852707684607" lon="1.612977558608057"><ele>641.0</ele><time>2026-04-25T10:25:32.001Z</time></trkpt><trkpt lat="41.888475717990794" lon="1.6131719887984652"><ele>643.0</ele><time>2026-04-25T10:25:33.001Z</time></trkpt><trkpt lat="41.88838753111689" lon="1.6133627933466763"><ele>645.0</ele><time>2026-04-25T10:25:34.001Z</time></trkpt><trkpt lat="41.888332955321374" lon="1.6135825521704756"><ele>647.0</ele><time>2026-04-25T10:25:35.001Z</time></trkpt><trkpt lat="41.88808367014818" lon="1.6137433886265387"><ele>647.0</ele><time>2026-04-25T10:25:36.001Z</time></trkpt><trkpt lat="41.88794257083105" lon="1.613981367776834"><ele>647.0</ele><time>2026-04-25T10:25:37.001Z</time></trkpt><trkpt lat="41.88779812032219" lon="1.6142083646342706"><ele>647.0</ele><time>2026-04-25T10:25:38.001Z</time></trkpt><trkpt lat="41.887665203724524" lon="1.6144235218405265"><ele>648.6666666666666</ele><time>2026-04-25T10:25:39.001Z</time></trkpt><trkpt lat="41.88754246101408" lon="1.614626593868275"><ele>650.3333333333334</ele><time>2026-04-25T10:25:40.001Z</time></trkpt><trkpt lat="41.88743435332586" lon="1.6148491116364174"><ele>652.0</ele><time>2026-04-25T10:25:41.001Z</time></trkpt><trkpt lat="41.88734847603495" lon="1.6151240453236748"><ele>654.5</ele><time>2026-04-25T10:25:42.001Z</time></trkpt><trkpt lat="41.887287989141825" lon="1.6154454520134078"><ele>657.0</ele><time>2026-04-25T10:25:43.001Z</time></trkpt><trkpt lat="41.887235489863514" lon="1.6157632516940563"><ele>657.0</ele><time>2026-04-25T10:25:44.001Z</time></trkpt><trkpt lat="41.887187626372715" lon="1.6160311171817567"><ele>657.0</ele><time>2026-04-25T10:25:45.001Z</time></trkpt><trkpt lat="41.8871466636883" lon="1.6162522992584147"><ele>657.0</ele><time>2026-04-25T10:25:46.001Z</time></trkpt><trkpt lat="41.88712028591276" lon="1.6164708425799355"><ele>658.0</ele><time>2026-04-25T10:25:47.001Z</time></trkpt><trkpt lat="41.887128156029945" lon="1.616703654468537"><ele>659.0</ele><time>2026-04-25T10:25:48.001Z</time></trkpt><trkpt lat="41.88718533570762" lon="1.6169645665958476"><ele>660.0</ele><time>2026-04-25T10:25:49.001Z</time></trkpt><trkpt lat="41.88727469398323" lon="1.6172567929696566"><ele>662.5</ele><time>2026-04-25T10:25:50.001Z</time></trkpt><trkpt lat="41.887372156170336" lon="1.6175839989918313"><ele>665.0</ele><time>2026-04-25T10:25:51.001Z</time></trkpt><trkpt lat="41.88748019968665" lon="1.6179408961596986"><ele>667.0</ele><time>2026-04-25T10:25:52.001Z</time></trkpt><trkpt lat="41.88758702989841" lon="1.6183044329588614"><ele>669.0</ele><time>2026-04-25T10:25:53.001Z</time></trkpt><trkpt lat="41.887688539884245" lon="1.6186563280655348"><ele>673.5</ele><time>2026-04-25T10:25:54.001Z</time></trkpt><trkpt lat="41.887784273179996" lon="1.6189842000604302"><ele>678.0</ele><time>2026-04-25T10:25:55.001Z</time></trkpt><trkpt lat="41.887869472144786" lon="1.6192806573006229"><ele>680.6666666666666</ele><time>2026-04-25T10:25:56.001Z</time></trkpt><trkpt lat="41.88795178852749" lon="1.6195499865407896"><ele>683.3333333333333</ele><time>2026-04-25T10:25:57.001Z</time></trkpt><trkpt lat="41.88802876644806" lon="1.6198103024096506"><ele>686.0</ele><time>2026-04-25T10:25:58.001Z</time></trkpt><trkpt lat="41.888101603604866" lon="1.6200594493082114"><ele>686.3333333333333</ele><time>2026-04-25T10:25:59.001Z</time></trkpt><trkpt lat="41.88816401582198" lon="1.6203179024288443"><ele>686.6666666666666</ele><time>2026-04-25T10:26:00.001Z</time></trkpt><trkpt lat="41.888207011603825" lon="1.62058919507328"><ele>687.0</ele><time>2026-04-25T10:26:01.001Z</time></trkpt><trkpt lat="41.88822893764453" lon="1.620874890107742"><ele>687.3333333333334</ele><time>2026-04-25T10:26:02.001Z</time></trkpt><trkpt lat="41.88824217838813" lon="1.6211660022724086"><ele>687.6666666666667</ele><time>2026-04-25T10:26:03.001Z</time></trkpt><trkpt lat="41.88825857423231" lon="1.6214275541347623"><ele>688.0</ele><time>2026-04-25T10:26:04.001Z</time></trkpt><trkpt lat="41.88829388280496" lon="1.621678177628382"><ele>688.0</ele><time>2026-04-25T10:26:05.001Z</time></trkpt><trkpt lat="41.888367335297744" lon="1.6219463229596323"><ele>688.0</ele><time>2026-04-25T10:26:06.001Z</time></trkpt><trkpt lat="41.88847524073995" lon="1.6222427888336994"><ele>688.0</ele><time>2026-04-25T10:26:07.001Z</time></trkpt><trkpt lat="41.8885843183733" lon="1.6225583577446445"><ele>688.0</ele><time>2026-04-25T10:26:08.001Z</time></trkpt><trkpt lat="41.88867644815438" lon="1.6228530858271186"><ele>688.0</ele><time>2026-04-25T10:26:09.001Z</time></trkpt><trkpt lat="41.888762626865" lon="1.623116489245924"><ele>688.0</ele><time>2026-04-25T10:26:10.001Z</time></trkpt><trkpt lat="41.888864848598935" lon="1.6233739498301896"><ele>688.0</ele><time>2026-04-25T10:26:11.001Z</time></trkpt><trkpt lat="41.88899474658482" lon="1.6236302721492715"><ele>690.3333333333334</ele><time>2026-04-25T10:26:12.001Z</time></trkpt><trkpt lat="41.88912478336548" lon="1.6238813993247345"><ele>692.6666666666666</ele><time>2026-04-25T10:26:13.001Z</time></trkpt><trkpt lat="41.889232876777534" lon="1.6240900409737866"><ele>695.0</ele><time>2026-04-25T10:26:14.001Z</time></trkpt><trkpt lat="41.88932262003589" lon="1.624262794705472"><ele>695.0</ele><time>2026-04-25T10:26:15.001Z</time></trkpt><trkpt lat="41.889391260969795" lon="1.6244392281647435"><ele>695.0</ele><time>2026-04-25T10:26:16.001Z</time></trkpt><trkpt lat="41.88942333067825" lon="1.624640258721745"><ele>695.0</ele><time>2026-04-25T10:26:17.001Z</time></trkpt><trkpt lat="41.88942389834765" lon="1.624852663481167"><ele>691.75</ele><time>2026-04-25T10:26:18.001Z</time></trkpt><trkpt lat="41.88941856793936" lon="1.6250282707582442"><ele>688.5</ele><time>2026-04-25T10:26:19.001Z</time></trkpt><trkpt lat="41.88945896289412" lon="1.6251565179915104"><ele>685.25</ele><time>2026-04-25T10:26:20.001Z</time></trkpt><trkpt lat="41.889561006544696" lon="1.6252529633317734"><ele>682.0</ele><time>2026-04-25T10:26:21.001Z</time></trkpt><trkpt lat="41.88972022769922" lon="1.625326096452656"><ele>680.6666666666667</ele><time>2026-04-25T10:26:22.001Z</time></trkpt><trkpt lat="41.88990612576442" lon="1.625419804182847"><ele>679.3333333333334</ele><time>2026-04-25T10:26:23.001Z</time></trkpt><trkpt lat="41.89007658113589" lon="1.625560463178205"><ele>678.0</ele><time>2026-04-25T10:26:24.001Z</time></trkpt><trkpt lat="41.89022611947701" lon="1.6257395827596517"><ele>678.0</ele><time>2026-04-25T10:26:25.001Z</time></trkpt><trkpt lat="41.890374904022494" lon="1.625925153160205"><ele>678.0</ele><time>2026-04-25T10:26:26.001Z</time></trkpt><trkpt lat="41.89053297766966" lon="1.6261123727737257"><ele>678.0</ele><time>2026-04-25T10:26:27.001Z</time></trkpt><trkpt lat="41.89068721674687" lon="1.6263063723359072"><ele>679.0</ele><time>2026-04-25T10:26:28.001Z</time></trkpt><trkpt lat="41.8908260668275" lon="1.6265244757249662"><ele>680.0</ele><time>2026-04-25T10:26:29.001Z</time></trkpt><trkpt lat="41.890959463683394" lon="1.626764575313683"><ele>681.0</ele><time>2026-04-25T10:26:30.001Z</time></trkpt><trkpt lat="41.891084357353414" lon="1.6269809050917852"><ele>677.0</ele><time>2026-04-25T10:26:31.001Z</time></trkpt><trkpt lat="41.891197941194015" lon="1.6272002056100257"><ele>673.0</ele><time>2026-04-25T10:26:32.001Z</time></trkpt><trkpt lat="41.8913028795523" lon="1.627428363464812"><ele>669.0</ele><time>2026-04-25T10:26:33.001Z</time></trkpt><trkpt lat="41.891408195854574" lon="1.6276413162927441"><ele>665.0</ele><time>2026-04-25T10:26:34.001Z</time></trkpt><trkpt lat="41.89151882420441" lon="1.6278343239687647"><ele>661.0</ele><time>2026-04-25T10:26:35.001Z</time></trkpt><trkpt lat="41.8916170326409" lon="1.6280095071393972"><ele>657.0</ele><time>2026-04-25T10:26:36.001Z</time></trkpt><trkpt lat="41.89168374177295" lon="1.6281992007504118"><ele>657.0</ele><time>2026-04-25T10:26:37.001Z</time></trkpt><trkpt lat="41.89171799922751" lon="1.6284212957764292"><ele>657.0</ele><time>2026-04-25T10:26:38.001Z</time></trkpt><trkpt lat="41.89173803334399" lon="1.6286267086227415"><ele>657.0</ele><time>2026-04-25T10:26:39.001Z</time></trkpt><trkpt lat="41.89178921846153" lon="1.6288225339502262"><ele>658.3333333333334</ele><time>2026-04-25T10:26:40.001Z</time></trkpt><trkpt lat="41.891887460424826" lon="1.6290135986130838"><ele>659.6666666666667</ele><time>2026-04-25T10:26:41.001Z</time></trkpt><trkpt lat="41.89203414364974" lon="1.629187797470097"><ele>661.0</ele><time>2026-04-25T10:26:42.001Z</time></trkpt><trkpt lat="41.892196525689855" lon="1.6293734999834395"><ele>661.0</ele><time>2026-04-25T10:26:43.001Z</time></trkpt><trkpt lat="41.892359347086966" lon="1.6295575697892706"><ele>661.0</ele><time>2026-04-25T10:26:44.001Z</time></trkpt><trkpt lat="41.892501440345384" lon="1.6297184237854947"><ele>661.0</ele><time>2026-04-25T10:26:45.001Z</time></trkpt><trkpt lat="41.89262925130429" lon="1.629875636953865"><ele>661.0</ele><time>2026-04-25T10:26:46.001Z</time></trkpt><trkpt lat="41.89274683535316" lon="1.6300499003436102"><ele>661.0</ele><time>2026-04-25T10:26:47.001Z</time></trkpt><trkpt lat="41.892850097236916" lon="1.6302610856100235"><ele>661.0</ele><time>2026-04-25T10:26:48.001Z</time></trkpt><trkpt lat="41.89293316273896" lon="1.6305150035594145"><ele>657.0</ele><time>2026-04-25T10:26:49.001Z</time></trkpt><trkpt lat="41.89300199940862" lon="1.6307802922351924"><ele>653.0</ele><time>2026-04-25T10:26:50.001Z</time></trkpt><trkpt lat="41.893064817529044" lon="1.6310228187680684"><ele>649.0</ele><time>2026-04-25T10:26:51.001Z</time></trkpt><trkpt lat="41.89312849217013" lon="1.6312303529565548"><ele>650.6666666666667</ele><time>2026-04-25T10:26:52.001Z</time></trkpt><trkpt lat="41.89321565306799" lon="1.6314015668051998"><ele>652.3333333333334</ele><time>2026-04-25T10:26:53.001Z</time></trkpt><trkpt lat="41.89334603267582" lon="1.6315532852309396"><ele>654.0</ele><time>2026-04-25T10:26:54.001Z</time></trkpt><trkpt lat="41.89349413514948" lon="1.631671377296153"><ele>654.0</ele><time>2026-04-25T10:26:55.001Z</time></trkpt><trkpt lat="41.89361376672105" lon="1.6317982719875848"><ele>654.0</ele><time>2026-04-25T10:26:56.001Z</time></trkpt><trkpt lat="41.89368440088497" lon="1.6319689910681434"><ele>654.0</ele><time>2026-04-25T10:26:57.001Z</time></trkpt><trkpt lat="41.89370975957227" lon="1.6321760978498336"><ele>650.0</ele><time>2026-04-25T10:26:58.001Z</time></trkpt><trkpt lat="41.893710327863026" lon="1.6324017754587623"><ele>646.0</ele><time>2026-04-25T10:26:59.001Z</time></trkpt><trkpt lat="41.89372721029208" lon="1.6326093341452454"><ele>642.0</ele><time>2026-04-25T10:27:00.001Z</time></trkpt><trkpt lat="41.8937669679543" lon="1.6327871872033042"><ele>638.6666666666666</ele><time>2026-04-25T10:27:01.001Z</time></trkpt><trkpt lat="41.89384041918361" lon="1.6329543943337308"><ele>635.3333333333333</ele><time>2026-04-25T10:27:02.001Z</time></trkpt><trkpt lat="41.8939614035758" lon="1.6330990396012783"><ele>632.0</ele><time>2026-04-25T10:27:03.001Z</time></trkpt><trkpt lat="41.894121578440476" lon="1.6332118787697807"><ele>630.0</ele><time>2026-04-25T10:27:04.001Z</time></trkpt><trkpt lat="41.894294692503905" lon="1.6333377423748328"><ele>628.0</ele><time>2026-04-25T10:27:05.001Z</time></trkpt><trkpt lat="41.89444290414479" lon="1.6334993983664858"><ele>626.0</ele><time>2026-04-25T10:27:06.001Z</time></trkpt><trkpt lat="41.894568083687" lon="1.6336678880112574"><ele>626.0</ele><time>2026-04-25T10:27:07.001Z</time></trkpt><trkpt lat="41.89470930114999" lon="1.6338081208607131"><ele>626.0</ele><time>2026-04-25T10:27:08.001Z</time></trkpt><trkpt lat="41.89486833073803" lon="1.6339165012505759"><ele>626.0</ele><time>2026-04-25T10:27:09.001Z</time></trkpt><trkpt lat="41.89502483244975" lon="1.6339905730522901"><ele>629.75</ele><time>2026-04-25T10:27:10.001Z</time></trkpt><trkpt lat="41.89517434649884" lon="1.6340237765833625"><ele>633.5</ele><time>2026-04-25T10:27:11.001Z</time></trkpt><trkpt lat="41.89531516919825" lon="1.6340524545655193"><ele>637.25</ele><time>2026-04-25T10:27:12.001Z</time></trkpt><trkpt lat="41.89543608053188" lon="1.634132002398176"><ele>641.0</ele><time>2026-04-25T10:27:13.001Z</time></trkpt><trkpt lat="41.89553921287252" lon="1.634301599163359"><ele>638.0</ele><time>2026-04-25T10:27:14.001Z</time></trkpt><trkpt lat="41.89563155880403" lon="1.634535070584119"><ele>635.0</ele><time>2026-04-25T10:27:15.001Z</time></trkpt><trkpt lat="41.895721379894006" lon="1.6347982259568914"><ele>632.0</ele><time>2026-04-25T10:27:16.001Z</time></trkpt><trkpt lat="41.89581714383124" lon="1.635067830190553"><ele>628.6666666666666</ele><time>2026-04-25T10:27:17.001Z</time></trkpt><trkpt lat="41.89591060732997" lon="1.6353304697046374"><ele>625.3333333333334</ele><time>2026-04-25T10:27:18.001Z</time></trkpt><trkpt lat="41.89599238027366" lon="1.6355863482769022"><ele>622.0</ele><time>2026-04-25T10:27:19.001Z</time></trkpt><trkpt lat="41.896040981514965" lon="1.635851000147825"><ele>625.6666666666667</ele><time>2026-04-25T10:27:20Z</time></trkpt><trkpt lat="41.89606513000726" lon="1.6361270029334742"><ele>629.3333333333334</ele><time>2026-04-25T10:27:21Z</time></trkpt><trkpt lat="41.896078514577525" lon="1.6363846847156684"><ele>633.0</ele><time>2026-04-25T10:27:22Z</time></trkpt><trkpt lat="41.896096705446425" lon="1.6366156705472799"><ele>633.0</ele><time>2026-04-25T10:27:23Z</time></trkpt><trkpt lat="41.896127069877224" lon="1.6368210602063258"><ele>633.0</ele><time>2026-04-25T10:27:24Z</time></trkpt><trkpt lat="41.896198836698915" lon="1.637032535927464"><ele>633.0</ele><time>2026-04-25T10:27:25Z</time></trkpt><trkpt lat="41.896324076858306" lon="1.6372573641324801"><ele>626.5</ele><time>2026-04-25T10:27:26Z</time></trkpt><trkpt lat="41.89648321994178" lon="1.6374989105734157"><ele>620.0</ele><time>2026-04-25T10:27:27Z</time></trkpt><trkpt lat="41.89666712514486" lon="1.6377536056949313"><ele>617.5</ele><time>2026-04-25T10:27:28Z</time></trkpt><trkpt lat="41.89685639372973" lon="1.6379943343730055"><ele>615.0</ele><time>2026-04-25T10:27:29Z</time></trkpt><trkpt lat="41.8970289869227" lon="1.6382105867977952"><ele>615.0</ele><time>2026-04-25T10:27:30Z</time></trkpt><trkpt lat="41.89719893915662" lon="1.6384217918611692"><ele>615.0</ele><time>2026-04-25T10:27:31Z</time></trkpt><trkpt lat="41.89736721206955" lon="1.6386229005044302"><ele>612.5</ele><time>2026-04-25T10:27:32Z</time></trkpt><trkpt lat="41.89755074906886" lon="1.6388097906903791"><ele>610.0</ele><time>2026-04-25T10:27:33Z</time></trkpt><trkpt lat="41.897750212565114" lon="1.6389777671473176"><ele>610.0</ele><time>2026-04-25T10:27:34Z</time></trkpt><trkpt lat="41.89795075773508" lon="1.639140427567019"><ele>610.0</ele><time>2026-04-25T10:27:35Z</time></trkpt><trkpt lat="41.89813235795195" lon="1.6392904524672345"><ele>610.0</ele><time>2026-04-25T10:27:36Z</time></trkpt><trkpt lat="41.89829755509589" lon="1.639430897817569"><ele>610.6666666666667</ele><time>2026-04-25T10:27:37Z</time></trkpt><trkpt lat="41.89844515045999" lon="1.6395819562266354"><ele>611.3333333333334</ele><time>2026-04-25T10:27:38Z</time></trkpt><trkpt lat="41.89857541012272" lon="1.6397780512004112"><ele>612.0</ele><time>2026-04-25T10:27:39Z</time></trkpt><trkpt lat="41.89867970675999" lon="1.6400244676278857"><ele>609.0</ele><time>2026-04-25T10:27:40Z</time></trkpt><trkpt lat="41.89876128198937" lon="1.6403043828316992"><ele>606.0</ele><time>2026-04-25T10:27:41Z</time></trkpt><trkpt lat="41.898847543945315" lon="1.6405944763197606"><ele>606.0</ele><time>2026-04-25T10:27:42Z</time></trkpt><trkpt lat="41.89892786341143" lon="1.6408945974327434"><ele>606.0</ele><time>2026-04-25T10:27:43Z</time></trkpt><trkpt lat="41.8989898730792" lon="1.6412036182439451"><ele>604.0</ele><time>2026-04-25T10:27:44Z</time></trkpt><trkpt lat="41.8990472161487" lon="1.6415145921336907"><ele>602.0</ele><time>2026-04-25T10:27:45Z</time></trkpt><trkpt lat="41.899110200046444" lon="1.6418258651278121"><ele>601.0</ele><time>2026-04-25T10:27:46Z</time></trkpt><trkpt lat="41.899174904163125" lon="1.6421311980081221"><ele>600.0</ele><time>2026-04-25T10:27:47Z</time></trkpt><trkpt lat="41.89923713393665" lon="1.6424157648762274"><ele>602.6666666666666</ele><time>2026-04-25T10:27:48Z</time></trkpt><trkpt lat="41.89929688719735" lon="1.6426837774877168"><ele>605.3333333333333</ele><time>2026-04-25T10:27:49Z</time></trkpt><trkpt lat="41.89937142207916" lon="1.642957813741852"><ele>608.0</ele><time>2026-04-25T10:27:50Z</time></trkpt><trkpt lat="41.89947743827159" lon="1.643229928079366"><ele>608.0</ele><time>2026-04-25T10:27:51Z</time></trkpt><trkpt lat="41.89961046497599" lon="1.6435008559395445"><ele>608.0</ele><time>2026-04-25T10:27:52Z</time></trkpt><trkpt lat="41.899753166395406" lon="1.6437785175334663"><ele>605.0</ele><time>2026-04-25T10:27:53Z</time></trkpt><trkpt lat="41.89989317845032" lon="1.6440567943145836"><ele>602.0</ele><time>2026-04-25T10:27:54Z</time></trkpt><trkpt lat="41.900027750485926" lon="1.644335404640223"><ele>602.5</ele><time>2026-04-25T10:27:55Z</time></trkpt><trkpt lat="41.90015948459472" lon="1.6446086385523069"><ele>603.0</ele><time>2026-04-25T10:27:56Z</time></trkpt><trkpt lat="41.90028253815651" lon="1.6448607509616913"><ele>603.0</ele><time>2026-04-25T10:27:57Z</time></trkpt><trkpt lat="41.90041224188967" lon="1.6451136363361303"><ele>603.0</ele><time>2026-04-25T10:27:58Z</time></trkpt><trkpt lat="41.90055938639498" lon="1.6453670271516503"><ele>601.5</ele><time>2026-04-25T10:27:59Z</time></trkpt><trkpt lat="41.90072656888074" lon="1.6456195624866636"><ele>600.0</ele><time>2026-04-25T10:28:00Z</time></trkpt><trkpt lat="41.90091107023254" lon="1.6458724971962462"><ele>601.5</ele><time>2026-04-25T10:28:01Z</time></trkpt><trkpt lat="41.90109794247959" lon="1.6461188074004354"><ele>603.0</ele><time>2026-04-25T10:28:02Z</time></trkpt><trkpt lat="41.90127116212771" lon="1.6463627869559063"><ele>603.0</ele><time>2026-04-25T10:28:03Z</time></trkpt><trkpt lat="41.90141298766807" lon="1.6466363682846477"><ele>603.0</ele><time>2026-04-25T10:28:04Z</time></trkpt><trkpt lat="41.90156507618916" lon="1.646897962321864"><ele>602.0</ele><time>2026-04-25T10:28:05Z</time></trkpt><trkpt lat="41.90170141759493" lon="1.6471710700942157"><ele>601.0</ele><time>2026-04-25T10:28:06Z</time></trkpt><trkpt lat="41.90184321004857" lon="1.6474370055381005"><ele>602.5</ele><time>2026-04-25T10:28:07Z</time></trkpt><trkpt lat="41.901986332104755" lon="1.6477018500824634"><ele>604.0</ele><time>2026-04-25T10:28:08Z</time></trkpt><trkpt lat="41.9021288426448" lon="1.6479689877178267"><ele>604.0</ele><time>2026-04-25T10:28:09Z</time></trkpt><trkpt lat="41.902261951558444" lon="1.6482273507402954"><ele>604.0</ele><time>2026-04-25T10:28:10Z</time></trkpt><trkpt lat="41.90237743842196" lon="1.648473274670456"><ele>602.5</ele><time>2026-04-25T10:28:11Z</time></trkpt><trkpt lat="41.90248239930243" lon="1.6487397365714418"><ele>601.0</ele><time>2026-04-25T10:28:12Z</time></trkpt><trkpt lat="41.90257276562392" lon="1.6490631385107597"><ele>601.5</ele><time>2026-04-25T10:28:13Z</time></trkpt><trkpt lat="41.902704233532646" lon="1.649415031731055"><ele>602.0</ele><time>2026-04-25T10:28:14Z</time></trkpt><trkpt lat="41.90283056345992" lon="1.6498003442159561"><ele>599.0</ele><time>2026-04-25T10:28:15Z</time></trkpt><trkpt lat="41.902956687131656" lon="1.6501850953812924"><ele>596.0</ele><time>2026-04-25T10:28:16Z</time></trkpt><trkpt lat="41.90307842077594" lon="1.650557049473108"><ele>596.0</ele><time>2026-04-25T10:28:17Z</time></trkpt><trkpt lat="41.90319815774438" lon="1.6509227243802513"><ele>596.0</ele><time>2026-04-25T10:28:18Z</time></trkpt><trkpt lat="41.90331028128449" lon="1.6512646326620999"><ele>592.0</ele><time>2026-04-25T10:28:19Z</time></trkpt><trkpt lat="41.903423572817815" lon="1.651606451957313"><ele>588.0</ele><time>2026-04-25T10:28:20Z</time></trkpt><trkpt lat="41.903546214218096" lon="1.65197573875397"><ele>588.0</ele><time>2026-04-25T10:28:21Z</time></trkpt><trkpt lat="41.903672773287326" lon="1.652360800832312"><ele>588.0</ele><time>2026-04-25T10:28:22Z</time></trkpt><trkpt lat="41.90379925631318" lon="1.6527432827804924"><ele>587.5</ele><time>2026-04-25T10:28:23Z</time></trkpt><trkpt lat="41.9039205428486" lon="1.6531185880144876"><ele>587.0</ele><time>2026-04-25T10:28:24Z</time></trkpt><trkpt lat="41.904032438337" lon="1.6534620068931132"><ele>588.0</ele><time>2026-04-25T10:28:25Z</time></trkpt><trkpt lat="41.90414049690395" lon="1.6537808444132789"><ele>589.0</ele><time>2026-04-25T10:28:26Z</time></trkpt><trkpt lat="41.904243544928065" lon="1.6540990377896347"><ele>583.0</ele><time>2026-04-25T10:28:27Z</time></trkpt><trkpt lat="41.90433996610529" lon="1.6543986938529476"><ele>577.0</ele><time>2026-04-25T10:28:28Z</time></trkpt><trkpt lat="41.904429485940405" lon="1.654680108956312"><ele>577.0</ele><time>2026-04-25T10:28:29Z</time></trkpt><trkpt lat="41.90451852714981" lon="1.6549516191602927"><ele>577.0</ele><time>2026-04-25T10:28:30Z</time></trkpt><trkpt lat="41.9046021774957" lon="1.6552017408864554"><ele>577.0</ele><time>2026-04-25T10:28:31Z</time></trkpt><trkpt lat="41.904657458260225" lon="1.6554603796169072"><ele>579.5</ele><time>2026-04-25T10:28:32Z</time></trkpt><trkpt lat="41.90473122974876" lon="1.655738032834049"><ele>582.0</ele><time>2026-04-25T10:28:33Z</time></trkpt><trkpt lat="41.904779690044094" lon="1.6560503603172845"><ele>584.5</ele><time>2026-04-25T10:28:34Z</time></trkpt><trkpt lat="41.90483605840239" lon="1.6563656620078069"><ele>587.0</ele><time>2026-04-25T10:28:35Z</time></trkpt><trkpt lat="41.904901588071226" lon="1.65666121356957"><ele>588.0</ele><time>2026-04-25T10:28:36Z</time></trkpt><trkpt lat="41.90498961549416" lon="1.6569540549302313"><ele>589.0</ele><time>2026-04-25T10:28:37Z</time></trkpt><trkpt lat="41.90510592684609" lon="1.6572465906400262"><ele>588.0</ele><time>2026-04-25T10:28:38Z</time></trkpt><trkpt lat="41.90524095150434" lon="1.6575310056952508"><ele>587.0</ele><time>2026-04-25T10:28:39Z</time></trkpt><trkpt lat="41.90537970698362" lon="1.6578206326373066"><ele>587.0</ele><time>2026-04-25T10:28:40Z</time></trkpt><trkpt lat="41.905510727555644" lon="1.6581084656110956"><ele>587.0</ele><time>2026-04-25T10:28:41Z</time></trkpt><trkpt lat="41.905636877982985" lon="1.6583898522104348"><ele>587.0</ele><time>2026-04-25T10:28:42Z</time></trkpt><trkpt lat="41.90575448523464" lon="1.658649417054981"><ele>587.0</ele><time>2026-04-25T10:28:43Z</time></trkpt><trkpt lat="41.90586888572976" lon="1.6588903544050646"><ele>587.0</ele><time>2026-04-25T10:28:44Z</time></trkpt><trkpt lat="41.90598762465453" lon="1.6591337667248813"><ele>587.0</ele><time>2026-04-25T10:28:45Z</time></trkpt><trkpt lat="41.90610104724443" lon="1.6593724009513182"><ele>587.0</ele><time>2026-04-25T10:28:46Z</time></trkpt><trkpt lat="41.906198006906585" lon="1.6595901129776731"><ele>587.0</ele><time>2026-04-25T10:28:47Z</time></trkpt><trkpt lat="41.906272237661256" lon="1.6597873309808446"><ele>588.0</ele><time>2026-04-25T10:28:48Z</time></trkpt><trkpt lat="41.906316191646354" lon="1.6599842865599201"><ele>589.0</ele><time>2026-04-25T10:28:49Z</time></trkpt><trkpt lat="41.90633669426452" lon="1.6602181625541639"><ele>590.0</ele><time>2026-04-25T10:28:50Z</time></trkpt><trkpt lat="41.906320583763915" lon="1.6604812939641422"><ele>591.3333333333333</ele><time>2026-04-25T10:28:51Z</time></trkpt><trkpt lat="41.90629748587314" lon="1.660769048629266"><ele>592.6666666666666</ele><time>2026-04-25T10:28:52Z</time></trkpt><trkpt lat="41.90627757825558" lon="1.6610649050995319"><ele>594.0</ele><time>2026-04-25T10:28:53Z</time></trkpt><trkpt lat="41.90626176846626" lon="1.6613606563721768"><ele>595.3333333333334</ele><time>2026-04-25T10:28:54Z</time></trkpt><trkpt lat="41.90624688764093" lon="1.6616623810726925"><ele>596.6666666666667</ele><time>2026-04-25T10:28:55Z</time></trkpt><trkpt lat="41.90623172659515" lon="1.6619495032276268"><ele>598.0</ele><time>2026-04-25T10:28:56Z</time></trkpt><trkpt lat="41.9062169934473" lon="1.6622032075998092"><ele>598.0</ele><time>2026-04-25T10:28:57Z</time></trkpt><trkpt lat="41.90620399356448" lon="1.6624395942716346"><ele>598.0</ele><time>2026-04-25T10:28:58Z</time></trkpt><trkpt lat="41.90619931107944" lon="1.6626542644236861"><ele>598.0</ele><time>2026-04-25T10:28:59Z</time></trkpt><trkpt lat="41.90622254747666" lon="1.6628756585351752"><ele>596.0</ele><time>2026-04-25T10:29:00Z</time></trkpt><trkpt lat="41.906303366169894" lon="1.6631014570192204"><ele>594.0</ele><time>2026-04-25T10:29:01Z</time></trkpt><trkpt lat="41.906436942611" lon="1.6633516380574458"><ele>592.0</ele><time>2026-04-25T10:29:02Z</time></trkpt><trkpt lat="41.90658312236685" lon="1.6635929469894488"><ele>594.0</ele><time>2026-04-25T10:29:03Z</time></trkpt><trkpt lat="41.90670173287737" lon="1.6638053091213936"><ele>596.0</ele><time>2026-04-25T10:29:04Z</time></trkpt><trkpt lat="41.906786181722076" lon="1.6639816084414811"><ele>598.0</ele><time>2026-04-25T10:29:05Z</time></trkpt><trkpt lat="41.906822488402064" lon="1.664156104651268"><ele>594.25</ele><time>2026-04-25T10:29:06Z</time></trkpt><trkpt lat="41.906812976785446" lon="1.6643341533655047"><ele>590.5</ele><time>2026-04-25T10:29:07Z</time></trkpt><trkpt lat="41.906805913611976" lon="1.6645046487579123"><ele>586.75</ele><time>2026-04-25T10:29:08Z</time></trkpt><trkpt lat="41.90687538581821" lon="1.6646384838992623"><ele>583.0</ele><time>2026-04-25T10:29:09Z</time></trkpt><trkpt lat="41.90700629687074" lon="1.6647462127829682"><ele>583.0</ele><time>2026-04-25T10:29:10Z</time></trkpt><trkpt lat="41.90713062255673" lon="1.6648881620131615"><ele>583.0</ele><time>2026-04-25T10:29:11Z</time></trkpt><trkpt lat="41.907199150359205" lon="1.6650724640202164"><ele>583.0</ele><time>2026-04-25T10:29:12Z</time></trkpt><trkpt lat="41.90722348987705" lon="1.6652808135957282"><ele>586.6666666666667</ele><time>2026-04-25T10:29:13Z</time></trkpt><trkpt lat="41.90724556404677" lon="1.6654875672230471"><ele>590.3333333333334</ele><time>2026-04-25T10:29:14Z</time></trkpt><trkpt lat="41.907323818001174" lon="1.6656441868102003"><ele>594.0</ele><time>2026-04-25T10:29:15Z</time></trkpt><trkpt lat="41.90745832671261" lon="1.6657472099691968"><ele>590.25</ele><time>2026-04-25T10:29:16Z</time></trkpt><trkpt lat="41.90762618348331" lon="1.6658564288868047"><ele>586.5</ele><time>2026-04-25T10:29:17Z</time></trkpt><trkpt lat="41.907765540820854" lon="1.665908484730602"><ele>582.75</ele><time>2026-04-25T10:29:18Z</time></trkpt><trkpt lat="41.90784469679504" lon="1.6660085566700253"><ele>579.0</ele><time>2026-04-25T10:29:19Z</time></trkpt><trkpt lat="41.907923575627" lon="1.666178717829997"><ele>579.0</ele><time>2026-04-25T10:29:20Z</time></trkpt><trkpt lat="41.907967680671256" lon="1.66637024342801"><ele>579.0</ele><time>2026-04-25T10:29:21Z</time></trkpt><trkpt lat="41.907953974618486" lon="1.6665525668582881"><ele>579.0</ele><time>2026-04-25T10:29:22Z</time></trkpt><trkpt lat="41.90791340080978" lon="1.6667416149225576"><ele>579.0</ele><time>2026-04-25T10:29:23Z</time></trkpt><trkpt lat="41.90790573984468" lon="1.666953397508737"><ele>580.6666666666666</ele><time>2026-04-25T10:29:24Z</time></trkpt><trkpt lat="41.907958701707344" lon="1.6671989853623301"><ele>582.3333333333333</ele><time>2026-04-25T10:29:25Z</time></trkpt><trkpt lat="41.90800752128904" lon="1.6674252588183014"><ele>584.0</ele><time>2026-04-25T10:29:26Z</time></trkpt><trkpt lat="41.90805368192593" lon="1.6676137591428828"><ele>584.25</ele><time>2026-04-25T10:29:27Z</time></trkpt><trkpt lat="41.908070761682424" lon="1.6677900268954984"><ele>584.5</ele><time>2026-04-25T10:29:28Z</time></trkpt><trkpt lat="41.90805456344224" lon="1.6679583933771553"><ele>584.75</ele><time>2026-04-25T10:29:29Z</time></trkpt><trkpt lat="41.90798511650422" lon="1.6681129691862335"><ele>585.0</ele><time>2026-04-25T10:29:30Z</time></trkpt><trkpt lat="41.90788749485933" lon="1.6682549153348172"><ele>585.0</ele><time>2026-04-25T10:29:31Z</time></trkpt><trkpt lat="41.90784339901353" lon="1.6684074958851893"><ele>585.0</ele><time>2026-04-25T10:29:32Z</time></trkpt><trkpt lat="41.90785167501668" lon="1.6685893428465681"><ele>585.0</ele><time>2026-04-25T10:29:33Z</time></trkpt><trkpt lat="41.907910555712554" lon="1.668792473350971"><ele>585.0</ele><time>2026-04-25T10:29:34Z</time></trkpt><trkpt lat="41.90796643007228" lon="1.669011657096164"><ele>584.5</ele><time>2026-04-25T10:29:35Z</time></trkpt><trkpt lat="41.908012534952" lon="1.6692085176670803"><ele>584.0</ele><time>2026-04-25T10:29:36Z</time></trkpt><trkpt lat="41.908078453902306" lon="1.6693703849617962"><ele>583.5</ele><time>2026-04-25T10:29:37Z</time></trkpt><trkpt lat="41.90819171854739" lon="1.669507883886438"><ele>583.0</ele><time>2026-04-25T10:29:38Z</time></trkpt><trkpt lat="41.90836821262202" lon="1.669658544963927"><ele>579.5</ele><time>2026-04-25T10:29:39Z</time></trkpt><trkpt lat="41.90856760018236" lon="1.6698438012682721"><ele>576.0</ele><time>2026-04-25T10:29:40Z</time></trkpt><trkpt lat="41.908765742103476" lon="1.6700482209630538"><ele>576.0</ele><time>2026-04-25T10:29:41Z</time></trkpt><trkpt lat="41.908897625298096" lon="1.670265130841896"><ele>576.0</ele><time>2026-04-25T10:29:43Z</time></trkpt><trkpt lat="41.9089760748811" lon="1.670416632203873"><ele>576.0</ele><time>2026-04-25T10:29:44Z</time></trkpt><trkpt lat="41.909035488233016" lon="1.6705499769000818"><ele>573.5</ele><time>2026-04-25T10:29:45Z</time></trkpt><trkpt lat="41.90910468300362" lon="1.6706563607551588"><ele>571.0</ele><time>2026-04-25T10:29:46Z</time></trkpt><trkpt lat="41.90920801744705" lon="1.6706918468885612"><ele>568.5</ele><time>2026-04-25T10:29:47Z</time></trkpt><trkpt lat="41.90935468203591" lon="1.6706557223716503"><ele>566.0</ele><time>2026-04-25T10:29:48Z</time></trkpt><trkpt lat="41.90948805193936" lon="1.670600356601599"><ele>564.5</ele><time>2026-04-25T10:29:49Z</time></trkpt><trkpt lat="41.90959119241099" lon="1.6706767638054334"><ele>563.0</ele><time>2026-04-25T10:29:50Z</time></trkpt><trkpt lat="41.909645717808566" lon="1.6708094551806314"><ele>561.5</ele><time>2026-04-25T10:29:51Z</time></trkpt><trkpt lat="41.909730181125134" lon="1.6709633983504635"><ele>560.0</ele><time>2026-04-25T10:29:52Z</time></trkpt><trkpt lat="41.90981430606082" lon="1.6711262591849094"><ele>558.3333333333333</ele><time>2026-04-25T10:29:53Z</time></trkpt><trkpt lat="41.909903193472424" lon="1.6713023204436122"><ele>556.6666666666666</ele><time>2026-04-25T10:29:54Z</time></trkpt><trkpt lat="41.909997702288386" lon="1.671475268305427"><ele>555.0</ele><time>2026-04-25T10:29:55Z</time></trkpt><trkpt lat="41.91007707856739" lon="1.6716422215030218"><ele>555.25</ele><time>2026-04-25T10:29:56Z</time></trkpt><trkpt lat="41.91013027047484" lon="1.6718050570898269"><ele>555.5</ele><time>2026-04-25T10:29:57Z</time></trkpt><trkpt lat="41.91017044294091" lon="1.6719590054547815"><ele>555.75</ele><time>2026-04-25T10:29:58Z</time></trkpt><trkpt lat="41.910181333961745" lon="1.6721282594344895"><ele>556.0</ele><time>2026-04-25T10:29:59Z</time></trkpt><trkpt lat="41.91012640245014" lon="1.6723097504749422"><ele>556.0</ele><time>2026-04-25T10:30:00Z</time></trkpt><trkpt lat="41.91009226768" lon="1.6725289450369285"><ele>556.0</ele><time>2026-04-25T10:30:01Z</time></trkpt><trkpt lat="41.91005727637405" lon="1.6727579331612858"><ele>556.0</ele><time>2026-04-25T10:30:02Z</time></trkpt><trkpt lat="41.91000744517768" lon="1.6729787557753608"><ele>557.0</ele><time>2026-04-25T10:30:03Z</time></trkpt><trkpt lat="41.90994247200332" lon="1.6731584535252013"><ele>558.0</ele><time>2026-04-25T10:30:04Z</time></trkpt><trkpt lat="41.90985046690246" lon="1.6733414785151408"><ele>559.0</ele><time>2026-04-25T10:30:05Z</time></trkpt><trkpt lat="41.90976378855771" lon="1.6735410230652736"><ele>560.5</ele><time>2026-04-25T10:30:06Z</time></trkpt><trkpt lat="41.909705609303565" lon="1.6737278311422532"><ele>562.0</ele><time>2026-04-25T10:30:07Z</time></trkpt><trkpt lat="41.9096434830354" lon="1.6738886547014333"><ele>563.5</ele><time>2026-04-25T10:30:08Z</time></trkpt><trkpt lat="41.909558549260844" lon="1.6739882511201434"><ele>565.0</ele><time>2026-04-25T10:30:09Z</time></trkpt><trkpt lat="41.90945006477289" lon="1.6740509134197166"><ele>565.0</ele><time>2026-04-25T10:30:10Z</time></trkpt><trkpt lat="41.909296543443034" lon="1.674095881467925"><ele>565.0</ele><time>2026-04-25T10:30:11Z</time></trkpt><trkpt lat="41.909200672299804" lon="1.674210600717038"><ele>565.0</ele><time>2026-04-25T10:30:12Z</time></trkpt><trkpt lat="41.90911127060852" lon="1.6743421705675265"><ele>565.0</ele><time>2026-04-25T10:30:13Z</time></trkpt><trkpt lat="41.90903358555007" lon="1.6744212159284169"><ele>561.75</ele><time>2026-04-25T10:30:14Z</time></trkpt><trkpt lat="41.90890803249721" lon="1.6744836161548078"><ele>558.5</ele><time>2026-04-25T10:30:15Z</time></trkpt><trkpt lat="41.908759131953005" lon="1.674452388640926"><ele>555.25</ele><time>2026-04-25T10:30:16Z</time></trkpt><trkpt lat="41.90863378625523" lon="1.674504268590783"><ele>552.0</ele><time>2026-04-25T10:30:17Z</time></trkpt><trkpt lat="41.908508539709025" lon="1.674582110277338"><ele>546.0</ele><time>2026-04-25T10:30:18Z</time></trkpt><trkpt lat="41.908408575960976" lon="1.6747072418120523"><ele>540.0</ele><time>2026-04-25T10:30:19Z</time></trkpt><trkpt lat="41.90833634851986" lon="1.67488587468133"><ele>534.0</ele><time>2026-04-25T10:30:20Z</time></trkpt><trkpt lat="41.908303669375016" lon="1.6751059756448659"><ele>532.6666666666666</ele><time>2026-04-25T10:30:21Z</time></trkpt><trkpt lat="41.90829712594629" lon="1.675343149206587"><ele>531.3333333333333</ele><time>2026-04-25T10:30:22Z</time></trkpt><trkpt lat="41.908312687758205" lon="1.6755726802499156"><ele>530.0</ele><time>2026-04-25T10:30:23Z</time></trkpt><trkpt lat="41.90833857938695" lon="1.675773247320099"><ele>530.0</ele><time>2026-04-25T10:30:24Z</time></trkpt><trkpt lat="41.908398351954645" lon="1.675983951875045"><ele>530.0</ele><time>2026-04-25T10:30:25Z</time></trkpt><trkpt lat="41.9084770951514" lon="1.6761998878900104"><ele>530.0</ele><time>2026-04-25T10:30:26Z</time></trkpt><trkpt lat="41.90853429702482" lon="1.676391856155613"><ele>529.6</ele><time>2026-04-25T10:30:27Z</time></trkpt><trkpt lat="41.90857434999441" lon="1.6765535750028437"><ele>529.2</ele><time>2026-04-25T10:30:28Z</time></trkpt><trkpt lat="41.90861795286858" lon="1.6766810173260704"><ele>528.8</ele><time>2026-04-25T10:30:29Z</time></trkpt><trkpt lat="41.908693419431366" lon="1.6767823907404908"><ele>528.4</ele><time>2026-04-25T10:30:30Z</time></trkpt><trkpt lat="41.90878884286182" lon="1.6768516990306905"><ele>528.0</ele><time>2026-04-25T10:30:31Z</time></trkpt><trkpt lat="41.908895147144925" lon="1.6768579505574983"><ele>528.0</ele><time>2026-04-25T10:30:32Z</time></trkpt><trkpt lat="41.90900264398232" lon="1.6767922775964765"><ele>528.0</ele><time>2026-04-25T10:30:33Z</time></trkpt><trkpt lat="41.90911735746869" lon="1.6766971222460478"><ele>528.0</ele><time>2026-04-25T10:30:34Z</time></trkpt><trkpt lat="41.90924441989284" lon="1.6765976475811868"><ele>528.0</ele><time>2026-04-25T10:30:35Z</time></trkpt><trkpt lat="41.909325009326885" lon="1.6765348478938644"><ele>529.1666666666666</ele><time>2026-04-25T10:30:36Z</time></trkpt><trkpt lat="41.90941053601565" lon="1.6764910243438793"><ele>530.3333333333334</ele><time>2026-04-25T10:30:37Z</time></trkpt><trkpt lat="41.90949386640968" lon="1.6765287199169987"><ele>531.5</ele><time>2026-04-25T10:30:38Z</time></trkpt><trkpt lat="41.909558691346355" lon="1.6765986618621058"><ele>532.6666666666667</ele><time>2026-04-25T10:30:39Z</time></trkpt><trkpt lat="41.90959722976771" lon="1.6766938875807427"><ele>533.8333333333334</ele><time>2026-04-25T10:30:40Z</time></trkpt><trkpt lat="41.90964655413581" lon="1.6767791117845132"><ele>535.0</ele><time>2026-04-25T10:30:41Z</time></trkpt><trkpt lat="41.90970055196841" lon="1.6768743882655244"><ele>534.0</ele><time>2026-04-25T10:30:43Z</time></trkpt><trkpt lat="41.9097553317574" lon="1.6769820506897337"><ele>533.0</ele><time>2026-04-25T10:30:56Z</time></trkpt><trkpt lat="41.90981444478792" lon="1.6771072248289025"><ele>532.0</ele><time>2026-04-25T10:30:58Z</time></trkpt><trkpt lat="41.90984086257801" lon="1.677198131430854"><ele>531.0</ele><time>2026-04-25T10:30:59Z</time></trkpt><trkpt lat="41.90984820425097" lon="1.6773101047625358"><ele>530.0</ele><time>2026-04-25T10:31:00Z</time></trkpt><trkpt lat="41.909819045937056" lon="1.677415454827979"><ele>529.0</ele><time>2026-04-25T10:31:01Z</time></trkpt><trkpt lat="41.90974791113788" lon="1.677487528004645"><ele>529.0</ele><time>2026-04-25T10:31:02Z</time></trkpt><trkpt lat="41.90970236791973" lon="1.6775834163512438"><ele>529.0</ele><time>2026-04-25T10:31:03Z</time></trkpt><trkpt lat="41.9096437426734" lon="1.6776643702390666"><ele>529.0</ele><time>2026-04-25T10:31:04Z</time></trkpt><trkpt lat="41.90959067017482" lon="1.6777579932386952"><ele>529.0</ele><time>2026-04-25T10:31:05Z</time></trkpt><trkpt lat="41.90955409704826" lon="1.6778680855043393"><ele>529.0</ele><time>2026-04-25T10:31:06Z</time></trkpt><trkpt lat="41.909529857729275" lon="1.6779878967782687"><ele>529.0</ele><time>2026-04-25T10:31:07Z</time></trkpt><trkpt lat="41.90952158486221" lon="1.678110673059761"><ele>528.0</ele><time>2026-04-25T10:31:08Z</time></trkpt><trkpt lat="41.909535079035784" lon="1.6782295202415767"><ele>527.0</ele><time>2026-04-25T10:31:09Z</time></trkpt><trkpt lat="41.909574137945945" lon="1.678341758381369"><ele>526.0</ele><time>2026-04-25T10:31:10Z</time></trkpt><trkpt lat="41.90963770429181" lon="1.6784410779986918"><ele>525.0</ele><time>2026-04-25T10:31:11Z</time></trkpt><trkpt lat="41.90972064905985" lon="1.6785242353710748"><ele>524.0</ele><time>2026-04-25T10:31:12Z</time></trkpt><trkpt lat="41.90980908329395" lon="1.6785971524162775"><ele>521.8</ele><time>2026-04-25T10:31:13Z</time></trkpt><trkpt lat="41.90988790363484" lon="1.6786581193999337"><ele>519.5999999999999</ele><time>2026-04-25T10:31:14Z</time></trkpt><trkpt lat="41.90996257295928" lon="1.6787157986911554"><ele>517.4</ele><time>2026-04-25T10:31:15Z</time></trkpt><trkpt lat="41.91003912549474" lon="1.6787819646761974"><ele>515.1999999999999</ele><time>2026-04-25T10:31:16Z</time></trkpt><trkpt lat="41.91011800574997" lon="1.6788536205573588"><ele>513.0</ele><time>2026-04-25T10:31:17Z</time></trkpt><trkpt lat="41.91019552042297" lon="1.67891232590856"><ele>513.0</ele><time>2026-04-25T10:31:18Z</time></trkpt><trkpt lat="41.91027418681328" lon="1.6789447319749917"><ele>513.0</ele><time>2026-04-25T10:31:19Z</time></trkpt><trkpt lat="41.91036050495291" lon="1.6789389301750857"><ele>513.0</ele><time>2026-04-25T10:31:20Z</time></trkpt><trkpt lat="41.91045469051751" lon="1.6789135906778145"><ele>513.0</ele><time>2026-04-25T10:31:21Z</time></trkpt><trkpt lat="41.91054619539997" lon="1.6788866768186668"><ele>513.0</ele><time>2026-04-25T10:31:22Z</time></trkpt><trkpt lat="41.91062595005657" lon="1.6788651755340924"><ele>513.0</ele><time>2026-04-25T10:31:23Z</time></trkpt><trkpt lat="41.91069088265941" lon="1.6788502107482837"><ele>513.0</ele><time>2026-04-25T10:31:24Z</time></trkpt><trkpt lat="41.910806310428725" lon="1.6788304623943904"><ele>513.0</ele><time>2026-04-25T10:31:26Z</time></trkpt><trkpt lat="41.91087139587041" lon="1.6788397861611646"><ele>513.0</ele><time>2026-04-25T10:31:27Z</time></trkpt><trkpt lat="41.910934442045736" lon="1.6788558540591938"><ele>513.0</ele><time>2026-04-25T10:31:28Z</time></trkpt><trkpt lat="41.91101278888194" lon="1.6788924329947243"><ele>513.0</ele><time>2026-04-25T10:31:29Z</time></trkpt><trkpt lat="41.911112481332" lon="1.678975326789364"><ele>513.0</ele><time>2026-04-25T10:31:30Z</time></trkpt><trkpt lat="41.91121206391633" lon="1.6790715046397293"><ele>513.6666666666666</ele><time>2026-04-25T10:31:31Z</time></trkpt><trkpt lat="41.911296834859584" lon="1.6791576466937759"><ele>514.3333333333334</ele><time>2026-04-25T10:31:32Z</time></trkpt><trkpt lat="41.9113604621339" lon="1.6792392021882658"><ele>515.0</ele><time>2026-04-25T10:31:33Z</time></trkpt><trkpt lat="41.91141992043819" lon="1.6793066040751534"><ele>515.6666666666667</ele><time>2026-04-25T10:31:34Z</time></trkpt><trkpt lat="41.911478712786106" lon="1.6793632082153438"><ele>516.3333333333334</ele><time>2026-04-25T10:31:35Z</time></trkpt><trkpt lat="41.911538619398605" lon="1.6794114371661615"><ele>517.0</ele><time>2026-04-25T10:31:36Z</time></trkpt><trkpt lat="41.911596269780716" lon="1.6794679237124894"><ele>514.1666666666667</ele><time>2026-04-25T10:31:37Z</time></trkpt><trkpt lat="41.911656708289314" lon="1.6795224216089855"><ele>511.33333333333337</ele><time>2026-04-25T10:31:38Z</time></trkpt><trkpt lat="41.91171811421472" lon="1.6795710776336523"><ele>508.5</ele><time>2026-04-25T10:31:39Z</time></trkpt><trkpt lat="41.91179301269251" lon="1.6796102540592321"><ele>505.66666666666663</ele><time>2026-04-25T10:31:40Z</time></trkpt><trkpt lat="41.911878577776214" lon="1.6796508854870305"><ele>502.8333333333333</ele><time>2026-04-25T10:31:41Z</time></trkpt><trkpt lat="41.91196391760797" lon="1.6796711230623254"><ele>500.0</ele><time>2026-04-25T10:31:42Z</time></trkpt><trkpt lat="41.91204417451682" lon="1.6796626978375777"><ele>499.99999999999994</ele><time>2026-04-25T10:31:43Z</time></trkpt><trkpt lat="41.91212930154292" lon="1.6795921200406012"><ele>500.0</ele><time>2026-04-25T10:31:44Z</time></trkpt><trkpt lat="41.912204253153256" lon="1.6795044723618162"><ele>500.0</ele><time>2026-04-25T10:31:45Z</time></trkpt><trkpt lat="41.91226085617386" lon="1.67942645714444"><ele>500.0</ele><time>2026-04-25T10:31:46Z</time></trkpt><trkpt lat="41.91230899847171" lon="1.6793528962677355"><ele>499.99999999999994</ele><time>2026-04-25T10:31:47Z</time></trkpt><trkpt lat="41.912351925013475" lon="1.6792858002895836"><ele>500.0</ele><time>2026-04-25T10:31:48Z</time></trkpt><trkpt lat="41.9123971924293" lon="1.6792157186532584"><ele>500.99999999999994</ele><time>2026-04-25T10:31:49Z</time></trkpt><trkpt lat="41.91246551789481" lon="1.6791428970446187"><ele>502.0</ele><time>2026-04-25T10:31:50Z</time></trkpt><trkpt lat="41.91254262201837" lon="1.679059103483585"><ele>503.0</ele><time>2026-04-25T10:31:51Z</time></trkpt><trkpt lat="41.91260368994221" lon="1.6789725595141858"><ele>504.0</ele><time>2026-04-25T10:31:52Z</time></trkpt><trkpt lat="41.91265583061295" lon="1.6788976492714756"><ele>504.99999999999994</ele><time>2026-04-25T10:31:53Z</time></trkpt><trkpt lat="41.91270790278748" lon="1.6788380659719866"><ele>506.0</ele><time>2026-04-25T10:31:54Z</time></trkpt><trkpt lat="41.912755703056554" lon="1.6787709481550943"><ele>505.99999999999994</ele><time>2026-04-25T10:31:55Z</time></trkpt><trkpt lat="41.91281180481867" lon="1.6787047052076745"><ele>506.0</ele><time>2026-04-25T10:31:56Z</time></trkpt><trkpt lat="41.91287840185895" lon="1.6786423911882116"><ele>506.0</ele><time>2026-04-25T10:31:57Z</time></trkpt><trkpt lat="41.91295550274964" lon="1.6786024001531687"><ele>506.0</ele><time>2026-04-25T10:31:58Z</time></trkpt><trkpt lat="41.913038792986676" lon="1.6786006779587417"><ele>505.99999999999994</ele><time>2026-04-25T10:31:59Z</time></trkpt><trkpt lat="41.91311955153527" lon="1.6786482775941287"><ele>506.0</ele><time>2026-04-25T10:32:00Z</time></trkpt><trkpt lat="41.91316967896419" lon="1.678736871842786"><ele>506.0</ele><time>2026-04-25T10:32:01Z</time></trkpt><trkpt lat="41.91317419819277" lon="1.6788428899539303"><ele>506.0</ele><time>2026-04-25T10:32:02Z</time></trkpt><trkpt lat="41.91316209626081" lon="1.6789581380044378"><ele>506.0</ele><time>2026-04-25T10:32:03Z</time></trkpt><trkpt lat="41.913130293497375" lon="1.6790850888523572"><ele>506.0</ele><time>2026-04-25T10:32:04Z</time></trkpt><trkpt lat="41.913079369979776" lon="1.6792116313137633"><ele>506.0</ele><time>2026-04-25T10:32:05Z</time></trkpt><trkpt lat="41.91302725194843" lon="1.6793416802424277"><ele>506.6</ele><time>2026-04-25T10:32:06Z</time></trkpt><trkpt lat="41.9129881112058" lon="1.679481773411248"><ele>507.20000000000005</ele><time>2026-04-25T10:32:07Z</time></trkpt><trkpt lat="41.912978210100874" lon="1.6796334452650596"><ele>507.79999999999995</ele><time>2026-04-25T10:32:08Z</time></trkpt><trkpt lat="41.9129800642292" lon="1.6797802133191133"><ele>508.4</ele><time>2026-04-25T10:32:09Z</time></trkpt><trkpt lat="41.912971319620574" lon="1.6799164763029766"><ele>509.0</ele><time>2026-04-25T10:32:10Z</time></trkpt><trkpt lat="41.91294563235851" lon="1.6800550422959466"><ele>509.0</ele><time>2026-04-25T10:32:11Z</time></trkpt><trkpt lat="41.912905317812424" lon="1.6801915275799975"><ele>509.0</ele><time>2026-04-25T10:32:12Z</time></trkpt><trkpt lat="41.91287083502608" lon="1.6803255637731018"><ele>509.0</ele><time>2026-04-25T10:32:13Z</time></trkpt><trkpt lat="41.9128394650136" lon="1.6804677359954983"><ele>509.0</ele><time>2026-04-25T10:32:14Z</time></trkpt><trkpt lat="41.91281330573422" lon="1.6806201519522812"><ele>509.0</ele><time>2026-04-25T10:32:15Z</time></trkpt><trkpt lat="41.91279768354988" lon="1.6807750278486546"><ele>508.79999999999995</ele><time>2026-04-25T10:32:16Z</time></trkpt><trkpt lat="41.91279510906074" lon="1.680925100125332"><ele>508.59999999999997</ele><time>2026-04-25T10:32:17Z</time></trkpt><trkpt lat="41.912805729252725" lon="1.681065394830258"><ele>508.4</ele><time>2026-04-25T10:32:18Z</time></trkpt><trkpt lat="41.91281867123617" lon="1.681201661529738"><ele>508.2</ele><time>2026-04-25T10:32:19Z</time></trkpt><trkpt lat="41.9128332655605" lon="1.6813249871247653"><ele>508.0</ele><time>2026-04-25T10:32:20Z</time></trkpt><trkpt lat="41.91285949512878" lon="1.681437972973465"><ele>506.83333333333337</ele><time>2026-04-25T10:32:21Z</time></trkpt><trkpt lat="41.91290794995181" lon="1.6815508613264527"><ele>505.6666666666667</ele><time>2026-04-25T10:32:22Z</time></trkpt><trkpt lat="41.912968376431074" lon="1.6816493116967965"><ele>504.5</ele><time>2026-04-25T10:32:23Z</time></trkpt><trkpt lat="41.913032582613546" lon="1.6817188445580062"><ele>503.33333333333337</ele><time>2026-04-25T10:32:24Z</time></trkpt><trkpt lat="41.91307584147721" lon="1.6817868504612328"><ele>502.1666666666667</ele><time>2026-04-25T10:32:25Z</time></trkpt><trkpt lat="41.91307600655242" lon="1.6818750362221675"><ele>501.0</ele><time>2026-04-25T10:32:26Z</time></trkpt><trkpt lat="41.91305324758814" lon="1.6819737288774181"><ele>499.8</ele><time>2026-04-25T10:32:27Z</time></trkpt><trkpt lat="41.91313831125757" lon="1.6820834567132994"><ele>498.6</ele><time>2026-04-25T10:32:29Z</time></trkpt><trkpt lat="41.91321664105001" lon="1.6821141273721147"><ele>497.4</ele><time>2026-04-25T10:32:30Z</time></trkpt><trkpt lat="41.91330404685174" lon="1.68203389209502"><ele>496.2</ele><time>2026-04-25T10:32:31Z</time></trkpt><trkpt lat="41.9133655676128" lon="1.6821040417724105"><ele>495.0</ele><time>2026-04-25T10:32:32Z</time></trkpt><trkpt lat="41.91343255332643" lon="1.6821799860845448"><ele>497.1666666666667</ele><time>2026-04-25T10:32:33Z</time></trkpt><trkpt lat="41.913504894370064" lon="1.682252078902635"><ele>499.33333333333337</ele><time>2026-04-25T10:32:34Z</time></trkpt><trkpt lat="41.913568291714334" lon="1.6823224937246462"><ele>501.5</ele><time>2026-04-25T10:32:35Z</time></trkpt><trkpt lat="41.91362875330963" lon="1.6823857911223286"><ele>503.6666666666667</ele><time>2026-04-25T10:32:36Z</time></trkpt><trkpt lat="41.91367806369534" lon="1.6824602604764232"><ele>505.83333333333337</ele><time>2026-04-25T10:32:37Z</time></trkpt><trkpt lat="41.913720905246876" lon="1.6825312608480905"><ele>508.0</ele><time>2026-04-25T10:32:38Z</time></trkpt><trkpt lat="41.91374930156946" lon="1.68269981096263"><ele>508.1666666666667</ele><time>2026-04-25T10:32:40Z</time></trkpt><trkpt lat="41.91375197990569" lon="1.6828002504951327"><ele>508.33333333333337</ele><time>2026-04-25T10:32:41Z</time></trkpt><trkpt lat="41.913740015740004" lon="1.682913969316339"><ele>508.5</ele><time>2026-04-25T10:32:42Z</time></trkpt><trkpt lat="41.91371415990961" lon="1.6830183944358064"><ele>508.66666666666663</ele><time>2026-04-25T10:32:43Z</time></trkpt><trkpt lat="41.913678207273826" lon="1.6831178971952654"><ele>508.8333333333333</ele><time>2026-04-25T10:32:44Z</time></trkpt><trkpt lat="41.91364446976288" lon="1.6832203748905163"><ele>509.0</ele><time>2026-04-25T10:32:45Z</time></trkpt><trkpt lat="41.913621427762415" lon="1.6833240067109778"><ele>508.99999999999994</ele><time>2026-04-25T10:32:46Z</time></trkpt><trkpt lat="41.913621138232024" lon="1.683416651582171"><ele>509.0</ele><time>2026-04-25T10:32:47Z</time></trkpt><trkpt lat="41.91364162682144" lon="1.6835034964708473"><ele>509.0</ele><time>2026-04-25T10:32:48Z</time></trkpt><trkpt lat="41.91372574296157" lon="1.6836039795678917"><ele>509.0</ele><time>2026-04-25T10:32:50Z</time></trkpt><trkpt lat="41.91381169573578" lon="1.6835444840930882"><ele>508.99999999999994</ele><time>2026-04-25T10:32:51Z</time></trkpt><trkpt lat="41.91385190406762" lon="1.6834674724126575"><ele>509.0</ele><time>2026-04-25T10:32:53Z</time></trkpt><trkpt lat="41.91391511612127" lon="1.683389764785921"><ele>508.99999999999994</ele><time>2026-04-25T10:33:05Z</time></trkpt><trkpt lat="41.91398671974334" lon="1.6833034886506717"><ele>509.0</ele><time>2026-04-25T10:33:07Z</time></trkpt><trkpt lat="41.91403440440077" lon="1.6832460327926135"><ele>509.0</ele><time>2026-04-25T10:33:09Z</time></trkpt><trkpt lat="41.91409258446041" lon="1.6831776563024101"><ele>509.0</ele><time>2026-04-25T10:33:12Z</time></trkpt><trkpt lat="41.91415910152358" lon="1.6831016908516325"><ele>508.99999999999994</ele><time>2026-04-25T10:33:15Z</time></trkpt><trkpt lat="41.91420981275345" lon="1.6830396962315508"><ele>509.0</ele><time>2026-04-25T10:33:17Z</time></trkpt><trkpt lat="41.91430220069199" lon="1.68303402490447"><ele>507.2</ele><time>2026-04-25T10:33:19Z</time></trkpt><trkpt lat="41.91441434433681" lon="1.6830770541409774"><ele>505.4</ele><time>2026-04-25T10:33:21Z</time></trkpt><trkpt lat="41.91451560191823" lon="1.6831350426757716"><ele>503.6</ele><time>2026-04-25T10:33:23Z</time></trkpt><trkpt lat="41.91460020510909" lon="1.6831814093174233"><ele>501.8</ele><time>2026-04-25T10:33:25Z</time></trkpt><trkpt lat="41.914707778370214" lon="1.6832392030814551"><ele>500.0</ele><time>2026-04-25T10:33:27Z</time></trkpt><trkpt lat="41.914766126298275" lon="1.6832725267676814"><ele>499.99999999999994</ele><time>2026-04-25T10:33:28Z</time></trkpt><trkpt lat="41.91486846349892" lon="1.6833293233017859"><ele>500.0</ele><time>2026-04-25T10:33:30Z</time></trkpt><trkpt lat="41.91497882665648" lon="1.6833878151725274"><ele>500.0</ele><time>2026-04-25T10:33:32Z</time></trkpt><trkpt lat="41.915044840184244" lon="1.6834230092053883"><ele>500.0</ele><time>2026-04-25T10:33:33Z</time></trkpt><trkpt lat="41.915109692302316" lon="1.6834601803047096"><ele>499.99999999999994</ele><time>2026-04-25T10:33:34Z</time></trkpt><trkpt lat="41.91517658749622" lon="1.6835069260647049"><ele>500.0</ele><time>2026-04-25T10:33:35Z</time></trkpt><trkpt lat="41.91524545042486" lon="1.6835729154226213"><ele>496.6</ele><time>2026-04-25T10:33:36Z</time></trkpt><trkpt lat="41.91531659618583" lon="1.6836655135346386"><ele>493.2</ele><time>2026-04-25T10:33:37Z</time></trkpt><trkpt lat="41.91537884378282" lon="1.6837784680292682"><ele>489.79999999999995</ele><time>2026-04-25T10:33:38Z</time></trkpt><trkpt lat="41.91543543421182" lon="1.6838720845569664"><ele>486.4</ele><time>2026-04-25T10:33:39Z</time></trkpt><trkpt lat="41.91548465722651" lon="1.6839573227203564"><ele>483.0</ele><time>2026-04-25T10:33:40Z</time></trkpt><trkpt lat="41.91553311442956" lon="1.6840432045254417"><ele>483.0</ele><time>2026-04-25T10:33:41Z</time></trkpt><trkpt lat="41.915575904157265" lon="1.684124815337184"><ele>483.0</ele><time>2026-04-25T10:33:42Z</time></trkpt><trkpt lat="41.91561724177012" lon="1.6842048660270172"><ele>483.0</ele><time>2026-04-25T10:33:43Z</time></trkpt><trkpt lat="41.91565612814168" lon="1.6842843785358652"><ele>483.0</ele><time>2026-04-25T10:33:44Z</time></trkpt><trkpt lat="41.91569245199387" lon="1.6843649350759096"><ele>483.0</ele><time>2026-04-25T10:33:45Z</time></trkpt><trkpt lat="41.91572511161015" lon="1.684438974323491"><ele>483.0</ele><time>2026-04-25T10:33:46Z</time></trkpt><trkpt lat="41.91579107593432" lon="1.6845639386904334"><ele>483.0</ele><time>2026-04-25T10:33:48Z</time></trkpt><trkpt lat="41.91588321475429" lon="1.6846030908966605"><ele>482.99999999999994</ele><time>2026-04-25T10:33:50Z</time></trkpt><trkpt lat="41.915949746537486" lon="1.684493261866552"><ele>482.99999999999994</ele><time>2026-04-25T10:33:52Z</time></trkpt><trkpt lat="41.91594243441922" lon="1.6844058381116582"><ele>483.0</ele><time>2026-04-25T10:33:53Z</time></trkpt><trkpt lat="41.915883256165586" lon="1.684259433221788"><ele>483.0</ele><time>2026-04-25T10:33:55Z</time></trkpt><trkpt lat="41.91584958484954" lon="1.6841827103218818"><ele>483.0</ele><time>2026-04-25T10:33:56Z</time></trkpt><trkpt lat="41.91581580594608" lon="1.6841092941568716"><ele>483.0</ele><time>2026-04-25T10:33:57Z</time></trkpt><trkpt lat="41.91578361739123" lon="1.6840333867346693"><ele>483.0</ele><time>2026-04-25T10:33:58Z</time></trkpt><trkpt lat="41.915750943079146" lon="1.6839553909721703"><ele>483.0</ele><time>2026-04-25T10:33:59Z</time></trkpt><trkpt lat="41.915694151266685" lon="1.683825300131953"><ele>483.0</ele><time>2026-04-25T10:34:01Z</time></trkpt><trkpt lat="41.915648370982005" lon="1.683719463401244"><ele>483.0</ele><time>2026-04-25T10:34:03Z</time></trkpt><trkpt lat="41.9156214850328" lon="1.683619369776394"><ele>481.79999999999995</ele><time>2026-04-25T10:34:05Z</time></trkpt><trkpt lat="41.91563371798761" lon="1.6835025820515055"><ele>480.59999999999997</ele><time>2026-04-25T10:34:07Z</time></trkpt><trkpt lat="41.915556604181845" lon="1.6833663910949488"><ele>479.40000000000003</ele><time>2026-04-25T10:34:09Z</time></trkpt><trkpt lat="41.9155238738873" lon="1.6832930882388264"><ele>478.20000000000005</ele><time>2026-04-25T10:34:10Z</time></trkpt><trkpt lat="41.915500540533415" lon="1.6831535479676547"><ele>477.0</ele><time>2026-04-25T10:34:12Z</time></trkpt><trkpt lat="41.91550631633727" lon="1.6830373868514494"><ele>477.0</ele><time>2026-04-25T10:34:14Z</time></trkpt><trkpt lat="41.91555397445067" lon="1.6829765387620255"><ele>477.0</ele><time>2026-04-25T10:34:15Z</time></trkpt><trkpt lat="41.91560196318296" lon="1.6828782304208068"><ele>477.0</ele><time>2026-04-25T10:34:17Z</time></trkpt><trkpt lat="41.91564825719283" lon="1.6827893351375636"><ele>477.0</ele><time>2026-04-25T10:34:19Z</time></trkpt><trkpt lat="41.91570313422438" lon="1.6827065891615123"><ele>477.0</ele><time>2026-04-25T10:34:21Z</time></trkpt><trkpt lat="41.91577077749796" lon="1.682677748780173"><ele>477.0</ele><time>2026-04-25T10:34:23Z</time></trkpt><trkpt lat="41.91584951327908" lon="1.6827259569731268"><ele>474.6666666666667</ele><time>2026-04-25T10:34:27Z</time></trkpt><trkpt lat="41.91591655764597" lon="1.6827722414381274"><ele>472.33333333333337</ele><time>2026-04-25T10:34:34Z</time></trkpt><trkpt lat="41.91598229939269" lon="1.6828218246088762"><ele>470.0</ele><time>2026-04-25T10:34:36Z</time></trkpt><trkpt lat="41.916059463509654" lon="1.6828766974784515"><ele>467.6666666666667</ele><time>2026-04-25T10:34:38Z</time></trkpt><trkpt lat="41.91613473845776" lon="1.682922499838521"><ele>465.33333333333337</ele><time>2026-04-25T10:34:40Z</time></trkpt><trkpt lat="41.916207269248" lon="1.682969017698129"><ele>463.0</ele><time>2026-04-25T10:34:42Z</time></trkpt><trkpt lat="41.91628158264535" lon="1.6830076681290096"><ele>463.00000000000006</ele><time>2026-04-25T10:34:44Z</time></trkpt><trkpt lat="41.916343780465766" lon="1.6830396437858104"><ele>463.0</ele><time>2026-04-25T10:34:46Z</time></trkpt><trkpt lat="41.91640703631167" lon="1.6830805808162153"><ele>463.0</ele><time>2026-04-25T10:34:49Z</time></trkpt><trkpt lat="41.91646669588835" lon="1.683116041383569"><ele>463.0</ele><time>2026-04-25T10:34:52Z</time></trkpt><trkpt lat="41.91652866217816" lon="1.6831405942781668"><ele>463.00000000000006</ele><time>2026-04-25T10:34:54Z</time></trkpt><trkpt lat="41.916617671399536" lon="1.6831912709170533"><ele>463.0</ele><time>2026-04-25T10:34:56Z</time></trkpt><trkpt lat="41.916726552304176" lon="1.68326937352006"><ele>461.79999999999995</ele><time>2026-04-25T10:34:58Z</time></trkpt><trkpt lat="41.916815409449136" lon="1.6833565727085122"><ele>460.59999999999997</ele><time>2026-04-25T10:35:00Z</time></trkpt><trkpt lat="41.91688648438278" lon="1.6834495426953542"><ele>459.40000000000003</ele><time>2026-04-25T10:35:02Z</time></trkpt><trkpt lat="41.916965136933634" lon="1.6835499362233715"><ele>458.20000000000005</ele><time>2026-04-25T10:35:04Z</time></trkpt><trkpt lat="41.91704592423828" lon="1.6836567709413686"><ele>457.0</ele><time>2026-04-25T10:35:06Z</time></trkpt><trkpt lat="41.91713793043593" lon="1.6837436665858052"><ele>455.8</ele><time>2026-04-25T10:35:08Z</time></trkpt><trkpt lat="41.9172312774401" lon="1.6838140594062512"><ele>454.6</ele><time>2026-04-25T10:35:10Z</time></trkpt><trkpt lat="41.917336851102604" lon="1.6838267213952884"><ele>453.40000000000003</ele><time>2026-04-25T10:35:12Z</time></trkpt><trkpt lat="41.917446219465475" lon="1.6838169528338907"><ele>452.20000000000005</ele><time>2026-04-25T10:35:14Z</time></trkpt><trkpt lat="41.91754447779194" lon="1.6837969741515944"><ele>451.0</ele><time>2026-04-25T10:35:16Z</time></trkpt><trkpt lat="41.91765291123632" lon="1.6837978249243655"><ele>447.4</ele><time>2026-04-25T10:35:18Z</time></trkpt><trkpt lat="41.917745465016154" lon="1.6838685160362574"><ele>443.8</ele><time>2026-04-25T10:35:20Z</time></trkpt><trkpt lat="41.91779271746682" lon="1.6839991336801725"><ele>440.19999999999993</ele><time>2026-04-25T10:35:22Z</time></trkpt><trkpt lat="41.91782673465567" lon="1.6841345547465432"><ele>436.59999999999997</ele><time>2026-04-25T10:35:24Z</time></trkpt><trkpt lat="41.917860511730325" lon="1.6842776357346254"><ele>433.0</ele><time>2026-04-25T10:35:26Z</time></trkpt><trkpt lat="41.91789486966594" lon="1.684422141691293"><ele>431.5</ele><time>2026-04-25T10:35:28Z</time></trkpt><trkpt lat="41.91792535460657" lon="1.6845692799761207"><ele>430.0</ele><time>2026-04-25T10:35:30Z</time></trkpt><trkpt lat="41.91796359107327" lon="1.6847118183725796"><ele>428.5</ele><time>2026-04-25T10:35:32Z</time></trkpt><trkpt lat="41.91806035385105" lon="1.6847996233713647"><ele>427.0</ele><time>2026-04-25T10:35:34Z</time></trkpt><trkpt lat="41.918161891852805" lon="1.6847148955419944"><ele>427.00000000000006</ele><time>2026-04-25T10:35:36Z</time></trkpt><trkpt lat="41.91819221276079" lon="1.684621867603804"><ele>427.0</ele><time>2026-04-25T10:35:37Z</time></trkpt><trkpt lat="41.91821703916138" lon="1.6845268261753803"><ele>427.0</ele><time>2026-04-25T10:35:38Z</time></trkpt><trkpt lat="41.91823719265613" lon="1.6844373166980169"><ele>427.0</ele><time>2026-04-25T10:35:39Z</time></trkpt><trkpt lat="41.91825144671505" lon="1.6843085077059028"><ele>427.00000000000006</ele><time>2026-04-25T10:35:41Z</time></trkpt><trkpt lat="41.918257416045144" lon="1.6842090679422892"><ele>427.0</ele><time>2026-04-25T10:35:43Z</time></trkpt><trkpt lat="41.918262672623406" lon="1.684122001874621"><ele>427.57142857142856</ele><time>2026-04-25T10:35:47Z</time></trkpt><trkpt lat="41.9182614679287" lon="1.6840259561384445"><ele>428.1428571428571</ele><time>2026-04-25T10:35:53Z</time></trkpt><trkpt lat="41.91825519415317" lon="1.6839259432630123"><ele>428.7142857142857</ele><time>2026-04-25T10:35:55Z</time></trkpt><trkpt lat="41.918256473312034" lon="1.683840925248916"><ele>429.2857142857143</ele><time>2026-04-25T10:35:57Z</time></trkpt><trkpt lat="41.91826727171337" lon="1.6837163981982934"><ele>429.85714285714283</ele><time>2026-04-25T10:35:59Z</time></trkpt><trkpt lat="41.91826472258352" lon="1.6836299891421058"><ele>430.42857142857144</ele><time>2026-04-25T10:36:00Z</time></trkpt><trkpt lat="41.91824805231911" lon="1.6835264261863216"><ele>431.0</ele><time>2026-04-25T10:36:01Z</time></trkpt><trkpt lat="41.91823289024843" lon="1.6834089549927616"><ele>430.99999999999994</ele><time>2026-04-25T10:36:02Z</time></trkpt><trkpt lat="41.91822899601507" lon="1.6832864355326507"><ele>431.0</ele><time>2026-04-25T10:36:03Z</time></trkpt><trkpt lat="41.91824443559475" lon="1.6831765205461413"><ele>431.0</ele><time>2026-04-25T10:36:04Z</time></trkpt><trkpt lat="41.91827158544786" lon="1.6830794711394925"><ele>431.0</ele><time>2026-04-25T10:36:05Z</time></trkpt><trkpt lat="41.91829937689648" lon="1.6829990111617776"><ele>430.99999999999994</ele><time>2026-04-25T10:36:06Z</time></trkpt><trkpt lat="41.918354191796205" lon="1.6828518783847959"><ele>431.0</ele><time>2026-04-25T10:36:08Z</time></trkpt><trkpt lat="41.918384772497085" lon="1.682771106285361"><ele>428.0</ele><time>2026-04-25T10:36:09Z</time></trkpt><trkpt lat="41.918414681892784" lon="1.6826827538413092"><ele>425.0</ele><time>2026-04-25T10:36:10Z</time></trkpt><trkpt lat="41.91843881803808" lon="1.6825975539531632"><ele>422.0</ele><time>2026-04-25T10:36:11Z</time></trkpt><trkpt lat="41.918454163999996" lon="1.682513011839299"><ele>419.0</ele><time>2026-04-25T10:36:12Z</time></trkpt><trkpt lat="41.91846354540495" lon="1.6824196042250479"><ele>416.0</ele><time>2026-04-25T10:36:13Z</time></trkpt><trkpt lat="41.918469423414834" lon="1.6823179016483798"><ele>413.0</ele><time>2026-04-25T10:36:14Z</time></trkpt><trkpt lat="41.91847189471349" lon="1.682209266517371"><ele>410.0</ele><time>2026-04-25T10:36:15Z</time></trkpt><trkpt lat="41.91847108853423" lon="1.682088906570114"><ele>410.0</ele><time>2026-04-25T10:36:16Z</time></trkpt><trkpt lat="41.91846860986998" lon="1.681960180298474"><ele>410.0</ele><time>2026-04-25T10:36:17Z</time></trkpt><trkpt lat="41.91846464535893" lon="1.681825998125219"><ele>410.0</ele><time>2026-04-25T10:36:18Z</time></trkpt><trkpt lat="41.91845880659557" lon="1.6816889402117865"><ele>410.0</ele><time>2026-04-25T10:36:19Z</time></trkpt><trkpt lat="41.918448255219225" lon="1.68155675269383"><ele>410.0</ele><time>2026-04-25T10:36:20Z</time></trkpt><trkpt lat="41.918434887371724" lon="1.6814380670450346"><ele>410.14285714285717</ele><time>2026-04-25T10:36:21Z</time></trkpt><trkpt lat="41.91841895202557" lon="1.6813271216975514"><ele>410.2857142857143</ele><time>2026-04-25T10:36:22Z</time></trkpt><trkpt lat="41.918403602005235" lon="1.681225430319532"><ele>410.42857142857144</ele><time>2026-04-25T10:36:23Z</time></trkpt><trkpt lat="41.91838754267906" lon="1.6811300354453123"><ele>410.57142857142856</ele><time>2026-04-25T10:36:24Z</time></trkpt><trkpt lat="41.91837360359731" lon="1.6810391548138586"><ele>410.71428571428567</ele><time>2026-04-25T10:36:25Z</time></trkpt><trkpt lat="41.918360028573524" lon="1.6809514135480244"><ele>410.85714285714283</ele><time>2026-04-25T10:36:26Z</time></trkpt><trkpt lat="41.918345294238684" lon="1.680861147236829"><ele>411.0</ele><time>2026-04-25T10:36:27Z</time></trkpt><trkpt lat="41.9183332222143" lon="1.6807711796505662"><ele>411.0</ele><time>2026-04-25T10:36:28Z</time></trkpt><trkpt lat="41.91834218307861" lon="1.6806839933778255"><ele>411.0</ele><time>2026-04-25T10:36:29Z</time></trkpt><trkpt lat="41.918412511087716" lon="1.6805498808274795"><ele>411.0</ele><time>2026-04-25T10:36:31Z</time></trkpt><trkpt lat="41.9184747950351" lon="1.6805190030389432"><ele>411.0</ele><time>2026-04-25T10:36:32Z</time></trkpt><trkpt lat="41.91853572689417" lon="1.68054242672469"><ele>411.0</ele><time>2026-04-25T10:36:33Z</time></trkpt><trkpt lat="41.91859149974469" lon="1.6806119848111687"><ele>411.0</ele><time>2026-04-25T10:36:34Z</time></trkpt><trkpt lat="41.91864308285167" lon="1.6807180484688922"><ele>411.0</ele><time>2026-04-25T10:36:35Z</time></trkpt><trkpt lat="41.91868608477793" lon="1.6808426213572372"><ele>411.0</ele><time>2026-04-25T10:36:36Z</time></trkpt><trkpt lat="41.91871099467753" lon="1.6809933163872561"><ele>411.0</ele><time>2026-04-25T10:36:37Z</time></trkpt><trkpt lat="41.91872657348138" lon="1.681149584213332"><ele>411.0</ele><time>2026-04-25T10:36:38Z</time></trkpt><trkpt lat="41.91873297526279" lon="1.6812898159203522"><ele>411.0</ele><time>2026-04-25T10:36:39Z</time></trkpt><trkpt lat="41.918746440729905" lon="1.681424588252464"><ele>411.0</ele><time>2026-04-25T10:36:40Z</time></trkpt><trkpt lat="41.91876788433867" lon="1.6815727565440768"><ele>411.0</ele><time>2026-04-25T10:36:41Z</time></trkpt><trkpt lat="41.91878266745992" lon="1.6817200527013945"><ele>411.0</ele><time>2026-04-25T10:36:42Z</time></trkpt><trkpt lat="41.91878792036252" lon="1.6818673617009874"><ele>411.0</ele><time>2026-04-25T10:36:43Z</time></trkpt><trkpt lat="41.91880958478844" lon="1.682033401418694"><ele>410.8</ele><time>2026-04-25T10:36:44Z</time></trkpt><trkpt lat="41.91882667729831" lon="1.682188660944068"><ele>410.6</ele><time>2026-04-25T10:36:45Z</time></trkpt><trkpt lat="41.91885855808753" lon="1.6823252121170726"><ele>410.4</ele><time>2026-04-25T10:36:46Z</time></trkpt><trkpt lat="41.91890943660084" lon="1.682427877274977"><ele>410.2</ele><time>2026-04-25T10:36:47Z</time></trkpt><trkpt lat="41.91898018175433" lon="1.6824889446018618"><ele>410.0</ele><time>2026-04-25T10:36:48Z</time></trkpt><trkpt lat="41.91905728144993" lon="1.6825159099148017"><ele>409.99999999999994</ele><time>2026-04-25T10:36:49Z</time></trkpt><trkpt lat="41.919142850940865" lon="1.6825341305744228"><ele>410.0</ele><time>2026-04-25T10:36:50Z</time></trkpt><trkpt lat="41.91920326563119" lon="1.6825704550316047"><ele>410.0</ele><time>2026-04-25T10:36:51Z</time></trkpt><trkpt lat="41.91927339343615" lon="1.6826320226824225"><ele>410.0</ele><time>2026-04-25T10:36:52Z</time></trkpt><trkpt lat="41.91934414295323" lon="1.6826948894626197"><ele>409.99999999999994</ele><time>2026-04-25T10:36:53Z</time></trkpt><trkpt lat="41.91941735481016" lon="1.6827570554776579"><ele>410.0</ele><time>2026-04-25T10:36:54Z</time></trkpt><trkpt lat="41.91947909314144" lon="1.6828341968732328"><ele>409.3333333333333</ele><time>2026-04-25T10:36:55Z</time></trkpt><trkpt lat="41.91953258364621" lon="1.6829200509602253"><ele>408.66666666666663</ele><time>2026-04-25T10:36:56Z</time></trkpt><trkpt lat="41.919588529005516" lon="1.6829912768057544"><ele>408.0</ele><time>2026-04-25T10:36:57Z</time></trkpt><trkpt lat="41.9196722547974" lon="1.6830425677830396"><ele>407.33333333333337</ele><time>2026-04-25T10:36:58Z</time></trkpt><trkpt lat="41.919768358948396" lon="1.683042742890642"><ele>406.6666666666667</ele><time>2026-04-25T10:36:59Z</time></trkpt><trkpt lat="41.91986529072955" lon="1.6830175386125068"><ele>406.0</ele><time>2026-04-25T10:37:00Z</time></trkpt><trkpt lat="41.91995987883003" lon="1.6829781765697949"><ele>406.00000000000006</ele><time>2026-04-25T10:37:01Z</time></trkpt><trkpt lat="41.92004189745403" lon="1.6829528767061344"><ele>406.0</ele><time>2026-04-25T10:37:02Z</time></trkpt><trkpt lat="41.92012510651346" lon="1.6829382791221754"><ele>406.0</ele><time>2026-04-25T10:37:03Z</time></trkpt><trkpt lat="41.92020266668134" lon="1.6829232849833358"><ele>406.0</ele><time>2026-04-25T10:37:04Z</time></trkpt><trkpt lat="41.92027989567245" lon="1.68291207243174"><ele>406.00000000000006</ele><time>2026-04-25T10:37:05Z</time></trkpt><trkpt lat="41.92035674114149" lon="1.682893262814728"><ele>406.0</ele><time>2026-04-25T10:37:06Z</time></trkpt><trkpt lat="41.92047111278562" lon="1.6828673474526077"><ele>407.50000000000006</ele><time>2026-04-25T10:37:08Z</time></trkpt><trkpt lat="41.92059121144043" lon="1.682869619473282"><ele>409.0</ele><time>2026-04-25T10:37:10Z</time></trkpt><trkpt lat="41.9206403392153" lon="1.682926117087864"><ele>410.5</ele><time>2026-04-25T10:37:11Z</time></trkpt><trkpt lat="41.92065379894411" lon="1.683034057934492"><ele>412.0</ele><time>2026-04-25T10:37:12Z</time></trkpt><trkpt lat="41.92071114747595" lon="1.6831140672744112"><ele>413.50000000000006</ele><time>2026-04-25T10:37:13Z</time></trkpt><trkpt lat="41.92075945533958" lon="1.6831937967008697"><ele>415.0</ele><time>2026-04-25T10:37:14Z</time></trkpt><trkpt lat="41.920828957967316" lon="1.6832376641206899"><ele>417.5</ele><time>2026-04-25T10:37:15Z</time></trkpt><trkpt lat="41.92091642016635" lon="1.6832479609480202"><ele>420.0</ele><time>2026-04-25T10:37:16Z</time></trkpt><trkpt lat="41.92102152406313" lon="1.68322387768652"><ele>422.5</ele><time>2026-04-25T10:37:17Z</time></trkpt><trkpt lat="41.921136413061454" lon="1.6831645201517789"><ele>425.0</ele><time>2026-04-25T10:37:18Z</time></trkpt><trkpt lat="41.92128138138053" lon="1.6830801095763002"><ele>425.0</ele><time>2026-04-25T10:37:19Z</time></trkpt><trkpt lat="41.92144814554269" lon="1.6829899911615243"><ele>425.0</ele><time>2026-04-25T10:37:20Z</time></trkpt><trkpt lat="41.921651275102995" lon="1.682886216529626"><ele>425.0</ele><time>2026-04-25T10:37:21Z</time></trkpt><trkpt lat="41.9218704718262" lon="1.68277950399042"><ele>425.3333333333333</ele><time>2026-04-25T10:37:22Z</time></trkpt><trkpt lat="41.92207520318809" lon="1.68266639918871"><ele>425.66666666666663</ele><time>2026-04-25T10:37:23Z</time></trkpt><trkpt lat="41.9222552019109" lon="1.682573988460769"><ele>426.0</ele><time>2026-04-25T10:37:24Z</time></trkpt><trkpt lat="41.92241572413086" lon="1.682495857466901"><ele>428.33333333333337</ele><time>2026-04-25T10:37:25Z</time></trkpt><trkpt lat="41.922577712611684" lon="1.6824173233967987"><ele>430.6666666666667</ele><time>2026-04-25T10:37:26Z</time></trkpt><trkpt lat="41.92272296454999" lon="1.6823480381260503"><ele>433.0</ele><time>2026-04-25T10:37:27Z</time></trkpt><trkpt lat="41.922862871854875" lon="1.6822824486661208"><ele>433.0</ele><time>2026-04-25T10:37:28Z</time></trkpt><trkpt lat="41.92300038417647" lon="1.6822161074387814"><ele>433.0</ele><time>2026-04-25T10:37:29Z</time></trkpt><trkpt lat="41.92314185165935" lon="1.6821625725845124"><ele>433.0</ele><time>2026-04-25T10:37:30Z</time></trkpt><trkpt lat="41.923296410677295" lon="1.6821701438571164"><ele>433.0</ele><time>2026-04-25T10:37:31Z</time></trkpt><trkpt lat="41.92345493657525" lon="1.6821749316536456"><ele>435.0</ele><time>2026-04-25T10:37:32Z</time></trkpt><trkpt lat="41.923619755604655" lon="1.6821668492342847"><ele>437.0</ele><time>2026-04-25T10:37:33Z</time></trkpt><trkpt lat="41.92380491894951" lon="1.6821869124779059"><ele>439.0</ele><time>2026-04-25T10:37:34Z</time></trkpt><trkpt lat="41.92400557994365" lon="1.6821872528808353"><ele>439.5</ele><time>2026-04-25T10:37:35Z</time></trkpt><trkpt lat="41.92424950281407" lon="1.6821793047903855"><ele>440.0</ele><time>2026-04-25T10:37:36Z</time></trkpt><trkpt lat="41.924522183601134" lon="1.6822053452437165"><ele>440.0</ele><time>2026-04-25T10:37:37Z</time></trkpt><trkpt lat="41.92481275497475" lon="1.6822126553660126"><ele>440.0</ele><time>2026-04-25T10:37:38Z</time></trkpt><trkpt lat="41.92509932397515" lon="1.68221986479771"><ele>442.0</ele><time>2026-04-25T10:37:39Z</time></trkpt><trkpt lat="41.92535435728782" lon="1.6822149153907637"><ele>444.0</ele><time>2026-04-25T10:37:40Z</time></trkpt><trkpt lat="41.92558251100752" lon="1.6822296454298642"><ele>444.0</ele><time>2026-04-25T10:37:41Z</time></trkpt><trkpt lat="41.92578308886353" lon="1.6822339713406713"><ele>444.0</ele><time>2026-04-25T10:37:42Z</time></trkpt><trkpt lat="41.92596502012292" lon="1.682244007802384"><ele>444.0</ele><time>2026-04-25T10:37:43Z</time></trkpt><trkpt lat="41.92614327633597" lon="1.682288580191475"><ele>444.66666666666663</ele><time>2026-04-25T10:37:44Z</time></trkpt><trkpt lat="41.92632465741223" lon="1.6823817030434685"><ele>445.3333333333333</ele><time>2026-04-25T10:37:45Z</time></trkpt><trkpt lat="41.92650998095845" lon="1.6825053382975173"><ele>446.0</ele><time>2026-04-25T10:37:46Z</time></trkpt><trkpt lat="41.926697202706016" lon="1.6826225389858815"><ele>446.3333333333333</ele><time>2026-04-25T10:37:47Z</time></trkpt><trkpt lat="41.9268788028376" lon="1.6827324093455778"><ele>446.66666666666663</ele><time>2026-04-25T10:37:48Z</time></trkpt><trkpt lat="41.92706048779282" lon="1.6828428748863289"><ele>447.0</ele><time>2026-04-25T10:37:49Z</time></trkpt><trkpt lat="41.92723757702261" lon="1.6829489924201853"><ele>447.66666666666663</ele><time>2026-04-25T10:37:50Z</time></trkpt><trkpt lat="41.92741353734275" lon="1.683052007835132"><ele>448.3333333333333</ele><time>2026-04-25T10:37:51Z</time></trkpt><trkpt lat="41.9275830872988" lon="1.6831506341984128"><ele>449.0</ele><time>2026-04-25T10:37:52Z</time></trkpt><trkpt lat="41.92774288632237" lon="1.6832422572506285"><ele>449.0</ele><time>2026-04-25T10:37:53Z</time></trkpt><trkpt lat="41.92789182014201" lon="1.6833259805119551"><ele>449.0</ele><time>2026-04-25T10:37:54Z</time></trkpt><trkpt lat="41.92804740063292" lon="1.6834211942388353"><ele>449.0</ele><time>2026-04-25T10:37:55Z</time></trkpt><trkpt lat="41.928194408903124" lon="1.6835419547068684"><ele>450.3333333333333</ele><time>2026-04-25T10:37:56Z</time></trkpt><trkpt lat="41.92832437340742" lon="1.6837010267342891"><ele>451.66666666666663</ele><time>2026-04-25T10:37:57Z</time></trkpt><trkpt lat="41.92840967035096" lon="1.6839124083753556"><ele>453.0</ele><time>2026-04-25T10:37:58Z</time></trkpt><trkpt lat="41.92851126967662" lon="1.684129986435094"><ele>453.0</ele><time>2026-04-25T10:37:59Z</time></trkpt><trkpt lat="41.92860476958225" lon="1.6843780803448283"><ele>453.0</ele><time>2026-04-25T10:38:00Z</time></trkpt><trkpt lat="41.928710703589644" lon="1.6846416150946149"><ele>453.0</ele><time>2026-04-25T10:38:01Z</time></trkpt><trkpt lat="41.928816745688806" lon="1.6848976955189647"><ele>453.0</ele><time>2026-04-25T10:38:02Z</time></trkpt><trkpt lat="41.92893358430247" lon="1.6851695795274693"><ele>453.0</ele><time>2026-04-25T10:38:03Z</time></trkpt><trkpt lat="41.92905217818101" lon="1.6854510070382258"><ele>454.0</ele><time>2026-04-25T10:38:04Z</time></trkpt><trkpt lat="41.929171578442244" lon="1.685741313225968"><ele>455.0</ele><time>2026-04-25T10:38:05Z</time></trkpt><trkpt lat="41.929295415434076" lon="1.6860411526936172"><ele>458.0</ele><time>2026-04-25T10:38:06Z</time></trkpt><trkpt lat="41.92942144506546" lon="1.686341784752578"><ele>461.0</ele><time>2026-04-25T10:38:07Z</time></trkpt><trkpt lat="41.929549625833936" lon="1.6866494172396134"><ele>462.0</ele><time>2026-04-25T10:38:08Z</time></trkpt><trkpt lat="41.92967800212342" lon="1.68695956793995"><ele>463.0</ele><time>2026-04-25T10:38:09Z</time></trkpt><trkpt lat="41.929803301304645" lon="1.687271395845896"><ele>463.0</ele><time>2026-04-25T10:38:10Z</time></trkpt><trkpt lat="41.92992676221089" lon="1.6875784628150368"><ele>463.0</ele><time>2026-04-25T10:38:11Z</time></trkpt><trkpt lat="41.930048473762845" lon="1.687878164170982"><ele>465.5</ele><time>2026-04-25T10:38:12Z</time></trkpt><trkpt lat="41.930168425551784" lon="1.6881710126355165"><ele>468.0</ele><time>2026-04-25T10:38:13Z</time></trkpt><trkpt lat="41.930289792687205" lon="1.6884636433804505"><ele>468.5</ele><time>2026-04-25T10:38:14Z</time></trkpt><trkpt lat="41.930410538186365" lon="1.688758805296361"><ele>469.0</ele><time>2026-04-25T10:38:15Z</time></trkpt><trkpt lat="41.93053151910295" lon="1.6890587327670534"><ele>469.0</ele><time>2026-04-25T10:38:16Z</time></trkpt><trkpt lat="41.93065386695107" lon="1.6893554952693688"><ele>469.0</ele><time>2026-04-25T10:38:17Z</time></trkpt><trkpt lat="41.93077819138959" lon="1.6896562339233259"><ele>471.0</ele><time>2026-04-25T10:38:18Z</time></trkpt><trkpt lat="41.930899222596906" lon="1.689948940347891"><ele>473.0</ele><time>2026-04-25T10:38:19Z</time></trkpt><trkpt lat="41.93101935885034" lon="1.6902372700474348"><ele>474.0</ele><time>2026-04-25T10:38:20Z</time></trkpt><trkpt lat="41.93113478981646" lon="1.6905198205149345"><ele>475.0</ele><time>2026-04-25T10:38:21Z</time></trkpt><trkpt lat="41.931259585193764" lon="1.6908189470975898"><ele>474.5</ele><time>2026-04-25T10:38:22Z</time></trkpt><trkpt lat="41.93139116760913" lon="1.6911428178707206"><ele>474.0</ele><time>2026-04-25T10:38:23Z</time></trkpt><trkpt lat="41.931532370285225" lon="1.6914898846988535"><ele>474.0</ele><time>2026-04-25T10:38:24Z</time></trkpt><trkpt lat="41.93167548252255" lon="1.691840157269367"><ele>474.0</ele><time>2026-04-25T10:38:25Z</time></trkpt><trkpt lat="41.93180889321895" lon="1.6921666594509728"><ele>477.5</ele><time>2026-04-25T10:38:26Z</time></trkpt><trkpt lat="41.9319374896758" lon="1.6924822776880397"><ele>481.0</ele><time>2026-04-25T10:38:27Z</time></trkpt><trkpt lat="41.93206515051246" lon="1.6927923262228333"><ele>482.5</ele><time>2026-04-25T10:38:28Z</time></trkpt><trkpt lat="41.932191876447305" lon="1.6930938950814898"><ele>484.0</ele><time>2026-04-25T10:38:29Z</time></trkpt><trkpt lat="41.93231585596266" lon="1.69338805595357"><ele>483.5</ele><time>2026-04-25T10:38:30Z</time></trkpt><trkpt lat="41.93243872924818" lon="1.6936759840535354"><ele>483.0</ele><time>2026-04-25T10:38:31Z</time></trkpt><trkpt lat="41.93255939266584" lon="1.6939549819072284"><ele>486.0</ele><time>2026-04-25T10:38:32Z</time></trkpt><trkpt lat="41.93267286256174" lon="1.6942098226935913"><ele>489.0</ele><time>2026-04-25T10:38:33Z</time></trkpt><trkpt lat="41.93278336882088" lon="1.6944527900144817"><ele>492.0</ele><time>2026-04-25T10:38:34Z</time></trkpt><trkpt lat="41.93288920662807" lon="1.6946830734285727"><ele>492.0</ele><time>2026-04-25T10:38:35Z</time></trkpt><trkpt lat="41.93298880253805" lon="1.6948885179251"><ele>492.0</ele><time>2026-04-25T10:38:36Z</time></trkpt><trkpt lat="41.93310071310524" lon="1.6950729232055788"><ele>492.0</ele><time>2026-04-25T10:38:37Z</time></trkpt><trkpt lat="41.93323506068035" lon="1.695226252055352"><ele>492.33333333333337</ele><time>2026-04-25T10:38:38Z</time></trkpt><trkpt lat="41.93338625243551" lon="1.6953422340425792"><ele>492.6666666666667</ele><time>2026-04-25T10:38:39Z</time></trkpt><trkpt lat="41.933556043955846" lon="1.695414721871667"><ele>493.0</ele><time>2026-04-25T10:38:40Z</time></trkpt><trkpt lat="41.93375140759621" lon="1.6954564781735757"><ele>493.0</ele><time>2026-04-25T10:38:41Z</time></trkpt><trkpt lat="41.933966441205015" lon="1.6954886232899586"><ele>493.0</ele><time>2026-04-25T10:38:42Z</time></trkpt><trkpt lat="41.93418058568268" lon="1.6955248095423947"><ele>493.0</ele><time>2026-04-25T10:38:43Z</time></trkpt><trkpt lat="41.934371079149635" lon="1.695557095725508"><ele>494.33333333333337</ele><time>2026-04-25T10:38:44Z</time></trkpt><trkpt lat="41.93455179301383" lon="1.6955613659168647"><ele>495.66666666666663</ele><time>2026-04-25T10:38:45Z</time></trkpt><trkpt lat="41.9347406351636" lon="1.6955191986337619"><ele>497.0</ele><time>2026-04-25T10:38:46Z</time></trkpt><trkpt lat="41.93494307544881" lon="1.695420860654493"><ele>501.0</ele><time>2026-04-25T10:38:47Z</time></trkpt><trkpt lat="41.93517505728324" lon="1.6953098079997313"><ele>505.0</ele><time>2026-04-25T10:38:48Z</time></trkpt><trkpt lat="41.935418462285426" lon="1.6952177436325302"><ele>506.0</ele><time>2026-04-25T10:38:49Z</time></trkpt><trkpt lat="41.93562307451756" lon="1.6951310762598082"><ele>507.0</ele><time>2026-04-25T10:38:50Z</time></trkpt><trkpt lat="41.93579258525898" lon="1.695040646893706"><ele>508.0</ele><time>2026-04-25T10:38:51Z</time></trkpt><trkpt lat="41.935939205634746" lon="1.6949100907264858"><ele>509.0</ele><time>2026-04-25T10:38:52Z</time></trkpt><trkpt lat="41.93607883922555" lon="1.6947305777054102"><ele>510.0</ele><time>2026-04-25T10:38:53Z</time></trkpt><trkpt lat="41.93620453635421" lon="1.694560056590989"><ele>511.0</ele><time>2026-04-25T10:38:54Z</time></trkpt><trkpt lat="41.93634670398544" lon="1.6944368504462493"><ele>515.6666666666667</ele><time>2026-04-25T10:38:55Z</time></trkpt><trkpt lat="41.936509137834534" lon="1.6943882420718333"><ele>520.3333333333334</ele><time>2026-04-25T10:38:56Z</time></trkpt><trkpt lat="41.936710696946136" lon="1.6943698759216774"><ele>525.0</ele><time>2026-04-25T10:38:57Z</time></trkpt><trkpt lat="41.9369137394873" lon="1.6943521758665017"><ele>525.6666666666666</ele><time>2026-04-25T10:38:58Z</time></trkpt><trkpt lat="41.9370822663808" lon="1.694372285962738"><ele>526.3333333333333</ele><time>2026-04-25T10:38:59Z</time></trkpt><trkpt lat="41.937229820374085" lon="1.694450547324625"><ele>527.0</ele><time>2026-04-25T10:39:00Z</time></trkpt><trkpt lat="41.93737701668098" lon="1.6945999797675542"><ele>527.0</ele><time>2026-04-25T10:39:01Z</time></trkpt><trkpt lat="41.93754342224577" lon="1.6948036275823213"><ele>527.0</ele><time>2026-04-25T10:39:02Z</time></trkpt><trkpt lat="41.937717015375014" lon="1.6949828361805697"><ele>527.0</ele><time>2026-04-25T10:39:03Z</time></trkpt><trkpt lat="41.937870155377375" lon="1.6951249212751172"><ele>527.5</ele><time>2026-04-25T10:39:04Z</time></trkpt><trkpt lat="41.93801091776552" lon="1.695223056864003"><ele>528.0</ele><time>2026-04-25T10:39:05Z</time></trkpt><trkpt lat="41.93814837374754" lon="1.695284883103415"><ele>528.5</ele><time>2026-04-25T10:39:06Z</time></trkpt><trkpt lat="41.93826655945954" lon="1.6952906755463037"><ele>529.0</ele><time>2026-04-25T10:39:07Z</time></trkpt><trkpt lat="41.93837384781575" lon="1.6952338913711174"><ele>532.25</ele><time>2026-04-25T10:39:08Z</time></trkpt><trkpt lat="41.938474737135884" lon="1.6951102738258714"><ele>535.5</ele><time>2026-04-25T10:39:09Z</time></trkpt><trkpt lat="41.938590401429316" lon="1.6949648065172507"><ele>538.75</ele><time>2026-04-25T10:39:10Z</time></trkpt><trkpt lat="41.938731792819176" lon="1.6948911367495134"><ele>542.0</ele><time>2026-04-25T10:39:11Z</time></trkpt><trkpt lat="41.93889029309604" lon="1.6949002341440829"><ele>542.0</ele><time>2026-04-25T10:39:12Z</time></trkpt><trkpt lat="41.93904416264351" lon="1.6949711164989383"><ele>542.0</ele><time>2026-04-25T10:39:13Z</time></trkpt><trkpt lat="41.93919159006599" lon="1.6950996142422445"><ele>542.0</ele><time>2026-04-25T10:39:14Z</time></trkpt><trkpt lat="41.9393568660135" lon="1.695236759523447"><ele>542.0</ele><time>2026-04-25T10:39:15Z</time></trkpt><trkpt lat="41.939322939417195" lon="1.6954394309293188"><ele>542.0</ele><time>2026-04-25T10:39:16Z</time></trkpt><trkpt lat="41.9394060593208" lon="1.695581419457198"><ele>542.0</ele><time>2026-04-25T10:39:17Z</time></trkpt><trkpt lat="41.939517598020615" lon="1.695652325251833"><ele>542.0</ele><time>2026-04-25T10:39:18Z</time></trkpt><trkpt lat="41.93965997791097" lon="1.6956582391913668"><ele>542.0</ele><time>2026-04-25T10:39:19Z</time></trkpt><trkpt lat="41.939832129305145" lon="1.6956093283505675"><ele>542.0</ele><time>2026-04-25T10:39:20Z</time></trkpt><trkpt lat="41.940034988080775" lon="1.6955713099879164"><ele>542.0</ele><time>2026-04-25T10:39:21Z</time></trkpt><trkpt lat="41.94024896642668" lon="1.6955553844779432"><ele>544.3333333333333</ele><time>2026-04-25T10:39:22Z</time></trkpt><trkpt lat="41.940445555831445" lon="1.695575435868385"><ele>546.6666666666666</ele><time>2026-04-25T10:39:23Z</time></trkpt><trkpt lat="41.94061752606711" lon="1.6956262535738618"><ele>549.0</ele><time>2026-04-25T10:39:24Z</time></trkpt><trkpt lat="41.940784597680654" lon="1.6957247610835962"><ele>551.3333333333334</ele><time>2026-04-25T10:39:25Z</time></trkpt><trkpt lat="41.94094154886392" lon="1.6958854605722207"><ele>553.6666666666667</ele><time>2026-04-25T10:39:26Z</time></trkpt><trkpt lat="41.941095729452215" lon="1.6960836741999787"><ele>556.0</ele><time>2026-04-25T10:39:27Z</time></trkpt><trkpt lat="41.94126393093565" lon="1.69628173168576"><ele>556.0</ele><time>2026-04-25T10:39:28Z</time></trkpt><trkpt lat="41.94141884887546" lon="1.6964492157924742"><ele>556.0</ele><time>2026-04-25T10:39:29Z</time></trkpt><trkpt lat="41.94155484472166" lon="1.696584604098475"><ele>556.0</ele><time>2026-04-25T10:39:30Z</time></trkpt><trkpt lat="41.94169888464042" lon="1.6966765462084388"><ele>560.0</ele><time>2026-04-25T10:39:31Z</time></trkpt><trkpt lat="41.94188964383911" lon="1.6966960336575359"><ele>564.0</ele><time>2026-04-25T10:39:32Z</time></trkpt><trkpt lat="41.94208333438506" lon="1.6966910312778134"><ele>568.0</ele><time>2026-04-25T10:39:33Z</time></trkpt><trkpt lat="41.942224190482506" lon="1.69676129075635"><ele>568.0</ele><time>2026-04-25T10:39:34Z</time></trkpt><trkpt lat="41.94234901876621" lon="1.6969111286462781"><ele>568.0</ele><time>2026-04-25T10:39:35Z</time></trkpt><trkpt lat="41.94246464090117" lon="1.6971114203843116"><ele>568.0</ele><time>2026-04-25T10:39:36Z</time></trkpt><trkpt lat="41.94258671371079" lon="1.6972924458885335"><ele>568.25</ele><time>2026-04-25T10:39:37Z</time></trkpt><trkpt lat="41.94266493116111" lon="1.6974526239142345"><ele>568.5</ele><time>2026-04-25T10:39:38Z</time></trkpt><trkpt lat="41.94277116592946" lon="1.6975299804493234"><ele>568.75</ele><time>2026-04-25T10:39:39Z</time></trkpt><trkpt lat="41.942914193206924" lon="1.6975295976384464"><ele>569.0</ele><time>2026-04-25T10:39:40Z</time></trkpt><trkpt lat="41.94307512083533" lon="1.6974950743582569"><ele>569.0</ele><time>2026-04-25T10:39:41Z</time></trkpt><trkpt lat="41.943259344739516" lon="1.6974854358412415"><ele>569.0</ele><time>2026-04-25T10:39:42Z</time></trkpt><trkpt lat="41.94345595587678" lon="1.6975210861911594"><ele>569.0</ele><time>2026-04-25T10:39:43Z</time></trkpt><trkpt lat="41.94364684639228" lon="1.6976034079645468"><ele>570.0</ele><time>2026-04-25T10:39:44Z</time></trkpt><trkpt lat="41.94383416206726" lon="1.6977092926688957"><ele>571.0</ele><time>2026-04-25T10:39:45Z</time></trkpt><trkpt lat="41.94402422431651" lon="1.697792236550181"><ele>572.0</ele><time>2026-04-25T10:39:46Z</time></trkpt><trkpt lat="41.94419152012752" lon="1.697813959662784"><ele>571.6666666666666</ele><time>2026-04-25T10:39:47Z</time></trkpt><trkpt lat="41.944360738039435" lon="1.6978099906989386"><ele>571.3333333333334</ele><time>2026-04-25T10:39:48Z</time></trkpt><trkpt lat="41.944521625670966" lon="1.6978092583607718"><ele>571.0</ele><time>2026-04-25T10:39:49Z</time></trkpt><trkpt lat="41.944669888346155" lon="1.6977766908173781"><ele>573.0</ele><time>2026-04-25T10:39:50Z</time></trkpt><trkpt lat="41.944822456867485" lon="1.6977375500837077"><ele>575.0</ele><time>2026-04-25T10:39:51Z</time></trkpt><trkpt lat="41.94497308693853" lon="1.6976522773276725"><ele>577.0</ele><time>2026-04-25T10:39:52Z</time></trkpt><trkpt lat="41.945122338109115" lon="1.6975652923043396"><ele>577.5</ele><time>2026-04-25T10:39:53Z</time></trkpt><trkpt lat="41.94526887520905" lon="1.6974843979946743"><ele>578.0</ele><time>2026-04-25T10:39:54Z</time></trkpt><trkpt lat="41.945397746902394" lon="1.697427058746823"><ele>578.5</ele><time>2026-04-25T10:39:55Z</time></trkpt><trkpt lat="41.94551511614188" lon="1.6974160695918155"><ele>579.0</ele><time>2026-04-25T10:39:56Z</time></trkpt><trkpt lat="41.94562996710422" lon="1.697463276016905"><ele>579.0</ele><time>2026-04-25T10:39:57Z</time></trkpt><trkpt lat="41.94572189224163" lon="1.697590052783671"><ele>579.0</ele><time>2026-04-25T10:39:58Z</time></trkpt><trkpt lat="41.94582674407711" lon="1.6977128858278239"><ele>579.0</ele><time>2026-04-25T10:39:59Z</time></trkpt><trkpt lat="41.945912216900766" lon="1.697864828853836"><ele>579.0</ele><time>2026-04-25T10:40:00Z</time></trkpt><trkpt lat="41.9460036124769" lon="1.6980071155416587"><ele>580.25</ele><time>2026-04-25T10:40:01Z</time></trkpt><trkpt lat="41.9461068776386" lon="1.6981399099208383"><ele>581.5</ele><time>2026-04-25T10:40:02Z</time></trkpt><trkpt lat="41.94621689412053" lon="1.6982638989691121"><ele>582.75</ele><time>2026-04-25T10:40:03Z</time></trkpt><trkpt lat="41.94633367322992" lon="1.6983738277093863"><ele>584.0</ele><time>2026-04-25T10:40:04Z</time></trkpt><trkpt lat="41.94646095870611" lon="1.6984601225009313"><ele>584.0</ele><time>2026-04-25T10:40:05Z</time></trkpt><trkpt lat="41.94659239330811" lon="1.6985342008068551"><ele>584.0</ele><time>2026-04-25T10:40:06Z</time></trkpt><trkpt lat="41.94672732441074" lon="1.6985954540008608"><ele>584.0</ele><time>2026-04-25T10:40:07Z</time></trkpt><trkpt lat="41.94686616406039" lon="1.6986600510431829"><ele>584.0</ele><time>2026-04-25T10:40:08Z</time></trkpt><trkpt lat="41.94700724201477" lon="1.6987278850197522"><ele>584.6666666666666</ele><time>2026-04-25T10:40:09Z</time></trkpt><trkpt lat="41.947144966239485" lon="1.698795287828794"><ele>585.3333333333334</ele><time>2026-04-25T10:40:10Z</time></trkpt><trkpt lat="41.94728943390429" lon="1.6988670957525087"><ele>586.0</ele><time>2026-04-25T10:40:11Z</time></trkpt><trkpt lat="41.9474402800919" lon="1.698949443857082"><ele>589.3333333333334</ele><time>2026-04-25T10:40:12Z</time></trkpt><trkpt lat="41.94758718770389" lon="1.6990248843246782"><ele>592.6666666666666</ele><time>2026-04-25T10:40:13Z</time></trkpt><trkpt lat="41.947736899930796" lon="1.6990988707038293"><ele>596.0</ele><time>2026-04-25T10:40:14Z</time></trkpt><trkpt lat="41.947890497582705" lon="1.6991749241854117"><ele>596.0</ele><time>2026-04-25T10:40:15Z</time></trkpt><trkpt lat="41.94804743646692" lon="1.6992516263426467"><ele>596.0</ele><time>2026-04-25T10:40:16Z</time></trkpt><trkpt lat="41.94820451347138" lon="1.6993307933212527"><ele>596.0</ele><time>2026-04-25T10:40:17Z</time></trkpt><trkpt lat="41.9483644845257" lon="1.699409971417529"><ele>597.3333333333333</ele><time>2026-04-25T10:40:18Z</time></trkpt><trkpt lat="41.94853018137151" lon="1.6994904528149983"><ele>598.6666666666666</ele><time>2026-04-25T10:40:19Z</time></trkpt><trkpt lat="41.948715102869464" lon="1.699581736535546"><ele>600.0</ele><time>2026-04-25T10:40:20Z</time></trkpt><trkpt lat="41.94892198641001" lon="1.6996813601091898"><ele>600.0</ele><time>2026-04-25T10:40:21Z</time></trkpt><trkpt lat="41.949138393754254" lon="1.699796452820843"><ele>600.0</ele><time>2026-04-25T10:40:22Z</time></trkpt><trkpt lat="41.94936274368962" lon="1.6999087095376049"><ele>604.0</ele><time>2026-04-25T10:40:23Z</time></trkpt><trkpt lat="41.94958514184821" lon="1.7000171053142799"><ele>608.0</ele><time>2026-04-25T10:40:24Z</time></trkpt><trkpt lat="41.94980537129041" lon="1.7001294880622488"><ele>608.0</ele><time>2026-04-25T10:40:25Z</time></trkpt><trkpt lat="41.95002701235192" lon="1.7002437491060642"><ele>608.0</ele><time>2026-04-25T10:40:26Z</time></trkpt><trkpt lat="41.95024406240454" lon="1.7003547252642954"><ele>607.6666666666666</ele><time>2026-04-25T10:40:27Z</time></trkpt><trkpt lat="41.95045344313566" lon="1.7004609680751974"><ele>607.3333333333334</ele><time>2026-04-25T10:40:28Z</time></trkpt><trkpt lat="41.95065223442008" lon="1.7005581308858662"><ele>607.0</ele><time>2026-04-25T10:40:29Z</time></trkpt><trkpt lat="41.950838695766926" lon="1.7006434999115556"><ele>605.0</ele><time>2026-04-25T10:40:30Z</time></trkpt><trkpt lat="41.95100331734591" lon="1.7007322503208862"><ele>603.0</ele><time>2026-04-25T10:40:31Z</time></trkpt><trkpt lat="41.95115212078369" lon="1.7008582248463393"><ele>601.0</ele><time>2026-04-25T10:40:32Z</time></trkpt><trkpt lat="41.95129334659297" lon="1.701045966830091"><ele>600.3333333333334</ele><time>2026-04-25T10:40:33Z</time></trkpt><trkpt lat="41.95143021392191" lon="1.7012692013521222"><ele>599.6666666666666</ele><time>2026-04-25T10:40:34Z</time></trkpt><trkpt lat="41.95156412720907" lon="1.7014589590131173"><ele>599.0</ele><time>2026-04-25T10:40:35Z</time></trkpt><trkpt lat="41.951693344918034" lon="1.7016151343870896"><ele>597.3333333333333</ele><time>2026-04-25T10:40:36Z</time></trkpt><trkpt lat="41.95184636702596" lon="1.7017520848513996"><ele>595.6666666666666</ele><time>2026-04-25T10:40:37Z</time></trkpt><trkpt lat="41.95202939359587" lon="1.7018536811861948"><ele>594.0</ele><time>2026-04-25T10:40:38Z</time></trkpt><trkpt lat="41.9522460741299" lon="1.7019092482215932"><ele>596.5</ele><time>2026-04-25T10:40:39Z</time></trkpt><trkpt lat="41.952492467009215" lon="1.701944413001776"><ele>599.0</ele><time>2026-04-25T10:40:40Z</time></trkpt><trkpt lat="41.95276341336297" lon="1.7019897035911224"><ele>599.0</ele><time>2026-04-25T10:40:41Z</time></trkpt><trkpt lat="41.95304128113149" lon="1.7020467058592257"><ele>599.0</ele><time>2026-04-25T10:40:42Z</time></trkpt><trkpt lat="41.95329871586729" lon="1.7020950747666157"><ele>598.6666666666666</ele><time>2026-04-25T10:40:43Z</time></trkpt><trkpt lat="41.95352820837134" lon="1.7021389750517903"><ele>598.3333333333334</ele><time>2026-04-25T10:40:44Z</time></trkpt><trkpt lat="41.95373927368325" lon="1.7021832917233282"><ele>598.0</ele><time>2026-04-25T10:40:45Z</time></trkpt><trkpt lat="41.95394719138918" lon="1.7022426354873"><ele>598.0</ele><time>2026-04-25T10:40:46Z</time></trkpt><trkpt lat="41.95416762560226" lon="1.7023314406610979"><ele>598.0</ele><time>2026-04-25T10:40:47Z</time></trkpt><trkpt lat="41.9543975832448" lon="1.7024425786414965"><ele>593.5</ele><time>2026-04-25T10:40:48Z</time></trkpt><trkpt lat="41.95464115838459" lon="1.7025586112814846"><ele>589.0</ele><time>2026-04-25T10:40:49Z</time></trkpt><trkpt lat="41.954877637960095" lon="1.7026714225960173"><ele>589.0</ele><time>2026-04-25T10:40:50Z</time></trkpt><trkpt lat="41.95509290460298" lon="1.7027734972230315"><ele>589.0</ele><time>2026-04-25T10:40:51Z</time></trkpt><trkpt lat="41.95529105058758" lon="1.7028682019178627"><ele>589.0</ele><time>2026-04-25T10:40:52Z</time></trkpt><trkpt lat="41.95547271566833" lon="1.7029542907212674"><ele>589.0</ele><time>2026-04-25T10:40:53Z</time></trkpt><trkpt lat="41.95564597917452" lon="1.7030335746837542"><ele>589.0</ele><time>2026-04-25T10:40:54Z</time></trkpt><trkpt lat="41.95581805331944" lon="1.703116991550625"><ele>589.0</ele><time>2026-04-25T10:40:55Z</time></trkpt><trkpt lat="41.95597269524281" lon="1.7031833409015518"><ele>589.3333333333334</ele><time>2026-04-25T10:40:56Z</time></trkpt><trkpt lat="41.956115617622956" lon="1.7032011707757442"><ele>589.6666666666666</ele><time>2026-04-25T10:40:57Z</time></trkpt><trkpt lat="41.95626074621622" lon="1.703147562148369"><ele>590.0</ele><time>2026-04-25T10:40:58Z</time></trkpt><trkpt lat="41.95641671759521" lon="1.703003962018989"><ele>590.0</ele><time>2026-04-25T10:40:59Z</time></trkpt><trkpt lat="41.95659014020786" lon="1.7028084266365755"><ele>590.0</ele><time>2026-04-25T10:41:00Z</time></trkpt><trkpt lat="41.9567928744362" lon="1.70260472796055"><ele>590.0</ele><time>2026-04-25T10:41:01Z</time></trkpt><trkpt lat="41.95702219910679" lon="1.70240015211333"><ele>590.0</ele><time>2026-04-25T10:41:02Z</time></trkpt><trkpt lat="41.95725247054108" lon="1.7021945692636016"><ele>590.0</ele><time>2026-04-25T10:41:03Z</time></trkpt><trkpt lat="41.957456374512766" lon="1.7020106022565165"><ele>590.0</ele><time>2026-04-25T10:41:04Z</time></trkpt><trkpt lat="41.95763754532986" lon="1.7018483740980919"><ele>591.0</ele><time>2026-04-25T10:41:05Z</time></trkpt><trkpt lat="41.95780829191431" lon="1.7016953136830992"><ele>592.0</ele><time>2026-04-25T10:41:06Z</time></trkpt><trkpt lat="41.95796933591953" lon="1.7015590066252853"><ele>593.0</ele><time>2026-04-25T10:41:07Z</time></trkpt><trkpt lat="41.95814011326052" lon="1.7014553406257955"><ele>593.0</ele><time>2026-04-25T10:41:08Z</time></trkpt><trkpt lat="41.958331805550564" lon="1.7014045339790485"><ele>593.0</ele><time>2026-04-25T10:41:09Z</time></trkpt><trkpt lat="41.9585471709941" lon="1.7013249140643283"><ele>593.0</ele><time>2026-04-25T10:41:10Z</time></trkpt><trkpt lat="41.958777876733464" lon="1.7012762038111373"><ele>593.0</ele><time>2026-04-25T10:41:11Z</time></trkpt><trkpt lat="41.959007717387664" lon="1.701217127885972"><ele>593.0</ele><time>2026-04-25T10:41:12Z</time></trkpt><trkpt lat="41.95923539434365" lon="1.7011479128380442"><ele>591.6666666666666</ele><time>2026-04-25T10:41:13Z</time></trkpt><trkpt lat="41.95946130116022" lon="1.7010779750397598"><ele>590.3333333333334</ele><time>2026-04-25T10:41:14Z</time></trkpt><trkpt lat="41.959668840129176" lon="1.7010192982370607"><ele>589.0</ele><time>2026-04-25T10:41:15Z</time></trkpt><trkpt lat="41.95985915844169" lon="1.700966236531202"><ele>588.0</ele><time>2026-04-25T10:41:16Z</time></trkpt><trkpt lat="41.96004309911803" lon="1.7009349591092748"><ele>587.0</ele><time>2026-04-25T10:41:17Z</time></trkpt><trkpt lat="41.96023258947782" lon="1.700957036750364"><ele>586.0</ele><time>2026-04-25T10:41:18Z</time></trkpt><trkpt lat="41.96044103180282" lon="1.7010280898780286"><ele>586.5</ele><time>2026-04-25T10:41:19Z</time></trkpt><trkpt lat="41.96068335372741" lon="1.7011188882917596"><ele>587.0</ele><time>2026-04-25T10:41:20Z</time></trkpt><trkpt lat="41.96094182949207" lon="1.7012026395793454"><ele>585.5</ele><time>2026-04-25T10:41:21Z</time></trkpt><trkpt lat="41.96121737015707" lon="1.7012854353050109"><ele>584.0</ele><time>2026-04-25T10:41:22Z</time></trkpt><trkpt lat="41.96150041755053" lon="1.7013675652826863"><ele>582.5</ele><time>2026-04-25T10:41:23Z</time></trkpt><trkpt lat="41.96178602212541" lon="1.701451073035907"><ele>581.0</ele><time>2026-04-25T10:41:24Z</time></trkpt><trkpt lat="41.962077144071074" lon="1.7015394223126956"><ele>581.0</ele><time>2026-04-25T10:41:25Z</time></trkpt><trkpt lat="41.962373133777284" lon="1.7016315901379864"><ele>581.0</ele><time>2026-04-25T10:41:26Z</time></trkpt><trkpt lat="41.96267612357593" lon="1.70172409969073"><ele>580.0</ele><time>2026-04-25T10:41:27Z</time></trkpt><trkpt lat="41.962970440713285" lon="1.701810545349568"><ele>579.0</ele><time>2026-04-25T10:41:28Z</time></trkpt><trkpt lat="41.963260527540726" lon="1.7018942002340156"><ele>578.5</ele><time>2026-04-25T10:41:29Z</time></trkpt><trkpt lat="41.963547033694965" lon="1.7019801204377456"><ele>578.0</ele><time>2026-04-25T10:41:30Z</time></trkpt><trkpt lat="41.9638318205103" lon="1.702069706949606"><ele>578.0</ele><time>2026-04-25T10:41:31Z</time></trkpt><trkpt lat="41.964114883398196" lon="1.7021587916442085"><ele>578.0</ele><time>2026-04-25T10:41:32Z</time></trkpt><trkpt lat="41.96439813149895" lon="1.702244845779955"><ele>577.0</ele><time>2026-04-25T10:41:33Z</time></trkpt><trkpt lat="41.964677206976475" lon="1.7023311388551117"><ele>576.0</ele><time>2026-04-25T10:41:34Z</time></trkpt><trkpt lat="41.96495879200484" lon="1.7024155169914332"><ele>575.5</ele><time>2026-04-25T10:41:35Z</time></trkpt><trkpt lat="41.96523575492655" lon="1.7024993947799156"><ele>575.0</ele><time>2026-04-25T10:41:36Z</time></trkpt><trkpt lat="41.96551858737952" lon="1.7025901195802005"><ele>575.0</ele><time>2026-04-25T10:41:37Z</time></trkpt><trkpt lat="41.965803329651855" lon="1.7026802716790996"><ele>575.0</ele><time>2026-04-25T10:41:38Z</time></trkpt><trkpt lat="41.966095312868106" lon="1.7027665802805523"><ele>576.5</ele><time>2026-04-25T10:41:39Z</time></trkpt><trkpt lat="41.966386639802266" lon="1.702850951393282"><ele>578.0</ele><time>2026-04-25T10:41:40Z</time></trkpt><trkpt lat="41.96667053423817" lon="1.702940707799688"><ele>576.5</ele><time>2026-04-25T10:41:41Z</time></trkpt><trkpt lat="41.966958732081416" lon="1.7030254978311266"><ele>575.0</ele><time>2026-04-25T10:41:42Z</time></trkpt><trkpt lat="41.96724638195987" lon="1.7031077540092292"><ele>575.5</ele><time>2026-04-25T10:41:43Z</time></trkpt><trkpt lat="41.96753178936378" lon="1.7031894895660138"><ele>576.0</ele><time>2026-04-25T10:41:44Z</time></trkpt><trkpt lat="41.967833740785906" lon="1.703283318763066"><ele>576.0</ele><time>2026-04-25T10:41:45Z</time></trkpt><trkpt lat="41.96814850510699" lon="1.7033852552065725"><ele>576.0</ele><time>2026-04-25T10:41:46Z</time></trkpt><trkpt lat="41.968429416926135" lon="1.70347264780816"><ele>578.5</ele><time>2026-04-25T10:41:47Z</time></trkpt><trkpt lat="41.968682693707784" lon="1.7035495290727956"><ele>581.0</ele><time>2026-04-25T10:41:48Z</time></trkpt><trkpt lat="41.96892495289467" lon="1.7036234394034961"><ele>581.5</ele><time>2026-04-25T10:41:49Z</time></trkpt><trkpt lat="41.96916248657555" lon="1.7037038451803372"><ele>582.0</ele><time>2026-04-25T10:41:50Z</time></trkpt><trkpt lat="41.96940309979875" lon="1.7037937517506851"><ele>585.5</ele><time>2026-04-25T10:41:51Z</time></trkpt><trkpt lat="41.96963813824611" lon="1.7038845940790965"><ele>589.0</ele><time>2026-04-25T10:41:52Z</time></trkpt><trkpt lat="41.96986304142341" lon="1.7039757833053832"><ele>588.3333333333334</ele><time>2026-04-25T10:41:53Z</time></trkpt><trkpt lat="41.970068706723836" lon="1.7040715820934529"><ele>587.6666666666666</ele><time>2026-04-25T10:41:54Z</time></trkpt><trkpt lat="41.97027669889195" lon="1.7041980575495193"><ele>587.0</ele><time>2026-04-25T10:41:55Z</time></trkpt><trkpt lat="41.970488356506976" lon="1.7043629944177938"><ele>589.0</ele><time>2026-04-25T10:41:56Z</time></trkpt><trkpt lat="41.97068533907198" lon="1.7045530382957852"><ele>591.0</ele><time>2026-04-25T10:41:57Z</time></trkpt><trkpt lat="41.970864056065636" lon="1.7047486661628495"><ele>591.0</ele><time>2026-04-25T10:41:58Z</time></trkpt><trkpt lat="41.97103210552604" lon="1.7049324445886134"><ele>591.0</ele><time>2026-04-25T10:41:59Z</time></trkpt><trkpt lat="41.97119146256163" lon="1.7050868960681407"><ele>591.0</ele><time>2026-04-25T10:42:00Z</time></trkpt><trkpt lat="41.9713403716364" lon="1.705191108467596"><ele>591.0</ele><time>2026-04-25T10:42:01Z</time></trkpt><trkpt lat="41.97151053376967" lon="1.705235538343545"><ele>591.0</ele><time>2026-04-25T10:42:02Z</time></trkpt><trkpt lat="41.97171153038063" lon="1.7052338130106122"><ele>591.0</ele><time>2026-04-25T10:42:03Z</time></trkpt><trkpt lat="41.97193963423788" lon="1.7052154143396232"><ele>592.0</ele><time>2026-04-25T10:42:04Z</time></trkpt><trkpt lat="41.97213474405555" lon="1.7052158050006894"><ele>593.0</ele><time>2026-04-25T10:42:05Z</time></trkpt><trkpt lat="41.972309805725715" lon="1.705268488014526"><ele>594.0</ele><time>2026-04-25T10:42:06Z</time></trkpt><trkpt lat="41.97248076524722" lon="1.705397171014569"><ele>594.6666666666666</ele><time>2026-04-25T10:42:07Z</time></trkpt><trkpt lat="41.97266595966377" lon="1.7055537150218287"><ele>595.3333333333333</ele><time>2026-04-25T10:42:08Z</time></trkpt><trkpt lat="41.97281244772433" lon="1.7056984954882548"><ele>596.0</ele><time>2026-04-25T10:42:09Z</time></trkpt><trkpt lat="41.972922619345255" lon="1.705835466612769"><ele>596.0</ele><time>2026-04-25T10:42:10Z</time></trkpt><trkpt lat="41.97299817937587" lon="1.706023827973936"><ele>596.0</ele><time>2026-04-25T10:42:11Z</time></trkpt><trkpt lat="41.97305605671304" lon="1.706259921586616"><ele>596.0</ele><time>2026-04-25T10:42:12Z</time></trkpt><trkpt lat="41.97312424783313" lon="1.7064865308543313"><ele>596.0</ele><time>2026-04-25T10:42:13Z</time></trkpt><trkpt lat="41.9732256732531" lon="1.7066458812909766"><ele>596.0</ele><time>2026-04-25T10:42:14Z</time></trkpt><trkpt lat="41.97336084264063" lon="1.7067771150172906"><ele>596.0</ele><time>2026-04-25T10:42:15Z</time></trkpt><trkpt lat="41.97350837881716" lon="1.7068491353676847"><ele>596.0</ele><time>2026-04-25T10:42:16Z</time></trkpt><trkpt lat="41.97366352737386" lon="1.7068532125988378"><ele>596.0</ele><time>2026-04-25T10:42:17Z</time></trkpt><trkpt lat="41.973825122800854" lon="1.706786351517074"><ele>596.0</ele><time>2026-04-25T10:42:18Z</time></trkpt><trkpt lat="41.97400429939424" lon="1.7066825098948095"><ele>596.0</ele><time>2026-04-25T10:42:19Z</time></trkpt><trkpt lat="41.9741853444362" lon="1.7066136405100631"><ele>596.0</ele><time>2026-04-25T10:42:20Z</time></trkpt><trkpt lat="41.97435139894141" lon="1.7066265181597764"><ele>596.0</ele><time>2026-04-25T10:42:21Z</time></trkpt><trkpt lat="41.97452793177782" lon="1.706662282601295"><ele>595.6666666666666</ele><time>2026-04-25T10:42:22Z</time></trkpt><trkpt lat="41.97472181600583" lon="1.7067457281602278"><ele>595.3333333333334</ele><time>2026-04-25T10:42:23Z</time></trkpt><trkpt lat="41.9749400310686" lon="1.7068411553444043"><ele>595.0</ele><time>2026-04-25T10:42:24Z</time></trkpt><trkpt lat="41.97515956054966" lon="1.7069470802558393"><ele>597.6666666666667</ele><time>2026-04-25T10:42:25Z</time></trkpt><trkpt lat="41.975378609552536" lon="1.7070455533846174"><ele>600.3333333333334</ele><time>2026-04-25T10:42:26Z</time></trkpt><trkpt lat="41.97557424075749" lon="1.707134909051223"><ele>603.0</ele><time>2026-04-25T10:42:27Z</time></trkpt><trkpt lat="41.97574931963016" lon="1.7072264051172943"><ele>603.3333333333334</ele><time>2026-04-25T10:42:28Z</time></trkpt><trkpt lat="41.97592462427092" lon="1.7073400028599348"><ele>603.6666666666667</ele><time>2026-04-25T10:42:29Z</time></trkpt><trkpt lat="41.97609893543352" lon="1.7074979591777513"><ele>604.0</ele><time>2026-04-25T10:42:30Z</time></trkpt><trkpt lat="41.976275504068255" lon="1.7076761973917485"><ele>607.0</ele><time>2026-04-25T10:42:31Z</time></trkpt><trkpt lat="41.97645987292762" lon="1.707852017851328"><ele>610.0</ele><time>2026-04-25T10:42:32Z</time></trkpt><trkpt lat="41.97664737809553" lon="1.7080175470815064"><ele>609.3333333333334</ele><time>2026-04-25T10:42:33Z</time></trkpt><trkpt lat="41.97683478138694" lon="1.7081833497611816"><ele>608.6666666666666</ele><time>2026-04-25T10:42:34Z</time></trkpt><trkpt lat="41.97701106140629" lon="1.7083462054013892"><ele>608.0</ele><time>2026-04-25T10:42:35Z</time></trkpt><trkpt lat="41.97719173798406" lon="1.7085111956557022"><ele>611.5</ele><time>2026-04-25T10:42:36Z</time></trkpt><trkpt lat="41.97737828793571" lon="1.7086817828193779"><ele>615.0</ele><time>2026-04-25T10:42:37Z</time></trkpt><trkpt lat="41.977569236175796" lon="1.7088547016173492"><ele>615.0</ele><time>2026-04-25T10:42:38Z</time></trkpt><trkpt lat="41.97775723976368" lon="1.7090231029274585"><ele>615.0</ele><time>2026-04-25T10:42:39Z</time></trkpt><trkpt lat="41.97792026402866" lon="1.7091861008828728"><ele>615.0</ele><time>2026-04-25T10:42:40Z</time></trkpt><trkpt lat="41.97806780242969" lon="1.7093217151152942"><ele>616.0</ele><time>2026-04-25T10:42:41Z</time></trkpt><trkpt lat="41.97822862525529" lon="1.709415469992527"><ele>617.0</ele><time>2026-04-25T10:42:42Z</time></trkpt><trkpt lat="41.978416280169085" lon="1.7094514492162132"><ele>618.0</ele><time>2026-04-25T10:42:43Z</time></trkpt><trkpt lat="41.97863644637062" lon="1.709452357191253"><ele>618.6666666666666</ele><time>2026-04-25T10:42:44Z</time></trkpt><trkpt lat="41.978864406013415" lon="1.7094709317528116"><ele>619.3333333333333</ele><time>2026-04-25T10:42:45Z</time></trkpt><trkpt lat="41.97907899316715" lon="1.709510869117532"><ele>620.0</ele><time>2026-04-25T10:42:46Z</time></trkpt><trkpt lat="41.97927298265987" lon="1.7095599743713632"><ele>621.0</ele><time>2026-04-25T10:42:47Z</time></trkpt><trkpt lat="41.97947791640536" lon="1.7096307021024433"><ele>622.0</ele><time>2026-04-25T10:42:48Z</time></trkpt><trkpt lat="41.979695240104995" lon="1.7097090082436532"><ele>623.0</ele><time>2026-04-25T10:42:49Z</time></trkpt><trkpt lat="41.979906674880596" lon="1.7097773891527608"><ele>625.0</ele><time>2026-04-25T10:42:50Z</time></trkpt><trkpt lat="41.98009796285062" lon="1.7098305665062845"><ele>627.0</ele><time>2026-04-25T10:42:51Z</time></trkpt><trkpt lat="41.98026337302464" lon="1.7098618596429425"><ele>629.0</ele><time>2026-04-25T10:42:52Z</time></trkpt><trkpt lat="41.98042114060505" lon="1.7098749784708056"><ele>629.0</ele><time>2026-04-25T10:42:53Z</time></trkpt><trkpt lat="41.98057749481972" lon="1.7098685578595172"><ele>629.0</ele><time>2026-04-25T10:42:54Z</time></trkpt><trkpt lat="41.98075102733058" lon="1.709892683590598"><ele>629.0</ele><time>2026-04-25T10:42:55Z</time></trkpt><trkpt lat="41.98091760977592" lon="1.7099234866946442"><ele>631.0</ele><time>2026-04-25T10:42:56Z</time></trkpt><trkpt lat="41.9810590373191" lon="1.709970260222361"><ele>633.0</ele><time>2026-04-25T10:42:57Z</time></trkpt><trkpt lat="41.981167001948165" lon="1.7101038554248114"><ele>635.0</ele><time>2026-04-25T10:42:58Z</time></trkpt><trkpt lat="41.98126719739136" lon="1.7102872698195528"><ele>635.0</ele><time>2026-04-25T10:42:59Z</time></trkpt><trkpt lat="41.9814008000005" lon="1.7104948891152043"><ele>635.0</ele><time>2026-04-25T10:43:00Z</time></trkpt><trkpt lat="41.98153400932173" lon="1.7107186973244946"><ele>635.0</ele><time>2026-04-25T10:43:01Z</time></trkpt><trkpt lat="41.981658370426565" lon="1.7109229036583902"><ele>632.6666666666666</ele><time>2026-04-25T10:43:02Z</time></trkpt><trkpt lat="41.9817552886151" lon="1.711106571837729"><ele>630.3333333333334</ele><time>2026-04-25T10:43:03Z</time></trkpt><trkpt lat="41.981838280780394" lon="1.711290340774278"><ele>628.0</ele><time>2026-04-25T10:43:04Z</time></trkpt><trkpt lat="41.98194160835323" lon="1.7114834159181194"><ele>628.0</ele><time>2026-04-25T10:43:05Z</time></trkpt><trkpt lat="41.982086011225626" lon="1.7116585169629495"><ele>628.0</ele><time>2026-04-25T10:43:06Z</time></trkpt><trkpt lat="41.98226938480505" lon="1.7118141484797935"><ele>628.0</ele><time>2026-04-25T10:43:07Z</time></trkpt><trkpt lat="41.982469058860815" lon="1.7119694275441517"><ele>630.0</ele><time>2026-04-25T10:43:08Z</time></trkpt><trkpt lat="41.98267393884893" lon="1.7121445539331677"><ele>632.0</ele><time>2026-04-25T10:43:09Z</time></trkpt><trkpt lat="41.98286339276545" lon="1.712315737460336"><ele>632.0</ele><time>2026-04-25T10:43:10Z</time></trkpt><trkpt lat="41.98302604091376" lon="1.7124614564823104"><ele>632.0</ele><time>2026-04-25T10:43:11Z</time></trkpt><trkpt lat="41.98317283148296" lon="1.7125899669430797"><ele>632.0</ele><time>2026-04-25T10:43:12Z</time></trkpt><trkpt lat="41.983290165206" lon="1.7127094283916688"><ele>635.0</ele><time>2026-04-25T10:43:13Z</time></trkpt><trkpt lat="41.98336318881811" lon="1.7128807164335884"><ele>638.0</ele><time>2026-04-25T10:43:14Z</time></trkpt><trkpt lat="41.98341555327443" lon="1.713082988707839"><ele>641.0</ele><time>2026-04-25T10:43:15Z</time></trkpt><trkpt lat="41.98347536778191" lon="1.7133147859177982"><ele>641.0</ele><time>2026-04-25T10:43:16Z</time></trkpt><trkpt lat="41.98352238603213" lon="1.7135228173651997"><ele>641.0</ele><time>2026-04-25T10:43:17Z</time></trkpt><trkpt lat="41.983600450768755" lon="1.7136850794344611"><ele>641.0</ele><time>2026-04-25T10:43:18Z</time></trkpt><trkpt lat="41.983729348505015" lon="1.7138225554105744"><ele>640.6666666666666</ele><time>2026-04-25T10:43:19Z</time></trkpt><trkpt lat="41.983892717476394" lon="1.713925709568202"><ele>640.3333333333334</ele><time>2026-04-25T10:43:20Z</time></trkpt><trkpt lat="41.98405143321338" lon="1.714076265748618"><ele>640.0</ele><time>2026-04-25T10:43:21Z</time></trkpt><trkpt lat="41.98428522807552" lon="1.7141058583503723"><ele>643.0</ele><time>2026-04-25T10:43:22Z</time></trkpt><trkpt lat="41.98445286054111" lon="1.7141830149065285"><ele>646.0</ele><time>2026-04-25T10:43:23Z</time></trkpt><trkpt lat="41.98459766371119" lon="1.7142232712375445"><ele>649.0</ele><time>2026-04-25T10:43:24Z</time></trkpt><trkpt lat="41.984752500350915" lon="1.7142146337929627"><ele>649.0</ele><time>2026-04-25T10:43:25Z</time></trkpt><trkpt lat="41.984951630792814" lon="1.7141742921975238"><ele>649.0</ele><time>2026-04-25T10:43:26Z</time></trkpt><trkpt lat="41.98516444055399" lon="1.7141411763375014"><ele>649.0</ele><time>2026-04-25T10:43:27Z</time></trkpt><trkpt lat="41.9853895726234" lon="1.714115042179779"><ele>650.0</ele><time>2026-04-25T10:43:28Z</time></trkpt><trkpt lat="41.9856149204884" lon="1.7140825108463713"><ele>651.0</ele><time>2026-04-25T10:43:29Z</time></trkpt><trkpt lat="41.98583809766658" lon="1.7140452010431446"><ele>650.0</ele><time>2026-04-25T10:43:30Z</time></trkpt><trkpt lat="41.98605870840238" lon="1.7140180511129486"><ele>649.0</ele><time>2026-04-25T10:43:31Z</time></trkpt><trkpt lat="41.98627866823851" lon="1.7139945517793262"><ele>648.0</ele><time>2026-04-25T10:43:32Z</time></trkpt><trkpt lat="41.986481954971715" lon="1.7139704825097728"><ele>648.0</ele><time>2026-04-25T10:43:33Z</time></trkpt><trkpt lat="41.986672956904584" lon="1.7139415908135174"><ele>648.0</ele><time>2026-04-25T10:43:34Z</time></trkpt><trkpt lat="41.9868658840527" lon="1.7138912935115285"><ele>648.0</ele><time>2026-04-25T10:43:35Z</time></trkpt><trkpt lat="41.987056806134525" lon="1.7138039058777983"><ele>650.3333333333334</ele><time>2026-04-25T10:43:36Z</time></trkpt><trkpt lat="41.98723950570722" lon="1.7136913819856983"><ele>652.6666666666667</ele><time>2026-04-25T10:43:37Z</time></trkpt><trkpt lat="41.98742375866437" lon="1.713581145369077"><ele>655.0</ele><time>2026-04-25T10:43:38Z</time></trkpt><trkpt lat="41.987604223232076" lon="1.7134863312143813"><ele>659.0</ele><time>2026-04-25T10:43:39Z</time></trkpt><trkpt lat="41.98778234170342" lon="1.7133923292291453"><ele>663.0</ele><time>2026-04-25T10:43:40Z</time></trkpt><trkpt lat="41.987966683737746" lon="1.7132937434706483"><ele>667.0</ele><time>2026-04-25T10:43:41Z</time></trkpt><trkpt lat="41.9881499866272" lon="1.713195909972979"><ele>667.0</ele><time>2026-04-25T10:43:42Z</time></trkpt><trkpt lat="41.98833142789202" lon="1.7130963146847338"><ele>667.0</ele><time>2026-04-25T10:43:43Z</time></trkpt><trkpt lat="41.98851155739791" lon="1.71297817476909"><ele>667.0</ele><time>2026-04-25T10:43:44Z</time></trkpt><trkpt lat="41.98869184921924" lon="1.712844132334016"><ele>667.0</ele><time>2026-04-25T10:43:45Z</time></trkpt><trkpt lat="41.988877139801566" lon="1.7127074536813913"><ele>667.0</ele><time>2026-04-25T10:43:46Z</time></trkpt><trkpt lat="41.98906758337" lon="1.7125697135768463"><ele>667.0</ele><time>2026-04-25T10:43:47Z</time></trkpt><trkpt lat="41.98926534755853" lon="1.7124346806633821"><ele>667.0</ele><time>2026-04-25T10:43:48Z</time></trkpt><trkpt lat="41.989473734134876" lon="1.7122882407573083"><ele>667.0</ele><time>2026-04-25T10:43:49Z</time></trkpt><trkpt lat="41.989701971503884" lon="1.7121245739246933"><ele>667.0</ele><time>2026-04-25T10:43:50Z</time></trkpt><trkpt lat="41.98994358271413" lon="1.7119493336716904"><ele>667.0</ele><time>2026-04-25T10:43:51Z</time></trkpt><trkpt lat="41.99017477068955" lon="1.7117844199159633"><ele>667.0</ele><time>2026-04-25T10:43:52Z</time></trkpt><trkpt lat="41.99037881874068" lon="1.7116387638966377"><ele>667.0</ele><time>2026-04-25T10:43:53Z</time></trkpt><trkpt lat="41.99057717602711" lon="1.7114935214816087"><ele>667.0</ele><time>2026-04-25T10:43:54Z</time></trkpt><trkpt lat="41.990776350356924" lon="1.7113478493640064"><ele>667.0</ele><time>2026-04-25T10:43:55Z</time></trkpt><trkpt lat="41.990956505649606" lon="1.7112162070260142"><ele>667.0</ele><time>2026-04-25T10:43:56Z</time></trkpt><trkpt lat="41.99112347845202" lon="1.71110115568842"><ele>666.6666666666667</ele><time>2026-04-25T10:43:57Z</time></trkpt><trkpt lat="41.991296753521496" lon="1.7109948046764245"><ele>666.3333333333334</ele><time>2026-04-25T10:43:58Z</time></trkpt><trkpt lat="41.99148804280385" lon="1.7109295522865786"><ele>666.0</ele><time>2026-04-25T10:43:59Z</time></trkpt><trkpt lat="41.991710497756806" lon="1.7109013804117046"><ele>668.0</ele><time>2026-04-25T10:44:00Z</time></trkpt><trkpt lat="41.991917541001754" lon="1.7108885888801493"><ele>670.0</ele><time>2026-04-25T10:44:01Z</time></trkpt><trkpt lat="41.9920907463695" lon="1.7108774036551997"><ele>672.0</ele><time>2026-04-25T10:44:02Z</time></trkpt><trkpt lat="41.99224439071508" lon="1.7108826760232836"><ele>672.0</ele><time>2026-04-25T10:44:03Z</time></trkpt><trkpt lat="41.9923870613967" lon="1.7109563533262335"><ele>672.0</ele><time>2026-04-25T10:44:04Z</time></trkpt><trkpt lat="41.99251279713874" lon="1.7110832167876582"><ele>672.0</ele><time>2026-04-25T10:44:05Z</time></trkpt><trkpt lat="41.99267038888586" lon="1.7112311254632588"><ele>672.3333333333334</ele><time>2026-04-25T10:44:06Z</time></trkpt><trkpt lat="41.99283083379582" lon="1.7114133805148373"><ele>672.6666666666667</ele><time>2026-04-25T10:44:07Z</time></trkpt><trkpt lat="41.99297972705135" lon="1.7115674330443633"><ele>673.0</ele><time>2026-04-25T10:44:08Z</time></trkpt><trkpt lat="41.99310375484443" lon="1.7117104287872476"><ele>673.0</ele><time>2026-04-25T10:44:09Z</time></trkpt><trkpt lat="41.993203741470275" lon="1.7118528442586027"><ele>673.0</ele><time>2026-04-25T10:44:10Z</time></trkpt><trkpt lat="41.99329789919417" lon="1.712000086667715"><ele>673.0</ele><time>2026-04-25T10:44:11Z</time></trkpt><trkpt lat="41.99341022096664" lon="1.7121162378328922"><ele>673.0</ele><time>2026-04-25T10:44:12Z</time></trkpt><trkpt lat="41.99355941065522" lon="1.7121936180913127"><ele>675.0</ele><time>2026-04-25T10:44:13Z</time></trkpt><trkpt lat="41.99372512495103" lon="1.7122591866373558"><ele>677.0</ele><time>2026-04-25T10:44:14Z</time></trkpt><trkpt lat="41.9938785516245" lon="1.7123509784412434"><ele>679.0</ele><time>2026-04-25T10:44:15Z</time></trkpt><trkpt lat="41.99399560234442" lon="1.7124709696127731"><ele>679.0</ele><time>2026-04-25T10:44:16Z</time></trkpt><trkpt lat="41.9940761167289" lon="1.7125891514908724"><ele>679.0</ele><time>2026-04-25T10:44:17Z</time></trkpt><trkpt lat="41.994108350824035" lon="1.712738571918718"><ele>679.0</ele><time>2026-04-25T10:44:18Z</time></trkpt><trkpt lat="41.99404651068964" lon="1.7129014535065128"><ele>679.0</ele><time>2026-04-25T10:44:19Z</time></trkpt><trkpt lat="41.99401313589097" lon="1.7130769855068675"><ele>677.5</ele><time>2026-04-25T10:44:20Z</time></trkpt><trkpt lat="41.993996590942466" lon="1.71323239531483"><ele>676.0</ele><time>2026-04-25T10:44:21Z</time></trkpt><trkpt lat="41.994056099053154" lon="1.7133470266256776"><ele>674.5</ele><time>2026-04-25T10:44:22Z</time></trkpt><trkpt lat="41.9941604043108" lon="1.7134077558489453"><ele>673.0</ele><time>2026-04-25T10:44:23Z</time></trkpt><trkpt lat="41.99429176330548" lon="1.7134121886470624"><ele>679.0</ele><time>2026-04-25T10:44:24Z</time></trkpt><trkpt lat="41.994451272076304" lon="1.713422647271579"><ele>685.0</ele><time>2026-04-25T10:44:25Z</time></trkpt><trkpt lat="41.994617968629164" lon="1.7134626280134684"><ele>691.0</ele><time>2026-04-25T10:44:26Z</time></trkpt><trkpt lat="41.99477965901138" lon="1.7135539890809621"><ele>691.0</ele><time>2026-04-25T10:44:27Z</time></trkpt><trkpt lat="41.99493769482738" lon="1.7136666742095108"><ele>691.0</ele><time>2026-04-25T10:44:28Z</time></trkpt><trkpt lat="41.99505115339435" lon="1.7137841193598604"><ele>691.0</ele><time>2026-04-25T10:44:29Z</time></trkpt><trkpt lat="41.99513126436867" lon="1.7139083577474048"><ele>691.0</ele><time>2026-04-25T10:44:30Z</time></trkpt><trkpt lat="41.995165760898075" lon="1.7140597959727624"><ele>691.0</ele><time>2026-04-25T10:44:31Z</time></trkpt><trkpt lat="41.995160234066525" lon="1.7142356214803518"><ele>691.0</ele><time>2026-04-25T10:44:32Z</time></trkpt><trkpt lat="41.99517957019686" lon="1.7143869663332552"><ele>691.0</ele><time>2026-04-25T10:44:33Z</time></trkpt><trkpt lat="41.99526172521469" lon="1.7144845773290152"><ele>691.0</ele><time>2026-04-25T10:44:34Z</time></trkpt><trkpt lat="41.995392701454584" lon="1.7145269160579801"><ele>686.6666666666667</ele><time>2026-04-25T10:44:35Z</time></trkpt><trkpt lat="41.99554757951516" lon="1.714526947785903"><ele>682.3333333333334</ele><time>2026-04-25T10:44:36Z</time></trkpt><trkpt lat="41.995712292596494" lon="1.7144860029204383"><ele>678.0</ele><time>2026-04-25T10:44:37Z</time></trkpt><trkpt lat="41.99586924533235" lon="1.7143895081218712"><ele>678.0</ele><time>2026-04-25T10:44:38Z</time></trkpt><trkpt lat="41.9960354316045" lon="1.714260517543853"><ele>678.0</ele><time>2026-04-25T10:44:39Z</time></trkpt><trkpt lat="41.99620387073826" lon="1.7141355900552666"><ele>678.0</ele><time>2026-04-25T10:44:40Z</time></trkpt><trkpt lat="41.996373423943254" lon="1.7140230156768947"><ele>678.0</ele><time>2026-04-25T10:44:41Z</time></trkpt><trkpt lat="41.996551510965695" lon="1.7139203802407588"><ele>678.0</ele><time>2026-04-25T10:44:42Z</time></trkpt><trkpt lat="41.996722997729336" lon="1.7138314069107106"><ele>678.0</ele><time>2026-04-25T10:44:43Z</time></trkpt><trkpt lat="41.996886575316196" lon="1.7137405250990696"><ele>676.0</ele><time>2026-04-25T10:44:44Z</time></trkpt><trkpt lat="41.99704039624462" lon="1.7136236492579229"><ele>674.0</ele><time>2026-04-25T10:44:45Z</time></trkpt><trkpt lat="41.997196827115474" lon="1.7134959808967378"><ele>672.0</ele><time>2026-04-25T10:44:46Z</time></trkpt><trkpt lat="41.997361113364256" lon="1.713389406245918"><ele>681.6666666666666</ele><time>2026-04-25T10:44:47Z</time></trkpt><trkpt lat="41.99754377845448" lon="1.7133639519650665"><ele>691.3333333333333</ele><time>2026-04-25T10:44:48Z</time></trkpt><trkpt lat="41.99772972745083" lon="1.7133307750792082"><ele>701.0</ele><time>2026-04-25T10:44:49Z</time></trkpt><trkpt lat="41.99793531649286" lon="1.713301318744724"><ele>701.0</ele><time>2026-04-25T10:44:50Z</time></trkpt><trkpt lat="41.99813039398983" lon="1.7132970514064416"><ele>701.0</ele><time>2026-04-25T10:44:51Z</time></trkpt><trkpt lat="41.99830129004775" lon="1.7133043898612352"><ele>701.0</ele><time>2026-04-25T10:44:52Z</time></trkpt><trkpt lat="41.99845867431041" lon="1.7133102407788456"><ele>702.5</ele><time>2026-04-25T10:44:53Z</time></trkpt><trkpt lat="41.99861809071924" lon="1.713292491222817"><ele>704.0</ele><time>2026-04-25T10:44:54Z</time></trkpt><trkpt lat="41.99876538457242" lon="1.7132607376368012"><ele>705.5</ele><time>2026-04-25T10:44:55Z</time></trkpt><trkpt lat="41.998894277900796" lon="1.7132493576494865"><ele>707.0</ele><time>2026-04-25T10:44:56Z</time></trkpt><trkpt lat="41.999004094184585" lon="1.7133294088575757"><ele>707.0</ele><time>2026-04-25T10:44:57Z</time></trkpt><trkpt lat="41.999136513982336" lon="1.713404807075047"><ele>707.0</ele><time>2026-04-25T10:44:58Z</time></trkpt><trkpt lat="41.999266257232634" lon="1.713524337797096"><ele>707.0</ele><time>2026-04-25T10:44:59Z</time></trkpt><trkpt lat="41.999413145023304" lon="1.7135991030939342"><ele>708.25</ele><time>2026-04-25T10:45:00Z</time></trkpt><trkpt lat="41.99954879366186" lon="1.713667679726013"><ele>709.5</ele><time>2026-04-25T10:45:01Z</time></trkpt><trkpt lat="41.999646812922435" lon="1.713796901269788"><ele>710.75</ele><time>2026-04-25T10:45:02Z</time></trkpt><trkpt lat="41.99974459575505" lon="1.7139759444954268"><ele>712.0</ele><time>2026-04-25T10:45:03Z</time></trkpt><trkpt lat="41.999839226976064" lon="1.714141229452616"><ele>712.0</ele><time>2026-04-25T10:45:04Z</time></trkpt><trkpt lat="41.9999246451351" lon="1.7142668595356447"><ele>712.0</ele><time>2026-04-25T10:45:05Z</time></trkpt><trkpt lat="42.000004489204976" lon="1.7143563054508169"><ele>712.0</ele><time>2026-04-25T10:45:06Z</time></trkpt><trkpt lat="42.000088466401984" lon="1.7144011581019722"><ele>712.0</ele><time>2026-04-25T10:45:07Z</time></trkpt><trkpt lat="42.00018171033573" lon="1.7143908875440286"><ele>712.0</ele><time>2026-04-25T10:45:08Z</time></trkpt><trkpt lat="42.00027289244823" lon="1.7143147512515"><ele>712.0</ele><time>2026-04-25T10:45:09Z</time></trkpt><trkpt lat="42.00034708523607" lon="1.71418848251287"><ele>712.0</ele><time>2026-04-25T10:45:10Z</time></trkpt><trkpt lat="42.00041413839306" lon="1.7140365075291208"><ele>712.0</ele><time>2026-04-25T10:45:11Z</time></trkpt><trkpt lat="42.000492725684424" lon="1.7138877489982314"><ele>712.0</ele><time>2026-04-25T10:45:12Z</time></trkpt><trkpt lat="42.000605738835816" lon="1.713787053859656"><ele>712.0</ele><time>2026-04-25T10:45:13Z</time></trkpt><trkpt lat="42.000724098400404" lon="1.713680682594005"><ele>712.0</ele><time>2026-04-25T10:45:14Z</time></trkpt><trkpt lat="42.00084666029734" lon="1.7135843210856188"><ele>712.0</ele><time>2026-04-25T10:45:15Z</time></trkpt><trkpt lat="42.00094682118799" lon="1.713438322591642"><ele>712.0</ele><time>2026-04-25T10:45:16Z</time></trkpt><trkpt lat="42.00103707254391" lon="1.713267819912978"><ele>714.6666666666667</ele><time>2026-04-25T10:45:17Z</time></trkpt><trkpt lat="42.00114465970592" lon="1.713138779056268"><ele>717.3333333333334</ele><time>2026-04-25T10:45:18Z</time></trkpt><trkpt lat="42.001280383763046" lon="1.7130237871462957"><ele>720.0</ele><time>2026-04-25T10:45:19Z</time></trkpt><trkpt lat="42.001422926118146" lon="1.712909592558235"><ele>720.0</ele><time>2026-04-25T10:45:20Z</time></trkpt><trkpt lat="42.001570929374104" lon="1.7128140998035049"><ele>720.0</ele><time>2026-04-25T10:45:21Z</time></trkpt><trkpt lat="42.00173065482619" lon="1.7127314462397554"><ele>720.0</ele><time>2026-04-25T10:45:22Z</time></trkpt><trkpt lat="42.00189716458916" lon="1.7126473877256223"><ele>723.0</ele><time>2026-04-25T10:45:23Z</time></trkpt><trkpt lat="42.00205428270597" lon="1.7125632432780422"><ele>726.0</ele><time>2026-04-25T10:45:24Z</time></trkpt><trkpt lat="42.00220105079759" lon="1.7124801963764547"><ele>729.0</ele><time>2026-04-25T10:45:25Z</time></trkpt><trkpt lat="42.00234100444854" lon="1.712407360559203"><ele>729.0</ele><time>2026-04-25T10:45:26Z</time></trkpt><trkpt lat="42.00248672533181" lon="1.7123728383176795"><ele>729.0</ele><time>2026-04-25T10:45:27Z</time></trkpt><trkpt lat="42.00264004827289" lon="1.7123796541136527"><ele>729.0</ele><time>2026-04-25T10:45:28Z</time></trkpt><trkpt lat="42.002802425555956" lon="1.7124291315039966"><ele>728.0</ele><time>2026-04-25T10:45:29Z</time></trkpt><trkpt lat="42.002960694933165" lon="1.7124524515912685"><ele>727.0</ele><time>2026-04-25T10:45:30Z</time></trkpt><trkpt lat="42.003112420233805" lon="1.712472003191562"><ele>726.0</ele><time>2026-04-25T10:45:31Z</time></trkpt><trkpt lat="42.003257141427426" lon="1.7124947957199157"><ele>726.75</ele><time>2026-04-25T10:45:32Z</time></trkpt><trkpt lat="42.00339216987158" lon="1.7125186488942963"><ele>727.5</ele><time>2026-04-25T10:45:33Z</time></trkpt><trkpt lat="42.003520902597195" lon="1.712525410196835"><ele>728.25</ele><time>2026-04-25T10:45:34Z</time></trkpt><trkpt lat="42.00364290034066" lon="1.7125675445358814"><ele>729.0</ele><time>2026-04-25T10:45:35Z</time></trkpt><trkpt lat="42.00374131994903" lon="1.7127050078407755"><ele>723.75</ele><time>2026-04-25T10:45:36Z</time></trkpt><trkpt lat="42.00384454709426" lon="1.7128242280451198"><ele>718.5</ele><time>2026-04-25T10:45:37Z</time></trkpt><trkpt lat="42.00392994688376" lon="1.712947435642082"><ele>713.25</ele><time>2026-04-25T10:45:38Z</time></trkpt><trkpt lat="42.004023270675795" lon="1.7130511290703263"><ele>708.0</ele><time>2026-04-25T10:45:39Z</time></trkpt><trkpt lat="42.00413273068907" lon="1.7131223429478366"><ele>711.25</ele><time>2026-04-25T10:45:40Z</time></trkpt><trkpt lat="42.00424414628963" lon="1.7131769793440081"><ele>714.5</ele><time>2026-04-25T10:45:41Z</time></trkpt><trkpt lat="42.004335816041745" lon="1.7132565717603518"><ele>717.75</ele><time>2026-04-25T10:45:42Z</time></trkpt><trkpt lat="42.00441271466769" lon="1.7133687894978333"><ele>721.0</ele><time>2026-04-25T10:45:43Z</time></trkpt><trkpt lat="42.004441048379796" lon="1.7135296434964515"><ele>715.5</ele><time>2026-04-25T10:45:44Z</time></trkpt><trkpt lat="42.00447477921529" lon="1.7136923533221922"><ele>710.0</ele><time>2026-04-25T10:45:45Z</time></trkpt><trkpt lat="42.00450612497378" lon="1.7138273838389462"><ele>704.5</ele><time>2026-04-25T10:45:46Z</time></trkpt><trkpt lat="42.00457913921073" lon="1.7139284679032671"><ele>699.0</ele><time>2026-04-25T10:45:47Z</time></trkpt><trkpt lat="42.00468017203732" lon="1.714007259940355"><ele>699.0</ele><time>2026-04-25T10:45:48Z</time></trkpt><trkpt lat="42.0047921674878" lon="1.714060902659484"><ele>699.0</ele><time>2026-04-25T10:45:49Z</time></trkpt><trkpt lat="42.00490039866559" lon="1.7140928240852837"><ele>699.0</ele><time>2026-04-25T10:45:50Z</time></trkpt><trkpt lat="42.005001571315404" lon="1.7141001913910585"><ele>699.0</ele><time>2026-04-25T10:45:51Z</time></trkpt><trkpt lat="42.005094739605205" lon="1.714106318638788"><ele>699.0</ele><time>2026-04-25T10:45:52Z</time></trkpt><trkpt lat="42.005185941576634" lon="1.7141352728036408"><ele>698.4000000000001</ele><time>2026-04-25T10:45:53Z</time></trkpt><trkpt lat="42.005261077896606" lon="1.7142000486195246"><ele>697.8</ele><time>2026-04-25T10:45:54Z</time></trkpt><trkpt lat="42.005319032087144" lon="1.714289313579062"><ele>697.2</ele><time>2026-04-25T10:45:55Z</time></trkpt><trkpt lat="42.00535736963299" lon="1.7144059905108175"><ele>696.5999999999999</ele><time>2026-04-25T10:45:56Z</time></trkpt><trkpt lat="42.00539565045459" lon="1.7145332288193804"><ele>696.0</ele><time>2026-04-25T10:45:57Z</time></trkpt><trkpt lat="42.00544016104088" lon="1.7146617379225355"><ele>696.0</ele><time>2026-04-25T10:45:58Z</time></trkpt><trkpt lat="42.005486933242295" lon="1.714779572707025"><ele>696.0</ele><time>2026-04-25T10:45:59Z</time></trkpt><trkpt lat="42.00553203099367" lon="1.714887498944498"><ele>696.0</ele><time>2026-04-25T10:46:00Z</time></trkpt><trkpt lat="42.005577435022694" lon="1.7150057654107973"><ele>696.0</ele><time>2026-04-25T10:46:01Z</time></trkpt><trkpt lat="42.00562342738976" lon="1.715136125989167"><ele>696.0</ele><time>2026-04-25T10:46:02Z</time></trkpt><trkpt lat="42.00567261132602" lon="1.7152704834815462"><ele>694.0</ele><time>2026-04-25T10:46:03Z</time></trkpt><trkpt lat="42.00572962473314" lon="1.7154101437977742"><ele>692.0</ele><time>2026-04-25T10:46:04Z</time></trkpt><trkpt lat="42.00578967454155" lon="1.7155596271167604"><ele>690.0</ele><time>2026-04-25T10:46:05Z</time></trkpt><trkpt lat="42.005851943863505" lon="1.7157133130128184"><ele>688.0</ele><time>2026-04-25T10:46:06Z</time></trkpt><trkpt lat="42.00591105482467" lon="1.7158577215788737"><ele>690.5999999999999</ele><time>2026-04-25T10:46:07Z</time></trkpt><trkpt lat="42.005966875471444" lon="1.7159852108500975"><ele>693.1999999999999</ele><time>2026-04-25T10:46:08Z</time></trkpt><trkpt lat="42.006023278270966" lon="1.716106052573917"><ele>695.8</ele><time>2026-04-25T10:46:09Z</time></trkpt><trkpt lat="42.00607666424711" lon="1.7162137380570204"><ele>698.4</ele><time>2026-04-25T10:46:10Z</time></trkpt><trkpt lat="42.006143938087654" lon="1.7163085447415458"><ele>701.0</ele><time>2026-04-25T10:46:11Z</time></trkpt><trkpt lat="42.006231794366755" lon="1.7163712676287581"><ele>701.0</ele><time>2026-04-25T10:46:12Z</time></trkpt><trkpt lat="42.00634026389016" lon="1.716396290317832"><ele>701.0</ele><time>2026-04-25T10:46:13Z</time></trkpt><trkpt lat="42.0064587000565" lon="1.7164103923581446"><ele>701.0</ele><time>2026-04-25T10:46:14Z</time></trkpt><trkpt lat="42.006584205208" lon="1.7164376725977386"><ele>701.0</ele><time>2026-04-25T10:46:15Z</time></trkpt><trkpt lat="42.00671105312897" lon="1.7164725691389724"><ele>702.5999999999999</ele><time>2026-04-25T10:46:16Z</time></trkpt><trkpt lat="42.00682000190034" lon="1.71650488173785"><ele>704.2</ele><time>2026-04-25T10:46:17Z</time></trkpt><trkpt lat="42.00691996995315" lon="1.7165371441119839"><ele>705.8</ele><time>2026-04-25T10:46:18Z</time></trkpt><trkpt lat="42.007016819384916" lon="1.716558554670389"><ele>707.4000000000001</ele><time>2026-04-25T10:46:19Z</time></trkpt><trkpt lat="42.00711144923028" lon="1.7165636794703591"><ele>709.0</ele><time>2026-04-25T10:46:20Z</time></trkpt><trkpt lat="42.007204008886525" lon="1.7165378134795244"><ele>709.0</ele><time>2026-04-25T10:46:21Z</time></trkpt><trkpt lat="42.00728775223867" lon="1.7164680183210472"><ele>709.0</ele><time>2026-04-25T10:46:22Z</time></trkpt><trkpt lat="42.00737264042072" lon="1.7163819081296372"><ele>709.0</ele><time>2026-04-25T10:46:23Z</time></trkpt><trkpt lat="42.00746657488571" lon="1.7162918794578883"><ele>709.0</ele><time>2026-04-25T10:46:24Z</time></trkpt><trkpt lat="42.0075655988527" lon="1.7162001196500458"><ele>709.0</ele><time>2026-04-25T10:46:25Z</time></trkpt><trkpt lat="42.007669381148084" lon="1.7161071212649144"><ele>715.0</ele><time>2026-04-25T10:46:26Z</time></trkpt><trkpt lat="42.00777696037952" lon="1.7160128626204176"><ele>721.0</ele><time>2026-04-25T10:46:27Z</time></trkpt><trkpt lat="42.007880406774206" lon="1.715932000972505"><ele>727.0</ele><time>2026-04-25T10:46:28Z</time></trkpt><trkpt lat="42.00797951131141" lon="1.7158638156013761"><ele>733.0</ele><time>2026-04-25T10:46:29Z</time></trkpt><trkpt lat="42.00808902138536" lon="1.7158143398372376"><ele>733.0</ele><time>2026-04-25T10:46:30Z</time></trkpt><trkpt lat="42.00820157477672" lon="1.7157649876363414"><ele>733.0</ele><time>2026-04-25T10:46:31Z</time></trkpt><trkpt lat="42.0083046698388" lon="1.7157251294204459"><ele>733.0</ele><time>2026-04-25T10:46:32Z</time></trkpt><trkpt lat="42.0084040601162" lon="1.7157073148477766"><ele>733.0</ele><time>2026-04-25T10:46:33Z</time></trkpt><trkpt lat="42.008499273554754" lon="1.7157364900006045"><ele>733.0</ele><time>2026-04-25T10:46:34Z</time></trkpt><trkpt lat="42.00859914155595" lon="1.71580431186641"><ele>727.5</ele><time>2026-04-25T10:46:35Z</time></trkpt><trkpt lat="42.00869191986652" lon="1.7158938761378228"><ele>722.0</ele><time>2026-04-25T10:46:36Z</time></trkpt><trkpt lat="42.00878240455356" lon="1.7159988828943744"><ele>716.5</ele><time>2026-04-25T10:46:37Z</time></trkpt><trkpt lat="42.00887513931432" lon="1.7161071637490668"><ele>711.0</ele><time>2026-04-25T10:46:38Z</time></trkpt><trkpt lat="42.008972193910246" lon="1.7162189064399525"><ele>708.5</ele><time>2026-04-25T10:46:39Z</time></trkpt><trkpt lat="42.00907181996231" lon="1.716332995449174"><ele>706.0</ele><time>2026-04-25T10:46:40Z</time></trkpt><trkpt lat="42.009173554716796" lon="1.7164508497315836"><ele>703.5</ele><time>2026-04-25T10:46:41Z</time></trkpt><trkpt lat="42.00927706047795" lon="1.7165691283458808"><ele>701.0</ele><time>2026-04-25T10:46:42Z</time></trkpt><trkpt lat="42.0093825713404" lon="1.7166889012473845"><ele>701.0</ele><time>2026-04-25T10:46:43Z</time></trkpt><trkpt lat="42.00948830797662" lon="1.7168073576754626"><ele>701.0</ele><time>2026-04-25T10:46:44Z</time></trkpt><trkpt lat="42.00958271031675" lon="1.7169091871850204"><ele>701.0</ele><time>2026-04-25T10:46:45Z</time></trkpt><trkpt lat="42.00968223798394" lon="1.717007382105748"><ele>701.0</ele><time>2026-04-25T10:46:46Z</time></trkpt><trkpt lat="42.00979485706215" lon="1.7170874660317355"><ele>701.5</ele><time>2026-04-25T10:46:47Z</time></trkpt><trkpt lat="42.00991437627884" lon="1.7171390019327568"><ele>702.0</ele><time>2026-04-25T10:46:48Z</time></trkpt><trkpt lat="42.01004759136482" lon="1.7171655637979348"><ele>702.5</ele><time>2026-04-25T10:46:49Z</time></trkpt><trkpt lat="42.010177504808354" lon="1.717199283951698"><ele>703.0</ele><time>2026-04-25T10:46:50Z</time></trkpt><trkpt lat="42.01030334775999" lon="1.7172418081133873"><ele>703.0</ele><time>2026-04-25T10:46:51Z</time></trkpt><trkpt lat="42.010425362743334" lon="1.7172909732547685"><ele>703.0</ele><time>2026-04-25T10:46:52Z</time></trkpt><trkpt lat="42.01055016573109" lon="1.717340073144884"><ele>703.0</ele><time>2026-04-25T10:46:53Z</time></trkpt><trkpt lat="42.010683509042444" lon="1.717379844463666"><ele>703.0</ele><time>2026-04-25T10:46:54Z</time></trkpt><trkpt lat="42.01082493613028" lon="1.7174088868026418"><ele>704.5</ele><time>2026-04-25T10:46:55Z</time></trkpt><trkpt lat="42.010968019226915" lon="1.717428430751231"><ele>706.0</ele><time>2026-04-25T10:46:56Z</time></trkpt><trkpt lat="42.011117169535275" lon="1.7174505043723804"><ele>707.5</ele><time>2026-04-25T10:46:57Z</time></trkpt><trkpt lat="42.01126970989978" lon="1.7174717070259025"><ele>709.0</ele><time>2026-04-25T10:46:58Z</time></trkpt><trkpt lat="42.01141428341409" lon="1.71749197642201"><ele>709.0</ele><time>2026-04-25T10:46:59Z</time></trkpt><trkpt lat="42.011546740051344" lon="1.7175139191162365"><ele>709.0</ele><time>2026-04-25T10:47:00Z</time></trkpt><trkpt lat="42.011679919266385" lon="1.7175381577123374"><ele>709.0</ele><time>2026-04-25T10:47:01Z</time></trkpt><trkpt lat="42.011815920099984" lon="1.7175710635095962"><ele>709.0</ele><time>2026-04-25T10:47:02Z</time></trkpt><trkpt lat="42.011950907261586" lon="1.7176290409110528"><ele>709.0</ele><time>2026-04-25T10:47:03Z</time></trkpt><trkpt lat="42.0120865216466" lon="1.7177066562254015"><ele>709.0</ele><time>2026-04-25T10:47:04Z</time></trkpt><trkpt lat="42.01222682046638" lon="1.7177837740656003"><ele>709.0</ele><time>2026-04-25T10:47:05Z</time></trkpt><trkpt lat="42.01239900411606" lon="1.7178599437554112"><ele>706.5</ele><time>2026-04-25T10:47:06Z</time></trkpt><trkpt lat="42.01259915888613" lon="1.717975191738031"><ele>704.0</ele><time>2026-04-25T10:47:07Z</time></trkpt><trkpt lat="42.0128239409525" lon="1.7180867661810917"><ele>704.0</ele><time>2026-04-25T10:47:08Z</time></trkpt><trkpt lat="42.01305469833314" lon="1.7181885564952437"><ele>704.0</ele><time>2026-04-25T10:47:09Z</time></trkpt><trkpt lat="42.013274821423366" lon="1.7183046562328435"><ele>705.5</ele><time>2026-04-25T10:47:10Z</time></trkpt><trkpt lat="42.013489083510954" lon="1.7184112437275345"><ele>707.0</ele><time>2026-04-25T10:47:11Z</time></trkpt><trkpt lat="42.013699384891154" lon="1.7185180683967083"><ele>706.3333333333333</ele><time>2026-04-25T10:47:12Z</time></trkpt><trkpt lat="42.013908517973064" lon="1.718625522674168"><ele>705.6666666666666</ele><time>2026-04-25T10:47:13Z</time></trkpt><trkpt lat="42.01411899034942" lon="1.718731293303836"><ele>705.0</ele><time>2026-04-25T10:47:14Z</time></trkpt><trkpt lat="42.01432443641829" lon="1.718831737777982"><ele>706.6666666666666</ele><time>2026-04-25T10:47:15Z</time></trkpt><trkpt lat="42.01452076994646" lon="1.7189291400556392"><ele>708.3333333333333</ele><time>2026-04-25T10:47:16Z</time></trkpt><trkpt lat="42.014710017274396" lon="1.7190210778784487"><ele>710.0</ele><time>2026-04-25T10:47:17Z</time></trkpt><trkpt lat="42.014892647163634" lon="1.719113418199379"><ele>710.3333333333333</ele><time>2026-04-25T10:47:18Z</time></trkpt><trkpt lat="42.01507795302997" lon="1.7192083101777105"><ele>710.6666666666666</ele><time>2026-04-25T10:47:19Z</time></trkpt><trkpt lat="42.01526054925946" lon="1.7193234105209723"><ele>711.0</ele><time>2026-04-25T10:47:20Z</time></trkpt><trkpt lat="42.01542424081814" lon="1.7194626517627691"><ele>711.0</ele><time>2026-04-25T10:47:21Z</time></trkpt><trkpt lat="42.01557511234449" lon="1.7196389189066714"><ele>711.0</ele><time>2026-04-25T10:47:22Z</time></trkpt><trkpt lat="42.01572621522657" lon="1.7198311653493563"><ele>711.0</ele><time>2026-04-25T10:47:23Z</time></trkpt><trkpt lat="42.01587272285656" lon="1.720011650869124"><ele>711.3333333333334</ele><time>2026-04-25T10:47:24Z</time></trkpt><trkpt lat="42.01600067557886" lon="1.7201550108808363"><ele>711.6666666666667</ele><time>2026-04-25T10:47:25Z</time></trkpt><trkpt lat="42.016162380154285" lon="1.720301784702947"><ele>712.0</ele><time>2026-04-25T10:47:26Z</time></trkpt><trkpt lat="42.01635524296242" lon="1.720467796011556"><ele>712.0</ele><time>2026-04-25T10:47:27Z</time></trkpt><trkpt lat="42.01652379604977" lon="1.720621383225642"><ele>712.0</ele><time>2026-04-25T10:47:28Z</time></trkpt><trkpt lat="42.0166928498973" lon="1.7208128812639498"><ele>712.0</ele><time>2026-04-25T10:47:29Z</time></trkpt><trkpt lat="42.01686588495512" lon="1.7210150390910044"><ele>711.5</ele><time>2026-04-25T10:47:30Z</time></trkpt><trkpt lat="42.01704894267097" lon="1.7212069505796266"><ele>711.0</ele><time>2026-04-25T10:47:31Z</time></trkpt><trkpt lat="42.01723665013446" lon="1.7213952737286338"><ele>711.0</ele><time>2026-04-25T10:47:32Z</time></trkpt><trkpt lat="42.017420002593376" lon="1.7215765079991039"><ele>711.0</ele><time>2026-04-25T10:47:33Z</time></trkpt><trkpt lat="42.01759015171866" lon="1.7217357819252885"><ele>711.0</ele><time>2026-04-25T10:47:34Z</time></trkpt><trkpt lat="42.01775781518219" lon="1.7218736143562525"><ele>712.0</ele><time>2026-04-25T10:47:35Z</time></trkpt><trkpt lat="42.01792096095351" lon="1.7219971046882494"><ele>713.0</ele><time>2026-04-25T10:47:36Z</time></trkpt><trkpt lat="42.018073224867635" lon="1.7221027150798944"><ele>714.0</ele><time>2026-04-25T10:47:37Z</time></trkpt><trkpt lat="42.018207290161165" lon="1.722190500845042"><ele>714.0</ele><time>2026-04-25T10:47:38Z</time></trkpt><trkpt lat="42.01831741046013" lon="1.7222663495213837"><ele>714.0</ele><time>2026-04-25T10:47:39Z</time></trkpt><trkpt lat="42.01840820500005" lon="1.7223465457561988"><ele>714.0</ele><time>2026-04-25T10:47:40Z</time></trkpt><trkpt lat="42.01847545465458" lon="1.7224512920311916"><ele>714.0</ele><time>2026-04-25T10:47:41Z</time></trkpt><trkpt lat="42.01853435348327" lon="1.7225703026981234"><ele>714.0</ele><time>2026-04-25T10:47:42Z</time></trkpt><trkpt lat="42.01861346626182" lon="1.722648932503053"><ele>714.5</ele><time>2026-04-25T10:47:43Z</time></trkpt><trkpt lat="42.01872218467015" lon="1.7226621792861065"><ele>715.0</ele><time>2026-04-25T10:47:44Z</time></trkpt><trkpt lat="42.018837462735874" lon="1.7225863035026334"><ele>715.5</ele><time>2026-04-25T10:47:45Z</time></trkpt><trkpt lat="42.01898355591739" lon="1.722636642058067"><ele>716.0</ele><time>2026-04-25T10:47:46Z</time></trkpt><trkpt lat="42.019135743905956" lon="1.7227231086948185"><ele>716.5</ele><time>2026-04-25T10:47:47Z</time></trkpt><trkpt lat="42.019285547959356" lon="1.7227657195417507"><ele>717.0</ele><time>2026-04-25T10:47:48Z</time></trkpt><trkpt lat="42.01941163673229" lon="1.7228061513536037"><ele>717.5</ele><time>2026-04-25T10:47:49Z</time></trkpt><trkpt lat="42.019551841278194" lon="1.7228306929107147"><ele>718.0</ele><time>2026-04-25T10:47:50Z</time></trkpt><trkpt lat="42.019702812250415" lon="1.722859444903033"><ele>718.0</ele><time>2026-04-25T10:47:51Z</time></trkpt><trkpt lat="42.019861716869194" lon="1.7228950122155293"><ele>718.0</ele><time>2026-04-25T10:47:52Z</time></trkpt><trkpt lat="42.02003121637438" lon="1.7229257530944706"><ele>718.0</ele><time>2026-04-25T10:47:53Z</time></trkpt><trkpt lat="42.0202029492498" lon="1.7229532229273683"><ele>720.0</ele><time>2026-04-25T10:47:54Z</time></trkpt><trkpt lat="42.02038351414358" lon="1.7229846795056474"><ele>722.0</ele><time>2026-04-25T10:47:55Z</time></trkpt><trkpt lat="42.02056598041457" lon="1.7230156510120993"><ele>724.0</ele><time>2026-04-25T10:47:56Z</time></trkpt><trkpt lat="42.020754982994205" lon="1.7230497428732985"><ele>725.3333333333334</ele><time>2026-04-25T10:47:57Z</time></trkpt><trkpt lat="42.02094950299067" lon="1.7230845916423239"><ele>726.6666666666666</ele><time>2026-04-25T10:47:58Z</time></trkpt><trkpt lat="42.0211489717345" lon="1.7231217965248862"><ele>728.0</ele><time>2026-04-25T10:47:59Z</time></trkpt><trkpt lat="42.02135285153882" lon="1.7231590867226054"><ele>728.0</ele><time>2026-04-25T10:48:00Z</time></trkpt><trkpt lat="42.02155544568213" lon="1.7231962985532303"><ele>728.0</ele><time>2026-04-25T10:48:01Z</time></trkpt><trkpt lat="42.0217572467146" lon="1.7232309520096993"><ele>728.0</ele><time>2026-04-25T10:48:02Z</time></trkpt><trkpt lat="42.021959353433765" lon="1.7232936088883084"><ele>729.0</ele><time>2026-04-25T10:48:03Z</time></trkpt><trkpt lat="42.02216130103296" lon="1.723345776577108"><ele>730.0</ele><time>2026-04-25T10:48:04Z</time></trkpt><trkpt lat="42.022352773470665" lon="1.723392127881852"><ele>731.0</ele><time>2026-04-25T10:48:05Z</time></trkpt><trkpt lat="42.022517689916455" lon="1.7234341309950274"><ele>731.75</ele><time>2026-04-25T10:48:06Z</time></trkpt><trkpt lat="42.02267134482138" lon="1.723491050100638"><ele>732.5</ele><time>2026-04-25T10:48:07Z</time></trkpt><trkpt lat="42.0228031226784" lon="1.7235559648522445"><ele>733.25</ele><time>2026-04-25T10:48:08Z</time></trkpt><trkpt lat="42.02292389503347" lon="1.7236207069513991"><ele>734.0</ele><time>2026-04-25T10:48:09Z</time></trkpt><trkpt lat="42.023018465853454" lon="1.7236723579079096"><ele>734.3333333333333</ele><time>2026-04-25T10:48:10Z</time></trkpt><trkpt lat="42.023096850159284" lon="1.7237177895010924"><ele>734.6666666666666</ele><time>2026-04-25T10:48:11Z</time></trkpt><trkpt lat="42.02314401613075" lon="1.7238169164714479"><ele>735.0</ele><time>2026-04-25T10:48:12Z</time></trkpt><trkpt lat="42.02321055507576" lon="1.723837557998388"><ele>735.3333333333334</ele><time>2026-04-25T10:48:13Z</time></trkpt><trkpt lat="42.023282976173775" lon="1.7238771127252566"><ele>735.6666666666667</ele><time>2026-04-25T10:48:14Z</time></trkpt><trkpt lat="42.02335114609107" lon="1.7239143458661836"><ele>736.0</ele><time>2026-04-25T10:48:15Z</time></trkpt><trkpt lat="42.02340718448763" lon="1.7239649381220215"><ele>736.0</ele><time>2026-04-25T10:48:16Z</time></trkpt><trkpt lat="42.02345733770512" lon="1.7239093139930344"><ele>736.0</ele><time>2026-04-25T10:48:17Z</time></trkpt><trkpt lat="42.02357135738697" lon="1.7238367459263886"><ele>736.0</ele><time>2026-04-25T10:48:18Z</time></trkpt><trkpt lat="42.0235971020519" lon="1.7237482561934785"><ele>736.0</ele><time>2026-04-25T10:48:19Z</time></trkpt><trkpt lat="42.02332846097754" lon="1.7235490411988152"><ele>736.0</ele><time>2026-04-25T10:48:21Z</time></trkpt><trkpt lat="42.02323273076112" lon="1.7235473033147561"><ele>736.0</ele><time>2026-04-25T10:48:22Z</time></trkpt><trkpt lat="42.02312696897629" lon="1.723574588907342"><ele>736.0</ele><time>2026-04-25T10:48:23Z</time></trkpt><trkpt lat="42.02300625450429" lon="1.7235809976637815"><ele>736.0</ele><time>2026-04-25T10:48:24Z</time></trkpt><trkpt lat="42.02287392072739" lon="1.7235313061271362"><ele>735.3333333333334</ele><time>2026-04-25T10:48:25Z</time></trkpt><trkpt lat="42.02272220573212" lon="1.7234611522068009"><ele>734.6666666666666</ele><time>2026-04-25T10:48:26Z</time></trkpt><trkpt lat="42.02253883144269" lon="1.7233983337710155"><ele>734.0</ele><time>2026-04-25T10:48:27Z</time></trkpt><trkpt lat="42.022318538301455" lon="1.7233486782806628"><ele>732.5</ele><time>2026-04-25T10:48:28Z</time></trkpt><trkpt lat="42.021957377556134" lon="1.7232432823719084"><ele>731.0</ele><time>2026-04-25T10:48:29Z</time></trkpt><trkpt lat="42.02162263234895" lon="1.723182075697054"><ele>729.5</ele><time>2026-04-25T10:48:30Z</time></trkpt><trkpt lat="42.021264073875116" lon="1.7231214933843466"><ele>728.0</ele><time>2026-04-25T10:48:31Z</time></trkpt><trkpt lat="42.02094064023491" lon="1.723061888181415"><ele>726.0</ele><time>2026-04-25T10:48:32Z</time></trkpt><trkpt lat="42.0206522543251" lon="1.7230069451634407"><ele>724.0</ele><time>2026-04-25T10:48:33Z</time></trkpt><trkpt lat="42.020393720378614" lon="1.7229581640777152"><ele>724.0</ele><time>2026-04-25T10:48:34Z</time></trkpt><trkpt lat="42.020154139417635" lon="1.7229137234396956"><ele>724.0</ele><time>2026-04-25T10:48:35Z</time></trkpt><trkpt lat="42.01992251320312" lon="1.7228711509184684"><ele>722.0</ele><time>2026-04-25T10:48:36Z</time></trkpt><trkpt lat="42.01970865057398" lon="1.722830460796796"><ele>720.0</ele><time>2026-04-25T10:48:37Z</time></trkpt><trkpt lat="42.019512284343136" lon="1.7227906312486823"><ele>718.0</ele><time>2026-04-25T10:48:38Z</time></trkpt><trkpt lat="42.01933502024951" lon="1.7227531225236452"><ele>717.75</ele><time>2026-04-25T10:48:39Z</time></trkpt><trkpt lat="42.019183969933934" lon="1.72270974101963"><ele>717.5</ele><time>2026-04-25T10:48:40Z</time></trkpt><trkpt lat="42.01905354047588" lon="1.722653279616644"><ele>717.25</ele><time>2026-04-25T10:48:41Z</time></trkpt><trkpt lat="42.01894339536199" lon="1.7225868271373777"><ele>717.0</ele><time>2026-04-25T10:48:42Z</time></trkpt><trkpt lat="42.0188608299987" lon="1.722511103259555"><ele>716.8333333333334</ele><time>2026-04-25T10:48:43Z</time></trkpt><trkpt lat="42.01879880346523" lon="1.7224631776352448"><ele>716.6666666666666</ele><time>2026-04-25T10:48:44Z</time></trkpt><trkpt lat="42.01878243780578" lon="1.7223049341762067"><ele>716.5</ele><time>2026-04-25T10:48:45Z</time></trkpt><trkpt lat="42.01873490981763" lon="1.7222087893399498"><ele>716.3333333333333</ele><time>2026-04-25T10:48:46Z</time></trkpt><trkpt lat="42.01866264303622" lon="1.7221629952175148"><ele>716.1666666666666</ele><time>2026-04-25T10:48:47Z</time></trkpt><trkpt lat="42.018581839385135" lon="1.7221738111358955"><ele>716.0</ele><time>2026-04-25T10:48:48Z</time></trkpt><trkpt lat="42.01850860046082" lon="1.7222367509898442"><ele>716.0</ele><time>2026-04-25T10:48:49Z</time></trkpt><trkpt lat="42.018462972788555" lon="1.7223360894906938"><ele>716.0</ele><time>2026-04-25T10:48:50Z</time></trkpt><trkpt lat="42.018454915523094" lon="1.7224487368073949"><ele>716.0</ele><time>2026-04-25T10:48:51Z</time></trkpt><trkpt lat="42.01847130453976" lon="1.7225637345659048"><ele>716.0</ele><time>2026-04-25T10:48:52Z</time></trkpt><trkpt lat="42.0185096058524" lon="1.7226658864623128"><ele>716.0</ele><time>2026-04-25T10:48:53Z</time></trkpt><trkpt lat="42.01855645373737" lon="1.7227428417199862"><ele>716.0</ele><time>2026-04-25T10:48:54Z</time></trkpt><trkpt lat="42.01844516882637" lon="1.7228966114365492"><ele>716.1666666666666</ele><time>2026-04-25T10:48:55Z</time></trkpt><trkpt lat="42.018418839672485" lon="1.722987977253166"><ele>716.3333333333333</ele><time>2026-04-25T10:48:56Z</time></trkpt><trkpt lat="42.01840422986206" lon="1.723111303152357"><ele>716.5</ele><time>2026-04-25T10:48:58Z</time></trkpt><trkpt lat="42.01840491448325" lon="1.7232066264462789"><ele>716.6666666666666</ele><time>2026-04-25T10:49:01Z</time></trkpt><trkpt lat="42.01842839539655" lon="1.7233398863609122"><ele>716.8333333333334</ele><time>2026-04-25T10:49:03Z</time></trkpt><trkpt lat="42.01846069532601" lon="1.723419913422842"><ele>717.0</ele><time>2026-04-25T10:49:04Z</time></trkpt><trkpt lat="42.01853494915412" lon="1.7235611353977298"><ele>718.1666666666666</ele><time>2026-04-25T10:49:06Z</time></trkpt><trkpt lat="42.01857316508503" lon="1.7236424785641722"><ele>719.3333333333334</ele><time>2026-04-25T10:49:07Z</time></trkpt><trkpt lat="42.01861316171996" lon="1.7237379682865088"><ele>720.5</ele><time>2026-04-25T10:49:08Z</time></trkpt><trkpt lat="42.018655373305045" lon="1.7238367006760205"><ele>721.6666666666667</ele><time>2026-04-25T10:49:09Z</time></trkpt><trkpt lat="42.01870238870402" lon="1.7239486734663927"><ele>722.8333333333334</ele><time>2026-04-25T10:49:10Z</time></trkpt><trkpt lat="42.018748172774686" lon="1.7240779358035232"><ele>724.0</ele><time>2026-04-25T10:49:11Z</time></trkpt><trkpt lat="42.01878984980642" lon="1.7242258171701363"><ele>724.0</ele><time>2026-04-25T10:49:12Z</time></trkpt><trkpt lat="42.0188278775498" lon="1.7243896081802057"><ele>724.0</ele><time>2026-04-25T10:49:13Z</time></trkpt><trkpt lat="42.01886486601887" lon="1.7245650165787747"><ele>724.0</ele><time>2026-04-25T10:49:14Z</time></trkpt><trkpt lat="42.01890614059945" lon="1.7247440558425724"><ele>724.0</ele><time>2026-04-25T10:49:15Z</time></trkpt><trkpt lat="42.01893434500439" lon="1.72493596947199"><ele>725.3333333333334</ele><time>2026-04-25T10:49:16Z</time></trkpt><trkpt lat="42.01897700637717" lon="1.725132321406391"><ele>726.6666666666666</ele><time>2026-04-25T10:49:17Z</time></trkpt><trkpt lat="42.01904424077553" lon="1.725361620226082"><ele>728.0</ele><time>2026-04-25T10:49:18Z</time></trkpt><trkpt lat="42.019094938028225" lon="1.725616720324009"><ele>728.0</ele><time>2026-04-25T10:49:19Z</time></trkpt><trkpt lat="42.01913992950926" lon="1.7258602151447624"><ele>728.0</ele><time>2026-04-25T10:49:20Z</time></trkpt><trkpt lat="42.019177640236926" lon="1.7260830876642832"><ele>728.0</ele><time>2026-04-25T10:49:21Z</time></trkpt><trkpt lat="42.01923308319786" lon="1.7263424064792532"><ele>728.0</ele><time>2026-04-25T10:49:22Z</time></trkpt><trkpt lat="42.019269090981915" lon="1.726546557186073"><ele>728.0</ele><time>2026-04-25T10:49:23Z</time></trkpt><trkpt lat="42.01930657290257" lon="1.7267586018235264"><ele>728.0</ele><time>2026-04-25T10:49:24Z</time></trkpt><trkpt lat="42.01934867119752" lon="1.7269733616567113"><ele>729.0</ele><time>2026-04-25T10:49:25Z</time></trkpt><trkpt lat="42.01941143590169" lon="1.727197190099656"><ele>730.0</ele><time>2026-04-25T10:49:26Z</time></trkpt><trkpt lat="42.01950680501443" lon="1.7274356511970366"><ele>731.0</ele><time>2026-04-25T10:49:27Z</time></trkpt><trkpt lat="42.01963393462585" lon="1.7276801815003333"><ele>732.5</ele><time>2026-04-25T10:49:28Z</time></trkpt><trkpt lat="42.01977159358162" lon="1.7279386711307403"><ele>734.0</ele><time>2026-04-25T10:49:29Z</time></trkpt><trkpt lat="42.019903560215134" lon="1.7281935444688767"><ele>734.3333333333333</ele><time>2026-04-25T10:49:30Z</time></trkpt><trkpt lat="42.02000942176424" lon="1.7284117083415247"><ele>734.6666666666666</ele><time>2026-04-25T10:49:31Z</time></trkpt><trkpt lat="42.02010994018759" lon="1.7286027548905043"><ele>735.0</ele><time>2026-04-25T10:49:32Z</time></trkpt><trkpt lat="42.02016910336988" lon="1.7287792317940007"><ele>736.25</ele><time>2026-04-25T10:49:33Z</time></trkpt><trkpt lat="42.020195898496134" lon="1.728925231949854"><ele>737.5</ele><time>2026-04-25T10:49:34Z</time></trkpt><trkpt lat="42.02018717750365" lon="1.7290813950334507"><ele>738.75</ele><time>2026-04-25T10:49:35Z</time></trkpt><trkpt lat="42.02014255264571" lon="1.7292406371140359"><ele>740.0</ele><time>2026-04-25T10:49:36Z</time></trkpt><trkpt lat="42.02007018804854" lon="1.7294151166526253"><ele>740.3333333333333</ele><time>2026-04-25T10:49:37Z</time></trkpt><trkpt lat="42.01997805581808" lon="1.7296194287878164"><ele>740.6666666666666</ele><time>2026-04-25T10:49:38Z</time></trkpt><trkpt lat="42.01987137172652" lon="1.7298587088132025"><ele>741.0</ele><time>2026-04-25T10:49:39Z</time></trkpt><trkpt lat="42.01975756576116" lon="1.7301196070364677"><ele>741.5</ele><time>2026-04-25T10:49:40Z</time></trkpt><trkpt lat="42.019636204964705" lon="1.7303978243552105"><ele>742.0</ele><time>2026-04-25T10:49:41Z</time></trkpt><trkpt lat="42.01950130303176" lon="1.7306779947551116"><ele>742.0</ele><time>2026-04-25T10:49:42Z</time></trkpt><trkpt lat="42.01934208980642" lon="1.7309580219276561"><ele>742.0</ele><time>2026-04-25T10:49:43Z</time></trkpt><trkpt lat="42.01917268798518" lon="1.731245061035357"><ele>743.0</ele><time>2026-04-25T10:49:44Z</time></trkpt><trkpt lat="42.01902967972268" lon="1.7314873052975244"><ele>744.0</ele><time>2026-04-25T10:49:45Z</time></trkpt><trkpt lat="42.01891013661611" lon="1.731718421832766"><ele>745.0</ele><time>2026-04-25T10:49:46Z</time></trkpt><trkpt lat="42.01877859020833" lon="1.7319343469393484"><ele>745.6666666666667</ele><time>2026-04-25T10:49:47Z</time></trkpt><trkpt lat="42.018646020272996" lon="1.7321551001436408"><ele>746.3333333333334</ele><time>2026-04-25T10:49:48Z</time></trkpt><trkpt lat="42.01852131584351" lon="1.7323649361934577"><ele>747.0</ele><time>2026-04-25T10:49:49Z</time></trkpt><trkpt lat="42.0184105276707" lon="1.732553044352285"><ele>747.6666666666666</ele><time>2026-04-25T10:49:50Z</time></trkpt><trkpt lat="42.018308215402854" lon="1.7327325694471447"><ele>748.3333333333333</ele><time>2026-04-25T10:49:51Z</time></trkpt><trkpt lat="42.01821431090293" lon="1.7329158152984092"><ele>749.0</ele><time>2026-04-25T10:49:52Z</time></trkpt><trkpt lat="42.018135529842596" lon="1.7331140468040294"><ele>749.0</ele><time>2026-04-25T10:49:53Z</time></trkpt><trkpt lat="42.01807310249644" lon="1.7333301970702952"><ele>749.0</ele><time>2026-04-25T10:49:54Z</time></trkpt><trkpt lat="42.018021119948955" lon="1.73354259570452"><ele>749.0</ele><time>2026-04-25T10:49:55Z</time></trkpt><trkpt lat="42.01797564325453" lon="1.7337322032382423"><ele>749.5</ele><time>2026-04-25T10:49:56Z</time></trkpt><trkpt lat="42.01792964128445" lon="1.7339061329246135"><ele>750.0</ele><time>2026-04-25T10:49:57Z</time></trkpt><trkpt lat="42.01788785811725" lon="1.734066975036777"><ele>750.5</ele><time>2026-04-25T10:49:58Z</time></trkpt><trkpt lat="42.01784659785956" lon="1.7342273862590811"><ele>751.0</ele><time>2026-04-25T10:49:59Z</time></trkpt><trkpt lat="42.017807529696626" lon="1.734374959954241"><ele>751.1666666666667</ele><time>2026-04-25T10:50:00Z</time></trkpt><trkpt lat="42.01777177502378" lon="1.7345067637445615"><ele>751.3333333333334</ele><time>2026-04-25T10:50:01Z</time></trkpt><trkpt lat="42.017741993992395" lon="1.7346243693311012"><ele>751.5</ele><time>2026-04-25T10:50:02Z</time></trkpt><trkpt lat="42.01771843018296" lon="1.7347222558065638"><ele>751.6666666666666</ele><time>2026-04-25T10:50:03Z</time></trkpt><trkpt lat="42.01769448153189" lon="1.7348090608482152"><ele>751.8333333333333</ele><time>2026-04-25T10:50:04Z</time></trkpt><trkpt lat="42.01766952020546" lon="1.734906274534281"><ele>752.0</ele><time>2026-04-25T10:50:05Z</time></trkpt><trkpt lat="42.017646397694236" lon="1.7349995454590634"><ele>752.0</ele><time>2026-04-25T10:50:06Z</time></trkpt><trkpt lat="42.01762199598143" lon="1.7351408874714167"><ele>752.0</ele><time>2026-04-25T10:50:08Z</time></trkpt><trkpt lat="42.01757753448022" lon="1.7352708517984794"><ele>752.0</ele><time>2026-04-25T10:50:10Z</time></trkpt><trkpt lat="42.01763247906874" lon="1.7353477009658045"><ele>752.0</ele><time>2026-04-25T10:50:12Z</time></trkpt><trkpt lat="42.01742877500486" lon="1.735444861724515"><ele>751.4000000000001</ele><time>2026-04-25T10:50:13Z</time></trkpt><trkpt lat="42.017357267959866" lon="1.7354992472571453"><ele>750.8000000000001</ele><time>2026-04-25T10:50:14Z</time></trkpt><trkpt lat="42.01728315976529" lon="1.7355612775325178"><ele>750.2</ele><time>2026-04-25T10:50:15Z</time></trkpt><trkpt lat="42.01719145241222" lon="1.7356356862094164"><ele>749.6</ele><time>2026-04-25T10:50:16Z</time></trkpt><trkpt lat="42.01710007992127" lon="1.735710071793407"><ele>749.0</ele><time>2026-04-25T10:50:17Z</time></trkpt><trkpt lat="42.017004461505486" lon="1.735794139732498"><ele>749.0</ele><time>2026-04-25T10:50:18Z</time></trkpt><trkpt lat="42.016905003169555" lon="1.735877435186338"><ele>749.0</ele><time>2026-04-25T10:50:19Z</time></trkpt><trkpt lat="42.01680129064896" lon="1.7359675450600351"><ele>749.0</ele><time>2026-04-25T10:50:20Z</time></trkpt><trkpt lat="42.0166934221286" lon="1.7360568535887992"><ele>749.0</ele><time>2026-04-25T10:50:21Z</time></trkpt><trkpt lat="42.01658484803733" lon="1.7361520658555187"><ele>747.5</ele><time>2026-04-25T10:50:22Z</time></trkpt><trkpt lat="42.01646408681558" lon="1.7362572478621"><ele>746.0</ele><time>2026-04-25T10:50:23Z</time></trkpt><trkpt lat="42.01635498998204" lon="1.736354186912329"><ele>744.5</ele><time>2026-04-25T10:50:24Z</time></trkpt><trkpt lat="42.016256960049844" lon="1.7364383052307022"><ele>743.0</ele><time>2026-04-25T10:50:25Z</time></trkpt><trkpt lat="42.01617246750014" lon="1.736514698030656"><ele>743.0</ele><time>2026-04-25T10:50:26Z</time></trkpt><trkpt lat="42.01609718480831" lon="1.736580381360671"><ele>743.0</ele><time>2026-04-25T10:50:27Z</time></trkpt><trkpt lat="42.01600911983492" lon="1.7366616776782153"><ele>743.0</ele><time>2026-04-25T10:50:28Z</time></trkpt><trkpt lat="42.015894474293376" lon="1.7367604857721883"><ele>743.0</ele><time>2026-04-25T10:50:29Z</time></trkpt><trkpt lat="42.01576906066813" lon="1.7368647533876194"><ele>742.3333333333333</ele><time>2026-04-25T10:50:30Z</time></trkpt><trkpt lat="42.01563450760373" lon="1.736973420174798"><ele>741.6666666666666</ele><time>2026-04-25T10:50:31Z</time></trkpt><trkpt lat="42.01549587317202" lon="1.7370944901398406"><ele>741.0</ele><time>2026-04-25T10:50:32Z</time></trkpt><trkpt lat="42.01535545820758" lon="1.7372022546403605"><ele>741.0</ele><time>2026-04-25T10:50:33Z</time></trkpt><trkpt lat="42.01521106171383" lon="1.7373027591120984"><ele>741.0</ele><time>2026-04-25T10:50:34Z</time></trkpt><trkpt lat="42.015047491052385" lon="1.7373811629153888"><ele>741.0</ele><time>2026-04-25T10:50:35Z</time></trkpt><trkpt lat="42.014880722139246" lon="1.7374739647103046"><ele>739.6666666666666</ele><time>2026-04-25T10:50:36Z</time></trkpt><trkpt lat="42.01471999431988" lon="1.7375908810155314"><ele>738.3333333333333</ele><time>2026-04-25T10:50:37Z</time></trkpt><trkpt lat="42.0145609737397" lon="1.7376611745944717"><ele>737.0</ele><time>2026-04-25T10:50:38Z</time></trkpt><trkpt lat="42.01440882188724" lon="1.7377483974814882"><ele>736.6666666666666</ele><time>2026-04-25T10:50:39Z</time></trkpt><trkpt lat="42.01425401096422" lon="1.7378337217105648"><ele>736.3333333333334</ele><time>2026-04-25T10:50:40Z</time></trkpt><trkpt lat="42.014101040571035" lon="1.7379133678066483"><ele>736.0</ele><time>2026-04-25T10:50:41Z</time></trkpt><trkpt lat="42.01394659813979" lon="1.7379807791523145"><ele>735.0</ele><time>2026-04-25T10:50:42Z</time></trkpt><trkpt lat="42.0137912548741" lon="1.7380317585929983"><ele>734.0</ele><time>2026-04-25T10:50:43Z</time></trkpt><trkpt lat="42.013621235842834" lon="1.7380824478935852"><ele>733.0</ele><time>2026-04-25T10:50:44Z</time></trkpt><trkpt lat="42.013451363892855" lon="1.7381591636885543"><ele>730.6666666666667</ele><time>2026-04-25T10:50:45Z</time></trkpt><trkpt lat="42.01328631959739" lon="1.7382217608565103"><ele>728.3333333333334</ele><time>2026-04-25T10:50:46Z</time></trkpt><trkpt lat="42.013135357564174" lon="1.7383110742604013"><ele>726.0</ele><time>2026-04-25T10:50:47Z</time></trkpt><trkpt lat="42.01298803322392" lon="1.7384258604264184"><ele>726.3333333333334</ele><time>2026-04-25T10:50:48Z</time></trkpt><trkpt lat="42.012848088276776" lon="1.7385583212376061"><ele>726.6666666666667</ele><time>2026-04-25T10:50:49Z</time></trkpt><trkpt lat="42.01270916407594" lon="1.7386488832469653"><ele>727.0</ele><time>2026-04-25T10:50:50Z</time></trkpt><trkpt lat="42.01255692557947" lon="1.7387456205646254"><ele>724.6666666666667</ele><time>2026-04-25T10:50:51Z</time></trkpt><trkpt lat="42.012410625991656" lon="1.7388390812700396"><ele>722.3333333333334</ele><time>2026-04-25T10:50:52Z</time></trkpt><trkpt lat="42.0122721425898" lon="1.738950806563439"><ele>720.0</ele><time>2026-04-25T10:50:53Z</time></trkpt><trkpt lat="42.01214704280654" lon="1.7390801571920578"><ele>720.0</ele><time>2026-04-25T10:50:54Z</time></trkpt><trkpt lat="42.012051934630605" lon="1.7392340672430349"><ele>720.0</ele><time>2026-04-25T10:50:55Z</time></trkpt><trkpt lat="42.011964164439384" lon="1.739359640935279"><ele>720.0</ele><time>2026-04-25T10:50:56Z</time></trkpt><trkpt lat="42.01190334736255" lon="1.7394868972870534"><ele>720.0</ele><time>2026-04-25T10:50:57Z</time></trkpt><trkpt lat="42.01188122333665" lon="1.7396188666498356"><ele>720.75</ele><time>2026-04-25T10:50:58Z</time></trkpt><trkpt lat="42.01190409630953" lon="1.7397538842369908"><ele>721.5</ele><time>2026-04-25T10:50:59Z</time></trkpt><trkpt lat="42.01193115863309" lon="1.739918528804989"><ele>722.25</ele><time>2026-04-25T10:51:00Z</time></trkpt><trkpt lat="42.011913921916495" lon="1.7401067758548034"><ele>723.0</ele><time>2026-04-25T10:51:01Z</time></trkpt><trkpt lat="42.01187616856412" lon="1.7402949249874957"><ele>723.3333333333334</ele><time>2026-04-25T10:51:02Z</time></trkpt><trkpt lat="42.01181428653556" lon="1.7404787186755537"><ele>723.6666666666667</ele><time>2026-04-25T10:51:03Z</time></trkpt><trkpt lat="42.011727345261626" lon="1.7406515537506193"><ele>724.0</ele><time>2026-04-25T10:51:04Z</time></trkpt><trkpt lat="42.01162700326721" lon="1.7408103578966259"><ele>722.3333333333334</ele><time>2026-04-25T10:51:05Z</time></trkpt><trkpt lat="42.011510251953474" lon="1.7409340517427436"><ele>720.6666666666666</ele><time>2026-04-25T10:51:06Z</time></trkpt><trkpt lat="42.011366748280004" lon="1.7410569960271445"><ele>719.0</ele><time>2026-04-25T10:51:07Z</time></trkpt><trkpt lat="42.01122978921862" lon="1.7412040827060358"><ele>718.0</ele><time>2026-04-25T10:51:08Z</time></trkpt><trkpt lat="42.01109170652533" lon="1.7413645264363884"><ele>717.0</ele><time>2026-04-25T10:51:09Z</time></trkpt><trkpt lat="42.01096339999611" lon="1.7415681967899836"><ele>716.0</ele><time>2026-04-25T10:51:10Z</time></trkpt><trkpt lat="42.01083270606724" lon="1.74177620218229"><ele>715.0</ele><time>2026-04-25T10:51:11Z</time></trkpt><trkpt lat="42.01070017356083" lon="1.7419730466104708"><ele>714.0</ele><time>2026-04-25T10:51:12Z</time></trkpt><trkpt lat="42.01058447768688" lon="1.7421577827202914"><ele>713.0</ele><time>2026-04-25T10:51:13Z</time></trkpt><trkpt lat="42.010487006418" lon="1.7423464207015047"><ele>713.0</ele><time>2026-04-25T10:51:14Z</time></trkpt><trkpt lat="42.0104073483409" lon="1.742561542359236"><ele>713.0</ele><time>2026-04-25T10:51:15Z</time></trkpt><trkpt lat="42.010342575493226" lon="1.7428149586316892"><ele>713.0</ele><time>2026-04-25T10:51:16Z</time></trkpt><trkpt lat="42.010282427132594" lon="1.7430738606818776"><ele>713.0</ele><time>2026-04-25T10:51:17Z</time></trkpt><trkpt lat="42.010200811930694" lon="1.743299463482544"><ele>713.0</ele><time>2026-04-25T10:51:18Z</time></trkpt><trkpt lat="42.01013864828373" lon="1.7434930314506"><ele>713.0</ele><time>2026-04-25T10:51:19Z</time></trkpt><trkpt lat="42.01007628187015" lon="1.743679350246184"><ele>713.0</ele><time>2026-04-25T10:51:20Z</time></trkpt><trkpt lat="42.010006752141045" lon="1.7438322114952554"><ele>713.0</ele><time>2026-04-25T10:51:21Z</time></trkpt><trkpt lat="42.00991066110944" lon="1.7439668076456645"><ele>713.0</ele><time>2026-04-25T10:51:22Z</time></trkpt><trkpt lat="42.00978130618368" lon="1.7440903512215498"><ele>713.0</ele><time>2026-04-25T10:51:23Z</time></trkpt><trkpt lat="42.00966534397065" lon="1.7442244848403259"><ele>712.6666666666666</ele><time>2026-04-25T10:51:24Z</time></trkpt><trkpt lat="42.00959675572333" lon="1.744407654467678"><ele>712.3333333333334</ele><time>2026-04-25T10:51:25Z</time></trkpt><trkpt lat="42.00953855323332" lon="1.7446432540694081"><ele>712.0</ele><time>2026-04-25T10:51:26Z</time></trkpt><trkpt lat="42.00948358579305" lon="1.7449326355111916"><ele>712.0</ele><time>2026-04-25T10:51:27Z</time></trkpt><trkpt lat="42.00939809983974" lon="1.7452045443505473"><ele>712.0</ele><time>2026-04-25T10:51:28Z</time></trkpt><trkpt lat="42.0093222532478" lon="1.745436883883346"><ele>712.0</ele><time>2026-04-25T10:51:29Z</time></trkpt><trkpt lat="42.009236814673606" lon="1.745644088032035"><ele>711.0</ele><time>2026-04-25T10:51:30Z</time></trkpt><trkpt lat="42.00913453241258" lon="1.7458308156738065"><ele>710.0</ele><time>2026-04-25T10:51:31Z</time></trkpt><trkpt lat="42.009012316358216" lon="1.7459947062770418"><ele>709.0</ele><time>2026-04-25T10:51:32Z</time></trkpt><trkpt lat="42.00886455668845" lon="1.7461578309709396"><ele>708.5</ele><time>2026-04-25T10:51:33Z</time></trkpt><trkpt lat="42.00868891219104" lon="1.7463359969604948"><ele>708.0</ele><time>2026-04-25T10:51:34Z</time></trkpt><trkpt lat="42.0084967918834" lon="1.7465349779773927"><ele>707.0</ele><time>2026-04-25T10:51:35Z</time></trkpt><trkpt lat="42.008296422526804" lon="1.7467455876848716"><ele>706.0</ele><time>2026-04-25T10:51:36Z</time></trkpt><trkpt lat="42.00809302597689" lon="1.746963890559601"><ele>706.0</ele><time>2026-04-25T10:51:37Z</time></trkpt><trkpt lat="42.007914087751445" lon="1.7471834936397563"><ele>706.0</ele><time>2026-04-25T10:51:38Z</time></trkpt><trkpt lat="42.00773775716693" lon="1.747380227138079"><ele>706.0</ele><time>2026-04-25T10:51:39Z</time></trkpt><trkpt lat="42.007562110294636" lon="1.7476028522565634"><ele>706.0</ele><time>2026-04-25T10:51:40Z</time></trkpt><trkpt lat="42.007395264981184" lon="1.7478530318042813"><ele>707.5</ele><time>2026-04-25T10:51:41Z</time></trkpt><trkpt lat="42.00721859069424" lon="1.7480889178539827"><ele>709.0</ele><time>2026-04-25T10:51:42Z</time></trkpt><trkpt lat="42.007061364995806" lon="1.748315179198651"><ele>709.0</ele><time>2026-04-25T10:51:43Z</time></trkpt><trkpt lat="42.00691191316923" lon="1.748526975297275"><ele>709.0</ele><time>2026-04-25T10:51:44Z</time></trkpt><trkpt lat="42.00675729738789" lon="1.7487301891994531"><ele>709.0</ele><time>2026-04-25T10:51:45Z</time></trkpt><trkpt lat="42.006581619121455" lon="1.7489142155373212"><ele>707.3333333333334</ele><time>2026-04-25T10:51:46Z</time></trkpt><trkpt lat="42.00640277729943" lon="1.7490848050752659"><ele>705.6666666666666</ele><time>2026-04-25T10:51:47Z</time></trkpt><trkpt lat="42.00623765941065" lon="1.749257099788762"><ele>704.0</ele><time>2026-04-25T10:51:48Z</time></trkpt><trkpt lat="42.00608788280837" lon="1.74945674795797"><ele>704.0</ele><time>2026-04-25T10:51:49Z</time></trkpt><trkpt lat="42.005914503207364" lon="1.7496161354183213"><ele>704.0</ele><time>2026-04-25T10:51:50Z</time></trkpt><trkpt lat="42.005731470598" lon="1.7497627811804384"><ele>704.0</ele><time>2026-04-25T10:51:51Z</time></trkpt><trkpt lat="42.005558795553064" lon="1.7499043020865508"><ele>702.6666666666666</ele><time>2026-04-25T10:51:52Z</time></trkpt><trkpt lat="42.00539751284066" lon="1.7500438429860539"><ele>701.3333333333334</ele><time>2026-04-25T10:51:53Z</time></trkpt><trkpt lat="42.00525402536753" lon="1.750189177259932"><ele>700.0</ele><time>2026-04-25T10:51:54Z</time></trkpt><trkpt lat="42.00512540899376" lon="1.75032658149664"><ele>699.75</ele><time>2026-04-25T10:51:55Z</time></trkpt><trkpt lat="42.004999651503084" lon="1.7504535761628965"><ele>699.5</ele><time>2026-04-25T10:51:56Z</time></trkpt><trkpt lat="42.0048759434051" lon="1.7505456603521101"><ele>699.25</ele><time>2026-04-25T10:51:57Z</time></trkpt><trkpt lat="42.004746963226275" lon="1.7505956037286718"><ele>699.0</ele><time>2026-04-25T10:51:58Z</time></trkpt><trkpt lat="42.0046165045628" lon="1.7506156561345176"><ele>698.5</ele><time>2026-04-25T10:51:59Z</time></trkpt><trkpt lat="42.00449119017689" lon="1.7506480208319763"><ele>698.0</ele><time>2026-04-25T10:52:00Z</time></trkpt><trkpt lat="42.00437786566441" lon="1.7507640518290795"><ele>697.5</ele><time>2026-04-25T10:52:01Z</time></trkpt><trkpt lat="42.00427529429159" lon="1.7508940838466527"><ele>697.0</ele><time>2026-04-25T10:52:02Z</time></trkpt><trkpt lat="42.00416749326645" lon="1.7510148617907595"><ele>695.5</ele><time>2026-04-25T10:52:03Z</time></trkpt><trkpt lat="42.00407190038368" lon="1.7511692317142302"><ele>694.0</ele><time>2026-04-25T10:52:04Z</time></trkpt><trkpt lat="42.00395770968578" lon="1.7512899400689226"><ele>692.5</ele><time>2026-04-25T10:52:05Z</time></trkpt><trkpt lat="42.003850139114306" lon="1.7514358110257"><ele>691.0</ele><time>2026-04-25T10:52:06Z</time></trkpt><trkpt lat="42.00375529859528" lon="1.7515745338030178"><ele>691.0</ele><time>2026-04-25T10:52:07Z</time></trkpt><trkpt lat="42.00365706081614" lon="1.7517182721260824"><ele>691.0</ele><time>2026-04-25T10:52:08Z</time></trkpt><trkpt lat="42.0035625081481" lon="1.7518505769781616"><ele>691.0</ele><time>2026-04-25T10:52:09Z</time></trkpt><trkpt lat="42.003409910044205" lon="1.7520371805406267"><ele>688.6666666666667</ele><time>2026-04-25T10:52:10Z</time></trkpt><trkpt lat="42.003286186809696" lon="1.7521545596890087"><ele>686.3333333333334</ele><time>2026-04-25T10:52:11Z</time></trkpt><trkpt lat="42.00315177110042" lon="1.7522627243497222"><ele>684.0</ele><time>2026-04-25T10:52:12Z</time></trkpt><trkpt lat="42.0030126041649" lon="1.7523794814587879"><ele>684.0</ele><time>2026-04-25T10:52:13Z</time></trkpt><trkpt lat="42.0028789342729" lon="1.7525006396944114"><ele>684.0</ele><time>2026-04-25T10:52:14Z</time></trkpt><trkpt lat="42.00274047886126" lon="1.752599983024751"><ele>684.0</ele><time>2026-04-25T10:52:15Z</time></trkpt><trkpt lat="42.00259912414538" lon="1.7526978785766378"><ele>681.6666666666666</ele><time>2026-04-25T10:52:16Z</time></trkpt><trkpt lat="42.00245605874096" lon="1.752800779692329"><ele>679.3333333333333</ele><time>2026-04-25T10:52:17Z</time></trkpt><trkpt lat="42.00232339735436" lon="1.7529276468799813"><ele>677.0</ele><time>2026-04-25T10:52:18Z</time></trkpt><trkpt lat="42.00218982142275" lon="1.7530649892596342"><ele>677.0</ele><time>2026-04-25T10:52:19Z</time></trkpt><trkpt lat="42.00207258320375" lon="1.7532195998195688"><ele>677.0</ele><time>2026-04-25T10:52:20Z</time></trkpt><trkpt lat="42.00195500232069" lon="1.7533739016007284"><ele>677.0</ele><time>2026-04-25T10:52:21Z</time></trkpt><trkpt lat="42.00182958980629" lon="1.7534941244670466"><ele>674.6666666666666</ele><time>2026-04-25T10:52:22Z</time></trkpt><trkpt lat="42.00171435707015" lon="1.7536105432679816"><ele>672.3333333333334</ele><time>2026-04-25T10:52:23Z</time></trkpt><trkpt lat="42.001583589365744" lon="1.7537159988513182"><ele>670.0</ele><time>2026-04-25T10:52:24Z</time></trkpt><trkpt lat="42.001444924197585" lon="1.7538120855151373"><ele>670.0</ele><time>2026-04-25T10:52:25Z</time></trkpt><trkpt lat="42.00130589424117" lon="1.753921073455476"><ele>670.0</ele><time>2026-04-25T10:52:26Z</time></trkpt><trkpt lat="42.00118940642662" lon="1.7540579414785973"><ele>670.0</ele><time>2026-04-25T10:52:27Z</time></trkpt><trkpt lat="42.00109145519906" lon="1.7542133986844801"><ele>668.6666666666667</ele><time>2026-04-25T10:52:28Z</time></trkpt><trkpt lat="42.00100739207117" lon="1.754384116740033"><ele>667.3333333333334</ele><time>2026-04-25T10:52:29Z</time></trkpt><trkpt lat="42.000886937725916" lon="1.7545107782414835"><ele>666.0</ele><time>2026-04-25T10:52:30Z</time></trkpt><trkpt lat="42.00076080221845" lon="1.7546193487361348"><ele>665.6666666666666</ele><time>2026-04-25T10:52:31Z</time></trkpt><trkpt lat="42.00062642534348" lon="1.7547250426775594"><ele>665.3333333333333</ele><time>2026-04-25T10:52:32Z</time></trkpt><trkpt lat="42.000496798211856" lon="1.7548385606477"><ele>665.0</ele><time>2026-04-25T10:52:33Z</time></trkpt><trkpt lat="42.000367463697316" lon="1.7549442196626979"><ele>665.0</ele><time>2026-04-25T10:52:34Z</time></trkpt><trkpt lat="42.000234839415725" lon="1.7550698917139342"><ele>665.0</ele><time>2026-04-25T10:52:35Z</time></trkpt><trkpt lat="42.00010679773883" lon="1.7552108556418162"><ele>665.0</ele><time>2026-04-25T10:52:36Z</time></trkpt><trkpt lat="41.99999047546992" lon="1.7553539460566525"><ele>660.6666666666666</ele><time>2026-04-25T10:52:37Z</time></trkpt><trkpt lat="41.99988300461599" lon="1.755505083642833"><ele>656.3333333333334</ele><time>2026-04-25T10:52:38Z</time></trkpt><trkpt lat="41.999783509733746" lon="1.7556629682679346"><ele>652.0</ele><time>2026-04-25T10:52:39Z</time></trkpt><trkpt lat="41.99969131463201" lon="1.7558145361230495"><ele>652.0</ele><time>2026-04-25T10:52:40Z</time></trkpt><trkpt lat="41.999596762912866" lon="1.7559501931712829"><ele>652.0</ele><time>2026-04-25T10:52:41Z</time></trkpt><trkpt lat="41.999479752719616" lon="1.756050504670829"><ele>652.0</ele><time>2026-04-25T10:52:42Z</time></trkpt><trkpt lat="41.99940142326748" lon="1.7562076814805074"><ele>652.0</ele><time>2026-04-25T10:52:43Z</time></trkpt><trkpt lat="41.99932033097393" lon="1.7564052804209636"><ele>649.3333333333334</ele><time>2026-04-25T10:52:44Z</time></trkpt><trkpt lat="41.999251118798895" lon="1.756616264516468"><ele>646.6666666666666</ele><time>2026-04-25T10:52:45Z</time></trkpt><trkpt lat="41.999159724127246" lon="1.7568090615998937"><ele>644.0</ele><time>2026-04-25T10:52:46Z</time></trkpt><trkpt lat="41.999081110125225" lon="1.7569973635927096"><ele>641.3333333333333</ele><time>2026-04-25T10:52:47Z</time></trkpt><trkpt lat="41.99899705971642" lon="1.7571734243395993"><ele>638.6666666666666</ele><time>2026-04-25T10:52:48Z</time></trkpt><trkpt lat="41.99890063033216" lon="1.7573465573306608"><ele>636.0</ele><time>2026-04-25T10:52:49Z</time></trkpt><trkpt lat="41.99880024746191" lon="1.7575132508622073"><ele>636.0</ele><time>2026-04-25T10:52:50Z</time></trkpt><trkpt lat="41.99870040695038" lon="1.7576596950996826"><ele>636.0</ele><time>2026-04-25T10:52:51Z</time></trkpt><trkpt lat="41.998604972734455" lon="1.7577861147392235"><ele>636.0</ele><time>2026-04-25T10:52:52Z</time></trkpt><trkpt lat="41.9985227233288" lon="1.7578798218077298"><ele>636.0</ele><time>2026-04-25T10:52:53Z</time></trkpt><trkpt lat="41.99844108949662" lon="1.7579468057507648"><ele>633.75</ele><time>2026-04-25T10:52:54Z</time></trkpt><trkpt lat="41.99834552028694" lon="1.757962208086437"><ele>631.5</ele><time>2026-04-25T10:52:55Z</time></trkpt><trkpt lat="41.99822475627393" lon="1.7579431947520763"><ele>629.25</ele><time>2026-04-25T10:52:56Z</time></trkpt><trkpt lat="41.998090005342654" lon="1.7579484522290894"><ele>627.0</ele><time>2026-04-25T10:52:57Z</time></trkpt><trkpt lat="41.997957483288076" lon="1.7580091573160939"><ele>627.0</ele><time>2026-04-25T10:52:58Z</time></trkpt><trkpt lat="41.997866032516356" lon="1.758122662621057"><ele>627.0</ele><time>2026-04-25T10:52:59Z</time></trkpt><trkpt lat="41.99777119581233" lon="1.7581816602828757"><ele>627.0</ele><time>2026-04-25T10:53:00Z</time></trkpt><trkpt lat="41.99766984506031" lon="1.758215824570376"><ele>627.0</ele><time>2026-04-25T10:53:01Z</time></trkpt><trkpt lat="41.99755312926357" lon="1.7582267982523856"><ele>627.0</ele><time>2026-04-25T10:53:02Z</time></trkpt><trkpt lat="41.9974204303716" lon="1.75824186172572"><ele>627.0</ele><time>2026-04-25T10:53:03Z</time></trkpt><trkpt lat="41.99728122735089" lon="1.7582621411982935"><ele>627.0</ele><time>2026-04-25T10:53:04Z</time></trkpt><trkpt lat="41.997154401289784" lon="1.7583093372622651"><ele>627.0</ele><time>2026-04-25T10:53:05Z</time></trkpt><trkpt lat="41.997049938140634" lon="1.7584219551659013"><ele>622.0</ele><time>2026-04-25T10:53:06Z</time></trkpt><trkpt lat="41.99692279811422" lon="1.7585817269995776"><ele>617.0</ele><time>2026-04-25T10:53:07Z</time></trkpt><trkpt lat="41.99677627157997" lon="1.7587531040069968"><ele>612.0</ele><time>2026-04-25T10:53:08Z</time></trkpt><trkpt lat="41.99669471951364" lon="1.7588711815762537"><ele>613.0</ele><time>2026-04-25T10:53:10Z</time></trkpt><trkpt lat="41.99662393018882" lon="1.7590082784673218"><ele>614.0</ele><time>2026-04-25T10:53:11Z</time></trkpt><trkpt lat="41.99656047836998" lon="1.759169259195424"><ele>615.0</ele><time>2026-04-25T10:53:12Z</time></trkpt><trkpt lat="41.99653168939077" lon="1.7593391706939683"><ele>616.0</ele><time>2026-04-25T10:53:13Z</time></trkpt><trkpt lat="41.996528591150835" lon="1.759530120256099"><ele>613.75</ele><time>2026-04-25T10:53:14Z</time></trkpt><trkpt lat="41.99655167253756" lon="1.7597320824073872"><ele>611.5</ele><time>2026-04-25T10:53:15Z</time></trkpt><trkpt lat="41.99658184138923" lon="1.759936166046243"><ele>609.25</ele><time>2026-04-25T10:53:16Z</time></trkpt><trkpt lat="41.99659467313771" lon="1.760125343840418"><ele>607.0</ele><time>2026-04-25T10:53:17Z</time></trkpt><trkpt lat="41.99658028408751" lon="1.7602981556351391"><ele>604.5</ele><time>2026-04-25T10:53:18Z</time></trkpt><trkpt lat="41.996564287448635" lon="1.7604524576496121"><ele>602.0</ele><time>2026-04-25T10:53:19Z</time></trkpt><trkpt lat="41.99652347352309" lon="1.7605840604415655"><ele>599.5</ele><time>2026-04-25T10:53:20Z</time></trkpt><trkpt lat="41.99644423318987" lon="1.7606945486315568"><ele>597.0</ele><time>2026-04-25T10:53:21Z</time></trkpt><trkpt lat="41.99635200423626" lon="1.7607935031169648"><ele>597.0</ele><time>2026-04-25T10:53:22Z</time></trkpt><trkpt lat="41.99624784644754" lon="1.760854770684286"><ele>597.0</ele><time>2026-04-25T10:53:23Z</time></trkpt><trkpt lat="41.9961307210821" lon="1.7608799431962905"><ele>597.0</ele><time>2026-04-25T10:53:24Z</time></trkpt><trkpt lat="41.99600038141293" lon="1.7609080272042894"><ele>597.0</ele><time>2026-04-25T10:53:25Z</time></trkpt><trkpt lat="41.99586969496915" lon="1.7609521270876776"><ele>597.5</ele><time>2026-04-25T10:53:26Z</time></trkpt><trkpt lat="41.99575383027487" lon="1.7610246208544158"><ele>598.0</ele><time>2026-04-25T10:53:27Z</time></trkpt><trkpt lat="41.99565397978637" lon="1.7611125790999713"><ele>598.5</ele><time>2026-04-25T10:53:28Z</time></trkpt><trkpt lat="41.99557476945031" lon="1.7612412502886783"><ele>599.0</ele><time>2026-04-25T10:53:29Z</time></trkpt><trkpt lat="41.9955249898579" lon="1.7614010412025087"><ele>597.0</ele><time>2026-04-25T10:53:30Z</time></trkpt><trkpt lat="41.99550554024273" lon="1.761589091393444"><ele>595.0</ele><time>2026-04-25T10:53:31Z</time></trkpt><trkpt lat="41.995480758273864" lon="1.761746887981584"><ele>593.0</ele><time>2026-04-25T10:53:32Z</time></trkpt><trkpt lat="41.995472754133196" lon="1.761888280284724"><ele>591.0</ele><time>2026-04-25T10:53:33Z</time></trkpt><trkpt lat="41.99551158950224" lon="1.7620324124127864"><ele>589.5</ele><time>2026-04-25T10:53:34Z</time></trkpt><trkpt lat="41.995586414208745" lon="1.7621557541501243"><ele>588.0</ele><time>2026-04-25T10:53:35Z</time></trkpt><trkpt lat="41.995678600830885" lon="1.7622699026557098"><ele>586.5</ele><time>2026-04-25T10:53:36Z</time></trkpt><trkpt lat="41.99571651797714" lon="1.762424527283247"><ele>585.0</ele><time>2026-04-25T10:53:37Z</time></trkpt><trkpt lat="41.995729702070825" lon="1.7625580412649748"><ele>584.5</ele><time>2026-04-25T10:53:38Z</time></trkpt><trkpt lat="41.99573836469134" lon="1.7627570454957517"><ele>584.0</ele><time>2026-04-25T10:53:39Z</time></trkpt><trkpt lat="41.99573611993812" lon="1.7629409348744671"><ele>583.5</ele><time>2026-04-25T10:53:40Z</time></trkpt><trkpt lat="41.9957342458389" lon="1.7631330701797387"><ele>583.0</ele><time>2026-04-25T10:53:41Z</time></trkpt><trkpt lat="41.99573852080007" lon="1.7633066626092424"><ele>583.0</ele><time>2026-04-25T10:53:42Z</time></trkpt><trkpt lat="41.99575317039333" lon="1.7634670031666237"><ele>583.0</ele><time>2026-04-25T10:53:43Z</time></trkpt><trkpt lat="41.995773840944075" lon="1.7636173700298015"><ele>583.0</ele><time>2026-04-25T10:53:44Z</time></trkpt><trkpt lat="41.99579470370613" lon="1.763749950906841"><ele>583.0</ele><time>2026-04-25T10:53:45Z</time></trkpt><trkpt lat="41.99579027773792" lon="1.7638599724327633"><ele>583.0</ele><time>2026-04-25T10:53:46Z</time></trkpt><trkpt lat="41.99573994365694" lon="1.7639536737142494"><ele>584.5</ele><time>2026-04-25T10:53:47Z</time></trkpt><trkpt lat="41.99563760159634" lon="1.7639873848293344"><ele>586.0</ele><time>2026-04-25T10:53:48Z</time></trkpt><trkpt lat="41.9955336633395" lon="1.7639923121361896"><ele>587.5</ele><time>2026-04-25T10:53:49Z</time></trkpt><trkpt lat="41.995412426367785" lon="1.764018114101125"><ele>589.0</ele><time>2026-04-25T10:53:50Z</time></trkpt><trkpt lat="41.99528696572962" lon="1.7640406089767764"><ele>589.0</ele><time>2026-04-25T10:53:51Z</time></trkpt><trkpt lat="41.9951565069662" lon="1.764070381327969"><ele>589.0</ele><time>2026-04-25T10:53:52Z</time></trkpt><trkpt lat="41.995030204336466" lon="1.764031479024957"><ele>589.0</ele><time>2026-04-25T10:53:53Z</time></trkpt><trkpt lat="41.994911349876226" lon="1.7639565130923802"><ele>589.0</ele><time>2026-04-25T10:53:54Z</time></trkpt><trkpt lat="41.9947949885608" lon="1.7638582440978328"><ele>589.4</ele><time>2026-04-25T10:53:55Z</time></trkpt><trkpt lat="41.994677972775115" lon="1.7637614121161589"><ele>589.8</ele><time>2026-04-25T10:53:56Z</time></trkpt><trkpt lat="41.99457543337089" lon="1.7636692801682046"><ele>590.2</ele><time>2026-04-25T10:53:57Z</time></trkpt><trkpt lat="41.99449117764125" lon="1.7636061129485947"><ele>590.6</ele><time>2026-04-25T10:53:58Z</time></trkpt><trkpt lat="41.99440534986827" lon="1.763570564802118"><ele>591.0</ele><time>2026-04-25T10:53:59Z</time></trkpt><trkpt lat="41.99430306030453" lon="1.7635815932415404"><ele>591.0</ele><time>2026-04-25T10:54:00Z</time></trkpt><trkpt lat="41.99418826184936" lon="1.7636200047652029"><ele>591.0</ele><time>2026-04-25T10:54:01Z</time></trkpt><trkpt lat="41.994058962033094" lon="1.7636167410290233"><ele>591.0</ele><time>2026-04-25T10:54:02Z</time></trkpt><trkpt lat="41.99391933851618" lon="1.7636344782270559"><ele>591.0</ele><time>2026-04-25T10:54:03Z</time></trkpt><trkpt lat="41.99377663698803" lon="1.7636505604604793"><ele>591.0</ele><time>2026-04-25T10:54:04Z</time></trkpt><trkpt lat="41.99363786628347" lon="1.7636761995609689"><ele>591.0</ele><time>2026-04-25T10:54:05Z</time></trkpt><trkpt lat="41.99350702396448" lon="1.7636417591182911"><ele>591.0</ele><time>2026-04-25T10:54:06Z</time></trkpt><trkpt lat="41.993378303020364" lon="1.7636236817733213"><ele>591.0</ele><time>2026-04-25T10:54:07Z</time></trkpt><trkpt lat="41.993243336265444" lon="1.763582970535909"><ele>590.25</ele><time>2026-04-25T10:54:08Z</time></trkpt><trkpt lat="41.99310386652583" lon="1.7635346119040334"><ele>589.5</ele><time>2026-04-25T10:54:09Z</time></trkpt><trkpt lat="41.99296247726171" lon="1.763505677117473"><ele>588.75</ele><time>2026-04-25T10:54:10Z</time></trkpt><trkpt lat="41.992839060422" lon="1.7634845831250572"><ele>588.0</ele><time>2026-04-25T10:54:11Z</time></trkpt><trkpt lat="41.99272798899595" lon="1.7634849976366371"><ele>588.0</ele><time>2026-04-25T10:54:12Z</time></trkpt><trkpt lat="41.9926426027579" lon="1.76360139576177"><ele>588.0</ele><time>2026-04-25T10:54:13Z</time></trkpt><trkpt lat="41.99256949487642" lon="1.7637430780167316"><ele>588.0</ele><time>2026-04-25T10:54:14Z</time></trkpt><trkpt lat="41.99249722901231" lon="1.7639081554874807"><ele>588.0</ele><time>2026-04-25T10:54:15Z</time></trkpt><trkpt lat="41.99241741945731" lon="1.764080559390591"><ele>587.6</ele><time>2026-04-25T10:54:16Z</time></trkpt><trkpt lat="41.99231590025377" lon="1.7642311307600553"><ele>587.1999999999999</ele><time>2026-04-25T10:54:17Z</time></trkpt><trkpt lat="41.9922369001893" lon="1.7643713865167818"><ele>586.8</ele><time>2026-04-25T10:54:18Z</time></trkpt><trkpt lat="41.99219195663834" lon="1.7644754919278218"><ele>586.4</ele><time>2026-04-25T10:54:19Z</time></trkpt><trkpt lat="41.99214607143513" lon="1.7645511298229017"><ele>586.0</ele><time>2026-04-25T10:54:21Z</time></trkpt><trkpt lat="41.992102349963474" lon="1.7646403497021292"><ele>586.0</ele><time>2026-04-25T10:54:25Z</time></trkpt><trkpt lat="41.99205140975293" lon="1.7647057890649065"><ele>586.0</ele><time>2026-04-25T10:54:27Z</time></trkpt><trkpt lat="41.991996878474914" lon="1.7648048848611892"><ele>586.0</ele><time>2026-04-25T10:54:29Z</time></trkpt><trkpt lat="41.99193501801408" lon="1.7649459047456575"><ele>586.0</ele><time>2026-04-25T10:54:31Z</time></trkpt><trkpt lat="41.99189554266206" lon="1.7650259593167563"><ele>586.0</ele><time>2026-04-25T10:54:32Z</time></trkpt><trkpt lat="41.99184719954946" lon="1.7651154835882759"><ele>586.0</ele><time>2026-04-25T10:54:33Z</time></trkpt><trkpt lat="41.99179026593954" lon="1.765225719188203"><ele>586.6</ele><time>2026-04-25T10:54:34Z</time></trkpt><trkpt lat="41.991724896170865" lon="1.7653444621140657"><ele>587.2</ele><time>2026-04-25T10:54:35Z</time></trkpt><trkpt lat="41.9916431873778" lon="1.7654579273074054"><ele>587.8</ele><time>2026-04-25T10:54:36Z</time></trkpt><trkpt lat="41.99155729043042" lon="1.7655441437033743"><ele>588.4</ele><time>2026-04-25T10:54:37Z</time></trkpt><trkpt lat="41.991459286170425" lon="1.765586258038553"><ele>589.0</ele><time>2026-04-25T10:54:38Z</time></trkpt><trkpt lat="41.991364015479284" lon="1.7655645907700932"><ele>589.0</ele><time>2026-04-25T10:54:39Z</time></trkpt><trkpt lat="41.991252546525004" lon="1.765536580283504"><ele>589.0</ele><time>2026-04-25T10:54:40Z</time></trkpt><trkpt lat="41.991131355274874" lon="1.7655371414478105"><ele>589.0</ele><time>2026-04-25T10:54:41Z</time></trkpt><trkpt lat="41.99100285737154" lon="1.7655202613699585"><ele>589.0</ele><time>2026-04-25T10:54:42Z</time></trkpt><trkpt lat="41.99086241117257" lon="1.765508681731387"><ele>588.5</ele><time>2026-04-25T10:54:43Z</time></trkpt><trkpt lat="41.99071183718793" lon="1.7655364783708731"><ele>588.0</ele><time>2026-04-25T10:54:44Z</time></trkpt><trkpt lat="41.99056747558053" lon="1.76553284908089"><ele>587.5</ele><time>2026-04-25T10:54:45Z</time></trkpt><trkpt lat="41.99042882775313" lon="1.7655016895755866"><ele>587.0</ele><time>2026-04-25T10:54:46Z</time></trkpt><trkpt lat="41.99028926163951" lon="1.7654757746158998"><ele>587.0</ele><time>2026-04-25T10:54:47Z</time></trkpt><trkpt lat="41.99014435354837" lon="1.7654656559766653"><ele>587.0</ele><time>2026-04-25T10:54:48Z</time></trkpt><trkpt lat="41.990001456689804" lon="1.765437064024941"><ele>587.0</ele><time>2026-04-25T10:54:49Z</time></trkpt><trkpt lat="41.989863826191204" lon="1.7653885503076048"><ele>587.0</ele><time>2026-04-25T10:54:50Z</time></trkpt><trkpt lat="41.9897154162969" lon="1.7653553996226037"><ele>586.25</ele><time>2026-04-25T10:54:51Z</time></trkpt><trkpt lat="41.98956426838703" lon="1.7653314456821547"><ele>585.5</ele><time>2026-04-25T10:54:52Z</time></trkpt><trkpt lat="41.989422337122114" lon="1.7653300338656537"><ele>584.75</ele><time>2026-04-25T10:54:53Z</time></trkpt><trkpt lat="41.98927814066152" lon="1.7653660504572781"><ele>584.0</ele><time>2026-04-25T10:54:54Z</time></trkpt><trkpt lat="41.989135941492144" lon="1.765428472698654"><ele>581.8</ele><time>2026-04-25T10:54:55Z</time></trkpt><trkpt lat="41.98901465250966" lon="1.765487408894078"><ele>579.5999999999999</ele><time>2026-04-25T10:54:56Z</time></trkpt><trkpt lat="41.98890709789858" lon="1.7655330645485885"><ele>577.4</ele><time>2026-04-25T10:54:57Z</time></trkpt><trkpt lat="41.988820897075236" lon="1.7655409903746533"><ele>575.1999999999999</ele><time>2026-04-25T10:54:58Z</time></trkpt><trkpt lat="41.98873998868459" lon="1.7655116244318174"><ele>573.0</ele><time>2026-04-25T10:54:59Z</time></trkpt><trkpt lat="41.98865312429265" lon="1.7654526246181816"><ele>573.0</ele><time>2026-04-25T10:55:00Z</time></trkpt><trkpt lat="41.98863226442995" lon="1.7652865318808202"><ele>573.0</ele><time>2026-04-25T10:55:01Z</time></trkpt><trkpt lat="41.98860056346423" lon="1.7651352217495717"><ele>573.0</ele><time>2026-04-25T10:55:02Z</time></trkpt><trkpt lat="41.98856249786081" lon="1.7649821659538538"><ele>573.0</ele><time>2026-04-25T10:55:03Z</time></trkpt><trkpt lat="41.98853948293195" lon="1.764850449526911"><ele>573.25</ele><time>2026-04-25T10:55:04Z</time></trkpt><trkpt lat="41.9884996807519" lon="1.764736586446019"><ele>573.5</ele><time>2026-04-25T10:55:05Z</time></trkpt><trkpt lat="41.988386290253835" lon="1.7646805349847472"><ele>573.75</ele><time>2026-04-25T10:55:06Z</time></trkpt><trkpt lat="41.98826975048439" lon="1.7646767969941073"><ele>574.0</ele><time>2026-04-25T10:55:07Z</time></trkpt><trkpt lat="41.988142594455965" lon="1.7646973417231484"><ele>574.0</ele><time>2026-04-25T10:55:08Z</time></trkpt><trkpt lat="41.98800265755819" lon="1.7647535451843677"><ele>574.0</ele><time>2026-04-25T10:55:09Z</time></trkpt><trkpt lat="41.98785430631922" lon="1.7647567892470482"><ele>574.0</ele><time>2026-04-25T10:55:10Z</time></trkpt><trkpt lat="41.98775810540226" lon="1.7648149633945596"><ele>574.0</ele><time>2026-04-25T10:55:11Z</time></trkpt><trkpt lat="41.98764582434322" lon="1.7648477844722668"><ele>574.0</ele><time>2026-04-25T10:55:12Z</time></trkpt><trkpt lat="41.98752729333282" lon="1.7649080428207593"><ele>574.0</ele><time>2026-04-25T10:55:13Z</time></trkpt><trkpt lat="41.987405180532825" lon="1.7649880728256317"><ele>574.0</ele><time>2026-04-25T10:55:14Z</time></trkpt><trkpt lat="41.987297834970235" lon="1.7650756112257686"><ele>574.0</ele><time>2026-04-25T10:55:15Z</time></trkpt><trkpt lat="41.98720468220608" lon="1.76518395632415"><ele>577.75</ele><time>2026-04-25T10:55:16Z</time></trkpt><trkpt lat="41.987128008249684" lon="1.7653256514884288"><ele>581.5</ele><time>2026-04-25T10:55:17Z</time></trkpt><trkpt lat="41.98708658926417" lon="1.7654886032443964"><ele>585.25</ele><time>2026-04-25T10:55:18Z</time></trkpt><trkpt lat="41.987084073400695" lon="1.7656587114452658"><ele>589.0</ele><time>2026-04-25T10:55:19Z</time></trkpt><trkpt lat="41.98711322819108" lon="1.7658343860312544"><ele>589.0</ele><time>2026-04-25T10:55:20Z</time></trkpt><trkpt lat="41.98715093011459" lon="1.7660206256291284"><ele>589.0</ele><time>2026-04-25T10:55:21Z</time></trkpt><trkpt lat="41.987181825478096" lon="1.766217532308546"><ele>589.0</ele><time>2026-04-25T10:55:22Z</time></trkpt><trkpt lat="41.98720641367303" lon="1.7664204926249831"><ele>589.0</ele><time>2026-04-25T10:55:23Z</time></trkpt><trkpt lat="41.987231429917216" lon="1.7666206331672814"><ele>589.0</ele><time>2026-04-25T10:55:24Z</time></trkpt><trkpt lat="41.987269162502" lon="1.766802658841292"><ele>589.0</ele><time>2026-04-25T10:55:25Z</time></trkpt><trkpt lat="41.987333602257976" lon="1.766986789818399"><ele>589.0</ele><time>2026-04-25T10:55:26Z</time></trkpt><trkpt lat="41.987417624327335" lon="1.7671487830674464"><ele>589.0</ele><time>2026-04-25T10:55:27Z</time></trkpt><trkpt lat="41.9875060926099" lon="1.7673083487233239"><ele>587.75</ele><time>2026-04-25T10:55:28Z</time></trkpt><trkpt lat="41.98757745985947" lon="1.7674778385323426"><ele>586.5</ele><time>2026-04-25T10:55:29Z</time></trkpt><trkpt lat="41.98763262709393" lon="1.767663941072644"><ele>585.25</ele><time>2026-04-25T10:55:30Z</time></trkpt><trkpt lat="41.9876790516794" lon="1.7678476361235054"><ele>584.0</ele><time>2026-04-25T10:55:31Z</time></trkpt><trkpt lat="41.98772734985223" lon="1.7680477249456183"><ele>584.0</ele><time>2026-04-25T10:55:32Z</time></trkpt><trkpt lat="41.987793393477624" lon="1.7682139745931547"><ele>584.0</ele><time>2026-04-25T10:55:33Z</time></trkpt><trkpt lat="41.98785512976907" lon="1.7683722636487207"><ele>584.0</ele><time>2026-04-25T10:55:34Z</time></trkpt><trkpt lat="41.98788941679445" lon="1.768527579822354"><ele>584.0</ele><time>2026-04-25T10:55:35Z</time></trkpt><trkpt lat="41.98786911036496" lon="1.7686890131552448"><ele>585.25</ele><time>2026-04-25T10:55:36Z</time></trkpt><trkpt lat="41.987822969655646" lon="1.7688322595344455"><ele>586.5</ele><time>2026-04-25T10:55:37Z</time></trkpt><trkpt lat="41.987751899202095" lon="1.7689766753104836"><ele>587.75</ele><time>2026-04-25T10:55:38Z</time></trkpt><trkpt lat="41.98768240981743" lon="1.7691452764240732"><ele>589.0</ele><time>2026-04-25T10:55:39Z</time></trkpt><trkpt lat="41.98763091019887" lon="1.769341531416733"><ele>589.3333333333334</ele><time>2026-04-25T10:55:40Z</time></trkpt><trkpt lat="41.98757563085535" lon="1.7695522460610549"><ele>589.6666666666666</ele><time>2026-04-25T10:55:41Z</time></trkpt><trkpt lat="41.98750545115608" lon="1.7697360201341692"><ele>590.0</ele><time>2026-04-25T10:55:42Z</time></trkpt><trkpt lat="41.98743735339476" lon="1.7699399550197492"><ele>595.0</ele><time>2026-04-25T10:55:43Z</time></trkpt><trkpt lat="41.987375675963825" lon="1.7701318693971169"><ele>600.0</ele><time>2026-04-25T10:55:44Z</time></trkpt><trkpt lat="41.98733312059119" lon="1.7703435626599984"><ele>605.0</ele><time>2026-04-25T10:55:45Z</time></trkpt><trkpt lat="41.9872657750482" lon="1.7705557763241717"><ele>605.0</ele><time>2026-04-25T10:55:46Z</time></trkpt><trkpt lat="41.9872169611255" lon="1.7707858679586477"><ele>605.0</ele><time>2026-04-25T10:55:47Z</time></trkpt><trkpt lat="41.987188734702485" lon="1.7710262697141186"><ele>605.0</ele><time>2026-04-25T10:55:48Z</time></trkpt><trkpt lat="41.987153597264324" lon="1.7712601289719798"><ele>603.0</ele><time>2026-04-25T10:55:49Z</time></trkpt><trkpt lat="41.98709250643223" lon="1.771467756716926"><ele>601.0</ele><time>2026-04-25T10:55:50Z</time></trkpt><trkpt lat="41.98701834855696" lon="1.7716563968068169"><ele>599.0</ele><time>2026-04-25T10:55:51Z</time></trkpt><trkpt lat="41.98691908476841" lon="1.771827387843622"><ele>599.3333333333333</ele><time>2026-04-25T10:55:52Z</time></trkpt><trkpt lat="41.98680742718604" lon="1.772002722245498"><ele>599.6666666666666</ele><time>2026-04-25T10:55:53Z</time></trkpt><trkpt lat="41.98671502965804" lon="1.7721966754717604"><ele>600.0</ele><time>2026-04-25T10:55:54Z</time></trkpt><trkpt lat="41.98667337048979" lon="1.772411388396515"><ele>605.25</ele><time>2026-04-25T10:55:55Z</time></trkpt><trkpt lat="41.98663561718611" lon="1.772606433506532"><ele>610.5</ele><time>2026-04-25T10:55:56Z</time></trkpt><trkpt lat="41.98651429199324" lon="1.7727325315921825"><ele>615.75</ele><time>2026-04-25T10:55:57Z</time></trkpt><trkpt lat="41.98644148371354" lon="1.7729026498988731"><ele>621.0</ele><time>2026-04-25T10:55:58Z</time></trkpt><trkpt lat="41.98639729256478" lon="1.7730912229675153"><ele>621.0</ele><time>2026-04-25T10:55:59Z</time></trkpt><trkpt lat="41.98638482696518" lon="1.773303064115215"><ele>621.0</ele><time>2026-04-25T10:56:00Z</time></trkpt><trkpt lat="41.98635378260645" lon="1.7735110694564453"><ele>621.0</ele><time>2026-04-25T10:56:01Z</time></trkpt><trkpt lat="41.986299176908936" lon="1.7737174483883853"><ele>620.0</ele><time>2026-04-25T10:56:02Z</time></trkpt><trkpt lat="41.98621487636631" lon="1.7739047641217236"><ele>619.0</ele><time>2026-04-25T10:56:03Z</time></trkpt><trkpt lat="41.98611421163331" lon="1.7740857707846274"><ele>618.0</ele><time>2026-04-25T10:56:04Z</time></trkpt><trkpt lat="41.9860019390921" lon="1.774252650017955"><ele>616.0</ele><time>2026-04-25T10:56:05Z</time></trkpt><trkpt lat="41.98587956275987" lon="1.774410740640606"><ele>614.0</ele><time>2026-04-25T10:56:06Z</time></trkpt><trkpt lat="41.98577930284966" lon="1.7745938209261205"><ele>612.0</ele><time>2026-04-25T10:56:07Z</time></trkpt><trkpt lat="41.985668649357564" lon="1.7747572552668875"><ele>617.6666666666666</ele><time>2026-04-25T10:56:08Z</time></trkpt><trkpt lat="41.98554445760223" lon="1.7748751915516539"><ele>623.3333333333333</ele><time>2026-04-25T10:56:09Z</time></trkpt><trkpt lat="41.98540778292435" lon="1.7749780044503936"><ele>629.0</ele><time>2026-04-25T10:56:10Z</time></trkpt><trkpt lat="41.98526124214644" lon="1.7751067239643938"><ele>631.3333333333333</ele><time>2026-04-25T10:56:11Z</time></trkpt><trkpt lat="41.98514070037013" lon="1.7752706210308553"><ele>633.6666666666666</ele><time>2026-04-25T10:56:12Z</time></trkpt><trkpt lat="41.98505752014058" lon="1.7754602054985518"><ele>636.0</ele><time>2026-04-25T10:56:13Z</time></trkpt><trkpt lat="41.98498268957573" lon="1.7756747914926658"><ele>636.0</ele><time>2026-04-25T10:56:14Z</time></trkpt><trkpt lat="41.98490239606815" lon="1.775897716239055"><ele>636.0</ele><time>2026-04-25T10:56:15Z</time></trkpt><trkpt lat="41.9847971392043" lon="1.776105328379986"><ele>636.0</ele><time>2026-04-25T10:56:16Z</time></trkpt><trkpt lat="41.984692307596106" lon="1.7763065671885876"><ele>635.5</ele><time>2026-04-25T10:56:17Z</time></trkpt><trkpt lat="41.984601518323934" lon="1.7765280509353791"><ele>635.0</ele><time>2026-04-25T10:56:18Z</time></trkpt><trkpt lat="41.98443969218717" lon="1.776962190733534"><ele>635.0</ele><time>2026-04-25T10:56:20Z</time></trkpt><trkpt lat="41.9843821447092" lon="1.7771931300870865"><ele>635.0</ele><time>2026-04-25T10:56:21Z</time></trkpt><trkpt lat="41.984341757337894" lon="1.777418424111915"><ele>635.0</ele><time>2026-04-25T10:56:22Z</time></trkpt><trkpt lat="41.98428172458804" lon="1.7776135869572278"><ele>636.0</ele><time>2026-04-25T10:56:23Z</time></trkpt><trkpt lat="41.984204351645175" lon="1.7777959268785095"><ele>637.0</ele><time>2026-04-25T10:56:24Z</time></trkpt><trkpt lat="41.98410891558803" lon="1.7779751886458874"><ele>638.0</ele><time>2026-04-25T10:56:25Z</time></trkpt><trkpt lat="41.984006636226304" lon="1.7781574866183885"><ele>639.3333333333333</ele><time>2026-04-25T10:56:26Z</time></trkpt><trkpt lat="41.98390713961571" lon="1.7783370912793603"><ele>640.6666666666666</ele><time>2026-04-25T10:56:27Z</time></trkpt><trkpt lat="41.98380487923762" lon="1.7785216840942297"><ele>642.0</ele><time>2026-04-25T10:56:28Z</time></trkpt><trkpt lat="41.98370865353141" lon="1.7786953835788997"><ele>642.0</ele><time>2026-04-25T10:56:29Z</time></trkpt><trkpt lat="41.9836174475968" lon="1.7788862254207944"><ele>642.0</ele><time>2026-04-25T10:56:30Z</time></trkpt><trkpt lat="41.98375407480361" lon="1.7792948205272456"><ele>643.3333333333334</ele><time>2026-04-25T10:56:31Z</time></trkpt><trkpt lat="41.98370137704885" lon="1.7795355492879008"><ele>644.6666666666667</ele><time>2026-04-25T10:56:32Z</time></trkpt><trkpt lat="41.983651997083804" lon="1.77976300058767"><ele>646.0</ele><time>2026-04-25T10:56:33Z</time></trkpt><trkpt lat="41.98358405261891" lon="1.7799345496235228"><ele>646.0</ele><time>2026-04-25T10:56:34Z</time></trkpt><trkpt lat="41.98353793329191" lon="1.7800638870515226"><ele>646.0</ele><time>2026-04-25T10:56:35Z</time></trkpt><trkpt lat="41.983484979098684" lon="1.7801600451859108"><ele>646.0</ele><time>2026-04-25T10:56:36Z</time></trkpt><trkpt lat="41.98344741191882" lon="1.7802400473597675"><ele>646.0</ele><time>2026-04-25T10:56:37Z</time></trkpt><trkpt lat="41.98331113839882" lon="1.780189517425038"><ele>646.0</ele><time>2026-04-25T10:56:39Z</time></trkpt><trkpt lat="41.98322842678218" lon="1.7801388887937717"><ele>647.3333333333334</ele><time>2026-04-25T10:56:40Z</time></trkpt><trkpt lat="41.983148019285125" lon="1.7800808177687168"><ele>648.6666666666667</ele><time>2026-04-25T10:56:41Z</time></trkpt><trkpt lat="41.98307855205181" lon="1.7800179906604148"><ele>650.0</ele><time>2026-04-25T10:56:42Z</time></trkpt><trkpt lat="41.983006238439444" lon="1.7799754356642892"><ele>651.3333333333334</ele><time>2026-04-25T10:56:43Z</time></trkpt><trkpt lat="41.98294485838762" lon="1.7799086306429275"><ele>652.6666666666666</ele><time>2026-04-25T10:56:44Z</time></trkpt><trkpt lat="41.98287369508973" lon="1.779856233250863"><ele>654.0</ele><time>2026-04-25T10:56:45Z</time></trkpt><trkpt lat="41.98280398495175" lon="1.7798048746694155"><ele>654.0</ele><time>2026-04-25T10:56:46Z</time></trkpt><trkpt lat="41.982732748180176" lon="1.7797512516585312"><ele>654.0</ele><time>2026-04-25T10:56:47Z</time></trkpt><trkpt lat="41.98265959152969" lon="1.7796909160149632"><ele>654.0</ele><time>2026-04-25T10:56:48Z</time></trkpt><trkpt lat="41.98257454325692" lon="1.7796422090986739"><ele>654.0</ele><time>2026-04-25T10:56:49Z</time></trkpt><trkpt lat="41.98247394620973" lon="1.7796025563222353"><ele>654.0</ele><time>2026-04-25T10:56:50Z</time></trkpt><trkpt lat="41.98236729065067" lon="1.7795889968060454"><ele>653.75</ele><time>2026-04-25T10:56:51Z</time></trkpt><trkpt lat="41.98225759839011" lon="1.779598523333559"><ele>653.5</ele><time>2026-04-25T10:56:52Z</time></trkpt><trkpt lat="41.98214806107394" lon="1.7796279783196913"><ele>653.25</ele><time>2026-04-25T10:56:53Z</time></trkpt><trkpt lat="41.9820357087419" lon="1.7796826873612404"><ele>653.0</ele><time>2026-04-25T10:56:54Z</time></trkpt><trkpt lat="41.98193904398735" lon="1.7797487185376402"><ele>653.0</ele><time>2026-04-25T10:56:55Z</time></trkpt><trkpt lat="41.981845188294585" lon="1.7798166892077192"><ele>653.0</ele><time>2026-04-25T10:56:56Z</time></trkpt><trkpt lat="41.98174890838228" lon="1.7798688737788837"><ele>653.0</ele><time>2026-04-25T10:56:57Z</time></trkpt><trkpt lat="41.981652852269725" lon="1.7798703000116398"><ele>653.0</ele><time>2026-04-25T10:56:58Z</time></trkpt><trkpt lat="41.98156153713843" lon="1.7798180199037514"><ele>653.0</ele><time>2026-04-25T10:56:59Z</time></trkpt><trkpt lat="41.981450863196386" lon="1.7797634122032815"><ele>653.0</ele><time>2026-04-25T10:57:00Z</time></trkpt><trkpt lat="41.981333621917514" lon="1.7797103350578527"><ele>653.0</ele><time>2026-04-25T10:57:01Z</time></trkpt><trkpt lat="41.98120384931065" lon="1.779675002115512"><ele>653.0</ele><time>2026-04-25T10:57:02Z</time></trkpt><trkpt lat="41.98106766690446" lon="1.779586679321726"><ele>653.0</ele><time>2026-04-25T10:57:03Z</time></trkpt><trkpt lat="41.9809221573313" lon="1.7795145092064004"><ele>651.6666666666666</ele><time>2026-04-25T10:57:04Z</time></trkpt><trkpt lat="41.980774033464016" lon="1.7794454398466124"><ele>650.3333333333334</ele><time>2026-04-25T10:57:05Z</time></trkpt><trkpt lat="41.980630878362945" lon="1.7794347197584017"><ele>649.0</ele><time>2026-04-25T10:57:06Z</time></trkpt><trkpt lat="41.98048102854853" lon="1.7794218399489286"><ele>649.0</ele><time>2026-04-25T10:57:07Z</time></trkpt><trkpt lat="41.9803336493382" lon="1.7795088914441284"><ele>649.0</ele><time>2026-04-25T10:57:08Z</time></trkpt><trkpt lat="41.9801946167215" lon="1.7796189217074738"><ele>649.0</ele><time>2026-04-25T10:57:09Z</time></trkpt><trkpt lat="41.980079789137136" lon="1.7797767587968971"><ele>649.0</ele><time>2026-04-25T10:57:10Z</time></trkpt><trkpt lat="41.97995425946007" lon="1.7799141370907599"><ele>649.0</ele><time>2026-04-25T10:57:11Z</time></trkpt><trkpt lat="41.97983234682842" lon="1.7800540466616228"><ele>649.0</ele><time>2026-04-25T10:57:12Z</time></trkpt><trkpt lat="41.97972562268698" lon="1.780191746988726"><ele>649.0</ele><time>2026-04-25T10:57:13Z</time></trkpt><trkpt lat="41.97962445985547" lon="1.7803413780357122"><ele>649.0</ele><time>2026-04-25T10:57:14Z</time></trkpt><trkpt lat="41.97952723845948" lon="1.7804893798505856"><ele>649.0</ele><time>2026-04-25T10:57:15Z</time></trkpt><trkpt lat="41.97943087459273" lon="1.7806200444500386"><ele>649.0</ele><time>2026-04-25T10:57:16Z</time></trkpt><trkpt lat="41.9793257615411" lon="1.780742985059594"><ele>649.0</ele><time>2026-04-25T10:57:17Z</time></trkpt><trkpt lat="41.97921313513573" lon="1.7808626986975895"><ele>649.0</ele><time>2026-04-25T10:57:18Z</time></trkpt><trkpt lat="41.979092202964715" lon="1.7809280126414904"><ele>649.0</ele><time>2026-04-25T10:57:19Z</time></trkpt><trkpt lat="41.97896193567788" lon="1.7810017637844766"><ele>649.0</ele><time>2026-04-25T10:57:20Z</time></trkpt><trkpt lat="41.97882771299547" lon="1.781097580834699"><ele>650.0</ele><time>2026-04-25T10:57:21Z</time></trkpt><trkpt lat="41.97870611871899" lon="1.7812296450866434"><ele>651.0</ele><time>2026-04-25T10:57:22Z</time></trkpt><trkpt lat="41.97857082676671" lon="1.781362125755946"><ele>652.0</ele><time>2026-04-25T10:57:23Z</time></trkpt><trkpt lat="41.97843060108073" lon="1.7814702936661642"><ele>653.5</ele><time>2026-04-25T10:57:24Z</time></trkpt><trkpt lat="41.97830699101455" lon="1.7815615122060713"><ele>655.0</ele><time>2026-04-25T10:57:25Z</time></trkpt><trkpt lat="41.97818687055944" lon="1.7816314049523807"><ele>656.5</ele><time>2026-04-25T10:57:26Z</time></trkpt><trkpt lat="41.97806857818621" lon="1.781702294248481"><ele>658.0</ele><time>2026-04-25T10:57:27Z</time></trkpt><trkpt lat="41.97796477546002" lon="1.7818278889668413"><ele>654.6666666666667</ele><time>2026-04-25T10:57:28Z</time></trkpt><trkpt lat="41.977903321519904" lon="1.7820073692255556"><ele>651.3333333333334</ele><time>2026-04-25T10:57:29Z</time></trkpt><trkpt lat="41.97784270658751" lon="1.7821957829299178"><ele>648.0</ele><time>2026-04-25T10:57:30Z</time></trkpt><trkpt lat="41.977777401394675" lon="1.7824013820174092"><ele>648.0</ele><time>2026-04-25T10:57:31Z</time></trkpt><trkpt lat="41.97770203248959" lon="1.7826070749228973"><ele>648.0</ele><time>2026-04-25T10:57:32Z</time></trkpt><trkpt lat="41.97760610055542" lon="1.7828067829259502"><ele>648.0</ele><time>2026-04-25T10:57:33Z</time></trkpt><trkpt lat="41.97751906953646" lon="1.783017605956682"><ele>648.0</ele><time>2026-04-25T10:57:34Z</time></trkpt><trkpt lat="41.977437893923934" lon="1.7832383878741527"><ele>648.0</ele><time>2026-04-25T10:57:35Z</time></trkpt><trkpt lat="41.977392061622226" lon="1.7834664497478387"><ele>648.0</ele><time>2026-04-25T10:57:36Z</time></trkpt><trkpt lat="41.97733546492623" lon="1.7837024160963526"><ele>647.6666666666666</ele><time>2026-04-25T10:57:37Z</time></trkpt><trkpt lat="41.97727955647392" lon="1.7839223823930934"><ele>647.3333333333333</ele><time>2026-04-25T10:57:38Z</time></trkpt><trkpt lat="41.97721931360312" lon="1.7841361516388736"><ele>647.0</ele><time>2026-04-25T10:57:39Z</time></trkpt><trkpt lat="41.977163106223095" lon="1.784351522018525"><ele>645.6666666666666</ele><time>2026-04-25T10:57:40Z</time></trkpt><trkpt lat="41.97709041269127" lon="1.7845640372204592"><ele>644.3333333333334</ele><time>2026-04-25T10:57:41Z</time></trkpt><trkpt lat="41.97702735294532" lon="1.7847829361577645"><ele>643.0</ele><time>2026-04-25T10:57:42Z</time></trkpt><trkpt lat="41.97696631754681" lon="1.784983647312755"><ele>642.3333333333334</ele><time>2026-04-25T10:57:43Z</time></trkpt><trkpt lat="41.97690902857207" lon="1.785179256397012"><ele>641.6666666666666</ele><time>2026-04-25T10:57:44Z</time></trkpt><trkpt lat="41.976854029540675" lon="1.7853814508880819"><ele>641.0</ele><time>2026-04-25T10:57:45Z</time></trkpt><trkpt lat="41.97681158167848" lon="1.7856030490387997"><ele>641.0</ele><time>2026-04-25T10:57:46Z</time></trkpt><trkpt lat="41.976756646248056" lon="1.7858158454093307"><ele>641.0</ele><time>2026-04-25T10:57:47Z</time></trkpt><trkpt lat="41.97668427335029" lon="1.786008652147207"><ele>641.0</ele><time>2026-04-25T10:57:48Z</time></trkpt><trkpt lat="41.97662587504387" lon="1.786199259674444"><ele>639.25</ele><time>2026-04-25T10:57:49Z</time></trkpt><trkpt lat="41.976566192547" lon="1.786381900855552"><ele>637.5</ele><time>2026-04-25T10:57:50Z</time></trkpt><trkpt lat="41.976485731036725" lon="1.7865268286759401"><ele>635.75</ele><time>2026-04-25T10:57:51Z</time></trkpt><trkpt lat="41.9763810304113" lon="1.7866305055086649"><ele>634.0</ele><time>2026-04-25T10:57:52Z</time></trkpt><trkpt lat="41.976260421009684" lon="1.7867166003574564"><ele>634.0</ele><time>2026-04-25T10:57:53Z</time></trkpt><trkpt lat="41.97614239582313" lon="1.7868100774794484"><ele>634.0</ele><time>2026-04-25T10:57:54Z</time></trkpt><trkpt lat="41.97603008704902" lon="1.7868845170434757"><ele>634.0</ele><time>2026-04-25T10:57:55Z</time></trkpt><trkpt lat="41.97590635528144" lon="1.7869181814163018"><ele>634.0</ele><time>2026-04-25T10:57:56Z</time></trkpt><trkpt lat="41.97576211942574" lon="1.786962468211156"><ele>630.6666666666667</ele><time>2026-04-25T10:57:57Z</time></trkpt><trkpt lat="41.97561581942756" lon="1.7870375486079022"><ele>627.3333333333334</ele><time>2026-04-25T10:57:58Z</time></trkpt><trkpt lat="41.97545862242516" lon="1.7870719970398352"><ele>624.0</ele><time>2026-04-25T10:57:59Z</time></trkpt><trkpt lat="41.975311987081646" lon="1.7871273659022209"><ele>624.0</ele><time>2026-04-25T10:58:00Z</time></trkpt><trkpt lat="41.97516303256383" lon="1.7871836104968442"><ele>624.0</ele><time>2026-04-25T10:58:01Z</time></trkpt><trkpt lat="41.97501719683546" lon="1.7872485968658067"><ele>624.0</ele><time>2026-04-25T10:58:02Z</time></trkpt><trkpt lat="41.9748933349564" lon="1.7873644576343002"><ele>623.3333333333334</ele><time>2026-04-25T10:58:03Z</time></trkpt><trkpt lat="41.9747656726603" lon="1.7874898300196325"><ele>622.6666666666667</ele><time>2026-04-25T10:58:04Z</time></trkpt><trkpt lat="41.97464506305056" lon="1.7876352338135202"><ele>622.0</ele><time>2026-04-25T10:58:05Z</time></trkpt><trkpt lat="41.97453153690313" lon="1.7877854635134611"><ele>619.3333333333334</ele><time>2026-04-25T10:58:06Z</time></trkpt><trkpt lat="41.97442416214197" lon="1.7879456072210695"><ele>616.6666666666666</ele><time>2026-04-25T10:58:07Z</time></trkpt><trkpt lat="41.97432182528745" lon="1.7881227568744835"><ele>614.0</ele><time>2026-04-25T10:58:08Z</time></trkpt><trkpt lat="41.974203270128754" lon="1.7882815767720668"><ele>615.3333333333333</ele><time>2026-04-25T10:58:09Z</time></trkpt><trkpt lat="41.974096764852206" lon="1.7884490063785978"><ele>616.6666666666666</ele><time>2026-04-25T10:58:10Z</time></trkpt><trkpt lat="41.97398893840599" lon="1.7885916120051666"><ele>618.0</ele><time>2026-04-25T10:58:11Z</time></trkpt><trkpt lat="41.973873261901325" lon="1.788728335504254"><ele>618.0</ele><time>2026-04-25T10:58:12Z</time></trkpt><trkpt lat="41.97375279886489" lon="1.7888710235980088"><ele>618.0</ele><time>2026-04-25T10:58:13Z</time></trkpt><trkpt lat="41.97363098617656" lon="1.7890164995883"><ele>618.0</ele><time>2026-04-25T10:58:14Z</time></trkpt><trkpt lat="41.973525933725874" lon="1.7891842825263289"><ele>618.0</ele><time>2026-04-25T10:58:15Z</time></trkpt><trkpt lat="41.97340324950803" lon="1.7893102459969916"><ele>618.0</ele><time>2026-04-25T10:58:16Z</time></trkpt><trkpt lat="41.973294914620865" lon="1.7894348024516"><ele>618.0</ele><time>2026-04-25T10:58:17Z</time></trkpt><trkpt lat="41.97317665907448" lon="1.789521496735807"><ele>618.0</ele><time>2026-04-25T10:58:18Z</time></trkpt><trkpt lat="41.973054126578226" lon="1.7895904851252442"><ele>617.25</ele><time>2026-04-25T10:58:19Z</time></trkpt><trkpt lat="41.9729357853875" lon="1.7896674623151012"><ele>616.5</ele><time>2026-04-25T10:58:20Z</time></trkpt><trkpt lat="41.97285118232257" lon="1.7898093331323466"><ele>615.75</ele><time>2026-04-25T10:58:21Z</time></trkpt><trkpt lat="41.97279044599692" lon="1.7899852049707803"><ele>615.0</ele><time>2026-04-25T10:58:22Z</time></trkpt><trkpt lat="41.972748115107464" lon="1.790176308770041"><ele>614.75</ele><time>2026-04-25T10:58:23Z</time></trkpt><trkpt lat="41.9726812105329" lon="1.7903500241092558"><ele>614.5</ele><time>2026-04-25T10:58:24Z</time></trkpt><trkpt lat="41.97258871138477" lon="1.7905103367611057"><ele>614.25</ele><time>2026-04-25T10:58:25Z</time></trkpt><trkpt lat="41.972512800594956" lon="1.790664130442089"><ele>614.0</ele><time>2026-04-25T10:58:26Z</time></trkpt><trkpt lat="41.97241480523708" lon="1.7908404992332807"><ele>614.25</ele><time>2026-04-25T10:58:27Z</time></trkpt><trkpt lat="41.972323406429375" lon="1.7909716480459847"><ele>614.5</ele><time>2026-04-25T10:58:28Z</time></trkpt><trkpt lat="41.972217583665476" lon="1.791071965825601"><ele>614.75</ele><time>2026-04-25T10:58:29Z</time></trkpt><trkpt lat="41.97210938332006" lon="1.7911174098218754"><ele>615.0</ele><time>2026-04-25T10:58:30Z</time></trkpt><trkpt lat="41.972012460996154" lon="1.7910991286767086"><ele>615.0</ele><time>2026-04-25T10:58:31Z</time></trkpt><trkpt lat="41.97190611585563" lon="1.7910497468198048"><ele>615.0</ele><time>2026-04-25T10:58:32Z</time></trkpt><trkpt lat="41.97178887966305" lon="1.790979342559357"><ele>615.0</ele><time>2026-04-25T10:58:33Z</time></trkpt><trkpt lat="41.97165915748623" lon="1.7909000871105583"><ele>615.0</ele><time>2026-04-25T10:58:34Z</time></trkpt><trkpt lat="41.971545660699974" lon="1.7908377171745913"><ele>616.6</ele><time>2026-04-25T10:58:35Z</time></trkpt><trkpt lat="41.971449554310595" lon="1.790817298980785"><ele>618.2</ele><time>2026-04-25T10:58:36Z</time></trkpt><trkpt lat="41.97136668348225" lon="1.7908273849053222"><ele>619.8</ele><time>2026-04-25T10:58:37Z</time></trkpt><trkpt lat="41.97127487412181" lon="1.7909017043243878"><ele>621.4</ele><time>2026-04-25T10:58:38Z</time></trkpt><trkpt lat="41.971202091936966" lon="1.791030673182482"><ele>623.0</ele><time>2026-04-25T10:58:39Z</time></trkpt><trkpt lat="41.971162508761495" lon="1.7911900189601242"><ele>623.0</ele><time>2026-04-25T10:58:40Z</time></trkpt><trkpt lat="41.971157511701776" lon="1.7913665108231247"><ele>623.0</ele><time>2026-04-25T10:58:41Z</time></trkpt><trkpt lat="41.97116736522633" lon="1.791552458113553"><ele>623.0</ele><time>2026-04-25T10:58:42Z</time></trkpt><trkpt lat="41.97117166017504" lon="1.791758282671836"><ele>623.0</ele><time>2026-04-25T10:58:43Z</time></trkpt><trkpt lat="41.971138242937954" lon="1.7919747133481732"><ele>622.75</ele><time>2026-04-25T10:58:44Z</time></trkpt><trkpt lat="41.97110277689456" lon="1.7921953951869474"><ele>622.5</ele><time>2026-04-25T10:58:45Z</time></trkpt><trkpt lat="41.971064656111345" lon="1.7923804629983948"><ele>622.25</ele><time>2026-04-25T10:58:46Z</time></trkpt><trkpt lat="41.97101775182776" lon="1.7925291308525644"><ele>622.0</ele><time>2026-04-25T10:58:47Z</time></trkpt><trkpt lat="41.97095378367434" lon="1.7926658387879795"><ele>623.25</ele><time>2026-04-25T10:58:48Z</time></trkpt><trkpt lat="41.97087778441627" lon="1.792803723588539"><ele>624.5</ele><time>2026-04-25T10:58:49Z</time></trkpt><trkpt lat="41.97079030383213" lon="1.7928983069828806"><ele>625.75</ele><time>2026-04-25T10:58:50Z</time></trkpt><trkpt lat="41.970662427541335" lon="1.7928885491764417"><ele>627.0</ele><time>2026-04-25T10:58:51Z</time></trkpt><trkpt lat="41.97053253523557" lon="1.7929102506640626"><ele>628.3333333333334</ele><time>2026-04-25T10:58:52Z</time></trkpt><trkpt lat="41.970382493261305" lon="1.7929112824291835"><ele>629.6666666666667</ele><time>2026-04-25T10:58:53Z</time></trkpt><trkpt lat="41.97022432681417" lon="1.792896304262235"><ele>631.0</ele><time>2026-04-25T10:58:54Z</time></trkpt><trkpt lat="41.97007539916186" lon="1.792879759512693"><ele>630.75</ele><time>2026-04-25T10:58:55Z</time></trkpt><trkpt lat="41.96994058728024" lon="1.7928860862626934"><ele>630.5</ele><time>2026-04-25T10:58:56Z</time></trkpt><trkpt lat="41.96980237090202" lon="1.79288588246451"><ele>630.25</ele><time>2026-04-25T10:58:57Z</time></trkpt><trkpt lat="41.96966987964436" lon="1.792912546508681"><ele>630.0</ele><time>2026-04-25T10:58:58Z</time></trkpt><trkpt lat="41.96955177697433" lon="1.7929763723243493"><ele>630.0</ele><time>2026-04-25T10:58:59Z</time></trkpt><trkpt lat="41.96943900048706" lon="1.7930932997002507"><ele>630.0</ele><time>2026-04-25T10:59:00Z</time></trkpt><trkpt lat="41.96934301467931" lon="1.7932537611528157"><ele>630.0</ele><time>2026-04-25T10:59:01Z</time></trkpt><trkpt lat="41.969260204334326" lon="1.7934335251556743"><ele>627.75</ele><time>2026-04-25T10:59:02Z</time></trkpt><trkpt lat="41.96920037600741" lon="1.7936087316291152"><ele>625.5</ele><time>2026-04-25T10:59:03Z</time></trkpt><trkpt lat="41.96914278178174" lon="1.7937449379046624"><ele>623.25</ele><time>2026-04-25T10:59:04Z</time></trkpt><trkpt lat="41.96905892444044" lon="1.793838987450023"><ele>621.0</ele><time>2026-04-25T10:59:05Z</time></trkpt><trkpt lat="41.968954287702026" lon="1.793911946873524"><ele>621.0</ele><time>2026-04-25T10:59:06Z</time></trkpt><trkpt lat="41.96883533874873" lon="1.793992001581077"><ele>621.0</ele><time>2026-04-25T10:59:07Z</time></trkpt><trkpt lat="41.9687040114608" lon="1.7940589117708556"><ele>621.0</ele><time>2026-04-25T10:59:08Z</time></trkpt><trkpt lat="41.968565392528234" lon="1.7941083236649933"><ele>621.0</ele><time>2026-04-25T10:59:09Z</time></trkpt><trkpt lat="41.96843744917061" lon="1.794145472430923"><ele>621.75</ele><time>2026-04-25T10:59:10Z</time></trkpt><trkpt lat="41.968326393277124" lon="1.794171059109699"><ele>622.5</ele><time>2026-04-25T10:59:11Z</time></trkpt><trkpt lat="41.96821455190694" lon="1.7941841678259043"><ele>623.25</ele><time>2026-04-25T10:59:12Z</time></trkpt><trkpt lat="41.968104272886926" lon="1.7941714732873961"><ele>624.0</ele><time>2026-04-25T10:59:13Z</time></trkpt><trkpt lat="41.96798070098699" lon="1.7941445934332256"><ele>624.0</ele><time>2026-04-25T10:59:14Z</time></trkpt><trkpt lat="41.96786001765972" lon="1.7941342797400779"><ele>624.0</ele><time>2026-04-25T10:59:15Z</time></trkpt><trkpt lat="41.96775183755416" lon="1.79411886573828"><ele>624.0</ele><time>2026-04-25T10:59:16Z</time></trkpt><trkpt lat="41.96764338447591" lon="1.7941516496800136"><ele>624.0</ele><time>2026-04-25T10:59:17Z</time></trkpt><trkpt lat="41.96755636465159" lon="1.7942338634726274"><ele>624.0</ele><time>2026-04-25T10:59:18Z</time></trkpt><trkpt lat="41.96748463824486" lon="1.794356821926263"><ele>624.0</ele><time>2026-04-25T10:59:19Z</time></trkpt><trkpt lat="41.96743672968157" lon="1.7945233918265584"><ele>624.0</ele><time>2026-04-25T10:59:20Z</time></trkpt><trkpt lat="41.967430274336756" lon="1.7947019763671108"><ele>624.0</ele><time>2026-04-25T10:59:21Z</time></trkpt><trkpt lat="41.96743562385305" lon="1.794873429281662"><ele>624.0</ele><time>2026-04-25T10:59:22Z</time></trkpt><trkpt lat="41.96748562513233" lon="1.7950419561203237"><ele>623.6</ele><time>2026-04-25T10:59:23Z</time></trkpt><trkpt lat="41.9675274361654" lon="1.79518346494972"><ele>623.2</ele><time>2026-04-25T10:59:24Z</time></trkpt><trkpt lat="41.96750717376348" lon="1.7953022783102475"><ele>622.8000000000001</ele><time>2026-04-25T10:59:25Z</time></trkpt><trkpt lat="41.96747258088249" lon="1.7954087802030525"><ele>622.4</ele><time>2026-04-25T10:59:26Z</time></trkpt><trkpt lat="41.967382444356836" lon="1.7954862137213874"><ele>622.0</ele><time>2026-04-25T10:59:27Z</time></trkpt><trkpt lat="41.967302126435825" lon="1.7956110022988117"><ele>622.0</ele><time>2026-04-25T10:59:28Z</time></trkpt><trkpt lat="41.967232842858834" lon="1.795754085445314"><ele>622.0</ele><time>2026-04-25T10:59:29Z</time></trkpt><trkpt lat="41.96718076758037" lon="1.7959059083349844"><ele>622.0</ele><time>2026-04-25T10:59:30Z</time></trkpt><trkpt lat="41.9671288484338" lon="1.796085556019884"><ele>622.0</ele><time>2026-04-25T10:59:31Z</time></trkpt><trkpt lat="41.9670950687128" lon="1.7962761848256892"><ele>621.75</ele><time>2026-04-25T10:59:32Z</time></trkpt><trkpt lat="41.96705786870633" lon="1.7964727981797226"><ele>621.5</ele><time>2026-04-25T10:59:33Z</time></trkpt><trkpt lat="41.96701727373732" lon="1.796663871811207"><ele>621.25</ele><time>2026-04-25T10:59:34Z</time></trkpt><trkpt lat="41.96695943151985" lon="1.7968395222793054"><ele>621.0</ele><time>2026-04-25T10:59:35Z</time></trkpt><trkpt lat="41.96688996681515" lon="1.7970199030166258"><ele>620.5</ele><time>2026-04-25T10:59:36Z</time></trkpt><trkpt lat="41.96681597155566" lon="1.7972337250679382"><ele>620.0</ele><time>2026-04-25T10:59:37Z</time></trkpt><trkpt lat="41.96679077556634" lon="1.7974065097278156"><ele>619.5</ele><time>2026-04-25T10:59:38Z</time></trkpt><trkpt lat="41.96673717410846" lon="1.7975758110684759"><ele>619.0</ele><time>2026-04-25T10:59:39Z</time></trkpt><trkpt lat="41.966683395689245" lon="1.7977360781988223"><ele>621.5</ele><time>2026-04-25T10:59:40Z</time></trkpt><trkpt lat="41.96660629178923" lon="1.79788268647006"><ele>624.0</ele><time>2026-04-25T10:59:41Z</time></trkpt><trkpt lat="41.966498843797766" lon="1.7980209820616593"><ele>626.5</ele><time>2026-04-25T10:59:42Z</time></trkpt><trkpt lat="41.96638741086086" lon="1.7981672894115075"><ele>629.0</ele><time>2026-04-25T10:59:43Z</time></trkpt><trkpt lat="41.9663138705076" lon="1.7983463429917363"><ele>628.0</ele><time>2026-04-25T10:59:44Z</time></trkpt><trkpt lat="41.966251412022444" lon="1.7985375249460236"><ele>627.0</ele><time>2026-04-25T10:59:45Z</time></trkpt><trkpt lat="41.96618177978815" lon="1.798733237393215"><ele>626.0</ele><time>2026-04-25T10:59:46Z</time></trkpt><trkpt lat="41.96610760455239" lon="1.7989187665230737"><ele>626.0</ele><time>2026-04-25T10:59:47Z</time></trkpt><trkpt lat="41.96601476124296" lon="1.7990533320934372"><ele>626.0</ele><time>2026-04-25T10:59:48Z</time></trkpt><trkpt lat="41.96590069664554" lon="1.7991921601656"><ele>626.0</ele><time>2026-04-25T10:59:49Z</time></trkpt><trkpt lat="41.96578375919138" lon="1.7993174137166097"><ele>626.0</ele><time>2026-04-25T10:59:50Z</time></trkpt><trkpt lat="41.96567823575147" lon="1.7994131647775464"><ele>624.0</ele><time>2026-04-25T10:59:51Z</time></trkpt><trkpt lat="41.96557215981699" lon="1.799451353790442"><ele>622.0</ele><time>2026-04-25T10:59:52Z</time></trkpt><trkpt lat="41.965466999059345" lon="1.799417263895951"><ele>620.0</ele><time>2026-04-25T10:59:53Z</time></trkpt><trkpt lat="41.96531895862411" lon="1.7993854123646054"><ele>618.0</ele><time>2026-04-25T10:59:54Z</time></trkpt><trkpt lat="41.965160592746855" lon="1.7993828850660782"><ele>617.3333333333334</ele><time>2026-04-25T10:59:55Z</time></trkpt><trkpt lat="41.96499092191948" lon="1.7993871470606158"><ele>616.6666666666667</ele><time>2026-04-25T10:59:56Z</time></trkpt><trkpt lat="41.96482193966029" lon="1.799403596115674"><ele>616.0</ele><time>2026-04-25T10:59:57Z</time></trkpt><trkpt lat="41.96467613188637" lon="1.799454212395587"><ele>616.0</ele><time>2026-04-25T10:59:58Z</time></trkpt><trkpt lat="41.96456037811368" lon="1.799488679700953"><ele>616.0</ele><time>2026-04-25T10:59:59Z</time></trkpt><trkpt lat="41.964457577693075" lon="1.7994880139760498"><ele>616.0</ele><time>2026-04-25T11:00:00Z</time></trkpt><trkpt lat="41.96435011474792" lon="1.7994579213491066"><ele>616.0</ele><time>2026-04-25T11:00:01Z</time></trkpt><trkpt lat="41.96425944481959" lon="1.79936244664008"><ele>616.0</ele><time>2026-04-25T11:00:02Z</time></trkpt><trkpt lat="41.96416090330518" lon="1.7992622260535165"><ele>618.0</ele><time>2026-04-25T11:00:03Z</time></trkpt><trkpt lat="41.964067132507225" lon="1.7992058204036758"><ele>620.0</ele><time>2026-04-25T11:00:04Z</time></trkpt><trkpt lat="41.96395360714835" lon="1.7992279508730542"><ele>622.0</ele><time>2026-04-25T11:00:05Z</time></trkpt><trkpt lat="41.96385019636629" lon="1.7993340072185948"><ele>624.0</ele><time>2026-04-25T11:00:06Z</time></trkpt><trkpt lat="41.96374854178832" lon="1.799446757780333"><ele>619.5</ele><time>2026-04-25T11:00:07Z</time></trkpt><trkpt lat="41.963642354300724" lon="1.799578476506076"><ele>615.0</ele><time>2026-04-25T11:00:08Z</time></trkpt><trkpt lat="41.96352195404477" lon="1.7996935116834685"><ele>610.5</ele><time>2026-04-25T11:00:09Z</time></trkpt><trkpt lat="41.96338767589243" lon="1.7997996363223143"><ele>606.0</ele><time>2026-04-25T11:00:10Z</time></trkpt><trkpt lat="41.96324473165783" lon="1.7999018017078032"><ele>605.3333333333334</ele><time>2026-04-25T11:00:11Z</time></trkpt><trkpt lat="41.96309491117858" lon="1.8000165675742477"><ele>604.6666666666667</ele><time>2026-04-25T11:00:12Z</time></trkpt><trkpt lat="41.962952035102965" lon="1.800147246940262"><ele>604.0</ele><time>2026-04-25T11:00:13Z</time></trkpt><trkpt lat="41.96281500038329" lon="1.8002680685784405"><ele>601.0</ele><time>2026-04-25T11:00:14.001Z</time></trkpt><trkpt lat="41.962678776970876" lon="1.800365604713858"><ele>598.0</ele><time>2026-04-25T11:00:15.001Z</time></trkpt><trkpt lat="41.96252664177483" lon="1.800451769692376"><ele>595.0</ele><time>2026-04-25T11:00:16.001Z</time></trkpt><trkpt lat="41.96238537499524" lon="1.800535818717501"><ele>595.0</ele><time>2026-04-25T11:00:17.001Z</time></trkpt><trkpt lat="41.96228532721011" lon="1.8006588732172821"><ele>595.0</ele><time>2026-04-25T11:00:18.001Z</time></trkpt><trkpt lat="41.96220430219458" lon="1.800790676004869"><ele>595.0</ele><time>2026-04-25T11:00:19.001Z</time></trkpt><trkpt lat="41.96216251455345" lon="1.8009545563431084"><ele>595.0</ele><time>2026-04-25T11:00:20.001Z</time></trkpt><trkpt lat="41.962155016463946" lon="1.8011391654792537"><ele>593.0</ele><time>2026-04-25T11:00:21.001Z</time></trkpt><trkpt lat="41.962118075879516" lon="1.8013160119251035"><ele>591.0</ele><time>2026-04-25T11:00:22.001Z</time></trkpt><trkpt lat="41.96205179118506" lon="1.801456167440759"><ele>589.0</ele><time>2026-04-25T11:00:23.001Z</time></trkpt><trkpt lat="41.96195014613244" lon="1.8015197000003134"><ele>587.0</ele><time>2026-04-25T11:00:24.001Z</time></trkpt><trkpt lat="41.96184078882786" lon="1.8015563397707715"><ele>587.0</ele><time>2026-04-25T11:00:25.001Z</time></trkpt><trkpt lat="41.96170174740166" lon="1.8016120970156457"><ele>587.0</ele><time>2026-04-25T11:00:26.001Z</time></trkpt><trkpt lat="41.96154861050372" lon="1.8016967304540448"><ele>587.0</ele><time>2026-04-25T11:00:27.001Z</time></trkpt><trkpt lat="41.96138775811869" lon="1.8017530151465122"><ele>587.25</ele><time>2026-04-25T11:00:28.001Z</time></trkpt><trkpt lat="41.96124640193562" lon="1.801817712400645"><ele>587.5</ele><time>2026-04-25T11:00:29.001Z</time></trkpt><trkpt lat="41.96111667736474" lon="1.8018750261170813"><ele>587.75</ele><time>2026-04-25T11:00:30.001Z</time></trkpt><trkpt lat="41.96101301343285" lon="1.8020150287655434"><ele>588.0</ele><time>2026-04-25T11:00:31.001Z</time></trkpt><trkpt lat="41.96090884839508" lon="1.8021778802317594"><ele>590.25</ele><time>2026-04-25T11:00:32.001Z</time></trkpt><trkpt lat="41.96080492432969" lon="1.8023504637208636"><ele>592.5</ele><time>2026-04-25T11:00:33.001Z</time></trkpt><trkpt lat="41.96072400519647" lon="1.8025048647404063"><ele>594.75</ele><time>2026-04-25T11:00:34.001Z</time></trkpt><trkpt lat="41.96067165127256" lon="1.8026735335353092"><ele>597.0</ele><time>2026-04-25T11:00:35.001Z</time></trkpt><trkpt lat="41.96066152683457" lon="1.8028765072081325"><ele>597.0</ele><time>2026-04-25T11:00:36.001Z</time></trkpt><trkpt lat="41.96066354655698" lon="1.8030788742466852"><ele>597.0</ele><time>2026-04-25T11:00:37.001Z</time></trkpt><trkpt lat="41.960618578975996" lon="1.8032633494591672"><ele>597.0</ele><time>2026-04-25T11:00:38.001Z</time></trkpt><trkpt lat="41.96057176826527" lon="1.8034158594093093"><ele>597.0</ele><time>2026-04-25T11:00:39.001Z</time></trkpt><trkpt lat="41.960489992169634" lon="1.803575666242877"><ele>595.6666666666666</ele><time>2026-04-25T11:00:40.001Z</time></trkpt><trkpt lat="41.96039212620012" lon="1.8037216969678658"><ele>594.3333333333333</ele><time>2026-04-25T11:00:41.001Z</time></trkpt><trkpt lat="41.96028243315194" lon="1.8038590752239305"><ele>593.0</ele><time>2026-04-25T11:00:42.001Z</time></trkpt><trkpt lat="41.96016264042118" lon="1.8039963576872422"><ele>593.0</ele><time>2026-04-25T11:00:43.001Z</time></trkpt><trkpt lat="41.96004514165148" lon="1.8041488215300931"><ele>593.0</ele><time>2026-04-25T11:00:44.001Z</time></trkpt><trkpt lat="41.95995447244911" lon="1.8043326691331432"><ele>593.0</ele><time>2026-04-25T11:00:45.001Z</time></trkpt><trkpt lat="41.95984225334029" lon="1.8045007054546442"><ele>597.3333333333333</ele><time>2026-04-25T11:00:46.001Z</time></trkpt><trkpt lat="41.95973869341936" lon="1.8046856518928445"><ele>601.6666666666666</ele><time>2026-04-25T11:00:47.001Z</time></trkpt><trkpt lat="41.95963246514936" lon="1.8048730066724235"><ele>606.0</ele><time>2026-04-25T11:00:48.001Z</time></trkpt><trkpt lat="41.95952250561794" lon="1.8050666713748555"><ele>604.6666666666666</ele><time>2026-04-25T11:00:49Z</time></trkpt><trkpt lat="41.95941293277746" lon="1.8052681118132805"><ele>603.3333333333333</ele><time>2026-04-25T11:00:50Z</time></trkpt><trkpt lat="41.95933055805349" lon="1.805484699615494"><ele>602.0</ele><time>2026-04-25T11:00:51Z</time></trkpt><trkpt lat="41.95925900990407" lon="1.8056959372846562"><ele>602.0</ele><time>2026-04-25T11:00:52Z</time></trkpt><trkpt lat="41.959208011726474" lon="1.805908518568434"><ele>602.0</ele><time>2026-04-25T11:00:53Z</time></trkpt><trkpt lat="41.959172175320944" lon="1.8061179078884273"><ele>602.0</ele><time>2026-04-25T11:00:54Z</time></trkpt><trkpt lat="41.95910973182476" lon="1.806297038135233"><ele>606.0</ele><time>2026-04-25T11:00:55Z</time></trkpt><trkpt lat="41.959034219361456" lon="1.8064661463311316"><ele>610.0</ele><time>2026-04-25T11:00:56Z</time></trkpt><trkpt lat="41.958932494863895" lon="1.8066120769809748"><ele>614.0</ele><time>2026-04-25T11:00:57Z</time></trkpt><trkpt lat="41.95881508886478" lon="1.8067569951747044"><ele>613.0</ele><time>2026-04-25T11:00:58Z</time></trkpt><trkpt lat="41.95869382452211" lon="1.8069092420304125"><ele>612.0</ele><time>2026-04-25T11:00:59Z</time></trkpt><trkpt lat="41.95857241489531" lon="1.8070672855938525"><ele>611.0</ele><time>2026-04-25T11:01:00Z</time></trkpt><trkpt lat="41.95845426384272" lon="1.8072313224531127"><ele>611.3333333333333</ele><time>2026-04-25T11:01:01Z</time></trkpt><trkpt lat="41.958341876479444" lon="1.807411426338938"><ele>611.6666666666666</ele><time>2026-04-25T11:01:02Z</time></trkpt><trkpt lat="41.958237703554616" lon="1.8076048693262012"><ele>612.0</ele><time>2026-04-25T11:01:03Z</time></trkpt><trkpt lat="41.95814607888411" lon="1.8078015194905044"><ele>612.0</ele><time>2026-04-25T11:01:04Z</time></trkpt><trkpt lat="41.95808321790945" lon="1.8079850124338468"><ele>612.0</ele><time>2026-04-25T11:01:05Z</time></trkpt><trkpt lat="41.957963453950825" lon="1.8082154360976008"><ele>612.0</ele><time>2026-04-25T11:01:06Z</time></trkpt><trkpt lat="41.957871687206215" lon="1.808394493646331"><ele>612.5</ele><time>2026-04-25T11:01:07Z</time></trkpt><trkpt lat="41.95777865390251" lon="1.8085575614435343"><ele>613.0</ele><time>2026-04-25T11:01:08Z</time></trkpt><trkpt lat="41.95769083894825" lon="1.808696336529118"><ele>613.5</ele><time>2026-04-25T11:01:09Z</time></trkpt><trkpt lat="41.95761813106438" lon="1.8088025036190727"><ele>614.0</ele><time>2026-04-25T11:01:10Z</time></trkpt><trkpt lat="41.95755440690211" lon="1.8088786521351294"><ele>614.8333333333333</ele><time>2026-04-25T11:01:11Z</time></trkpt><trkpt lat="41.95746205732559" lon="1.808921963785425"><ele>615.6666666666666</ele><time>2026-04-25T11:01:13Z</time></trkpt><trkpt lat="41.95739084094849" lon="1.8089253782810328"><ele>616.5</ele><time>2026-04-25T11:01:24Z</time></trkpt><trkpt lat="41.9573085917405" lon="1.808871838300557"><ele>617.3333333333334</ele><time>2026-04-25T11:01:27Z</time></trkpt><trkpt lat="41.95733188222151" lon="1.8087258610543082"><ele>618.1666666666667</ele><time>2026-04-25T11:01:29Z</time></trkpt><trkpt lat="41.95733508713523" lon="1.8086215312596527"><ele>619.0</ele><time>2026-04-25T11:01:30Z</time></trkpt><trkpt lat="41.95735137889575" lon="1.808469874874672"><ele>620.6666666666667</ele><time>2026-04-25T11:01:31Z</time></trkpt><trkpt lat="41.957373606994345" lon="1.808300725233745"><ele>622.3333333333334</ele><time>2026-04-25T11:01:32Z</time></trkpt><trkpt lat="41.95739812575109" lon="1.808127572877317"><ele>624.0</ele><time>2026-04-25T11:01:33Z</time></trkpt><trkpt lat="41.95743371157396" lon="1.807861819432689"><ele>626.0</ele><time>2026-04-25T11:01:34Z</time></trkpt><trkpt lat="41.95749445365967" lon="1.8076477986562325"><ele>628.0</ele><time>2026-04-25T11:01:35Z</time></trkpt><trkpt lat="41.95757466779865" lon="1.8074651737159788"><ele>630.0</ele><time>2026-04-25T11:01:36.001Z</time></trkpt><trkpt lat="41.957684237533435" lon="1.8072835723946181"><ele>629.6666666666666</ele><time>2026-04-25T11:01:37.001Z</time></trkpt><trkpt lat="41.957793406750675" lon="1.8070711601546725"><ele>629.3333333333333</ele><time>2026-04-25T11:01:38.001Z</time></trkpt><trkpt lat="41.95790739859894" lon="1.806858720177643"><ele>629.0</ele><time>2026-04-25T11:01:39.001Z</time></trkpt><trkpt lat="41.95801159942373" lon="1.8066267886433391"><ele>629.0</ele><time>2026-04-25T11:01:40.001Z</time></trkpt><trkpt lat="41.95811595243408" lon="1.8063642962038147"><ele>629.0</ele><time>2026-04-25T11:01:41.001Z</time></trkpt><trkpt lat="41.95821029190777" lon="1.8060997391165172"><ele>629.0</ele><time>2026-04-25T11:01:42.001Z</time></trkpt><trkpt lat="41.95828070150411" lon="1.8058296641805207"><ele>634.0</ele><time>2026-04-25T11:01:43.001Z</time></trkpt><trkpt lat="41.958339814471024" lon="1.8055231325051788"><ele>639.0</ele><time>2026-04-25T11:01:44.001Z</time></trkpt><trkpt lat="41.95838283259011" lon="1.8052137360905476"><ele>633.0</ele><time>2026-04-25T11:01:45.001Z</time></trkpt><trkpt lat="41.958423210460325" lon="1.8049378537637373"><ele>627.0</ele><time>2026-04-25T11:01:46.001Z</time></trkpt><trkpt lat="41.958452672403915" lon="1.804696888554367"><ele>621.0</ele><time>2026-04-25T11:01:47.001Z</time></trkpt><trkpt lat="41.958462873975336" lon="1.8044642811999343"><ele>624.0</ele><time>2026-04-25T11:01:48.001Z</time></trkpt><trkpt lat="41.95846202855086" lon="1.8042371341851806"><ele>627.0</ele><time>2026-04-25T11:01:49.001Z</time></trkpt><trkpt lat="41.95846121335861" lon="1.8040343226422908"><ele>630.0</ele><time>2026-04-25T11:01:50.001Z</time></trkpt><trkpt lat="41.95847225678337" lon="1.80386245181813"><ele>633.0</ele><time>2026-04-25T11:01:51.001Z</time></trkpt><trkpt lat="41.958522492115755" lon="1.8037262856755265"><ele>633.0</ele><time>2026-04-25T11:01:52.001Z</time></trkpt><trkpt lat="41.9585975511126" lon="1.8036226689082004"><ele>633.0</ele><time>2026-04-25T11:01:53.001Z</time></trkpt><trkpt lat="41.958699381485225" lon="1.80353017853569"><ele>633.0</ele><time>2026-04-25T11:01:54.001Z</time></trkpt><trkpt lat="41.95885252970066" lon="1.8035304891931858"><ele>633.0</ele><time>2026-04-25T11:01:55.001Z</time></trkpt><trkpt lat="41.959013914211894" lon="1.803452188121014"><ele>631.3333333333334</ele><time>2026-04-25T11:01:56.001Z</time></trkpt><trkpt lat="41.959191006066796" lon="1.8033369962875887"><ele>629.6666666666667</ele><time>2026-04-25T11:01:57.001Z</time></trkpt><trkpt lat="41.95934664310541" lon="1.8032230592578344"><ele>628.0</ele><time>2026-04-25T11:01:58.001Z</time></trkpt><trkpt lat="41.959460554955854" lon="1.8031298533186424"><ele>628.0</ele><time>2026-04-25T11:01:59.001Z</time></trkpt><trkpt lat="41.959543852424545" lon="1.8030431532769053"><ele>628.0</ele><time>2026-04-25T11:02:00.001Z</time></trkpt><trkpt lat="41.959593689653964" lon="1.802906398488961"><ele>628.0</ele><time>2026-04-25T11:02:01.001Z</time></trkpt><trkpt lat="41.95959326929862" lon="1.8027438141934156"><ele>628.0</ele><time>2026-04-25T11:02:02.001Z</time></trkpt><trkpt lat="41.959552029003476" lon="1.8025577803949768"><ele>630.0</ele><time>2026-04-25T11:02:03.001Z</time></trkpt><trkpt lat="41.95948184045039" lon="1.8023489402392168"><ele>632.0</ele><time>2026-04-25T11:02:04.001Z</time></trkpt><trkpt lat="41.959406726213" lon="1.802103133425966"><ele>634.0</ele><time>2026-04-25T11:02:05.001Z</time></trkpt><trkpt lat="41.95937268703654" lon="1.8018692742131592"><ele>636.0</ele><time>2026-04-25T11:02:06.001Z</time></trkpt><trkpt lat="41.95936537026002" lon="1.8016619093313395"><ele>638.0</ele><time>2026-04-25T11:02:07.001Z</time></trkpt><trkpt lat="41.95939184710571" lon="1.8014631701129615"><ele>640.0</ele><time>2026-04-25T11:02:08.001Z</time></trkpt><trkpt lat="41.95944028021504" lon="1.8012833318569557"><ele>642.0</ele><time>2026-04-25T11:02:09.001Z</time></trkpt><trkpt lat="41.959528690462186" lon="1.8011499784315315"><ele>642.0</ele><time>2026-04-25T11:02:10.001Z</time></trkpt><trkpt lat="41.95965363279326" lon="1.801026428510468"><ele>642.0</ele><time>2026-04-25T11:02:11.001Z</time></trkpt><trkpt lat="41.95980538315786" lon="1.8009183343559687"><ele>642.0</ele><time>2026-04-25T11:02:12.001Z</time></trkpt><trkpt lat="41.95997290093578" lon="1.8007789242188892"><ele>643.6666666666666</ele><time>2026-04-25T11:02:13.001Z</time></trkpt><trkpt lat="41.96013079403679" lon="1.8006423802789078"><ele>645.3333333333333</ele><time>2026-04-25T11:02:14.001Z</time></trkpt><trkpt lat="41.96025495676752" lon="1.8004557911805243"><ele>647.0</ele><time>2026-04-25T11:02:15.001Z</time></trkpt><trkpt lat="41.960380160296815" lon="1.8003211410272508"><ele>647.0</ele><time>2026-04-25T11:02:16.001Z</time></trkpt><trkpt lat="41.9605196387563" lon="1.8002671946846067"><ele>647.0</ele><time>2026-04-25T11:02:17.001Z</time></trkpt><trkpt lat="41.960651501683074" lon="1.800225594450552"><ele>647.0</ele><time>2026-04-25T11:02:18.001Z</time></trkpt><trkpt lat="41.960795783899556" lon="1.8002077222640551"><ele>647.0</ele><time>2026-04-25T11:02:19.001Z</time></trkpt><trkpt lat="41.96090126226105" lon="1.8001267364952602"><ele>646.3333333333333</ele><time>2026-04-25T11:02:20.001Z</time></trkpt><trkpt lat="41.96096532870145" lon="1.799994095951168"><ele>645.6666666666666</ele><time>2026-04-25T11:02:21.001Z</time></trkpt><trkpt lat="41.961077316327206" lon="1.7997926408761658"><ele>645.0</ele><time>2026-04-25T11:02:22.001Z</time></trkpt><trkpt lat="41.96118283323117" lon="1.799595224974853"><ele>645.0</ele><time>2026-04-25T11:02:23.001Z</time></trkpt><trkpt lat="41.961284556172274" lon="1.799413581441753"><ele>645.0</ele><time>2026-04-25T11:02:24.001Z</time></trkpt><trkpt lat="41.961388249191174" lon="1.7992396150571066"><ele>645.0</ele><time>2026-04-25T11:02:25.001Z</time></trkpt><trkpt lat="41.961490912699304" lon="1.7990661659917957"><ele>644.6666666666666</ele><time>2026-04-25T11:02:26.001Z</time></trkpt><trkpt lat="41.96159071636867" lon="1.798891396025919"><ele>644.3333333333333</ele><time>2026-04-25T11:02:27.001Z</time></trkpt><trkpt lat="41.961692169657944" lon="1.7987200456319867"><ele>644.0</ele><time>2026-04-25T11:02:28.001Z</time></trkpt><trkpt lat="41.961792062718295" lon="1.7985455981606535"><ele>658.3333333333333</ele><time>2026-04-25T11:02:29.001Z</time></trkpt><trkpt lat="41.96190159853328" lon="1.798382730542071"><ele>672.6666666666666</ele><time>2026-04-25T11:02:30.001Z</time></trkpt><trkpt lat="41.9620354554458" lon="1.7982426583599023"><ele>687.0</ele><time>2026-04-25T11:02:31.001Z</time></trkpt><trkpt lat="41.96219914303096" lon="1.798132078402673"><ele>687.0</ele><time>2026-04-25T11:02:32.001Z</time></trkpt><trkpt lat="41.962379964450925" lon="1.7980598658335647"><ele>687.0</ele><time>2026-04-25T11:02:33.001Z</time></trkpt><trkpt lat="41.96255951792469" lon="1.797975899614949"><ele>687.0</ele><time>2026-04-25T11:02:34.001Z</time></trkpt><trkpt lat="41.962733687652076" lon="1.7978719674209112"><ele>693.0</ele><time>2026-04-25T11:02:35.001Z</time></trkpt><trkpt lat="41.96289227707063" lon="1.7977268258457035"><ele>699.0</ele><time>2026-04-25T11:02:36.001Z</time></trkpt><trkpt lat="41.96304537086783" lon="1.7975321879651576"><ele>705.0</ele><time>2026-04-25T11:02:37.001Z</time></trkpt><trkpt lat="41.96319855032921" lon="1.797334392709171"><ele>705.0</ele><time>2026-04-25T11:02:38.001Z</time></trkpt><trkpt lat="41.963353395302555" lon="1.7971592368653224"><ele>705.0</ele><time>2026-04-25T11:02:39.001Z</time></trkpt><trkpt lat="41.96350637638711" lon="1.7969919318843117"><ele>705.0</ele><time>2026-04-25T11:02:40.001Z</time></trkpt><trkpt lat="41.96365413174766" lon="1.7968247917209166"><ele>709.3333333333334</ele><time>2026-04-25T11:02:41.001Z</time></trkpt><trkpt lat="41.96379880252861" lon="1.7966591111088523"><ele>713.6666666666667</ele><time>2026-04-25T11:02:42.001Z</time></trkpt><trkpt lat="41.96393784186282" lon="1.7964821918787024"><ele>718.0</ele><time>2026-04-25T11:02:43.001Z</time></trkpt><trkpt lat="41.964056395046725" lon="1.7962846729764574"><ele>718.0</ele><time>2026-04-25T11:02:44.001Z</time></trkpt><trkpt lat="41.96415524701969" lon="1.796061767712625"><ele>718.0</ele><time>2026-04-25T11:02:45.001Z</time></trkpt><trkpt lat="41.96425600884426" lon="1.7958346142763966"><ele>718.0</ele><time>2026-04-25T11:02:46.001Z</time></trkpt><trkpt lat="41.96435332643425" lon="1.795605224479813"><ele>720.3333333333334</ele><time>2026-04-25T11:02:47.001Z</time></trkpt><trkpt lat="41.96445781190117" lon="1.7953793436967465"><ele>722.6666666666666</ele><time>2026-04-25T11:02:48.001Z</time></trkpt><trkpt lat="41.96456261456183" lon="1.7951435076974895"><ele>725.0</ele><time>2026-04-25T11:02:49.001Z</time></trkpt><trkpt lat="41.96467058419999" lon="1.7949053071287264"><ele>725.6666666666666</ele><time>2026-04-25T11:02:50.001Z</time></trkpt><trkpt lat="41.96478633852574" lon="1.7946535530601533"><ele>726.3333333333334</ele><time>2026-04-25T11:02:51.001Z</time></trkpt><trkpt lat="41.96490265225033" lon="1.7944035405901517"><ele>727.0</ele><time>2026-04-25T11:02:52.001Z</time></trkpt><trkpt lat="41.965022009137016" lon="1.7941423636402656"><ele>727.0</ele><time>2026-04-25T11:02:53.001Z</time></trkpt><trkpt lat="41.965140583278085" lon="1.7938760175299748"><ele>727.0</ele><time>2026-04-25T11:02:54.001Z</time></trkpt><trkpt lat="41.965256931334004" lon="1.793607791142083"><ele>730.5</ele><time>2026-04-25T11:02:55.001Z</time></trkpt><trkpt lat="41.96537684638597" lon="1.7933416446914858"><ele>734.0</ele><time>2026-04-25T11:02:56.001Z</time></trkpt><trkpt lat="41.96549810229452" lon="1.793083650701555"><ele>734.0</ele><time>2026-04-25T11:02:57.001Z</time></trkpt><trkpt lat="41.965615774148965" lon="1.7928309191973526"><ele>734.0</ele><time>2026-04-25T11:02:58Z</time></trkpt><trkpt lat="41.965726612724175" lon="1.792585200605658"><ele>734.0</ele><time>2026-04-25T11:02:59Z</time></trkpt><trkpt lat="41.96583248964591" lon="1.792350804991566"><ele>736.6666666666666</ele><time>2026-04-25T11:03:00Z</time></trkpt><trkpt lat="41.96593350808271" lon="1.7921275993234318"><ele>739.3333333333334</ele><time>2026-04-25T11:03:01Z</time></trkpt><trkpt lat="41.96603562081649" lon="1.7918847877735056"><ele>742.0</ele><time>2026-04-25T11:03:02Z</time></trkpt><trkpt lat="41.96613507716498" lon="1.7916135223126952"><ele>742.0</ele><time>2026-04-25T11:03:03Z</time></trkpt><trkpt lat="41.96625107238088" lon="1.7913526996653946"><ele>742.0</ele><time>2026-04-25T11:03:04Z</time></trkpt><trkpt lat="41.96635700419998" lon="1.7910792994682807"><ele>744.0</ele><time>2026-04-25T11:03:05Z</time></trkpt><trkpt lat="41.96644406809528" lon="1.7908161143644448"><ele>746.0</ele><time>2026-04-25T11:03:06Z</time></trkpt><trkpt lat="41.96653706917121" lon="1.7905888018938694"><ele>748.0</ele><time>2026-04-25T11:03:07Z</time></trkpt><trkpt lat="41.96662400957334" lon="1.790369999622984"><ele>749.3333333333334</ele><time>2026-04-25T11:03:08Z</time></trkpt><trkpt lat="41.96670618780786" lon="1.7901596677005698"><ele>750.6666666666666</ele><time>2026-04-25T11:03:09Z</time></trkpt><trkpt lat="41.966782749792905" lon="1.789966208922386"><ele>752.0</ele><time>2026-04-25T11:03:10Z</time></trkpt><trkpt lat="41.96685989760236" lon="1.7897736907536639"><ele>752.0</ele><time>2026-04-25T11:03:11Z</time></trkpt><trkpt lat="41.96694237706139" lon="1.7895654438810322"><ele>752.0</ele><time>2026-04-25T11:03:12Z</time></trkpt><trkpt lat="41.967003017570974" lon="1.7893424260425426"><ele>752.0</ele><time>2026-04-25T11:03:13Z</time></trkpt><trkpt lat="41.96701742756923" lon="1.7891009613869069"><ele>752.0</ele><time>2026-04-25T11:03:13.999Z</time></trkpt><trkpt lat="41.96698171111752" lon="1.7888613596171115"><ele>752.0</ele><time>2026-04-25T11:03:14.999Z</time></trkpt><trkpt lat="41.96689769138817" lon="1.7886310746752634"><ele>752.0</ele><time>2026-04-25T11:03:15.999Z</time></trkpt><trkpt lat="41.96676322679033" lon="1.7884159069654422"><ele>749.6666666666666</ele><time>2026-04-25T11:03:16.999Z</time></trkpt><trkpt lat="41.966631996515105" lon="1.788185804424908"><ele>747.3333333333334</ele><time>2026-04-25T11:03:17.999Z</time></trkpt><trkpt lat="41.96649740869067" lon="1.7879639093239468"><ele>745.0</ele><time>2026-04-25T11:03:18.999Z</time></trkpt><trkpt lat="41.96634408220423" lon="1.7877823689953647"><ele>748.0</ele><time>2026-04-25T11:03:19.999Z</time></trkpt><trkpt lat="41.966203925770216" lon="1.7876290982261633"><ele>751.0</ele><time>2026-04-25T11:03:20.999Z</time></trkpt><trkpt lat="41.9660565573233" lon="1.787522732553753"><ele>754.0</ele><time>2026-04-25T11:03:21.999Z</time></trkpt><trkpt lat="41.9658651891738" lon="1.7874414014696098"><ele>751.3333333333334</ele><time>2026-04-25T11:03:22.999Z</time></trkpt><trkpt lat="41.965642600828204" lon="1.7873530939823623"><ele>748.6666666666666</ele><time>2026-04-25T11:03:23.999Z</time></trkpt><trkpt lat="41.965433546153044" lon="1.7872889326084553"><ele>746.0</ele><time>2026-04-25T11:03:24.999Z</time></trkpt><trkpt lat="41.96524754822865" lon="1.787227903781074"><ele>746.0</ele><time>2026-04-25T11:03:25.999Z</time></trkpt><trkpt lat="41.96508654871633" lon="1.7871663957495234"><ele>746.0</ele><time>2026-04-25T11:03:26.999Z</time></trkpt><trkpt lat="41.96495580280334" lon="1.7870710206848932"><ele>746.0</ele><time>2026-04-25T11:03:27.999Z</time></trkpt><trkpt lat="41.96484007790593" lon="1.7869372007074276"><ele>747.3333333333333</ele><time>2026-04-25T11:03:28.999Z</time></trkpt><trkpt lat="41.96477082239534" lon="1.7867624602908054"><ele>748.6666666666666</ele><time>2026-04-25T11:03:30Z</time></trkpt><trkpt lat="41.96468036996603" lon="1.7865658766379675"><ele>750.0</ele><time>2026-04-25T11:03:31Z</time></trkpt><trkpt lat="41.96457679425712" lon="1.7864095922569805"><ele>750.0</ele><time>2026-04-25T11:03:32Z</time></trkpt><trkpt lat="41.964444142495815" lon="1.7863029704018314"><ele>750.0</ele><time>2026-04-25T11:03:33Z</time></trkpt><trkpt lat="41.96426386584947" lon="1.786247013985527"><ele>750.0</ele><time>2026-04-25T11:03:34Z</time></trkpt><trkpt lat="41.964045705533145" lon="1.7862222043267741"><ele>742.0</ele><time>2026-04-25T11:03:35Z</time></trkpt><trkpt lat="41.963813526426705" lon="1.7861990139434456"><ele>734.0</ele><time>2026-04-25T11:03:36Z</time></trkpt><trkpt lat="41.963579944412494" lon="1.7861434151999644"><ele>732.3333333333333</ele><time>2026-04-25T11:03:37Z</time></trkpt><trkpt lat="41.96335654494441" lon="1.7861102982111488"><ele>730.6666666666666</ele><time>2026-04-25T11:03:38Z</time></trkpt><trkpt lat="41.963142514094386" lon="1.7860761635232372"><ele>729.0</ele><time>2026-04-25T11:03:39Z</time></trkpt><trkpt lat="41.9629300855986" lon="1.786041500621224"><ele>734.6666666666666</ele><time>2026-04-25T11:03:40Z</time></trkpt><trkpt lat="41.962713967213105" lon="1.7860064212441202"><ele>740.3333333333333</ele><time>2026-04-25T11:03:41Z</time></trkpt><trkpt lat="41.96249643240264" lon="1.785971283922745"><ele>746.0</ele><time>2026-04-25T11:03:42Z</time></trkpt><trkpt lat="41.96227721814267" lon="1.7859361379201313"><ele>746.0</ele><time>2026-04-25T11:03:43Z</time></trkpt><trkpt lat="41.962055099047696" lon="1.785900224089495"><ele>746.0</ele><time>2026-04-25T11:03:44Z</time></trkpt><trkpt lat="41.96182481113136" lon="1.7858675983329657"><ele>745.0</ele><time>2026-04-25T11:03:45Z</time></trkpt><trkpt lat="41.96159286858845" lon="1.785834738131606"><ele>744.0</ele><time>2026-04-25T11:03:46Z</time></trkpt><trkpt lat="41.96137414283704" lon="1.7858036934232622"><ele>744.0</ele><time>2026-04-25T11:03:47Z</time></trkpt><trkpt lat="41.96117073136372" lon="1.785773887644514"><ele>744.0</ele><time>2026-04-25T11:03:48Z</time></trkpt><trkpt lat="41.96098253776396" lon="1.7857420635054897"><ele>744.0</ele><time>2026-04-25T11:03:49Z</time></trkpt><trkpt lat="41.96081547463086" lon="1.7856802873186552"><ele>744.3333333333334</ele><time>2026-04-25T11:03:50Z</time></trkpt><trkpt lat="41.960642296234575" lon="1.7855772827280034"><ele>744.6666666666667</ele><time>2026-04-25T11:03:51Z</time></trkpt><trkpt lat="41.96045560759844" lon="1.7854607770885504"><ele>745.0</ele><time>2026-04-25T11:03:52Z</time></trkpt><trkpt lat="41.960250274655365" lon="1.785350217025732"><ele>745.0</ele><time>2026-04-25T11:03:53Z</time></trkpt><trkpt lat="41.9600485229628" lon="1.7851955357791738"><ele>745.0</ele><time>2026-04-25T11:03:54Z</time></trkpt><trkpt lat="41.959841504387946" lon="1.7850584259248854"><ele>745.0</ele><time>2026-04-25T11:03:55Z</time></trkpt><trkpt lat="41.959651117175156" lon="1.7849323311396021"><ele>745.0</ele><time>2026-04-25T11:03:56Z</time></trkpt><trkpt lat="41.95946095551905" lon="1.784849575751362"><ele>745.0</ele><time>2026-04-25T11:03:57Z</time></trkpt><trkpt lat="41.95929776200226" lon="1.784734377356572"><ele>743.6666666666667</ele><time>2026-04-25T11:03:58Z</time></trkpt><trkpt lat="41.95915451659553" lon="1.7845971037491792"><ele>742.3333333333334</ele><time>2026-04-25T11:03:59Z</time></trkpt><trkpt lat="41.95902995112337" lon="1.784420913679391"><ele>741.0</ele><time>2026-04-25T11:04:00Z</time></trkpt><trkpt lat="41.95892068160788" lon="1.7842004129445492"><ele>741.0</ele><time>2026-04-25T11:04:01Z</time></trkpt><trkpt lat="41.95881451222337" lon="1.7839678157675287"><ele>741.0</ele><time>2026-04-25T11:04:02Z</time></trkpt><trkpt lat="41.95870649521431" lon="1.7837581653476935"><ele>741.0</ele><time>2026-04-25T11:04:03Z</time></trkpt><trkpt lat="41.95859315009208" lon="1.7835794327293957"><ele>741.6666666666666</ele><time>2026-04-25T11:04:04Z</time></trkpt><trkpt lat="41.958462453759246" lon="1.7834437200919946"><ele>742.3333333333333</ele><time>2026-04-25T11:04:05Z</time></trkpt><trkpt lat="41.958301666193016" lon="1.7833607388667616"><ele>743.0</ele><time>2026-04-25T11:04:06Z</time></trkpt><trkpt lat="41.958118448897174" lon="1.7833360615495684"><ele>740.0</ele><time>2026-04-25T11:04:07Z</time></trkpt><trkpt lat="41.95791952930297" lon="1.7833485098954076"><ele>737.0</ele><time>2026-04-25T11:04:08Z</time></trkpt><trkpt lat="41.95770919957426" lon="1.7833587842571441"><ele>734.0</ele><time>2026-04-25T11:04:09Z</time></trkpt><trkpt lat="41.95748565848331" lon="1.7833604798988414"><ele>733.0</ele><time>2026-04-25T11:04:10Z</time></trkpt><trkpt lat="41.957253096464115" lon="1.7833585088898696"><ele>732.0</ele><time>2026-04-25T11:04:11Z</time></trkpt><trkpt lat="41.95701817687304" lon="1.7833557740483108"><ele>732.0</ele><time>2026-04-25T11:04:12Z</time></trkpt><trkpt lat="41.95678371844568" lon="1.7833527376977034"><ele>732.0</ele><time>2026-04-25T11:04:13Z</time></trkpt><trkpt lat="41.9565511516338" lon="1.783353031192033"><ele>732.6666666666666</ele><time>2026-04-25T11:04:14Z</time></trkpt><trkpt lat="41.95632678153219" lon="1.78334803768676"><ele>733.3333333333333</ele><time>2026-04-25T11:04:15Z</time></trkpt><trkpt lat="41.9561183263443" lon="1.7833376559905256"><ele>734.0</ele><time>2026-04-25T11:04:16Z</time></trkpt><trkpt lat="41.95591613412534" lon="1.7833321307234942"><ele>734.3333333333333</ele><time>2026-04-25T11:04:17Z</time></trkpt><trkpt lat="41.955710912923166" lon="1.783352308788961"><ele>734.6666666666666</ele><time>2026-04-25T11:04:18Z</time></trkpt><trkpt lat="41.95549293085382" lon="1.783400883612584"><ele>735.0</ele><time>2026-04-25T11:04:19Z</time></trkpt><trkpt lat="41.95525373070419" lon="1.7834547299474857"><ele>736.0</ele><time>2026-04-25T11:04:20Z</time></trkpt><trkpt lat="41.955004105881535" lon="1.7834981056660963"><ele>737.0</ele><time>2026-04-25T11:04:21Z</time></trkpt><trkpt lat="41.95474570075421" lon="1.7835434541565278"><ele>737.0</ele><time>2026-04-25T11:04:22Z</time></trkpt><trkpt lat="41.95448782022265" lon="1.7835898632187788"><ele>737.0</ele><time>2026-04-25T11:04:23Z</time></trkpt><trkpt lat="41.95422846421865" lon="1.7836379522675299"><ele>732.0</ele><time>2026-04-25T11:04:24Z</time></trkpt><trkpt lat="41.953971639213435" lon="1.783689729989323"><ele>727.0</ele><time>2026-04-25T11:04:25Z</time></trkpt><trkpt lat="41.953716349838906" lon="1.7837391444675115"><ele>727.0</ele><time>2026-04-25T11:04:26Z</time></trkpt><trkpt lat="41.95345975293035" lon="1.7837900900090529"><ele>727.0</ele><time>2026-04-25T11:04:27Z</time></trkpt><trkpt lat="41.95320430616239" lon="1.7838375699960043"><ele>725.5</ele><time>2026-04-25T11:04:28Z</time></trkpt><trkpt lat="41.952947344122464" lon="1.7838849171166737"><ele>724.0</ele><time>2026-04-25T11:04:29Z</time></trkpt><trkpt lat="41.95269318096858" lon="1.7839299300060687"><ele>724.0</ele><time>2026-04-25T11:04:30Z</time></trkpt><trkpt lat="41.95243544906484" lon="1.7839779362364196"><ele>724.0</ele><time>2026-04-25T11:04:31Z</time></trkpt><trkpt lat="41.952181589897975" lon="1.7840258918378082"><ele>724.0</ele><time>2026-04-25T11:04:32Z</time></trkpt><trkpt lat="41.95194062504862" lon="1.7840702077140054"><ele>724.0</ele><time>2026-04-25T11:04:33Z</time></trkpt><trkpt lat="41.951712984078334" lon="1.784114798297639"><ele>721.0</ele><time>2026-04-25T11:04:34Z</time></trkpt><trkpt lat="41.95148653504544" lon="1.7841438142062283"><ele>718.0</ele><time>2026-04-25T11:04:35Z</time></trkpt><trkpt lat="41.951251344398436" lon="1.7841395408315681"><ele>718.0</ele><time>2026-04-25T11:04:36Z</time></trkpt><trkpt lat="41.95100796332132" lon="1.7840880330094795"><ele>718.0</ele><time>2026-04-25T11:04:37Z</time></trkpt><trkpt lat="41.95076813584156" lon="1.78400591490642"><ele>716.5</ele><time>2026-04-25T11:04:38Z</time></trkpt><trkpt lat="41.950530344131295" lon="1.783926930487398"><ele>715.0</ele><time>2026-04-25T11:04:39Z</time></trkpt><trkpt lat="41.95030821554396" lon="1.783861026022383"><ele>715.0</ele><time>2026-04-25T11:04:40Z</time></trkpt><trkpt lat="41.95011677914285" lon="1.7838070906640986"><ele>715.0</ele><time>2026-04-25T11:04:41Z</time></trkpt><trkpt lat="41.94994344794268" lon="1.7837414744484532"><ele>715.0</ele><time>2026-04-25T11:04:42Z</time></trkpt><trkpt lat="41.94978006439106" lon="1.7836521193475823"><ele>714.6666666666667</ele><time>2026-04-25T11:04:43Z</time></trkpt><trkpt lat="41.949605523803584" lon="1.7835019088147546"><ele>714.3333333333334</ele><time>2026-04-25T11:04:44Z</time></trkpt><trkpt lat="41.949480376658286" lon="1.7833084606825176"><ele>714.0</ele><time>2026-04-25T11:04:45Z</time></trkpt><trkpt lat="41.949373840964704" lon="1.7830709767212511"><ele>714.0</ele><time>2026-04-25T11:04:46Z</time></trkpt><trkpt lat="41.949254188821236" lon="1.7828289348685322"><ele>714.0</ele><time>2026-04-25T11:04:47Z</time></trkpt><trkpt lat="41.949125927618816" lon="1.7825765311594697"><ele>714.0</ele><time>2026-04-25T11:04:48Z</time></trkpt><trkpt lat="41.948993830121495" lon="1.782325071883939"><ele>716.0</ele><time>2026-04-25T11:04:49Z</time></trkpt><trkpt lat="41.94885869615601" lon="1.782071947263182"><ele>718.0</ele><time>2026-04-25T11:04:50Z</time></trkpt><trkpt lat="41.94872870089459" lon="1.781824918223168"><ele>718.6666666666667</ele><time>2026-04-25T11:04:51Z</time></trkpt><trkpt lat="41.948618167349366" lon="1.7816133245227366"><ele>719.3333333333334</ele><time>2026-04-25T11:04:52Z</time></trkpt><trkpt lat="41.94851895528505" lon="1.7814303600180768"><ele>720.0</ele><time>2026-04-25T11:04:53Z</time></trkpt><trkpt lat="41.94841961721187" lon="1.7812672104828522"><ele>721.3333333333334</ele><time>2026-04-25T11:04:54Z</time></trkpt><trkpt lat="41.94830263355455" lon="1.7811308916006223"><ele>722.6666666666667</ele><time>2026-04-25T11:04:55Z</time></trkpt><trkpt lat="41.94815345501049" lon="1.781024229749615"><ele>724.0</ele><time>2026-04-25T11:04:56Z</time></trkpt><trkpt lat="41.947990433164264" lon="1.7809441150244223"><ele>724.0</ele><time>2026-04-25T11:04:57Z</time></trkpt><trkpt lat="41.947844833219506" lon="1.780870197823915"><ele>724.0</ele><time>2026-04-25T11:04:58Z</time></trkpt><trkpt lat="41.94771691126028" lon="1.7807945560442464"><ele>724.0</ele><time>2026-04-25T11:04:59Z</time></trkpt><trkpt lat="41.94761123085582" lon="1.7807326968529678"><ele>724.0</ele><time>2026-04-25T11:05:00Z</time></trkpt><trkpt lat="41.94753504372371" lon="1.78067975402541"><ele>724.3333333333334</ele><time>2026-04-25T11:05:01Z</time></trkpt><trkpt lat="41.94745748887342" lon="1.780663265811793"><ele>724.6666666666667</ele><time>2026-04-25T11:05:03Z</time></trkpt><trkpt lat="41.94740979775736" lon="1.7807389772248283"><ele>725.0</ele><time>2026-04-25T11:05:05Z</time></trkpt><trkpt lat="41.94737093751952" lon="1.7808288656097149"><ele>725.3333333333334</ele><time>2026-04-25T11:05:08Z</time></trkpt><trkpt lat="41.94729177263141" lon="1.7809354368388728"><ele>725.6666666666666</ele><time>2026-04-25T11:05:10Z</time></trkpt><trkpt lat="41.94723702972638" lon="1.7810027343041461"><ele>726.0</ele><time>2026-04-25T11:05:11Z</time></trkpt><trkpt lat="41.94716214167855" lon="1.781084574072206"><ele>726.0</ele><time>2026-04-25T11:05:12Z</time></trkpt><trkpt lat="41.94706873615075" lon="1.7811723108091555"><ele>726.0</ele><time>2026-04-25T11:05:13Z</time></trkpt><trkpt lat="41.94693561343702" lon="1.7812518859236974"><ele>726.0</ele><time>2026-04-25T11:05:14Z</time></trkpt><trkpt lat="41.946792141680405" lon="1.7813258967517578"><ele>726.0</ele><time>2026-04-25T11:05:15Z</time></trkpt><trkpt lat="41.94663796314087" lon="1.78139893480449"><ele>725.3333333333334</ele><time>2026-04-25T11:05:16Z</time></trkpt><trkpt lat="41.94646307275351" lon="1.7814723884434687"><ele>724.6666666666667</ele><time>2026-04-25T11:05:17Z</time></trkpt><trkpt lat="41.94627758304469" lon="1.7815308512968187"><ele>724.0</ele><time>2026-04-25T11:05:18Z</time></trkpt><trkpt lat="41.94608402019882" lon="1.7815614493098386"><ele>724.0</ele><time>2026-04-25T11:05:19Z</time></trkpt><trkpt lat="41.9458964192829" lon="1.7815791524804743"><ele>724.0</ele><time>2026-04-25T11:05:20Z</time></trkpt><trkpt lat="41.94570844529081" lon="1.7815965718355329"><ele>724.0</ele><time>2026-04-25T11:05:21Z</time></trkpt><trkpt lat="41.94551445329194" lon="1.7816188564577637"><ele>722.6666666666667</ele><time>2026-04-25T11:05:22Z</time></trkpt><trkpt lat="41.94532013087426" lon="1.7816499732193953"><ele>721.3333333333334</ele><time>2026-04-25T11:05:23Z</time></trkpt><trkpt lat="41.94512362122467" lon="1.7816874665995768"><ele>720.0</ele><time>2026-04-25T11:05:24Z</time></trkpt><trkpt lat="41.94492697513731" lon="1.7817284249599452"><ele>719.0</ele><time>2026-04-25T11:05:25Z</time></trkpt><trkpt lat="41.94473905879161" lon="1.7817714704673635"><ele>718.0</ele><time>2026-04-25T11:05:26Z</time></trkpt><trkpt lat="41.94455237339005" lon="1.7818214329667452"><ele>717.0</ele><time>2026-04-25T11:05:27Z</time></trkpt><trkpt lat="41.944368985488374" lon="1.7818878621429262"><ele>715.0</ele><time>2026-04-25T11:05:28Z</time></trkpt><trkpt lat="41.944184789531555" lon="1.7819706108227993"><ele>713.0</ele><time>2026-04-25T11:05:29Z</time></trkpt><trkpt lat="41.94400260883211" lon="1.7820517995208425"><ele>711.0</ele><time>2026-04-25T11:05:30Z</time></trkpt><trkpt lat="41.94381906423356" lon="1.782133179062681"><ele>711.0</ele><time>2026-04-25T11:05:31Z</time></trkpt><trkpt lat="41.94363336940061" lon="1.782234372522507"><ele>711.0</ele><time>2026-04-25T11:05:32Z</time></trkpt><trkpt lat="41.94345726445452" lon="1.782367479665203"><ele>711.0</ele><time>2026-04-25T11:05:33Z</time></trkpt><trkpt lat="41.94328776406108" lon="1.7825177717408534"><ele>711.3333333333334</ele><time>2026-04-25T11:05:34Z</time></trkpt><trkpt lat="41.9431252927554" lon="1.7826616521006613"><ele>711.6666666666667</ele><time>2026-04-25T11:05:35Z</time></trkpt><trkpt lat="41.942965141212795" lon="1.7827780199535668"><ele>712.0</ele><time>2026-04-25T11:05:36Z</time></trkpt><trkpt lat="41.94278808651105" lon="1.782867641484869"><ele>711.3333333333334</ele><time>2026-04-25T11:05:37Z</time></trkpt><trkpt lat="41.94260499937404" lon="1.7829361372184105"><ele>710.6666666666666</ele><time>2026-04-25T11:05:38Z</time></trkpt><trkpt lat="41.94241692323423" lon="1.7829934012135151"><ele>710.0</ele><time>2026-04-25T11:05:39Z</time></trkpt><trkpt lat="41.94222796264439" lon="1.783032934250265"><ele>710.0</ele><time>2026-04-25T11:05:40Z</time></trkpt><trkpt lat="41.94202866868662" lon="1.7830423123986967"><ele>710.0</ele><time>2026-04-25T11:05:41Z</time></trkpt><trkpt lat="41.94181645889393" lon="1.7830349142551185"><ele>710.0</ele><time>2026-04-25T11:05:42Z</time></trkpt><trkpt lat="41.941603234857276" lon="1.783036771524717"><ele>709.0</ele><time>2026-04-25T11:05:43Z</time></trkpt><trkpt lat="41.941385727402746" lon="1.7830440659852431"><ele>708.0</ele><time>2026-04-25T11:05:44Z</time></trkpt><trkpt lat="41.941162907117196" lon="1.7830516952213453"><ele>707.0</ele><time>2026-04-25T11:05:45Z</time></trkpt><trkpt lat="41.94093818676787" lon="1.7830629432770402"><ele>705.5</ele><time>2026-04-25T11:05:46Z</time></trkpt><trkpt lat="41.94071060984557" lon="1.7830669990101173"><ele>704.0</ele><time>2026-04-25T11:05:47Z</time></trkpt><trkpt lat="41.94048691256422" lon="1.7830590248738218"><ele>704.0</ele><time>2026-04-25T11:05:48Z</time></trkpt><trkpt lat="41.940267446011674" lon="1.7830563936631236"><ele>704.0</ele><time>2026-04-25T11:05:49Z</time></trkpt><trkpt lat="41.94003767785103" lon="1.7830596715931757"><ele>704.0</ele><time>2026-04-25T11:05:50Z</time></trkpt><trkpt lat="41.9398000426749" lon="1.7830654877900791"><ele>704.5</ele><time>2026-04-25T11:05:51Z</time></trkpt><trkpt lat="41.93953524381699" lon="1.7830788935203097"><ele>705.0</ele><time>2026-04-25T11:05:52Z</time></trkpt><trkpt lat="41.93925977559395" lon="1.7830948684858514"><ele>704.0</ele><time>2026-04-25T11:05:53Z</time></trkpt><trkpt lat="41.938994313114165" lon="1.7831037980318913"><ele>703.0</ele><time>2026-04-25T11:05:54Z</time></trkpt><trkpt lat="41.93875307837879" lon="1.7831079894815705"><ele>703.0</ele><time>2026-04-25T11:05:55Z</time></trkpt><trkpt lat="41.93851980068297" lon="1.783113914534566"><ele>703.0</ele><time>2026-04-25T11:05:56Z</time></trkpt><trkpt lat="41.93828630634059" lon="1.7831212711939108"><ele>702.5</ele><time>2026-04-25T11:05:57Z</time></trkpt><trkpt lat="41.93805868622545" lon="1.783123577090882"><ele>702.0</ele><time>2026-04-25T11:05:58Z</time></trkpt><trkpt lat="41.93783332140428" lon="1.7831243851785283"><ele>702.0</ele><time>2026-04-25T11:05:59Z</time></trkpt><trkpt lat="41.937607942880796" lon="1.7831218018253796"><ele>702.0</ele><time>2026-04-25T11:06:00Z</time></trkpt><trkpt lat="41.93738196396635" lon="1.7831138536154376"><ele>701.0</ele><time>2026-04-25T11:06:01Z</time></trkpt><trkpt lat="41.93715680912396" lon="1.7831021145070154"><ele>700.0</ele><time>2026-04-25T11:06:02Z</time></trkpt><trkpt lat="41.936930788739616" lon="1.7830907773938371"><ele>699.6666666666667</ele><time>2026-04-25T11:06:03Z</time></trkpt><trkpt lat="41.93671579188693" lon="1.7830883475412531"><ele>699.3333333333334</ele><time>2026-04-25T11:06:04Z</time></trkpt><trkpt lat="41.93650567234012" lon="1.7831184074453708"><ele>699.0</ele><time>2026-04-25T11:06:05Z</time></trkpt><trkpt lat="41.93628476605909" lon="1.7831824496621276"><ele>699.0</ele><time>2026-04-25T11:06:06Z</time></trkpt><trkpt lat="41.9360533290823" lon="1.7832649816591346"><ele>699.0</ele><time>2026-04-25T11:06:07Z</time></trkpt><trkpt lat="41.93581209070244" lon="1.7833618010199566"><ele>699.5</ele><time>2026-04-25T11:06:08Z</time></trkpt><trkpt lat="41.93557644145001" lon="1.7834515965076232"><ele>700.0</ele><time>2026-04-25T11:06:09Z</time></trkpt><trkpt lat="41.935342467616486" lon="1.7835381095480385"><ele>700.5</ele><time>2026-04-25T11:06:10Z</time></trkpt><trkpt lat="41.935109637361656" lon="1.7836218851386436"><ele>701.0</ele><time>2026-04-25T11:06:11Z</time></trkpt><trkpt lat="41.934876885281284" lon="1.7837066085094775"><ele>701.0</ele><time>2026-04-25T11:06:12Z</time></trkpt><trkpt lat="41.93464576015792" lon="1.783791605517618"><ele>701.0</ele><time>2026-04-25T11:06:13Z</time></trkpt><trkpt lat="41.934438089388195" lon="1.7838687430307512"><ele>701.0</ele><time>2026-04-25T11:06:14Z</time></trkpt><trkpt lat="41.93425266737776" lon="1.7839339370930456"><ele>701.0</ele><time>2026-04-25T11:06:15Z</time></trkpt><trkpt lat="41.93407014313447" lon="1.7839954145310144"><ele>701.0</ele><time>2026-04-25T11:06:16Z</time></trkpt><trkpt lat="41.93388336367267" lon="1.7840469388225892"><ele>705.0</ele><time>2026-04-25T11:06:17Z</time></trkpt><trkpt lat="41.933689214030345" lon="1.7840887080965995"><ele>709.0</ele><time>2026-04-25T11:06:18Z</time></trkpt><trkpt lat="41.933481822766595" lon="1.7841218312526903"><ele>713.0</ele><time>2026-04-25T11:06:19Z</time></trkpt><trkpt lat="41.93325953371431" lon="1.7841549623766282"><ele>713.0</ele><time>2026-04-25T11:06:20Z</time></trkpt><trkpt lat="41.93302375738809" lon="1.7841854012599798"><ele>713.0</ele><time>2026-04-25T11:06:21Z</time></trkpt><trkpt lat="41.93278026976654" lon="1.7842199305271604"><ele>710.0</ele><time>2026-04-25T11:06:22Z</time></trkpt><trkpt lat="41.93253673417536" lon="1.78426210888015"><ele>707.0</ele><time>2026-04-25T11:06:23Z</time></trkpt><trkpt lat="41.93229861657708" lon="1.7843079026034971"><ele>706.0</ele><time>2026-04-25T11:06:24Z</time></trkpt><trkpt lat="41.93205839759952" lon="1.7843516970195756"><ele>705.0</ele><time>2026-04-25T11:06:25Z</time></trkpt><trkpt lat="41.93181905975324" lon="1.784390385170164"><ele>700.5</ele><time>2026-04-25T11:06:26Z</time></trkpt><trkpt lat="41.93157692190376" lon="1.7844292611221684"><ele>696.0</ele><time>2026-04-25T11:06:27Z</time></trkpt><trkpt lat="41.9313311943901" lon="1.7844679869099354"><ele>696.0</ele><time>2026-04-25T11:06:28Z</time></trkpt><trkpt lat="41.931087454780275" lon="1.7845062928798328"><ele>696.0</ele><time>2026-04-25T11:06:29Z</time></trkpt><trkpt lat="41.930835543930996" lon="1.7845433545255651"><ele>695.5</ele><time>2026-04-25T11:06:30Z</time></trkpt><trkpt lat="41.93058236498864" lon="1.7845770981267415"><ele>695.0</ele><time>2026-04-25T11:06:31Z</time></trkpt><trkpt lat="41.93032238976133" lon="1.7846080790507959"><ele>695.0</ele><time>2026-04-25T11:06:32Z</time></trkpt><trkpt lat="41.93006255221874" lon="1.7846375780343755"><ele>695.0</ele><time>2026-04-25T11:06:33Z</time></trkpt><trkpt lat="41.92979889897155" lon="1.78466343810649"><ele>695.0</ele><time>2026-04-25T11:06:34Z</time></trkpt><trkpt lat="41.92953874376518" lon="1.7846843482076786"><ele>695.0</ele><time>2026-04-25T11:06:35Z</time></trkpt><trkpt lat="41.929279990700316" lon="1.784705412272458"><ele>695.0</ele><time>2026-04-25T11:06:36Z</time></trkpt><trkpt lat="41.92902270649115" lon="1.7847257725971881"><ele>695.0</ele><time>2026-04-25T11:06:37Z</time></trkpt><trkpt lat="41.92876938649792" lon="1.784742511596826"><ele>695.0</ele><time>2026-04-25T11:06:38Z</time></trkpt><trkpt lat="41.928515247197076" lon="1.7847580475326323"><ele>695.0</ele><time>2026-04-25T11:06:39Z</time></trkpt><trkpt lat="41.92827007964986" lon="1.7847771303455535"><ele>694.5</ele><time>2026-04-25T11:06:40Z</time></trkpt><trkpt lat="41.92802770584562" lon="1.7848008661884793"><ele>694.0</ele><time>2026-04-25T11:06:41Z</time></trkpt><trkpt lat="41.92779278300887" lon="1.7848251697399902"><ele>696.0</ele><time>2026-04-25T11:06:42Z</time></trkpt><trkpt lat="41.92755898692207" lon="1.784850774468587"><ele>698.0</ele><time>2026-04-25T11:06:43Z</time></trkpt><trkpt lat="41.92732442927291" lon="1.7848744873832338"><ele>698.0</ele><time>2026-04-25T11:06:44Z</time></trkpt><trkpt lat="41.92708244548869" lon="1.7848903198131991"><ele>698.0</ele><time>2026-04-25T11:06:45Z</time></trkpt><trkpt lat="41.9268233804675" lon="1.784911052042796"><ele>699.5</ele><time>2026-04-25T11:06:46Z</time></trkpt><trkpt lat="41.92661157527849" lon="1.7849429499291263"><ele>701.0</ele><time>2026-04-25T11:06:47Z</time></trkpt><trkpt lat="41.926371731680845" lon="1.7849753594002356"><ele>701.0</ele><time>2026-04-25T11:06:48Z</time></trkpt><trkpt lat="41.926136389860424" lon="1.7850099401822037"><ele>701.0</ele><time>2026-04-25T11:06:49Z</time></trkpt><trkpt lat="41.92591492551561" lon="1.7850416549412638"><ele>701.0</ele><time>2026-04-25T11:06:50Z</time></trkpt><trkpt lat="41.92570199156488" lon="1.7850758200843027"><ele>701.0</ele><time>2026-04-25T11:06:51Z</time></trkpt><trkpt lat="41.92549381125987" lon="1.7851253434194543"><ele>701.0</ele><time>2026-04-25T11:06:52Z</time></trkpt><trkpt lat="41.92528233454851" lon="1.7851983346431206"><ele>700.5</ele><time>2026-04-25T11:06:53Z</time></trkpt><trkpt lat="41.92506222641019" lon="1.7852783422042542"><ele>700.0</ele><time>2026-04-25T11:06:54Z</time></trkpt><trkpt lat="41.92483194257687" lon="1.7853555907933207"><ele>700.0</ele><time>2026-04-25T11:06:55Z</time></trkpt><trkpt lat="41.924605581355706" lon="1.785428671308193"><ele>700.0</ele><time>2026-04-25T11:06:56Z</time></trkpt><trkpt lat="41.924373253424164" lon="1.7855017751280602"><ele>699.5</ele><time>2026-04-25T11:06:57Z</time></trkpt><trkpt lat="41.92415236997962" lon="1.7855732897695562"><ele>699.0</ele><time>2026-04-25T11:06:58Z</time></trkpt><trkpt lat="41.92392598503538" lon="1.7856440936089353"><ele>699.0</ele><time>2026-04-25T11:06:59Z</time></trkpt><trkpt lat="41.92370801088238" lon="1.7857128482565134"><ele>699.0</ele><time>2026-04-25T11:07:00Z</time></trkpt><trkpt lat="41.92350151927038" lon="1.785773651120767"><ele>699.0</ele><time>2026-04-25T11:07:01Z</time></trkpt><trkpt lat="41.92330438504982" lon="1.7858224492914023"><ele>698.0</ele><time>2026-04-25T11:07:02Z</time></trkpt><trkpt lat="41.92309667786028" lon="1.785849653563935"><ele>697.0</ele><time>2026-04-25T11:07:03Z</time></trkpt><trkpt lat="41.9228737822986" lon="1.7858429993065876"><ele>696.0</ele><time>2026-04-25T11:07:04Z</time></trkpt><trkpt lat="41.922644970924075" lon="1.7858383022274733"><ele>694.0</ele><time>2026-04-25T11:07:05Z</time></trkpt><trkpt lat="41.92241560860228" lon="1.7858543999245935"><ele>692.0</ele><time>2026-04-25T11:07:06Z</time></trkpt><trkpt lat="41.9221845094303" lon="1.7858985874163207"><ele>692.0</ele><time>2026-04-25T11:07:07Z</time></trkpt><trkpt lat="41.92195447636218" lon="1.7859678074608867"><ele>692.0</ele><time>2026-04-25T11:07:08Z</time></trkpt><trkpt lat="41.92171091926766" lon="1.7860529823390145"><ele>688.0</ele><time>2026-04-25T11:07:09Z</time></trkpt><trkpt lat="41.92147802808436" lon="1.7861440525505836"><ele>684.0</ele><time>2026-04-25T11:07:10Z</time></trkpt><trkpt lat="41.921264712708506" lon="1.7862349493114376"><ele>684.0</ele><time>2026-04-25T11:07:11Z</time></trkpt><trkpt lat="41.92106348725616" lon="1.7863259356029129"><ele>684.0</ele><time>2026-04-25T11:07:12Z</time></trkpt><trkpt lat="41.92087463357732" lon="1.7864329431661456"><ele>684.0</ele><time>2026-04-25T11:07:13Z</time></trkpt><trkpt lat="41.920681270286096" lon="1.7865720488268808"><ele>682.5</ele><time>2026-04-25T11:07:14Z</time></trkpt><trkpt lat="41.92048223859515" lon="1.7867405852907474"><ele>681.0</ele><time>2026-04-25T11:07:15Z</time></trkpt><trkpt lat="41.92027883195413" lon="1.7869375505468015"><ele>681.5</ele><time>2026-04-25T11:07:16Z</time></trkpt><trkpt lat="41.92009219013625" lon="1.7871304196730378"><ele>682.0</ele><time>2026-04-25T11:07:17Z</time></trkpt><trkpt lat="41.91990816470323" lon="1.7873145710903282"><ele>682.0</ele><time>2026-04-25T11:07:18Z</time></trkpt><trkpt lat="41.91973928342898" lon="1.787473048438147"><ele>682.0</ele><time>2026-04-25T11:07:19Z</time></trkpt><trkpt lat="41.91956800317781" lon="1.7876035072397922"><ele>682.0</ele><time>2026-04-25T11:07:20Z</time></trkpt><trkpt lat="41.91937258890483" lon="1.7877056642927978"><ele>677.5</ele><time>2026-04-25T11:07:21Z</time></trkpt><trkpt lat="41.919156034639904" lon="1.7877920023650005"><ele>673.0</ele><time>2026-04-25T11:07:22Z</time></trkpt><trkpt lat="41.918931603729206" lon="1.7878838292256016"><ele>673.0</ele><time>2026-04-25T11:07:23Z</time></trkpt><trkpt lat="41.91870556582637" lon="1.7879916327738572"><ele>673.0</ele><time>2026-04-25T11:07:24Z</time></trkpt><trkpt lat="41.91847738753692" lon="1.7881049559554603"><ele>676.0</ele><time>2026-04-25T11:07:25Z</time></trkpt><trkpt lat="41.9182612410358" lon="1.7882171625872483"><ele>679.0</ele><time>2026-04-25T11:07:26Z</time></trkpt><trkpt lat="41.91804994424128" lon="1.7882994063898308"><ele>679.0</ele><time>2026-04-25T11:07:27Z</time></trkpt><trkpt lat="41.9178333596302" lon="1.7883729373967074"><ele>679.0</ele><time>2026-04-25T11:07:28Z</time></trkpt><trkpt lat="41.917607027001175" lon="1.788440060275656"><ele>681.5</ele><time>2026-04-25T11:07:29Z</time></trkpt><trkpt lat="41.917379936481694" lon="1.7885011297925706"><ele>684.0</ele><time>2026-04-25T11:07:30Z</time></trkpt><trkpt lat="41.917156755174005" lon="1.788555347340786"><ele>673.5</ele><time>2026-04-25T11:07:31Z</time></trkpt><trkpt lat="41.91692833728937" lon="1.78861225235702"><ele>663.0</ele><time>2026-04-25T11:07:32Z</time></trkpt><trkpt lat="41.916699708867355" lon="1.7886795408068152"><ele>663.0</ele><time>2026-04-25T11:07:33Z</time></trkpt><trkpt lat="41.916465999989214" lon="1.7887588180148322"><ele>663.0</ele><time>2026-04-25T11:07:34Z</time></trkpt><trkpt lat="41.91622277985936" lon="1.7888394827500549"><ele>663.0</ele><time>2026-04-25T11:07:35Z</time></trkpt><trkpt lat="41.91598844854925" lon="1.7889145974259872"><ele>663.0</ele><time>2026-04-25T11:07:36Z</time></trkpt><trkpt lat="41.91575428331693" lon="1.7889792349787261"><ele>665.3333333333334</ele><time>2026-04-25T11:07:37Z</time></trkpt><trkpt lat="41.91552548267198" lon="1.7890307642905718"><ele>667.6666666666667</ele><time>2026-04-25T11:07:38Z</time></trkpt><trkpt lat="41.91531221065741" lon="1.789076907646403"><ele>670.0</ele><time>2026-04-25T11:07:39Z</time></trkpt><trkpt lat="41.91510992353647" lon="1.7891227415071338"><ele>672.6666666666667</ele><time>2026-04-25T11:07:40Z</time></trkpt><trkpt lat="41.91491384428305" lon="1.7891794160609737"><ele>675.3333333333334</ele><time>2026-04-25T11:07:41Z</time></trkpt><trkpt lat="41.91472269420023" lon="1.7892601700849808"><ele>678.0</ele><time>2026-04-25T11:07:42Z</time></trkpt><trkpt lat="41.914560217844034" lon="1.7893698176310306"><ele>674.6666666666666</ele><time>2026-04-25T11:07:43Z</time></trkpt><trkpt lat="41.914417886964515" lon="1.7894919811481522"><ele>671.3333333333333</ele><time>2026-04-25T11:07:44Z</time></trkpt><trkpt lat="41.91428378835172" lon="1.7895852384336919"><ele>668.0</ele><time>2026-04-25T11:07:45Z</time></trkpt><trkpt lat="41.91413742791592" lon="1.7896255732062372"><ele>668.0</ele><time>2026-04-25T11:07:46Z</time></trkpt><trkpt lat="41.91397306962621" lon="1.7896061142790851"><ele>668.0</ele><time>2026-04-25T11:07:47Z</time></trkpt><trkpt lat="41.913793430794335" lon="1.7895481879072126"><ele>668.0</ele><time>2026-04-25T11:07:48Z</time></trkpt><trkpt lat="41.91360271257035" lon="1.7894864625228524"><ele>664.6666666666666</ele><time>2026-04-25T11:07:49Z</time></trkpt><trkpt lat="41.91339347505456" lon="1.7894430215290633"><ele>661.3333333333334</ele><time>2026-04-25T11:07:50Z</time></trkpt><trkpt lat="41.913176637691045" lon="1.789422736299344"><ele>658.0</ele><time>2026-04-25T11:07:51Z</time></trkpt><trkpt lat="41.912949914550154" lon="1.7894186857429415"><ele>658.0</ele><time>2026-04-25T11:07:52Z</time></trkpt><trkpt lat="41.91272259644607" lon="1.7894328592473583"><ele>658.0</ele><time>2026-04-25T11:07:53Z</time></trkpt><trkpt lat="41.912491246153" lon="1.7894621111914377"><ele>657.0</ele><time>2026-04-25T11:07:54Z</time></trkpt><trkpt lat="41.91225856224358" lon="1.7895034240917356"><ele>656.0</ele><time>2026-04-25T11:07:55Z</time></trkpt><trkpt lat="41.91203828067008" lon="1.7895279136487297"><ele>656.0</ele><time>2026-04-25T11:07:56Z</time></trkpt><trkpt lat="41.911782677398485" lon="1.789577494130438"><ele>656.0</ele><time>2026-04-25T11:07:57Z</time></trkpt><trkpt lat="41.91155558632885" lon="1.7896082863684788"><ele>663.3333333333333</ele><time>2026-04-25T11:07:58Z</time></trkpt><trkpt lat="41.911335666523435" lon="1.7896370156615802"><ele>670.6666666666666</ele><time>2026-04-25T11:07:59Z</time></trkpt><trkpt lat="41.9111370470068" lon="1.7896595161379916"><ele>678.0</ele><time>2026-04-25T11:08:00Z</time></trkpt><trkpt lat="41.91096043947541" lon="1.7896798835660996"><ele>682.3333333333334</ele><time>2026-04-25T11:08:01Z</time></trkpt><trkpt lat="41.910784114123935" lon="1.7896912430092786"><ele>686.6666666666667</ele><time>2026-04-25T11:08:02Z</time></trkpt><trkpt lat="41.91060721549425" lon="1.7896791679280437"><ele>691.0</ele><time>2026-04-25T11:08:03Z</time></trkpt><trkpt lat="41.91043551559806" lon="1.7896454263336845"><ele>691.0</ele><time>2026-04-25T11:08:04Z</time></trkpt><trkpt lat="41.91025375453283" lon="1.7895927962569709"><ele>691.0</ele><time>2026-04-25T11:08:05Z</time></trkpt><trkpt lat="41.91006244679372" lon="1.7895429399384202"><ele>691.0</ele><time>2026-04-25T11:08:06Z</time></trkpt><trkpt lat="41.90985473975299" lon="1.789493647610608"><ele>689.6666666666667</ele><time>2026-04-25T11:08:07Z</time></trkpt><trkpt lat="41.90963593364699" lon="1.7894401491449465"><ele>688.3333333333334</ele><time>2026-04-25T11:08:08Z</time></trkpt><trkpt lat="41.90941385788893" lon="1.7893884085969083"><ele>687.0</ele><time>2026-04-25T11:08:09Z</time></trkpt><trkpt lat="41.90918957537566" lon="1.7893351083342095"><ele>684.5</ele><time>2026-04-25T11:08:10Z</time></trkpt><trkpt lat="41.90896520133928" lon="1.7892832943832249"><ele>682.0</ele><time>2026-04-25T11:08:11Z</time></trkpt><trkpt lat="41.90874171780024" lon="1.7892328264342414"><ele>682.0</ele><time>2026-04-25T11:08:12Z</time></trkpt><trkpt lat="41.908530396890164" lon="1.78918691414353"><ele>682.0</ele><time>2026-04-25T11:08:13Z</time></trkpt><trkpt lat="41.90832680142606" lon="1.7891409825507245"><ele>682.0</ele><time>2026-04-25T11:08:14Z</time></trkpt><trkpt lat="41.90812866497916" lon="1.7890939121095375"><ele>681.0</ele><time>2026-04-25T11:08:15Z</time></trkpt><trkpt lat="41.907932938675344" lon="1.7890417945842632"><ele>680.0</ele><time>2026-04-25T11:08:16Z</time></trkpt><trkpt lat="41.90773988185659" lon="1.788973516441718"><ele>679.0</ele><time>2026-04-25T11:08:17Z</time></trkpt><trkpt lat="41.90755251046294" lon="1.7888844271201159"><ele>679.0</ele><time>2026-04-25T11:08:18Z</time></trkpt><trkpt lat="41.90736729386518" lon="1.788775573897696"><ele>679.0</ele><time>2026-04-25T11:08:19Z</time></trkpt><trkpt lat="41.907191771604175" lon="1.7886674237333464"><ele>679.0</ele><time>2026-04-25T11:08:20Z</time></trkpt><trkpt lat="41.90702976763797" lon="1.7885385789546133"><ele>678.6666666666667</ele><time>2026-04-25T11:08:21Z</time></trkpt><trkpt lat="41.906884002988015" lon="1.7883794671639013"><ele>678.3333333333334</ele><time>2026-04-25T11:08:22Z</time></trkpt><trkpt lat="41.9067569690684" lon="1.7881822922011394"><ele>678.0</ele><time>2026-04-25T11:08:23Z</time></trkpt><trkpt lat="41.90663695102231" lon="1.787969176714432"><ele>678.0</ele><time>2026-04-25T11:08:24Z</time></trkpt><trkpt lat="41.9065202871309" lon="1.7877444848626918"><ele>678.0</ele><time>2026-04-25T11:08:25Z</time></trkpt><trkpt lat="41.906400401811354" lon="1.7875102309913744"><ele>678.0</ele><time>2026-04-25T11:08:26Z</time></trkpt><trkpt lat="41.90628106356344" lon="1.7872749095437488"><ele>674.0</ele><time>2026-04-25T11:08:27Z</time></trkpt><trkpt lat="41.90615783552832" lon="1.7870381732337957"><ele>670.0</ele><time>2026-04-25T11:08:28Z</time></trkpt><trkpt lat="41.9060381777814" lon="1.7868073562316047"><ele>666.0</ele><time>2026-04-25T11:08:29Z</time></trkpt><trkpt lat="41.90592946487092" lon="1.78658713382598"><ele>665.6666666666666</ele><time>2026-04-25T11:08:30Z</time></trkpt><trkpt lat="41.90582217568264" lon="1.7863608341695283"><ele>665.3333333333333</ele><time>2026-04-25T11:08:31Z</time></trkpt><trkpt lat="41.90571213937978" lon="1.7861327985811117"><ele>665.0</ele><time>2026-04-25T11:08:32Z</time></trkpt><trkpt lat="41.9055946026897" lon="1.7859038700326146"><ele>665.0</ele><time>2026-04-25T11:08:33Z</time></trkpt><trkpt lat="41.90547588934711" lon="1.7856876885914876"><ele>665.0</ele><time>2026-04-25T11:08:34Z</time></trkpt><trkpt lat="41.90536314526567" lon="1.7854819449592574"><ele>665.0</ele><time>2026-04-25T11:08:35Z</time></trkpt><trkpt lat="41.905260869051354" lon="1.7852852301348634"><ele>667.3333333333333</ele><time>2026-04-25T11:08:36Z</time></trkpt><trkpt lat="41.905175955702376" lon="1.7850764954318372"><ele>669.6666666666666</ele><time>2026-04-25T11:08:37Z</time></trkpt><trkpt lat="41.905116408219634" lon="1.7848404320808144"><ele>672.0</ele><time>2026-04-25T11:08:38Z</time></trkpt><trkpt lat="41.905070109612424" lon="1.7845980434743491"><ele>672.0</ele><time>2026-04-25T11:08:39Z</time></trkpt><trkpt lat="41.90502426265404" lon="1.7843756864708369"><ele>672.0</ele><time>2026-04-25T11:08:40Z</time></trkpt><trkpt lat="41.904977431010145" lon="1.7841719281657233"><ele>672.0</ele><time>2026-04-25T11:08:41Z</time></trkpt><trkpt lat="41.90492126335447" lon="1.783963364446416"><ele>669.0</ele><time>2026-04-25T11:08:42Z</time></trkpt><trkpt lat="41.904860775847695" lon="1.7837567182665748"><ele>666.0</ele><time>2026-04-25T11:08:43Z</time></trkpt><trkpt lat="41.90480075457145" lon="1.783561707153558"><ele>663.0</ele><time>2026-04-25T11:08:44Z</time></trkpt><trkpt lat="41.904734295437734" lon="1.7833873401452256"><ele>662.0</ele><time>2026-04-25T11:08:45Z</time></trkpt><trkpt lat="41.90462977839919" lon="1.7832430612884382"><ele>661.0</ele><time>2026-04-25T11:08:46Z</time></trkpt><trkpt lat="41.90447954443432" lon="1.783130548312622"><ele>660.0</ele><time>2026-04-25T11:08:47Z</time></trkpt><trkpt lat="41.90430314742209" lon="1.7830644178937212"><ele>658.6666666666666</ele><time>2026-04-25T11:08:48Z</time></trkpt><trkpt lat="41.904111945560096" lon="1.7830211873998416"><ele>657.3333333333333</ele><time>2026-04-25T11:08:49Z</time></trkpt><trkpt lat="41.903911465239695" lon="1.7829939295229082"><ele>656.0</ele><time>2026-04-25T11:08:50Z</time></trkpt><trkpt lat="41.90372406602899" lon="1.7829875682573904"><ele>656.0</ele><time>2026-04-25T11:08:51Z</time></trkpt><trkpt lat="41.903549714460546" lon="1.7830085921304577"><ele>656.0</ele><time>2026-04-25T11:08:52Z</time></trkpt><trkpt lat="41.903369064379284" lon="1.783018882236835"><ele>656.0</ele><time>2026-04-25T11:08:53Z</time></trkpt><trkpt lat="41.903182069717246" lon="1.7829975821729707"><ele>654.3333333333333</ele><time>2026-04-25T11:08:54Z</time></trkpt><trkpt lat="41.902985046180454" lon="1.78296645644529"><ele>652.6666666666666</ele><time>2026-04-25T11:08:55Z</time></trkpt><trkpt lat="41.90278456957833" lon="1.782942967900046"><ele>651.0</ele><time>2026-04-25T11:08:56Z</time></trkpt><trkpt lat="41.90258515812454" lon="1.7829173545541073"><ele>649.6666666666666</ele><time>2026-04-25T11:08:57Z</time></trkpt><trkpt lat="41.90237824602012" lon="1.782894557403938"><ele>648.3333333333333</ele><time>2026-04-25T11:08:58Z</time></trkpt><trkpt lat="41.902176461877815" lon="1.7828743239474425"><ele>647.0</ele><time>2026-04-25T11:08:59Z</time></trkpt><trkpt lat="41.90202328134153" lon="1.7828511907460165"><ele>647.0</ele><time>2026-04-25T11:09:00Z</time></trkpt><trkpt lat="41.90188078334213" lon="1.7828275122900905"><ele>647.0</ele><time>2026-04-25T11:09:01Z</time></trkpt><trkpt lat="41.9017505669462" lon="1.7827751622319805"><ele>647.0</ele><time>2026-04-25T11:09:02Z</time></trkpt><trkpt lat="41.901630827026345" lon="1.7826618180746236"><ele>647.0</ele><time>2026-04-25T11:09:03Z</time></trkpt><trkpt lat="41.90152236554003" lon="1.7825070175080435"><ele>648.6666666666666</ele><time>2026-04-25T11:09:04Z</time></trkpt><trkpt lat="41.90140052653788" lon="1.7823635467752996"><ele>650.3333333333334</ele><time>2026-04-25T11:09:05Z</time></trkpt><trkpt lat="41.90126817799002" lon="1.7822222990477388"><ele>652.0</ele><time>2026-04-25T11:09:06Z</time></trkpt><trkpt lat="41.90113729156426" lon="1.7820852860370444"><ele>652.0</ele><time>2026-04-25T11:09:07Z</time></trkpt><trkpt lat="41.90102102491763" lon="1.781971738391649"><ele>652.0</ele><time>2026-04-25T11:09:08Z</time></trkpt><trkpt lat="41.90091271447775" lon="1.781878590677225"><ele>652.0</ele><time>2026-04-25T11:09:09Z</time></trkpt><trkpt lat="41.90081729783162" lon="1.7818082863756286"><ele>652.0</ele><time>2026-04-25T11:09:10Z</time></trkpt><trkpt lat="41.90072434737433" lon="1.7817487760293051"><ele>652.0</ele><time>2026-04-25T11:09:11Z</time></trkpt><trkpt lat="41.90062643687069" lon="1.781694171791973"><ele>652.0</ele><time>2026-04-25T11:09:12Z</time></trkpt><trkpt lat="41.900508158207316" lon="1.7816548733182493"><ele>652.0</ele><time>2026-04-25T11:09:13Z</time></trkpt><trkpt lat="41.900379765206395" lon="1.781635526990803"><ele>652.0</ele><time>2026-04-25T11:09:14Z</time></trkpt><trkpt lat="41.900245026426205" lon="1.781587219983398"><ele>652.0</ele><time>2026-04-25T11:09:15Z</time></trkpt><trkpt lat="41.90010514518018" lon="1.7814954648890253"><ele>652.0</ele><time>2026-04-25T11:09:16Z</time></trkpt><trkpt lat="41.899971259060905" lon="1.7813853543272982"><ele>652.0</ele><time>2026-04-25T11:09:17Z</time></trkpt><trkpt lat="41.89983325704316" lon="1.7812713038589087"><ele>649.3333333333334</ele><time>2026-04-25T11:09:18Z</time></trkpt><trkpt lat="41.89968991221822" lon="1.7811629399828945"><ele>646.6666666666666</ele><time>2026-04-25T11:09:19Z</time></trkpt><trkpt lat="41.89955419050624" lon="1.7810733533825982"><ele>644.0</ele><time>2026-04-25T11:09:20Z</time></trkpt><trkpt lat="41.8994079957855" lon="1.7810378298222387"><ele>644.0</ele><time>2026-04-25T11:09:21Z</time></trkpt><trkpt lat="41.89924640018384" lon="1.7810634003731183"><ele>644.0</ele><time>2026-04-25T11:09:22Z</time></trkpt><trkpt lat="41.8990834789699" lon="1.7811353252169204"><ele>644.0</ele><time>2026-04-25T11:09:23Z</time></trkpt><trkpt lat="41.898908322865196" lon="1.7811999029579901"><ele>644.0</ele><time>2026-04-25T11:09:24Z</time></trkpt><trkpt lat="41.898740235992" lon="1.7812198969649795"><ele>644.0</ele><time>2026-04-25T11:09:25Z</time></trkpt><trkpt lat="41.89859191462832" lon="1.7812083609140597"><ele>644.0</ele><time>2026-04-25T11:09:26Z</time></trkpt><trkpt lat="41.898449908103686" lon="1.781137634349111"><ele>644.0</ele><time>2026-04-25T11:09:27Z</time></trkpt><trkpt lat="41.89833161962011" lon="1.781011907398439"><ele>644.0</ele><time>2026-04-25T11:09:28Z</time></trkpt><trkpt lat="41.89824092541471" lon="1.7808346215551119"><ele>644.0</ele><time>2026-04-25T11:09:29Z</time></trkpt><trkpt lat="41.898147095704516" lon="1.7806304589652395"><ele>644.0</ele><time>2026-04-25T11:09:30Z</time></trkpt><trkpt lat="41.89803344148136" lon="1.780437154140445"><ele>644.0</ele><time>2026-04-25T11:09:31Z</time></trkpt><trkpt lat="41.89788902325874" lon="1.780304222536474"><ele>644.0</ele><time>2026-04-25T11:09:32Z</time></trkpt><trkpt lat="41.89772486468536" lon="1.7801972205931926"><ele>640.0</ele><time>2026-04-25T11:09:33Z</time></trkpt><trkpt lat="41.897576772286" lon="1.7801027467820838"><ele>636.0</ele><time>2026-04-25T11:09:34Z</time></trkpt><trkpt lat="41.89745589522477" lon="1.7799939912349005"><ele>632.0</ele><time>2026-04-25T11:09:35Z</time></trkpt><trkpt lat="41.89735560943192" lon="1.7798399783327605"><ele>632.0</ele><time>2026-04-25T11:09:36Z</time></trkpt><trkpt lat="41.897267771023685" lon="1.7796356627982544"><ele>632.0</ele><time>2026-04-25T11:09:37Z</time></trkpt><trkpt lat="41.8971895899415" lon="1.7794075397491802"><ele>632.0</ele><time>2026-04-25T11:09:38Z</time></trkpt><trkpt lat="41.89711352044175" lon="1.7791629540807528"><ele>633.0</ele><time>2026-04-25T11:09:39Z</time></trkpt><trkpt lat="41.89703642224754" lon="1.7789510030285531"><ele>634.0</ele><time>2026-04-25T11:09:40Z</time></trkpt><trkpt lat="41.8969423569908" lon="1.7787643786669594"><ele>635.0</ele><time>2026-04-25T11:09:41Z</time></trkpt><trkpt lat="41.89680135122769" lon="1.7785962330561944"><ele>631.6666666666666</ele><time>2026-04-25T11:09:42Z</time></trkpt><trkpt lat="41.89663091231144" lon="1.7784274230474686"><ele>628.3333333333334</ele><time>2026-04-25T11:09:43Z</time></trkpt><trkpt lat="41.89646270475309" lon="1.778251153011893"><ele>625.0</ele><time>2026-04-25T11:09:44Z</time></trkpt><trkpt lat="41.89631527212135" lon="1.7780802910894877"><ele>625.0</ele><time>2026-04-25T11:09:45Z</time></trkpt><trkpt lat="41.89617366070062" lon="1.7779177897478602"><ele>625.0</ele><time>2026-04-25T11:09:46Z</time></trkpt><trkpt lat="41.89602354116695" lon="1.777763811299617"><ele>625.0</ele><time>2026-04-25T11:09:47Z</time></trkpt><trkpt lat="41.895847613456475" lon="1.7776307187589284"><ele>624.0</ele><time>2026-04-25T11:09:48Z</time></trkpt><trkpt lat="41.895648380491" lon="1.7775296822064384"><ele>623.0</ele><time>2026-04-25T11:09:49Z</time></trkpt><trkpt lat="41.89547564550172" lon="1.7774411651659017"><ele>622.0</ele><time>2026-04-25T11:09:50Z</time></trkpt><trkpt lat="41.89532338694008" lon="1.7773617640182673"><ele>622.0</ele><time>2026-04-25T11:09:51Z</time></trkpt><trkpt lat="41.895189998048885" lon="1.7772824926332709"><ele>622.0</ele><time>2026-04-25T11:09:52Z</time></trkpt><trkpt lat="41.895070819224074" lon="1.777171297694847"><ele>622.0</ele><time>2026-04-25T11:09:53Z</time></trkpt><trkpt lat="41.89497228162953" lon="1.7770180140147365"><ele>622.0</ele><time>2026-04-25T11:09:54Z</time></trkpt><trkpt lat="41.894908515536656" lon="1.7768279493418841"><ele>620.6666666666667</ele><time>2026-04-25T11:09:55Z</time></trkpt><trkpt lat="41.894871205519685" lon="1.7766119564123932"><ele>619.3333333333334</ele><time>2026-04-25T11:09:56Z</time></trkpt><trkpt lat="41.89483993718463" lon="1.7763875744601716"><ele>618.0</ele><time>2026-04-25T11:09:57Z</time></trkpt><trkpt lat="41.894786110975254" lon="1.7762001881670144"><ele>618.0</ele><time>2026-04-25T11:09:58Z</time></trkpt><trkpt lat="41.894686000411426" lon="1.7760477896543343"><ele>618.0</ele><time>2026-04-25T11:09:59Z</time></trkpt><trkpt lat="41.89453921775681" lon="1.7759239281130914"><ele>618.0</ele><time>2026-04-25T11:10:00Z</time></trkpt><trkpt lat="41.89438897445986" lon="1.7758022444644184"><ele>611.3333333333334</ele><time>2026-04-25T11:10:01Z</time></trkpt><trkpt lat="41.894216585475036" lon="1.7756581226884889"><ele>604.6666666666667</ele><time>2026-04-25T11:10:02Z</time></trkpt><trkpt lat="41.894040852130544" lon="1.775501498886082"><ele>598.0</ele><time>2026-04-25T11:10:03Z</time></trkpt><trkpt lat="41.89387072739967" lon="1.7753575623162081"><ele>598.0</ele><time>2026-04-25T11:10:04Z</time></trkpt><trkpt lat="41.89368745021678" lon="1.7752270796087584"><ele>598.0</ele><time>2026-04-25T11:10:05Z</time></trkpt><trkpt lat="41.893476157061684" lon="1.7751215471575106"><ele>598.0</ele><time>2026-04-25T11:10:06Z</time></trkpt><trkpt lat="41.89324469982113" lon="1.7750340727902514"><ele>596.0</ele><time>2026-04-25T11:10:07Z</time></trkpt><trkpt lat="41.89299805874673" lon="1.7749541657625674"><ele>594.0</ele><time>2026-04-25T11:10:08Z</time></trkpt><trkpt lat="41.89274598124966" lon="1.7748830288149613"><ele>592.5</ele><time>2026-04-25T11:10:09Z</time></trkpt><trkpt lat="41.8924871172796" lon="1.7748118304294433"><ele>591.0</ele><time>2026-04-25T11:10:10Z</time></trkpt><trkpt lat="41.892229914160055" lon="1.7747377011058616"><ele>591.0</ele><time>2026-04-25T11:10:11Z</time></trkpt><trkpt lat="41.89197696970941" lon="1.774661501397018"><ele>591.0</ele><time>2026-04-25T11:10:12Z</time></trkpt><trkpt lat="41.89174189565824" lon="1.7745896485642179"><ele>589.3333333333334</ele><time>2026-04-25T11:10:13Z</time></trkpt><trkpt lat="41.89152544591025" lon="1.7745227340595797"><ele>587.6666666666667</ele><time>2026-04-25T11:10:14Z</time></trkpt><trkpt lat="41.89130964642143" lon="1.7744576705433235"><ele>586.0</ele><time>2026-04-25T11:10:15Z</time></trkpt><trkpt lat="41.89111488194806" lon="1.7744025794259115"><ele>588.6666666666667</ele><time>2026-04-25T11:10:16Z</time></trkpt><trkpt lat="41.89093591380107" lon="1.7743511126744118"><ele>591.3333333333334</ele><time>2026-04-25T11:10:17Z</time></trkpt><trkpt lat="41.89075675100695" lon="1.7742813451276471"><ele>594.0</ele><time>2026-04-25T11:10:18Z</time></trkpt><trkpt lat="41.890577337837215" lon="1.774170208762885"><ele>594.0</ele><time>2026-04-25T11:10:19Z</time></trkpt><trkpt lat="41.89040795973859" lon="1.7740196323186699"><ele>594.0</ele><time>2026-04-25T11:10:20Z</time></trkpt><trkpt lat="41.89024957310004" lon="1.7738369048291198"><ele>594.0</ele><time>2026-04-25T11:10:21Z</time></trkpt><trkpt lat="41.89011136113172" lon="1.7736235937798168"><ele>595.0</ele><time>2026-04-25T11:10:22Z</time></trkpt><trkpt lat="41.889987704986794" lon="1.7733839778716531"><ele>596.0</ele><time>2026-04-25T11:10:23Z</time></trkpt><trkpt lat="41.88986732361199" lon="1.7731345328408497"><ele>597.0</ele><time>2026-04-25T11:10:24Z</time></trkpt><trkpt lat="41.88973837772399" lon="1.7728846717048155"><ele>597.3333333333334</ele><time>2026-04-25T11:10:25Z</time></trkpt><trkpt lat="41.889610959593455" lon="1.7726457137319334"><ele>597.6666666666667</ele><time>2026-04-25T11:10:26Z</time></trkpt><trkpt lat="41.889488211423206" lon="1.7724198276301226"><ele>598.0</ele><time>2026-04-25T11:10:27Z</time></trkpt><trkpt lat="41.889366349985984" lon="1.7721934452995507"><ele>597.3333333333334</ele><time>2026-04-25T11:10:28Z</time></trkpt><trkpt lat="41.88925605643494" lon="1.7719873168031919"><ele>596.6666666666666</ele><time>2026-04-25T11:10:29Z</time></trkpt><trkpt lat="41.88915265510678" lon="1.7717933822844307"><ele>596.0</ele><time>2026-04-25T11:10:30Z</time></trkpt><trkpt lat="41.88905021751847" lon="1.7716010449974948"><ele>596.0</ele><time>2026-04-25T11:10:31Z</time></trkpt><trkpt lat="41.88896245791108" lon="1.7714012643495238"><ele>596.0</ele><time>2026-04-25T11:10:32Z</time></trkpt><trkpt lat="41.888902020880714" lon="1.7711768188037402"><ele>596.0</ele><time>2026-04-25T11:10:33Z</time></trkpt><trkpt lat="41.88886546419519" lon="1.770932609995606"><ele>594.6666666666666</ele><time>2026-04-25T11:10:34Z</time></trkpt><trkpt lat="41.88883416504952" lon="1.7706794129787236"><ele>593.3333333333334</ele><time>2026-04-25T11:10:35Z</time></trkpt><trkpt lat="41.888789405798676" lon="1.7704522222786951"><ele>592.0</ele><time>2026-04-25T11:10:36Z</time></trkpt><trkpt lat="41.888710119723314" lon="1.7702440579933196"><ele>591.3333333333334</ele><time>2026-04-25T11:10:37Z</time></trkpt><trkpt lat="41.88858733307382" lon="1.7700493832651463"><ele>590.6666666666666</ele><time>2026-04-25T11:10:38Z</time></trkpt><trkpt lat="41.88843535872282" lon="1.769849449791912"><ele>590.0</ele><time>2026-04-25T11:10:39Z</time></trkpt><trkpt lat="41.88827277229621" lon="1.769641593609834"><ele>590.0</ele><time>2026-04-25T11:10:40Z</time></trkpt><trkpt lat="41.88811005151377" lon="1.769421166431666"><ele>590.0</ele><time>2026-04-25T11:10:41Z</time></trkpt><trkpt lat="41.887947871975456" lon="1.7691946795649212"><ele>592.0</ele><time>2026-04-25T11:10:42Z</time></trkpt><trkpt lat="41.887785868359515" lon="1.7689634272083614"><ele>594.0</ele><time>2026-04-25T11:10:43Z</time></trkpt><trkpt lat="41.88762629696754" lon="1.76873623760889"><ele>594.3333333333334</ele><time>2026-04-25T11:10:44Z</time></trkpt><trkpt lat="41.887474364284294" lon="1.7685212567904702"><ele>594.6666666666667</ele><time>2026-04-25T11:10:45Z</time></trkpt><trkpt lat="41.8873361695896" lon="1.7683254815908922"><ele>595.0</ele><time>2026-04-25T11:10:46Z</time></trkpt><trkpt lat="41.887203076037416" lon="1.7681388412560466"><ele>595.0</ele><time>2026-04-25T11:10:47Z</time></trkpt><trkpt lat="41.88706567765082" lon="1.7679537848377487"><ele>595.0</ele><time>2026-04-25T11:10:48Z</time></trkpt><trkpt lat="41.886921543102524" lon="1.7677799927759004"><ele>595.0</ele><time>2026-04-25T11:10:49Z</time></trkpt><trkpt lat="41.88677046978248" lon="1.7676329612394714"><ele>594.3333333333334</ele><time>2026-04-25T11:10:50Z</time></trkpt><trkpt lat="41.88660564285289" lon="1.7675174595459515"><ele>593.6666666666666</ele><time>2026-04-25T11:10:51Z</time></trkpt><trkpt lat="41.886422378740086" lon="1.7674294939959059"><ele>593.0</ele><time>2026-04-25T11:10:52Z</time></trkpt><trkpt lat="41.886231887298344" lon="1.7673835454854874"><ele>593.0</ele><time>2026-04-25T11:10:53Z</time></trkpt><trkpt lat="41.886027163024245" lon="1.767378654253794"><ele>593.0</ele><time>2026-04-25T11:10:54Z</time></trkpt><trkpt lat="41.88581087331002" lon="1.767385783599019"><ele>593.0</ele><time>2026-04-25T11:10:55Z</time></trkpt><trkpt lat="41.88559413638619" lon="1.7673699927826634"><ele>588.6666666666666</ele><time>2026-04-25T11:10:56Z</time></trkpt><trkpt lat="41.88537346850373" lon="1.7673210904771215"><ele>584.3333333333334</ele><time>2026-04-25T11:10:57Z</time></trkpt><trkpt lat="41.88516477477114" lon="1.767253747108358"><ele>580.0</ele><time>2026-04-25T11:10:58Z</time></trkpt><trkpt lat="41.88496111931994" lon="1.7671817482737213"><ele>574.6666666666667</ele><time>2026-04-25T11:10:59Z</time></trkpt><trkpt lat="41.884769937720606" lon="1.7671188204646426"><ele>569.3333333333334</ele><time>2026-04-25T11:11:00Z</time></trkpt><trkpt lat="41.88458223339178" lon="1.7670802061912474"><ele>564.0</ele><time>2026-04-25T11:11:01Z</time></trkpt><trkpt lat="41.88439486135912" lon="1.7670807459992568"><ele>561.0</ele><time>2026-04-25T11:11:02Z</time></trkpt><trkpt lat="41.88421816945032" lon="1.7671146241132607"><ele>558.0</ele><time>2026-04-25T11:11:03Z</time></trkpt><trkpt lat="41.88405010250576" lon="1.7671416847370438"><ele>555.0</ele><time>2026-04-25T11:11:04Z</time></trkpt><trkpt lat="41.88388010238319" lon="1.7671365772972412"><ele>555.0</ele><time>2026-04-25T11:11:05Z</time></trkpt><trkpt lat="41.88371683435122" lon="1.7671159477637275"><ele>555.0</ele><time>2026-04-25T11:11:06Z</time></trkpt><trkpt lat="41.883558909922066" lon="1.7671315656511508"><ele>555.0</ele><time>2026-04-25T11:11:07Z</time></trkpt><trkpt lat="41.88340260662102" lon="1.767211456271736"><ele>558.0</ele><time>2026-04-25T11:11:08Z</time></trkpt><trkpt lat="41.883248724101215" lon="1.7673742627765796"><ele>561.0</ele><time>2026-04-25T11:11:09Z</time></trkpt><trkpt lat="41.88312490365631" lon="1.7675184434635782"><ele>564.0</ele><time>2026-04-25T11:11:10Z</time></trkpt><trkpt lat="41.88299797099688" lon="1.7676407597689672"><ele>557.75</ele><time>2026-04-25T11:11:11Z</time></trkpt><trkpt lat="41.88288346304098" lon="1.7677329158545105"><ele>551.5</ele><time>2026-04-25T11:11:12Z</time></trkpt><trkpt lat="41.882759093538596" lon="1.7677859711984854"><ele>545.25</ele><time>2026-04-25T11:11:13Z</time></trkpt><trkpt lat="41.88261467906968" lon="1.7677854694003816"><ele>539.0</ele><time>2026-04-25T11:11:14Z</time></trkpt><trkpt lat="41.88245092967074" lon="1.7677263117573785"><ele>548.0</ele><time>2026-04-25T11:11:15Z</time></trkpt><trkpt lat="41.8822821955837" lon="1.767641824630543"><ele>557.0</ele><time>2026-04-25T11:11:16Z</time></trkpt><trkpt lat="41.88211221258091" lon="1.7675932802073726"><ele>566.0</ele><time>2026-04-25T11:11:17Z</time></trkpt><trkpt lat="41.88192216974903" lon="1.7676034932758249"><ele>563.3333333333333</ele><time>2026-04-25T11:11:18Z</time></trkpt><trkpt lat="41.881730259774116" lon="1.7676500956267316"><ele>560.6666666666666</ele><time>2026-04-25T11:11:19Z</time></trkpt><trkpt lat="41.88155052849648" lon="1.767695587305378"><ele>558.0</ele><time>2026-04-25T11:11:20Z</time></trkpt><trkpt lat="41.88138909095374" lon="1.7677450415641869"><ele>551.6666666666666</ele><time>2026-04-25T11:11:21Z</time></trkpt><trkpt lat="41.88122635501462" lon="1.7678328665803467"><ele>545.3333333333333</ele><time>2026-04-25T11:11:22Z</time></trkpt><trkpt lat="41.881062092945086" lon="1.7679493464257479"><ele>539.0</ele><time>2026-04-25T11:11:23Z</time></trkpt><trkpt lat="41.88090393505118" lon="1.768040291475815"><ele>539.0</ele><time>2026-04-25T11:11:24Z</time></trkpt><trkpt lat="41.88073866043689" lon="1.768076902138391"><ele>539.0</ele><time>2026-04-25T11:11:25Z</time></trkpt><trkpt lat="41.8805478457858" lon="1.7680617267929326"><ele>539.0</ele><time>2026-04-25T11:11:26Z</time></trkpt><trkpt lat="41.88038120888676" lon="1.7680094871532126"><ele>539.0</ele><time>2026-04-25T11:11:27Z</time></trkpt><trkpt lat="41.880213229732774" lon="1.767945653893886"><ele>539.0</ele><time>2026-04-25T11:11:28Z</time></trkpt><trkpt lat="41.88007127909267" lon="1.7678590536969352"><ele>539.0</ele><time>2026-04-25T11:11:29Z</time></trkpt><trkpt lat="41.87995472521308" lon="1.7677603692840878"><ele>540.0</ele><time>2026-04-25T11:11:30Z</time></trkpt><trkpt lat="41.87987649081705" lon="1.7676192301426212"><ele>541.0</ele><time>2026-04-25T11:11:31Z</time></trkpt><trkpt lat="41.87981151581626" lon="1.767429096362014"><ele>542.0</ele><time>2026-04-25T11:11:32Z</time></trkpt><trkpt lat="41.87975628568924" lon="1.767244344535248"><ele>543.0</ele><time>2026-04-25T11:11:33Z</time></trkpt><trkpt lat="41.87966721618304" lon="1.7671026382789572"><ele>543.0</ele><time>2026-04-25T11:11:34Z</time></trkpt><trkpt lat="41.87953328594537" lon="1.7670275273476417"><ele>543.0</ele><time>2026-04-25T11:11:35Z</time></trkpt><trkpt lat="41.87936383035271" lon="1.7670370493287972"><ele>543.0</ele><time>2026-04-25T11:11:36Z</time></trkpt><trkpt lat="41.879165828297914" lon="1.767073199948896"><ele>539.3333333333334</ele><time>2026-04-25T11:11:37Z</time></trkpt><trkpt lat="41.878969658490405" lon="1.7671202233705137"><ele>535.6666666666667</ele><time>2026-04-25T11:11:38Z</time></trkpt><trkpt lat="41.87878157618309" lon="1.7671474459571153"><ele>532.0</ele><time>2026-04-25T11:11:39Z</time></trkpt><trkpt lat="41.87861477051749" lon="1.7671661370630156"><ele>532.0</ele><time>2026-04-25T11:11:40Z</time></trkpt><trkpt lat="41.878451164319046" lon="1.7671944806502247"><ele>532.0</ele><time>2026-04-25T11:11:41Z</time></trkpt><trkpt lat="41.878281095056764" lon="1.7672747757960734"><ele>532.0</ele><time>2026-04-25T11:11:42Z</time></trkpt><trkpt lat="41.87814080706171" lon="1.767375281197343"><ele>530.6666666666667</ele><time>2026-04-25T11:11:43Z</time></trkpt><trkpt lat="41.87800932623539" lon="1.767508700003942"><ele>529.3333333333334</ele><time>2026-04-25T11:11:44Z</time></trkpt><trkpt lat="41.87787640109014" lon="1.7676524393892719"><ele>528.0</ele><time>2026-04-25T11:11:45Z</time></trkpt><trkpt lat="41.87774816415844" lon="1.7677598816984936"><ele>527.0</ele><time>2026-04-25T11:11:46Z</time></trkpt><trkpt lat="41.8776184030005" lon="1.7678121197013745"><ele>526.0</ele><time>2026-04-25T11:11:47Z</time></trkpt><trkpt lat="41.877475373776896" lon="1.7678123927636895"><ele>525.0</ele><time>2026-04-25T11:11:48Z</time></trkpt><trkpt lat="41.877326415717725" lon="1.7677527331434946"><ele>524.0</ele><time>2026-04-25T11:11:49Z</time></trkpt><trkpt lat="41.877157728048076" lon="1.7676417069646015"><ele>524.0</ele><time>2026-04-25T11:11:50Z</time></trkpt><trkpt lat="41.87697868918475" lon="1.7675229999476387"><ele>524.0</ele><time>2026-04-25T11:11:51Z</time></trkpt><trkpt lat="41.87679023760095" lon="1.7674124932206219"><ele>524.0</ele><time>2026-04-25T11:11:52Z</time></trkpt><trkpt lat="41.87660067367838" lon="1.7673120940487312"><ele>522.3333333333333</ele><time>2026-04-25T11:11:53Z</time></trkpt><trkpt lat="41.8764319458086" lon="1.7672203093498318"><ele>520.6666666666666</ele><time>2026-04-25T11:11:54Z</time></trkpt><trkpt lat="41.8762667200572" lon="1.7671176204069823"><ele>519.0</ele><time>2026-04-25T11:11:55Z</time></trkpt><trkpt lat="41.87610850675243" lon="1.7669820229330342"><ele>518.6666666666666</ele><time>2026-04-25T11:11:56Z</time></trkpt><trkpt lat="41.875964064328926" lon="1.766817647069037"><ele>518.3333333333333</ele><time>2026-04-25T11:11:57Z</time></trkpt><trkpt lat="41.87582430219719" lon="1.7666327914604556"><ele>518.0</ele><time>2026-04-25T11:11:58Z</time></trkpt><trkpt lat="41.87568601417983" lon="1.7664581539672035"><ele>516.6666666666666</ele><time>2026-04-25T11:11:59Z</time></trkpt><trkpt lat="41.875565613910084" lon="1.7663178925785534"><ele>515.3333333333334</ele><time>2026-04-25T11:12:00Z</time></trkpt><trkpt lat="41.875448168230776" lon="1.766188132280448"><ele>514.0</ele><time>2026-04-25T11:12:01Z</time></trkpt><trkpt lat="41.87529622065338" lon="1.7660579793304703"><ele>514.6666666666667</ele><time>2026-04-25T11:12:02Z</time></trkpt><trkpt lat="41.875143358351835" lon="1.7659886261421363"><ele>515.3333333333334</ele><time>2026-04-25T11:12:03Z</time></trkpt><trkpt lat="41.874968797489586" lon="1.7659646822463715"><ele>516.0</ele><time>2026-04-25T11:12:04Z</time></trkpt><trkpt lat="41.874783347990714" lon="1.7659743231919292"><ele>516.0</ele><time>2026-04-25T11:12:05Z</time></trkpt><trkpt lat="41.87459372140606" lon="1.7660150822746237"><ele>516.0</ele><time>2026-04-25T11:12:06Z</time></trkpt><trkpt lat="41.8744021233126" lon="1.766080153813359"><ele>516.0</ele><time>2026-04-25T11:12:07Z</time></trkpt><trkpt lat="41.8742176970488" lon="1.7661325948132325"><ele>513.3333333333334</ele><time>2026-04-25T11:12:08Z</time></trkpt><trkpt lat="41.874042971853434" lon="1.7661799249829744"><ele>510.6666666666667</ele><time>2026-04-25T11:12:09Z</time></trkpt><trkpt lat="41.87388551171067" lon="1.766214427496895"><ele>508.0</ele><time>2026-04-25T11:12:10Z</time></trkpt><trkpt lat="41.87373922151909" lon="1.7662532623620413"><ele>508.0</ele><time>2026-04-25T11:12:11Z</time></trkpt><trkpt lat="41.873602379714754" lon="1.7662686100135243"><ele>508.0</ele><time>2026-04-25T11:12:12Z</time></trkpt><trkpt lat="41.87345269568617" lon="1.7662463221393756"><ele>508.0</ele><time>2026-04-25T11:12:13Z</time></trkpt><trkpt lat="41.87328552790535" lon="1.766176638815603"><ele>509.33333333333337</ele><time>2026-04-25T11:12:14Z</time></trkpt><trkpt lat="41.873091552768784" lon="1.7660926108640655"><ele>510.66666666666663</ele><time>2026-04-25T11:12:15Z</time></trkpt><trkpt lat="41.872878250584016" lon="1.7660097959581273"><ele>512.0</ele><time>2026-04-25T11:12:16Z</time></trkpt><trkpt lat="41.87265423371786" lon="1.7659236820161917"><ele>509.5</ele><time>2026-04-25T11:12:17Z</time></trkpt><trkpt lat="41.87242617863343" lon="1.7658429453660522"><ele>507.0</ele><time>2026-04-25T11:12:18Z</time></trkpt><trkpt lat="41.872190779143246" lon="1.7657630534082591"><ele>507.0</ele><time>2026-04-25T11:12:19Z</time></trkpt><trkpt lat="41.87195348269864" lon="1.7656840151887967"><ele>507.0</ele><time>2026-04-25T11:12:20Z</time></trkpt><trkpt lat="41.87171952943295" lon="1.765597263551824"><ele>501.5</ele><time>2026-04-25T11:12:21Z</time></trkpt><trkpt lat="41.87149189422485" lon="1.7655101014054824"><ele>496.0</ele><time>2026-04-25T11:12:22Z</time></trkpt><trkpt lat="41.87126997952084" lon="1.7654278555731546"><ele>496.0</ele><time>2026-04-25T11:12:23Z</time></trkpt><trkpt lat="41.87105792090632" lon="1.7653507590654156"><ele>496.0</ele><time>2026-04-25T11:12:24Z</time></trkpt><trkpt lat="41.87085376796847" lon="1.7652733194860784"><ele>496.0</ele><time>2026-04-25T11:12:25Z</time></trkpt><trkpt lat="41.870663443917856" lon="1.7651982136959192"><ele>497.0</ele><time>2026-04-25T11:12:26Z</time></trkpt><trkpt lat="41.87047272113226" lon="1.7651300126791623"><ele>498.0</ele><time>2026-04-25T11:12:27Z</time></trkpt><trkpt lat="41.87027449786125" lon="1.7650895100258615"><ele>499.0</ele><time>2026-04-25T11:12:28Z</time></trkpt><trkpt lat="41.87006474664161" lon="1.7650955767681058"><ele>500.0</ele><time>2026-04-25T11:12:29Z</time></trkpt><trkpt lat="41.86985363224738" lon="1.7651342912869084"><ele>501.0</ele><time>2026-04-25T11:12:30Z</time></trkpt><trkpt lat="41.869666513992975" lon="1.7651756766254059"><ele>502.0</ele><time>2026-04-25T11:12:31Z</time></trkpt><trkpt lat="41.86950945719048" lon="1.7651881593174943"><ele>502.0</ele><time>2026-04-25T11:12:32Z</time></trkpt><trkpt lat="41.86934299286246" lon="1.7651197540886392"><ele>502.0</ele><time>2026-04-25T11:12:33Z</time></trkpt><trkpt lat="41.86916813420661" lon="1.764997584763706"><ele>502.0</ele><time>2026-04-25T11:12:34Z</time></trkpt><trkpt lat="41.86898240802553" lon="1.7648633994673735"><ele>502.0</ele><time>2026-04-25T11:12:35Z</time></trkpt><trkpt lat="41.86877989648041" lon="1.7647648795685575"><ele>502.0</ele><time>2026-04-25T11:12:36Z</time></trkpt><trkpt lat="41.86856269756251" lon="1.764719995497113"><ele>502.0</ele><time>2026-04-25T11:12:37Z</time></trkpt><trkpt lat="41.86833608874854" lon="1.7647072890835904"><ele>499.0</ele><time>2026-04-25T11:12:38Z</time></trkpt><trkpt lat="41.868117078384444" lon="1.7646916264655854"><ele>496.0</ele><time>2026-04-25T11:12:39Z</time></trkpt><trkpt lat="41.867922131664606" lon="1.7646664482047274"><ele>493.0</ele><time>2026-04-25T11:12:40Z</time></trkpt><trkpt lat="41.86773957423292" lon="1.7646379713720604"><ele>493.0</ele><time>2026-04-25T11:12:41Z</time></trkpt><trkpt lat="41.867565264138705" lon="1.7645876905726994"><ele>493.0</ele><time>2026-04-25T11:12:42Z</time></trkpt><trkpt lat="41.86740547405836" lon="1.7644991735663016"><ele>493.0</ele><time>2026-04-25T11:12:43Z</time></trkpt><trkpt lat="41.86723745689949" lon="1.764379228656966"><ele>492.6666666666667</ele><time>2026-04-25T11:12:44Z</time></trkpt><trkpt lat="41.86706034551744" lon="1.764256633737286"><ele>492.33333333333337</ele><time>2026-04-25T11:12:45Z</time></trkpt><trkpt lat="41.86687392858466" lon="1.7641400269909926"><ele>492.0</ele><time>2026-04-25T11:12:46Z</time></trkpt><trkpt lat="41.86667854415729" lon="1.7640208173365661"><ele>490.66666666666663</ele><time>2026-04-25T11:12:47Z</time></trkpt><trkpt lat="41.866479407994746" lon="1.7638973122973176"><ele>489.3333333333333</ele><time>2026-04-25T11:12:48Z</time></trkpt><trkpt lat="41.86628038472103" lon="1.7637656241240196"><ele>488.0</ele><time>2026-04-25T11:12:49Z</time></trkpt><trkpt lat="41.86608797612142" lon="1.763645543663485"><ele>485.66666666666663</ele><time>2026-04-25T11:12:50Z</time></trkpt><trkpt lat="41.86590640024672" lon="1.763519829611939"><ele>483.33333333333337</ele><time>2026-04-25T11:12:51Z</time></trkpt><trkpt lat="41.86573595827701" lon="1.7634120243714642"><ele>481.0</ele><time>2026-04-25T11:12:52Z</time></trkpt><trkpt lat="41.86555480629178" lon="1.7633207572785663"><ele>481.0</ele><time>2026-04-25T11:12:53Z</time></trkpt><trkpt lat="41.86535259073509" lon="1.7632611992626714"><ele>481.0</ele><time>2026-04-25T11:12:54Z</time></trkpt><trkpt lat="41.865134571290916" lon="1.763222902863214"><ele>481.0</ele><time>2026-04-25T11:12:55Z</time></trkpt><trkpt lat="41.86492195170106" lon="1.7632071047440585"><ele>479.33333333333337</ele><time>2026-04-25T11:12:56Z</time></trkpt><trkpt lat="41.864728428204806" lon="1.7631900852762699"><ele>477.66666666666663</ele><time>2026-04-25T11:12:57Z</time></trkpt><trkpt lat="41.864555126112634" lon="1.7631730781093238"><ele>476.0</ele><time>2026-04-25T11:12:58Z</time></trkpt><trkpt lat="41.864396735047634" lon="1.763129297062539"><ele>475.3333333333333</ele><time>2026-04-25T11:12:59Z</time></trkpt><trkpt lat="41.86424903433554" lon="1.763032581918583"><ele>474.66666666666663</ele><time>2026-04-25T11:13:00Z</time></trkpt><trkpt lat="41.86410739139844" lon="1.76287871186817"><ele>474.0</ele><time>2026-04-25T11:13:01Z</time></trkpt><trkpt lat="41.8639852098375" lon="1.7626749712382865"><ele>474.0</ele><time>2026-04-25T11:13:02Z</time></trkpt><trkpt lat="41.86385616675459" lon="1.7624627668598065"><ele>474.0</ele><time>2026-04-25T11:13:03Z</time></trkpt><trkpt lat="41.8637051398892" lon="1.762290743048098"><ele>474.0</ele><time>2026-04-25T11:13:04Z</time></trkpt><trkpt lat="41.8635294578662" lon="1.7621360213404937"><ele>471.66666666666663</ele><time>2026-04-25T11:13:05Z</time></trkpt><trkpt lat="41.863359835140606" lon="1.762009619728363"><ele>469.3333333333333</ele><time>2026-04-25T11:13:06Z</time></trkpt><trkpt lat="41.863201098599504" lon="1.7618946492995953"><ele>467.0</ele><time>2026-04-25T11:13:07Z</time></trkpt><trkpt lat="41.86303391047716" lon="1.7617907300014743"><ele>466.66666666666663</ele><time>2026-04-25T11:13:08Z</time></trkpt><trkpt lat="41.86285448234286" lon="1.7617118567873788"><ele>466.33333333333337</ele><time>2026-04-25T11:13:09Z</time></trkpt><trkpt lat="41.862656452648004" lon="1.761667125860734"><ele>466.0</ele><time>2026-04-25T11:13:10Z</time></trkpt><trkpt lat="41.86245646898491" lon="1.761647172609459"><ele>466.0</ele><time>2026-04-25T11:13:11Z</time></trkpt><trkpt lat="41.862253765370404" lon="1.7616499738977098"><ele>466.0</ele><time>2026-04-25T11:13:12Z</time></trkpt><trkpt lat="41.86204947823203" lon="1.7616799520944908"><ele>466.0</ele><time>2026-04-25T11:13:13Z</time></trkpt><trkpt lat="41.86184085178474" lon="1.7617357079676041"><ele>470.0</ele><time>2026-04-25T11:13:14Z</time></trkpt><trkpt lat="41.86163601121758" lon="1.7618098586955462"><ele>474.0</ele><time>2026-04-25T11:13:15Z</time></trkpt><trkpt lat="41.86143545502203" lon="1.7618882607006607"><ele>478.0</ele><time>2026-04-25T11:13:16Z</time></trkpt><trkpt lat="41.86125438591463" lon="1.7619597767794761"><ele>473.33333333333337</ele><time>2026-04-25T11:13:17Z</time></trkpt><trkpt lat="41.86107836352696" lon="1.7620241770211897"><ele>468.66666666666663</ele><time>2026-04-25T11:13:18Z</time></trkpt><trkpt lat="41.86089770264221" lon="1.762104419709166"><ele>464.0</ele><time>2026-04-25T11:13:19Z</time></trkpt><trkpt lat="41.86071739004745" lon="1.7622185343170376"><ele>464.0</ele><time>2026-04-25T11:13:20Z</time></trkpt><trkpt lat="41.860537809646765" lon="1.7623473684104138"><ele>464.0</ele><time>2026-04-25T11:13:21Z</time></trkpt><trkpt lat="41.86035429968507" lon="1.7624787403540425"><ele>464.0</ele><time>2026-04-25T11:13:22Z</time></trkpt><trkpt lat="41.8601702011953" lon="1.7625975816302555"><ele>463.66666666666663</ele><time>2026-04-25T11:13:23Z</time></trkpt><trkpt lat="41.86001147751203" lon="1.7626979392933955"><ele>463.33333333333337</ele><time>2026-04-25T11:13:24Z</time></trkpt><trkpt lat="41.85986313179335" lon="1.7628013134169107"><ele>463.0</ele><time>2026-04-25T11:13:25Z</time></trkpt><trkpt lat="41.85973371734574" lon="1.7629245734114267"><ele>463.0</ele><time>2026-04-25T11:13:26Z</time></trkpt><trkpt lat="41.85961916587631" lon="1.763087493127464"><ele>463.0</ele><time>2026-04-25T11:13:27Z</time></trkpt><trkpt lat="41.859530541498316" lon="1.7632820246940184"><ele>463.0</ele><time>2026-04-25T11:13:28Z</time></trkpt><trkpt lat="41.85947446649555" lon="1.7634940493054188"><ele>464.25</ele><time>2026-04-25T11:13:29Z</time></trkpt><trkpt lat="41.85943372231879" lon="1.7636957057378126"><ele>465.5</ele><time>2026-04-25T11:13:30Z</time></trkpt><trkpt lat="41.859379668028325" lon="1.7638687238203543"><ele>466.75</ele><time>2026-04-25T11:13:31Z</time></trkpt><trkpt lat="41.85929592081461" lon="1.7640016701538173"><ele>468.0</ele><time>2026-04-25T11:13:32Z</time></trkpt><trkpt lat="41.8591825356657" lon="1.7640977127281903"><ele>468.0</ele><time>2026-04-25T11:13:33Z</time></trkpt><trkpt lat="41.8590534801848" lon="1.7641603816314293"><ele>468.0</ele><time>2026-04-25T11:13:34Z</time></trkpt><trkpt lat="41.858916843187096" lon="1.7641756330859297"><ele>468.0</ele><time>2026-04-25T11:13:35Z</time></trkpt><trkpt lat="41.858774013272516" lon="1.7641359887632175"><ele>468.0</ele><time>2026-04-25T11:13:36Z</time></trkpt><trkpt lat="41.85862179967061" lon="1.7640668944802216"><ele>468.0</ele><time>2026-04-25T11:13:37Z</time></trkpt><trkpt lat="41.85846181502955" lon="1.7639956377596366"><ele>468.0</ele><time>2026-04-25T11:13:38Z</time></trkpt><trkpt lat="41.85829260004505" lon="1.7639403969608456"><ele>468.0</ele><time>2026-04-25T11:13:39Z</time></trkpt><trkpt lat="41.85811803790928" lon="1.7638949126574759"><ele>464.66666666666663</ele><time>2026-04-25T11:13:40Z</time></trkpt><trkpt lat="41.85793643701849" lon="1.7638533999158932"><ele>461.3333333333333</ele><time>2026-04-25T11:13:41Z</time></trkpt><trkpt lat="41.85775219691696" lon="1.7638286186879453"><ele>458.0</ele><time>2026-04-25T11:13:42Z</time></trkpt><trkpt lat="41.85757577921637" lon="1.763820311499976"><ele>456.66666666666663</ele><time>2026-04-25T11:13:43Z</time></trkpt><trkpt lat="41.857419110526074" lon="1.763816602603752"><ele>455.33333333333337</ele><time>2026-04-25T11:13:44Z</time></trkpt><trkpt lat="41.85727431844119" lon="1.76379128153089"><ele>454.0</ele><time>2026-04-25T11:13:45Z</time></trkpt><trkpt lat="41.85713246499889" lon="1.7637066671655532"><ele>454.0</ele><time>2026-04-25T11:13:46Z</time></trkpt><trkpt lat="41.85700217740019" lon="1.763565549096421"><ele>454.0</ele><time>2026-04-25T11:13:47Z</time></trkpt><trkpt lat="41.85686983567576" lon="1.7634272026631683"><ele>454.0</ele><time>2026-04-25T11:13:48Z</time></trkpt><trkpt lat="41.856736450196856" lon="1.7633311709814627"><ele>457.0</ele><time>2026-04-25T11:13:49Z</time></trkpt><trkpt lat="41.85659634219194" lon="1.763276998069923"><ele>460.0</ele><time>2026-04-25T11:13:50Z</time></trkpt><trkpt lat="41.856448520133405" lon="1.763271382109808"><ele>463.0</ele><time>2026-04-25T11:13:51Z</time></trkpt><trkpt lat="41.85630044971222" lon="1.763327037570178"><ele>466.0</ele><time>2026-04-25T11:13:52Z</time></trkpt><trkpt lat="41.85617029639297" lon="1.7634397274771647"><ele>463.6666666666667</ele><time>2026-04-25T11:13:53Z</time></trkpt><trkpt lat="41.85607831419293" lon="1.7636006826201007"><ele>461.33333333333337</ele><time>2026-04-25T11:13:54Z</time></trkpt><trkpt lat="41.85600648544277" lon="1.7637999226665237"><ele>459.0</ele><time>2026-04-25T11:13:55Z</time></trkpt><trkpt lat="41.8559283727382" lon="1.763994196835315"><ele>459.0</ele><time>2026-04-25T11:13:56Z</time></trkpt><trkpt lat="41.855843802552506" lon="1.7641496049050365"><ele>459.0</ele><time>2026-04-25T11:13:57Z</time></trkpt><trkpt lat="41.855727970682146" lon="1.7642709206894551"><ele>459.0</ele><time>2026-04-25T11:13:58Z</time></trkpt><trkpt lat="41.85558076138998" lon="1.7643590426488536"><ele>455.33333333333337</ele><time>2026-04-25T11:13:59Z</time></trkpt><trkpt lat="41.85542364567215" lon="1.7644351980836661"><ele>451.6666666666667</ele><time>2026-04-25T11:14:00Z</time></trkpt><trkpt lat="41.85527481090187" lon="1.7645370637071913"><ele>448.0</ele><time>2026-04-25T11:14:01Z</time></trkpt><trkpt lat="41.85513681042113" lon="1.7646732042154076"><ele>449.0</ele><time>2026-04-25T11:14:02Z</time></trkpt><trkpt lat="41.85500989200174" lon="1.7648115136265223"><ele>450.0</ele><time>2026-04-25T11:14:03Z</time></trkpt><trkpt lat="41.854872879828" lon="1.7649131823488222"><ele>451.0</ele><time>2026-04-25T11:14:04Z</time></trkpt><trkpt lat="41.85471316984078" lon="1.7649510053375637"><ele>451.0</ele><time>2026-04-25T11:14:05Z</time></trkpt><trkpt lat="41.85453994052408" lon="1.764940039418666"><ele>451.0</ele><time>2026-04-25T11:14:06Z</time></trkpt><trkpt lat="41.85436031679473" lon="1.7649387996231065"><ele>451.0</ele><time>2026-04-25T11:14:07Z</time></trkpt><trkpt lat="41.854199162335256" lon="1.76495846702043"><ele>451.0</ele><time>2026-04-25T11:14:08Z</time></trkpt><trkpt lat="41.85405705005502" lon="1.7649860568551738"><ele>451.0</ele><time>2026-04-25T11:14:09Z</time></trkpt><trkpt lat="41.85392256648495" lon="1.7650505751415098"><ele>451.0</ele><time>2026-04-25T11:14:10Z</time></trkpt><trkpt lat="41.85380662883134" lon="1.765165093510176"><ele>451.0</ele><time>2026-04-25T11:14:11Z</time></trkpt><trkpt lat="41.85368942917048" lon="1.7653121867745731"><ele>451.0</ele><time>2026-04-25T11:14:12Z</time></trkpt><trkpt lat="41.853560333583275" lon="1.7654334348639036"><ele>451.0</ele><time>2026-04-25T11:14:13Z</time></trkpt><trkpt lat="41.853428359546335" lon="1.7654813027216372"><ele>451.0</ele><time>2026-04-25T11:14:14Z</time></trkpt><trkpt lat="41.85329285821658" lon="1.7654488065469915"><ele>451.0</ele><time>2026-04-25T11:14:15Z</time></trkpt><trkpt lat="41.853152035519614" lon="1.7653691614567901"><ele>449.33333333333337</ele><time>2026-04-25T11:14:16Z</time></trkpt><trkpt lat="41.85300347593199" lon="1.7652723531854189"><ele>447.66666666666663</ele><time>2026-04-25T11:14:17Z</time></trkpt><trkpt lat="41.852844966840664" lon="1.7651888866634526"><ele>446.0</ele><time>2026-04-25T11:14:18Z</time></trkpt><trkpt lat="41.85267051168831" lon="1.7651255694832004"><ele>446.66666666666663</ele><time>2026-04-25T11:14:19Z</time></trkpt><trkpt lat="41.85248334000799" lon="1.7650876387170495"><ele>447.33333333333337</ele><time>2026-04-25T11:14:20Z</time></trkpt><trkpt lat="41.852295015742904" lon="1.7650666549047922"><ele>448.0</ele><time>2026-04-25T11:14:21Z</time></trkpt><trkpt lat="41.852101106274624" lon="1.765034657186368"><ele>448.0</ele><time>2026-04-25T11:14:22Z</time></trkpt><trkpt lat="41.8519192851904" lon="1.7649988153694454"><ele>448.0</ele><time>2026-04-25T11:14:23Z</time></trkpt><trkpt lat="41.85175563070773" lon="1.7649650088502427"><ele>448.0</ele><time>2026-04-25T11:14:24Z</time></trkpt><trkpt lat="41.85160672763965" lon="1.7649360375532401"><ele>448.6666666666667</ele><time>2026-04-25T11:14:25Z</time></trkpt><trkpt lat="41.85146691314711" lon="1.7649455649848944"><ele>449.33333333333337</ele><time>2026-04-25T11:14:26Z</time></trkpt><trkpt lat="41.85133309138851" lon="1.7650262421848661"><ele>450.0</ele><time>2026-04-25T11:14:27Z</time></trkpt><trkpt lat="41.85120748716097" lon="1.7651680211411491"><ele>442.66666666666663</ele><time>2026-04-25T11:14:28Z</time></trkpt><trkpt lat="41.85108741796967" lon="1.7653269906931972"><ele>435.3333333333333</ele><time>2026-04-25T11:14:29Z</time></trkpt><trkpt lat="41.850972293853374" lon="1.765444780861516"><ele>428.0</ele><time>2026-04-25T11:14:30Z</time></trkpt><trkpt lat="41.850835287581475" lon="1.7654840734142492"><ele>428.0</ele><time>2026-04-25T11:14:31Z</time></trkpt><trkpt lat="41.85070228714563" lon="1.7654663336292256"><ele>428.0</ele><time>2026-04-25T11:14:32Z</time></trkpt><trkpt lat="41.85058059189759" lon="1.7653988061754635"><ele>428.0</ele><time>2026-04-25T11:14:33Z</time></trkpt><trkpt lat="41.85048133493551" lon="1.7652750549586458"><ele>428.0</ele><time>2026-04-25T11:14:34Z</time></trkpt><trkpt lat="41.85042215278199" lon="1.7651007288298908"><ele>435.3333333333333</ele><time>2026-04-25T11:14:35Z</time></trkpt><trkpt lat="41.85032741007728" lon="1.7648951455501976"><ele>442.66666666666663</ele><time>2026-04-25T11:14:36Z</time></trkpt><trkpt lat="41.85023879042438" lon="1.764687085863291"><ele>450.0</ele><time>2026-04-25T11:14:37Z</time></trkpt><trkpt lat="41.85016707312595" lon="1.7644795753407547"><ele>448.5</ele><time>2026-04-25T11:14:38Z</time></trkpt><trkpt lat="41.850108761684" lon="1.7642790709588065"><ele>447.0</ele><time>2026-04-25T11:14:39Z</time></trkpt><trkpt lat="41.850046076400666" lon="1.764110706214312"><ele>445.5</ele><time>2026-04-25T11:14:40Z</time></trkpt><trkpt lat="41.84996018979182" lon="1.7639875989465534"><ele>444.0</ele><time>2026-04-25T11:14:41Z</time></trkpt><trkpt lat="41.849838374128275" lon="1.7639246227909495"><ele>444.0</ele><time>2026-04-25T11:14:42Z</time></trkpt><trkpt lat="41.84968029239447" lon="1.7639117331828544"><ele>444.0</ele><time>2026-04-25T11:14:43Z</time></trkpt><trkpt lat="41.84950859572104" lon="1.7639466036579823"><ele>444.0</ele><time>2026-04-25T11:14:44Z</time></trkpt><trkpt lat="41.84937799318411" lon="1.7639859530859447"><ele>442.66666666666663</ele><time>2026-04-25T11:14:45Z</time></trkpt><trkpt lat="41.849253040551325" lon="1.7640921837084136"><ele>441.3333333333333</ele><time>2026-04-25T11:14:46Z</time></trkpt><trkpt lat="41.84914071518694" lon="1.7642055332844782"><ele>440.0</ele><time>2026-04-25T11:14:47Z</time></trkpt><trkpt lat="41.84897610231906" lon="1.7643211400965286"><ele>434.25</ele><time>2026-04-25T11:14:48Z</time></trkpt><trkpt lat="41.848865687624794" lon="1.764420542356995"><ele>428.5</ele><time>2026-04-25T11:14:49Z</time></trkpt><trkpt lat="41.8487451661438" lon="1.7644667778628176"><ele>422.75</ele><time>2026-04-25T11:14:50Z</time></trkpt><trkpt lat="41.84860853681802" lon="1.764448718305989"><ele>417.0</ele><time>2026-04-25T11:14:51Z</time></trkpt><trkpt lat="41.84845913713482" lon="1.7643965898940723"><ele>424.0</ele><time>2026-04-25T11:14:52Z</time></trkpt><trkpt lat="41.84829811791905" lon="1.76434570044531"><ele>431.0</ele><time>2026-04-25T11:14:53Z</time></trkpt><trkpt lat="41.84812894390936" lon="1.7643040097740468"><ele>438.0</ele><time>2026-04-25T11:14:54Z</time></trkpt><trkpt lat="41.84795925200785" lon="1.7642689404458545"><ele>438.0</ele><time>2026-04-25T11:14:55Z</time></trkpt><trkpt lat="41.847789499169146" lon="1.764234827718459"><ele>438.0</ele><time>2026-04-25T11:14:56Z</time></trkpt><trkpt lat="41.84761829018027" lon="1.7642138921893666"><ele>438.0</ele><time>2026-04-25T11:14:57Z</time></trkpt><trkpt lat="41.84745031339051" lon="1.7642305973109143"><ele>436.0</ele><time>2026-04-25T11:14:58Z</time></trkpt><trkpt lat="41.84728556165478" lon="1.7643062391845248"><ele>434.0</ele><time>2026-04-25T11:14:59Z</time></trkpt><trkpt lat="41.84711377880708" lon="1.764392740510951"><ele>432.0</ele><time>2026-04-25T11:15:00Z</time></trkpt><trkpt lat="41.846941254881436" lon="1.7644568286371607"><ele>429.0</ele><time>2026-04-25T11:15:01Z</time></trkpt><trkpt lat="41.84678451067095" lon="1.7644956932282019"><ele>426.0</ele><time>2026-04-25T11:15:02Z</time></trkpt><trkpt lat="41.84664541893433" lon="1.7645008182627528"><ele>423.0</ele><time>2026-04-25T11:15:03Z</time></trkpt><trkpt lat="41.84652590319986" lon="1.7644744608562504"><ele>420.0</ele><time>2026-04-25T11:15:04Z</time></trkpt><trkpt lat="41.84642081500382" lon="1.7643927923115643"><ele>424.33333333333337</ele><time>2026-04-25T11:15:05Z</time></trkpt><trkpt lat="41.84633266857186" lon="1.7642456265988546"><ele>428.6666666666667</ele><time>2026-04-25T11:15:06Z</time></trkpt><trkpt lat="41.846265394175106" lon="1.7640474438041256"><ele>433.0</ele><time>2026-04-25T11:15:07Z</time></trkpt><trkpt lat="41.84618065757511" lon="1.7638584291468462"><ele>433.0</ele><time>2026-04-25T11:15:08Z</time></trkpt><trkpt lat="41.846084156188056" lon="1.7636658949893143"><ele>433.0</ele><time>2026-04-25T11:15:09Z</time></trkpt><trkpt lat="41.846003511865064" lon="1.763506615223765"><ele>433.0</ele><time>2026-04-25T11:15:10Z</time></trkpt><trkpt lat="41.8459007919602" lon="1.76337115928972"><ele>430.0</ele><time>2026-04-25T11:15:11Z</time></trkpt><trkpt lat="41.84577134623016" lon="1.7632377305620806"><ele>427.0</ele><time>2026-04-25T11:15:12Z</time></trkpt><trkpt lat="41.84561568709777" lon="1.7631076252931313"><ele>424.0</ele><time>2026-04-25T11:15:13Z</time></trkpt><trkpt lat="41.84545164004501" lon="1.7629791986992114"><ele>424.0</ele><time>2026-04-25T11:15:14Z</time></trkpt><trkpt lat="41.84529389715703" lon="1.7628407812277918"><ele>424.0</ele><time>2026-04-25T11:15:15Z</time></trkpt><trkpt lat="41.84514973547593" lon="1.7626923278509834"><ele>424.0</ele><time>2026-04-25T11:15:16Z</time></trkpt><trkpt lat="41.84503263986915" lon="1.7625159554959293"><ele>421.6666666666667</ele><time>2026-04-25T11:15:17Z</time></trkpt><trkpt lat="41.84493605825865" lon="1.7623236301263665"><ele>419.33333333333337</ele><time>2026-04-25T11:15:18Z</time></trkpt><trkpt lat="41.8448429365704" lon="1.762110723415194"><ele>417.0</ele><time>2026-04-25T11:15:19Z</time></trkpt><trkpt lat="41.844753795523694" lon="1.7619050247694963"><ele>415.0</ele><time>2026-04-25T11:15:20Z</time></trkpt><trkpt lat="41.84467513199035" lon="1.7617281958525406"><ele>413.0</ele><time>2026-04-25T11:15:21Z</time></trkpt><trkpt lat="41.844595703779" lon="1.7615684473609035"><ele>411.0</ele><time>2026-04-25T11:15:22Z</time></trkpt><trkpt lat="41.84450433767614" lon="1.761433987095937"><ele>409.0</ele><time>2026-04-25T11:15:23Z</time></trkpt><trkpt lat="41.844391975839095" lon="1.761342330711992"><ele>412.0</ele><time>2026-04-25T11:15:24Z</time></trkpt><trkpt lat="41.84425828091044" lon="1.7613089340356218"><ele>415.0</ele><time>2026-04-25T11:15:25Z</time></trkpt><trkpt lat="41.844107019026275" lon="1.7613251778829826"><ele>418.0</ele><time>2026-04-25T11:15:26Z</time></trkpt><trkpt lat="41.843944440686954" lon="1.7613623439258042"><ele>418.0</ele><time>2026-04-25T11:15:27Z</time></trkpt><trkpt lat="41.84377680910024" lon="1.7613719413375546"><ele>418.0</ele><time>2026-04-25T11:15:28Z</time></trkpt><trkpt lat="41.84362648977761" lon="1.7613501990113472"><ele>418.0</ele><time>2026-04-25T11:15:29Z</time></trkpt><trkpt lat="41.843494697359404" lon="1.761302760785767"><ele>419.6666666666667</ele><time>2026-04-25T11:15:30Z</time></trkpt><trkpt lat="41.84337361882827" lon="1.761210944027901"><ele>421.33333333333337</ele><time>2026-04-25T11:15:31Z</time></trkpt><trkpt lat="41.843257277444664" lon="1.7610616352053141"><ele>423.0</ele><time>2026-04-25T11:15:32Z</time></trkpt><trkpt lat="41.84310669054135" lon="1.7609102434399477"><ele>416.25</ele><time>2026-04-25T11:15:33Z</time></trkpt><trkpt lat="41.842938790131406" lon="1.760780523592893"><ele>409.5</ele><time>2026-04-25T11:15:34Z</time></trkpt><trkpt lat="41.842848772783626" lon="1.760758293598322"><ele>402.75</ele><time>2026-04-25T11:15:35Z</time></trkpt><trkpt lat="41.84272432096246" lon="1.760674251567283"><ele>396.0</ele><time>2026-04-25T11:15:36Z</time></trkpt><trkpt lat="41.84263395401726" lon="1.7605457109108893"><ele>393.5</ele><time>2026-04-25T11:15:37Z</time></trkpt><trkpt lat="41.842564063905186" lon="1.760393345205288"><ele>391.0</ele><time>2026-04-25T11:15:38Z</time></trkpt><trkpt lat="41.84248778921054" lon="1.7602608198112826"><ele>388.5</ele><time>2026-04-25T11:15:39Z</time></trkpt><trkpt lat="41.84240801080666" lon="1.7601811137214225"><ele>386.0</ele><time>2026-04-25T11:15:40Z</time></trkpt><trkpt lat="41.84226287628201" lon="1.760156466665891"><ele>386.0</ele><time>2026-04-25T11:15:41Z</time></trkpt><trkpt lat="41.8421002853988" lon="1.760136692457777"><ele>386.0</ele><time>2026-04-25T11:15:42Z</time></trkpt><trkpt lat="41.84195109848935" lon="1.7600752734054668"><ele>386.0</ele><time>2026-04-25T11:15:43Z</time></trkpt><trkpt lat="41.84181885747125" lon="1.7599555250359937"><ele>389.66666666666663</ele><time>2026-04-25T11:15:44Z</time></trkpt><trkpt lat="41.84170128217667" lon="1.7597881327036073"><ele>393.33333333333337</ele><time>2026-04-25T11:15:45Z</time></trkpt><trkpt lat="41.84158324374791" lon="1.7596135230569956"><ele>397.0</ele><time>2026-04-25T11:15:46Z</time></trkpt><trkpt lat="41.841462236972994" lon="1.7594359239327149"><ele>390.0</ele><time>2026-04-25T11:15:47Z</time></trkpt><trkpt lat="41.84135596520445" lon="1.759248280540645"><ele>383.0</ele><time>2026-04-25T11:15:48Z</time></trkpt><trkpt lat="41.841266178791166" lon="1.7590291688697866"><ele>376.0</ele><time>2026-04-25T11:15:49Z</time></trkpt><trkpt lat="41.84120071971587" lon="1.7587979779543856"><ele>376.0</ele><time>2026-04-25T11:15:50Z</time></trkpt><trkpt lat="41.84112774645938" lon="1.7585769885842035"><ele>376.0</ele><time>2026-04-25T11:15:51Z</time></trkpt><trkpt lat="41.84103985822226" lon="1.7583797650343294"><ele>376.0</ele><time>2026-04-25T11:15:52Z</time></trkpt><trkpt lat="41.84094646536055" lon="1.7581985044696116"><ele>374.66666666666663</ele><time>2026-04-25T11:15:53Z</time></trkpt><trkpt lat="41.840853436103984" lon="1.7580167915516036"><ele>373.3333333333333</ele><time>2026-04-25T11:15:54Z</time></trkpt><trkpt lat="41.840771698739545" lon="1.7578393342015444"><ele>372.0</ele><time>2026-04-25T11:15:55Z</time></trkpt><trkpt lat="41.84072202522624" lon="1.7576502707525334"><ele>372.0</ele><time>2026-04-25T11:15:56Z</time></trkpt><trkpt lat="41.84072816846913" lon="1.7574454863847782"><ele>372.0</ele><time>2026-04-25T11:15:57Z</time></trkpt><trkpt lat="41.84073079722456" lon="1.7572546538615021"><ele>372.0</ele><time>2026-04-25T11:15:58Z</time></trkpt><trkpt lat="41.84070879933729" lon="1.7570881073347828"><ele>372.0</ele><time>2026-04-25T11:15:59Z</time></trkpt><trkpt lat="41.840645550194154" lon="1.75695002616464"><ele>369.75</ele><time>2026-04-25T11:16:00Z</time></trkpt><trkpt lat="41.840538897480776" lon="1.7568424848713122"><ele>367.5</ele><time>2026-04-25T11:16:01Z</time></trkpt><trkpt lat="41.84041075593821" lon="1.7567318730958346"><ele>365.25</ele><time>2026-04-25T11:16:02Z</time></trkpt><trkpt lat="41.84028353873323" lon="1.7565985231307932"><ele>363.0</ele><time>2026-04-25T11:16:03Z</time></trkpt><trkpt lat="41.84014863744093" lon="1.7564413815381485"><ele>361.3333333333333</ele><time>2026-04-25T11:16:04Z</time></trkpt><trkpt lat="41.840015281418104" lon="1.7562801733235383"><ele>359.66666666666663</ele><time>2026-04-25T11:16:05Z</time></trkpt><trkpt lat="41.839878102952845" lon="1.7561156173464572"><ele>358.0</ele><time>2026-04-25T11:16:06Z</time></trkpt><trkpt lat="41.83973559882024" lon="1.755951160410557"><ele>358.0</ele><time>2026-04-25T11:16:07Z</time></trkpt><trkpt lat="41.839588965174656" lon="1.755783603640438"><ele>358.0</ele><time>2026-04-25T11:16:08Z</time></trkpt><trkpt lat="41.83946210490509" lon="1.7556091763909196"><ele>358.0</ele><time>2026-04-25T11:16:09Z</time></trkpt><trkpt lat="41.83932185318612" lon="1.7554564304647302"><ele>361.3333333333333</ele><time>2026-04-25T11:16:10Z</time></trkpt><trkpt lat="41.83916318221369" lon="1.7553379789820776"><ele>364.6666666666667</ele><time>2026-04-25T11:16:11Z</time></trkpt><trkpt lat="41.83899635554341" lon="1.755216596621079"><ele>368.0</ele><time>2026-04-25T11:16:12Z</time></trkpt><trkpt lat="41.83882634051445" lon="1.7550807675539584"><ele>366.33333333333337</ele><time>2026-04-25T11:16:13Z</time></trkpt><trkpt lat="41.83865739189851" lon="1.7549642017760785"><ele>364.6666666666667</ele><time>2026-04-25T11:16:14Z</time></trkpt><trkpt lat="41.83848485916696" lon="1.75486231143527"><ele>363.0</ele><time>2026-04-25T11:16:15Z</time></trkpt><trkpt lat="41.838342861446336" lon="1.754716926303053"><ele>363.0</ele><time>2026-04-25T11:16:16Z</time></trkpt><trkpt lat="41.838202070520104" lon="1.7545605968620193"><ele>363.0</ele><time>2026-04-25T11:16:17Z</time></trkpt><trkpt lat="41.83805249874484" lon="1.7543896576773275"><ele>363.0</ele><time>2026-04-25T11:16:18Z</time></trkpt><trkpt lat="41.8378928345412" lon="1.7542242557727272"><ele>361.6666666666667</ele><time>2026-04-25T11:16:19Z</time></trkpt><trkpt lat="41.83774301244338" lon="1.7540408446438298"><ele>360.33333333333337</ele><time>2026-04-25T11:16:20Z</time></trkpt><trkpt lat="41.83761031602656" lon="1.7538325869508091"><ele>359.0</ele><time>2026-04-25T11:16:21Z</time></trkpt><trkpt lat="41.837476864853485" lon="1.7536540331101362"><ele>350.33333333333337</ele><time>2026-04-25T11:16:22Z</time></trkpt><trkpt lat="41.83732792625778" lon="1.753501467869381"><ele>341.6666666666667</ele><time>2026-04-25T11:16:23Z</time></trkpt><trkpt lat="41.8371835597575" lon="1.7533464242156114"><ele>333.0</ele><time>2026-04-25T11:16:24Z</time></trkpt><trkpt lat="41.83702842686694" lon="1.7531998045574135"><ele>333.0</ele><time>2026-04-25T11:16:25Z</time></trkpt><trkpt lat="41.83688557691165" lon="1.753068126715798"><ele>333.0</ele><time>2026-04-25T11:16:26Z</time></trkpt><trkpt lat="41.836758649740865" lon="1.752946189079607"><ele>333.0</ele><time>2026-04-25T11:16:27Z</time></trkpt><trkpt lat="41.83664301863454" lon="1.7528386808073881"><ele>332.25</ele><time>2026-04-25T11:16:28Z</time></trkpt><trkpt lat="41.83653336800175" lon="1.752752558822107"><ele>331.5</ele><time>2026-04-25T11:16:29Z</time></trkpt><trkpt lat="41.83642300640771" lon="1.7526918671412228"><ele>330.75</ele><time>2026-04-25T11:16:30Z</time></trkpt><trkpt lat="41.836314713035286" lon="1.7526581648390114"><ele>330.0</ele><time>2026-04-25T11:16:31Z</time></trkpt><trkpt lat="41.83621195266423" lon="1.7526462357304908"><ele>330.0</ele><time>2026-04-25T11:16:32Z</time></trkpt><trkpt lat="41.83611920727188" lon="1.7526255317706645"><ele>330.0</ele><time>2026-04-25T11:16:33Z</time></trkpt><trkpt lat="41.836028841221264" lon="1.7526662963841289"><ele>330.0</ele><time>2026-04-25T11:16:34Z</time></trkpt><trkpt lat="41.83593426995589" lon="1.752707911348763"><ele>330.0</ele><time>2026-04-25T11:16:35Z</time></trkpt><trkpt lat="41.8358407470882" lon="1.7527707053509525"><ele>330.0</ele><time>2026-04-25T11:16:36Z</time></trkpt><trkpt lat="41.835752272449504" lon="1.7528527509193"><ele>333.4</ele><time>2026-04-25T11:16:37Z</time></trkpt><trkpt lat="41.835677647078185" lon="1.7529540189619168"><ele>336.8</ele><time>2026-04-25T11:16:38Z</time></trkpt><trkpt lat="41.8356155786502" lon="1.7530673406651334"><ele>340.20000000000005</ele><time>2026-04-25T11:16:39Z</time></trkpt><trkpt lat="41.83556994707071" lon="1.7531778101267659"><ele>343.6</ele><time>2026-04-25T11:16:40Z</time></trkpt><trkpt lat="41.8355337957466" lon="1.7532766403460194"><ele>347.0</ele><time>2026-04-25T11:16:41Z</time></trkpt><trkpt lat="41.83550024968557" lon="1.753362633273651"><ele>347.0</ele><time>2026-04-25T11:16:42Z</time></trkpt><trkpt lat="41.83546545929342" lon="1.753462274708835"><ele>347.0</ele><time>2026-04-25T11:16:43Z</time></trkpt><trkpt lat="41.83542598717591" lon="1.7535724541964155"><ele>347.0</ele><time>2026-04-25T11:16:44Z</time></trkpt><trkpt lat="41.83538541758755" lon="1.753686796853283"><ele>347.0</ele><time>2026-04-25T11:16:45Z</time></trkpt><trkpt lat="41.83532921767503" lon="1.7537883867906423"><ele>347.0</ele><time>2026-04-25T11:16:46Z</time></trkpt><trkpt lat="41.83530209240863" lon="1.7539065076689129"><ele>347.6666666666667</ele><time>2026-04-25T11:16:47Z</time></trkpt><trkpt lat="41.83525214373467" lon="1.7540270081890696"><ele>348.33333333333337</ele><time>2026-04-25T11:16:48Z</time></trkpt><trkpt lat="41.83521208407546" lon="1.7541023380946956"><ele>349.0</ele><time>2026-04-25T11:16:49Z</time></trkpt><trkpt lat="41.83516301065453" lon="1.7541824232016525"><ele>349.6666666666667</ele><time>2026-04-25T11:16:50Z</time></trkpt><trkpt lat="41.83509833799233" lon="1.7542380049445596"><ele>350.3333333333333</ele><time>2026-04-25T11:16:51Z</time></trkpt><trkpt lat="41.835024154971904" lon="1.7542748624059918"><ele>351.0</ele><time>2026-04-25T11:16:52Z</time></trkpt><trkpt lat="41.83494653459685" lon="1.7542658043735502"><ele>348.6666666666667</ele><time>2026-04-25T11:16:53Z</time></trkpt><trkpt lat="41.83487720086953" lon="1.7542582633973747"><ele>346.3333333333333</ele><time>2026-04-25T11:16:54Z</time></trkpt><trkpt lat="41.83480007367517" lon="1.7542687766082077"><ele>344.0</ele><time>2026-04-25T11:16:55Z</time></trkpt><trkpt lat="41.83472493574697" lon="1.7541998682844029"><ele>341.66666666666663</ele><time>2026-04-25T11:16:56Z</time></trkpt><trkpt lat="41.83463977114452" lon="1.75413799754879"><ele>339.3333333333333</ele><time>2026-04-25T11:16:57Z</time></trkpt><trkpt lat="41.834553555315814" lon="1.7540731797603224"><ele>337.0</ele><time>2026-04-25T11:16:58Z</time></trkpt><trkpt lat="41.83446285891977" lon="1.7540040995920712"><ele>337.0</ele><time>2026-04-25T11:16:59Z</time></trkpt><trkpt lat="41.83436936739135" lon="1.7539347243770902"><ele>337.0</ele><time>2026-04-25T11:17:00Z</time></trkpt><trkpt lat="41.834284340397" lon="1.753869150557535"><ele>337.0</ele><time>2026-04-25T11:17:01Z</time></trkpt><trkpt lat="41.83420761590043" lon="1.7537939695165223"><ele>337.0</ele><time>2026-04-25T11:17:02Z</time></trkpt><trkpt lat="41.83414189383214" lon="1.7537040554091199"><ele>337.0</ele><time>2026-04-25T11:17:03Z</time></trkpt><trkpt lat="41.83408573746378" lon="1.7535990403277648"><ele>332.8</ele><time>2026-04-25T11:17:04Z</time></trkpt><trkpt lat="41.83405045861702" lon="1.7534734627588147"><ele>328.6</ele><time>2026-04-25T11:17:05Z</time></trkpt><trkpt lat="41.83400071393431" lon="1.7533478957973896"><ele>324.40000000000003</ele><time>2026-04-25T11:17:06Z</time></trkpt><trkpt lat="41.83396554346269" lon="1.7532105108974565"><ele>320.20000000000005</ele><time>2026-04-25T11:17:07Z</time></trkpt><trkpt lat="41.83391942737425" lon="1.7530712133039346"><ele>316.0</ele><time>2026-04-25T11:17:08Z</time></trkpt><trkpt lat="41.833822741588506" lon="1.7529649371152471"><ele>316.0</ele><time>2026-04-25T11:17:09Z</time></trkpt><trkpt lat="41.833747014214296" lon="1.7528323173039024"><ele>316.0</ele><time>2026-04-25T11:17:10Z</time></trkpt><trkpt lat="41.833666614164265" lon="1.7527190623080322"><ele>316.0</ele><time>2026-04-25T11:17:11Z</time></trkpt><trkpt lat="41.83359086701656" lon="1.7526100192072258"><ele>316.0</ele><time>2026-04-25T11:17:12Z</time></trkpt><trkpt lat="41.83350885190996" lon="1.7524912228181702"><ele>315.0</ele><time>2026-04-25T11:17:13Z</time></trkpt><trkpt lat="41.833410164106496" lon="1.752383122558585"><ele>314.0</ele><time>2026-04-25T11:17:14Z</time></trkpt><trkpt lat="41.833321000438225" lon="1.7522677840010266"><ele>313.0</ele><time>2026-04-25T11:17:15Z</time></trkpt><trkpt lat="41.83322504810504" lon="1.7521869421632699"><ele>312.0</ele><time>2026-04-25T11:17:16Z</time></trkpt><trkpt lat="41.83312114391377" lon="1.7521482503466463"><ele>312.0</ele><time>2026-04-25T11:17:17Z</time></trkpt><trkpt lat="41.83301678503717" lon="1.7521590616010492"><ele>312.0</ele><time>2026-04-25T11:17:18Z</time></trkpt><trkpt lat="41.83291303270522" lon="1.752211323060697"><ele>312.0</ele><time>2026-04-25T11:17:19Z</time></trkpt><trkpt lat="41.8328133890985" lon="1.7522917432446694"><ele>312.0</ele><time>2026-04-25T11:17:20Z</time></trkpt><trkpt lat="41.83272775315465" lon="1.752381444600397"><ele>312.0</ele><time>2026-04-25T11:17:21Z</time></trkpt><trkpt lat="41.8326594277615" lon="1.7524627968187392"><ele>311.0</ele><time>2026-04-25T11:17:22Z</time></trkpt><trkpt lat="41.832594957298504" lon="1.752540489055097"><ele>310.0</ele><time>2026-04-25T11:17:23Z</time></trkpt><trkpt lat="41.832519941861506" lon="1.7526329492044803"><ele>309.0</ele><time>2026-04-25T11:17:24Z</time></trkpt><trkpt lat="41.83243426045863" lon="1.7527309221445495"><ele>308.0</ele><time>2026-04-25T11:17:25Z</time></trkpt><trkpt lat="41.832341106276466" lon="1.7528374541814902"><ele>307.0</ele><time>2026-04-25T11:17:26Z</time></trkpt><trkpt lat="41.8322456016913" lon="1.7529515232750092"><ele>307.0</ele><time>2026-04-25T11:17:27Z</time></trkpt><trkpt lat="41.83214882982762" lon="1.7530696279426907"><ele>307.0</ele><time>2026-04-25T11:17:28Z</time></trkpt><trkpt lat="41.8320527241383" lon="1.7531858295491733"><ele>307.0</ele><time>2026-04-25T11:17:29Z</time></trkpt><trkpt lat="41.83196054916426" lon="1.7532915679164638"><ele>307.0</ele><time>2026-04-25T11:17:30Z</time></trkpt><trkpt lat="41.83187110633424" lon="1.7533896187871814"><ele>305.5</ele><time>2026-04-25T11:17:31Z</time></trkpt><trkpt lat="41.83177886709362" lon="1.7534925124152025"><ele>304.0</ele><time>2026-04-25T11:17:32Z</time></trkpt><trkpt lat="41.831685894688306" lon="1.7535935015227444"><ele>302.5</ele><time>2026-04-25T11:17:33Z</time></trkpt><trkpt lat="41.83159936055281" lon="1.7536914720958587"><ele>301.0</ele><time>2026-04-25T11:17:34Z</time></trkpt><trkpt lat="41.831518107549655" lon="1.753794515046694"><ele>301.0</ele><time>2026-04-25T11:17:35Z</time></trkpt><trkpt lat="41.83145096498876" lon="1.753911536888491"><ele>301.0</ele><time>2026-04-25T11:17:36Z</time></trkpt><trkpt lat="41.831404902608554" lon="1.7540454909405616"><ele>301.0</ele><time>2026-04-25T11:17:37Z</time></trkpt><trkpt lat="41.83137312077745" lon="1.7541907754553951"><ele>301.0</ele><time>2026-04-25T11:17:38Z</time></trkpt><trkpt lat="41.83134924483629" lon="1.754328324796458"><ele>301.0</ele><time>2026-04-25T11:17:39Z</time></trkpt><trkpt lat="41.83131984238749" lon="1.754449599069478"><ele>300.66666666666663</ele><time>2026-04-25T11:17:40Z</time></trkpt><trkpt lat="41.83128394744561" lon="1.7545484738904855"><ele>300.3333333333333</ele><time>2026-04-25T11:17:41Z</time></trkpt><trkpt lat="41.83123751019183" lon="1.7546329182662492"><ele>300.0</ele><time>2026-04-25T11:17:42Z</time></trkpt><trkpt lat="41.83118687484751" lon="1.7547100399086981"><ele>299.6666666666667</ele><time>2026-04-25T11:17:43Z</time></trkpt><trkpt lat="41.831136173515546" lon="1.7547870581953513"><ele>299.33333333333337</ele><time>2026-04-25T11:17:44Z</time></trkpt><trkpt lat="41.83108996475706" lon="1.7548597498718477"><ele>299.0</ele><time>2026-04-25T11:17:45Z</time></trkpt><trkpt lat="41.83100358225554" lon="1.754959901084857"><ele>296.8</ele><time>2026-04-25T11:17:47Z</time></trkpt><trkpt lat="41.83088503879945" lon="1.7548420182488818"><ele>294.59999999999997</ele><time>2026-04-25T11:17:50Z</time></trkpt><trkpt lat="41.83081732834937" lon="1.754762070998247"><ele>292.4</ele><time>2026-04-25T11:17:52Z</time></trkpt><trkpt lat="41.83072866484449" lon="1.754657383952376"><ele>290.2</ele><time>2026-04-25T11:17:54Z</time></trkpt><trkpt lat="41.83067660584004" lon="1.754595916702239"><ele>288.0</ele><time>2026-04-25T11:17:55Z</time></trkpt><trkpt lat="41.830625674280334" lon="1.7545357833363564"><ele>288.0</ele><time>2026-04-25T11:17:56Z</time></trkpt><trkpt lat="41.83057425473999" lon="1.7544764779619149"><ele>288.0</ele><time>2026-04-25T11:17:57Z</time></trkpt><trkpt lat="41.83051948396495" lon="1.754415694924922"><ele>288.0</ele><time>2026-04-25T11:17:58Z</time></trkpt><trkpt lat="41.830464684823944" lon="1.7543566562569168"><ele>288.0</ele><time>2026-04-25T11:17:59Z</time></trkpt><trkpt lat="41.830400865353774" lon="1.754317545083542"><ele>288.0</ele><time>2026-04-25T11:18:00Z</time></trkpt><trkpt lat="41.830349325703914" lon="1.7542559132719837"><ele>288.0</ele><time>2026-04-25T11:18:01Z</time></trkpt><trkpt lat="41.83026477362266" lon="1.754156598586539"><ele>287.8</ele><time>2026-04-25T11:18:03Z</time></trkpt><trkpt lat="41.83018454115182" lon="1.7540654911482612"><ele>287.6</ele><time>2026-04-25T11:18:05Z</time></trkpt><trkpt lat="41.83010680377617" lon="1.7539724436851232"><ele>287.4</ele><time>2026-04-25T11:18:07Z</time></trkpt><trkpt lat="41.83002936770753" lon="1.7538795828261344"><ele>287.2</ele><time>2026-04-25T11:18:09Z</time></trkpt><trkpt lat="41.82996189986075" lon="1.7537904604539458"><ele>287.0</ele><time>2026-04-25T11:18:11Z</time></trkpt><trkpt lat="41.82990622200772" lon="1.7537266205322704"><ele>287.0</ele><time>2026-04-25T11:18:13Z</time></trkpt><trkpt lat="41.82983058787228" lon="1.7536573266072644"><ele>287.0</ele><time>2026-04-25T11:18:37Z</time></trkpt><trkpt lat="41.82975296462397" lon="1.7535747976008211"><ele>287.0</ele><time>2026-04-25T11:18:39Z</time></trkpt><trkpt lat="41.82968961091602" lon="1.7535071810547005"><ele>287.0</ele><time>2026-04-25T11:18:41Z</time></trkpt><trkpt lat="41.82953749769927" lon="1.7535685160160923"><ele>287.0</ele><time>2026-04-25T11:18:44Z</time></trkpt><trkpt lat="41.8294912178573" lon="1.7536409531712633"><ele>287.0</ele><time>2026-04-25T11:18:45Z</time></trkpt><trkpt lat="41.82944847552713" lon="1.7537389556067828"><ele>287.0</ele><time>2026-04-25T11:18:46Z</time></trkpt><trkpt lat="41.8293869484599" lon="1.75383066400905"><ele>287.0</ele><time>2026-04-25T11:18:47Z</time></trkpt><trkpt lat="41.829317900178026" lon="1.7539339961441407"><ele>287.0</ele><time>2026-04-25T11:18:48Z</time></trkpt><trkpt lat="41.829239821973005" lon="1.75404460602021"><ele>287.0</ele><time>2026-04-25T11:18:49Z</time></trkpt><trkpt lat="41.82914472140694" lon="1.7541545336692828"><ele>286.0</ele><time>2026-04-25T11:18:50Z</time></trkpt><trkpt lat="41.829045266181566" lon="1.7542630627483393"><ele>285.0</ele><time>2026-04-25T11:18:51Z</time></trkpt><trkpt lat="41.828958186697" lon="1.7543400665774582"><ele>284.0</ele><time>2026-04-25T11:18:52Z</time></trkpt><trkpt lat="41.82885508480353" lon="1.7544445730859235"><ele>283.0</ele><time>2026-04-25T11:18:53Z</time></trkpt><trkpt lat="41.82875199667642" lon="1.7545390333961992"><ele>282.8</ele><time>2026-04-25T11:18:54Z</time></trkpt><trkpt lat="41.82865954828764" lon="1.7546292104327754"><ele>282.6</ele><time>2026-04-25T11:18:55Z</time></trkpt><trkpt lat="41.828574795526904" lon="1.7547046417885548"><ele>282.4</ele><time>2026-04-25T11:18:56Z</time></trkpt><trkpt lat="41.82849816295226" lon="1.7547684174755311"><ele>282.2</ele><time>2026-04-25T11:18:57Z</time></trkpt><trkpt lat="41.82841484846771" lon="1.7548427598780747"><ele>282.0</ele><time>2026-04-25T11:18:58Z</time></trkpt><trkpt lat="41.828324918822744" lon="1.7549218477911586"><ele>281.6</ele><time>2026-04-25T11:18:59Z</time></trkpt><trkpt lat="41.828233146438826" lon="1.7550079602904776"><ele>281.2</ele><time>2026-04-25T11:19:00Z</time></trkpt><trkpt lat="41.82814878401301" lon="1.75509808127418"><ele>280.8</ele><time>2026-04-25T11:19:01Z</time></trkpt><trkpt lat="41.82806076982527" lon="1.7551951623547375"><ele>280.4</ele><time>2026-04-25T11:19:02Z</time></trkpt><trkpt lat="41.82797612236755" lon="1.7552964823705277"><ele>280.0</ele><time>2026-04-25T11:19:03Z</time></trkpt><trkpt lat="41.82789893037424" lon="1.7554032055744193"><ele>279.8</ele><time>2026-04-25T11:19:04Z</time></trkpt><trkpt lat="41.82781691585264" lon="1.755517842304713"><ele>279.6</ele><time>2026-04-25T11:19:05Z</time></trkpt><trkpt lat="41.827741821097895" lon="1.7556311453824667"><ele>279.4</ele><time>2026-04-25T11:19:06Z</time></trkpt><trkpt lat="41.82767824896351" lon="1.755731607942817"><ele>279.2</ele><time>2026-04-25T11:19:07Z</time></trkpt><trkpt lat="41.82762258544534" lon="1.7558145155285536"><ele>279.0</ele><time>2026-04-25T11:19:08Z</time></trkpt><trkpt lat="41.827564929932024" lon="1.7558636696945407"><ele>279.0</ele><time>2026-04-25T11:19:09Z</time></trkpt><trkpt lat="41.82744720562868" lon="1.7558783156163642"><ele>279.0</ele><time>2026-04-25T11:19:12Z</time></trkpt><trkpt lat="41.827382276428516" lon="1.755895979964779"><ele>279.0</ele><time>2026-04-25T11:19:15Z</time></trkpt><trkpt lat="41.827322622849344" lon="1.7559737665039037"><ele>279.0</ele><time>2026-04-25T11:19:50Z</time></trkpt><trkpt lat="41.82728239041318" lon="1.7560447576687075"><ele>279.0</ele><time>2026-04-25T11:19:52Z</time></trkpt><trkpt lat="41.82727895296459" lon="1.7561303324398347"><ele>279.0</ele><time>2026-04-25T11:19:54Z</time></trkpt><trkpt lat="41.82728063924689" lon="1.756219833272895"><ele>278.71428571428567</ele><time>2026-04-25T11:19:56Z</time></trkpt><trkpt lat="41.827274899216675" lon="1.7563075085163204"><ele>278.42857142857144</ele><time>2026-04-25T11:19:58Z</time></trkpt><trkpt lat="41.82722279200164" lon="1.7564120205347646"><ele>278.1428571428571</ele><time>2026-04-25T11:20:00Z</time></trkpt><trkpt lat="41.827178290502715" lon="1.756472094784684"><ele>277.85714285714283</ele><time>2026-04-25T11:20:01Z</time></trkpt><trkpt lat="41.82713297600582" lon="1.756537664677204"><ele>277.57142857142856</ele><time>2026-04-25T11:20:02Z</time></trkpt><trkpt lat="41.827085065529985" lon="1.7566009390002753"><ele>277.2857142857143</ele><time>2026-04-25T11:20:03Z</time></trkpt><trkpt lat="41.827036741153876" lon="1.7566691347639711"><ele>277.0</ele><time>2026-04-25T11:20:04Z</time></trkpt><trkpt lat="41.82698576899091" lon="1.7567406212947876"><ele>277.0</ele><time>2026-04-25T11:20:05Z</time></trkpt><trkpt lat="41.82693567728924" lon="1.756811342331059"><ele>277.0</ele><time>2026-04-25T11:20:06Z</time></trkpt><trkpt lat="41.82688716733042" lon="1.7568854205440334"><ele>277.0</ele><time>2026-04-25T11:20:07Z</time></trkpt><trkpt lat="41.82683300194931" lon="1.7569641792125557"><ele>277.0</ele><time>2026-04-25T11:20:08Z</time></trkpt><trkpt lat="41.826776463512324" lon="1.7570490910144463"><ele>277.0</ele><time>2026-04-25T11:20:09Z</time></trkpt><trkpt lat="41.82671336375818" lon="1.757139962278984"><ele>277.0</ele><time>2026-04-25T11:20:10Z</time></trkpt><trkpt lat="41.826652545964976" lon="1.7572129048549676"><ele>278.0</ele><time>2026-04-25T11:20:11Z</time></trkpt><trkpt lat="41.8265838345969" lon="1.7572453139502984"><ele>279.0</ele><time>2026-04-25T11:20:12Z</time></trkpt><trkpt lat="41.82649561558834" lon="1.7573652223884024"><ele>280.0</ele><time>2026-04-25T11:20:14Z</time></trkpt><trkpt lat="41.82644132784249" lon="1.7574439373077944"><ele>281.0</ele><time>2026-04-25T11:20:15Z</time></trkpt><trkpt lat="41.826385970715755" lon="1.7575236590665868"><ele>282.0</ele><time>2026-04-25T11:20:16Z</time></trkpt><trkpt lat="41.82632998925488" lon="1.7576030200050774"><ele>283.0</ele><time>2026-04-25T11:20:17Z</time></trkpt><trkpt lat="41.82629367528467" lon="1.757723967077341"><ele>283.0</ele><time>2026-04-25T11:20:18Z</time></trkpt><trkpt lat="41.826229375037165" lon="1.7578392729450647"><ele>283.0</ele><time>2026-04-25T11:20:19Z</time></trkpt><trkpt lat="41.82614437122381" lon="1.7579539844125902"><ele>283.0</ele><time>2026-04-25T11:20:20Z</time></trkpt><trkpt lat="41.82604915618392" lon="1.7580681387328538"><ele>283.0</ele><time>2026-04-25T11:20:21Z</time></trkpt><trkpt lat="41.825958686658176" lon="1.7581956686110463"><ele>283.0</ele><time>2026-04-25T11:20:22Z</time></trkpt><trkpt lat="41.825864964102024" lon="1.7583336677700525"><ele>283.0</ele><time>2026-04-25T11:20:23Z</time></trkpt><trkpt lat="41.82576507164285" lon="1.7584751417747242"><ele>283.0</ele><time>2026-04-25T11:20:24Z</time></trkpt><trkpt lat="41.825663339246496" lon="1.758622024577031"><ele>283.0</ele><time>2026-04-25T11:20:25Z</time></trkpt><trkpt lat="41.825558439455385" lon="1.7587751494557826"><ele>284.75</ele><time>2026-04-25T11:20:26Z</time></trkpt><trkpt lat="41.82545525639856" lon="1.7589353435534791"><ele>286.5</ele><time>2026-04-25T11:20:27Z</time></trkpt><trkpt lat="41.825340700593834" lon="1.7591339230033722"><ele>288.25</ele><time>2026-04-25T11:20:28Z</time></trkpt><trkpt lat="41.825288820146156" lon="1.759254957535687"><ele>290.0</ele><time>2026-04-25T11:20:29Z</time></trkpt><trkpt lat="41.82523070395956" lon="1.7594153169844455"><ele>290.6666666666667</ele><time>2026-04-25T11:20:30Z</time></trkpt><trkpt lat="41.825175280963535" lon="1.7596075583812043"><ele>291.3333333333333</ele><time>2026-04-25T11:20:31Z</time></trkpt><trkpt lat="41.825106955756496" lon="1.7598398024747215"><ele>292.0</ele><time>2026-04-25T11:20:32Z</time></trkpt><trkpt lat="41.82500529614839" lon="1.7600795448441786"><ele>291.3333333333333</ele><time>2026-04-25T11:20:33Z</time></trkpt><trkpt lat="41.824867814059374" lon="1.760313131736966"><ele>290.6666666666667</ele><time>2026-04-25T11:20:34Z</time></trkpt><trkpt lat="41.82471502498324" lon="1.7605333848408637"><ele>290.0</ele><time>2026-04-25T11:20:35Z</time></trkpt><trkpt lat="41.82457371116443" lon="1.7607084298224531"><ele>290.0</ele><time>2026-04-25T11:20:36Z</time></trkpt><trkpt lat="41.82444376893895" lon="1.7608599712669275"><ele>290.0</ele><time>2026-04-25T11:20:37Z</time></trkpt><trkpt lat="41.8243175427202" lon="1.7610050376185333"><ele>290.0</ele><time>2026-04-25T11:20:38Z</time></trkpt><trkpt lat="41.82416608320152" lon="1.7611104463402252"><ele>291.0</ele><time>2026-04-25T11:20:39Z</time></trkpt><trkpt lat="41.82399080012687" lon="1.7611893314039717"><ele>292.0</ele><time>2026-04-25T11:20:40Z</time></trkpt><trkpt lat="41.82379448719944" lon="1.7612760720081826"><ele>293.0</ele><time>2026-04-25T11:20:41Z</time></trkpt><trkpt lat="41.82358196242346" lon="1.761370717421002"><ele>289.0</ele><time>2026-04-25T11:20:42Z</time></trkpt><trkpt lat="41.823365428980615" lon="1.761468830264747"><ele>285.0</ele><time>2026-04-25T11:20:43Z</time></trkpt><trkpt lat="41.823137918553385" lon="1.7615764955201172"><ele>285.0</ele><time>2026-04-25T11:20:44Z</time></trkpt><trkpt lat="41.822936274697966" lon="1.761669575996813"><ele>285.0</ele><time>2026-04-25T11:20:45Z</time></trkpt><trkpt lat="41.822755905615956" lon="1.7617295677225004"><ele>285.0</ele><time>2026-04-25T11:20:46Z</time></trkpt><trkpt lat="41.822586556852286" lon="1.7617282396655822"><ele>284.6666666666667</ele><time>2026-04-25T11:20:47Z</time></trkpt><trkpt lat="41.82240582499816" lon="1.761692809640533"><ele>284.33333333333337</ele><time>2026-04-25T11:20:48Z</time></trkpt><trkpt lat="41.8222040140215" lon="1.7616458663307453"><ele>284.0</ele><time>2026-04-25T11:20:49Z</time></trkpt><trkpt lat="41.82199343894622" lon="1.7616095756320214"><ele>285.0</ele><time>2026-04-25T11:20:50Z</time></trkpt><trkpt lat="41.821769631620484" lon="1.761554908693126"><ele>286.0</ele><time>2026-04-25T11:20:51Z</time></trkpt><trkpt lat="41.821543097559385" lon="1.7615142453457735"><ele>286.0</ele><time>2026-04-25T11:20:52Z</time></trkpt><trkpt lat="41.82131489381793" lon="1.761465251799151"><ele>286.0</ele><time>2026-04-25T11:20:53Z</time></trkpt><trkpt lat="41.82108416251697" lon="1.7614130705838076"><ele>288.0</ele><time>2026-04-25T11:20:54Z</time></trkpt><trkpt lat="41.820847775348085" lon="1.7613588559907232"><ele>290.0</ele><time>2026-04-25T11:20:55Z</time></trkpt><trkpt lat="41.82061820787589" lon="1.7612770269280023"><ele>290.0</ele><time>2026-04-25T11:20:56Z</time></trkpt><trkpt lat="41.82038379616256" lon="1.7612225751692308"><ele>290.0</ele><time>2026-04-25T11:20:57Z</time></trkpt><trkpt lat="41.820169087122814" lon="1.7611713922757202"><ele>292.33333333333337</ele><time>2026-04-25T11:20:58Z</time></trkpt><trkpt lat="41.81998339399802" lon="1.7611277789602362"><ele>294.6666666666667</ele><time>2026-04-25T11:20:59Z</time></trkpt><trkpt lat="41.8198170149686" lon="1.7610887019545174"><ele>297.0</ele><time>2026-04-25T11:21:00Z</time></trkpt><trkpt lat="41.81966132085184" lon="1.7610784027668858"><ele>297.0</ele><time>2026-04-25T11:21:01Z</time></trkpt><trkpt lat="41.819517734205064" lon="1.7610417501668152"><ele>297.0</ele><time>2026-04-25T11:21:02Z</time></trkpt><trkpt lat="41.819377916236476" lon="1.7610071027886818"><ele>297.0</ele><time>2026-04-25T11:21:03Z</time></trkpt><trkpt lat="41.819238105523475" lon="1.7609754559193136"><ele>297.0</ele><time>2026-04-25T11:21:04Z</time></trkpt><trkpt lat="41.81909727201092" lon="1.7609442508565805"><ele>293.75</ele><time>2026-04-25T11:21:05Z</time></trkpt><trkpt lat="41.8189589768875" lon="1.7609077061628988"><ele>290.5</ele><time>2026-04-25T11:21:06Z</time></trkpt><trkpt lat="41.81882398619942" lon="1.7608723839936296"><ele>287.25</ele><time>2026-04-25T11:21:07Z</time></trkpt><trkpt lat="41.818687663676826" lon="1.760842046666578"><ele>284.0</ele><time>2026-04-25T11:21:08Z</time></trkpt><trkpt lat="41.81855574765846" lon="1.760789790131407"><ele>282.5</ele><time>2026-04-25T11:21:09Z</time></trkpt><trkpt lat="41.818423171110645" lon="1.7607581389552227"><ele>281.0</ele><time>2026-04-25T11:21:10Z</time></trkpt><trkpt lat="41.81829627296569" lon="1.7607300007603928"><ele>279.5</ele><time>2026-04-25T11:21:11Z</time></trkpt><trkpt lat="41.81817133201288" lon="1.7607371017777185"><ele>278.0</ele><time>2026-04-25T11:21:12Z</time></trkpt><trkpt lat="41.818054137998054" lon="1.7607359116679902"><ele>278.0</ele><time>2026-04-25T11:21:13Z</time></trkpt><trkpt lat="41.81793885873036" lon="1.7607619777471089"><ele>278.0</ele><time>2026-04-25T11:21:14Z</time></trkpt><trkpt lat="41.81782807376713" lon="1.760816223054685"><ele>278.0</ele><time>2026-04-25T11:21:15Z</time></trkpt><trkpt lat="41.81772521560881" lon="1.7608866965541279"><ele>278.0</ele><time>2026-04-25T11:21:16Z</time></trkpt><trkpt lat="41.817625218621394" lon="1.7609582865675484"><ele>278.0</ele><time>2026-04-25T11:21:17Z</time></trkpt><trkpt lat="41.8175189141033" lon="1.7610311354869566"><ele>278.0</ele><time>2026-04-25T11:21:18Z</time></trkpt><trkpt lat="41.817408053768254" lon="1.761103989423818"><ele>278.0</ele><time>2026-04-25T11:21:19Z</time></trkpt><trkpt lat="41.81730024102619" lon="1.7611755796983155"><ele>278.0</ele><time>2026-04-25T11:21:20Z</time></trkpt><trkpt lat="41.81719480151726" lon="1.761247656866021"><ele>278.0</ele><time>2026-04-25T11:21:21Z</time></trkpt><trkpt lat="41.81708549502977" lon="1.7613211275667693"><ele>278.0</ele><time>2026-04-25T11:21:22Z</time></trkpt><trkpt lat="41.816973042808364" lon="1.7613953639502604"><ele>278.0</ele><time>2026-04-25T11:21:23Z</time></trkpt><trkpt lat="41.81685435886779" lon="1.7614736533967768"><ele>278.0</ele><time>2026-04-25T11:21:24Z</time></trkpt><trkpt lat="41.816736017665214" lon="1.7615541899148903"><ele>278.75</ele><time>2026-04-25T11:21:25Z</time></trkpt><trkpt lat="41.8166091092585" lon="1.761615758258499"><ele>279.5</ele><time>2026-04-25T11:21:26Z</time></trkpt><trkpt lat="41.81648048160105" lon="1.7617268056186435"><ele>280.25</ele><time>2026-04-25T11:21:27Z</time></trkpt><trkpt lat="41.816330813683976" lon="1.7618037870127072"><ele>281.0</ele><time>2026-04-25T11:21:28Z</time></trkpt><trkpt lat="41.816177633443516" lon="1.7619103075382159"><ele>281.0</ele><time>2026-04-25T11:21:29Z</time></trkpt><trkpt lat="41.81602770338505" lon="1.7620404460245862"><ele>281.0</ele><time>2026-04-25T11:21:30Z</time></trkpt><trkpt lat="41.81585839542521" lon="1.762133094523251"><ele>281.0</ele><time>2026-04-25T11:21:31Z</time></trkpt><trkpt lat="41.815694638891166" lon="1.7622434971257064"><ele>279.0</ele><time>2026-04-25T11:21:32Z</time></trkpt><trkpt lat="41.81552554333461" lon="1.7623574991408657"><ele>277.0</ele><time>2026-04-25T11:21:33Z</time></trkpt><trkpt lat="41.815361996108535" lon="1.762491021926425"><ele>275.0</ele><time>2026-04-25T11:21:34Z</time></trkpt><trkpt lat="41.81519095855935" lon="1.762604542445673"><ele>279.0</ele><time>2026-04-25T11:21:35Z</time></trkpt><trkpt lat="41.81502639337126" lon="1.7627149101342503"><ele>283.0</ele><time>2026-04-25T11:21:36Z</time></trkpt><trkpt lat="41.81486213372111" lon="1.762796263591019"><ele>287.0</ele><time>2026-04-25T11:21:37Z</time></trkpt><trkpt lat="41.81470106347461" lon="1.7628915210313039"><ele>287.0</ele><time>2026-04-25T11:21:38Z</time></trkpt><trkpt lat="41.814536629627796" lon="1.7629704107569057"><ele>287.0</ele><time>2026-04-25T11:21:39Z</time></trkpt><trkpt lat="41.81437299142791" lon="1.7630189661977995"><ele>287.0</ele><time>2026-04-25T11:21:40Z</time></trkpt><trkpt lat="41.814216438225095" lon="1.7630510126063674"><ele>287.0</ele><time>2026-04-25T11:21:41Z</time></trkpt><trkpt lat="41.81406882138904" lon="1.7630688008692086"><ele>287.0</ele><time>2026-04-25T11:21:42Z</time></trkpt><trkpt lat="41.813871949525584" lon="1.7630694091432566"><ele>287.0</ele><time>2026-04-25T11:21:43Z</time></trkpt><trkpt lat="41.813719591081664" lon="1.763047447353308"><ele>287.0</ele><time>2026-04-25T11:21:44Z</time></trkpt><trkpt lat="41.81357482552813" lon="1.7630054894755238"><ele>287.0</ele><time>2026-04-25T11:21:45Z</time></trkpt><trkpt lat="41.813432920878704" lon="1.7629348062375683"><ele>287.0</ele><time>2026-04-25T11:21:46Z</time></trkpt><trkpt lat="41.813297209240254" lon="1.7628531537549883"><ele>287.0</ele><time>2026-04-25T11:21:47Z</time></trkpt><trkpt lat="41.81316296845338" lon="1.7627544776183153"><ele>281.33333333333337</ele><time>2026-04-25T11:21:48Z</time></trkpt><trkpt lat="41.81303676523807" lon="1.7626352031924235"><ele>275.6666666666667</ele><time>2026-04-25T11:21:49Z</time></trkpt><trkpt lat="41.81289762011211" lon="1.762523193955315"><ele>270.0</ele><time>2026-04-25T11:21:50Z</time></trkpt><trkpt lat="41.81277090014091" lon="1.7623798436926246"><ele>277.3333333333333</ele><time>2026-04-25T11:21:51Z</time></trkpt><trkpt lat="41.81264139746809" lon="1.7622281342921426"><ele>284.66666666666663</ele><time>2026-04-25T11:21:52Z</time></trkpt><trkpt lat="41.81252736585515" lon="1.7620504013890368"><ele>292.0</ele><time>2026-04-25T11:21:53Z</time></trkpt><trkpt lat="41.81240545098294" lon="1.7618699722440563"><ele>285.0</ele><time>2026-04-25T11:21:54Z</time></trkpt><trkpt lat="41.81229056455416" lon="1.7616760808687097"><ele>278.0</ele><time>2026-04-25T11:21:55Z</time></trkpt><trkpt lat="41.812175889297215" lon="1.7614769780192716"><ele>271.0</ele><time>2026-04-25T11:21:56Z</time></trkpt><trkpt lat="41.81204146855659" lon="1.7613113652044443"><ele>271.0</ele><time>2026-04-25T11:21:57Z</time></trkpt><trkpt lat="41.8119223346758" lon="1.7611553781312226"><ele>271.0</ele><time>2026-04-25T11:21:58Z</time></trkpt><trkpt lat="41.81179067050738" lon="1.7610297187120212"><ele>271.0</ele><time>2026-04-25T11:21:59Z</time></trkpt><trkpt lat="41.81164928633789" lon="1.7609066246115201"><ele>269.3333333333333</ele><time>2026-04-25T11:22:00Z</time></trkpt><trkpt lat="41.81149758226387" lon="1.760798798679181"><ele>267.6666666666667</ele><time>2026-04-25T11:22:01Z</time></trkpt><trkpt lat="41.811353379389" lon="1.7607146332595816"><ele>266.0</ele><time>2026-04-25T11:22:02Z</time></trkpt><trkpt lat="41.811207016077695" lon="1.760641908553909"><ele>266.0</ele><time>2026-04-25T11:22:03Z</time></trkpt><trkpt lat="41.81104773406632" lon="1.760593337220974"><ele>266.0</ele><time>2026-04-25T11:22:04Z</time></trkpt><trkpt lat="41.810901069344084" lon="1.760598994317866"><ele>266.0</ele><time>2026-04-25T11:22:05Z</time></trkpt><trkpt lat="41.81072492159004" lon="1.7606124765681024"><ele>266.6666666666667</ele><time>2026-04-25T11:22:06Z</time></trkpt><trkpt lat="41.810577569923524" lon="1.7606484084676621"><ele>267.3333333333333</ele><time>2026-04-25T11:22:07Z</time></trkpt><trkpt lat="41.81041996789537" lon="1.760718802454802"><ele>268.0</ele><time>2026-04-25T11:22:08Z</time></trkpt><trkpt lat="41.81026073046747" lon="1.760801862421178"><ele>267.3333333333333</ele><time>2026-04-25T11:22:09Z</time></trkpt><trkpt lat="41.81009618124621" lon="1.7608934474854845"><ele>266.6666666666667</ele><time>2026-04-25T11:22:10Z</time></trkpt><trkpt lat="41.809927266685854" lon="1.7609822593099655"><ele>266.0</ele><time>2026-04-25T11:22:11Z</time></trkpt><trkpt lat="41.809752967182604" lon="1.7610568358000285"><ele>270.6666666666667</ele><time>2026-04-25T11:22:12Z</time></trkpt><trkpt lat="41.8095725402724" lon="1.7611178002024193"><ele>275.3333333333333</ele><time>2026-04-25T11:22:13Z</time></trkpt><trkpt lat="41.80938592566631" lon="1.7611689427152406"><ele>280.0</ele><time>2026-04-25T11:22:14Z</time></trkpt><trkpt lat="41.809193715603755" lon="1.7612183018694223"><ele>280.0</ele><time>2026-04-25T11:22:15Z</time></trkpt><trkpt lat="41.80898953532292" lon="1.7612629537567925"><ele>280.0</ele><time>2026-04-25T11:22:16Z</time></trkpt><trkpt lat="41.8087821551673" lon="1.7613077982379148"><ele>280.0</ele><time>2026-04-25T11:22:17Z</time></trkpt><trkpt lat="41.80858576849325" lon="1.761387939392158"><ele>278.66666666666663</ele><time>2026-04-25T11:22:18Z</time></trkpt><trkpt lat="41.80837841598724" lon="1.761406716543769"><ele>277.3333333333333</ele><time>2026-04-25T11:22:19Z</time></trkpt><trkpt lat="41.808181865166155" lon="1.761469101911072"><ele>276.0</ele><time>2026-04-25T11:22:20Z</time></trkpt><trkpt lat="41.8079854109358" lon="1.7615513128455145"><ele>276.0</ele><time>2026-04-25T11:22:21Z</time></trkpt><trkpt lat="41.80778982779705" lon="1.761644620046804"><ele>276.0</ele><time>2026-04-25T11:22:22Z</time></trkpt><trkpt lat="41.80758983505543" lon="1.76171718653729"><ele>276.0</ele><time>2026-04-25T11:22:23Z</time></trkpt><trkpt lat="41.80739850736701" lon="1.7618027697633256"><ele>279.6666666666667</ele><time>2026-04-25T11:22:24Z</time></trkpt><trkpt lat="41.80721128020755" lon="1.7618840899826578"><ele>283.33333333333337</ele><time>2026-04-25T11:22:25Z</time></trkpt><trkpt lat="41.80703360003386" lon="1.7619643432122765"><ele>287.0</ele><time>2026-04-25T11:22:26Z</time></trkpt><trkpt lat="41.80686170812064" lon="1.7620652124934546"><ele>284.33333333333337</ele><time>2026-04-25T11:22:27Z</time></trkpt><trkpt lat="41.8066934140225" lon="1.7621414589640114"><ele>281.6666666666667</ele><time>2026-04-25T11:22:28Z</time></trkpt><trkpt lat="41.80653838654606" lon="1.7622125961409143"><ele>279.0</ele><time>2026-04-25T11:22:29Z</time></trkpt><trkpt lat="41.80638259408527" lon="1.7622816785687376"><ele>279.0</ele><time>2026-04-25T11:22:30Z</time></trkpt><trkpt lat="41.80622101484357" lon="1.7623528755020563"><ele>279.0</ele><time>2026-04-25T11:22:31Z</time></trkpt><trkpt lat="41.806059749700374" lon="1.7624263676564171"><ele>279.0</ele><time>2026-04-25T11:22:32Z</time></trkpt><trkpt lat="41.805893453648714" lon="1.7624790901152765"><ele>276.3333333333333</ele><time>2026-04-25T11:22:33Z</time></trkpt><trkpt lat="41.80573671735429" lon="1.7625764826303574"><ele>273.66666666666663</ele><time>2026-04-25T11:22:34Z</time></trkpt><trkpt lat="41.80557546111859" lon="1.7626576621949634"><ele>271.0</ele><time>2026-04-25T11:22:35Z</time></trkpt><trkpt lat="41.80541068060881" lon="1.7627347239235405"><ele>271.66666666666663</ele><time>2026-04-25T11:22:36Z</time></trkpt><trkpt lat="41.80526540354575" lon="1.7628723031853601"><ele>272.3333333333333</ele><time>2026-04-25T11:22:37Z</time></trkpt><trkpt lat="41.80511677879998" lon="1.763014035720084"><ele>273.0</ele><time>2026-04-25T11:22:38Z</time></trkpt><trkpt lat="41.80497517410226" lon="1.7631788621846998"><ele>273.0</ele><time>2026-04-25T11:22:39Z</time></trkpt><trkpt lat="41.804833602983955" lon="1.7633603505234219"><ele>273.0</ele><time>2026-04-25T11:22:40Z</time></trkpt><trkpt lat="41.80468774669406" lon="1.7635514426961774"><ele>273.0</ele><time>2026-04-25T11:22:41Z</time></trkpt><trkpt lat="41.8045457969817" lon="1.7637389264090015"><ele>271.6666666666667</ele><time>2026-04-25T11:22:42Z</time></trkpt><trkpt lat="41.80440840363501" lon="1.7639241780217152"><ele>270.33333333333337</ele><time>2026-04-25T11:22:43Z</time></trkpt><trkpt lat="41.80427041837646" lon="1.7641131516317847"><ele>269.0</ele><time>2026-04-25T11:22:44Z</time></trkpt><trkpt lat="41.80413068929601" lon="1.7643011985541102"><ele>271.0</ele><time>2026-04-25T11:22:45Z</time></trkpt><trkpt lat="41.803990206277554" lon="1.7644860239818567"><ele>273.0</ele><time>2026-04-25T11:22:46Z</time></trkpt><trkpt lat="41.803854211753944" lon="1.7646687587036738"><ele>275.0</ele><time>2026-04-25T11:22:47Z</time></trkpt><trkpt lat="41.80372234159111" lon="1.7648486282891473"><ele>275.0</ele><time>2026-04-25T11:22:48Z</time></trkpt><trkpt lat="41.80359186310962" lon="1.765024413149827"><ele>275.0</ele><time>2026-04-25T11:22:49Z</time></trkpt><trkpt lat="41.80345481885666" lon="1.765201731963112"><ele>275.0</ele><time>2026-04-25T11:22:50Z</time></trkpt><trkpt lat="41.80331512262134" lon="1.7653768050297136"><ele>276.6666666666667</ele><time>2026-04-25T11:22:51Z</time></trkpt><trkpt lat="41.80317103478697" lon="1.7655450828009036"><ele>278.3333333333333</ele><time>2026-04-25T11:22:52Z</time></trkpt><trkpt lat="41.803019491835705" lon="1.7656991358293965"><ele>280.0</ele><time>2026-04-25T11:22:53Z</time></trkpt><trkpt lat="41.80285829824638" lon="1.765840979745169"><ele>280.0</ele><time>2026-04-25T11:22:54Z</time></trkpt><trkpt lat="41.80269283132077" lon="1.7659714912226083"><ele>280.0</ele><time>2026-04-25T11:22:55Z</time></trkpt><trkpt lat="41.80252268929723" lon="1.7660910855125391"><ele>280.0</ele><time>2026-04-25T11:22:56Z</time></trkpt><trkpt lat="41.80235289848908" lon="1.766208692121432"><ele>280.66666666666663</ele><time>2026-04-25T11:22:57Z</time></trkpt><trkpt lat="41.80218446362954" lon="1.766328380879854"><ele>281.3333333333333</ele><time>2026-04-25T11:22:58Z</time></trkpt><trkpt lat="41.80202038866705" lon="1.766455688794436"><ele>282.0</ele><time>2026-04-25T11:22:59Z</time></trkpt><trkpt lat="41.801860074775455" lon="1.7665934644141867"><ele>281.6666666666667</ele><time>2026-04-25T11:23:00Z</time></trkpt><trkpt lat="41.801707024287815" lon="1.7667418333823457"><ele>281.33333333333337</ele><time>2026-04-25T11:23:01Z</time></trkpt><trkpt lat="41.80155998539645" lon="1.766897361416406"><ele>281.0</ele><time>2026-04-25T11:23:02Z</time></trkpt><trkpt lat="41.801418887176965" lon="1.7670646503439251"><ele>281.0</ele><time>2026-04-25T11:23:03Z</time></trkpt><trkpt lat="41.801285255832425" lon="1.7672405151470443"><ele>281.0</ele><time>2026-04-25T11:23:04Z</time></trkpt><trkpt lat="41.80115844676795" lon="1.7674274870439632"><ele>281.0</ele><time>2026-04-25T11:23:05Z</time></trkpt><trkpt lat="41.80103360724302" lon="1.7676220883644724"><ele>281.0</ele><time>2026-04-25T11:23:06Z</time></trkpt><trkpt lat="41.80090841646567" lon="1.7678165285503893"><ele>281.0</ele><time>2026-04-25T11:23:07Z</time></trkpt><trkpt lat="41.800780330500764" lon="1.7680150841320212"><ele>281.0</ele><time>2026-04-25T11:23:08Z</time></trkpt><trkpt lat="41.800650636204864" lon="1.7682150384452608"><ele>281.0</ele><time>2026-04-25T11:23:09Z</time></trkpt><trkpt lat="41.80051961271744" lon="1.768413012138281"><ele>281.0</ele><time>2026-04-25T11:23:10Z</time></trkpt><trkpt lat="41.80039861092676" lon="1.7685994478615923"><ele>281.0</ele><time>2026-04-25T11:23:11Z</time></trkpt><trkpt lat="41.80028147875993" lon="1.7687847592118395"><ele>281.0</ele><time>2026-04-25T11:23:12Z</time></trkpt><trkpt lat="41.80017028593101" lon="1.7689640281997352"><ele>281.0</ele><time>2026-04-25T11:23:13Z</time></trkpt><trkpt lat="41.80005964731224" lon="1.7691433308401627"><ele>281.0</ele><time>2026-04-25T11:23:14Z</time></trkpt><trkpt lat="41.799944860234916" lon="1.7693235732727874"><ele>281.0</ele><time>2026-04-25T11:23:15Z</time></trkpt><trkpt lat="41.799831675268926" lon="1.7695087622153118"><ele>281.0</ele><time>2026-04-25T11:23:16Z</time></trkpt><trkpt lat="41.79971704130264" lon="1.7696913219862"><ele>281.0</ele><time>2026-04-25T11:23:17Z</time></trkpt><trkpt lat="41.799601933720076" lon="1.7698720644748982"><ele>281.0</ele><time>2026-04-25T11:23:18Z</time></trkpt><trkpt lat="41.79948444464125" lon="1.7700539191709987"><ele>281.0</ele><time>2026-04-25T11:23:19Z</time></trkpt><trkpt lat="41.799364480202975" lon="1.7702423854486142"><ele>281.0</ele><time>2026-04-25T11:23:20Z</time></trkpt><trkpt lat="41.7992480099945" lon="1.770437381170786"><ele>280.0</ele><time>2026-04-25T11:23:21Z</time></trkpt><trkpt lat="41.799136780256795" lon="1.7706422423950237"><ele>279.0</ele><time>2026-04-25T11:23:22Z</time></trkpt><trkpt lat="41.79902944268021" lon="1.770851544753154"><ele>278.0</ele><time>2026-04-25T11:23:23Z</time></trkpt><trkpt lat="41.79892746352955" lon="1.7710665381522317"><ele>277.0</ele><time>2026-04-25T11:23:24Z</time></trkpt><trkpt lat="41.798834157534685" lon="1.7712915736517327"><ele>276.0</ele><time>2026-04-25T11:23:25Z</time></trkpt><trkpt lat="41.798756209025264" lon="1.771529460097678"><ele>275.0</ele><time>2026-04-25T11:23:26Z</time></trkpt><trkpt lat="41.79869661354512" lon="1.7717772913295917"><ele>274.6666666666667</ele><time>2026-04-25T11:23:27Z</time></trkpt><trkpt lat="41.79864653568849" lon="1.7720312739825526"><ele>274.3333333333333</ele><time>2026-04-25T11:23:28Z</time></trkpt><trkpt lat="41.79860216394426" lon="1.772290843829189"><ele>274.0</ele><time>2026-04-25T11:23:29Z</time></trkpt><trkpt lat="41.7985598002287" lon="1.7725518851448236"><ele>274.66666666666663</ele><time>2026-04-25T11:23:30Z</time></trkpt><trkpt lat="41.79851233190211" lon="1.7728040570972528"><ele>275.3333333333333</ele><time>2026-04-25T11:23:31Z</time></trkpt><trkpt lat="41.79846192252191" lon="1.773055572681065"><ele>276.0</ele><time>2026-04-25T11:23:32Z</time></trkpt><trkpt lat="41.798407046553265" lon="1.7733127326528633"><ele>274.0</ele><time>2026-04-25T11:23:33Z</time></trkpt><trkpt lat="41.79835145267016" lon="1.7735731652152131"><ele>272.0</ele><time>2026-04-25T11:23:34Z</time></trkpt><trkpt lat="41.79829851110334" lon="1.773832755607184"><ele>270.0</ele><time>2026-04-25T11:23:35Z</time></trkpt><trkpt lat="41.798249147274355" lon="1.7740742504360225"><ele>270.0</ele><time>2026-04-25T11:23:36Z</time></trkpt><trkpt lat="41.79819729292908" lon="1.7743012574832173"><ele>270.0</ele><time>2026-04-25T11:23:37Z</time></trkpt><trkpt lat="41.79813165338327" lon="1.774540924663113"><ele>270.0</ele><time>2026-04-25T11:23:38Z</time></trkpt><trkpt lat="41.79804756993686" lon="1.7747743123891624"><ele>269.0</ele><time>2026-04-25T11:23:39Z</time></trkpt><trkpt lat="41.79791711716808" lon="1.7749740496702981"><ele>268.0</ele><time>2026-04-25T11:23:40Z</time></trkpt><trkpt lat="41.79777158328063" lon="1.7751632015037422"><ele>267.0</ele><time>2026-04-25T11:23:41Z</time></trkpt><trkpt lat="41.79761841297376" lon="1.7753395149818676"><ele>266.3333333333333</ele><time>2026-04-25T11:23:42Z</time></trkpt><trkpt lat="41.79745618964223" lon="1.7755331197902906"><ele>265.66666666666663</ele><time>2026-04-25T11:23:43Z</time></trkpt><trkpt lat="41.797290113124234" lon="1.775712247466683"><ele>265.0</ele><time>2026-04-25T11:23:44Z</time></trkpt><trkpt lat="41.79713193506181" lon="1.7758904421123762"><ele>265.0</ele><time>2026-04-25T11:23:45Z</time></trkpt><trkpt lat="41.79698567992964" lon="1.776058515489129"><ele>265.0</ele><time>2026-04-25T11:23:46Z</time></trkpt><trkpt lat="41.796830558278565" lon="1.7762334829049669"><ele>265.0</ele><time>2026-04-25T11:23:47Z</time></trkpt><trkpt lat="41.796673018203215" lon="1.7764106206224053"><ele>265.0</ele><time>2026-04-25T11:23:48Z</time></trkpt><trkpt lat="41.79650693485813" lon="1.7765940365449315"><ele>265.0</ele><time>2026-04-25T11:23:49Z</time></trkpt><trkpt lat="41.796336609203586" lon="1.7767886090250251"><ele>265.0</ele><time>2026-04-25T11:23:50Z</time></trkpt><trkpt lat="41.796192295228224" lon="1.7769495835982292"><ele>265.3333333333333</ele><time>2026-04-25T11:23:51Z</time></trkpt><trkpt lat="41.796025448327434" lon="1.7771198313288075"><ele>265.6666666666667</ele><time>2026-04-25T11:23:52Z</time></trkpt><trkpt lat="41.79583415387789" lon="1.7772560967856983"><ele>266.0</ele><time>2026-04-25T11:23:53Z</time></trkpt><trkpt lat="41.795639275486735" lon="1.7773837322998378"><ele>266.0</ele><time>2026-04-25T11:23:54Z</time></trkpt><trkpt lat="41.79543773263007" lon="1.777493228284037"><ele>266.0</ele><time>2026-04-25T11:23:55Z</time></trkpt><trkpt lat="41.79523037532534" lon="1.7775774445262544"><ele>266.0</ele><time>2026-04-25T11:23:56Z</time></trkpt><trkpt lat="41.795017848985175" lon="1.7776318911276963"><ele>262.6666666666667</ele><time>2026-04-25T11:23:57Z</time></trkpt><trkpt lat="41.794802773679606" lon="1.77766180276503"><ele>259.3333333333333</ele><time>2026-04-25T11:23:58Z</time></trkpt><trkpt lat="41.79458726190533" lon="1.7776788615833792"><ele>256.0</ele><time>2026-04-25T11:23:59Z</time></trkpt><trkpt lat="41.7943729817691" lon="1.7776886674969212"><ele>265.0</ele><time>2026-04-25T11:24:00Z</time></trkpt><trkpt lat="41.79415464170006" lon="1.7777192125839643"><ele>274.0</ele><time>2026-04-25T11:24:01Z</time></trkpt><trkpt lat="41.79393011539859" lon="1.777733125507986"><ele>283.0</ele><time>2026-04-25T11:24:02Z</time></trkpt><trkpt lat="41.79371770523047" lon="1.7777359829523562"><ele>283.0</ele><time>2026-04-25T11:24:03Z</time></trkpt><trkpt lat="41.79351982953605" lon="1.7778039140250097"><ele>283.0</ele><time>2026-04-25T11:24:04Z</time></trkpt><trkpt lat="41.793319050342255" lon="1.777874851402546"><ele>283.0</ele><time>2026-04-25T11:24:05Z</time></trkpt><trkpt lat="41.79312672771673" lon="1.7779725676373097"><ele>275.5</ele><time>2026-04-25T11:24:06Z</time></trkpt><trkpt lat="41.792902656594414" lon="1.7780899042916098"><ele>268.0</ele><time>2026-04-25T11:24:07Z</time></trkpt><trkpt lat="41.792632753707046" lon="1.7781670848881084"><ele>263.3333333333333</ele><time>2026-04-25T11:24:08Z</time></trkpt><trkpt lat="41.79256072875643" lon="1.7782783655552745"><ele>258.6666666666667</ele><time>2026-04-25T11:24:09Z</time></trkpt><trkpt lat="41.792365225187446" lon="1.7783834565617378"><ele>254.0</ele><time>2026-04-25T11:24:10Z</time></trkpt><trkpt lat="41.79217032318824" lon="1.7784983597644946"><ele>255.33333333333334</ele><time>2026-04-25T11:24:11Z</time></trkpt><trkpt lat="41.791975936547765" lon="1.778625079563389"><ele>256.6666666666667</ele><time>2026-04-25T11:24:12Z</time></trkpt><trkpt lat="41.791793709940556" lon="1.7787806472714645"><ele>258.0</ele><time>2026-04-25T11:24:13Z</time></trkpt><trkpt lat="41.79162947364324" lon="1.7789585513643487"><ele>258.0</ele><time>2026-04-25T11:24:14Z</time></trkpt><trkpt lat="41.791484481350636" lon="1.779163308038387"><ele>258.0</ele><time>2026-04-25T11:24:15Z</time></trkpt><trkpt lat="41.791346910914804" lon="1.7793968106420832"><ele>258.0</ele><time>2026-04-25T11:24:16Z</time></trkpt><trkpt lat="41.79122059354833" lon="1.7796435638464752"><ele>258.0</ele><time>2026-04-25T11:24:17Z</time></trkpt><trkpt lat="41.791101333058315" lon="1.7799042816624455"><ele>258.0</ele><time>2026-04-25T11:24:18Z</time></trkpt><trkpt lat="41.79100505529955" lon="1.7801771032553833"><ele>261.6666666666667</ele><time>2026-04-25T11:24:19Z</time></trkpt><trkpt lat="41.790933261430396" lon="1.7804580171274103"><ele>265.33333333333337</ele><time>2026-04-25T11:24:20Z</time></trkpt><trkpt lat="41.79087616025835" lon="1.7807420245528083"><ele>269.0</ele><time>2026-04-25T11:24:21Z</time></trkpt><trkpt lat="41.79080391955489" lon="1.7810245832280693"><ele>271.6666666666667</ele><time>2026-04-25T11:24:22Z</time></trkpt><trkpt lat="41.79073740788777" lon="1.7812990290450066"><ele>274.3333333333333</ele><time>2026-04-25T11:24:23Z</time></trkpt><trkpt lat="41.7906749818511" lon="1.7815578623141557"><ele>277.0</ele><time>2026-04-25T11:24:24Z</time></trkpt><trkpt lat="41.79061791253852" lon="1.7817884351926678"><ele>279.66666666666663</ele><time>2026-04-25T11:24:25Z</time></trkpt><trkpt lat="41.79055628210006" lon="1.7820073148880797"><ele>282.3333333333333</ele><time>2026-04-25T11:24:26Z</time></trkpt><trkpt lat="41.790464235297755" lon="1.782213323824543"><ele>285.0</ele><time>2026-04-25T11:24:27Z</time></trkpt><trkpt lat="41.79035803667455" lon="1.7824244410171017"><ele>285.0</ele><time>2026-04-25T11:24:28Z</time></trkpt><trkpt lat="41.79023524244298" lon="1.782634464063896"><ele>285.0</ele><time>2026-04-25T11:24:29Z</time></trkpt><trkpt lat="41.79009601356189" lon="1.782845022749517"><ele>285.0</ele><time>2026-04-25T11:24:30Z</time></trkpt><trkpt lat="41.78991267483612" lon="1.7830669262603085"><ele>284.5</ele><time>2026-04-25T11:24:31Z</time></trkpt><trkpt lat="41.789708534054704" lon="1.7832883246728062"><ele>284.0</ele><time>2026-04-25T11:24:32Z</time></trkpt><trkpt lat="41.78947719467525" lon="1.7835330274536367"><ele>282.5</ele><time>2026-04-25T11:24:33Z</time></trkpt><trkpt lat="41.78923252609836" lon="1.7837911475653316"><ele>281.0</ele><time>2026-04-25T11:24:34Z</time></trkpt><trkpt lat="41.78900263237364" lon="1.7840338659481472"><ele>281.0</ele><time>2026-04-25T11:24:35Z</time></trkpt><trkpt lat="41.78878878344457" lon="1.7842597801216251"><ele>281.0</ele><time>2026-04-25T11:24:36Z</time></trkpt><trkpt lat="41.788577490948555" lon="1.7844829935983866"><ele>283.5</ele><time>2026-04-25T11:24:37Z</time></trkpt><trkpt lat="41.78835481048285" lon="1.7847182375623691"><ele>286.0</ele><time>2026-04-25T11:24:38Z</time></trkpt><trkpt lat="41.78811805980627" lon="1.7849683455771777"><ele>286.0</ele><time>2026-04-25T11:24:39Z</time></trkpt><trkpt lat="41.78787596521922" lon="1.7852274063676723"><ele>286.0</ele><time>2026-04-25T11:24:40Z</time></trkpt><trkpt lat="41.787656523093354" lon="1.7854927945750336"><ele>286.5</ele><time>2026-04-25T11:24:41Z</time></trkpt><trkpt lat="41.787439398905796" lon="1.7857273200799146"><ele>287.0</ele><time>2026-04-25T11:24:42Z</time></trkpt><trkpt lat="41.78723048525926" lon="1.7859518970116115"><ele>287.5</ele><time>2026-04-25T11:24:43Z</time></trkpt><trkpt lat="41.78702474270179" lon="1.7861732874552376"><ele>288.0</ele><time>2026-04-25T11:24:44Z</time></trkpt><trkpt lat="41.78681557202718" lon="1.7863942658000824"><ele>289.0</ele><time>2026-04-25T11:24:45Z</time></trkpt><trkpt lat="41.78660669523299" lon="1.78661508785573"><ele>290.0</ele><time>2026-04-25T11:24:46Z</time></trkpt><trkpt lat="41.786395524391146" lon="1.7868371891163124"><ele>290.5</ele><time>2026-04-25T11:24:47Z</time></trkpt><trkpt lat="41.786176465196" lon="1.7870652876708693"><ele>291.0</ele><time>2026-04-25T11:24:48Z</time></trkpt><trkpt lat="41.78595575242086" lon="1.787298914085011"><ele>292.0</ele><time>2026-04-25T11:24:49Z</time></trkpt><trkpt lat="41.7857368732929" lon="1.787528554866706"><ele>293.0</ele><time>2026-04-25T11:24:50Z</time></trkpt><trkpt lat="41.7855194769515" lon="1.7877534047038741"><ele>295.0</ele><time>2026-04-25T11:24:51Z</time></trkpt><trkpt lat="41.78530534045249" lon="1.7879790505266833"><ele>297.0</ele><time>2026-04-25T11:24:52Z</time></trkpt><trkpt lat="41.7850899305173" lon="1.7882086235681809"><ele>297.0</ele><time>2026-04-25T11:24:53Z</time></trkpt><trkpt lat="41.7848766607412" lon="1.7884382029512012"><ele>297.0</ele><time>2026-04-25T11:24:54Z</time></trkpt><trkpt lat="41.784663500986206" lon="1.788667727561662"><ele>298.0</ele><time>2026-04-25T11:24:55Z</time></trkpt><trkpt lat="41.78445254803197" lon="1.788893249669393"><ele>299.0</ele><time>2026-04-25T11:24:56Z</time></trkpt><trkpt lat="41.78424046660548" lon="1.7891166237429605"><ele>296.5</ele><time>2026-04-25T11:24:57Z</time></trkpt><trkpt lat="41.78403272356436" lon="1.7893334491307713"><ele>294.0</ele><time>2026-04-25T11:24:58Z</time></trkpt><trkpt lat="41.78383863949767" lon="1.7895362148696372"><ele>294.0</ele><time>2026-04-25T11:24:59Z</time></trkpt><trkpt lat="41.78364185510396" lon="1.7897446262725727"><ele>294.0</ele><time>2026-04-25T11:25:00Z</time></trkpt><trkpt lat="41.783429683059005" lon="1.7899724323617754"><ele>290.0</ele><time>2026-04-25T11:25:01Z</time></trkpt><trkpt lat="41.78321160813854" lon="1.790205266729788"><ele>286.0</ele><time>2026-04-25T11:25:02Z</time></trkpt><trkpt lat="41.78299950641408" lon="1.790431659270099"><ele>286.0</ele><time>2026-04-25T11:25:03Z</time></trkpt><trkpt lat="41.78279258365842" lon="1.7906531428958432"><ele>286.0</ele><time>2026-04-25T11:25:04Z</time></trkpt><trkpt lat="41.7825916790789" lon="1.7908621519150154"><ele>286.0</ele><time>2026-04-25T11:25:05Z</time></trkpt><trkpt lat="41.78239475967136" lon="1.791067775022961"><ele>286.0</ele><time>2026-04-25T11:25:06Z</time></trkpt><trkpt lat="41.78220299189987" lon="1.7912715259847614"><ele>286.0</ele><time>2026-04-25T11:25:07Z</time></trkpt><trkpt lat="41.78200913085725" lon="1.7914755663336002"><ele>286.0</ele><time>2026-04-25T11:25:08Z</time></trkpt><trkpt lat="41.78181714404207" lon="1.7916768666712004"><ele>284.0</ele><time>2026-04-25T11:25:09Z</time></trkpt><trkpt lat="41.781626087119754" lon="1.7918727125819562"><ele>282.0</ele><time>2026-04-25T11:25:10Z</time></trkpt><trkpt lat="41.78143195659173" lon="1.7920500500248784"><ele>282.0</ele><time>2026-04-25T11:25:11Z</time></trkpt><trkpt lat="41.78123185619439" lon="1.7921893777933513"><ele>282.0</ele><time>2026-04-25T11:25:12Z</time></trkpt><trkpt lat="41.78101448871876" lon="1.7923068757031533"><ele>278.0</ele><time>2026-04-25T11:25:13Z</time></trkpt><trkpt lat="41.780780491498156" lon="1.792391830675125"><ele>274.0</ele><time>2026-04-25T11:25:14Z</time></trkpt><trkpt lat="41.780534050959076" lon="1.7924861102195984"><ele>274.0</ele><time>2026-04-25T11:25:15Z</time></trkpt><trkpt lat="41.78031836062378" lon="1.7924947242064169"><ele>274.0</ele><time>2026-04-25T11:25:16Z</time></trkpt><trkpt lat="41.78008413787944" lon="1.792490607252399"><ele>269.0</ele><time>2026-04-25T11:25:17Z</time></trkpt><trkpt lat="41.77984868289573" lon="1.7924473489151214"><ele>264.0</ele><time>2026-04-25T11:25:18Z</time></trkpt><trkpt lat="41.77961241842285" lon="1.792359168473182"><ele>264.0</ele><time>2026-04-25T11:25:19Z</time></trkpt><trkpt lat="41.77938139485996" lon="1.7922449281077022"><ele>264.0</ele><time>2026-04-25T11:25:20Z</time></trkpt><trkpt lat="41.779162817587014" lon="1.7920949127052945"><ele>263.5</ele><time>2026-04-25T11:25:21Z</time></trkpt><trkpt lat="41.77895594776824" lon="1.7919203120449168"><ele>263.0</ele><time>2026-04-25T11:25:22Z</time></trkpt><trkpt lat="41.778773221354285" lon="1.791713739424049"><ele>262.6666666666667</ele><time>2026-04-25T11:25:23Z</time></trkpt><trkpt lat="41.77861935236837" lon="1.7915111304540285"><ele>262.3333333333333</ele><time>2026-04-25T11:25:24Z</time></trkpt><trkpt lat="41.77849400707141" lon="1.7913187350710442"><ele>262.0</ele><time>2026-04-25T11:25:25Z</time></trkpt><trkpt lat="41.77839872874688" lon="1.7911401402630172"><ele>263.25</ele><time>2026-04-25T11:25:26Z</time></trkpt><trkpt lat="41.778326639935585" lon="1.7909768089101423"><ele>264.5</ele><time>2026-04-25T11:25:27Z</time></trkpt><trkpt lat="41.77826921117855" lon="1.790832268868387"><ele>265.75</ele><time>2026-04-25T11:25:28Z</time></trkpt><trkpt lat="41.77821649960068" lon="1.7907043675511258"><ele>267.0</ele><time>2026-04-25T11:25:29Z</time></trkpt><trkpt lat="41.77817573746924" lon="1.7906013746023093"><ele>267.0</ele><time>2026-04-25T11:25:30Z</time></trkpt><trkpt lat="41.77813050901578" lon="1.7905161189204426"><ele>267.0</ele><time>2026-04-25T11:25:31Z</time></trkpt><trkpt lat="41.77801789770494" lon="1.7904141367932584"><ele>267.0</ele><time>2026-04-25T11:25:33Z</time></trkpt><trkpt lat="41.77794758912745" lon="1.790440386826012"><ele>267.0</ele><time>2026-04-25T11:25:34Z</time></trkpt><trkpt lat="41.77789896321585" lon="1.790526476822379"><ele>267.0</ele><time>2026-04-25T11:25:35Z</time></trkpt><trkpt lat="41.7778596495611" lon="1.7906428929775564"><ele>267.0</ele><time>2026-04-25T11:25:36Z</time></trkpt><trkpt lat="41.777844654912634" lon="1.7907960301628514"><ele>267.0</ele><time>2026-04-25T11:25:37Z</time></trkpt><trkpt lat="41.77787351508692" lon="1.7909964659359126"><ele>267.0</ele><time>2026-04-25T11:25:38Z</time></trkpt><trkpt lat="41.77790105678409" lon="1.7912035967389737"><ele>267.0</ele><time>2026-04-25T11:25:39Z</time></trkpt><trkpt lat="41.77792728598448" lon="1.791442493233261"><ele>268.0</ele><time>2026-04-25T11:25:40Z</time></trkpt><trkpt lat="41.77794977200186" lon="1.7917109120869272"><ele>269.0</ele><time>2026-04-25T11:25:41Z</time></trkpt><trkpt lat="41.777978219368435" lon="1.7919939731627996"><ele>270.0</ele><time>2026-04-25T11:25:42Z</time></trkpt><trkpt lat="41.77799651140842" lon="1.792280962981467"><ele>272.6666666666667</ele><time>2026-04-25T11:25:43Z</time></trkpt><trkpt lat="41.77797571987006" lon="1.7925644025867882"><ele>275.33333333333337</ele><time>2026-04-25T11:25:44Z</time></trkpt><trkpt lat="41.777919166967685" lon="1.792868158554789"><ele>278.0</ele><time>2026-04-25T11:25:45Z</time></trkpt><trkpt lat="41.777844658162216" lon="1.7931729861510788"><ele>280.0</ele><time>2026-04-25T11:25:46Z</time></trkpt><trkpt lat="41.77778686825558" lon="1.793436375229714"><ele>282.0</ele><time>2026-04-25T11:25:47Z</time></trkpt><trkpt lat="41.7777351733812" lon="1.7936789496141716"><ele>284.0</ele><time>2026-04-25T11:25:48Z</time></trkpt><trkpt lat="41.77767961445486" lon="1.7939358742655245"><ele>286.6666666666667</ele><time>2026-04-25T11:25:49Z</time></trkpt><trkpt lat="41.777625171995396" lon="1.794189541159846"><ele>289.3333333333333</ele><time>2026-04-25T11:25:50Z</time></trkpt><trkpt lat="41.77757093721067" lon="1.7944439827260141"><ele>292.0</ele><time>2026-04-25T11:25:51Z</time></trkpt><trkpt lat="41.77751987612178" lon="1.7946952865542836"><ele>293.3333333333333</ele><time>2026-04-25T11:25:52Z</time></trkpt><trkpt lat="41.77746864461195" lon="1.794941466673888"><ele>294.6666666666667</ele><time>2026-04-25T11:25:53Z</time></trkpt><trkpt lat="41.77741927011464" lon="1.7951745987392136"><ele>296.0</ele><time>2026-04-25T11:25:54Z</time></trkpt><trkpt lat="41.7773683899166" lon="1.7954144992484486"><ele>296.0</ele><time>2026-04-25T11:25:55Z</time></trkpt><trkpt lat="41.77731379742154" lon="1.7956553399121686"><ele>296.0</ele><time>2026-04-25T11:25:56Z</time></trkpt><trkpt lat="41.77725835001108" lon="1.7958895803332828"><ele>296.0</ele><time>2026-04-25T11:25:57Z</time></trkpt><trkpt lat="41.77720962981715" lon="1.7961212048928012"><ele>296.0</ele><time>2026-04-25T11:25:58Z</time></trkpt><trkpt lat="41.7771701407874" lon="1.7963456999441287"><ele>296.0</ele><time>2026-04-25T11:25:59Z</time></trkpt><trkpt lat="41.77714304599626" lon="1.7965841947851986"><ele>296.0</ele><time>2026-04-25T11:26:00Z</time></trkpt><trkpt lat="41.777138879075906" lon="1.7968301453033604"><ele>296.0</ele><time>2026-04-25T11:26:01Z</time></trkpt><trkpt lat="41.777163773947855" lon="1.797077397274365"><ele>296.0</ele><time>2026-04-25T11:26:02Z</time></trkpt><trkpt lat="41.777219674396854" lon="1.7973310044541775"><ele>296.0</ele><time>2026-04-25T11:26:03Z</time></trkpt><trkpt lat="41.77729365029015" lon="1.7976112913295808"><ele>294.5</ele><time>2026-04-25T11:26:04Z</time></trkpt><trkpt lat="41.777373359123104" lon="1.7978909126772549"><ele>293.0</ele><time>2026-04-25T11:26:05Z</time></trkpt><trkpt lat="41.777455884509614" lon="1.7981839572118083"><ele>293.0</ele><time>2026-04-25T11:26:06Z</time></trkpt><trkpt lat="41.77753617314271" lon="1.7984780599617043"><ele>293.0</ele><time>2026-04-25T11:26:07Z</time></trkpt><trkpt lat="41.777608646765565" lon="1.7987574310492525"><ele>292.6666666666667</ele><time>2026-04-25T11:26:08Z</time></trkpt><trkpt lat="41.77767465007078" lon="1.799014543744086"><ele>292.3333333333333</ele><time>2026-04-25T11:26:09Z</time></trkpt><trkpt lat="41.77774255619243" lon="1.7992756872035165"><ele>292.0</ele><time>2026-04-25T11:26:10Z</time></trkpt><trkpt lat="41.777811474228336" lon="1.7995391402883072"><ele>293.3333333333333</ele><time>2026-04-25T11:26:11Z</time></trkpt><trkpt lat="41.77788131381785" lon="1.7998025648452305"><ele>294.6666666666667</ele><time>2026-04-25T11:26:12Z</time></trkpt><trkpt lat="41.77794944261061" lon="1.8000654535362344"><ele>296.0</ele><time>2026-04-25T11:26:13Z</time></trkpt><trkpt lat="41.77801438568765" lon="1.8003149618119443"><ele>296.0</ele><time>2026-04-25T11:26:14Z</time></trkpt><trkpt lat="41.778074174515176" lon="1.8005392856703948"><ele>296.0</ele><time>2026-04-25T11:26:15Z</time></trkpt><trkpt lat="41.778132976117035" lon="1.80074927703746"><ele>296.0</ele><time>2026-04-25T11:26:16Z</time></trkpt><trkpt lat="41.77818814307416" lon="1.800937852833678"><ele>295.5</ele><time>2026-04-25T11:26:17Z</time></trkpt><trkpt lat="41.778233284832346" lon="1.8011095536534694"><ele>295.0</ele><time>2026-04-25T11:26:18Z</time></trkpt><trkpt lat="41.77826474423643" lon="1.8012627334041897"><ele>294.5</ele><time>2026-04-25T11:26:19Z</time></trkpt><trkpt lat="41.77828764379205" lon="1.8014021364560984"><ele>294.0</ele><time>2026-04-25T11:26:20Z</time></trkpt><trkpt lat="41.77830787357762" lon="1.801535265857313"><ele>294.0</ele><time>2026-04-25T11:26:21Z</time></trkpt><trkpt lat="41.778325042134924" lon="1.8016769899813325"><ele>294.0</ele><time>2026-04-25T11:26:22Z</time></trkpt><trkpt lat="41.778337483203025" lon="1.8018067036669307"><ele>294.0</ele><time>2026-04-25T11:26:23Z</time></trkpt><trkpt lat="41.77834692948672" lon="1.801920218810017"><ele>294.0</ele><time>2026-04-25T11:26:24Z</time></trkpt><trkpt lat="41.77835349694666" lon="1.802026729016542"><ele>294.0</ele><time>2026-04-25T11:26:25Z</time></trkpt><trkpt lat="41.77835894735767" lon="1.8021242953097432"><ele>294.0</ele><time>2026-04-25T11:26:26Z</time></trkpt><trkpt lat="41.778366629079706" lon="1.8022810341155728"><ele>294.0</ele><time>2026-04-25T11:26:28Z</time></trkpt><trkpt lat="41.77838068764111" lon="1.8024057569138379"><ele>294.0</ele><time>2026-04-25T11:26:30Z</time></trkpt><trkpt lat="41.77840385068282" lon="1.8024992864557796"><ele>294.0</ele><time>2026-04-25T11:26:32Z</time></trkpt><trkpt lat="41.77839604096396" lon="1.8025856895981143"><ele>294.0</ele><time>2026-04-25T11:29:27Z</time></trkpt><trkpt lat="41.77845577341484" lon="1.8026890320216515"><ele>294.0</ele><time>2026-04-25T11:36:45Z</time></trkpt><trkpt lat="41.77850897818155" lon="1.8028048690972158"><ele>294.0</ele><time>2026-04-25T11:36:47Z</time></trkpt><trkpt lat="41.77856381860552" lon="1.8029171620892566"><ele>294.4</ele><time>2026-04-25T11:36:49Z</time></trkpt><trkpt lat="41.778644191098934" lon="1.803043714363548"><ele>294.79999999999995</ele><time>2026-04-25T11:36:51Z</time></trkpt><trkpt lat="41.77869004434708" lon="1.8031190087012565"><ele>295.20000000000005</ele><time>2026-04-25T11:36:52Z</time></trkpt><trkpt lat="41.778740544600595" lon="1.80322265352097"><ele>295.6</ele><time>2026-04-25T11:36:54Z</time></trkpt><trkpt lat="41.77880425710539" lon="1.8033478258594615"><ele>296.0</ele><time>2026-04-25T11:36:57Z</time></trkpt><trkpt lat="41.7788383754126" lon="1.8034517563464576"><ele>296.0</ele><time>2026-04-25T11:36:58Z</time></trkpt><trkpt lat="41.778866012095236" lon="1.8035816066883052"><ele>296.0</ele><time>2026-04-25T11:36:59Z</time></trkpt><trkpt lat="41.778884003259144" lon="1.8037434141030568"><ele>296.0</ele><time>2026-04-25T11:37:00Z</time></trkpt><trkpt lat="41.77890203242243" lon="1.8039312864792811"><ele>296.0</ele><time>2026-04-25T11:37:01Z</time></trkpt><trkpt lat="41.778916213949785" lon="1.8041678061047857"><ele>295.0</ele><time>2026-04-25T11:37:02Z</time></trkpt><trkpt lat="41.77891807196556" lon="1.8043677064772523"><ele>294.0</ele><time>2026-04-25T11:37:03Z</time></trkpt><trkpt lat="41.778927887430804" lon="1.8045990467852515"><ele>293.0</ele><time>2026-04-25T11:37:04.001Z</time></trkpt><trkpt lat="41.77893461102629" lon="1.80482610356195"><ele>293.0</ele><time>2026-04-25T11:37:05.001Z</time></trkpt><trkpt lat="41.77894992237443" lon="1.8051043250414571"><ele>293.0</ele><time>2026-04-25T11:37:06.001Z</time></trkpt><trkpt lat="41.77895895810074" lon="1.805391943702483"><ele>293.0</ele><time>2026-04-25T11:37:07.001Z</time></trkpt><trkpt lat="41.77896717480255" lon="1.80570382593674"><ele>290.0</ele><time>2026-04-25T11:37:08.001Z</time></trkpt><trkpt lat="41.778978670577075" lon="1.8060338472152937"><ele>287.0</ele><time>2026-04-25T11:37:09.001Z</time></trkpt><trkpt lat="41.77898549230632" lon="1.8063756018636563"><ele>287.0</ele><time>2026-04-25T11:37:10.001Z</time></trkpt><trkpt lat="41.778996133037474" lon="1.8067219868775408"><ele>287.0</ele><time>2026-04-25T11:37:11.001Z</time></trkpt><trkpt lat="41.779008897253135" lon="1.8070695250832562"><ele>286.5</ele><time>2026-04-25T11:37:12.001Z</time></trkpt><trkpt lat="41.7790179818941" lon="1.8074305576296392"><ele>286.0</ele><time>2026-04-25T11:37:13.001Z</time></trkpt><trkpt lat="41.77903043237158" lon="1.807796948291685"><ele>286.0</ele><time>2026-04-25T11:37:14.001Z</time></trkpt><trkpt lat="41.779039853941086" lon="1.8081706470716437"><ele>286.0</ele><time>2026-04-25T11:37:15.001Z</time></trkpt><trkpt lat="41.77905339943858" lon="1.808536205525559"><ele>288.0</ele><time>2026-04-25T11:37:16.001Z</time></trkpt><trkpt lat="41.77906786217742" lon="1.8088986792425508"><ele>290.0</ele><time>2026-04-25T11:37:17.001Z</time></trkpt><trkpt lat="41.779076656658745" lon="1.8092602555086117"><ele>291.0</ele><time>2026-04-25T11:37:18.001Z</time></trkpt><trkpt lat="41.779085980085036" lon="1.8096180863384077"><ele>292.0</ele><time>2026-04-25T11:37:19.001Z</time></trkpt><trkpt lat="41.779100581525604" lon="1.8099769691729608"><ele>292.5</ele><time>2026-04-25T11:37:20.001Z</time></trkpt><trkpt lat="41.77910838306226" lon="1.8103317814058562"><ele>293.0</ele><time>2026-04-25T11:37:21.001Z</time></trkpt><trkpt lat="41.77911997073108" lon="1.8106837969192051"><ele>292.5</ele><time>2026-04-25T11:37:22.001Z</time></trkpt><trkpt lat="41.77913019094353" lon="1.8110189617681918"><ele>292.0</ele><time>2026-04-25T11:37:23.001Z</time></trkpt><trkpt lat="41.779143203498144" lon="1.8113432878612172"><ele>292.0</ele><time>2026-04-25T11:37:24.001Z</time></trkpt><trkpt lat="41.77915442171174" lon="1.8116634800269937"><ele>292.0</ele><time>2026-04-25T11:37:25.001Z</time></trkpt><trkpt lat="41.779164959459685" lon="1.8119892970210774"><ele>291.0</ele><time>2026-04-25T11:37:26.001Z</time></trkpt><trkpt lat="41.77917455724561" lon="1.8123163060093759"><ele>290.0</ele><time>2026-04-25T11:37:27.001Z</time></trkpt><trkpt lat="41.779185124156335" lon="1.8126606555170803"><ele>289.0</ele><time>2026-04-25T11:37:28.001Z</time></trkpt><trkpt lat="41.77919676642365" lon="1.8130257981143996"><ele>288.0</ele><time>2026-04-25T11:37:29.001Z</time></trkpt><trkpt lat="41.7792104230987" lon="1.8133856048418011"><ele>287.0</ele><time>2026-04-25T11:37:30.001Z</time></trkpt><trkpt lat="41.77922928250543" lon="1.8137479243523462"><ele>286.0</ele><time>2026-04-25T11:37:31.001Z</time></trkpt><trkpt lat="41.779251941506324" lon="1.8141246591556337"><ele>287.5</ele><time>2026-04-25T11:37:32.001Z</time></trkpt><trkpt lat="41.77927120546284" lon="1.8145227937387742"><ele>289.0</ele><time>2026-04-25T11:37:33.001Z</time></trkpt><trkpt lat="41.77928232179958" lon="1.8149485258596032"><ele>291.5</ele><time>2026-04-25T11:37:34.001Z</time></trkpt><trkpt lat="41.77928752703305" lon="1.8153882815505313"><ele>294.0</ele><time>2026-04-25T11:37:35.001Z</time></trkpt><trkpt lat="41.77929007463952" lon="1.8158053255091986"><ele>294.0</ele><time>2026-04-25T11:37:36.001Z</time></trkpt><trkpt lat="41.779298042116395" lon="1.8161823491549727"><ele>294.0</ele><time>2026-04-25T11:37:37.001Z</time></trkpt><trkpt lat="41.77930927268393" lon="1.8165415900895396"><ele>294.0</ele><time>2026-04-25T11:37:38.001Z</time></trkpt><trkpt lat="41.77932519630043" lon="1.816910237379936"><ele>294.0</ele><time>2026-04-25T11:37:39.001Z</time></trkpt><trkpt lat="41.779340799279595" lon="1.8172847803456436"><ele>296.0</ele><time>2026-04-25T11:37:40.001Z</time></trkpt><trkpt lat="41.779353415757846" lon="1.817654931711061"><ele>298.0</ele><time>2026-04-25T11:37:41.001Z</time></trkpt><trkpt lat="41.779362915800164" lon="1.8180165646393893"><ele>298.0</ele><time>2026-04-25T11:37:42.001Z</time></trkpt><trkpt lat="41.779370758874975" lon="1.8183655251320356"><ele>298.0</ele><time>2026-04-25T11:37:43.001Z</time></trkpt><trkpt lat="41.77937826563357" lon="1.8187054637067321"><ele>298.0</ele><time>2026-04-25T11:37:44.001Z</time></trkpt><trkpt lat="41.77938859558496" lon="1.8190393673296998"><ele>298.0</ele><time>2026-04-25T11:37:45.001Z</time></trkpt><trkpt lat="41.77940062203179" lon="1.8193593187201196"><ele>299.5</ele><time>2026-04-25T11:37:46.001Z</time></trkpt><trkpt lat="41.77941118364903" lon="1.8196742686713718"><ele>301.0</ele><time>2026-04-25T11:37:47.001Z</time></trkpt><trkpt lat="41.779419404224186" lon="1.8199914658972247"><ele>300.5</ele><time>2026-04-25T11:37:48.001Z</time></trkpt><trkpt lat="41.77942672029346" lon="1.8203184170277262"><ele>300.0</ele><time>2026-04-25T11:37:49.001Z</time></trkpt><trkpt lat="41.77943550842384" lon="1.8206439980091922"><ele>300.0</ele><time>2026-04-25T11:37:50.001Z</time></trkpt><trkpt lat="41.77944598353931" lon="1.8209774730890866"><ele>300.0</ele><time>2026-04-25T11:37:51.001Z</time></trkpt><trkpt lat="41.77945790111228" lon="1.8213164902297039"><ele>297.5</ele><time>2026-04-25T11:37:52.001Z</time></trkpt><trkpt lat="41.77946988331882" lon="1.8216528033206776"><ele>295.0</ele><time>2026-04-25T11:37:53.001Z</time></trkpt><trkpt lat="41.779482038969064" lon="1.82200104432345"><ele>294.0</ele><time>2026-04-25T11:37:54.001Z</time></trkpt><trkpt lat="41.779494682234265" lon="1.822354398413046"><ele>293.0</ele><time>2026-04-25T11:37:55.001Z</time></trkpt><trkpt lat="41.77950624327605" lon="1.822712579593314"><ele>293.0</ele><time>2026-04-25T11:37:56.001Z</time></trkpt><trkpt lat="41.779516381289454" lon="1.8230676092537301"><ele>293.0</ele><time>2026-04-25T11:37:57.001Z</time></trkpt><trkpt lat="41.77952591891461" lon="1.8234235560641985"><ele>295.5</ele><time>2026-04-25T11:37:58.001Z</time></trkpt><trkpt lat="41.77953734739195" lon="1.8237766992936137"><ele>298.0</ele><time>2026-04-25T11:37:59.001Z</time></trkpt><trkpt lat="41.77954934505472" lon="1.8241327248298689"><ele>300.0</ele><time>2026-04-25T11:38:00.001Z</time></trkpt><trkpt lat="41.77956038318742" lon="1.8244864721212413"><ele>302.0</ele><time>2026-04-25T11:38:01.001Z</time></trkpt><trkpt lat="41.77956841729593" lon="1.8248406661913126"><ele>303.5</ele><time>2026-04-25T11:38:02.001Z</time></trkpt><trkpt lat="41.7795779325286" lon="1.8251912347175836"><ele>305.0</ele><time>2026-04-25T11:38:03.001Z</time></trkpt><trkpt lat="41.7795882447418" lon="1.825540781220046"><ele>305.0</ele><time>2026-04-25T11:38:04.001Z</time></trkpt><trkpt lat="41.779598329656224" lon="1.8258893456717031"><ele>305.0</ele><time>2026-04-25T11:38:05.001Z</time></trkpt><trkpt lat="41.7796104846258" lon="1.826234865221229"><ele>305.5</ele><time>2026-04-25T11:38:06.001Z</time></trkpt><trkpt lat="41.77962396915272" lon="1.8265778804474522"><ele>306.0</ele><time>2026-04-25T11:38:07.001Z</time></trkpt><trkpt lat="41.77963510028313" lon="1.8269195921792576"><ele>306.0</ele><time>2026-04-25T11:38:08.001Z</time></trkpt><trkpt lat="41.77964463461772" lon="1.827262183655677"><ele>306.0</ele><time>2026-04-25T11:38:09.001Z</time></trkpt><trkpt lat="41.77965312464317" lon="1.8275925632234469"><ele>307.0</ele><time>2026-04-25T11:38:10.001Z</time></trkpt><trkpt lat="41.779661196297525" lon="1.8279216997686318"><ele>308.0</ele><time>2026-04-25T11:38:11.001Z</time></trkpt><trkpt lat="41.77967106990746" lon="1.8282423139923476"><ele>309.0</ele><time>2026-04-25T11:38:12.001Z</time></trkpt><trkpt lat="41.77968064439826" lon="1.8285384756792586"><ele>310.0</ele><time>2026-04-25T11:38:13.001Z</time></trkpt><trkpt lat="41.77969631364944" lon="1.8290680871382758"><ele>311.66666666666663</ele><time>2026-04-25T11:38:15.001Z</time></trkpt><trkpt lat="41.77969595958348" lon="1.829318746281374"><ele>313.3333333333333</ele><time>2026-04-25T11:38:16.001Z</time></trkpt><trkpt lat="41.77968675660637" lon="1.8295719704977176"><ele>315.0</ele><time>2026-04-25T11:38:17.001Z</time></trkpt><trkpt lat="41.77965999413053" lon="1.829830512520869"><ele>315.0</ele><time>2026-04-25T11:38:18.001Z</time></trkpt><trkpt lat="41.779622655598146" lon="1.8300830676949296"><ele>315.0</ele><time>2026-04-25T11:38:19.001Z</time></trkpt><trkpt lat="41.77958311848952" lon="1.8303385630899627"><ele>315.0</ele><time>2026-04-25T11:38:20.001Z</time></trkpt><trkpt lat="41.77955024638605" lon="1.8305744205832606"><ele>316.3333333333333</ele><time>2026-04-25T11:38:21.001Z</time></trkpt><trkpt lat="41.7795233957856" lon="1.830790857114237"><ele>317.66666666666663</ele><time>2026-04-25T11:38:22.001Z</time></trkpt><trkpt lat="41.77950193121538" lon="1.83098935693511"><ele>319.0</ele><time>2026-04-25T11:38:23.001Z</time></trkpt><trkpt lat="41.779483391546485" lon="1.8311844488916649"><ele>319.25</ele><time>2026-04-25T11:38:24.001Z</time></trkpt><trkpt lat="41.77948096221933" lon="1.8313655924820489"><ele>319.5</ele><time>2026-04-25T11:38:25.001Z</time></trkpt><trkpt lat="41.77949729209548" lon="1.8315323917200896"><ele>319.75</ele><time>2026-04-25T11:38:26.001Z</time></trkpt><trkpt lat="41.77952468485508" lon="1.8316869460707874"><ele>320.0</ele><time>2026-04-25T11:38:27.001Z</time></trkpt><trkpt lat="41.77955015452345" lon="1.8318090107149274"><ele>320.0</ele><time>2026-04-25T11:38:28.001Z</time></trkpt><trkpt lat="41.779528517722525" lon="1.831937686938009"><ele>320.0</ele><time>2026-04-25T11:38:30.001Z</time></trkpt><trkpt lat="41.77941144478386" lon="1.8319265017421613"><ele>320.0</ele><time>2026-04-25T11:38:33.001Z</time></trkpt><trkpt lat="41.77940542189182" lon="1.8318057533080814"><ele>320.0</ele><time>2026-04-25T11:38:35.001Z</time></trkpt><trkpt lat="41.77940397013221" lon="1.8316908418299487"><ele>320.0</ele><time>2026-04-25T11:38:37Z</time></trkpt><trkpt lat="41.779383820057156" lon="1.8315657922249913"><ele>320.0</ele><time>2026-04-25T11:38:39Z</time></trkpt><trkpt lat="41.77937262171696" lon="1.8314148712967973"><ele>320.0</ele><time>2026-04-25T11:38:41Z</time></trkpt><trkpt lat="41.77937221258488" lon="1.8313303690644929"><ele>320.0</ele><time>2026-04-25T11:38:42Z</time></trkpt><trkpt lat="41.77937255867563" lon="1.8312458163115377"><ele>320.0</ele><time>2026-04-25T11:38:43Z</time></trkpt><trkpt lat="41.77937078074383" lon="1.8311583698731053"><ele>320.0</ele><time>2026-04-25T11:38:44Z</time></trkpt><trkpt lat="41.77936655454079" lon="1.8310193001725876"><ele>320.0</ele><time>2026-04-25T11:38:46Z</time></trkpt><trkpt lat="41.77935743667176" lon="1.8309131851260851"><ele>320.0</ele><time>2026-04-25T11:38:48Z</time></trkpt><trkpt lat="41.779273014244225" lon="1.8308478967196529"><ele>320.0</ele><time>2026-04-25T11:38:51Z</time></trkpt><trkpt lat="41.779191197109895" lon="1.8308728271018837"><ele>320.0</ele><time>2026-04-25T11:38:53Z</time></trkpt><trkpt lat="41.77910772493654" lon="1.8309056151770178"><ele>320.0</ele><time>2026-04-25T11:38:55Z</time></trkpt><trkpt lat="41.779010421816714" lon="1.8309196396871426"><ele>320.0</ele><time>2026-04-25T11:38:57Z</time></trkpt><trkpt lat="41.77890804147253" lon="1.830924343998367"><ele>320.0</ele><time>2026-04-25T11:38:59Z</time></trkpt><trkpt lat="41.77880582454281" lon="1.8309259585343745"><ele>320.0</ele><time>2026-04-25T11:39:01Z</time></trkpt><trkpt lat="41.77872695851094" lon="1.830947232184739"><ele>320.0</ele><time>2026-04-25T11:39:03Z</time></trkpt><trkpt lat="41.77867293127996" lon="1.8310133024759232"><ele>320.0</ele><time>2026-04-25T11:39:05Z</time></trkpt><trkpt lat="41.77866882398265" lon="1.8311135448339775"><ele>320.0</ele><time>2026-04-25T11:39:07Z</time></trkpt><trkpt lat="41.77869314844946" lon="1.8311964519967372"><ele>320.0</ele><time>2026-04-25T11:39:09Z</time></trkpt><trkpt lat="41.77871250401362" lon="1.8312795471352805"><ele>323.0</ele><time>2026-04-25T11:39:14Z</time></trkpt><trkpt lat="41.778726382712584" lon="1.8313780368664763"><ele>323.0</ele><time>2026-04-25T11:39:19Z</time></trkpt></trkseg></trk></gpx>